<?xml version="1.0" encoding="UTF-8" standalone="no" ?>
<gpx xmlns="http://www.topografix.com/GPX/1/1" xmlns:xsi="http://www.w3.org/2001/XMLSchema-instance" xsi:schemaLocation="http://www.topografix.com/GPX/1/1 http://www.topografix.com/GPX/1/1/gpx.xsd" version="1.1" creator="VisuGPX - https://www.visugpx.com">
  <metadata>
    <name>Parcours France</name>
    <desc><![CDATA[Nous nous rendons en italie par le Mont cenis]]></desc>
  </metadata>
  <trk>
    <name><![CDATA[OR-5937714--Lyon:France]]></name>
    <trkseg>
      <trkpt lat="45.75373" lon="4.85379">
        <ele>177</ele>
        <time>2016-07-10T22:31:36Z</time>
      </trkpt>
      <trkpt lat="45.75381" lon="4.85454">
        <ele>177</ele>
        <time>2016-07-10T22:33:36Z</time>
      </trkpt>
      <trkpt lat="45.75389" lon="4.85539">
        <ele>174</ele>
        <time>2016-07-10T22:35:36Z</time>
      </trkpt>
      <trkpt lat="45.75389" lon="4.85539">
        <ele>174</ele>
        <time>2016-07-10T22:37:36Z</time>
      </trkpt>
      <trkpt lat="45.75329" lon="4.85552">
        <ele>176</ele>
        <time>2016-07-10T22:39:36Z</time>
      </trkpt>
      <trkpt lat="45.75321" lon="4.85553">
        <ele>176</ele>
        <time>2016-07-10T22:41:36Z</time>
      </trkpt>
      <trkpt lat="45.75321" lon="4.85553">
        <ele>176</ele>
        <time>2016-07-10T22:43:36Z</time>
      </trkpt>
      <trkpt lat="45.75318" lon="4.85533">
        <ele>177</ele>
        <time>2016-07-10T22:45:36Z</time>
      </trkpt>
      <trkpt lat="45.75318" lon="4.85533">
        <ele>177</ele>
        <time>2016-07-10T22:47:36Z</time>
      </trkpt>
      <trkpt lat="45.75302" lon="4.85537">
        <ele>176</ele>
        <time>2016-07-10T22:49:36Z</time>
      </trkpt>
      <trkpt lat="45.75236" lon="4.85553">
        <ele>174</ele>
        <time>2016-07-10T22:51:36Z</time>
      </trkpt>
      <trkpt lat="45.75236" lon="4.85553">
        <ele>174</ele>
        <time>2016-07-10T22:53:36Z</time>
      </trkpt>
      <trkpt lat="45.75235" lon="4.85541">
        <ele>174</ele>
        <time>2016-07-10T22:55:36Z</time>
      </trkpt>
      <trkpt lat="45.75235" lon="4.85541">
        <ele>174</ele>
        <time>2016-07-10T22:57:36Z</time>
      </trkpt>
      <trkpt lat="45.75205" lon="4.85547">
        <ele>175</ele>
        <time>2016-07-10T22:59:36Z</time>
      </trkpt>
      <trkpt lat="45.75164" lon="4.85556">
        <ele>176</ele>
        <time>2016-07-10T23:01:36Z</time>
      </trkpt>
      <trkpt lat="45.75114" lon="4.85567">
        <ele>177</ele>
        <time>2016-07-10T23:03:36Z</time>
      </trkpt>
      <trkpt lat="45.75106" lon="4.85568">
        <ele>177</ele>
        <time>2016-07-10T23:05:36Z</time>
      </trkpt>
      <trkpt lat="45.751" lon="4.85567">
        <ele>177</ele>
        <time>2016-07-10T23:07:36Z</time>
      </trkpt>
      <trkpt lat="45.75097" lon="4.85565">
        <ele>177</ele>
        <time>2016-07-10T23:09:36Z</time>
      </trkpt>
      <trkpt lat="45.75093" lon="4.85563">
        <ele>176</ele>
        <time>2016-07-10T23:11:36Z</time>
      </trkpt>
      <trkpt lat="45.75093" lon="4.85563">
        <ele>176</ele>
        <time>2016-07-10T23:13:36Z</time>
      </trkpt>
      <trkpt lat="45.75107" lon="4.85522">
        <ele>175</ele>
        <time>2016-07-10T23:15:36Z</time>
      </trkpt>
      <trkpt lat="45.75107" lon="4.85522">
        <ele>175</ele>
        <time>2016-07-10T23:17:36Z</time>
      </trkpt>
      <trkpt lat="45.75098" lon="4.8552">
        <ele>175</ele>
        <time>2016-07-10T23:19:36Z</time>
      </trkpt>
      <trkpt lat="45.75075" lon="4.85514">
        <ele>175</ele>
        <time>2016-07-10T23:21:36Z</time>
      </trkpt>
      <trkpt lat="45.75035" lon="4.85506">
        <ele>174</ele>
        <time>2016-07-10T23:23:36Z</time>
      </trkpt>
      <trkpt lat="45.75025" lon="4.85504">
        <ele>174</ele>
        <time>2016-07-10T23:25:36Z</time>
      </trkpt>
      <trkpt lat="45.75004" lon="4.855">
        <ele>173</ele>
        <time>2016-07-10T23:27:36Z</time>
      </trkpt>
      <trkpt lat="45.74992" lon="4.85497">
        <ele>173</ele>
        <time>2016-07-10T23:29:36Z</time>
      </trkpt>
      <trkpt lat="45.74945" lon="4.85487">
        <ele>175</ele>
        <time>2016-07-10T23:31:36Z</time>
      </trkpt>
      <trkpt lat="45.74933" lon="4.85485">
        <ele>175</ele>
        <time>2016-07-10T23:33:36Z</time>
      </trkpt>
      <trkpt lat="45.74852" lon="4.8547">
        <ele>178</ele>
        <time>2016-07-10T23:35:36Z</time>
      </trkpt>
      <trkpt lat="45.74852" lon="4.8547">
        <ele>178</ele>
        <time>2016-07-10T23:37:36Z</time>
      </trkpt>
      <trkpt lat="45.74841" lon="4.85501">
        <ele>179</ele>
        <time>2016-07-10T23:39:36Z</time>
      </trkpt>
      <trkpt lat="45.74831" lon="4.85528">
        <ele>179</ele>
        <time>2016-07-10T23:41:36Z</time>
      </trkpt>
      <trkpt lat="45.74795" lon="4.85618">
        <ele>177</ele>
        <time>2016-07-10T23:43:36Z</time>
      </trkpt>
      <trkpt lat="45.74787" lon="4.8564">
        <ele>176</ele>
        <time>2016-07-10T23:45:36Z</time>
      </trkpt>
      <trkpt lat="45.74778" lon="4.85665">
        <ele>176</ele>
        <time>2016-07-10T23:47:36Z</time>
      </trkpt>
      <trkpt lat="45.74752" lon="4.8575">
        <ele>178</ele>
        <time>2016-07-10T23:49:36Z</time>
      </trkpt>
      <trkpt lat="45.7475" lon="4.85759">
        <ele>178</ele>
        <time>2016-07-10T23:51:36Z</time>
      </trkpt>
      <trkpt lat="45.74735" lon="4.85827">
        <ele>177</ele>
        <time>2016-07-10T23:53:36Z</time>
      </trkpt>
      <trkpt lat="45.74734" lon="4.85837">
        <ele>177</ele>
        <time>2016-07-10T23:55:36Z</time>
      </trkpt>
      <trkpt lat="45.74732" lon="4.85849">
        <ele>177</ele>
        <time>2016-07-10T23:57:36Z</time>
      </trkpt>
      <trkpt lat="45.74727" lon="4.85868">
        <ele>177</ele>
        <time>2016-07-10T23:59:36Z</time>
      </trkpt>
      <trkpt lat="45.74725" lon="4.8588">
        <ele>176</ele>
        <time>2016-07-11T00:01:36Z</time>
      </trkpt>
      <trkpt lat="45.74725" lon="4.8588">
        <ele>176</ele>
        <time>2016-07-11T00:03:36Z</time>
      </trkpt>
      <trkpt lat="45.74549" lon="4.85835">
        <ele>173</ele>
        <time>2016-07-11T00:05:36Z</time>
      </trkpt>
      <trkpt lat="45.74529" lon="4.85828">
        <ele>173</ele>
        <time>2016-07-11T00:07:36Z</time>
      </trkpt>
      <trkpt lat="45.74515" lon="4.85823">
        <ele>173</ele>
        <time>2016-07-11T00:09:36Z</time>
      </trkpt>
      <trkpt lat="45.74498" lon="4.85818">
        <ele>173</ele>
        <time>2016-07-11T00:11:36Z</time>
      </trkpt>
      <trkpt lat="45.74484" lon="4.85816">
        <ele>173</ele>
        <time>2016-07-11T00:13:36Z</time>
      </trkpt>
      <trkpt lat="45.74475" lon="4.85815">
        <ele>173</ele>
        <time>2016-07-11T00:15:36Z</time>
      </trkpt>
      <trkpt lat="45.74465" lon="4.85814">
        <ele>173</ele>
        <time>2016-07-11T00:17:36Z</time>
      </trkpt>
      <trkpt lat="45.7444" lon="4.85806">
        <ele>173</ele>
        <time>2016-07-11T00:19:36Z</time>
      </trkpt>
      <trkpt lat="45.74409" lon="4.85798">
        <ele>174</ele>
        <time>2016-07-11T00:21:36Z</time>
      </trkpt>
      <trkpt lat="45.74386" lon="4.85794">
        <ele>173</ele>
        <time>2016-07-11T00:23:36Z</time>
      </trkpt>
      <trkpt lat="45.74378" lon="4.85786">
        <ele>173</ele>
        <time>2016-07-11T00:25:36Z</time>
      </trkpt>
      <trkpt lat="45.74376" lon="4.85784">
        <ele>173</ele>
        <time>2016-07-11T00:27:36Z</time>
      </trkpt>
      <trkpt lat="45.74374" lon="4.85783">
        <ele>173</ele>
        <time>2016-07-11T00:29:36Z</time>
      </trkpt>
      <trkpt lat="45.74372" lon="4.85782">
        <ele>173</ele>
        <time>2016-07-11T00:31:36Z</time>
      </trkpt>
      <trkpt lat="45.74318" lon="4.85768">
        <ele>172</ele>
        <time>2016-07-11T00:33:36Z</time>
      </trkpt>
      <trkpt lat="45.74268" lon="4.85753">
        <ele>170</ele>
        <time>2016-07-11T00:35:36Z</time>
      </trkpt>
      <trkpt lat="45.74261" lon="4.8575">
        <ele>170</ele>
        <time>2016-07-11T00:37:36Z</time>
      </trkpt>
      <trkpt lat="45.74245" lon="4.85743">
        <ele>170</ele>
        <time>2016-07-11T00:39:36Z</time>
      </trkpt>
      <trkpt lat="45.7424" lon="4.85743">
        <ele>170</ele>
        <time>2016-07-11T00:41:36Z</time>
      </trkpt>
      <trkpt lat="45.74237" lon="4.85742">
        <ele>170</ele>
        <time>2016-07-11T00:43:36Z</time>
      </trkpt>
      <trkpt lat="45.74235" lon="4.85741">
        <ele>170</ele>
        <time>2016-07-11T00:45:36Z</time>
      </trkpt>
      <trkpt lat="45.74232" lon="4.85739">
        <ele>170</ele>
        <time>2016-07-11T00:47:36Z</time>
      </trkpt>
      <trkpt lat="45.7423" lon="4.85738">
        <ele>170</ele>
        <time>2016-07-11T00:49:36Z</time>
      </trkpt>
      <trkpt lat="45.74227" lon="4.85736">
        <ele>170</ele>
        <time>2016-07-11T00:51:36Z</time>
      </trkpt>
      <trkpt lat="45.74184" lon="4.85698">
        <ele>171</ele>
        <time>2016-07-11T00:53:36Z</time>
      </trkpt>
      <trkpt lat="45.74149" lon="4.85668">
        <ele>171</ele>
        <time>2016-07-11T00:55:36Z</time>
      </trkpt>
      <trkpt lat="45.74127" lon="4.85648">
        <ele>171</ele>
        <time>2016-07-11T00:57:36Z</time>
      </trkpt>
      <trkpt lat="45.74091" lon="4.8561">
        <ele>172</ele>
        <time>2016-07-11T00:59:36Z</time>
      </trkpt>
      <trkpt lat="45.74081" lon="4.85599">
        <ele>172</ele>
        <time>2016-07-11T01:01:36Z</time>
      </trkpt>
      <trkpt lat="45.74079" lon="4.85597">
        <ele>172</ele>
        <time>2016-07-11T01:03:36Z</time>
      </trkpt>
      <trkpt lat="45.74077" lon="4.85595">
        <ele>172</ele>
        <time>2016-07-11T01:05:36Z</time>
      </trkpt>
      <trkpt lat="45.74077" lon="4.85595">
        <ele>172</ele>
        <time>2016-07-11T01:07:36Z</time>
      </trkpt>
      <trkpt lat="45.74073" lon="4.85606">
        <ele>172</ele>
        <time>2016-07-11T01:09:36Z</time>
      </trkpt>
      <trkpt lat="45.74065" lon="4.85626">
        <ele>171</ele>
        <time>2016-07-11T01:11:36Z</time>
      </trkpt>
      <trkpt lat="45.74056" lon="4.85646">
        <ele>170</ele>
        <time>2016-07-11T01:13:36Z</time>
      </trkpt>
      <trkpt lat="45.74049" lon="4.85653">
        <ele>170</ele>
        <time>2016-07-11T01:15:36Z</time>
      </trkpt>
      <trkpt lat="45.74045" lon="4.85664">
        <ele>169</ele>
        <time>2016-07-11T01:17:36Z</time>
      </trkpt>
      <trkpt lat="45.74026" lon="4.85717">
        <ele>171</ele>
        <time>2016-07-11T01:19:36Z</time>
      </trkpt>
      <trkpt lat="45.7402" lon="4.85734">
        <ele>171</ele>
        <time>2016-07-11T01:21:36Z</time>
      </trkpt>
      <trkpt lat="45.74002" lon="4.85793">
        <ele>173</ele>
        <time>2016-07-11T01:23:36Z</time>
      </trkpt>
      <trkpt lat="45.73955" lon="4.85946">
        <ele>176</ele>
        <time>2016-07-11T01:25:36Z</time>
      </trkpt>
      <trkpt lat="45.73955" lon="4.85946">
        <ele>176</ele>
        <time>2016-07-11T01:27:36Z</time>
      </trkpt>
      <trkpt lat="45.73918" lon="4.85978">
        <ele>176</ele>
        <time>2016-07-11T01:29:36Z</time>
      </trkpt>
      <trkpt lat="45.73908" lon="4.85986">
        <ele>176</ele>
        <time>2016-07-11T01:31:36Z</time>
      </trkpt>
      <trkpt lat="45.73715" lon="4.86142">
        <ele>173</ele>
        <time>2016-07-11T01:33:36Z</time>
      </trkpt>
      <trkpt lat="45.73605" lon="4.86227">
        <ele>174</ele>
        <time>2016-07-11T01:35:36Z</time>
      </trkpt>
      <trkpt lat="45.73591" lon="4.86238">
        <ele>174</ele>
        <time>2016-07-11T01:37:36Z</time>
      </trkpt>
      <trkpt lat="45.73479" lon="4.86325">
        <ele>174</ele>
        <time>2016-07-11T01:39:36Z</time>
      </trkpt>
      <trkpt lat="45.73474" lon="4.86329">
        <ele>174</ele>
        <time>2016-07-11T01:41:36Z</time>
      </trkpt>
      <trkpt lat="45.73468" lon="4.86334">
        <ele>174</ele>
        <time>2016-07-11T01:43:36Z</time>
      </trkpt>
      <trkpt lat="45.7343" lon="4.86362">
        <ele>174</ele>
        <time>2016-07-11T01:45:36Z</time>
      </trkpt>
      <trkpt lat="45.7333" lon="4.8644">
        <ele>177</ele>
        <time>2016-07-11T01:47:36Z</time>
      </trkpt>
      <trkpt lat="45.73259" lon="4.86496">
        <ele>179</ele>
        <time>2016-07-11T01:49:36Z</time>
      </trkpt>
      <trkpt lat="45.73189" lon="4.86551">
        <ele>180</ele>
        <time>2016-07-11T01:51:36Z</time>
      </trkpt>
      <trkpt lat="45.73183" lon="4.86556">
        <ele>180</ele>
        <time>2016-07-11T01:53:36Z</time>
      </trkpt>
      <trkpt lat="45.73116" lon="4.86607">
        <ele>178</ele>
        <time>2016-07-11T01:55:36Z</time>
      </trkpt>
      <trkpt lat="45.73073" lon="4.8664">
        <ele>176</ele>
        <time>2016-07-11T01:57:36Z</time>
      </trkpt>
      <trkpt lat="45.7301" lon="4.86687">
        <ele>174</ele>
        <time>2016-07-11T01:59:36Z</time>
      </trkpt>
      <trkpt lat="45.72981" lon="4.86709">
        <ele>175</ele>
        <time>2016-07-11T02:01:36Z</time>
      </trkpt>
      <trkpt lat="45.72938" lon="4.86744">
        <ele>178</ele>
        <time>2016-07-11T02:03:36Z</time>
      </trkpt>
      <trkpt lat="45.72931" lon="4.8675">
        <ele>178</ele>
        <time>2016-07-11T02:05:36Z</time>
      </trkpt>
      <trkpt lat="45.72915" lon="4.86764">
        <ele>179</ele>
        <time>2016-07-11T02:07:36Z</time>
      </trkpt>
      <trkpt lat="45.72819" lon="4.86839">
        <ele>177</ele>
        <time>2016-07-11T02:09:36Z</time>
      </trkpt>
      <trkpt lat="45.7277" lon="4.86877">
        <ele>177</ele>
        <time>2016-07-11T02:11:36Z</time>
      </trkpt>
      <trkpt lat="45.72717" lon="4.86918">
        <ele>177</ele>
        <time>2016-07-11T02:13:36Z</time>
      </trkpt>
      <trkpt lat="45.72701" lon="4.8693">
        <ele>178</ele>
        <time>2016-07-11T02:15:36Z</time>
      </trkpt>
      <trkpt lat="45.72684" lon="4.86944">
        <ele>178</ele>
        <time>2016-07-11T02:17:36Z</time>
      </trkpt>
      <trkpt lat="45.72622" lon="4.86991">
        <ele>178</ele>
        <time>2016-07-11T02:19:36Z</time>
      </trkpt>
      <trkpt lat="45.72573" lon="4.8703">
        <ele>179</ele>
        <time>2016-07-11T02:21:36Z</time>
      </trkpt>
      <trkpt lat="45.7257" lon="4.87033">
        <ele>179</ele>
        <time>2016-07-11T02:23:36Z</time>
      </trkpt>
      <trkpt lat="45.72529" lon="4.87064">
        <ele>179</ele>
        <time>2016-07-11T02:25:36Z</time>
      </trkpt>
      <trkpt lat="45.7249" lon="4.87095">
        <ele>179</ele>
        <time>2016-07-11T02:27:36Z</time>
      </trkpt>
      <trkpt lat="45.7245" lon="4.87127">
        <ele>179</ele>
        <time>2016-07-11T02:29:36Z</time>
      </trkpt>
      <trkpt lat="45.72439" lon="4.87136">
        <ele>179</ele>
        <time>2016-07-11T02:31:36Z</time>
      </trkpt>
      <trkpt lat="45.72439" lon="4.87136">
        <ele>179</ele>
        <time>2016-07-11T02:33:36Z</time>
      </trkpt>
      <trkpt lat="45.72414" lon="4.87156">
        <ele>180</ele>
        <time>2016-07-11T02:35:36Z</time>
      </trkpt>
      <trkpt lat="45.72321" lon="4.87228">
        <ele>181</ele>
        <time>2016-07-11T02:37:36Z</time>
      </trkpt>
      <trkpt lat="45.72266" lon="4.87269">
        <ele>181</ele>
        <time>2016-07-11T02:39:36Z</time>
      </trkpt>
      <trkpt lat="45.72189" lon="4.87332">
        <ele>181</ele>
        <time>2016-07-11T02:41:36Z</time>
      </trkpt>
      <trkpt lat="45.7211" lon="4.87393">
        <ele>179</ele>
        <time>2016-07-11T02:43:36Z</time>
      </trkpt>
      <trkpt lat="45.72109" lon="4.87392">
        <ele>179</ele>
        <time>2016-07-11T02:45:36Z</time>
      </trkpt>
      <trkpt lat="45.72108" lon="4.87391">
        <ele>179</ele>
        <time>2016-07-11T02:47:36Z</time>
      </trkpt>
      <trkpt lat="45.72107" lon="4.87391">
        <ele>179</ele>
        <time>2016-07-11T02:49:36Z</time>
      </trkpt>
      <trkpt lat="45.72107" lon="4.8739">
        <ele>179</ele>
        <time>2016-07-11T02:51:36Z</time>
      </trkpt>
      <trkpt lat="45.72106" lon="4.8739">
        <ele>179</ele>
        <time>2016-07-11T02:53:36Z</time>
      </trkpt>
      <trkpt lat="45.72105" lon="4.8739">
        <ele>179</ele>
        <time>2016-07-11T02:55:36Z</time>
      </trkpt>
      <trkpt lat="45.72104" lon="4.87389">
        <ele>179</ele>
        <time>2016-07-11T02:57:36Z</time>
      </trkpt>
      <trkpt lat="45.72103" lon="4.87389">
        <ele>179</ele>
        <time>2016-07-11T02:59:36Z</time>
      </trkpt>
      <trkpt lat="45.72102" lon="4.87389">
        <ele>179</ele>
        <time>2016-07-11T03:01:36Z</time>
      </trkpt>
      <trkpt lat="45.72101" lon="4.87389">
        <ele>179</ele>
        <time>2016-07-11T03:03:36Z</time>
      </trkpt>
      <trkpt lat="45.721" lon="4.87389">
        <ele>179</ele>
        <time>2016-07-11T03:05:36Z</time>
      </trkpt>
      <trkpt lat="45.72099" lon="4.87389">
        <ele>179</ele>
        <time>2016-07-11T03:07:36Z</time>
      </trkpt>
      <trkpt lat="45.72098" lon="4.8739">
        <ele>179</ele>
        <time>2016-07-11T03:09:36Z</time>
      </trkpt>
      <trkpt lat="45.72097" lon="4.8739">
        <ele>179</ele>
        <time>2016-07-11T03:11:36Z</time>
      </trkpt>
      <trkpt lat="45.72096" lon="4.87391">
        <ele>179</ele>
        <time>2016-07-11T03:13:36Z</time>
      </trkpt>
      <trkpt lat="45.72095" lon="4.87391">
        <ele>179</ele>
        <time>2016-07-11T03:15:36Z</time>
      </trkpt>
      <trkpt lat="45.72094" lon="4.87392">
        <ele>179</ele>
        <time>2016-07-11T03:17:36Z</time>
      </trkpt>
      <trkpt lat="45.72094" lon="4.87393">
        <ele>179</ele>
        <time>2016-07-11T03:19:36Z</time>
      </trkpt>
      <trkpt lat="45.72093" lon="4.87393">
        <ele>179</ele>
        <time>2016-07-11T03:21:36Z</time>
      </trkpt>
      <trkpt lat="45.72092" lon="4.87394">
        <ele>179</ele>
        <time>2016-07-11T03:23:36Z</time>
      </trkpt>
      <trkpt lat="45.72092" lon="4.87395">
        <ele>179</ele>
        <time>2016-07-11T03:25:36Z</time>
      </trkpt>
      <trkpt lat="45.72091" lon="4.87396">
        <ele>179</ele>
        <time>2016-07-11T03:27:36Z</time>
      </trkpt>
      <trkpt lat="45.7209" lon="4.87397">
        <ele>180</ele>
        <time>2016-07-11T03:29:36Z</time>
      </trkpt>
      <trkpt lat="45.7209" lon="4.87398">
        <ele>180</ele>
        <time>2016-07-11T03:31:36Z</time>
      </trkpt>
      <trkpt lat="45.72089" lon="4.87399">
        <ele>180</ele>
        <time>2016-07-11T03:33:36Z</time>
      </trkpt>
      <trkpt lat="45.72089" lon="4.874">
        <ele>180</ele>
        <time>2016-07-11T03:35:36Z</time>
      </trkpt>
      <trkpt lat="45.72089" lon="4.87402">
        <ele>180</ele>
        <time>2016-07-11T03:37:36Z</time>
      </trkpt>
      <trkpt lat="45.72088" lon="4.87403">
        <ele>180</ele>
        <time>2016-07-11T03:39:36Z</time>
      </trkpt>
      <trkpt lat="45.72088" lon="4.87404">
        <ele>180</ele>
        <time>2016-07-11T03:41:36Z</time>
      </trkpt>
      <trkpt lat="45.72088" lon="4.87405">
        <ele>180</ele>
        <time>2016-07-11T03:43:36Z</time>
      </trkpt>
      <trkpt lat="45.72088" lon="4.87407">
        <ele>180</ele>
        <time>2016-07-11T03:45:36Z</time>
      </trkpt>
      <trkpt lat="45.72087" lon="4.87408">
        <ele>180</ele>
        <time>2016-07-11T03:47:36Z</time>
      </trkpt>
      <trkpt lat="45.72087" lon="4.8741">
        <ele>180</ele>
        <time>2016-07-11T03:49:36Z</time>
      </trkpt>
      <trkpt lat="45.72083" lon="4.87413">
        <ele>180</ele>
        <time>2016-07-11T03:51:36Z</time>
      </trkpt>
      <trkpt lat="45.72078" lon="4.87417">
        <ele>180</ele>
        <time>2016-07-11T03:53:36Z</time>
      </trkpt>
      <trkpt lat="45.72072" lon="4.87422">
        <ele>180</ele>
        <time>2016-07-11T03:55:36Z</time>
      </trkpt>
      <trkpt lat="45.72058" lon="4.87432">
        <ele>180</ele>
        <time>2016-07-11T03:57:36Z</time>
      </trkpt>
      <trkpt lat="45.71996" lon="4.87481">
        <ele>181</ele>
        <time>2016-07-11T03:59:36Z</time>
      </trkpt>
      <trkpt lat="45.71922" lon="4.87538">
        <ele>179</ele>
        <time>2016-07-11T04:01:36Z</time>
      </trkpt>
      <trkpt lat="45.71909" lon="4.87549">
        <ele>179</ele>
        <time>2016-07-11T04:03:36Z</time>
      </trkpt>
      <trkpt lat="45.71907" lon="4.8755">
        <ele>179</ele>
        <time>2016-07-11T04:05:36Z</time>
      </trkpt>
      <trkpt lat="45.71899" lon="4.87556">
        <ele>179</ele>
        <time>2016-07-11T04:07:36Z</time>
      </trkpt>
      <trkpt lat="45.71884" lon="4.87567">
        <ele>179</ele>
        <time>2016-07-11T04:09:36Z</time>
      </trkpt>
      <trkpt lat="45.71845" lon="4.87599">
        <ele>179</ele>
        <time>2016-07-11T04:11:36Z</time>
      </trkpt>
      <trkpt lat="45.71811" lon="4.87626">
        <ele>180</ele>
        <time>2016-07-11T04:13:36Z</time>
      </trkpt>
      <trkpt lat="45.71758" lon="4.87667">
        <ele>181</ele>
        <time>2016-07-11T04:15:36Z</time>
      </trkpt>
      <trkpt lat="45.71745" lon="4.87679">
        <ele>181</ele>
        <time>2016-07-11T04:17:36Z</time>
      </trkpt>
      <trkpt lat="45.71693" lon="4.8772">
        <ele>182</ele>
        <time>2016-07-11T04:19:36Z</time>
      </trkpt>
      <trkpt lat="45.71644" lon="4.87754">
        <ele>183</ele>
        <time>2016-07-11T04:21:36Z</time>
      </trkpt>
      <trkpt lat="45.71591" lon="4.87791">
        <ele>183</ele>
        <time>2016-07-11T04:23:36Z</time>
      </trkpt>
      <trkpt lat="45.71552" lon="4.87821">
        <ele>181</ele>
        <time>2016-07-11T04:25:36Z</time>
      </trkpt>
      <trkpt lat="45.7152" lon="4.87846">
        <ele>181</ele>
        <time>2016-07-11T04:27:36Z</time>
      </trkpt>
      <trkpt lat="45.71506" lon="4.87858">
        <ele>181</ele>
        <time>2016-07-11T04:29:36Z</time>
      </trkpt>
      <trkpt lat="45.71475" lon="4.87881">
        <ele>182</ele>
        <time>2016-07-11T04:31:36Z</time>
      </trkpt>
      <trkpt lat="45.71428" lon="4.87921">
        <ele>182</ele>
        <time>2016-07-11T04:33:36Z</time>
      </trkpt>
      <trkpt lat="45.71399" lon="4.87944">
        <ele>183</ele>
        <time>2016-07-11T04:35:36Z</time>
      </trkpt>
      <trkpt lat="45.71368" lon="4.87967">
        <ele>183</ele>
        <time>2016-07-11T04:37:36Z</time>
      </trkpt>
      <trkpt lat="45.71326" lon="4.88001">
        <ele>184</ele>
        <time>2016-07-11T04:39:36Z</time>
      </trkpt>
      <trkpt lat="45.71298" lon="4.88023">
        <ele>184</ele>
        <time>2016-07-11T04:41:36Z</time>
      </trkpt>
      <trkpt lat="45.71264" lon="4.88049">
        <ele>184</ele>
        <time>2016-07-11T04:43:36Z</time>
      </trkpt>
      <trkpt lat="45.71229" lon="4.88077">
        <ele>184</ele>
        <time>2016-07-11T04:45:36Z</time>
      </trkpt>
      <trkpt lat="45.71199" lon="4.881">
        <ele>184</ele>
        <time>2016-07-11T04:47:36Z</time>
      </trkpt>
      <trkpt lat="45.71185" lon="4.8811">
        <ele>184</ele>
        <time>2016-07-11T04:49:36Z</time>
      </trkpt>
      <trkpt lat="45.71169" lon="4.88127">
        <ele>184</ele>
        <time>2016-07-11T04:51:36Z</time>
      </trkpt>
      <trkpt lat="45.71152" lon="4.88145">
        <ele>185</ele>
        <time>2016-07-11T04:53:36Z</time>
      </trkpt>
      <trkpt lat="45.71141" lon="4.88159">
        <ele>185</ele>
        <time>2016-07-11T04:55:36Z</time>
      </trkpt>
      <trkpt lat="45.71134" lon="4.88169">
        <ele>185</ele>
        <time>2016-07-11T04:57:36Z</time>
      </trkpt>
      <trkpt lat="45.71115" lon="4.88198">
        <ele>185</ele>
        <time>2016-07-11T04:59:36Z</time>
      </trkpt>
      <trkpt lat="45.71101" lon="4.88221">
        <ele>185</ele>
        <time>2016-07-11T05:01:36Z</time>
      </trkpt>
      <trkpt lat="45.71079" lon="4.88257">
        <ele>185</ele>
        <time>2016-07-11T05:03:36Z</time>
      </trkpt>
      <trkpt lat="45.71059" lon="4.88289">
        <ele>185</ele>
        <time>2016-07-11T05:05:36Z</time>
      </trkpt>
      <trkpt lat="45.71034" lon="4.88328">
        <ele>186</ele>
        <time>2016-07-11T05:07:36Z</time>
      </trkpt>
      <trkpt lat="45.71024" lon="4.88344">
        <ele>186</ele>
        <time>2016-07-11T05:09:36Z</time>
      </trkpt>
      <trkpt lat="45.71002" lon="4.88381">
        <ele>187</ele>
        <time>2016-07-11T05:11:36Z</time>
      </trkpt>
      <trkpt lat="45.70976" lon="4.88424">
        <ele>188</ele>
        <time>2016-07-11T05:13:36Z</time>
      </trkpt>
      <trkpt lat="45.70948" lon="4.88468">
        <ele>189</ele>
        <time>2016-07-11T05:15:36Z</time>
      </trkpt>
      <trkpt lat="45.7093" lon="4.88499">
        <ele>189</ele>
        <time>2016-07-11T05:17:36Z</time>
      </trkpt>
      <trkpt lat="45.70923" lon="4.88509">
        <ele>189</ele>
        <time>2016-07-11T05:19:36Z</time>
      </trkpt>
      <trkpt lat="45.70892" lon="4.88562">
        <ele>188</ele>
        <time>2016-07-11T05:21:36Z</time>
      </trkpt>
      <trkpt lat="45.70866" lon="4.88604">
        <ele>187</ele>
        <time>2016-07-11T05:23:36Z</time>
      </trkpt>
      <trkpt lat="45.70857" lon="4.88619">
        <ele>187</ele>
        <time>2016-07-11T05:25:36Z</time>
      </trkpt>
      <trkpt lat="45.70832" lon="4.88657">
        <ele>187</ele>
        <time>2016-07-11T05:27:36Z</time>
      </trkpt>
      <trkpt lat="45.70827" lon="4.88665">
        <ele>187</ele>
        <time>2016-07-11T05:29:36Z</time>
      </trkpt>
      <trkpt lat="45.70816" lon="4.88681">
        <ele>187</ele>
        <time>2016-07-11T05:31:36Z</time>
      </trkpt>
      <trkpt lat="45.70807" lon="4.88692">
        <ele>187</ele>
        <time>2016-07-11T05:33:36Z</time>
      </trkpt>
      <trkpt lat="45.70807" lon="4.88692">
        <ele>187</ele>
        <time>2016-07-11T05:35:36Z</time>
      </trkpt>
      <trkpt lat="45.70818" lon="4.88697">
        <ele>187</ele>
        <time>2016-07-11T05:37:36Z</time>
      </trkpt>
      <trkpt lat="45.70823" lon="4.88698">
        <ele>187</ele>
        <time>2016-07-11T05:39:36Z</time>
      </trkpt>
      <trkpt lat="45.70835" lon="4.88704">
        <ele>187</ele>
        <time>2016-07-11T05:41:36Z</time>
      </trkpt>
      <trkpt lat="45.70854" lon="4.8871">
        <ele>186</ele>
        <time>2016-07-11T05:43:36Z</time>
      </trkpt>
      <trkpt lat="45.70861" lon="4.88718">
        <ele>185</ele>
        <time>2016-07-11T05:45:36Z</time>
      </trkpt>
      <trkpt lat="45.70878" lon="4.88722">
        <ele>185</ele>
        <time>2016-07-11T05:47:36Z</time>
      </trkpt>
      <trkpt lat="45.70943" lon="4.88736">
        <ele>184</ele>
        <time>2016-07-11T05:49:36Z</time>
      </trkpt>
      <trkpt lat="45.70986" lon="4.8875">
        <ele>185</ele>
        <time>2016-07-11T05:51:36Z</time>
      </trkpt>
      <trkpt lat="45.70997" lon="4.88752">
        <ele>186</ele>
        <time>2016-07-11T05:53:36Z</time>
      </trkpt>
      <trkpt lat="45.70997" lon="4.88752">
        <ele>186</ele>
        <time>2016-07-11T05:55:36Z</time>
      </trkpt>
      <trkpt lat="45.71002" lon="4.88756">
        <ele>186</ele>
        <time>2016-07-11T05:57:36Z</time>
      </trkpt>
      <trkpt lat="45.71005" lon="4.88759">
        <ele>186</ele>
        <time>2016-07-11T05:59:36Z</time>
      </trkpt>
      <trkpt lat="45.71007" lon="4.88762">
        <ele>186</ele>
        <time>2016-07-11T06:01:36Z</time>
      </trkpt>
      <trkpt lat="45.7101" lon="4.88765">
        <ele>186</ele>
        <time>2016-07-11T06:03:36Z</time>
      </trkpt>
      <trkpt lat="45.71012" lon="4.88767">
        <ele>186</ele>
        <time>2016-07-11T06:05:36Z</time>
      </trkpt>
      <trkpt lat="45.71015" lon="4.8877">
        <ele>186</ele>
        <time>2016-07-11T06:07:36Z</time>
      </trkpt>
      <trkpt lat="45.71017" lon="4.88775">
        <ele>186</ele>
        <time>2016-07-11T06:09:36Z</time>
      </trkpt>
      <trkpt lat="45.71026" lon="4.88792">
        <ele>186</ele>
        <time>2016-07-11T06:11:36Z</time>
      </trkpt>
      <trkpt lat="45.71034" lon="4.88804">
        <ele>186</ele>
        <time>2016-07-11T06:13:36Z</time>
      </trkpt>
      <trkpt lat="45.71056" lon="4.8885">
        <ele>186</ele>
        <time>2016-07-11T06:15:36Z</time>
      </trkpt>
      <trkpt lat="45.71062" lon="4.8886">
        <ele>186</ele>
        <time>2016-07-11T06:17:36Z</time>
      </trkpt>
      <trkpt lat="45.71068" lon="4.88869">
        <ele>186</ele>
        <time>2016-07-11T06:19:36Z</time>
      </trkpt>
      <trkpt lat="45.71073" lon="4.88881">
        <ele>186</ele>
        <time>2016-07-11T06:21:36Z</time>
      </trkpt>
      <trkpt lat="45.71081" lon="4.88897">
        <ele>186</ele>
        <time>2016-07-11T06:23:36Z</time>
      </trkpt>
      <trkpt lat="45.71104" lon="4.88938">
        <ele>187</ele>
        <time>2016-07-11T06:25:36Z</time>
      </trkpt>
      <trkpt lat="45.71163" lon="4.89043">
        <ele>188</ele>
        <time>2016-07-11T06:27:36Z</time>
      </trkpt>
      <trkpt lat="45.71169" lon="4.89057">
        <ele>188</ele>
        <time>2016-07-11T06:29:36Z</time>
      </trkpt>
      <trkpt lat="45.71175" lon="4.89068">
        <ele>188</ele>
        <time>2016-07-11T06:31:36Z</time>
      </trkpt>
      <trkpt lat="45.71326" lon="4.89323">
        <ele>189</ele>
        <time>2016-07-11T06:33:36Z</time>
      </trkpt>
      <trkpt lat="45.71357" lon="4.89372">
        <ele>189</ele>
        <time>2016-07-11T06:35:36Z</time>
      </trkpt>
      <trkpt lat="45.71393" lon="4.89424">
        <ele>188</ele>
        <time>2016-07-11T06:37:36Z</time>
      </trkpt>
      <trkpt lat="45.71438" lon="4.8948">
        <ele>188</ele>
        <time>2016-07-11T06:39:36Z</time>
      </trkpt>
      <trkpt lat="45.71469" lon="4.89519">
        <ele>188</ele>
        <time>2016-07-11T06:41:36Z</time>
      </trkpt>
      <trkpt lat="45.71481" lon="4.89531">
        <ele>188</ele>
        <time>2016-07-11T06:43:36Z</time>
      </trkpt>
      <trkpt lat="45.71481" lon="4.89531">
        <ele>188</ele>
        <time>2016-07-11T06:45:36Z</time>
      </trkpt>
      <trkpt lat="45.71482" lon="4.89535">
        <ele>188</ele>
        <time>2016-07-11T06:47:36Z</time>
      </trkpt>
      <trkpt lat="45.71483" lon="4.89541">
        <ele>188</ele>
        <time>2016-07-11T06:49:36Z</time>
      </trkpt>
      <trkpt lat="45.71483" lon="4.89547">
        <ele>189</ele>
        <time>2016-07-11T06:51:36Z</time>
      </trkpt>
      <trkpt lat="45.71483" lon="4.89553">
        <ele>189</ele>
        <time>2016-07-11T06:53:36Z</time>
      </trkpt>
      <trkpt lat="45.71484" lon="4.89558">
        <ele>189</ele>
        <time>2016-07-11T06:55:36Z</time>
      </trkpt>
      <trkpt lat="45.71484" lon="4.89564">
        <ele>189</ele>
        <time>2016-07-11T06:57:36Z</time>
      </trkpt>
      <trkpt lat="45.71484" lon="4.89568">
        <ele>190</ele>
        <time>2016-07-11T06:59:36Z</time>
      </trkpt>
      <trkpt lat="45.71481" lon="4.89573">
        <ele>190</ele>
        <time>2016-07-11T07:01:36Z</time>
      </trkpt>
      <trkpt lat="45.71393" lon="4.8972">
        <ele>189</ele>
        <time>2016-07-11T07:03:36Z</time>
      </trkpt>
      <trkpt lat="45.71338" lon="4.8981">
        <ele>188</ele>
        <time>2016-07-11T07:05:36Z</time>
      </trkpt>
      <trkpt lat="45.71297" lon="4.89879">
        <ele>192</ele>
        <time>2016-07-11T07:07:36Z</time>
      </trkpt>
      <trkpt lat="45.7126" lon="4.89938">
        <ele>191</ele>
        <time>2016-07-11T07:09:36Z</time>
      </trkpt>
      <trkpt lat="45.71233" lon="4.89982">
        <ele>192</ele>
        <time>2016-07-11T07:11:36Z</time>
      </trkpt>
      <trkpt lat="45.71209" lon="4.9002">
        <ele>191</ele>
        <time>2016-07-11T07:13:36Z</time>
      </trkpt>
      <trkpt lat="45.71203" lon="4.90029">
        <ele>190</ele>
        <time>2016-07-11T07:15:36Z</time>
      </trkpt>
      <trkpt lat="45.71182" lon="4.90061">
        <ele>189</ele>
        <time>2016-07-11T07:17:36Z</time>
      </trkpt>
      <trkpt lat="45.71174" lon="4.90076">
        <ele>189</ele>
        <time>2016-07-11T07:19:36Z</time>
      </trkpt>
      <trkpt lat="45.71154" lon="4.90109">
        <ele>189</ele>
        <time>2016-07-11T07:21:36Z</time>
      </trkpt>
      <trkpt lat="45.71127" lon="4.90155">
        <ele>189</ele>
        <time>2016-07-11T07:23:36Z</time>
      </trkpt>
      <trkpt lat="45.71115" lon="4.90175">
        <ele>189</ele>
        <time>2016-07-11T07:25:36Z</time>
      </trkpt>
      <trkpt lat="45.71109" lon="4.90185">
        <ele>189</ele>
        <time>2016-07-11T07:27:36Z</time>
      </trkpt>
      <trkpt lat="45.71102" lon="4.90196">
        <ele>189</ele>
        <time>2016-07-11T07:29:36Z</time>
      </trkpt>
      <trkpt lat="45.71087" lon="4.90218">
        <ele>190</ele>
        <time>2016-07-11T07:31:36Z</time>
      </trkpt>
      <trkpt lat="45.71063" lon="4.90258">
        <ele>191</ele>
        <time>2016-07-11T07:33:36Z</time>
      </trkpt>
      <trkpt lat="45.71036" lon="4.90309">
        <ele>189</ele>
        <time>2016-07-11T07:35:36Z</time>
      </trkpt>
      <trkpt lat="45.71027" lon="4.90323">
        <ele>189</ele>
        <time>2016-07-11T07:37:36Z</time>
      </trkpt>
      <trkpt lat="45.71008" lon="4.90355">
        <ele>189</ele>
        <time>2016-07-11T07:39:36Z</time>
      </trkpt>
      <trkpt lat="45.71003" lon="4.90363">
        <ele>190</ele>
        <time>2016-07-11T07:41:36Z</time>
      </trkpt>
      <trkpt lat="45.70982" lon="4.90398">
        <ele>190</ele>
        <time>2016-07-11T07:43:36Z</time>
      </trkpt>
      <trkpt lat="45.70955" lon="4.90443">
        <ele>190</ele>
        <time>2016-07-11T07:45:36Z</time>
      </trkpt>
      <trkpt lat="45.70943" lon="4.90462">
        <ele>189</ele>
        <time>2016-07-11T07:47:36Z</time>
      </trkpt>
      <trkpt lat="45.70935" lon="4.90475">
        <ele>189</ele>
        <time>2016-07-11T07:49:36Z</time>
      </trkpt>
      <trkpt lat="45.70914" lon="4.9051">
        <ele>188</ele>
        <time>2016-07-11T07:51:36Z</time>
      </trkpt>
      <trkpt lat="45.70883" lon="4.90562">
        <ele>189</ele>
        <time>2016-07-11T07:53:36Z</time>
      </trkpt>
      <trkpt lat="45.70849" lon="4.90617">
        <ele>192</ele>
        <time>2016-07-11T07:55:36Z</time>
      </trkpt>
      <trkpt lat="45.7083" lon="4.90649">
        <ele>193</ele>
        <time>2016-07-11T07:57:36Z</time>
      </trkpt>
      <trkpt lat="45.70822" lon="4.90662">
        <ele>194</ele>
        <time>2016-07-11T07:59:36Z</time>
      </trkpt>
      <trkpt lat="45.70817" lon="4.90669">
        <ele>194</ele>
        <time>2016-07-11T08:01:36Z</time>
      </trkpt>
      <trkpt lat="45.70804" lon="4.90687">
        <ele>194</ele>
        <time>2016-07-11T08:03:36Z</time>
      </trkpt>
      <trkpt lat="45.70798" lon="4.90695">
        <ele>194</ele>
        <time>2016-07-11T08:05:36Z</time>
      </trkpt>
      <trkpt lat="45.70794" lon="4.90703">
        <ele>194</ele>
        <time>2016-07-11T08:07:36Z</time>
      </trkpt>
      <trkpt lat="45.70785" lon="4.90717">
        <ele>194</ele>
        <time>2016-07-11T08:09:36Z</time>
      </trkpt>
      <trkpt lat="45.70767" lon="4.90746">
        <ele>194</ele>
        <time>2016-07-11T08:11:36Z</time>
      </trkpt>
      <trkpt lat="45.70756" lon="4.90765">
        <ele>193</ele>
        <time>2016-07-11T08:13:36Z</time>
      </trkpt>
      <trkpt lat="45.7075" lon="4.90775">
        <ele>193</ele>
        <time>2016-07-11T08:15:36Z</time>
      </trkpt>
      <trkpt lat="45.7074" lon="4.90792">
        <ele>192</ele>
        <time>2016-07-11T08:17:36Z</time>
      </trkpt>
      <trkpt lat="45.70737" lon="4.90796">
        <ele>192</ele>
        <time>2016-07-11T08:19:36Z</time>
      </trkpt>
      <trkpt lat="45.70722" lon="4.90822">
        <ele>192</ele>
        <time>2016-07-11T08:21:36Z</time>
      </trkpt>
      <trkpt lat="45.70707" lon="4.90848">
        <ele>193</ele>
        <time>2016-07-11T08:23:36Z</time>
      </trkpt>
      <trkpt lat="45.70698" lon="4.90863">
        <ele>193</ele>
        <time>2016-07-11T08:25:36Z</time>
      </trkpt>
      <trkpt lat="45.70691" lon="4.90877">
        <ele>193</ele>
        <time>2016-07-11T08:27:36Z</time>
      </trkpt>
      <trkpt lat="45.70683" lon="4.90891">
        <ele>193</ele>
        <time>2016-07-11T08:29:36Z</time>
      </trkpt>
      <trkpt lat="45.70675" lon="4.90905">
        <ele>194</ele>
        <time>2016-07-11T08:31:36Z</time>
      </trkpt>
      <trkpt lat="45.70664" lon="4.90924">
        <ele>194</ele>
        <time>2016-07-11T08:33:36Z</time>
      </trkpt>
      <trkpt lat="45.70649" lon="4.90949">
        <ele>194</ele>
        <time>2016-07-11T08:35:36Z</time>
      </trkpt>
      <trkpt lat="45.70633" lon="4.90975">
        <ele>194</ele>
        <time>2016-07-11T08:37:36Z</time>
      </trkpt>
      <trkpt lat="45.70611" lon="4.91012">
        <ele>193</ele>
        <time>2016-07-11T08:39:36Z</time>
      </trkpt>
      <trkpt lat="45.70587" lon="4.9105">
        <ele>192</ele>
        <time>2016-07-11T08:41:36Z</time>
      </trkpt>
      <trkpt lat="45.70565" lon="4.91087">
        <ele>192</ele>
        <time>2016-07-11T08:43:36Z</time>
      </trkpt>
      <trkpt lat="45.70542" lon="4.91122">
        <ele>192</ele>
        <time>2016-07-11T08:45:36Z</time>
      </trkpt>
      <trkpt lat="45.70528" lon="4.91141">
        <ele>192</ele>
        <time>2016-07-11T08:47:36Z</time>
      </trkpt>
      <trkpt lat="45.70525" lon="4.91146">
        <ele>192</ele>
        <time>2016-07-11T08:49:36Z</time>
      </trkpt>
      <trkpt lat="45.70501" lon="4.91185">
        <ele>193</ele>
        <time>2016-07-11T08:51:36Z</time>
      </trkpt>
      <trkpt lat="45.70494" lon="4.91198">
        <ele>193</ele>
        <time>2016-07-11T08:53:36Z</time>
      </trkpt>
      <trkpt lat="45.70479" lon="4.91223">
        <ele>195</ele>
        <time>2016-07-11T08:55:36Z</time>
      </trkpt>
      <trkpt lat="45.7047" lon="4.91237">
        <ele>195</ele>
        <time>2016-07-11T08:57:36Z</time>
      </trkpt>
      <trkpt lat="45.70449" lon="4.91274">
        <ele>195</ele>
        <time>2016-07-11T08:59:36Z</time>
      </trkpt>
      <trkpt lat="45.70426" lon="4.91311">
        <ele>195</ele>
        <time>2016-07-11T09:01:36Z</time>
      </trkpt>
      <trkpt lat="45.70397" lon="4.91357">
        <ele>194</ele>
        <time>2016-07-11T09:03:36Z</time>
      </trkpt>
      <trkpt lat="45.70396" lon="4.9136">
        <ele>194</ele>
        <time>2016-07-11T09:05:36Z</time>
      </trkpt>
      <trkpt lat="45.70351" lon="4.91436">
        <ele>194</ele>
        <time>2016-07-11T09:07:36Z</time>
      </trkpt>
      <trkpt lat="45.70351" lon="4.91437">
        <ele>194</ele>
        <time>2016-07-11T09:09:36Z</time>
      </trkpt>
      <trkpt lat="45.70342" lon="4.91449">
        <ele>194</ele>
        <time>2016-07-11T09:11:36Z</time>
      </trkpt>
      <trkpt lat="45.70334" lon="4.91462">
        <ele>194</ele>
        <time>2016-07-11T09:13:36Z</time>
      </trkpt>
      <trkpt lat="45.70328" lon="4.91474">
        <ele>194</ele>
        <time>2016-07-11T09:15:36Z</time>
      </trkpt>
      <trkpt lat="45.70321" lon="4.91488">
        <ele>194</ele>
        <time>2016-07-11T09:17:36Z</time>
      </trkpt>
      <trkpt lat="45.70318" lon="4.91495">
        <ele>193</ele>
        <time>2016-07-11T09:19:36Z</time>
      </trkpt>
      <trkpt lat="45.70314" lon="4.91502">
        <ele>193</ele>
        <time>2016-07-11T09:21:36Z</time>
      </trkpt>
      <trkpt lat="45.70293" lon="4.91538">
        <ele>193</ele>
        <time>2016-07-11T09:23:36Z</time>
      </trkpt>
      <trkpt lat="45.70262" lon="4.91588">
        <ele>194</ele>
        <time>2016-07-11T09:25:36Z</time>
      </trkpt>
      <trkpt lat="45.70247" lon="4.91614">
        <ele>196</ele>
        <time>2016-07-11T09:27:36Z</time>
      </trkpt>
      <trkpt lat="45.70231" lon="4.91639">
        <ele>197</ele>
        <time>2016-07-11T09:29:36Z</time>
      </trkpt>
      <trkpt lat="45.70209" lon="4.91672">
        <ele>197</ele>
        <time>2016-07-11T09:31:36Z</time>
      </trkpt>
      <trkpt lat="45.70208" lon="4.91674">
        <ele>197</ele>
        <time>2016-07-11T09:33:36Z</time>
      </trkpt>
      <trkpt lat="45.70187" lon="4.9171">
        <ele>197</ele>
        <time>2016-07-11T09:35:36Z</time>
      </trkpt>
      <trkpt lat="45.7017" lon="4.91738">
        <ele>198</ele>
        <time>2016-07-11T09:37:36Z</time>
      </trkpt>
      <trkpt lat="45.70165" lon="4.91746">
        <ele>198</ele>
        <time>2016-07-11T09:39:36Z</time>
      </trkpt>
      <trkpt lat="45.70153" lon="4.91761">
        <ele>198</ele>
        <time>2016-07-11T09:41:36Z</time>
      </trkpt>
      <trkpt lat="45.70145" lon="4.91773">
        <ele>198</ele>
        <time>2016-07-11T09:43:36Z</time>
      </trkpt>
      <trkpt lat="45.70122" lon="4.91812">
        <ele>197</ele>
        <time>2016-07-11T09:45:36Z</time>
      </trkpt>
      <trkpt lat="45.70076" lon="4.91888">
        <ele>198</ele>
        <time>2016-07-11T09:47:36Z</time>
      </trkpt>
      <trkpt lat="45.70053" lon="4.91927">
        <ele>199</ele>
        <time>2016-07-11T09:49:36Z</time>
      </trkpt>
      <trkpt lat="45.70013" lon="4.91993">
        <ele>200</ele>
        <time>2016-07-11T09:51:36Z</time>
      </trkpt>
      <trkpt lat="45.69993" lon="4.92027">
        <ele>200</ele>
        <time>2016-07-11T09:53:36Z</time>
      </trkpt>
      <trkpt lat="45.69971" lon="4.92063">
        <ele>200</ele>
        <time>2016-07-11T09:55:36Z</time>
      </trkpt>
      <trkpt lat="45.69939" lon="4.92112">
        <ele>201</ele>
        <time>2016-07-11T09:57:36Z</time>
      </trkpt>
      <trkpt lat="45.69921" lon="4.92138">
        <ele>201</ele>
        <time>2016-07-11T09:59:36Z</time>
      </trkpt>
      <trkpt lat="45.69897" lon="4.92178">
        <ele>201</ele>
        <time>2016-07-11T10:01:36Z</time>
      </trkpt>
      <trkpt lat="45.69878" lon="4.92208">
        <ele>201</ele>
        <time>2016-07-11T10:03:36Z</time>
      </trkpt>
      <trkpt lat="45.69874" lon="4.92215">
        <ele>201</ele>
        <time>2016-07-11T10:05:36Z</time>
      </trkpt>
      <trkpt lat="45.69865" lon="4.92229">
        <ele>201</ele>
        <time>2016-07-11T10:07:36Z</time>
      </trkpt>
      <trkpt lat="45.69842" lon="4.92267">
        <ele>201</ele>
        <time>2016-07-11T10:09:36Z</time>
      </trkpt>
      <trkpt lat="45.69813" lon="4.92314">
        <ele>199</ele>
        <time>2016-07-11T10:11:36Z</time>
      </trkpt>
      <trkpt lat="45.69807" lon="4.92325">
        <ele>199</ele>
        <time>2016-07-11T10:13:36Z</time>
      </trkpt>
      <trkpt lat="45.69789" lon="4.92361">
        <ele>199</ele>
        <time>2016-07-11T10:15:36Z</time>
      </trkpt>
      <trkpt lat="45.69776" lon="4.92385">
        <ele>199</ele>
        <time>2016-07-11T10:17:36Z</time>
      </trkpt>
      <trkpt lat="45.69756" lon="4.92419">
        <ele>200</ele>
        <time>2016-07-11T10:19:36Z</time>
      </trkpt>
      <trkpt lat="45.69722" lon="4.92477">
        <ele>202</ele>
        <time>2016-07-11T10:21:36Z</time>
      </trkpt>
      <trkpt lat="45.69721" lon="4.92478">
        <ele>202</ele>
        <time>2016-07-11T10:23:36Z</time>
      </trkpt>
      <trkpt lat="45.69692" lon="4.92526">
        <ele>202</ele>
        <time>2016-07-11T10:25:36Z</time>
      </trkpt>
      <trkpt lat="45.69683" lon="4.92541">
        <ele>202</ele>
        <time>2016-07-11T10:27:36Z</time>
      </trkpt>
      <trkpt lat="45.6966" lon="4.92579">
        <ele>202</ele>
        <time>2016-07-11T10:29:36Z</time>
      </trkpt>
      <trkpt lat="45.69634" lon="4.92622">
        <ele>202</ele>
        <time>2016-07-11T10:31:36Z</time>
      </trkpt>
      <trkpt lat="45.69632" lon="4.92628">
        <ele>202</ele>
        <time>2016-07-11T10:33:36Z</time>
      </trkpt>
      <trkpt lat="45.69632" lon="4.9263">
        <ele>202</ele>
        <time>2016-07-11T10:35:36Z</time>
      </trkpt>
      <trkpt lat="45.6963" lon="4.92637">
        <ele>202</ele>
        <time>2016-07-11T10:37:36Z</time>
      </trkpt>
      <trkpt lat="45.69608" lon="4.92674">
        <ele>202</ele>
        <time>2016-07-11T10:39:36Z</time>
      </trkpt>
      <trkpt lat="45.69596" lon="4.92693">
        <ele>203</ele>
        <time>2016-07-11T10:41:36Z</time>
      </trkpt>
      <trkpt lat="45.69568" lon="4.92739">
        <ele>203</ele>
        <time>2016-07-11T10:43:36Z</time>
      </trkpt>
      <trkpt lat="45.69484" lon="4.92879">
        <ele>204</ele>
        <time>2016-07-11T10:45:36Z</time>
      </trkpt>
      <trkpt lat="45.69435" lon="4.92959">
        <ele>206</ele>
        <time>2016-07-11T10:47:36Z</time>
      </trkpt>
      <trkpt lat="45.69422" lon="4.92982">
        <ele>206</ele>
        <time>2016-07-11T10:49:36Z</time>
      </trkpt>
      <trkpt lat="45.69364" lon="4.93078">
        <ele>205</ele>
        <time>2016-07-11T10:51:36Z</time>
      </trkpt>
      <trkpt lat="45.69356" lon="4.9309">
        <ele>205</ele>
        <time>2016-07-11T10:53:36Z</time>
      </trkpt>
      <trkpt lat="45.69349" lon="4.93098">
        <ele>205</ele>
        <time>2016-07-11T10:55:36Z</time>
      </trkpt>
      <trkpt lat="45.69325" lon="4.93141">
        <ele>205</ele>
        <time>2016-07-11T10:57:36Z</time>
      </trkpt>
      <trkpt lat="45.69315" lon="4.93156">
        <ele>206</ele>
        <time>2016-07-11T10:59:36Z</time>
      </trkpt>
      <trkpt lat="45.69307" lon="4.93172">
        <ele>206</ele>
        <time>2016-07-11T11:01:36Z</time>
      </trkpt>
      <trkpt lat="45.69293" lon="4.93193">
        <ele>207</ele>
        <time>2016-07-11T11:03:36Z</time>
      </trkpt>
      <trkpt lat="45.69269" lon="4.93232">
        <ele>207</ele>
        <time>2016-07-11T11:05:36Z</time>
      </trkpt>
      <trkpt lat="45.69244" lon="4.93274">
        <ele>207</ele>
        <time>2016-07-11T11:07:36Z</time>
      </trkpt>
      <trkpt lat="45.69232" lon="4.93295">
        <ele>208</ele>
        <time>2016-07-11T11:09:36Z</time>
      </trkpt>
      <trkpt lat="45.69227" lon="4.93307">
        <ele>208</ele>
        <time>2016-07-11T11:11:36Z</time>
      </trkpt>
      <trkpt lat="45.69204" lon="4.93349">
        <ele>208</ele>
        <time>2016-07-11T11:13:36Z</time>
      </trkpt>
      <trkpt lat="45.69181" lon="4.9339">
        <ele>209</ele>
        <time>2016-07-11T11:15:36Z</time>
      </trkpt>
      <trkpt lat="45.69167" lon="4.93418">
        <ele>209</ele>
        <time>2016-07-11T11:17:36Z</time>
      </trkpt>
      <trkpt lat="45.69155" lon="4.9344">
        <ele>209</ele>
        <time>2016-07-11T11:19:36Z</time>
      </trkpt>
      <trkpt lat="45.69134" lon="4.93485">
        <ele>209</ele>
        <time>2016-07-11T11:21:36Z</time>
      </trkpt>
      <trkpt lat="45.69133" lon="4.93487">
        <ele>209</ele>
        <time>2016-07-11T11:23:36Z</time>
      </trkpt>
      <trkpt lat="45.69089" lon="4.93585">
        <ele>209</ele>
        <time>2016-07-11T11:25:36Z</time>
      </trkpt>
      <trkpt lat="45.69088" lon="4.93586">
        <ele>209</ele>
        <time>2016-07-11T11:27:36Z</time>
      </trkpt>
      <trkpt lat="45.69062" lon="4.93644">
        <ele>209</ele>
        <time>2016-07-11T11:29:36Z</time>
      </trkpt>
      <trkpt lat="45.69058" lon="4.93652">
        <ele>209</ele>
        <time>2016-07-11T11:31:36Z</time>
      </trkpt>
      <trkpt lat="45.6905" lon="4.9367">
        <ele>209</ele>
        <time>2016-07-11T11:33:36Z</time>
      </trkpt>
      <trkpt lat="45.69046" lon="4.9368">
        <ele>209</ele>
        <time>2016-07-11T11:35:36Z</time>
      </trkpt>
      <trkpt lat="45.69023" lon="4.9373">
        <ele>208</ele>
        <time>2016-07-11T11:37:36Z</time>
      </trkpt>
      <trkpt lat="45.69014" lon="4.93745">
        <ele>208</ele>
        <time>2016-07-11T11:39:36Z</time>
      </trkpt>
      <trkpt lat="45.69006" lon="4.93761">
        <ele>208</ele>
        <time>2016-07-11T11:41:36Z</time>
      </trkpt>
      <trkpt lat="45.68995" lon="4.93786">
        <ele>209</ele>
        <time>2016-07-11T11:43:36Z</time>
      </trkpt>
      <trkpt lat="45.68981" lon="4.93817">
        <ele>209</ele>
        <time>2016-07-11T11:45:36Z</time>
      </trkpt>
      <trkpt lat="45.68972" lon="4.93838">
        <ele>209</ele>
        <time>2016-07-11T11:47:36Z</time>
      </trkpt>
      <trkpt lat="45.6897" lon="4.93843">
        <ele>210</ele>
        <time>2016-07-11T11:49:36Z</time>
      </trkpt>
      <trkpt lat="45.68957" lon="4.93876">
        <ele>211</ele>
        <time>2016-07-11T11:51:36Z</time>
      </trkpt>
      <trkpt lat="45.68946" lon="4.93904">
        <ele>211</ele>
        <time>2016-07-11T11:53:36Z</time>
      </trkpt>
      <trkpt lat="45.68937" lon="4.93924">
        <ele>211</ele>
        <time>2016-07-11T11:55:36Z</time>
      </trkpt>
      <trkpt lat="45.68872" lon="4.94065">
        <ele>211</ele>
        <time>2016-07-11T11:57:36Z</time>
      </trkpt>
      <trkpt lat="45.68851" lon="4.94109">
        <ele>212</ele>
        <time>2016-07-11T11:59:36Z</time>
      </trkpt>
      <trkpt lat="45.68839" lon="4.94135">
        <ele>211</ele>
        <time>2016-07-11T12:01:36Z</time>
      </trkpt>
      <trkpt lat="45.68829" lon="4.94157">
        <ele>211</ele>
        <time>2016-07-11T12:03:36Z</time>
      </trkpt>
      <trkpt lat="45.68814" lon="4.94191">
        <ele>211</ele>
        <time>2016-07-11T12:05:36Z</time>
      </trkpt>
      <trkpt lat="45.68805" lon="4.94212">
        <ele>211</ele>
        <time>2016-07-11T12:07:36Z</time>
      </trkpt>
      <trkpt lat="45.68773" lon="4.94283">
        <ele>212</ele>
        <time>2016-07-11T12:09:36Z</time>
      </trkpt>
      <trkpt lat="45.68743" lon="4.94348">
        <ele>213</ele>
        <time>2016-07-11T12:11:36Z</time>
      </trkpt>
      <trkpt lat="45.68723" lon="4.94392">
        <ele>213</ele>
        <time>2016-07-11T12:13:36Z</time>
      </trkpt>
      <trkpt lat="45.68713" lon="4.94415">
        <ele>213</ele>
        <time>2016-07-11T12:15:36Z</time>
      </trkpt>
      <trkpt lat="45.68681" lon="4.94484">
        <ele>212</ele>
        <time>2016-07-11T12:17:36Z</time>
      </trkpt>
      <trkpt lat="45.68666" lon="4.94517">
        <ele>212</ele>
        <time>2016-07-11T12:19:36Z</time>
      </trkpt>
      <trkpt lat="45.6863" lon="4.94596">
        <ele>213</ele>
        <time>2016-07-11T12:21:36Z</time>
      </trkpt>
      <trkpt lat="45.68619" lon="4.94621">
        <ele>213</ele>
        <time>2016-07-11T12:23:36Z</time>
      </trkpt>
      <trkpt lat="45.68613" lon="4.94625">
        <ele>213</ele>
        <time>2016-07-11T12:25:36Z</time>
      </trkpt>
      <trkpt lat="45.68613" lon="4.94626">
        <ele>213</ele>
        <time>2016-07-11T12:27:36Z</time>
      </trkpt>
      <trkpt lat="45.68608" lon="4.94636">
        <ele>213</ele>
        <time>2016-07-11T12:29:36Z</time>
      </trkpt>
      <trkpt lat="45.68606" lon="4.94638">
        <ele>213</ele>
        <time>2016-07-11T12:31:36Z</time>
      </trkpt>
      <trkpt lat="45.68605" lon="4.9464">
        <ele>213</ele>
        <time>2016-07-11T12:33:36Z</time>
      </trkpt>
      <trkpt lat="45.68602" lon="4.94644">
        <ele>213</ele>
        <time>2016-07-11T12:35:36Z</time>
      </trkpt>
      <trkpt lat="45.68596" lon="4.94652">
        <ele>213</ele>
        <time>2016-07-11T12:37:36Z</time>
      </trkpt>
      <trkpt lat="45.68589" lon="4.94659">
        <ele>213</ele>
        <time>2016-07-11T12:39:36Z</time>
      </trkpt>
      <trkpt lat="45.68586" lon="4.94663">
        <ele>213</ele>
        <time>2016-07-11T12:41:36Z</time>
      </trkpt>
      <trkpt lat="45.68583" lon="4.94667">
        <ele>213</ele>
        <time>2016-07-11T12:43:36Z</time>
      </trkpt>
      <trkpt lat="45.6858" lon="4.94669">
        <ele>213</ele>
        <time>2016-07-11T12:45:36Z</time>
      </trkpt>
      <trkpt lat="45.68577" lon="4.94671">
        <ele>213</ele>
        <time>2016-07-11T12:47:36Z</time>
      </trkpt>
      <trkpt lat="45.68572" lon="4.94673">
        <ele>213</ele>
        <time>2016-07-11T12:49:36Z</time>
      </trkpt>
      <trkpt lat="45.6857" lon="4.94671">
        <ele>213</ele>
        <time>2016-07-11T12:51:36Z</time>
      </trkpt>
      <trkpt lat="45.68568" lon="4.9467">
        <ele>213</ele>
        <time>2016-07-11T12:53:36Z</time>
      </trkpt>
      <trkpt lat="45.68566" lon="4.94669">
        <ele>213</ele>
        <time>2016-07-11T12:55:36Z</time>
      </trkpt>
      <trkpt lat="45.68564" lon="4.94669">
        <ele>213</ele>
        <time>2016-07-11T12:57:36Z</time>
      </trkpt>
      <trkpt lat="45.68562" lon="4.94668">
        <ele>213</ele>
        <time>2016-07-11T12:59:36Z</time>
      </trkpt>
      <trkpt lat="45.68559" lon="4.94668">
        <ele>213</ele>
        <time>2016-07-11T13:01:36Z</time>
      </trkpt>
      <trkpt lat="45.68557" lon="4.94669">
        <ele>213</ele>
        <time>2016-07-11T13:03:36Z</time>
      </trkpt>
      <trkpt lat="45.68555" lon="4.94669">
        <ele>213</ele>
        <time>2016-07-11T13:05:36Z</time>
      </trkpt>
      <trkpt lat="45.68552" lon="4.94671">
        <ele>213</ele>
        <time>2016-07-11T13:07:36Z</time>
      </trkpt>
      <trkpt lat="45.68551" lon="4.94672">
        <ele>213</ele>
        <time>2016-07-11T13:09:36Z</time>
      </trkpt>
      <trkpt lat="45.68549" lon="4.94673">
        <ele>213</ele>
        <time>2016-07-11T13:11:36Z</time>
      </trkpt>
      <trkpt lat="45.68548" lon="4.94675">
        <ele>213</ele>
        <time>2016-07-11T13:13:36Z</time>
      </trkpt>
      <trkpt lat="45.68546" lon="4.94676">
        <ele>213</ele>
        <time>2016-07-11T13:15:36Z</time>
      </trkpt>
      <trkpt lat="45.68545" lon="4.94678">
        <ele>213</ele>
        <time>2016-07-11T13:17:36Z</time>
      </trkpt>
      <trkpt lat="45.68544" lon="4.9468">
        <ele>213</ele>
        <time>2016-07-11T13:19:36Z</time>
      </trkpt>
      <trkpt lat="45.68543" lon="4.94682">
        <ele>213</ele>
        <time>2016-07-11T13:21:36Z</time>
      </trkpt>
      <trkpt lat="45.68542" lon="4.94684">
        <ele>213</ele>
        <time>2016-07-11T13:23:36Z</time>
      </trkpt>
      <trkpt lat="45.68542" lon="4.94685">
        <ele>213</ele>
        <time>2016-07-11T13:25:36Z</time>
      </trkpt>
      <trkpt lat="45.68541" lon="4.94686">
        <ele>213</ele>
        <time>2016-07-11T13:27:36Z</time>
      </trkpt>
      <trkpt lat="45.68541" lon="4.94687">
        <ele>213</ele>
        <time>2016-07-11T13:29:36Z</time>
      </trkpt>
      <trkpt lat="45.68541" lon="4.94688">
        <ele>213</ele>
        <time>2016-07-11T13:31:36Z</time>
      </trkpt>
      <trkpt lat="45.6854" lon="4.9469">
        <ele>213</ele>
        <time>2016-07-11T13:33:36Z</time>
      </trkpt>
      <trkpt lat="45.6854" lon="4.94691">
        <ele>213</ele>
        <time>2016-07-11T13:35:36Z</time>
      </trkpt>
      <trkpt lat="45.6854" lon="4.94692">
        <ele>213</ele>
        <time>2016-07-11T13:37:36Z</time>
      </trkpt>
      <trkpt lat="45.68539" lon="4.94693">
        <ele>213</ele>
        <time>2016-07-11T13:39:36Z</time>
      </trkpt>
      <trkpt lat="45.68539" lon="4.94696">
        <ele>213</ele>
        <time>2016-07-11T13:41:36Z</time>
      </trkpt>
      <trkpt lat="45.68539" lon="4.94699">
        <ele>213</ele>
        <time>2016-07-11T13:43:36Z</time>
      </trkpt>
      <trkpt lat="45.68539" lon="4.94702">
        <ele>213</ele>
        <time>2016-07-11T13:45:36Z</time>
      </trkpt>
      <trkpt lat="45.68539" lon="4.94705">
        <ele>213</ele>
        <time>2016-07-11T13:47:36Z</time>
      </trkpt>
      <trkpt lat="45.6854" lon="4.94708">
        <ele>213</ele>
        <time>2016-07-11T13:49:36Z</time>
      </trkpt>
      <trkpt lat="45.68541" lon="4.94711">
        <ele>214</ele>
        <time>2016-07-11T13:51:36Z</time>
      </trkpt>
      <trkpt lat="45.68541" lon="4.94714">
        <ele>214</ele>
        <time>2016-07-11T13:53:36Z</time>
      </trkpt>
      <trkpt lat="45.68543" lon="4.94717">
        <ele>214</ele>
        <time>2016-07-11T13:55:36Z</time>
      </trkpt>
      <trkpt lat="45.68543" lon="4.94718">
        <ele>214</ele>
        <time>2016-07-11T13:57:36Z</time>
      </trkpt>
      <trkpt lat="45.68544" lon="4.94719">
        <ele>214</ele>
        <time>2016-07-11T13:59:36Z</time>
      </trkpt>
      <trkpt lat="45.68545" lon="4.94721">
        <ele>214</ele>
        <time>2016-07-11T14:01:36Z</time>
      </trkpt>
      <trkpt lat="45.68545" lon="4.94722">
        <ele>214</ele>
        <time>2016-07-11T14:03:36Z</time>
      </trkpt>
      <trkpt lat="45.68546" lon="4.94723">
        <ele>214</ele>
        <time>2016-07-11T14:05:36Z</time>
      </trkpt>
      <trkpt lat="45.68547" lon="4.94724">
        <ele>214</ele>
        <time>2016-07-11T14:07:36Z</time>
      </trkpt>
      <trkpt lat="45.68548" lon="4.94725">
        <ele>214</ele>
        <time>2016-07-11T14:09:36Z</time>
      </trkpt>
      <trkpt lat="45.68549" lon="4.94737">
        <ele>214</ele>
        <time>2016-07-11T14:11:36Z</time>
      </trkpt>
      <trkpt lat="45.68549" lon="4.94742">
        <ele>214</ele>
        <time>2016-07-11T14:13:36Z</time>
      </trkpt>
      <trkpt lat="45.68549" lon="4.94744">
        <ele>214</ele>
        <time>2016-07-11T14:15:36Z</time>
      </trkpt>
      <trkpt lat="45.68549" lon="4.94747">
        <ele>214</ele>
        <time>2016-07-11T14:17:36Z</time>
      </trkpt>
      <trkpt lat="45.68549" lon="4.94749">
        <ele>214</ele>
        <time>2016-07-11T14:19:36Z</time>
      </trkpt>
      <trkpt lat="45.68548" lon="4.94752">
        <ele>214</ele>
        <time>2016-07-11T14:21:36Z</time>
      </trkpt>
      <trkpt lat="45.68547" lon="4.94755">
        <ele>214</ele>
        <time>2016-07-11T14:23:36Z</time>
      </trkpt>
      <trkpt lat="45.68546" lon="4.9476">
        <ele>214</ele>
        <time>2016-07-11T14:25:36Z</time>
      </trkpt>
      <trkpt lat="45.68533" lon="4.948">
        <ele>214</ele>
        <time>2016-07-11T14:27:36Z</time>
      </trkpt>
      <trkpt lat="45.6853" lon="4.94809">
        <ele>215</ele>
        <time>2016-07-11T14:29:36Z</time>
      </trkpt>
      <trkpt lat="45.68529" lon="4.94817">
        <ele>215</ele>
        <time>2016-07-11T14:31:36Z</time>
      </trkpt>
      <trkpt lat="45.68483" lon="4.94917">
        <ele>216</ele>
        <time>2016-07-11T14:33:36Z</time>
      </trkpt>
      <trkpt lat="45.68288" lon="4.95348">
        <ele>215</ele>
        <time>2016-07-11T14:35:36Z</time>
      </trkpt>
      <trkpt lat="45.68267" lon="4.95394">
        <ele>216</ele>
        <time>2016-07-11T14:37:36Z</time>
      </trkpt>
      <trkpt lat="45.68224" lon="4.95492">
        <ele>217</ele>
        <time>2016-07-11T14:39:36Z</time>
      </trkpt>
      <trkpt lat="45.68159" lon="4.95631">
        <ele>219</ele>
        <time>2016-07-11T14:41:36Z</time>
      </trkpt>
      <trkpt lat="45.68156" lon="4.95639">
        <ele>219</ele>
        <time>2016-07-11T14:43:36Z</time>
      </trkpt>
      <trkpt lat="45.68136" lon="4.95682">
        <ele>219</ele>
        <time>2016-07-11T14:45:36Z</time>
      </trkpt>
      <trkpt lat="45.6813" lon="4.9569">
        <ele>219</ele>
        <time>2016-07-11T14:47:36Z</time>
      </trkpt>
      <trkpt lat="45.68092" lon="4.95769">
        <ele>218</ele>
        <time>2016-07-11T14:49:36Z</time>
      </trkpt>
      <trkpt lat="45.68079" lon="4.95793">
        <ele>217</ele>
        <time>2016-07-11T14:51:36Z</time>
      </trkpt>
      <trkpt lat="45.6807" lon="4.95812">
        <ele>217</ele>
        <time>2016-07-11T14:53:36Z</time>
      </trkpt>
      <trkpt lat="45.68065" lon="4.95822">
        <ele>217</ele>
        <time>2016-07-11T14:55:36Z</time>
      </trkpt>
      <trkpt lat="45.68048" lon="4.95858">
        <ele>216</ele>
        <time>2016-07-11T14:57:36Z</time>
      </trkpt>
      <trkpt lat="45.68045" lon="4.95859">
        <ele>216</ele>
        <time>2016-07-11T14:59:36Z</time>
      </trkpt>
      <trkpt lat="45.68042" lon="4.95859">
        <ele>216</ele>
        <time>2016-07-11T15:01:36Z</time>
      </trkpt>
      <trkpt lat="45.6804" lon="4.95861">
        <ele>216</ele>
        <time>2016-07-11T15:03:36Z</time>
      </trkpt>
      <trkpt lat="45.68037" lon="4.95862">
        <ele>216</ele>
        <time>2016-07-11T15:05:36Z</time>
      </trkpt>
      <trkpt lat="45.68035" lon="4.95864">
        <ele>216</ele>
        <time>2016-07-11T15:07:36Z</time>
      </trkpt>
      <trkpt lat="45.68033" lon="4.95867">
        <ele>216</ele>
        <time>2016-07-11T15:09:36Z</time>
      </trkpt>
      <trkpt lat="45.68031" lon="4.95869">
        <ele>216</ele>
        <time>2016-07-11T15:11:36Z</time>
      </trkpt>
      <trkpt lat="45.68029" lon="4.95872">
        <ele>216</ele>
        <time>2016-07-11T15:13:36Z</time>
      </trkpt>
      <trkpt lat="45.68028" lon="4.95876">
        <ele>216</ele>
        <time>2016-07-11T15:15:36Z</time>
      </trkpt>
      <trkpt lat="45.68026" lon="4.9588">
        <ele>216</ele>
        <time>2016-07-11T15:17:36Z</time>
      </trkpt>
      <trkpt lat="45.68025" lon="4.95884">
        <ele>216</ele>
        <time>2016-07-11T15:19:36Z</time>
      </trkpt>
      <trkpt lat="45.68025" lon="4.95888">
        <ele>216</ele>
        <time>2016-07-11T15:21:36Z</time>
      </trkpt>
      <trkpt lat="45.68025" lon="4.95891">
        <ele>216</ele>
        <time>2016-07-11T15:23:36Z</time>
      </trkpt>
      <trkpt lat="45.68025" lon="4.95895">
        <ele>216</ele>
        <time>2016-07-11T15:25:36Z</time>
      </trkpt>
      <trkpt lat="45.68025" lon="4.95899">
        <ele>216</ele>
        <time>2016-07-11T15:27:36Z</time>
      </trkpt>
      <trkpt lat="45.68026" lon="4.95903">
        <ele>216</ele>
        <time>2016-07-11T15:29:36Z</time>
      </trkpt>
      <trkpt lat="45.68027" lon="4.95907">
        <ele>216</ele>
        <time>2016-07-11T15:31:36Z</time>
      </trkpt>
      <trkpt lat="45.68022" lon="4.95922">
        <ele>216</ele>
        <time>2016-07-11T15:33:36Z</time>
      </trkpt>
      <trkpt lat="45.68019" lon="4.9593">
        <ele>216</ele>
        <time>2016-07-11T15:35:36Z</time>
      </trkpt>
      <trkpt lat="45.68011" lon="4.95945">
        <ele>216</ele>
        <time>2016-07-11T15:37:36Z</time>
      </trkpt>
      <trkpt lat="45.68004" lon="4.95961">
        <ele>216</ele>
        <time>2016-07-11T15:39:36Z</time>
      </trkpt>
      <trkpt lat="45.68" lon="4.95971">
        <ele>216</ele>
        <time>2016-07-11T15:41:36Z</time>
      </trkpt>
      <trkpt lat="45.67994" lon="4.95985">
        <ele>216</ele>
        <time>2016-07-11T15:43:36Z</time>
      </trkpt>
      <trkpt lat="45.67991" lon="4.95994">
        <ele>216</ele>
        <time>2016-07-11T15:45:36Z</time>
      </trkpt>
      <trkpt lat="45.67988" lon="4.96005">
        <ele>216</ele>
        <time>2016-07-11T15:47:36Z</time>
      </trkpt>
      <trkpt lat="45.67977" lon="4.96029">
        <ele>216</ele>
        <time>2016-07-11T15:49:36Z</time>
      </trkpt>
      <trkpt lat="45.67975" lon="4.96035">
        <ele>216</ele>
        <time>2016-07-11T15:51:36Z</time>
      </trkpt>
      <trkpt lat="45.67971" lon="4.96044">
        <ele>217</ele>
        <time>2016-07-11T15:53:36Z</time>
      </trkpt>
      <trkpt lat="45.67961" lon="4.96065">
        <ele>217</ele>
        <time>2016-07-11T15:55:36Z</time>
      </trkpt>
      <trkpt lat="45.67916" lon="4.9617">
        <ele>219</ele>
        <time>2016-07-11T15:57:36Z</time>
      </trkpt>
      <trkpt lat="45.67886" lon="4.96243">
        <ele>223</ele>
        <time>2016-07-11T15:59:36Z</time>
      </trkpt>
      <trkpt lat="45.67877" lon="4.96264">
        <ele>223</ele>
        <time>2016-07-11T16:01:36Z</time>
      </trkpt>
      <trkpt lat="45.67874" lon="4.96271">
        <ele>223</ele>
        <time>2016-07-11T16:03:36Z</time>
      </trkpt>
      <trkpt lat="45.67872" lon="4.96276">
        <ele>223</ele>
        <time>2016-07-11T16:05:36Z</time>
      </trkpt>
      <trkpt lat="45.67867" lon="4.96286">
        <ele>223</ele>
        <time>2016-07-11T16:07:36Z</time>
      </trkpt>
      <trkpt lat="45.6786" lon="4.96299">
        <ele>223</ele>
        <time>2016-07-11T16:09:36Z</time>
      </trkpt>
      <trkpt lat="45.6785" lon="4.96317">
        <ele>223</ele>
        <time>2016-07-11T16:11:36Z</time>
      </trkpt>
      <trkpt lat="45.67824" lon="4.96362">
        <ele>222</ele>
        <time>2016-07-11T16:13:36Z</time>
      </trkpt>
      <trkpt lat="45.67816" lon="4.96376">
        <ele>221</ele>
        <time>2016-07-11T16:15:36Z</time>
      </trkpt>
      <trkpt lat="45.67815" lon="4.96378">
        <ele>221</ele>
        <time>2016-07-11T16:17:36Z</time>
      </trkpt>
      <trkpt lat="45.67805" lon="4.96395">
        <ele>220</ele>
        <time>2016-07-11T16:19:36Z</time>
      </trkpt>
      <trkpt lat="45.67792" lon="4.96421">
        <ele>219</ele>
        <time>2016-07-11T16:21:36Z</time>
      </trkpt>
      <trkpt lat="45.67789" lon="4.96428">
        <ele>219</ele>
        <time>2016-07-11T16:23:36Z</time>
      </trkpt>
      <trkpt lat="45.6778" lon="4.9645">
        <ele>219</ele>
        <time>2016-07-11T16:25:36Z</time>
      </trkpt>
      <trkpt lat="45.67729" lon="4.96574">
        <ele>221</ele>
        <time>2016-07-11T16:27:36Z</time>
      </trkpt>
      <trkpt lat="45.67722" lon="4.96588">
        <ele>221</ele>
        <time>2016-07-11T16:29:36Z</time>
      </trkpt>
      <trkpt lat="45.67713" lon="4.96607">
        <ele>221</ele>
        <time>2016-07-11T16:31:36Z</time>
      </trkpt>
      <trkpt lat="45.67696" lon="4.96644">
        <ele>221</ele>
        <time>2016-07-11T16:33:36Z</time>
      </trkpt>
      <trkpt lat="45.67692" lon="4.96652">
        <ele>221</ele>
        <time>2016-07-11T16:35:36Z</time>
      </trkpt>
      <trkpt lat="45.67688" lon="4.96658">
        <ele>221</ele>
        <time>2016-07-11T16:37:36Z</time>
      </trkpt>
      <trkpt lat="45.67685" lon="4.96661">
        <ele>221</ele>
        <time>2016-07-11T16:39:36Z</time>
      </trkpt>
      <trkpt lat="45.67683" lon="4.96663">
        <ele>221</ele>
        <time>2016-07-11T16:41:36Z</time>
      </trkpt>
      <trkpt lat="45.67681" lon="4.96665">
        <ele>221</ele>
        <time>2016-07-11T16:43:36Z</time>
      </trkpt>
      <trkpt lat="45.67677" lon="4.96668">
        <ele>221</ele>
        <time>2016-07-11T16:45:36Z</time>
      </trkpt>
      <trkpt lat="45.67675" lon="4.96669">
        <ele>221</ele>
        <time>2016-07-11T16:47:36Z</time>
      </trkpt>
      <trkpt lat="45.67673" lon="4.96669">
        <ele>221</ele>
        <time>2016-07-11T16:49:36Z</time>
      </trkpt>
      <trkpt lat="45.67666" lon="4.96671">
        <ele>221</ele>
        <time>2016-07-11T16:51:36Z</time>
      </trkpt>
      <trkpt lat="45.67665" lon="4.96671">
        <ele>221</ele>
        <time>2016-07-11T16:53:36Z</time>
      </trkpt>
      <trkpt lat="45.67664" lon="4.96671">
        <ele>221</ele>
        <time>2016-07-11T16:55:36Z</time>
      </trkpt>
      <trkpt lat="45.67664" lon="4.9667">
        <ele>221</ele>
        <time>2016-07-11T16:57:36Z</time>
      </trkpt>
      <trkpt lat="45.67663" lon="4.9667">
        <ele>221</ele>
        <time>2016-07-11T16:59:36Z</time>
      </trkpt>
      <trkpt lat="45.67662" lon="4.9667">
        <ele>221</ele>
        <time>2016-07-11T17:01:36Z</time>
      </trkpt>
      <trkpt lat="45.67661" lon="4.96669">
        <ele>221</ele>
        <time>2016-07-11T17:03:36Z</time>
      </trkpt>
      <trkpt lat="45.67659" lon="4.96669">
        <ele>221</ele>
        <time>2016-07-11T17:05:36Z</time>
      </trkpt>
      <trkpt lat="45.67656" lon="4.96669">
        <ele>221</ele>
        <time>2016-07-11T17:07:36Z</time>
      </trkpt>
      <trkpt lat="45.67654" lon="4.96669">
        <ele>221</ele>
        <time>2016-07-11T17:09:36Z</time>
      </trkpt>
      <trkpt lat="45.67652" lon="4.9667">
        <ele>221</ele>
        <time>2016-07-11T17:11:36Z</time>
      </trkpt>
      <trkpt lat="45.6765" lon="4.96671">
        <ele>221</ele>
        <time>2016-07-11T17:13:36Z</time>
      </trkpt>
      <trkpt lat="45.67648" lon="4.96672">
        <ele>221</ele>
        <time>2016-07-11T17:15:36Z</time>
      </trkpt>
      <trkpt lat="45.67646" lon="4.96674">
        <ele>221</ele>
        <time>2016-07-11T17:17:36Z</time>
      </trkpt>
      <trkpt lat="45.67643" lon="4.96676">
        <ele>221</ele>
        <time>2016-07-11T17:19:36Z</time>
      </trkpt>
      <trkpt lat="45.67642" lon="4.96678">
        <ele>221</ele>
        <time>2016-07-11T17:21:36Z</time>
      </trkpt>
      <trkpt lat="45.6764" lon="4.9668">
        <ele>221</ele>
        <time>2016-07-11T17:23:36Z</time>
      </trkpt>
      <trkpt lat="45.67639" lon="4.96683">
        <ele>221</ele>
        <time>2016-07-11T17:25:36Z</time>
      </trkpt>
      <trkpt lat="45.67638" lon="4.96686">
        <ele>221</ele>
        <time>2016-07-11T17:27:36Z</time>
      </trkpt>
      <trkpt lat="45.67637" lon="4.96688">
        <ele>221</ele>
        <time>2016-07-11T17:29:36Z</time>
      </trkpt>
      <trkpt lat="45.67636" lon="4.96692">
        <ele>221</ele>
        <time>2016-07-11T17:31:36Z</time>
      </trkpt>
      <trkpt lat="45.67635" lon="4.96695">
        <ele>221</ele>
        <time>2016-07-11T17:33:36Z</time>
      </trkpt>
      <trkpt lat="45.67635" lon="4.96698">
        <ele>221</ele>
        <time>2016-07-11T17:35:36Z</time>
      </trkpt>
      <trkpt lat="45.67635" lon="4.96701">
        <ele>221</ele>
        <time>2016-07-11T17:37:36Z</time>
      </trkpt>
      <trkpt lat="45.67635" lon="4.96704">
        <ele>221</ele>
        <time>2016-07-11T17:39:36Z</time>
      </trkpt>
      <trkpt lat="45.67635" lon="4.96708">
        <ele>221</ele>
        <time>2016-07-11T17:41:36Z</time>
      </trkpt>
      <trkpt lat="45.67633" lon="4.9672">
        <ele>221</ele>
        <time>2016-07-11T17:43:36Z</time>
      </trkpt>
      <trkpt lat="45.6763" lon="4.96729">
        <ele>221</ele>
        <time>2016-07-11T17:45:36Z</time>
      </trkpt>
      <trkpt lat="45.67628" lon="4.96736">
        <ele>221</ele>
        <time>2016-07-11T17:47:36Z</time>
      </trkpt>
      <trkpt lat="45.67626" lon="4.9674">
        <ele>221</ele>
        <time>2016-07-11T17:49:36Z</time>
      </trkpt>
      <trkpt lat="45.67624" lon="4.96743">
        <ele>221</ele>
        <time>2016-07-11T17:51:36Z</time>
      </trkpt>
      <trkpt lat="45.67623" lon="4.96747">
        <ele>221</ele>
        <time>2016-07-11T17:53:36Z</time>
      </trkpt>
      <trkpt lat="45.67623" lon="4.9675">
        <ele>221</ele>
        <time>2016-07-11T17:55:36Z</time>
      </trkpt>
      <trkpt lat="45.67622" lon="4.96755">
        <ele>222</ele>
        <time>2016-07-11T17:57:36Z</time>
      </trkpt>
      <trkpt lat="45.67622" lon="4.96763">
        <ele>222</ele>
        <time>2016-07-11T17:59:36Z</time>
      </trkpt>
      <trkpt lat="45.67622" lon="4.96771">
        <ele>222</ele>
        <time>2016-07-11T18:01:36Z</time>
      </trkpt>
      <trkpt lat="45.67621" lon="4.96779">
        <ele>222</ele>
        <time>2016-07-11T18:03:36Z</time>
      </trkpt>
      <trkpt lat="45.6762" lon="4.96789">
        <ele>222</ele>
        <time>2016-07-11T18:05:36Z</time>
      </trkpt>
      <trkpt lat="45.67619" lon="4.96797">
        <ele>222</ele>
        <time>2016-07-11T18:07:36Z</time>
      </trkpt>
      <trkpt lat="45.67618" lon="4.96802">
        <ele>222</ele>
        <time>2016-07-11T18:09:36Z</time>
      </trkpt>
      <trkpt lat="45.67615" lon="4.96814">
        <ele>222</ele>
        <time>2016-07-11T18:11:36Z</time>
      </trkpt>
      <trkpt lat="45.67611" lon="4.96833">
        <ele>223</ele>
        <time>2016-07-11T18:13:36Z</time>
      </trkpt>
      <trkpt lat="45.67609" lon="4.96845">
        <ele>223</ele>
        <time>2016-07-11T18:15:36Z</time>
      </trkpt>
      <trkpt lat="45.67566" lon="4.96937">
        <ele>222</ele>
        <time>2016-07-11T18:17:36Z</time>
      </trkpt>
      <trkpt lat="45.67545" lon="4.96983">
        <ele>222</ele>
        <time>2016-07-11T18:19:36Z</time>
      </trkpt>
      <trkpt lat="45.67515" lon="4.97052">
        <ele>224</ele>
        <time>2016-07-11T18:21:36Z</time>
      </trkpt>
      <trkpt lat="45.67498" lon="4.97089">
        <ele>225</ele>
        <time>2016-07-11T18:23:36Z</time>
      </trkpt>
      <trkpt lat="45.67479" lon="4.97131">
        <ele>225</ele>
        <time>2016-07-11T18:25:36Z</time>
      </trkpt>
      <trkpt lat="45.67471" lon="4.97148">
        <ele>225</ele>
        <time>2016-07-11T18:27:36Z</time>
      </trkpt>
      <trkpt lat="45.67463" lon="4.97165">
        <ele>225</ele>
        <time>2016-07-11T18:29:36Z</time>
      </trkpt>
      <trkpt lat="45.67396" lon="4.9731">
        <ele>225</ele>
        <time>2016-07-11T18:31:36Z</time>
      </trkpt>
      <trkpt lat="45.67392" lon="4.97319">
        <ele>225</ele>
        <time>2016-07-11T18:33:36Z</time>
      </trkpt>
      <trkpt lat="45.67389" lon="4.97328">
        <ele>225</ele>
        <time>2016-07-11T18:35:36Z</time>
      </trkpt>
      <trkpt lat="45.67336" lon="4.97443">
        <ele>228</ele>
        <time>2016-07-11T18:37:36Z</time>
      </trkpt>
      <trkpt lat="45.67042" lon="4.98088">
        <ele>230</ele>
        <time>2016-07-11T18:39:36Z</time>
      </trkpt>
      <trkpt lat="45.67038" lon="4.98094">
        <ele>230</ele>
        <time>2016-07-11T18:41:36Z</time>
      </trkpt>
      <trkpt lat="45.67037" lon="4.98096">
        <ele>230</ele>
        <time>2016-07-11T18:43:36Z</time>
      </trkpt>
      <trkpt lat="45.67033" lon="4.98105">
        <ele>230</ele>
        <time>2016-07-11T18:45:36Z</time>
      </trkpt>
      <trkpt lat="45.67025" lon="4.98129">
        <ele>230</ele>
        <time>2016-07-11T18:47:36Z</time>
      </trkpt>
      <trkpt lat="45.67022" lon="4.98138">
        <ele>230</ele>
        <time>2016-07-11T18:49:36Z</time>
      </trkpt>
      <trkpt lat="45.67021" lon="4.98142">
        <ele>230</ele>
        <time>2016-07-11T18:51:36Z</time>
      </trkpt>
      <trkpt lat="45.67019" lon="4.98145">
        <ele>230</ele>
        <time>2016-07-11T18:53:36Z</time>
      </trkpt>
      <trkpt lat="45.67018" lon="4.98148">
        <ele>230</ele>
        <time>2016-07-11T18:55:36Z</time>
      </trkpt>
      <trkpt lat="45.67015" lon="4.98152">
        <ele>230</ele>
        <time>2016-07-11T18:57:36Z</time>
      </trkpt>
      <trkpt lat="45.6701" lon="4.98159">
        <ele>230</ele>
        <time>2016-07-11T18:59:36Z</time>
      </trkpt>
      <trkpt lat="45.67009" lon="4.98159">
        <ele>230</ele>
        <time>2016-07-11T19:01:36Z</time>
      </trkpt>
      <trkpt lat="45.67008" lon="4.98159">
        <ele>230</ele>
        <time>2016-07-11T19:03:36Z</time>
      </trkpt>
      <trkpt lat="45.67008" lon="4.9816">
        <ele>230</ele>
        <time>2016-07-11T19:05:36Z</time>
      </trkpt>
      <trkpt lat="45.67007" lon="4.9816">
        <ele>230</ele>
        <time>2016-07-11T19:07:36Z</time>
      </trkpt>
      <trkpt lat="45.67006" lon="4.9816">
        <ele>230</ele>
        <time>2016-07-11T19:09:36Z</time>
      </trkpt>
      <trkpt lat="45.67006" lon="4.98161">
        <ele>230</ele>
        <time>2016-07-11T19:11:36Z</time>
      </trkpt>
      <trkpt lat="45.67005" lon="4.98161">
        <ele>230</ele>
        <time>2016-07-11T19:13:36Z</time>
      </trkpt>
      <trkpt lat="45.67004" lon="4.98162">
        <ele>230</ele>
        <time>2016-07-11T19:15:36Z</time>
      </trkpt>
      <trkpt lat="45.67002" lon="4.98163">
        <ele>230</ele>
        <time>2016-07-11T19:17:36Z</time>
      </trkpt>
      <trkpt lat="45.67001" lon="4.98165">
        <ele>230</ele>
        <time>2016-07-11T19:19:36Z</time>
      </trkpt>
      <trkpt lat="45.66999" lon="4.98167">
        <ele>230</ele>
        <time>2016-07-11T19:21:36Z</time>
      </trkpt>
      <trkpt lat="45.66998" lon="4.98168">
        <ele>230</ele>
        <time>2016-07-11T19:23:36Z</time>
      </trkpt>
      <trkpt lat="45.66997" lon="4.98171">
        <ele>230</ele>
        <time>2016-07-11T19:25:36Z</time>
      </trkpt>
      <trkpt lat="45.66996" lon="4.98173">
        <ele>230</ele>
        <time>2016-07-11T19:27:36Z</time>
      </trkpt>
      <trkpt lat="45.66995" lon="4.98175">
        <ele>230</ele>
        <time>2016-07-11T19:29:36Z</time>
      </trkpt>
      <trkpt lat="45.66994" lon="4.98177">
        <ele>230</ele>
        <time>2016-07-11T19:31:36Z</time>
      </trkpt>
      <trkpt lat="45.66994" lon="4.98179">
        <ele>230</ele>
        <time>2016-07-11T19:33:36Z</time>
      </trkpt>
      <trkpt lat="45.66993" lon="4.98181">
        <ele>230</ele>
        <time>2016-07-11T19:35:36Z</time>
      </trkpt>
      <trkpt lat="45.66993" lon="4.98184">
        <ele>230</ele>
        <time>2016-07-11T19:37:36Z</time>
      </trkpt>
      <trkpt lat="45.66993" lon="4.98186">
        <ele>230</ele>
        <time>2016-07-11T19:39:36Z</time>
      </trkpt>
      <trkpt lat="45.66993" lon="4.98188">
        <ele>230</ele>
        <time>2016-07-11T19:41:36Z</time>
      </trkpt>
      <trkpt lat="45.66993" lon="4.98191">
        <ele>230</ele>
        <time>2016-07-11T19:43:36Z</time>
      </trkpt>
      <trkpt lat="45.66993" lon="4.98193">
        <ele>230</ele>
        <time>2016-07-11T19:45:36Z</time>
      </trkpt>
      <trkpt lat="45.66988" lon="4.98207">
        <ele>230</ele>
        <time>2016-07-11T19:47:36Z</time>
      </trkpt>
      <trkpt lat="45.66987" lon="4.98211">
        <ele>230</ele>
        <time>2016-07-11T19:49:36Z</time>
      </trkpt>
      <trkpt lat="45.66984" lon="4.98216">
        <ele>230</ele>
        <time>2016-07-11T19:51:36Z</time>
      </trkpt>
      <trkpt lat="45.66973" lon="4.9824">
        <ele>230</ele>
        <time>2016-07-11T19:53:36Z</time>
      </trkpt>
      <trkpt lat="45.66967" lon="4.98252">
        <ele>230</ele>
        <time>2016-07-11T19:55:36Z</time>
      </trkpt>
      <trkpt lat="45.66963" lon="4.98264">
        <ele>230</ele>
        <time>2016-07-11T19:57:36Z</time>
      </trkpt>
      <trkpt lat="45.66955" lon="4.9828">
        <ele>230</ele>
        <time>2016-07-11T19:59:36Z</time>
      </trkpt>
      <trkpt lat="45.66913" lon="4.98373">
        <ele>231</ele>
        <time>2016-07-11T20:01:36Z</time>
      </trkpt>
      <trkpt lat="45.66905" lon="4.98391">
        <ele>231</ele>
        <time>2016-07-11T20:03:36Z</time>
      </trkpt>
      <trkpt lat="45.66863" lon="4.98481">
        <ele>230</ele>
        <time>2016-07-11T20:05:36Z</time>
      </trkpt>
      <trkpt lat="45.66741" lon="4.98752">
        <ele>233</ele>
        <time>2016-07-11T20:07:36Z</time>
      </trkpt>
      <trkpt lat="45.66722" lon="4.98793">
        <ele>236</ele>
        <time>2016-07-11T20:09:36Z</time>
      </trkpt>
      <trkpt lat="45.66707" lon="4.98826">
        <ele>238</ele>
        <time>2016-07-11T20:11:36Z</time>
      </trkpt>
      <trkpt lat="45.6669" lon="4.98863">
        <ele>238</ele>
        <time>2016-07-11T20:13:36Z</time>
      </trkpt>
      <trkpt lat="45.66683" lon="4.98877">
        <ele>238</ele>
        <time>2016-07-11T20:15:36Z</time>
      </trkpt>
      <trkpt lat="45.66672" lon="4.989">
        <ele>237</ele>
        <time>2016-07-11T20:17:36Z</time>
      </trkpt>
      <trkpt lat="45.66665" lon="4.98914">
        <ele>236</ele>
        <time>2016-07-11T20:19:36Z</time>
      </trkpt>
      <trkpt lat="45.6664" lon="4.98963">
        <ele>237</ele>
        <time>2016-07-11T20:21:36Z</time>
      </trkpt>
      <trkpt lat="45.66599" lon="4.99042">
        <ele>234</ele>
        <time>2016-07-11T20:23:36Z</time>
      </trkpt>
      <trkpt lat="45.66508" lon="4.99216">
        <ele>234</ele>
        <time>2016-07-11T20:25:36Z</time>
      </trkpt>
      <trkpt lat="45.66495" lon="4.9924">
        <ele>234</ele>
        <time>2016-07-11T20:27:36Z</time>
      </trkpt>
      <trkpt lat="45.6649" lon="4.99246">
        <ele>234</ele>
        <time>2016-07-11T20:29:36Z</time>
      </trkpt>
      <trkpt lat="45.66483" lon="4.99258">
        <ele>234</ele>
        <time>2016-07-11T20:31:36Z</time>
      </trkpt>
      <trkpt lat="45.66455" lon="4.99309">
        <ele>235</ele>
        <time>2016-07-11T20:33:36Z</time>
      </trkpt>
      <trkpt lat="45.66396" lon="4.99423">
        <ele>235</ele>
        <time>2016-07-11T20:35:36Z</time>
      </trkpt>
      <trkpt lat="45.6639" lon="4.99432">
        <ele>235</ele>
        <time>2016-07-11T20:37:36Z</time>
      </trkpt>
      <trkpt lat="45.66384" lon="4.99445">
        <ele>235</ele>
        <time>2016-07-11T20:39:36Z</time>
      </trkpt>
      <trkpt lat="45.66373" lon="4.99468">
        <ele>235</ele>
        <time>2016-07-11T20:41:36Z</time>
      </trkpt>
      <trkpt lat="45.66332" lon="4.99548">
        <ele>233</ele>
        <time>2016-07-11T20:43:36Z</time>
      </trkpt>
      <trkpt lat="45.66284" lon="4.99643">
        <ele>230</ele>
        <time>2016-07-11T20:45:36Z</time>
      </trkpt>
      <trkpt lat="45.66272" lon="4.99668">
        <ele>230</ele>
        <time>2016-07-11T20:47:36Z</time>
      </trkpt>
      <trkpt lat="45.66241" lon="4.99727">
        <ele>230</ele>
        <time>2016-07-11T20:49:36Z</time>
      </trkpt>
      <trkpt lat="45.66195" lon="4.99811">
        <ele>231</ele>
        <time>2016-07-11T20:51:36Z</time>
      </trkpt>
      <trkpt lat="45.66186" lon="4.99825">
        <ele>232</ele>
        <time>2016-07-11T20:53:36Z</time>
      </trkpt>
      <trkpt lat="45.66178" lon="4.9984">
        <ele>233</ele>
        <time>2016-07-11T20:55:36Z</time>
      </trkpt>
      <trkpt lat="45.66171" lon="4.99851">
        <ele>234</ele>
        <time>2016-07-11T20:57:36Z</time>
      </trkpt>
      <trkpt lat="45.66169" lon="4.99856">
        <ele>234</ele>
        <time>2016-07-11T20:59:36Z</time>
      </trkpt>
      <trkpt lat="45.66165" lon="4.99864">
        <ele>235</ele>
        <time>2016-07-11T21:01:36Z</time>
      </trkpt>
      <trkpt lat="45.66162" lon="4.9987">
        <ele>235</ele>
        <time>2016-07-11T21:03:36Z</time>
      </trkpt>
      <trkpt lat="45.66159" lon="4.99878">
        <ele>235</ele>
        <time>2016-07-11T21:05:36Z</time>
      </trkpt>
      <trkpt lat="45.66157" lon="4.99884">
        <ele>235</ele>
        <time>2016-07-11T21:07:36Z</time>
      </trkpt>
      <trkpt lat="45.66155" lon="4.99891">
        <ele>235</ele>
        <time>2016-07-11T21:09:36Z</time>
      </trkpt>
      <trkpt lat="45.66153" lon="4.99894">
        <ele>235</ele>
        <time>2016-07-11T21:11:36Z</time>
      </trkpt>
      <trkpt lat="45.66152" lon="4.99898">
        <ele>235</ele>
        <time>2016-07-11T21:13:36Z</time>
      </trkpt>
      <trkpt lat="45.66151" lon="4.999">
        <ele>235</ele>
        <time>2016-07-11T21:15:36Z</time>
      </trkpt>
      <trkpt lat="45.6615" lon="4.99901">
        <ele>235</ele>
        <time>2016-07-11T21:17:36Z</time>
      </trkpt>
      <trkpt lat="45.66148" lon="4.99902">
        <ele>235</ele>
        <time>2016-07-11T21:19:36Z</time>
      </trkpt>
      <trkpt lat="45.66147" lon="4.99904">
        <ele>235</ele>
        <time>2016-07-11T21:21:36Z</time>
      </trkpt>
      <trkpt lat="45.6614" lon="4.99908">
        <ele>235</ele>
        <time>2016-07-11T21:23:36Z</time>
      </trkpt>
      <trkpt lat="45.66137" lon="4.99911">
        <ele>235</ele>
        <time>2016-07-11T21:25:36Z</time>
      </trkpt>
      <trkpt lat="45.66135" lon="4.9991">
        <ele>236</ele>
        <time>2016-07-11T21:27:36Z</time>
      </trkpt>
      <trkpt lat="45.66133" lon="4.9991">
        <ele>236</ele>
        <time>2016-07-11T21:29:36Z</time>
      </trkpt>
      <trkpt lat="45.66131" lon="4.9991">
        <ele>236</ele>
        <time>2016-07-11T21:31:36Z</time>
      </trkpt>
      <trkpt lat="45.6613" lon="4.9991">
        <ele>236</ele>
        <time>2016-07-11T21:33:36Z</time>
      </trkpt>
      <trkpt lat="45.66128" lon="4.9991">
        <ele>236</ele>
        <time>2016-07-11T21:35:36Z</time>
      </trkpt>
      <trkpt lat="45.66126" lon="4.99911">
        <ele>236</ele>
        <time>2016-07-11T21:37:36Z</time>
      </trkpt>
      <trkpt lat="45.66124" lon="4.99911">
        <ele>236</ele>
        <time>2016-07-11T21:39:36Z</time>
      </trkpt>
      <trkpt lat="45.66122" lon="4.99912">
        <ele>236</ele>
        <time>2016-07-11T21:41:36Z</time>
      </trkpt>
      <trkpt lat="45.6612" lon="4.99914">
        <ele>236</ele>
        <time>2016-07-11T21:43:36Z</time>
      </trkpt>
      <trkpt lat="45.66118" lon="4.99916">
        <ele>236</ele>
        <time>2016-07-11T21:45:36Z</time>
      </trkpt>
      <trkpt lat="45.66116" lon="4.99918">
        <ele>236</ele>
        <time>2016-07-11T21:47:36Z</time>
      </trkpt>
      <trkpt lat="45.66114" lon="4.99921">
        <ele>237</ele>
        <time>2016-07-11T21:49:36Z</time>
      </trkpt>
      <trkpt lat="45.66113" lon="4.99923">
        <ele>237</ele>
        <time>2016-07-11T21:51:36Z</time>
      </trkpt>
      <trkpt lat="45.66112" lon="4.99926">
        <ele>237</ele>
        <time>2016-07-11T21:53:36Z</time>
      </trkpt>
      <trkpt lat="45.6611" lon="4.99929">
        <ele>237</ele>
        <time>2016-07-11T21:55:36Z</time>
      </trkpt>
      <trkpt lat="45.66109" lon="4.99934">
        <ele>237</ele>
        <time>2016-07-11T21:57:36Z</time>
      </trkpt>
      <trkpt lat="45.66109" lon="4.99937">
        <ele>237</ele>
        <time>2016-07-11T21:59:36Z</time>
      </trkpt>
      <trkpt lat="45.66108" lon="4.9994">
        <ele>237</ele>
        <time>2016-07-11T22:01:36Z</time>
      </trkpt>
      <trkpt lat="45.66108" lon="4.99943">
        <ele>237</ele>
        <time>2016-07-11T22:03:36Z</time>
      </trkpt>
      <trkpt lat="45.66108" lon="4.99946">
        <ele>237</ele>
        <time>2016-07-11T22:05:36Z</time>
      </trkpt>
      <trkpt lat="45.66108" lon="4.99949">
        <ele>237</ele>
        <time>2016-07-11T22:07:36Z</time>
      </trkpt>
      <trkpt lat="45.66109" lon="4.99952">
        <ele>237</ele>
        <time>2016-07-11T22:09:36Z</time>
      </trkpt>
      <trkpt lat="45.6611" lon="4.99955">
        <ele>237</ele>
        <time>2016-07-11T22:11:36Z</time>
      </trkpt>
      <trkpt lat="45.6611" lon="4.99958">
        <ele>237</ele>
        <time>2016-07-11T22:13:36Z</time>
      </trkpt>
      <trkpt lat="45.66108" lon="4.99976">
        <ele>238</ele>
        <time>2016-07-11T22:15:36Z</time>
      </trkpt>
      <trkpt lat="45.66107" lon="4.99979">
        <ele>238</ele>
        <time>2016-07-11T22:17:36Z</time>
      </trkpt>
      <trkpt lat="45.66106" lon="4.99982">
        <ele>238</ele>
        <time>2016-07-11T22:19:36Z</time>
      </trkpt>
      <trkpt lat="45.66105" lon="4.99986">
        <ele>238</ele>
        <time>2016-07-11T22:21:36Z</time>
      </trkpt>
      <trkpt lat="45.66101" lon="4.99994">
        <ele>238</ele>
        <time>2016-07-11T22:23:36Z</time>
      </trkpt>
      <trkpt lat="45.66099" lon="4.99999">
        <ele>238</ele>
        <time>2016-07-11T22:25:36Z</time>
      </trkpt>
      <trkpt lat="45.66096" lon="5.00005">
        <ele>240</ele>
        <time>2016-07-11T22:27:36Z</time>
      </trkpt>
      <trkpt lat="45.66091" lon="5.00014">
        <ele>240</ele>
        <time>2016-07-11T22:29:36Z</time>
      </trkpt>
      <trkpt lat="45.66059" lon="5.00075">
        <ele>241</ele>
        <time>2016-07-11T22:31:36Z</time>
      </trkpt>
      <trkpt lat="45.66031" lon="5.00131">
        <ele>239</ele>
        <time>2016-07-11T22:33:36Z</time>
      </trkpt>
      <trkpt lat="45.66015" lon="5.00164">
        <ele>239</ele>
        <time>2016-07-11T22:35:36Z</time>
      </trkpt>
      <trkpt lat="45.66013" lon="5.00171">
        <ele>239</ele>
        <time>2016-07-11T22:37:36Z</time>
      </trkpt>
      <trkpt lat="45.65951" lon="5.00291">
        <ele>240</ele>
        <time>2016-07-11T22:39:36Z</time>
      </trkpt>
      <trkpt lat="45.65904" lon="5.00381">
        <ele>239</ele>
        <time>2016-07-11T22:41:36Z</time>
      </trkpt>
      <trkpt lat="45.65865" lon="5.00457">
        <ele>239</ele>
        <time>2016-07-11T22:43:36Z</time>
      </trkpt>
      <trkpt lat="45.65806" lon="5.00569">
        <ele>241</ele>
        <time>2016-07-11T22:45:36Z</time>
      </trkpt>
      <trkpt lat="45.65795" lon="5.00587">
        <ele>241</ele>
        <time>2016-07-11T22:47:36Z</time>
      </trkpt>
      <trkpt lat="45.65766" lon="5.00611">
        <ele>241</ele>
        <time>2016-07-11T22:49:36Z</time>
      </trkpt>
      <trkpt lat="45.65765" lon="5.00611">
        <ele>241</ele>
        <time>2016-07-11T22:51:36Z</time>
      </trkpt>
      <trkpt lat="45.65764" lon="5.00611">
        <ele>241</ele>
        <time>2016-07-11T22:53:36Z</time>
      </trkpt>
      <trkpt lat="45.65763" lon="5.00611">
        <ele>241</ele>
        <time>2016-07-11T22:55:36Z</time>
      </trkpt>
      <trkpt lat="45.65762" lon="5.00611">
        <ele>241</ele>
        <time>2016-07-11T22:57:36Z</time>
      </trkpt>
      <trkpt lat="45.65761" lon="5.00611">
        <ele>241</ele>
        <time>2016-07-11T22:59:36Z</time>
      </trkpt>
      <trkpt lat="45.6576" lon="5.00611">
        <ele>241</ele>
        <time>2016-07-11T23:01:36Z</time>
      </trkpt>
      <trkpt lat="45.65759" lon="5.00612">
        <ele>241</ele>
        <time>2016-07-11T23:03:36Z</time>
      </trkpt>
      <trkpt lat="45.65758" lon="5.00612">
        <ele>241</ele>
        <time>2016-07-11T23:05:36Z</time>
      </trkpt>
      <trkpt lat="45.65757" lon="5.00613">
        <ele>241</ele>
        <time>2016-07-11T23:07:36Z</time>
      </trkpt>
      <trkpt lat="45.65756" lon="5.00614">
        <ele>241</ele>
        <time>2016-07-11T23:09:36Z</time>
      </trkpt>
      <trkpt lat="45.65755" lon="5.00615">
        <ele>241</ele>
        <time>2016-07-11T23:11:36Z</time>
      </trkpt>
      <trkpt lat="45.65754" lon="5.00616">
        <ele>241</ele>
        <time>2016-07-11T23:13:36Z</time>
      </trkpt>
      <trkpt lat="45.65754" lon="5.00617">
        <ele>241</ele>
        <time>2016-07-11T23:15:36Z</time>
      </trkpt>
      <trkpt lat="45.65753" lon="5.00618">
        <ele>241</ele>
        <time>2016-07-11T23:17:36Z</time>
      </trkpt>
      <trkpt lat="45.65752" lon="5.00619">
        <ele>241</ele>
        <time>2016-07-11T23:19:36Z</time>
      </trkpt>
      <trkpt lat="45.65752" lon="5.0062">
        <ele>241</ele>
        <time>2016-07-11T23:21:36Z</time>
      </trkpt>
      <trkpt lat="45.65751" lon="5.00621">
        <ele>241</ele>
        <time>2016-07-11T23:23:36Z</time>
      </trkpt>
      <trkpt lat="45.65751" lon="5.00622">
        <ele>241</ele>
        <time>2016-07-11T23:25:36Z</time>
      </trkpt>
      <trkpt lat="45.6575" lon="5.00624">
        <ele>241</ele>
        <time>2016-07-11T23:27:36Z</time>
      </trkpt>
      <trkpt lat="45.6575" lon="5.00625">
        <ele>242</ele>
        <time>2016-07-11T23:29:36Z</time>
      </trkpt>
      <trkpt lat="45.6575" lon="5.00626">
        <ele>242</ele>
        <time>2016-07-11T23:31:36Z</time>
      </trkpt>
      <trkpt lat="45.65749" lon="5.00628">
        <ele>242</ele>
        <time>2016-07-11T23:33:36Z</time>
      </trkpt>
      <trkpt lat="45.65749" lon="5.00629">
        <ele>242</ele>
        <time>2016-07-11T23:35:36Z</time>
      </trkpt>
      <trkpt lat="45.65749" lon="5.00631">
        <ele>242</ele>
        <time>2016-07-11T23:37:36Z</time>
      </trkpt>
      <trkpt lat="45.65749" lon="5.00632">
        <ele>242</ele>
        <time>2016-07-11T23:39:36Z</time>
      </trkpt>
      <trkpt lat="45.65749" lon="5.00634">
        <ele>242</ele>
        <time>2016-07-11T23:41:36Z</time>
      </trkpt>
      <trkpt lat="45.65749" lon="5.00635">
        <ele>242</ele>
        <time>2016-07-11T23:43:36Z</time>
      </trkpt>
      <trkpt lat="45.65749" lon="5.00637">
        <ele>242</ele>
        <time>2016-07-11T23:45:36Z</time>
      </trkpt>
      <trkpt lat="45.6575" lon="5.00639">
        <ele>242</ele>
        <time>2016-07-11T23:47:36Z</time>
      </trkpt>
      <trkpt lat="45.65745" lon="5.00682">
        <ele>242</ele>
        <time>2016-07-11T23:49:36Z</time>
      </trkpt>
      <trkpt lat="45.65718" lon="5.0074">
        <ele>242</ele>
        <time>2016-07-11T23:51:36Z</time>
      </trkpt>
      <trkpt lat="45.6558" lon="5.01005">
        <ele>246</ele>
        <time>2016-07-11T23:53:36Z</time>
      </trkpt>
      <trkpt lat="45.65257" lon="5.01626">
        <ele>248</ele>
        <time>2016-07-11T23:55:36Z</time>
      </trkpt>
      <trkpt lat="45.64849" lon="5.02409">
        <ele>252</ele>
        <time>2016-07-11T23:57:36Z</time>
      </trkpt>
      <trkpt lat="45.64841" lon="5.02425">
        <ele>252</ele>
        <time>2016-07-11T23:59:36Z</time>
      </trkpt>
      <trkpt lat="45.64821" lon="5.02464">
        <ele>252</ele>
        <time>2016-07-12T00:01:36Z</time>
      </trkpt>
      <trkpt lat="45.64771" lon="5.02561">
        <ele>253</ele>
        <time>2016-07-12T00:03:36Z</time>
      </trkpt>
      <trkpt lat="45.64764" lon="5.02568">
        <ele>253</ele>
        <time>2016-07-12T00:05:36Z</time>
      </trkpt>
      <trkpt lat="45.64762" lon="5.02571">
        <ele>253</ele>
        <time>2016-07-12T00:07:36Z</time>
      </trkpt>
      <trkpt lat="45.6476" lon="5.02576">
        <ele>253</ele>
        <time>2016-07-12T00:09:36Z</time>
      </trkpt>
      <trkpt lat="45.64731" lon="5.02631">
        <ele>254</ele>
        <time>2016-07-12T00:11:36Z</time>
      </trkpt>
      <trkpt lat="45.64711" lon="5.02666">
        <ele>255</ele>
        <time>2016-07-12T00:13:36Z</time>
      </trkpt>
      <trkpt lat="45.64698" lon="5.02688">
        <ele>255</ele>
        <time>2016-07-12T00:15:36Z</time>
      </trkpt>
      <trkpt lat="45.64689" lon="5.02706">
        <ele>255</ele>
        <time>2016-07-12T00:17:36Z</time>
      </trkpt>
      <trkpt lat="45.64684" lon="5.02714">
        <ele>255</ele>
        <time>2016-07-12T00:19:36Z</time>
      </trkpt>
      <trkpt lat="45.64681" lon="5.02719">
        <ele>256</ele>
        <time>2016-07-12T00:21:36Z</time>
      </trkpt>
      <trkpt lat="45.64678" lon="5.02722">
        <ele>256</ele>
        <time>2016-07-12T00:23:36Z</time>
      </trkpt>
      <trkpt lat="45.64676" lon="5.02724">
        <ele>256</ele>
        <time>2016-07-12T00:25:36Z</time>
      </trkpt>
      <trkpt lat="45.64669" lon="5.02729">
        <ele>256</ele>
        <time>2016-07-12T00:27:36Z</time>
      </trkpt>
      <trkpt lat="45.64668" lon="5.02728">
        <ele>256</ele>
        <time>2016-07-12T00:29:36Z</time>
      </trkpt>
      <trkpt lat="45.64667" lon="5.02727">
        <ele>256</ele>
        <time>2016-07-12T00:31:36Z</time>
      </trkpt>
      <trkpt lat="45.64666" lon="5.02727">
        <ele>256</ele>
        <time>2016-07-12T00:33:36Z</time>
      </trkpt>
      <trkpt lat="45.64664" lon="5.02727">
        <ele>256</ele>
        <time>2016-07-12T00:35:36Z</time>
      </trkpt>
      <trkpt lat="45.64663" lon="5.02726">
        <ele>256</ele>
        <time>2016-07-12T00:37:36Z</time>
      </trkpt>
      <trkpt lat="45.64662" lon="5.02726">
        <ele>256</ele>
        <time>2016-07-12T00:39:36Z</time>
      </trkpt>
      <trkpt lat="45.6466" lon="5.02727">
        <ele>256</ele>
        <time>2016-07-12T00:41:36Z</time>
      </trkpt>
      <trkpt lat="45.64659" lon="5.02727">
        <ele>256</ele>
        <time>2016-07-12T00:43:36Z</time>
      </trkpt>
      <trkpt lat="45.64657" lon="5.02727">
        <ele>256</ele>
        <time>2016-07-12T00:45:36Z</time>
      </trkpt>
      <trkpt lat="45.64655" lon="5.02728">
        <ele>256</ele>
        <time>2016-07-12T00:47:36Z</time>
      </trkpt>
      <trkpt lat="45.64653" lon="5.02729">
        <ele>256</ele>
        <time>2016-07-12T00:49:36Z</time>
      </trkpt>
      <trkpt lat="45.64651" lon="5.0273">
        <ele>256</ele>
        <time>2016-07-12T00:51:36Z</time>
      </trkpt>
      <trkpt lat="45.6465" lon="5.02732">
        <ele>256</ele>
        <time>2016-07-12T00:53:36Z</time>
      </trkpt>
      <trkpt lat="45.64648" lon="5.02734">
        <ele>256</ele>
        <time>2016-07-12T00:55:36Z</time>
      </trkpt>
      <trkpt lat="45.64647" lon="5.02736">
        <ele>256</ele>
        <time>2016-07-12T00:57:36Z</time>
      </trkpt>
      <trkpt lat="45.64646" lon="5.02738">
        <ele>256</ele>
        <time>2016-07-12T00:59:36Z</time>
      </trkpt>
      <trkpt lat="45.64644" lon="5.02742">
        <ele>256</ele>
        <time>2016-07-12T01:01:36Z</time>
      </trkpt>
      <trkpt lat="45.64643" lon="5.02744">
        <ele>256</ele>
        <time>2016-07-12T01:03:36Z</time>
      </trkpt>
      <trkpt lat="45.64642" lon="5.02747">
        <ele>256</ele>
        <time>2016-07-12T01:05:36Z</time>
      </trkpt>
      <trkpt lat="45.64642" lon="5.02749">
        <ele>256</ele>
        <time>2016-07-12T01:07:36Z</time>
      </trkpt>
      <trkpt lat="45.64641" lon="5.02752">
        <ele>256</ele>
        <time>2016-07-12T01:09:36Z</time>
      </trkpt>
      <trkpt lat="45.64641" lon="5.02755">
        <ele>256</ele>
        <time>2016-07-12T01:11:36Z</time>
      </trkpt>
      <trkpt lat="45.64641" lon="5.02757">
        <ele>256</ele>
        <time>2016-07-12T01:13:36Z</time>
      </trkpt>
      <trkpt lat="45.64641" lon="5.0276">
        <ele>256</ele>
        <time>2016-07-12T01:15:36Z</time>
      </trkpt>
      <trkpt lat="45.64642" lon="5.02763">
        <ele>256</ele>
        <time>2016-07-12T01:17:36Z</time>
      </trkpt>
      <trkpt lat="45.64642" lon="5.02765">
        <ele>256</ele>
        <time>2016-07-12T01:19:36Z</time>
      </trkpt>
      <trkpt lat="45.64643" lon="5.02768">
        <ele>256</ele>
        <time>2016-07-12T01:21:36Z</time>
      </trkpt>
      <trkpt lat="45.64644" lon="5.0277">
        <ele>256</ele>
        <time>2016-07-12T01:23:36Z</time>
      </trkpt>
      <trkpt lat="45.64645" lon="5.02773">
        <ele>256</ele>
        <time>2016-07-12T01:25:36Z</time>
      </trkpt>
      <trkpt lat="45.64646" lon="5.02775">
        <ele>256</ele>
        <time>2016-07-12T01:27:36Z</time>
      </trkpt>
      <trkpt lat="45.64643" lon="5.02785">
        <ele>256</ele>
        <time>2016-07-12T01:29:36Z</time>
      </trkpt>
      <trkpt lat="45.64641" lon="5.02792">
        <ele>255</ele>
        <time>2016-07-12T01:31:36Z</time>
      </trkpt>
      <trkpt lat="45.64638" lon="5.02799">
        <ele>255</ele>
        <time>2016-07-12T01:33:36Z</time>
      </trkpt>
      <trkpt lat="45.64587" lon="5.02907">
        <ele>256</ele>
        <time>2016-07-12T01:35:36Z</time>
      </trkpt>
      <trkpt lat="45.64583" lon="5.02917">
        <ele>256</ele>
        <time>2016-07-12T01:37:36Z</time>
      </trkpt>
      <trkpt lat="45.64582" lon="5.02919">
        <ele>256</ele>
        <time>2016-07-12T01:39:36Z</time>
      </trkpt>
      <trkpt lat="45.6458" lon="5.02927">
        <ele>256</ele>
        <time>2016-07-12T01:41:36Z</time>
      </trkpt>
      <trkpt lat="45.64567" lon="5.02953">
        <ele>256</ele>
        <time>2016-07-12T01:43:36Z</time>
      </trkpt>
      <trkpt lat="45.64466" lon="5.03147">
        <ele>257</ele>
        <time>2016-07-12T01:45:36Z</time>
      </trkpt>
      <trkpt lat="45.64292" lon="5.03485">
        <ele>256</ele>
        <time>2016-07-12T01:47:36Z</time>
      </trkpt>
      <trkpt lat="45.6426" lon="5.03547">
        <ele>257</ele>
        <time>2016-07-12T01:49:36Z</time>
      </trkpt>
      <trkpt lat="45.64241" lon="5.03584">
        <ele>259</ele>
        <time>2016-07-12T01:51:36Z</time>
      </trkpt>
      <trkpt lat="45.6424" lon="5.03586">
        <ele>259</ele>
        <time>2016-07-12T01:53:36Z</time>
      </trkpt>
      <trkpt lat="45.64236" lon="5.03591">
        <ele>259</ele>
        <time>2016-07-12T01:55:36Z</time>
      </trkpt>
      <trkpt lat="45.64233" lon="5.03595">
        <ele>259</ele>
        <time>2016-07-12T01:57:36Z</time>
      </trkpt>
      <trkpt lat="45.64232" lon="5.03597">
        <ele>259</ele>
        <time>2016-07-12T01:59:36Z</time>
      </trkpt>
      <trkpt lat="45.64229" lon="5.03601">
        <ele>260</ele>
        <time>2016-07-12T02:01:36Z</time>
      </trkpt>
      <trkpt lat="45.64212" lon="5.03634">
        <ele>260</ele>
        <time>2016-07-12T02:03:36Z</time>
      </trkpt>
      <trkpt lat="45.64194" lon="5.03671">
        <ele>260</ele>
        <time>2016-07-12T02:05:36Z</time>
      </trkpt>
      <trkpt lat="45.64178" lon="5.03702">
        <ele>260</ele>
        <time>2016-07-12T02:07:36Z</time>
      </trkpt>
      <trkpt lat="45.64126" lon="5.03803">
        <ele>263</ele>
        <time>2016-07-12T02:09:36Z</time>
      </trkpt>
      <trkpt lat="45.64126" lon="5.03803">
        <ele>263</ele>
        <time>2016-07-12T02:11:36Z</time>
      </trkpt>
      <trkpt lat="45.64081" lon="5.03886">
        <ele>263</ele>
        <time>2016-07-12T02:13:36Z</time>
      </trkpt>
      <trkpt lat="45.64028" lon="5.03986">
        <ele>265</ele>
        <time>2016-07-12T02:15:36Z</time>
      </trkpt>
      <trkpt lat="45.64023" lon="5.03993">
        <ele>266</ele>
        <time>2016-07-12T02:17:36Z</time>
      </trkpt>
      <trkpt lat="45.64021" lon="5.03995">
        <ele>266</ele>
        <time>2016-07-12T02:19:36Z</time>
      </trkpt>
      <trkpt lat="45.64012" lon="5.04014">
        <ele>266</ele>
        <time>2016-07-12T02:21:36Z</time>
      </trkpt>
      <trkpt lat="45.64004" lon="5.04032">
        <ele>266</ele>
        <time>2016-07-12T02:23:36Z</time>
      </trkpt>
      <trkpt lat="45.64001" lon="5.04041">
        <ele>266</ele>
        <time>2016-07-12T02:25:36Z</time>
      </trkpt>
      <trkpt lat="45.63997" lon="5.04053">
        <ele>265</ele>
        <time>2016-07-12T02:27:36Z</time>
      </trkpt>
      <trkpt lat="45.63994" lon="5.04061">
        <ele>265</ele>
        <time>2016-07-12T02:29:36Z</time>
      </trkpt>
      <trkpt lat="45.63992" lon="5.04072">
        <ele>264</ele>
        <time>2016-07-12T02:31:36Z</time>
      </trkpt>
      <trkpt lat="45.63988" lon="5.04093">
        <ele>264</ele>
        <time>2016-07-12T02:33:36Z</time>
      </trkpt>
      <trkpt lat="45.63986" lon="5.04107">
        <ele>263</ele>
        <time>2016-07-12T02:35:36Z</time>
      </trkpt>
      <trkpt lat="45.63985" lon="5.04117">
        <ele>263</ele>
        <time>2016-07-12T02:37:36Z</time>
      </trkpt>
      <trkpt lat="45.63983" lon="5.04125">
        <ele>263</ele>
        <time>2016-07-12T02:39:36Z</time>
      </trkpt>
      <trkpt lat="45.63982" lon="5.04129">
        <ele>263</ele>
        <time>2016-07-12T02:41:36Z</time>
      </trkpt>
      <trkpt lat="45.6398" lon="5.04131">
        <ele>263</ele>
        <time>2016-07-12T02:43:36Z</time>
      </trkpt>
      <trkpt lat="45.63978" lon="5.04135">
        <ele>263</ele>
        <time>2016-07-12T02:45:36Z</time>
      </trkpt>
      <trkpt lat="45.63975" lon="5.04137">
        <ele>263</ele>
        <time>2016-07-12T02:47:36Z</time>
      </trkpt>
      <trkpt lat="45.63969" lon="5.04141">
        <ele>262</ele>
        <time>2016-07-12T02:49:36Z</time>
      </trkpt>
      <trkpt lat="45.63963" lon="5.04143">
        <ele>262</ele>
        <time>2016-07-12T02:51:36Z</time>
      </trkpt>
      <trkpt lat="45.6396" lon="5.04143">
        <ele>262</ele>
        <time>2016-07-12T02:53:36Z</time>
      </trkpt>
      <trkpt lat="45.63957" lon="5.04142">
        <ele>262</ele>
        <time>2016-07-12T02:55:36Z</time>
      </trkpt>
      <trkpt lat="45.63955" lon="5.04142">
        <ele>262</ele>
        <time>2016-07-12T02:57:36Z</time>
      </trkpt>
      <trkpt lat="45.63952" lon="5.04143">
        <ele>262</ele>
        <time>2016-07-12T02:59:36Z</time>
      </trkpt>
      <trkpt lat="45.63949" lon="5.04144">
        <ele>262</ele>
        <time>2016-07-12T03:01:36Z</time>
      </trkpt>
      <trkpt lat="45.63947" lon="5.04145">
        <ele>262</ele>
        <time>2016-07-12T03:03:36Z</time>
      </trkpt>
      <trkpt lat="45.63945" lon="5.04147">
        <ele>261</ele>
        <time>2016-07-12T03:05:36Z</time>
      </trkpt>
      <trkpt lat="45.63942" lon="5.04149">
        <ele>261</ele>
        <time>2016-07-12T03:07:36Z</time>
      </trkpt>
      <trkpt lat="45.6394" lon="5.04151">
        <ele>261</ele>
        <time>2016-07-12T03:09:36Z</time>
      </trkpt>
      <trkpt lat="45.63938" lon="5.04154">
        <ele>261</ele>
        <time>2016-07-12T03:11:36Z</time>
      </trkpt>
      <trkpt lat="45.63937" lon="5.04157">
        <ele>261</ele>
        <time>2016-07-12T03:13:36Z</time>
      </trkpt>
      <trkpt lat="45.63935" lon="5.0416">
        <ele>261</ele>
        <time>2016-07-12T03:15:36Z</time>
      </trkpt>
      <trkpt lat="45.63934" lon="5.04163">
        <ele>261</ele>
        <time>2016-07-12T03:17:36Z</time>
      </trkpt>
      <trkpt lat="45.63933" lon="5.04167">
        <ele>261</ele>
        <time>2016-07-12T03:19:36Z</time>
      </trkpt>
      <trkpt lat="45.63933" lon="5.0417">
        <ele>261</ele>
        <time>2016-07-12T03:21:36Z</time>
      </trkpt>
      <trkpt lat="45.63932" lon="5.04174">
        <ele>261</ele>
        <time>2016-07-12T03:23:36Z</time>
      </trkpt>
      <trkpt lat="45.63932" lon="5.04178">
        <ele>261</ele>
        <time>2016-07-12T03:25:36Z</time>
      </trkpt>
      <trkpt lat="45.63932" lon="5.04182">
        <ele>261</ele>
        <time>2016-07-12T03:27:36Z</time>
      </trkpt>
      <trkpt lat="45.63933" lon="5.04185">
        <ele>261</ele>
        <time>2016-07-12T03:29:36Z</time>
      </trkpt>
      <trkpt lat="45.63934" lon="5.04189">
        <ele>261</ele>
        <time>2016-07-12T03:31:36Z</time>
      </trkpt>
      <trkpt lat="45.63935" lon="5.04193">
        <ele>261</ele>
        <time>2016-07-12T03:33:36Z</time>
      </trkpt>
      <trkpt lat="45.63936" lon="5.04196">
        <ele>262</ele>
        <time>2016-07-12T03:35:36Z</time>
      </trkpt>
      <trkpt lat="45.63937" lon="5.04199">
        <ele>262</ele>
        <time>2016-07-12T03:37:36Z</time>
      </trkpt>
      <trkpt lat="45.63939" lon="5.04202">
        <ele>262</ele>
        <time>2016-07-12T03:39:36Z</time>
      </trkpt>
      <trkpt lat="45.63942" lon="5.04205">
        <ele>262</ele>
        <time>2016-07-12T03:41:36Z</time>
      </trkpt>
      <trkpt lat="45.63943" lon="5.04207">
        <ele>262</ele>
        <time>2016-07-12T03:43:36Z</time>
      </trkpt>
      <trkpt lat="45.63945" lon="5.04208">
        <ele>262</ele>
        <time>2016-07-12T03:45:36Z</time>
      </trkpt>
      <trkpt lat="45.63946" lon="5.0421">
        <ele>262</ele>
        <time>2016-07-12T03:47:36Z</time>
      </trkpt>
      <trkpt lat="45.63948" lon="5.04211">
        <ele>262</ele>
        <time>2016-07-12T03:49:36Z</time>
      </trkpt>
      <trkpt lat="45.6395" lon="5.04212">
        <ele>262</ele>
        <time>2016-07-12T03:51:36Z</time>
      </trkpt>
      <trkpt lat="45.63952" lon="5.04213">
        <ele>262</ele>
        <time>2016-07-12T03:53:36Z</time>
      </trkpt>
      <trkpt lat="45.63954" lon="5.04214">
        <ele>262</ele>
        <time>2016-07-12T03:55:36Z</time>
      </trkpt>
      <trkpt lat="45.63955" lon="5.04214">
        <ele>262</ele>
        <time>2016-07-12T03:57:36Z</time>
      </trkpt>
      <trkpt lat="45.63964" lon="5.04229">
        <ele>263</ele>
        <time>2016-07-12T03:59:36Z</time>
      </trkpt>
      <trkpt lat="45.63968" lon="5.04237">
        <ele>263</ele>
        <time>2016-07-12T04:01:36Z</time>
      </trkpt>
      <trkpt lat="45.63969" lon="5.04242">
        <ele>263</ele>
        <time>2016-07-12T04:03:36Z</time>
      </trkpt>
      <trkpt lat="45.6397" lon="5.04247">
        <ele>263</ele>
        <time>2016-07-12T04:05:36Z</time>
      </trkpt>
      <trkpt lat="45.6397" lon="5.04257">
        <ele>263</ele>
        <time>2016-07-12T04:07:36Z</time>
      </trkpt>
      <trkpt lat="45.6397" lon="5.04266">
        <ele>263</ele>
        <time>2016-07-12T04:09:36Z</time>
      </trkpt>
      <trkpt lat="45.63965" lon="5.04285">
        <ele>263</ele>
        <time>2016-07-12T04:11:36Z</time>
      </trkpt>
      <trkpt lat="45.63962" lon="5.04294">
        <ele>262</ele>
        <time>2016-07-12T04:13:36Z</time>
      </trkpt>
      <trkpt lat="45.6396" lon="5.04304">
        <ele>262</ele>
        <time>2016-07-12T04:15:36Z</time>
      </trkpt>
      <trkpt lat="45.63957" lon="5.04315">
        <ele>262</ele>
        <time>2016-07-12T04:17:36Z</time>
      </trkpt>
      <trkpt lat="45.63955" lon="5.04325">
        <ele>262</ele>
        <time>2016-07-12T04:19:36Z</time>
      </trkpt>
      <trkpt lat="45.63953" lon="5.04336">
        <ele>262</ele>
        <time>2016-07-12T04:21:36Z</time>
      </trkpt>
      <trkpt lat="45.63952" lon="5.04348">
        <ele>262</ele>
        <time>2016-07-12T04:23:36Z</time>
      </trkpt>
      <trkpt lat="45.63951" lon="5.04356">
        <ele>262</ele>
        <time>2016-07-12T04:25:36Z</time>
      </trkpt>
      <trkpt lat="45.6395" lon="5.04374">
        <ele>262</ele>
        <time>2016-07-12T04:27:36Z</time>
      </trkpt>
      <trkpt lat="45.6395" lon="5.0439">
        <ele>262</ele>
        <time>2016-07-12T04:29:36Z</time>
      </trkpt>
      <trkpt lat="45.6395" lon="5.04404">
        <ele>262</ele>
        <time>2016-07-12T04:31:36Z</time>
      </trkpt>
      <trkpt lat="45.6395" lon="5.04407">
        <ele>262</ele>
        <time>2016-07-12T04:33:36Z</time>
      </trkpt>
      <trkpt lat="45.63952" lon="5.04417">
        <ele>262</ele>
        <time>2016-07-12T04:35:36Z</time>
      </trkpt>
      <trkpt lat="45.63951" lon="5.04452">
        <ele>262</ele>
        <time>2016-07-12T04:37:36Z</time>
      </trkpt>
      <trkpt lat="45.6395" lon="5.04516">
        <ele>262</ele>
        <time>2016-07-12T04:39:36Z</time>
      </trkpt>
      <trkpt lat="45.6395" lon="5.04571">
        <ele>263</ele>
        <time>2016-07-12T04:41:36Z</time>
      </trkpt>
      <trkpt lat="45.6395" lon="5.04614">
        <ele>264</ele>
        <time>2016-07-12T04:43:36Z</time>
      </trkpt>
      <trkpt lat="45.6395" lon="5.04669">
        <ele>265</ele>
        <time>2016-07-12T04:45:36Z</time>
      </trkpt>
      <trkpt lat="45.6395" lon="5.04699">
        <ele>265</ele>
        <time>2016-07-12T04:47:36Z</time>
      </trkpt>
      <trkpt lat="45.6395" lon="5.04724">
        <ele>266</ele>
        <time>2016-07-12T04:49:36Z</time>
      </trkpt>
      <trkpt lat="45.6395" lon="5.0475">
        <ele>266</ele>
        <time>2016-07-12T04:51:36Z</time>
      </trkpt>
      <trkpt lat="45.63949" lon="5.04785">
        <ele>267</ele>
        <time>2016-07-12T04:53:36Z</time>
      </trkpt>
      <trkpt lat="45.63948" lon="5.04815">
        <ele>267</ele>
        <time>2016-07-12T04:55:36Z</time>
      </trkpt>
      <trkpt lat="45.63946" lon="5.04841">
        <ele>268</ele>
        <time>2016-07-12T04:57:36Z</time>
      </trkpt>
      <trkpt lat="45.63944" lon="5.04868">
        <ele>268</ele>
        <time>2016-07-12T04:59:36Z</time>
      </trkpt>
      <trkpt lat="45.63941" lon="5.04901">
        <ele>268</ele>
        <time>2016-07-12T05:01:36Z</time>
      </trkpt>
      <trkpt lat="45.63936" lon="5.04937">
        <ele>268</ele>
        <time>2016-07-12T05:03:36Z</time>
      </trkpt>
      <trkpt lat="45.63931" lon="5.04973">
        <ele>268</ele>
        <time>2016-07-12T05:05:36Z</time>
      </trkpt>
      <trkpt lat="45.63912" lon="5.05084">
        <ele>270</ele>
        <time>2016-07-12T05:07:36Z</time>
      </trkpt>
      <trkpt lat="45.63898" lon="5.05169">
        <ele>272</ele>
        <time>2016-07-12T05:09:36Z</time>
      </trkpt>
      <trkpt lat="45.63885" lon="5.05246">
        <ele>272</ele>
        <time>2016-07-12T05:11:36Z</time>
      </trkpt>
      <trkpt lat="45.63881" lon="5.0527">
        <ele>272</ele>
        <time>2016-07-12T05:13:36Z</time>
      </trkpt>
      <trkpt lat="45.63879" lon="5.05285">
        <ele>272</ele>
        <time>2016-07-12T05:15:36Z</time>
      </trkpt>
      <trkpt lat="45.63872" lon="5.05335">
        <ele>273</ele>
        <time>2016-07-12T05:17:36Z</time>
      </trkpt>
      <trkpt lat="45.63868" lon="5.0538">
        <ele>273</ele>
        <time>2016-07-12T05:19:36Z</time>
      </trkpt>
      <trkpt lat="45.63864" lon="5.05433">
        <ele>274</ele>
        <time>2016-07-12T05:21:36Z</time>
      </trkpt>
      <trkpt lat="45.63862" lon="5.0547">
        <ele>275</ele>
        <time>2016-07-12T05:23:36Z</time>
      </trkpt>
      <trkpt lat="45.63862" lon="5.05484">
        <ele>275</ele>
        <time>2016-07-12T05:25:36Z</time>
      </trkpt>
      <trkpt lat="45.63862" lon="5.05494">
        <ele>275</ele>
        <time>2016-07-12T05:27:36Z</time>
      </trkpt>
      <trkpt lat="45.63862" lon="5.05519">
        <ele>275</ele>
        <time>2016-07-12T05:29:36Z</time>
      </trkpt>
      <trkpt lat="45.63862" lon="5.05549">
        <ele>274</ele>
        <time>2016-07-12T05:31:36Z</time>
      </trkpt>
      <trkpt lat="45.63864" lon="5.05623">
        <ele>274</ele>
        <time>2016-07-12T05:33:36Z</time>
      </trkpt>
      <trkpt lat="45.63868" lon="5.05768">
        <ele>276</ele>
        <time>2016-07-12T05:35:36Z</time>
      </trkpt>
      <trkpt lat="45.63874" lon="5.05972">
        <ele>280</ele>
        <time>2016-07-12T05:37:36Z</time>
      </trkpt>
      <trkpt lat="45.63877" lon="5.06061">
        <ele>281</ele>
        <time>2016-07-12T05:39:36Z</time>
      </trkpt>
      <trkpt lat="45.63877" lon="5.0608">
        <ele>282</ele>
        <time>2016-07-12T05:41:36Z</time>
      </trkpt>
      <trkpt lat="45.63878" lon="5.06107">
        <ele>281</ele>
        <time>2016-07-12T05:43:36Z</time>
      </trkpt>
      <trkpt lat="45.6388" lon="5.06194">
        <ele>281</ele>
        <time>2016-07-12T05:45:36Z</time>
      </trkpt>
      <trkpt lat="45.63881" lon="5.06223">
        <ele>282</ele>
        <time>2016-07-12T05:47:36Z</time>
      </trkpt>
      <trkpt lat="45.63882" lon="5.06267">
        <ele>283</ele>
        <time>2016-07-12T05:49:36Z</time>
      </trkpt>
      <trkpt lat="45.63882" lon="5.06294">
        <ele>284</ele>
        <time>2016-07-12T05:51:36Z</time>
      </trkpt>
      <trkpt lat="45.63882" lon="5.06331">
        <ele>285</ele>
        <time>2016-07-12T05:53:36Z</time>
      </trkpt>
      <trkpt lat="45.63881" lon="5.06362">
        <ele>285</ele>
        <time>2016-07-12T05:55:36Z</time>
      </trkpt>
      <trkpt lat="45.63878" lon="5.0641">
        <ele>286</ele>
        <time>2016-07-12T05:57:36Z</time>
      </trkpt>
      <trkpt lat="45.63874" lon="5.06475">
        <ele>288</ele>
        <time>2016-07-12T05:59:36Z</time>
      </trkpt>
      <trkpt lat="45.63871" lon="5.0651">
        <ele>289</ele>
        <time>2016-07-12T06:01:36Z</time>
      </trkpt>
      <trkpt lat="45.63868" lon="5.06545">
        <ele>290</ele>
        <time>2016-07-12T06:03:36Z</time>
      </trkpt>
      <trkpt lat="45.63865" lon="5.06567">
        <ele>290</ele>
        <time>2016-07-12T06:05:36Z</time>
      </trkpt>
      <trkpt lat="45.63859" lon="5.06619">
        <ele>291</ele>
        <time>2016-07-12T06:07:36Z</time>
      </trkpt>
      <trkpt lat="45.63854" lon="5.0666">
        <ele>291</ele>
        <time>2016-07-12T06:09:36Z</time>
      </trkpt>
      <trkpt lat="45.6385" lon="5.06684">
        <ele>291</ele>
        <time>2016-07-12T06:11:36Z</time>
      </trkpt>
      <trkpt lat="45.63847" lon="5.06703">
        <ele>292</ele>
        <time>2016-07-12T06:13:36Z</time>
      </trkpt>
      <trkpt lat="45.63842" lon="5.06733">
        <ele>292</ele>
        <time>2016-07-12T06:15:36Z</time>
      </trkpt>
      <trkpt lat="45.63836" lon="5.06766">
        <ele>292</ele>
        <time>2016-07-12T06:17:36Z</time>
      </trkpt>
      <trkpt lat="45.63828" lon="5.06809">
        <ele>293</ele>
        <time>2016-07-12T06:19:36Z</time>
      </trkpt>
      <trkpt lat="45.63822" lon="5.06838">
        <ele>292</ele>
        <time>2016-07-12T06:21:36Z</time>
      </trkpt>
      <trkpt lat="45.63814" lon="5.06873">
        <ele>291</ele>
        <time>2016-07-12T06:23:36Z</time>
      </trkpt>
      <trkpt lat="45.63807" lon="5.06904">
        <ele>290</ele>
        <time>2016-07-12T06:25:36Z</time>
      </trkpt>
      <trkpt lat="45.63795" lon="5.06953">
        <ele>289</ele>
        <time>2016-07-12T06:27:36Z</time>
      </trkpt>
      <trkpt lat="45.63789" lon="5.06976">
        <ele>289</ele>
        <time>2016-07-12T06:29:36Z</time>
      </trkpt>
      <trkpt lat="45.63783" lon="5.06998">
        <ele>289</ele>
        <time>2016-07-12T06:31:36Z</time>
      </trkpt>
      <trkpt lat="45.63779" lon="5.07012">
        <ele>289</ele>
        <time>2016-07-12T06:33:36Z</time>
      </trkpt>
      <trkpt lat="45.63775" lon="5.07027">
        <ele>289</ele>
        <time>2016-07-12T06:35:36Z</time>
      </trkpt>
      <trkpt lat="45.63769" lon="5.07047">
        <ele>290</ele>
        <time>2016-07-12T06:37:36Z</time>
      </trkpt>
      <trkpt lat="45.63748" lon="5.07115">
        <ele>290</ele>
        <time>2016-07-12T06:39:36Z</time>
      </trkpt>
      <trkpt lat="45.6373" lon="5.07168">
        <ele>290</ele>
        <time>2016-07-12T06:41:36Z</time>
      </trkpt>
      <trkpt lat="45.63722" lon="5.07192">
        <ele>290</ele>
        <time>2016-07-12T06:43:36Z</time>
      </trkpt>
      <trkpt lat="45.63707" lon="5.07231">
        <ele>291</ele>
        <time>2016-07-12T06:45:36Z</time>
      </trkpt>
      <trkpt lat="45.63698" lon="5.07255">
        <ele>292</ele>
        <time>2016-07-12T06:47:36Z</time>
      </trkpt>
      <trkpt lat="45.63687" lon="5.07281">
        <ele>293</ele>
        <time>2016-07-12T06:49:36Z</time>
      </trkpt>
      <trkpt lat="45.6368" lon="5.07297">
        <ele>293</ele>
        <time>2016-07-12T06:51:36Z</time>
      </trkpt>
      <trkpt lat="45.63669" lon="5.07322">
        <ele>294</ele>
        <time>2016-07-12T06:53:36Z</time>
      </trkpt>
      <trkpt lat="45.63653" lon="5.07357">
        <ele>294</ele>
        <time>2016-07-12T06:55:36Z</time>
      </trkpt>
      <trkpt lat="45.63633" lon="5.074">
        <ele>294</ele>
        <time>2016-07-12T06:57:36Z</time>
      </trkpt>
      <trkpt lat="45.63619" lon="5.0743">
        <ele>294</ele>
        <time>2016-07-12T06:59:36Z</time>
      </trkpt>
      <trkpt lat="45.63602" lon="5.07463">
        <ele>294</ele>
        <time>2016-07-12T07:01:36Z</time>
      </trkpt>
      <trkpt lat="45.6359" lon="5.07486">
        <ele>294</ele>
        <time>2016-07-12T07:03:36Z</time>
      </trkpt>
      <trkpt lat="45.6358" lon="5.07506">
        <ele>294</ele>
        <time>2016-07-12T07:05:36Z</time>
      </trkpt>
      <trkpt lat="45.63566" lon="5.07534">
        <ele>292</ele>
        <time>2016-07-12T07:07:36Z</time>
      </trkpt>
      <trkpt lat="45.6355" lon="5.07564">
        <ele>291</ele>
        <time>2016-07-12T07:09:36Z</time>
      </trkpt>
      <trkpt lat="45.63532" lon="5.07597">
        <ele>290</ele>
        <time>2016-07-12T07:11:36Z</time>
      </trkpt>
      <trkpt lat="45.63524" lon="5.0761">
        <ele>289</ele>
        <time>2016-07-12T07:13:36Z</time>
      </trkpt>
      <trkpt lat="45.63518" lon="5.07621">
        <ele>289</ele>
        <time>2016-07-12T07:15:36Z</time>
      </trkpt>
      <trkpt lat="45.63504" lon="5.07642">
        <ele>288</ele>
        <time>2016-07-12T07:17:36Z</time>
      </trkpt>
      <trkpt lat="45.6349" lon="5.07663">
        <ele>288</ele>
        <time>2016-07-12T07:19:36Z</time>
      </trkpt>
      <trkpt lat="45.63473" lon="5.07686">
        <ele>288</ele>
        <time>2016-07-12T07:21:36Z</time>
      </trkpt>
      <trkpt lat="45.6347" lon="5.07688">
        <ele>288</ele>
        <time>2016-07-12T07:23:36Z</time>
      </trkpt>
      <trkpt lat="45.63469" lon="5.07688">
        <ele>288</ele>
        <time>2016-07-12T07:25:36Z</time>
      </trkpt>
      <trkpt lat="45.63468" lon="5.0769">
        <ele>288</ele>
        <time>2016-07-12T07:27:36Z</time>
      </trkpt>
      <trkpt lat="45.63465" lon="5.07694">
        <ele>288</ele>
        <time>2016-07-12T07:29:36Z</time>
      </trkpt>
      <trkpt lat="45.63454" lon="5.07707">
        <ele>288</ele>
        <time>2016-07-12T07:31:36Z</time>
      </trkpt>
      <trkpt lat="45.63441" lon="5.07719">
        <ele>288</ele>
        <time>2016-07-12T07:33:36Z</time>
      </trkpt>
      <trkpt lat="45.63428" lon="5.07731">
        <ele>289</ele>
        <time>2016-07-12T07:35:36Z</time>
      </trkpt>
      <trkpt lat="45.6342" lon="5.07738">
        <ele>289</ele>
        <time>2016-07-12T07:37:36Z</time>
      </trkpt>
      <trkpt lat="45.63414" lon="5.07746">
        <ele>289</ele>
        <time>2016-07-12T07:39:36Z</time>
      </trkpt>
      <trkpt lat="45.63409" lon="5.07752">
        <ele>289</ele>
        <time>2016-07-12T07:41:36Z</time>
      </trkpt>
      <trkpt lat="45.63405" lon="5.07757">
        <ele>290</ele>
        <time>2016-07-12T07:43:36Z</time>
      </trkpt>
      <trkpt lat="45.63402" lon="5.07763">
        <ele>290</ele>
        <time>2016-07-12T07:45:36Z</time>
      </trkpt>
      <trkpt lat="45.634" lon="5.07766">
        <ele>290</ele>
        <time>2016-07-12T07:47:36Z</time>
      </trkpt>
      <trkpt lat="45.63398" lon="5.07769">
        <ele>290</ele>
        <time>2016-07-12T07:49:36Z</time>
      </trkpt>
      <trkpt lat="45.63396" lon="5.07772">
        <ele>290</ele>
        <time>2016-07-12T07:51:36Z</time>
      </trkpt>
      <trkpt lat="45.63393" lon="5.07774">
        <ele>290</ele>
        <time>2016-07-12T07:53:36Z</time>
      </trkpt>
      <trkpt lat="45.63391" lon="5.07776">
        <ele>290</ele>
        <time>2016-07-12T07:55:36Z</time>
      </trkpt>
      <trkpt lat="45.6338" lon="5.07783">
        <ele>291</ele>
        <time>2016-07-12T07:57:36Z</time>
      </trkpt>
      <trkpt lat="45.6338" lon="5.07783">
        <ele>291</ele>
        <time>2016-07-12T07:59:36Z</time>
      </trkpt>
      <trkpt lat="45.63378" lon="5.07781">
        <ele>291</ele>
        <time>2016-07-12T08:01:36Z</time>
      </trkpt>
      <trkpt lat="45.63376" lon="5.0778">
        <ele>291</ele>
        <time>2016-07-12T08:03:36Z</time>
      </trkpt>
      <trkpt lat="45.63374" lon="5.07779">
        <ele>291</ele>
        <time>2016-07-12T08:05:36Z</time>
      </trkpt>
      <trkpt lat="45.63372" lon="5.07778">
        <ele>291</ele>
        <time>2016-07-12T08:07:36Z</time>
      </trkpt>
      <trkpt lat="45.63369" lon="5.07777">
        <ele>291</ele>
        <time>2016-07-12T08:09:36Z</time>
      </trkpt>
      <trkpt lat="45.63367" lon="5.07777">
        <ele>292</ele>
        <time>2016-07-12T08:11:36Z</time>
      </trkpt>
      <trkpt lat="45.63365" lon="5.07777">
        <ele>292</ele>
        <time>2016-07-12T08:13:36Z</time>
      </trkpt>
      <trkpt lat="45.63363" lon="5.07777">
        <ele>292</ele>
        <time>2016-07-12T08:15:36Z</time>
      </trkpt>
      <trkpt lat="45.6336" lon="5.07778">
        <ele>292</ele>
        <time>2016-07-12T08:17:36Z</time>
      </trkpt>
      <trkpt lat="45.63357" lon="5.07779">
        <ele>292</ele>
        <time>2016-07-12T08:19:36Z</time>
      </trkpt>
      <trkpt lat="45.63355" lon="5.07781">
        <ele>292</ele>
        <time>2016-07-12T08:21:36Z</time>
      </trkpt>
      <trkpt lat="45.63352" lon="5.07783">
        <ele>292</ele>
        <time>2016-07-12T08:23:36Z</time>
      </trkpt>
      <trkpt lat="45.6335" lon="5.07785">
        <ele>292</ele>
        <time>2016-07-12T08:25:36Z</time>
      </trkpt>
      <trkpt lat="45.63348" lon="5.07788">
        <ele>292</ele>
        <time>2016-07-12T08:27:36Z</time>
      </trkpt>
      <trkpt lat="45.63346" lon="5.07791">
        <ele>292</ele>
        <time>2016-07-12T08:29:36Z</time>
      </trkpt>
      <trkpt lat="45.63344" lon="5.07797">
        <ele>292</ele>
        <time>2016-07-12T08:31:36Z</time>
      </trkpt>
      <trkpt lat="45.63343" lon="5.07799">
        <ele>292</ele>
        <time>2016-07-12T08:33:36Z</time>
      </trkpt>
      <trkpt lat="45.63342" lon="5.07802">
        <ele>292</ele>
        <time>2016-07-12T08:35:36Z</time>
      </trkpt>
      <trkpt lat="45.63341" lon="5.07805">
        <ele>292</ele>
        <time>2016-07-12T08:37:36Z</time>
      </trkpt>
      <trkpt lat="45.63341" lon="5.07808">
        <ele>292</ele>
        <time>2016-07-12T08:39:36Z</time>
      </trkpt>
      <trkpt lat="45.63341" lon="5.07811">
        <ele>292</ele>
        <time>2016-07-12T08:41:36Z</time>
      </trkpt>
      <trkpt lat="45.63341" lon="5.07814">
        <ele>292</ele>
        <time>2016-07-12T08:43:36Z</time>
      </trkpt>
      <trkpt lat="45.63341" lon="5.07817">
        <ele>291</ele>
        <time>2016-07-12T08:45:36Z</time>
      </trkpt>
      <trkpt lat="45.63342" lon="5.0782">
        <ele>291</ele>
        <time>2016-07-12T08:47:36Z</time>
      </trkpt>
      <trkpt lat="45.63342" lon="5.07824">
        <ele>291</ele>
        <time>2016-07-12T08:49:36Z</time>
      </trkpt>
      <trkpt lat="45.63343" lon="5.07827">
        <ele>291</ele>
        <time>2016-07-12T08:51:36Z</time>
      </trkpt>
      <trkpt lat="45.63344" lon="5.0783">
        <ele>291</ele>
        <time>2016-07-12T08:53:36Z</time>
      </trkpt>
      <trkpt lat="45.63345" lon="5.07833">
        <ele>291</ele>
        <time>2016-07-12T08:55:36Z</time>
      </trkpt>
      <trkpt lat="45.63347" lon="5.07836">
        <ele>291</ele>
        <time>2016-07-12T08:57:36Z</time>
      </trkpt>
      <trkpt lat="45.63348" lon="5.07839">
        <ele>291</ele>
        <time>2016-07-12T08:59:36Z</time>
      </trkpt>
      <trkpt lat="45.6335" lon="5.07841">
        <ele>291</ele>
        <time>2016-07-12T09:01:36Z</time>
      </trkpt>
      <trkpt lat="45.63352" lon="5.07843">
        <ele>291</ele>
        <time>2016-07-12T09:03:36Z</time>
      </trkpt>
      <trkpt lat="45.63354" lon="5.07845">
        <ele>291</ele>
        <time>2016-07-12T09:05:36Z</time>
      </trkpt>
      <trkpt lat="45.63356" lon="5.07846">
        <ele>291</ele>
        <time>2016-07-12T09:07:36Z</time>
      </trkpt>
      <trkpt lat="45.63358" lon="5.07848">
        <ele>291</ele>
        <time>2016-07-12T09:09:36Z</time>
      </trkpt>
      <trkpt lat="45.63361" lon="5.07849">
        <ele>291</ele>
        <time>2016-07-12T09:11:36Z</time>
      </trkpt>
      <trkpt lat="45.63363" lon="5.07849">
        <ele>291</ele>
        <time>2016-07-12T09:13:36Z</time>
      </trkpt>
      <trkpt lat="45.63365" lon="5.07849">
        <ele>291</ele>
        <time>2016-07-12T09:15:36Z</time>
      </trkpt>
      <trkpt lat="45.63367" lon="5.07849">
        <ele>291</ele>
        <time>2016-07-12T09:17:36Z</time>
      </trkpt>
      <trkpt lat="45.6337" lon="5.07849">
        <ele>291</ele>
        <time>2016-07-12T09:19:36Z</time>
      </trkpt>
      <trkpt lat="45.63376" lon="5.07851">
        <ele>290</ele>
        <time>2016-07-12T09:21:36Z</time>
      </trkpt>
      <trkpt lat="45.6338" lon="5.07854">
        <ele>290</ele>
        <time>2016-07-12T09:23:36Z</time>
      </trkpt>
      <trkpt lat="45.63383" lon="5.07856">
        <ele>290</ele>
        <time>2016-07-12T09:25:36Z</time>
      </trkpt>
      <trkpt lat="45.63386" lon="5.0786">
        <ele>290</ele>
        <time>2016-07-12T09:27:36Z</time>
      </trkpt>
      <trkpt lat="45.63391" lon="5.07866">
        <ele>290</ele>
        <time>2016-07-12T09:29:36Z</time>
      </trkpt>
      <trkpt lat="45.63396" lon="5.07874">
        <ele>290</ele>
        <time>2016-07-12T09:31:36Z</time>
      </trkpt>
      <trkpt lat="45.63406" lon="5.07889">
        <ele>290</ele>
        <time>2016-07-12T09:33:36Z</time>
      </trkpt>
      <trkpt lat="45.63426" lon="5.07924">
        <ele>290</ele>
        <time>2016-07-12T09:35:36Z</time>
      </trkpt>
      <trkpt lat="45.63439" lon="5.07949">
        <ele>290</ele>
        <time>2016-07-12T09:37:36Z</time>
      </trkpt>
      <trkpt lat="45.63444" lon="5.07955">
        <ele>290</ele>
        <time>2016-07-12T09:39:36Z</time>
      </trkpt>
      <trkpt lat="45.63467" lon="5.07998">
        <ele>290</ele>
        <time>2016-07-12T09:41:36Z</time>
      </trkpt>
      <trkpt lat="45.63492" lon="5.08043">
        <ele>289</ele>
        <time>2016-07-12T09:43:36Z</time>
      </trkpt>
      <trkpt lat="45.63514" lon="5.08087">
        <ele>289</ele>
        <time>2016-07-12T09:45:36Z</time>
      </trkpt>
      <trkpt lat="45.63526" lon="5.08107">
        <ele>289</ele>
        <time>2016-07-12T09:47:36Z</time>
      </trkpt>
      <trkpt lat="45.63542" lon="5.08135">
        <ele>290</ele>
        <time>2016-07-12T09:49:36Z</time>
      </trkpt>
      <trkpt lat="45.6358" lon="5.08205">
        <ele>291</ele>
        <time>2016-07-12T09:51:36Z</time>
      </trkpt>
      <trkpt lat="45.63606" lon="5.08252">
        <ele>291</ele>
        <time>2016-07-12T09:53:36Z</time>
      </trkpt>
      <trkpt lat="45.63629" lon="5.08295">
        <ele>292</ele>
        <time>2016-07-12T09:55:36Z</time>
      </trkpt>
      <trkpt lat="45.63638" lon="5.08312">
        <ele>292</ele>
        <time>2016-07-12T09:57:36Z</time>
      </trkpt>
      <trkpt lat="45.63658" lon="5.08346">
        <ele>294</ele>
        <time>2016-07-12T09:59:36Z</time>
      </trkpt>
      <trkpt lat="45.63693" lon="5.08412">
        <ele>292</ele>
        <time>2016-07-12T10:01:36Z</time>
      </trkpt>
      <trkpt lat="45.63706" lon="5.08438">
        <ele>291</ele>
        <time>2016-07-12T10:03:36Z</time>
      </trkpt>
      <trkpt lat="45.63721" lon="5.08467">
        <ele>289</ele>
        <time>2016-07-12T10:05:36Z</time>
      </trkpt>
      <trkpt lat="45.6374" lon="5.0849">
        <ele>288</ele>
        <time>2016-07-12T10:07:36Z</time>
      </trkpt>
      <trkpt lat="45.63771" lon="5.08516">
        <ele>286</ele>
        <time>2016-07-12T10:09:36Z</time>
      </trkpt>
      <trkpt lat="45.63812" lon="5.08544">
        <ele>284</ele>
        <time>2016-07-12T10:11:36Z</time>
      </trkpt>
      <trkpt lat="45.63829" lon="5.08557">
        <ele>283</ele>
        <time>2016-07-12T10:13:36Z</time>
      </trkpt>
      <trkpt lat="45.63849" lon="5.08572">
        <ele>282</ele>
        <time>2016-07-12T10:15:36Z</time>
      </trkpt>
      <trkpt lat="45.6387" lon="5.08594">
        <ele>281</ele>
        <time>2016-07-12T10:17:36Z</time>
      </trkpt>
      <trkpt lat="45.63879" lon="5.08606">
        <ele>280</ele>
        <time>2016-07-12T10:19:36Z</time>
      </trkpt>
      <trkpt lat="45.63884" lon="5.08611">
        <ele>280</ele>
        <time>2016-07-12T10:21:36Z</time>
      </trkpt>
      <trkpt lat="45.6389" lon="5.08617">
        <ele>279</ele>
        <time>2016-07-12T10:23:36Z</time>
      </trkpt>
      <trkpt lat="45.63894" lon="5.08623">
        <ele>279</ele>
        <time>2016-07-12T10:25:36Z</time>
      </trkpt>
      <trkpt lat="45.63895" lon="5.08624">
        <ele>279</ele>
        <time>2016-07-12T10:27:36Z</time>
      </trkpt>
      <trkpt lat="45.63907" lon="5.08641">
        <ele>277</ele>
        <time>2016-07-12T10:29:36Z</time>
      </trkpt>
      <trkpt lat="45.63919" lon="5.08661">
        <ele>276</ele>
        <time>2016-07-12T10:31:36Z</time>
      </trkpt>
      <trkpt lat="45.63929" lon="5.08681">
        <ele>275</ele>
        <time>2016-07-12T10:33:36Z</time>
      </trkpt>
      <trkpt lat="45.63949" lon="5.08731">
        <ele>274</ele>
        <time>2016-07-12T10:35:36Z</time>
      </trkpt>
      <trkpt lat="45.63957" lon="5.08758">
        <ele>274</ele>
        <time>2016-07-12T10:37:36Z</time>
      </trkpt>
      <trkpt lat="45.63966" lon="5.088">
        <ele>272</ele>
        <time>2016-07-12T10:39:36Z</time>
      </trkpt>
      <trkpt lat="45.63967" lon="5.08809">
        <ele>272</ele>
        <time>2016-07-12T10:41:36Z</time>
      </trkpt>
      <trkpt lat="45.63971" lon="5.08831">
        <ele>271</ele>
        <time>2016-07-12T10:43:36Z</time>
      </trkpt>
      <trkpt lat="45.63974" lon="5.08876">
        <ele>268</ele>
        <time>2016-07-12T10:45:36Z</time>
      </trkpt>
      <trkpt lat="45.63974" lon="5.08923">
        <ele>265</ele>
        <time>2016-07-12T10:47:36Z</time>
      </trkpt>
      <trkpt lat="45.63972" lon="5.08953">
        <ele>265</ele>
        <time>2016-07-12T10:49:36Z</time>
      </trkpt>
      <trkpt lat="45.63964" lon="5.0901">
        <ele>264</ele>
        <time>2016-07-12T10:51:36Z</time>
      </trkpt>
      <trkpt lat="45.63962" lon="5.09017">
        <ele>264</ele>
        <time>2016-07-12T10:53:36Z</time>
      </trkpt>
      <trkpt lat="45.6395" lon="5.09065">
        <ele>263</ele>
        <time>2016-07-12T10:55:36Z</time>
      </trkpt>
      <trkpt lat="45.63943" lon="5.09088">
        <ele>263</ele>
        <time>2016-07-12T10:57:36Z</time>
      </trkpt>
      <trkpt lat="45.63911" lon="5.09195">
        <ele>263</ele>
        <time>2016-07-12T10:59:36Z</time>
      </trkpt>
      <trkpt lat="45.63898" lon="5.09251">
        <ele>261</ele>
        <time>2016-07-12T11:01:36Z</time>
      </trkpt>
      <trkpt lat="45.63892" lon="5.09289">
        <ele>259</ele>
        <time>2016-07-12T11:03:36Z</time>
      </trkpt>
      <trkpt lat="45.63882" lon="5.09387">
        <ele>257</ele>
        <time>2016-07-12T11:05:36Z</time>
      </trkpt>
      <trkpt lat="45.63876" lon="5.09408">
        <ele>258</ele>
        <time>2016-07-12T11:07:36Z</time>
      </trkpt>
      <trkpt lat="45.63873" lon="5.09421">
        <ele>258</ele>
        <time>2016-07-12T11:09:36Z</time>
      </trkpt>
      <trkpt lat="45.63869" lon="5.0943">
        <ele>258</ele>
        <time>2016-07-12T11:11:36Z</time>
      </trkpt>
      <trkpt lat="45.63868" lon="5.09437">
        <ele>258</ele>
        <time>2016-07-12T11:13:36Z</time>
      </trkpt>
      <trkpt lat="45.63867" lon="5.09441">
        <ele>257</ele>
        <time>2016-07-12T11:15:36Z</time>
      </trkpt>
      <trkpt lat="45.63866" lon="5.09446">
        <ele>257</ele>
        <time>2016-07-12T11:17:36Z</time>
      </trkpt>
      <trkpt lat="45.63865" lon="5.09451">
        <ele>257</ele>
        <time>2016-07-12T11:19:36Z</time>
      </trkpt>
      <trkpt lat="45.63863" lon="5.09455">
        <ele>256</ele>
        <time>2016-07-12T11:21:36Z</time>
      </trkpt>
      <trkpt lat="45.63862" lon="5.09458">
        <ele>256</ele>
        <time>2016-07-12T11:23:36Z</time>
      </trkpt>
      <trkpt lat="45.63858" lon="5.09462">
        <ele>256</ele>
        <time>2016-07-12T11:25:36Z</time>
      </trkpt>
      <trkpt lat="45.63855" lon="5.09465">
        <ele>256</ele>
        <time>2016-07-12T11:27:36Z</time>
      </trkpt>
      <trkpt lat="45.63852" lon="5.09468">
        <ele>256</ele>
        <time>2016-07-12T11:29:36Z</time>
      </trkpt>
      <trkpt lat="45.63844" lon="5.09471">
        <ele>257</ele>
        <time>2016-07-12T11:31:36Z</time>
      </trkpt>
      <trkpt lat="45.63844" lon="5.09471">
        <ele>257</ele>
        <time>2016-07-12T11:33:36Z</time>
      </trkpt>
      <trkpt lat="45.63841" lon="5.0947">
        <ele>257</ele>
        <time>2016-07-12T11:35:36Z</time>
      </trkpt>
      <trkpt lat="45.63838" lon="5.09469">
        <ele>257</ele>
        <time>2016-07-12T11:37:36Z</time>
      </trkpt>
      <trkpt lat="45.63835" lon="5.09469">
        <ele>258</ele>
        <time>2016-07-12T11:39:36Z</time>
      </trkpt>
      <trkpt lat="45.63832" lon="5.09469">
        <ele>258</ele>
        <time>2016-07-12T11:41:36Z</time>
      </trkpt>
      <trkpt lat="45.63829" lon="5.0947">
        <ele>258</ele>
        <time>2016-07-12T11:43:36Z</time>
      </trkpt>
      <trkpt lat="45.63826" lon="5.09471">
        <ele>258</ele>
        <time>2016-07-12T11:45:36Z</time>
      </trkpt>
      <trkpt lat="45.63823" lon="5.09473">
        <ele>258</ele>
        <time>2016-07-12T11:47:36Z</time>
      </trkpt>
      <trkpt lat="45.63818" lon="5.09477">
        <ele>258</ele>
        <time>2016-07-12T11:49:36Z</time>
      </trkpt>
      <trkpt lat="45.63816" lon="5.0948">
        <ele>258</ele>
        <time>2016-07-12T11:51:36Z</time>
      </trkpt>
      <trkpt lat="45.63814" lon="5.09483">
        <ele>258</ele>
        <time>2016-07-12T11:53:36Z</time>
      </trkpt>
      <trkpt lat="45.63812" lon="5.09486">
        <ele>257</ele>
        <time>2016-07-12T11:55:36Z</time>
      </trkpt>
      <trkpt lat="45.63811" lon="5.0949">
        <ele>257</ele>
        <time>2016-07-12T11:57:36Z</time>
      </trkpt>
      <trkpt lat="45.6381" lon="5.09494">
        <ele>257</ele>
        <time>2016-07-12T11:59:36Z</time>
      </trkpt>
      <trkpt lat="45.63809" lon="5.09498">
        <ele>256</ele>
        <time>2016-07-12T12:01:36Z</time>
      </trkpt>
      <trkpt lat="45.63808" lon="5.09503">
        <ele>256</ele>
        <time>2016-07-12T12:03:36Z</time>
      </trkpt>
      <trkpt lat="45.63808" lon="5.0951">
        <ele>256</ele>
        <time>2016-07-12T12:05:36Z</time>
      </trkpt>
      <trkpt lat="45.63809" lon="5.09512">
        <ele>256</ele>
        <time>2016-07-12T12:07:36Z</time>
      </trkpt>
      <trkpt lat="45.63809" lon="5.09514">
        <ele>255</ele>
        <time>2016-07-12T12:09:36Z</time>
      </trkpt>
      <trkpt lat="45.63809" lon="5.09516">
        <ele>255</ele>
        <time>2016-07-12T12:11:36Z</time>
      </trkpt>
      <trkpt lat="45.63809" lon="5.09518">
        <ele>255</ele>
        <time>2016-07-12T12:13:36Z</time>
      </trkpt>
      <trkpt lat="45.6381" lon="5.09519">
        <ele>255</ele>
        <time>2016-07-12T12:15:36Z</time>
      </trkpt>
      <trkpt lat="45.6381" lon="5.09521">
        <ele>255</ele>
        <time>2016-07-12T12:17:36Z</time>
      </trkpt>
      <trkpt lat="45.63811" lon="5.09523">
        <ele>255</ele>
        <time>2016-07-12T12:19:36Z</time>
      </trkpt>
      <trkpt lat="45.63811" lon="5.09525">
        <ele>255</ele>
        <time>2016-07-12T12:21:36Z</time>
      </trkpt>
      <trkpt lat="45.63813" lon="5.09527">
        <ele>255</ele>
        <time>2016-07-12T12:23:36Z</time>
      </trkpt>
      <trkpt lat="45.63814" lon="5.0953">
        <ele>254</ele>
        <time>2016-07-12T12:25:36Z</time>
      </trkpt>
      <trkpt lat="45.63815" lon="5.09533">
        <ele>254</ele>
        <time>2016-07-12T12:27:36Z</time>
      </trkpt>
      <trkpt lat="45.63817" lon="5.09535">
        <ele>254</ele>
        <time>2016-07-12T12:29:36Z</time>
      </trkpt>
      <trkpt lat="45.63819" lon="5.09537">
        <ele>254</ele>
        <time>2016-07-12T12:31:36Z</time>
      </trkpt>
      <trkpt lat="45.6382" lon="5.09539">
        <ele>253</ele>
        <time>2016-07-12T12:33:36Z</time>
      </trkpt>
      <trkpt lat="45.63822" lon="5.0954">
        <ele>253</ele>
        <time>2016-07-12T12:35:36Z</time>
      </trkpt>
      <trkpt lat="45.63824" lon="5.09542">
        <ele>253</ele>
        <time>2016-07-12T12:37:36Z</time>
      </trkpt>
      <trkpt lat="45.63825" lon="5.09542">
        <ele>253</ele>
        <time>2016-07-12T12:39:36Z</time>
      </trkpt>
      <trkpt lat="45.63827" lon="5.09543">
        <ele>253</ele>
        <time>2016-07-12T12:41:36Z</time>
      </trkpt>
      <trkpt lat="45.63828" lon="5.09543">
        <ele>253</ele>
        <time>2016-07-12T12:43:36Z</time>
      </trkpt>
      <trkpt lat="45.63829" lon="5.09544">
        <ele>252</ele>
        <time>2016-07-12T12:45:36Z</time>
      </trkpt>
      <trkpt lat="45.6383" lon="5.09544">
        <ele>252</ele>
        <time>2016-07-12T12:47:36Z</time>
      </trkpt>
      <trkpt lat="45.63831" lon="5.09544">
        <ele>252</ele>
        <time>2016-07-12T12:49:36Z</time>
      </trkpt>
      <trkpt lat="45.63832" lon="5.09544">
        <ele>252</ele>
        <time>2016-07-12T12:51:36Z</time>
      </trkpt>
      <trkpt lat="45.63833" lon="5.09544">
        <ele>252</ele>
        <time>2016-07-12T12:53:36Z</time>
      </trkpt>
      <trkpt lat="45.63839" lon="5.09553">
        <ele>252</ele>
        <time>2016-07-12T12:55:36Z</time>
      </trkpt>
      <trkpt lat="45.63842" lon="5.09559">
        <ele>251</ele>
        <time>2016-07-12T12:57:36Z</time>
      </trkpt>
      <trkpt lat="45.63845" lon="5.09564">
        <ele>251</ele>
        <time>2016-07-12T12:59:36Z</time>
      </trkpt>
      <trkpt lat="45.63846" lon="5.09569">
        <ele>251</ele>
        <time>2016-07-12T13:01:36Z</time>
      </trkpt>
      <trkpt lat="45.63849" lon="5.09577">
        <ele>251</ele>
        <time>2016-07-12T13:03:36Z</time>
      </trkpt>
      <trkpt lat="45.63851" lon="5.09584">
        <ele>251</ele>
        <time>2016-07-12T13:05:36Z</time>
      </trkpt>
      <trkpt lat="45.63853" lon="5.0959">
        <ele>251</ele>
        <time>2016-07-12T13:07:36Z</time>
      </trkpt>
      <trkpt lat="45.63856" lon="5.09594">
        <ele>251</ele>
        <time>2016-07-12T13:09:36Z</time>
      </trkpt>
      <trkpt lat="45.63858" lon="5.09597">
        <ele>251</ele>
        <time>2016-07-12T13:11:36Z</time>
      </trkpt>
      <trkpt lat="45.63859" lon="5.09598">
        <ele>251</ele>
        <time>2016-07-12T13:13:36Z</time>
      </trkpt>
      <trkpt lat="45.6386" lon="5.09599">
        <ele>251</ele>
        <time>2016-07-12T13:15:36Z</time>
      </trkpt>
      <trkpt lat="45.63863" lon="5.09601">
        <ele>251</ele>
        <time>2016-07-12T13:17:36Z</time>
      </trkpt>
      <trkpt lat="45.63865" lon="5.09604">
        <ele>251</ele>
        <time>2016-07-12T13:19:36Z</time>
      </trkpt>
      <trkpt lat="45.63868" lon="5.09608">
        <ele>251</ele>
        <time>2016-07-12T13:21:36Z</time>
      </trkpt>
      <trkpt lat="45.63892" lon="5.09639">
        <ele>252</ele>
        <time>2016-07-12T13:23:36Z</time>
      </trkpt>
      <trkpt lat="45.63911" lon="5.09662">
        <ele>253</ele>
        <time>2016-07-12T13:25:36Z</time>
      </trkpt>
      <trkpt lat="45.6392" lon="5.09674">
        <ele>253</ele>
        <time>2016-07-12T13:27:36Z</time>
      </trkpt>
      <trkpt lat="45.63926" lon="5.09681">
        <ele>253</ele>
        <time>2016-07-12T13:29:36Z</time>
      </trkpt>
      <trkpt lat="45.63929" lon="5.09685">
        <ele>252</ele>
        <time>2016-07-12T13:31:36Z</time>
      </trkpt>
      <trkpt lat="45.63934" lon="5.09695">
        <ele>252</ele>
        <time>2016-07-12T13:33:36Z</time>
      </trkpt>
      <trkpt lat="45.63937" lon="5.09699">
        <ele>252</ele>
        <time>2016-07-12T13:35:36Z</time>
      </trkpt>
      <trkpt lat="45.6394" lon="5.09705">
        <ele>252</ele>
        <time>2016-07-12T13:37:36Z</time>
      </trkpt>
      <trkpt lat="45.63942" lon="5.0971">
        <ele>252</ele>
        <time>2016-07-12T13:39:36Z</time>
      </trkpt>
      <trkpt lat="45.63944" lon="5.09713">
        <ele>251</ele>
        <time>2016-07-12T13:41:36Z</time>
      </trkpt>
      <trkpt lat="45.63946" lon="5.09718">
        <ele>251</ele>
        <time>2016-07-12T13:43:36Z</time>
      </trkpt>
      <trkpt lat="45.63948" lon="5.09722">
        <ele>251</ele>
        <time>2016-07-12T13:45:36Z</time>
      </trkpt>
      <trkpt lat="45.6395" lon="5.09727">
        <ele>251</ele>
        <time>2016-07-12T13:47:36Z</time>
      </trkpt>
      <trkpt lat="45.63951" lon="5.09731">
        <ele>251</ele>
        <time>2016-07-12T13:49:36Z</time>
      </trkpt>
      <trkpt lat="45.63954" lon="5.09741">
        <ele>250</ele>
        <time>2016-07-12T13:51:36Z</time>
      </trkpt>
      <trkpt lat="45.63975" lon="5.09811">
        <ele>249</ele>
        <time>2016-07-12T13:53:36Z</time>
      </trkpt>
      <trkpt lat="45.63978" lon="5.0982">
        <ele>248</ele>
        <time>2016-07-12T13:55:36Z</time>
      </trkpt>
      <trkpt lat="45.6398" lon="5.09826">
        <ele>248</ele>
        <time>2016-07-12T13:57:36Z</time>
      </trkpt>
      <trkpt lat="45.63982" lon="5.09833">
        <ele>248</ele>
        <time>2016-07-12T13:59:36Z</time>
      </trkpt>
      <trkpt lat="45.63986" lon="5.09843">
        <ele>248</ele>
        <time>2016-07-12T14:01:36Z</time>
      </trkpt>
      <trkpt lat="45.6399" lon="5.09852">
        <ele>249</ele>
        <time>2016-07-12T14:03:36Z</time>
      </trkpt>
      <trkpt lat="45.63993" lon="5.09858">
        <ele>249</ele>
        <time>2016-07-12T14:05:36Z</time>
      </trkpt>
      <trkpt lat="45.63998" lon="5.09868">
        <ele>249</ele>
        <time>2016-07-12T14:07:36Z</time>
      </trkpt>
      <trkpt lat="45.64018" lon="5.09906">
        <ele>250</ele>
        <time>2016-07-12T14:09:36Z</time>
      </trkpt>
      <trkpt lat="45.64031" lon="5.09928">
        <ele>249</ele>
        <time>2016-07-12T14:11:36Z</time>
      </trkpt>
      <trkpt lat="45.64032" lon="5.09928">
        <ele>249</ele>
        <time>2016-07-12T14:13:36Z</time>
      </trkpt>
      <trkpt lat="45.64117" lon="5.10066">
        <ele>249</ele>
        <time>2016-07-12T14:15:36Z</time>
      </trkpt>
      <trkpt lat="45.64136" lon="5.10096">
        <ele>248</ele>
        <time>2016-07-12T14:17:36Z</time>
      </trkpt>
      <trkpt lat="45.64139" lon="5.10101">
        <ele>248</ele>
        <time>2016-07-12T14:19:36Z</time>
      </trkpt>
      <trkpt lat="45.64146" lon="5.10111">
        <ele>247</ele>
        <time>2016-07-12T14:21:36Z</time>
      </trkpt>
      <trkpt lat="45.6415" lon="5.10118">
        <ele>247</ele>
        <time>2016-07-12T14:23:36Z</time>
      </trkpt>
      <trkpt lat="45.64165" lon="5.10142">
        <ele>246</ele>
        <time>2016-07-12T14:25:36Z</time>
      </trkpt>
      <trkpt lat="45.64195" lon="5.1019">
        <ele>245</ele>
        <time>2016-07-12T14:27:36Z</time>
      </trkpt>
      <trkpt lat="45.64245" lon="5.1027">
        <ele>242</ele>
        <time>2016-07-12T14:29:36Z</time>
      </trkpt>
      <trkpt lat="45.64291" lon="5.10344">
        <ele>242</ele>
        <time>2016-07-12T14:31:36Z</time>
      </trkpt>
      <trkpt lat="45.64294" lon="5.10351">
        <ele>242</ele>
        <time>2016-07-12T14:33:36Z</time>
      </trkpt>
      <trkpt lat="45.64306" lon="5.10373">
        <ele>242</ele>
        <time>2016-07-12T14:35:36Z</time>
      </trkpt>
      <trkpt lat="45.64319" lon="5.10394">
        <ele>242</ele>
        <time>2016-07-12T14:37:36Z</time>
      </trkpt>
      <trkpt lat="45.64326" lon="5.10406">
        <ele>242</ele>
        <time>2016-07-12T14:39:36Z</time>
      </trkpt>
      <trkpt lat="45.64335" lon="5.10419">
        <ele>242</ele>
        <time>2016-07-12T14:41:36Z</time>
      </trkpt>
      <trkpt lat="45.64337" lon="5.10422">
        <ele>242</ele>
        <time>2016-07-12T14:43:36Z</time>
      </trkpt>
      <trkpt lat="45.64359" lon="5.10458">
        <ele>243</ele>
        <time>2016-07-12T14:45:36Z</time>
      </trkpt>
      <trkpt lat="45.64363" lon="5.10465">
        <ele>243</ele>
        <time>2016-07-12T14:47:36Z</time>
      </trkpt>
      <trkpt lat="45.64366" lon="5.10474">
        <ele>243</ele>
        <time>2016-07-12T14:49:36Z</time>
      </trkpt>
      <trkpt lat="45.64366" lon="5.10474">
        <ele>243</ele>
        <time>2016-07-12T14:51:36Z</time>
      </trkpt>
      <trkpt lat="45.64366" lon="5.10476">
        <ele>243</ele>
        <time>2016-07-12T14:53:36Z</time>
      </trkpt>
      <trkpt lat="45.64365" lon="5.10478">
        <ele>243</ele>
        <time>2016-07-12T14:55:36Z</time>
      </trkpt>
      <trkpt lat="45.64365" lon="5.10479">
        <ele>243</ele>
        <time>2016-07-12T14:57:36Z</time>
      </trkpt>
      <trkpt lat="45.64365" lon="5.10481">
        <ele>243</ele>
        <time>2016-07-12T14:59:36Z</time>
      </trkpt>
      <trkpt lat="45.64365" lon="5.10483">
        <ele>244</ele>
        <time>2016-07-12T15:01:36Z</time>
      </trkpt>
      <trkpt lat="45.64365" lon="5.10485">
        <ele>244</ele>
        <time>2016-07-12T15:03:36Z</time>
      </trkpt>
      <trkpt lat="45.64365" lon="5.10487">
        <ele>244</ele>
        <time>2016-07-12T15:05:36Z</time>
      </trkpt>
      <trkpt lat="45.64365" lon="5.10488">
        <ele>244</ele>
        <time>2016-07-12T15:07:36Z</time>
      </trkpt>
      <trkpt lat="45.64365" lon="5.1049">
        <ele>244</ele>
        <time>2016-07-12T15:09:36Z</time>
      </trkpt>
      <trkpt lat="45.64365" lon="5.10492">
        <ele>244</ele>
        <time>2016-07-12T15:11:36Z</time>
      </trkpt>
      <trkpt lat="45.64366" lon="5.10494">
        <ele>244</ele>
        <time>2016-07-12T15:13:36Z</time>
      </trkpt>
      <trkpt lat="45.64366" lon="5.10496">
        <ele>244</ele>
        <time>2016-07-12T15:15:36Z</time>
      </trkpt>
      <trkpt lat="45.64367" lon="5.10498">
        <ele>244</ele>
        <time>2016-07-12T15:17:36Z</time>
      </trkpt>
      <trkpt lat="45.64368" lon="5.105">
        <ele>244</ele>
        <time>2016-07-12T15:19:36Z</time>
      </trkpt>
      <trkpt lat="45.64368" lon="5.10501">
        <ele>244</ele>
        <time>2016-07-12T15:21:36Z</time>
      </trkpt>
      <trkpt lat="45.64369" lon="5.10503">
        <ele>244</ele>
        <time>2016-07-12T15:23:36Z</time>
      </trkpt>
      <trkpt lat="45.6437" lon="5.10504">
        <ele>244</ele>
        <time>2016-07-12T15:25:36Z</time>
      </trkpt>
      <trkpt lat="45.64372" lon="5.10506">
        <ele>244</ele>
        <time>2016-07-12T15:27:36Z</time>
      </trkpt>
      <trkpt lat="45.6436" lon="5.10513">
        <ele>244</ele>
        <time>2016-07-12T15:29:36Z</time>
      </trkpt>
      <trkpt lat="45.64349" lon="5.10522">
        <ele>245</ele>
        <time>2016-07-12T15:31:36Z</time>
      </trkpt>
      <trkpt lat="45.64329" lon="5.10538">
        <ele>245</ele>
        <time>2016-07-12T15:33:36Z</time>
      </trkpt>
      <trkpt lat="45.64259" lon="5.10597">
        <ele>241</ele>
        <time>2016-07-12T15:35:36Z</time>
      </trkpt>
      <trkpt lat="45.64236" lon="5.10616">
        <ele>242</ele>
        <time>2016-07-12T15:37:36Z</time>
      </trkpt>
      <trkpt lat="45.6423" lon="5.10622">
        <ele>242</ele>
        <time>2016-07-12T15:39:36Z</time>
      </trkpt>
      <trkpt lat="45.64194" lon="5.10651">
        <ele>243</ele>
        <time>2016-07-12T15:41:36Z</time>
      </trkpt>
      <trkpt lat="45.64181" lon="5.10662">
        <ele>243</ele>
        <time>2016-07-12T15:43:36Z</time>
      </trkpt>
      <trkpt lat="45.64162" lon="5.10678">
        <ele>243</ele>
        <time>2016-07-12T15:45:36Z</time>
      </trkpt>
      <trkpt lat="45.64137" lon="5.10698">
        <ele>243</ele>
        <time>2016-07-12T15:47:36Z</time>
      </trkpt>
      <trkpt lat="45.64123" lon="5.10712">
        <ele>244</ele>
        <time>2016-07-12T15:49:36Z</time>
      </trkpt>
      <trkpt lat="45.64107" lon="5.10729">
        <ele>244</ele>
        <time>2016-07-12T15:51:36Z</time>
      </trkpt>
      <trkpt lat="45.64089" lon="5.1075">
        <ele>244</ele>
        <time>2016-07-12T15:53:36Z</time>
      </trkpt>
      <trkpt lat="45.64073" lon="5.10772">
        <ele>243</ele>
        <time>2016-07-12T15:55:36Z</time>
      </trkpt>
      <trkpt lat="45.64057" lon="5.10794">
        <ele>243</ele>
        <time>2016-07-12T15:57:36Z</time>
      </trkpt>
      <trkpt lat="45.64037" lon="5.10829">
        <ele>242</ele>
        <time>2016-07-12T15:59:36Z</time>
      </trkpt>
      <trkpt lat="45.64022" lon="5.10858">
        <ele>241</ele>
        <time>2016-07-12T16:01:36Z</time>
      </trkpt>
      <trkpt lat="45.64015" lon="5.10875">
        <ele>241</ele>
        <time>2016-07-12T16:03:36Z</time>
      </trkpt>
      <trkpt lat="45.64007" lon="5.10893">
        <ele>241</ele>
        <time>2016-07-12T16:05:36Z</time>
      </trkpt>
      <trkpt lat="45.64" lon="5.10912">
        <ele>240</ele>
        <time>2016-07-12T16:07:36Z</time>
      </trkpt>
      <trkpt lat="45.63998" lon="5.10918">
        <ele>240</ele>
        <time>2016-07-12T16:09:36Z</time>
      </trkpt>
      <trkpt lat="45.63997" lon="5.10924">
        <ele>240</ele>
        <time>2016-07-12T16:11:36Z</time>
      </trkpt>
      <trkpt lat="45.63997" lon="5.10924">
        <ele>240</ele>
        <time>2016-07-12T16:13:36Z</time>
      </trkpt>
      <trkpt lat="45.63986" lon="5.10914">
        <ele>240</ele>
        <time>2016-07-12T16:15:36Z</time>
      </trkpt>
      <trkpt lat="45.63986" lon="5.10914">
        <ele>240</ele>
        <time>2016-07-12T16:17:36Z</time>
      </trkpt>
      <trkpt lat="45.63982" lon="5.10927">
        <ele>240</ele>
        <time>2016-07-12T16:19:36Z</time>
      </trkpt>
      <trkpt lat="45.63993" lon="5.10937">
        <ele>239</ele>
        <time>2016-07-12T16:21:36Z</time>
      </trkpt>
      <trkpt lat="45.63998" lon="5.10945">
        <ele>239</ele>
        <time>2016-07-12T16:23:36Z</time>
      </trkpt>
      <trkpt lat="45.63998" lon="5.10945">
        <ele>239</ele>
        <time>2016-07-12T16:25:36Z</time>
      </trkpt>
      <trkpt lat="45.63995" lon="5.1096">
        <ele>239</ele>
        <time>2016-07-12T16:27:36Z</time>
      </trkpt>
      <trkpt lat="45.63993" lon="5.10964">
        <ele>239</ele>
        <time>2016-07-12T16:29:36Z</time>
      </trkpt>
      <trkpt lat="45.63993" lon="5.10973">
        <ele>238</ele>
        <time>2016-07-12T16:31:36Z</time>
      </trkpt>
      <trkpt lat="45.63994" lon="5.10989">
        <ele>238</ele>
        <time>2016-07-12T16:33:36Z</time>
      </trkpt>
      <trkpt lat="45.63992" lon="5.10996">
        <ele>238</ele>
        <time>2016-07-12T16:35:36Z</time>
      </trkpt>
      <trkpt lat="45.6399" lon="5.11008">
        <ele>237</ele>
        <time>2016-07-12T16:37:36Z</time>
      </trkpt>
      <trkpt lat="45.63986" lon="5.11022">
        <ele>237</ele>
        <time>2016-07-12T16:39:36Z</time>
      </trkpt>
      <trkpt lat="45.6398" lon="5.11039">
        <ele>237</ele>
        <time>2016-07-12T16:41:36Z</time>
      </trkpt>
      <trkpt lat="45.63977" lon="5.11052">
        <ele>237</ele>
        <time>2016-07-12T16:43:36Z</time>
      </trkpt>
      <trkpt lat="45.63976" lon="5.11064">
        <ele>237</ele>
        <time>2016-07-12T16:45:36Z</time>
      </trkpt>
      <trkpt lat="45.63974" lon="5.11079">
        <ele>236</ele>
        <time>2016-07-12T16:47:36Z</time>
      </trkpt>
      <trkpt lat="45.63973" lon="5.11105">
        <ele>236</ele>
        <time>2016-07-12T16:49:36Z</time>
      </trkpt>
      <trkpt lat="45.63975" lon="5.1121">
        <ele>233</ele>
        <time>2016-07-12T16:51:36Z</time>
      </trkpt>
      <trkpt lat="45.63985" lon="5.11397">
        <ele>233</ele>
        <time>2016-07-12T16:53:36Z</time>
      </trkpt>
      <trkpt lat="45.63989" lon="5.11436">
        <ele>234</ele>
        <time>2016-07-12T16:55:36Z</time>
      </trkpt>
      <trkpt lat="45.6399" lon="5.11461">
        <ele>233</ele>
        <time>2016-07-12T16:57:36Z</time>
      </trkpt>
      <trkpt lat="45.63991" lon="5.11466">
        <ele>233</ele>
        <time>2016-07-12T16:59:36Z</time>
      </trkpt>
      <trkpt lat="45.63992" lon="5.1147">
        <ele>232</ele>
        <time>2016-07-12T17:01:36Z</time>
      </trkpt>
      <trkpt lat="45.63993" lon="5.11474">
        <ele>232</ele>
        <time>2016-07-12T17:03:36Z</time>
      </trkpt>
      <trkpt lat="45.63993" lon="5.11477">
        <ele>232</ele>
        <time>2016-07-12T17:05:36Z</time>
      </trkpt>
      <trkpt lat="45.63992" lon="5.1148">
        <ele>232</ele>
        <time>2016-07-12T17:07:36Z</time>
      </trkpt>
      <trkpt lat="45.63991" lon="5.11483">
        <ele>232</ele>
        <time>2016-07-12T17:09:36Z</time>
      </trkpt>
      <trkpt lat="45.6399" lon="5.11495">
        <ele>232</ele>
        <time>2016-07-12T17:11:36Z</time>
      </trkpt>
      <trkpt lat="45.6399" lon="5.11507">
        <ele>231</ele>
        <time>2016-07-12T17:13:36Z</time>
      </trkpt>
      <trkpt lat="45.63994" lon="5.11522">
        <ele>231</ele>
        <time>2016-07-12T17:15:36Z</time>
      </trkpt>
      <trkpt lat="45.63998" lon="5.11528">
        <ele>231</ele>
        <time>2016-07-12T17:17:36Z</time>
      </trkpt>
      <trkpt lat="45.63998" lon="5.11531">
        <ele>231</ele>
        <time>2016-07-12T17:19:36Z</time>
      </trkpt>
      <trkpt lat="45.63999" lon="5.11533">
        <ele>231</ele>
        <time>2016-07-12T17:21:36Z</time>
      </trkpt>
      <trkpt lat="45.63999" lon="5.11535">
        <ele>231</ele>
        <time>2016-07-12T17:23:36Z</time>
      </trkpt>
      <trkpt lat="45.63999" lon="5.1154">
        <ele>231</ele>
        <time>2016-07-12T17:25:36Z</time>
      </trkpt>
      <trkpt lat="45.63999" lon="5.11655">
        <ele>230</ele>
        <time>2016-07-12T17:27:36Z</time>
      </trkpt>
      <trkpt lat="45.63999" lon="5.1169">
        <ele>230</ele>
        <time>2016-07-12T17:29:36Z</time>
      </trkpt>
      <trkpt lat="45.64004" lon="5.11768">
        <ele>229</ele>
        <time>2016-07-12T17:31:36Z</time>
      </trkpt>
      <trkpt lat="45.64011" lon="5.1191">
        <ele>227</ele>
        <time>2016-07-12T17:33:36Z</time>
      </trkpt>
      <trkpt lat="45.64013" lon="5.1194">
        <ele>227</ele>
        <time>2016-07-12T17:35:36Z</time>
      </trkpt>
      <trkpt lat="45.64013" lon="5.11947">
        <ele>227</ele>
        <time>2016-07-12T17:37:36Z</time>
      </trkpt>
      <trkpt lat="45.64018" lon="5.11996">
        <ele>227</ele>
        <time>2016-07-12T17:39:36Z</time>
      </trkpt>
      <trkpt lat="45.64022" lon="5.12029">
        <ele>227</ele>
        <time>2016-07-12T17:41:36Z</time>
      </trkpt>
      <trkpt lat="45.64038" lon="5.12105">
        <ele>226</ele>
        <time>2016-07-12T17:43:36Z</time>
      </trkpt>
      <trkpt lat="45.64044" lon="5.1214">
        <ele>226</ele>
        <time>2016-07-12T17:45:36Z</time>
      </trkpt>
      <trkpt lat="45.64066" lon="5.12314">
        <ele>225</ele>
        <time>2016-07-12T17:47:36Z</time>
      </trkpt>
      <trkpt lat="45.6408" lon="5.12407">
        <ele>223</ele>
        <time>2016-07-12T17:49:36Z</time>
      </trkpt>
      <trkpt lat="45.64087" lon="5.1245">
        <ele>223</ele>
        <time>2016-07-12T17:51:36Z</time>
      </trkpt>
      <trkpt lat="45.64094" lon="5.12506">
        <ele>222</ele>
        <time>2016-07-12T17:53:36Z</time>
      </trkpt>
      <trkpt lat="45.64113" lon="5.12619">
        <ele>221</ele>
        <time>2016-07-12T17:55:36Z</time>
      </trkpt>
      <trkpt lat="45.6412" lon="5.12667">
        <ele>220</ele>
        <time>2016-07-12T17:57:36Z</time>
      </trkpt>
      <trkpt lat="45.64137" lon="5.12784">
        <ele>220</ele>
        <time>2016-07-12T17:59:36Z</time>
      </trkpt>
      <trkpt lat="45.64144" lon="5.12821">
        <ele>220</ele>
        <time>2016-07-12T18:01:36Z</time>
      </trkpt>
      <trkpt lat="45.64152" lon="5.12854">
        <ele>220</ele>
        <time>2016-07-12T18:03:36Z</time>
      </trkpt>
      <trkpt lat="45.64162" lon="5.1289">
        <ele>219</ele>
        <time>2016-07-12T18:05:36Z</time>
      </trkpt>
      <trkpt lat="45.64174" lon="5.12925">
        <ele>219</ele>
        <time>2016-07-12T18:07:36Z</time>
      </trkpt>
      <trkpt lat="45.6419" lon="5.12968">
        <ele>219</ele>
        <time>2016-07-12T18:09:36Z</time>
      </trkpt>
      <trkpt lat="45.64203" lon="5.12995">
        <ele>218</ele>
        <time>2016-07-12T18:11:36Z</time>
      </trkpt>
      <trkpt lat="45.64203" lon="5.12995">
        <ele>218</ele>
        <time>2016-07-12T18:13:36Z</time>
      </trkpt>
      <trkpt lat="45.64202" lon="5.12996">
        <ele>218</ele>
        <time>2016-07-12T18:15:36Z</time>
      </trkpt>
      <trkpt lat="45.64182" lon="5.13002">
        <ele>219</ele>
        <time>2016-07-12T18:17:36Z</time>
      </trkpt>
      <trkpt lat="45.64179" lon="5.13003">
        <ele>219</ele>
        <time>2016-07-12T18:19:36Z</time>
      </trkpt>
      <trkpt lat="45.64176" lon="5.13004">
        <ele>219</ele>
        <time>2016-07-12T18:21:36Z</time>
      </trkpt>
      <trkpt lat="45.64176" lon="5.13004">
        <ele>219</ele>
        <time>2016-07-12T18:23:36Z</time>
      </trkpt>
      <trkpt lat="45.64207" lon="5.13059">
        <ele>216</ele>
        <time>2016-07-12T18:25:36Z</time>
      </trkpt>
      <trkpt lat="45.64241" lon="5.13107">
        <ele>216</ele>
        <time>2016-07-12T18:27:36Z</time>
      </trkpt>
      <trkpt lat="45.64269" lon="5.1314">
        <ele>216</ele>
        <time>2016-07-12T18:29:36Z</time>
      </trkpt>
      <trkpt lat="45.64306" lon="5.13183">
        <ele>216</ele>
        <time>2016-07-12T18:31:36Z</time>
      </trkpt>
      <trkpt lat="45.64307" lon="5.13184">
        <ele>216</ele>
        <time>2016-07-12T18:33:36Z</time>
      </trkpt>
      <trkpt lat="45.64318" lon="5.13198">
        <ele>216</ele>
        <time>2016-07-12T18:35:36Z</time>
      </trkpt>
      <trkpt lat="45.64324" lon="5.13208">
        <ele>216</ele>
        <time>2016-07-12T18:37:36Z</time>
      </trkpt>
      <trkpt lat="45.6434" lon="5.13233">
        <ele>216</ele>
        <time>2016-07-12T18:39:36Z</time>
      </trkpt>
      <trkpt lat="45.6435" lon="5.13245">
        <ele>215</ele>
        <time>2016-07-12T18:41:36Z</time>
      </trkpt>
      <trkpt lat="45.64361" lon="5.13253">
        <ele>215</ele>
        <time>2016-07-12T18:43:36Z</time>
      </trkpt>
      <trkpt lat="45.64371" lon="5.13263">
        <ele>214</ele>
        <time>2016-07-12T18:45:36Z</time>
      </trkpt>
      <trkpt lat="45.64376" lon="5.1327">
        <ele>214</ele>
        <time>2016-07-12T18:47:36Z</time>
      </trkpt>
      <trkpt lat="45.6438" lon="5.13282">
        <ele>214</ele>
        <time>2016-07-12T18:49:36Z</time>
      </trkpt>
      <trkpt lat="45.6438" lon="5.13295">
        <ele>214</ele>
        <time>2016-07-12T18:51:36Z</time>
      </trkpt>
      <trkpt lat="45.64384" lon="5.13308">
        <ele>214</ele>
        <time>2016-07-12T18:53:36Z</time>
      </trkpt>
      <trkpt lat="45.64388" lon="5.13312">
        <ele>214</ele>
        <time>2016-07-12T18:55:36Z</time>
      </trkpt>
      <trkpt lat="45.64394" lon="5.13316">
        <ele>213</ele>
        <time>2016-07-12T18:57:36Z</time>
      </trkpt>
      <trkpt lat="45.64396" lon="5.13317">
        <ele>213</ele>
        <time>2016-07-12T18:59:36Z</time>
      </trkpt>
      <trkpt lat="45.64399" lon="5.13317">
        <ele>213</ele>
        <time>2016-07-12T19:01:36Z</time>
      </trkpt>
      <trkpt lat="45.64403" lon="5.13317">
        <ele>213</ele>
        <time>2016-07-12T19:03:36Z</time>
      </trkpt>
      <trkpt lat="45.64414" lon="5.13319">
        <ele>213</ele>
        <time>2016-07-12T19:05:36Z</time>
      </trkpt>
      <trkpt lat="45.64423" lon="5.13321">
        <ele>213</ele>
        <time>2016-07-12T19:07:36Z</time>
      </trkpt>
      <trkpt lat="45.64444" lon="5.13338">
        <ele>213</ele>
        <time>2016-07-12T19:09:36Z</time>
      </trkpt>
      <trkpt lat="45.64449" lon="5.13343">
        <ele>213</ele>
        <time>2016-07-12T19:11:36Z</time>
      </trkpt>
      <trkpt lat="45.64473" lon="5.1337">
        <ele>213</ele>
        <time>2016-07-12T19:13:36Z</time>
      </trkpt>
      <trkpt lat="45.64518" lon="5.13422">
        <ele>213</ele>
        <time>2016-07-12T19:15:36Z</time>
      </trkpt>
      <trkpt lat="45.64526" lon="5.1343">
        <ele>213</ele>
        <time>2016-07-12T19:17:36Z</time>
      </trkpt>
      <trkpt lat="45.64534" lon="5.1344">
        <ele>214</ele>
        <time>2016-07-12T19:19:36Z</time>
      </trkpt>
      <trkpt lat="45.64538" lon="5.13445">
        <ele>214</ele>
        <time>2016-07-12T19:21:36Z</time>
      </trkpt>
      <trkpt lat="45.64554" lon="5.13465">
        <ele>214</ele>
        <time>2016-07-12T19:23:36Z</time>
      </trkpt>
      <trkpt lat="45.64555" lon="5.13465">
        <ele>214</ele>
        <time>2016-07-12T19:25:36Z</time>
      </trkpt>
      <trkpt lat="45.64568" lon="5.1348">
        <ele>215</ele>
        <time>2016-07-12T19:27:36Z</time>
      </trkpt>
      <trkpt lat="45.64584" lon="5.13499">
        <ele>217</ele>
        <time>2016-07-12T19:29:36Z</time>
      </trkpt>
      <trkpt lat="45.64596" lon="5.13512">
        <ele>216</ele>
        <time>2016-07-12T19:31:36Z</time>
      </trkpt>
      <trkpt lat="45.6461" lon="5.13524">
        <ele>215</ele>
        <time>2016-07-12T19:33:36Z</time>
      </trkpt>
      <trkpt lat="45.6461" lon="5.13524">
        <ele>215</ele>
        <time>2016-07-12T19:35:36Z</time>
      </trkpt>
      <trkpt lat="45.64602" lon="5.1355">
        <ele>214</ele>
        <time>2016-07-12T19:37:36Z</time>
      </trkpt>
      <trkpt lat="45.64585" lon="5.13597">
        <ele>214</ele>
        <time>2016-07-12T19:39:36Z</time>
      </trkpt>
      <trkpt lat="45.64581" lon="5.13613">
        <ele>214</ele>
        <time>2016-07-12T19:41:36Z</time>
      </trkpt>
      <trkpt lat="45.64581" lon="5.13618">
        <ele>214</ele>
        <time>2016-07-12T19:43:36Z</time>
      </trkpt>
      <trkpt lat="45.64581" lon="5.13618">
        <ele>214</ele>
        <time>2016-07-12T19:45:36Z</time>
      </trkpt>
      <trkpt lat="45.6457" lon="5.13616">
        <ele>213</ele>
        <time>2016-07-12T19:47:36Z</time>
      </trkpt>
      <trkpt lat="45.6456" lon="5.13613">
        <ele>213</ele>
        <time>2016-07-12T19:49:36Z</time>
      </trkpt>
      <trkpt lat="45.6456" lon="5.13613">
        <ele>213</ele>
        <time>2016-07-12T19:51:36Z</time>
      </trkpt>
      <trkpt lat="45.64553" lon="5.13629">
        <ele>213</ele>
        <time>2016-07-12T19:53:36Z</time>
      </trkpt>
      <trkpt lat="45.64551" lon="5.13635">
        <ele>213</ele>
        <time>2016-07-12T19:55:36Z</time>
      </trkpt>
      <trkpt lat="45.6455" lon="5.13642">
        <ele>213</ele>
        <time>2016-07-12T19:57:36Z</time>
      </trkpt>
      <trkpt lat="45.64533" lon="5.13713">
        <ele>213</ele>
        <time>2016-07-12T19:59:36Z</time>
      </trkpt>
      <trkpt lat="45.64507" lon="5.1381">
        <ele>213</ele>
        <time>2016-07-12T20:01:36Z</time>
      </trkpt>
      <trkpt lat="45.64494" lon="5.13851">
        <ele>213</ele>
        <time>2016-07-12T20:03:36Z</time>
      </trkpt>
      <trkpt lat="45.64474" lon="5.13908">
        <ele>212</ele>
        <time>2016-07-12T20:05:36Z</time>
      </trkpt>
      <trkpt lat="45.64461" lon="5.13949">
        <ele>212</ele>
        <time>2016-07-12T20:07:36Z</time>
      </trkpt>
      <trkpt lat="45.64434" lon="5.14028">
        <ele>212</ele>
        <time>2016-07-12T20:09:36Z</time>
      </trkpt>
      <trkpt lat="45.64404" lon="5.14109">
        <ele>212</ele>
        <time>2016-07-12T20:11:36Z</time>
      </trkpt>
      <trkpt lat="45.64395" lon="5.14131">
        <ele>211</ele>
        <time>2016-07-12T20:13:36Z</time>
      </trkpt>
      <trkpt lat="45.6439" lon="5.14144">
        <ele>211</ele>
        <time>2016-07-12T20:15:36Z</time>
      </trkpt>
      <trkpt lat="45.64386" lon="5.1415">
        <ele>211</ele>
        <time>2016-07-12T20:17:36Z</time>
      </trkpt>
      <trkpt lat="45.64381" lon="5.14156">
        <ele>210</ele>
        <time>2016-07-12T20:19:36Z</time>
      </trkpt>
      <trkpt lat="45.64377" lon="5.14161">
        <ele>210</ele>
        <time>2016-07-12T20:21:36Z</time>
      </trkpt>
      <trkpt lat="45.64374" lon="5.14165">
        <ele>210</ele>
        <time>2016-07-12T20:23:36Z</time>
      </trkpt>
      <trkpt lat="45.64372" lon="5.14169">
        <ele>210</ele>
        <time>2016-07-12T20:25:36Z</time>
      </trkpt>
      <trkpt lat="45.64368" lon="5.14179">
        <ele>210</ele>
        <time>2016-07-12T20:27:36Z</time>
      </trkpt>
      <trkpt lat="45.64365" lon="5.14192">
        <ele>210</ele>
        <time>2016-07-12T20:29:36Z</time>
      </trkpt>
      <trkpt lat="45.64362" lon="5.14202">
        <ele>210</ele>
        <time>2016-07-12T20:31:36Z</time>
      </trkpt>
      <trkpt lat="45.6436" lon="5.14211">
        <ele>210</ele>
        <time>2016-07-12T20:33:36Z</time>
      </trkpt>
      <trkpt lat="45.64359" lon="5.14215">
        <ele>210</ele>
        <time>2016-07-12T20:35:36Z</time>
      </trkpt>
      <trkpt lat="45.64358" lon="5.14219">
        <ele>210</ele>
        <time>2016-07-12T20:37:36Z</time>
      </trkpt>
      <trkpt lat="45.64333" lon="5.14283">
        <ele>210</ele>
        <time>2016-07-12T20:39:36Z</time>
      </trkpt>
      <trkpt lat="45.64319" lon="5.14316">
        <ele>211</ele>
        <time>2016-07-12T20:41:36Z</time>
      </trkpt>
      <trkpt lat="45.64308" lon="5.14341">
        <ele>211</ele>
        <time>2016-07-12T20:43:36Z</time>
      </trkpt>
      <trkpt lat="45.64261" lon="5.14447">
        <ele>208</ele>
        <time>2016-07-12T20:45:36Z</time>
      </trkpt>
      <trkpt lat="45.64252" lon="5.14466">
        <ele>208</ele>
        <time>2016-07-12T20:47:36Z</time>
      </trkpt>
      <trkpt lat="45.64223" lon="5.14525">
        <ele>209</ele>
        <time>2016-07-12T20:49:36Z</time>
      </trkpt>
      <trkpt lat="45.64201" lon="5.14569">
        <ele>210</ele>
        <time>2016-07-12T20:51:36Z</time>
      </trkpt>
      <trkpt lat="45.64174" lon="5.1462">
        <ele>211</ele>
        <time>2016-07-12T20:53:36Z</time>
      </trkpt>
      <trkpt lat="45.64169" lon="5.1463">
        <ele>212</ele>
        <time>2016-07-12T20:55:36Z</time>
      </trkpt>
      <trkpt lat="45.64166" lon="5.14635">
        <ele>212</ele>
        <time>2016-07-12T20:57:36Z</time>
      </trkpt>
      <trkpt lat="45.64145" lon="5.14676">
        <ele>213</ele>
        <time>2016-07-12T20:59:36Z</time>
      </trkpt>
      <trkpt lat="45.64123" lon="5.14718">
        <ele>213</ele>
        <time>2016-07-12T21:01:36Z</time>
      </trkpt>
      <trkpt lat="45.64102" lon="5.1476">
        <ele>213</ele>
        <time>2016-07-12T21:03:36Z</time>
      </trkpt>
      <trkpt lat="45.64099" lon="5.1477">
        <ele>214</ele>
        <time>2016-07-12T21:05:36Z</time>
      </trkpt>
      <trkpt lat="45.64097" lon="5.1478">
        <ele>214</ele>
        <time>2016-07-12T21:07:36Z</time>
      </trkpt>
      <trkpt lat="45.64095" lon="5.14797">
        <ele>215</ele>
        <time>2016-07-12T21:09:36Z</time>
      </trkpt>
      <trkpt lat="45.64095" lon="5.14814">
        <ele>215</ele>
        <time>2016-07-12T21:11:36Z</time>
      </trkpt>
      <trkpt lat="45.64095" lon="5.14903">
        <ele>218</ele>
        <time>2016-07-12T21:13:36Z</time>
      </trkpt>
      <trkpt lat="45.64095" lon="5.14934">
        <ele>217</ele>
        <time>2016-07-12T21:15:36Z</time>
      </trkpt>
      <trkpt lat="45.64096" lon="5.14961">
        <ele>216</ele>
        <time>2016-07-12T21:17:36Z</time>
      </trkpt>
      <trkpt lat="45.64098" lon="5.14972">
        <ele>215</ele>
        <time>2016-07-12T21:19:36Z</time>
      </trkpt>
      <trkpt lat="45.64102" lon="5.14996">
        <ele>213</ele>
        <time>2016-07-12T21:21:36Z</time>
      </trkpt>
      <trkpt lat="45.64106" lon="5.15016">
        <ele>211</ele>
        <time>2016-07-12T21:23:36Z</time>
      </trkpt>
      <trkpt lat="45.64132" lon="5.15121">
        <ele>206</ele>
        <time>2016-07-12T21:25:36Z</time>
      </trkpt>
      <trkpt lat="45.64139" lon="5.15154">
        <ele>205</ele>
        <time>2016-07-12T21:27:36Z</time>
      </trkpt>
      <trkpt lat="45.6414" lon="5.15161">
        <ele>205</ele>
        <time>2016-07-12T21:29:36Z</time>
      </trkpt>
      <trkpt lat="45.6414" lon="5.15163">
        <ele>205</ele>
        <time>2016-07-12T21:31:36Z</time>
      </trkpt>
      <trkpt lat="45.6414" lon="5.15165">
        <ele>205</ele>
        <time>2016-07-12T21:33:36Z</time>
      </trkpt>
      <trkpt lat="45.64139" lon="5.15169">
        <ele>205</ele>
        <time>2016-07-12T21:35:36Z</time>
      </trkpt>
      <trkpt lat="45.64136" lon="5.15174">
        <ele>205</ele>
        <time>2016-07-12T21:37:36Z</time>
      </trkpt>
      <trkpt lat="45.64133" lon="5.15179">
        <ele>205</ele>
        <time>2016-07-12T21:39:36Z</time>
      </trkpt>
      <trkpt lat="45.64119" lon="5.15203">
        <ele>206</ele>
        <time>2016-07-12T21:41:36Z</time>
      </trkpt>
      <trkpt lat="45.64108" lon="5.15223">
        <ele>206</ele>
        <time>2016-07-12T21:43:36Z</time>
      </trkpt>
      <trkpt lat="45.64101" lon="5.15234">
        <ele>207</ele>
        <time>2016-07-12T21:45:36Z</time>
      </trkpt>
      <trkpt lat="45.64094" lon="5.15244">
        <ele>207</ele>
        <time>2016-07-12T21:47:36Z</time>
      </trkpt>
      <trkpt lat="45.64036" lon="5.15335">
        <ele>212</ele>
        <time>2016-07-12T21:49:36Z</time>
      </trkpt>
      <trkpt lat="45.63953" lon="5.15468">
        <ele>214</ele>
        <time>2016-07-12T21:51:36Z</time>
      </trkpt>
      <trkpt lat="45.63868" lon="5.15605">
        <ele>210</ele>
        <time>2016-07-12T21:53:36Z</time>
      </trkpt>
      <trkpt lat="45.63839" lon="5.15646">
        <ele>209</ele>
        <time>2016-07-12T21:55:36Z</time>
      </trkpt>
      <trkpt lat="45.6381" lon="5.15688">
        <ele>209</ele>
        <time>2016-07-12T21:57:36Z</time>
      </trkpt>
      <trkpt lat="45.63806" lon="5.15692">
        <ele>209</ele>
        <time>2016-07-12T21:59:36Z</time>
      </trkpt>
      <trkpt lat="45.63802" lon="5.15697">
        <ele>209</ele>
        <time>2016-07-12T22:01:36Z</time>
      </trkpt>
      <trkpt lat="45.63798" lon="5.15701">
        <ele>209</ele>
        <time>2016-07-12T22:03:36Z</time>
      </trkpt>
      <trkpt lat="45.63795" lon="5.15705">
        <ele>209</ele>
        <time>2016-07-12T22:05:36Z</time>
      </trkpt>
      <trkpt lat="45.63791" lon="5.15709">
        <ele>209</ele>
        <time>2016-07-12T22:07:36Z</time>
      </trkpt>
      <trkpt lat="45.63787" lon="5.15712">
        <ele>209</ele>
        <time>2016-07-12T22:09:36Z</time>
      </trkpt>
      <trkpt lat="45.63784" lon="5.15714">
        <ele>209</ele>
        <time>2016-07-12T22:11:36Z</time>
      </trkpt>
      <trkpt lat="45.63779" lon="5.15716">
        <ele>209</ele>
        <time>2016-07-12T22:13:36Z</time>
      </trkpt>
      <trkpt lat="45.63775" lon="5.15716">
        <ele>209</ele>
        <time>2016-07-12T22:15:36Z</time>
      </trkpt>
      <trkpt lat="45.63771" lon="5.15715">
        <ele>209</ele>
        <time>2016-07-12T22:17:36Z</time>
      </trkpt>
      <trkpt lat="45.63765" lon="5.15711">
        <ele>209</ele>
        <time>2016-07-12T22:19:36Z</time>
      </trkpt>
      <trkpt lat="45.6376" lon="5.15708">
        <ele>209</ele>
        <time>2016-07-12T22:21:36Z</time>
      </trkpt>
      <trkpt lat="45.63755" lon="5.15706">
        <ele>209</ele>
        <time>2016-07-12T22:23:36Z</time>
      </trkpt>
      <trkpt lat="45.63748" lon="5.15706">
        <ele>210</ele>
        <time>2016-07-12T22:25:36Z</time>
      </trkpt>
      <trkpt lat="45.6374" lon="5.15709">
        <ele>210</ele>
        <time>2016-07-12T22:27:36Z</time>
      </trkpt>
      <trkpt lat="45.63734" lon="5.15712">
        <ele>210</ele>
        <time>2016-07-12T22:29:36Z</time>
      </trkpt>
      <trkpt lat="45.63734" lon="5.15712">
        <ele>210</ele>
        <time>2016-07-12T22:31:36Z</time>
      </trkpt>
      <trkpt lat="45.63737" lon="5.15721">
        <ele>210</ele>
        <time>2016-07-12T22:33:36Z</time>
      </trkpt>
      <trkpt lat="45.63741" lon="5.15739">
        <ele>210</ele>
        <time>2016-07-12T22:35:36Z</time>
      </trkpt>
      <trkpt lat="45.63741" lon="5.15739">
        <ele>210</ele>
        <time>2016-07-12T22:37:36Z</time>
      </trkpt>
      <trkpt lat="45.63739" lon="5.1574">
        <ele>210</ele>
        <time>2016-07-12T22:39:36Z</time>
      </trkpt>
      <trkpt lat="45.63738" lon="5.15741">
        <ele>210</ele>
        <time>2016-07-12T22:41:36Z</time>
      </trkpt>
      <trkpt lat="45.63736" lon="5.15742">
        <ele>210</ele>
        <time>2016-07-12T22:43:36Z</time>
      </trkpt>
      <trkpt lat="45.63734" lon="5.15744">
        <ele>210</ele>
        <time>2016-07-12T22:45:36Z</time>
      </trkpt>
      <trkpt lat="45.63733" lon="5.15746">
        <ele>210</ele>
        <time>2016-07-12T22:47:36Z</time>
      </trkpt>
      <trkpt lat="45.63732" lon="5.15748">
        <ele>210</ele>
        <time>2016-07-12T22:49:36Z</time>
      </trkpt>
      <trkpt lat="45.63731" lon="5.1575">
        <ele>210</ele>
        <time>2016-07-12T22:51:36Z</time>
      </trkpt>
      <trkpt lat="45.63729" lon="5.15753">
        <ele>210</ele>
        <time>2016-07-12T22:53:36Z</time>
      </trkpt>
      <trkpt lat="45.63729" lon="5.15755">
        <ele>210</ele>
        <time>2016-07-12T22:55:36Z</time>
      </trkpt>
      <trkpt lat="45.63728" lon="5.15758">
        <ele>210</ele>
        <time>2016-07-12T22:57:36Z</time>
      </trkpt>
      <trkpt lat="45.63727" lon="5.15761">
        <ele>211</ele>
        <time>2016-07-12T22:59:36Z</time>
      </trkpt>
      <trkpt lat="45.63727" lon="5.15764">
        <ele>211</ele>
        <time>2016-07-12T23:01:36Z</time>
      </trkpt>
      <trkpt lat="45.63727" lon="5.15767">
        <ele>211</ele>
        <time>2016-07-12T23:03:36Z</time>
      </trkpt>
      <trkpt lat="45.63727" lon="5.15769">
        <ele>211</ele>
        <time>2016-07-12T23:05:36Z</time>
      </trkpt>
      <trkpt lat="45.63727" lon="5.15772">
        <ele>211</ele>
        <time>2016-07-12T23:07:36Z</time>
      </trkpt>
      <trkpt lat="45.63728" lon="5.15775">
        <ele>211</ele>
        <time>2016-07-12T23:09:36Z</time>
      </trkpt>
      <trkpt lat="45.63728" lon="5.15778">
        <ele>211</ele>
        <time>2016-07-12T23:11:36Z</time>
      </trkpt>
      <trkpt lat="45.63729" lon="5.15781">
        <ele>211</ele>
        <time>2016-07-12T23:13:36Z</time>
      </trkpt>
      <trkpt lat="45.63731" lon="5.15785">
        <ele>211</ele>
        <time>2016-07-12T23:15:36Z</time>
      </trkpt>
      <trkpt lat="45.63732" lon="5.15787">
        <ele>211</ele>
        <time>2016-07-12T23:17:36Z</time>
      </trkpt>
      <trkpt lat="45.63733" lon="5.15789">
        <ele>211</ele>
        <time>2016-07-12T23:19:36Z</time>
      </trkpt>
      <trkpt lat="45.63735" lon="5.15791">
        <ele>211</ele>
        <time>2016-07-12T23:21:36Z</time>
      </trkpt>
      <trkpt lat="45.63736" lon="5.15793">
        <ele>211</ele>
        <time>2016-07-12T23:23:36Z</time>
      </trkpt>
      <trkpt lat="45.63738" lon="5.15795">
        <ele>211</ele>
        <time>2016-07-12T23:25:36Z</time>
      </trkpt>
      <trkpt lat="45.63739" lon="5.15796">
        <ele>211</ele>
        <time>2016-07-12T23:27:36Z</time>
      </trkpt>
      <trkpt lat="45.63741" lon="5.15797">
        <ele>211</ele>
        <time>2016-07-12T23:29:36Z</time>
      </trkpt>
      <trkpt lat="45.63745" lon="5.15798">
        <ele>211</ele>
        <time>2016-07-12T23:31:36Z</time>
      </trkpt>
      <trkpt lat="45.63747" lon="5.15807">
        <ele>211</ele>
        <time>2016-07-12T23:33:36Z</time>
      </trkpt>
      <trkpt lat="45.63751" lon="5.15818">
        <ele>212</ele>
        <time>2016-07-12T23:35:36Z</time>
      </trkpt>
      <trkpt lat="45.63755" lon="5.15829">
        <ele>212</ele>
        <time>2016-07-12T23:37:36Z</time>
      </trkpt>
      <trkpt lat="45.63761" lon="5.15841">
        <ele>212</ele>
        <time>2016-07-12T23:39:36Z</time>
      </trkpt>
      <trkpt lat="45.63767" lon="5.15851">
        <ele>212</ele>
        <time>2016-07-12T23:41:36Z</time>
      </trkpt>
      <trkpt lat="45.63776" lon="5.1586">
        <ele>211</ele>
        <time>2016-07-12T23:43:36Z</time>
      </trkpt>
      <trkpt lat="45.63776" lon="5.1586">
        <ele>211</ele>
        <time>2016-07-12T23:45:36Z</time>
      </trkpt>
      <trkpt lat="45.63773" lon="5.15871">
        <ele>212</ele>
        <time>2016-07-12T23:47:36Z</time>
      </trkpt>
      <trkpt lat="45.63763" lon="5.15893">
        <ele>213</ele>
        <time>2016-07-12T23:49:36Z</time>
      </trkpt>
      <trkpt lat="45.6376" lon="5.15899">
        <ele>213</ele>
        <time>2016-07-12T23:51:36Z</time>
      </trkpt>
      <trkpt lat="45.63731" lon="5.15948">
        <ele>213</ele>
        <time>2016-07-12T23:53:36Z</time>
      </trkpt>
      <trkpt lat="45.63713" lon="5.15977">
        <ele>213</ele>
        <time>2016-07-12T23:55:36Z</time>
      </trkpt>
      <trkpt lat="45.63703" lon="5.15994">
        <ele>213</ele>
        <time>2016-07-12T23:57:36Z</time>
      </trkpt>
      <trkpt lat="45.63681" lon="5.1603">
        <ele>213</ele>
        <time>2016-07-12T23:59:36Z</time>
      </trkpt>
      <trkpt lat="45.63663" lon="5.16059">
        <ele>213</ele>
        <time>2016-07-13T00:01:36Z</time>
      </trkpt>
      <trkpt lat="45.63635" lon="5.16105">
        <ele>212</ele>
        <time>2016-07-13T00:03:36Z</time>
      </trkpt>
      <trkpt lat="45.63604" lon="5.16155">
        <ele>212</ele>
        <time>2016-07-13T00:05:36Z</time>
      </trkpt>
      <trkpt lat="45.63599" lon="5.16163">
        <ele>213</ele>
        <time>2016-07-13T00:07:36Z</time>
      </trkpt>
      <trkpt lat="45.63586" lon="5.16186">
        <ele>213</ele>
        <time>2016-07-13T00:09:36Z</time>
      </trkpt>
      <trkpt lat="45.63551" lon="5.16243">
        <ele>214</ele>
        <time>2016-07-13T00:11:36Z</time>
      </trkpt>
      <trkpt lat="45.63546" lon="5.16252">
        <ele>214</ele>
        <time>2016-07-13T00:13:36Z</time>
      </trkpt>
      <trkpt lat="45.63491" lon="5.16343">
        <ele>209</ele>
        <time>2016-07-13T00:15:36Z</time>
      </trkpt>
      <trkpt lat="45.63475" lon="5.16369">
        <ele>209</ele>
        <time>2016-07-13T00:17:36Z</time>
      </trkpt>
      <trkpt lat="45.63464" lon="5.16388">
        <ele>209</ele>
        <time>2016-07-13T00:19:36Z</time>
      </trkpt>
      <trkpt lat="45.63458" lon="5.16398">
        <ele>209</ele>
        <time>2016-07-13T00:21:36Z</time>
      </trkpt>
      <trkpt lat="45.63456" lon="5.16401">
        <ele>209</ele>
        <time>2016-07-13T00:23:36Z</time>
      </trkpt>
      <trkpt lat="45.63454" lon="5.16404">
        <ele>209</ele>
        <time>2016-07-13T00:25:36Z</time>
      </trkpt>
      <trkpt lat="45.63451" lon="5.16409">
        <ele>209</ele>
        <time>2016-07-13T00:27:36Z</time>
      </trkpt>
      <trkpt lat="45.63448" lon="5.16414">
        <ele>209</ele>
        <time>2016-07-13T00:29:36Z</time>
      </trkpt>
      <trkpt lat="45.63446" lon="5.16418">
        <ele>209</ele>
        <time>2016-07-13T00:31:36Z</time>
      </trkpt>
      <trkpt lat="45.63441" lon="5.16428">
        <ele>209</ele>
        <time>2016-07-13T00:33:36Z</time>
      </trkpt>
      <trkpt lat="45.63435" lon="5.1644">
        <ele>210</ele>
        <time>2016-07-13T00:35:36Z</time>
      </trkpt>
      <trkpt lat="45.63431" lon="5.16449">
        <ele>210</ele>
        <time>2016-07-13T00:37:36Z</time>
      </trkpt>
      <trkpt lat="45.63424" lon="5.16465">
        <ele>211</ele>
        <time>2016-07-13T00:39:36Z</time>
      </trkpt>
      <trkpt lat="45.6341" lon="5.16497">
        <ele>212</ele>
        <time>2016-07-13T00:41:36Z</time>
      </trkpt>
      <trkpt lat="45.63407" lon="5.16505">
        <ele>212</ele>
        <time>2016-07-13T00:43:36Z</time>
      </trkpt>
      <trkpt lat="45.63353" lon="5.16628">
        <ele>213</ele>
        <time>2016-07-13T00:45:36Z</time>
      </trkpt>
      <trkpt lat="45.6334" lon="5.16658">
        <ele>213</ele>
        <time>2016-07-13T00:47:36Z</time>
      </trkpt>
      <trkpt lat="45.63336" lon="5.16667">
        <ele>213</ele>
        <time>2016-07-13T00:49:36Z</time>
      </trkpt>
      <trkpt lat="45.63306" lon="5.16735">
        <ele>214</ele>
        <time>2016-07-13T00:51:36Z</time>
      </trkpt>
      <trkpt lat="45.63274" lon="5.1681">
        <ele>213</ele>
        <time>2016-07-13T00:53:36Z</time>
      </trkpt>
      <trkpt lat="45.63258" lon="5.1684">
        <ele>213</ele>
        <time>2016-07-13T00:55:36Z</time>
      </trkpt>
      <trkpt lat="45.63241" lon="5.16874">
        <ele>212</ele>
        <time>2016-07-13T00:57:36Z</time>
      </trkpt>
      <trkpt lat="45.63233" lon="5.16894">
        <ele>211</ele>
        <time>2016-07-13T00:59:36Z</time>
      </trkpt>
      <trkpt lat="45.63225" lon="5.16921">
        <ele>210</ele>
        <time>2016-07-13T01:01:36Z</time>
      </trkpt>
      <trkpt lat="45.63218" lon="5.16932">
        <ele>210</ele>
        <time>2016-07-13T01:03:36Z</time>
      </trkpt>
      <trkpt lat="45.63201" lon="5.16951">
        <ele>210</ele>
        <time>2016-07-13T01:05:36Z</time>
      </trkpt>
      <trkpt lat="45.63186" lon="5.16972">
        <ele>209</ele>
        <time>2016-07-13T01:07:36Z</time>
      </trkpt>
      <trkpt lat="45.6318" lon="5.16981">
        <ele>209</ele>
        <time>2016-07-13T01:09:36Z</time>
      </trkpt>
      <trkpt lat="45.63173" lon="5.16994">
        <ele>209</ele>
        <time>2016-07-13T01:11:36Z</time>
      </trkpt>
      <trkpt lat="45.63166" lon="5.17004">
        <ele>209</ele>
        <time>2016-07-13T01:13:36Z</time>
      </trkpt>
      <trkpt lat="45.63145" lon="5.17037">
        <ele>209</ele>
        <time>2016-07-13T01:15:36Z</time>
      </trkpt>
      <trkpt lat="45.63138" lon="5.17048">
        <ele>209</ele>
        <time>2016-07-13T01:17:36Z</time>
      </trkpt>
      <trkpt lat="45.63112" lon="5.17096">
        <ele>209</ele>
        <time>2016-07-13T01:19:36Z</time>
      </trkpt>
      <trkpt lat="45.63112" lon="5.17096">
        <ele>209</ele>
        <time>2016-07-13T01:21:36Z</time>
      </trkpt>
      <trkpt lat="45.63164" lon="5.17154">
        <ele>210</ele>
        <time>2016-07-13T01:23:36Z</time>
      </trkpt>
      <trkpt lat="45.63181" lon="5.17171">
        <ele>210</ele>
        <time>2016-07-13T01:25:36Z</time>
      </trkpt>
      <trkpt lat="45.63185" lon="5.17175">
        <ele>210</ele>
        <time>2016-07-13T01:27:36Z</time>
      </trkpt>
      <trkpt lat="45.63188" lon="5.17178">
        <ele>210</ele>
        <time>2016-07-13T01:29:36Z</time>
      </trkpt>
      <trkpt lat="45.63197" lon="5.17188">
        <ele>210</ele>
        <time>2016-07-13T01:31:36Z</time>
      </trkpt>
      <trkpt lat="45.63203" lon="5.17195">
        <ele>210</ele>
        <time>2016-07-13T01:33:36Z</time>
      </trkpt>
      <trkpt lat="45.63211" lon="5.17203">
        <ele>210</ele>
        <time>2016-07-13T01:35:36Z</time>
      </trkpt>
      <trkpt lat="45.63211" lon="5.17203">
        <ele>210</ele>
        <time>2016-07-13T01:37:36Z</time>
      </trkpt>
      <trkpt lat="45.63191" lon="5.17237">
        <ele>210</ele>
        <time>2016-07-13T01:39:36Z</time>
      </trkpt>
      <trkpt lat="45.63178" lon="5.17259">
        <ele>211</ele>
        <time>2016-07-13T01:41:36Z</time>
      </trkpt>
      <trkpt lat="45.63109" lon="5.17374">
        <ele>209</ele>
        <time>2016-07-13T01:43:36Z</time>
      </trkpt>
      <trkpt lat="45.62996" lon="5.17557">
        <ele>211</ele>
        <time>2016-07-13T01:45:36Z</time>
      </trkpt>
      <trkpt lat="45.62969" lon="5.176">
        <ele>210</ele>
        <time>2016-07-13T01:47:36Z</time>
      </trkpt>
      <trkpt lat="45.62923" lon="5.17674">
        <ele>211</ele>
        <time>2016-07-13T01:49:36Z</time>
      </trkpt>
      <trkpt lat="45.62909" lon="5.17696">
        <ele>210</ele>
        <time>2016-07-13T01:51:36Z</time>
      </trkpt>
      <trkpt lat="45.62846" lon="5.178">
        <ele>211</ele>
        <time>2016-07-13T01:53:36Z</time>
      </trkpt>
      <trkpt lat="45.6277" lon="5.17923">
        <ele>210</ele>
        <time>2016-07-13T01:55:36Z</time>
      </trkpt>
      <trkpt lat="45.62718" lon="5.18009">
        <ele>209</ele>
        <time>2016-07-13T01:57:36Z</time>
      </trkpt>
      <trkpt lat="45.62688" lon="5.18058">
        <ele>210</ele>
        <time>2016-07-13T01:59:36Z</time>
      </trkpt>
      <trkpt lat="45.6262" lon="5.18168">
        <ele>212</ele>
        <time>2016-07-13T02:01:36Z</time>
      </trkpt>
      <trkpt lat="45.62541" lon="5.18295">
        <ele>211</ele>
        <time>2016-07-13T02:03:36Z</time>
      </trkpt>
      <trkpt lat="45.62529" lon="5.18313">
        <ele>210</ele>
        <time>2016-07-13T02:05:36Z</time>
      </trkpt>
      <trkpt lat="45.62521" lon="5.18321">
        <ele>210</ele>
        <time>2016-07-13T02:07:36Z</time>
      </trkpt>
      <trkpt lat="45.62513" lon="5.18327">
        <ele>210</ele>
        <time>2016-07-13T02:09:36Z</time>
      </trkpt>
      <trkpt lat="45.62507" lon="5.18348">
        <ele>210</ele>
        <time>2016-07-13T02:11:36Z</time>
      </trkpt>
      <trkpt lat="45.62503" lon="5.18356">
        <ele>210</ele>
        <time>2016-07-13T02:13:36Z</time>
      </trkpt>
      <trkpt lat="45.62496" lon="5.18368">
        <ele>211</ele>
        <time>2016-07-13T02:15:36Z</time>
      </trkpt>
      <trkpt lat="45.62463" lon="5.18417">
        <ele>212</ele>
        <time>2016-07-13T02:17:36Z</time>
      </trkpt>
      <trkpt lat="45.62407" lon="5.18507">
        <ele>212</ele>
        <time>2016-07-13T02:19:36Z</time>
      </trkpt>
      <trkpt lat="45.62405" lon="5.1851">
        <ele>212</ele>
        <time>2016-07-13T02:21:36Z</time>
      </trkpt>
      <trkpt lat="45.62387" lon="5.18539">
        <ele>212</ele>
        <time>2016-07-13T02:23:36Z</time>
      </trkpt>
      <trkpt lat="45.62346" lon="5.18605">
        <ele>212</ele>
        <time>2016-07-13T02:25:36Z</time>
      </trkpt>
      <trkpt lat="45.62325" lon="5.1864">
        <ele>212</ele>
        <time>2016-07-13T02:27:36Z</time>
      </trkpt>
      <trkpt lat="45.62278" lon="5.18717">
        <ele>212</ele>
        <time>2016-07-13T02:29:36Z</time>
      </trkpt>
      <trkpt lat="45.62238" lon="5.18783">
        <ele>212</ele>
        <time>2016-07-13T02:31:36Z</time>
      </trkpt>
      <trkpt lat="45.62208" lon="5.1883">
        <ele>212</ele>
        <time>2016-07-13T02:33:36Z</time>
      </trkpt>
      <trkpt lat="45.62165" lon="5.18899">
        <ele>213</ele>
        <time>2016-07-13T02:35:36Z</time>
      </trkpt>
      <trkpt lat="45.62161" lon="5.18906">
        <ele>213</ele>
        <time>2016-07-13T02:37:36Z</time>
      </trkpt>
      <trkpt lat="45.62134" lon="5.18945">
        <ele>213</ele>
        <time>2016-07-13T02:39:36Z</time>
      </trkpt>
      <trkpt lat="45.6213" lon="5.18951">
        <ele>213</ele>
        <time>2016-07-13T02:41:36Z</time>
      </trkpt>
      <trkpt lat="45.62081" lon="5.19034">
        <ele>214</ele>
        <time>2016-07-13T02:43:36Z</time>
      </trkpt>
      <trkpt lat="45.62055" lon="5.19077">
        <ele>212</ele>
        <time>2016-07-13T02:45:36Z</time>
      </trkpt>
      <trkpt lat="45.62047" lon="5.19089">
        <ele>212</ele>
        <time>2016-07-13T02:47:36Z</time>
      </trkpt>
      <trkpt lat="45.62015" lon="5.19143">
        <ele>213</ele>
        <time>2016-07-13T02:49:36Z</time>
      </trkpt>
      <trkpt lat="45.61986" lon="5.19191">
        <ele>213</ele>
        <time>2016-07-13T02:51:36Z</time>
      </trkpt>
      <trkpt lat="45.61979" lon="5.19203">
        <ele>213</ele>
        <time>2016-07-13T02:53:36Z</time>
      </trkpt>
      <trkpt lat="45.61977" lon="5.1921">
        <ele>213</ele>
        <time>2016-07-13T02:55:36Z</time>
      </trkpt>
      <trkpt lat="45.61965" lon="5.19215">
        <ele>213</ele>
        <time>2016-07-13T02:57:36Z</time>
      </trkpt>
      <trkpt lat="45.61945" lon="5.19244">
        <ele>214</ele>
        <time>2016-07-13T02:59:36Z</time>
      </trkpt>
      <trkpt lat="45.61902" lon="5.19313">
        <ele>214</ele>
        <time>2016-07-13T03:01:36Z</time>
      </trkpt>
      <trkpt lat="45.61899" lon="5.19319">
        <ele>214</ele>
        <time>2016-07-13T03:03:36Z</time>
      </trkpt>
      <trkpt lat="45.61865" lon="5.19376">
        <ele>214</ele>
        <time>2016-07-13T03:05:36Z</time>
      </trkpt>
      <trkpt lat="45.61852" lon="5.19395">
        <ele>213</ele>
        <time>2016-07-13T03:07:36Z</time>
      </trkpt>
      <trkpt lat="45.61818" lon="5.19451">
        <ele>213</ele>
        <time>2016-07-13T03:09:36Z</time>
      </trkpt>
      <trkpt lat="45.61782" lon="5.19506">
        <ele>214</ele>
        <time>2016-07-13T03:11:36Z</time>
      </trkpt>
      <trkpt lat="45.61763" lon="5.19538">
        <ele>215</ele>
        <time>2016-07-13T03:13:36Z</time>
      </trkpt>
      <trkpt lat="45.61725" lon="5.19601">
        <ele>215</ele>
        <time>2016-07-13T03:15:36Z</time>
      </trkpt>
      <trkpt lat="45.61701" lon="5.19642">
        <ele>215</ele>
        <time>2016-07-13T03:17:36Z</time>
      </trkpt>
      <trkpt lat="45.61669" lon="5.19699">
        <ele>216</ele>
        <time>2016-07-13T03:19:36Z</time>
      </trkpt>
      <trkpt lat="45.61654" lon="5.19725">
        <ele>217</ele>
        <time>2016-07-13T03:21:36Z</time>
      </trkpt>
      <trkpt lat="45.61631" lon="5.1977">
        <ele>217</ele>
        <time>2016-07-13T03:23:36Z</time>
      </trkpt>
      <trkpt lat="45.61595" lon="5.19846">
        <ele>217</ele>
        <time>2016-07-13T03:25:36Z</time>
      </trkpt>
      <trkpt lat="45.61588" lon="5.19865">
        <ele>217</ele>
        <time>2016-07-13T03:27:36Z</time>
      </trkpt>
      <trkpt lat="45.61588" lon="5.19866">
        <ele>217</ele>
        <time>2016-07-13T03:29:36Z</time>
      </trkpt>
      <trkpt lat="45.61585" lon="5.19874">
        <ele>217</ele>
        <time>2016-07-13T03:31:36Z</time>
      </trkpt>
      <trkpt lat="45.61584" lon="5.19879">
        <ele>217</ele>
        <time>2016-07-13T03:33:36Z</time>
      </trkpt>
      <trkpt lat="45.61545" lon="5.20018">
        <ele>216</ele>
        <time>2016-07-13T03:35:36Z</time>
      </trkpt>
      <trkpt lat="45.61536" lon="5.2004">
        <ele>217</ele>
        <time>2016-07-13T03:37:36Z</time>
      </trkpt>
      <trkpt lat="45.61527" lon="5.20068">
        <ele>217</ele>
        <time>2016-07-13T03:39:36Z</time>
      </trkpt>
      <trkpt lat="45.61519" lon="5.20097">
        <ele>218</ele>
        <time>2016-07-13T03:41:36Z</time>
      </trkpt>
      <trkpt lat="45.6151" lon="5.20141">
        <ele>217</ele>
        <time>2016-07-13T03:43:36Z</time>
      </trkpt>
      <trkpt lat="45.61502" lon="5.20175">
        <ele>217</ele>
        <time>2016-07-13T03:45:36Z</time>
      </trkpt>
      <trkpt lat="45.61497" lon="5.20204">
        <ele>217</ele>
        <time>2016-07-13T03:47:36Z</time>
      </trkpt>
      <trkpt lat="45.61492" lon="5.20234">
        <ele>218</ele>
        <time>2016-07-13T03:49:36Z</time>
      </trkpt>
      <trkpt lat="45.61487" lon="5.20271">
        <ele>217</ele>
        <time>2016-07-13T03:51:36Z</time>
      </trkpt>
      <trkpt lat="45.61483" lon="5.20314">
        <ele>217</ele>
        <time>2016-07-13T03:53:36Z</time>
      </trkpt>
      <trkpt lat="45.6148" lon="5.20369">
        <ele>216</ele>
        <time>2016-07-13T03:55:36Z</time>
      </trkpt>
      <trkpt lat="45.61479" lon="5.20409">
        <ele>216</ele>
        <time>2016-07-13T03:57:36Z</time>
      </trkpt>
      <trkpt lat="45.61476" lon="5.20454">
        <ele>217</ele>
        <time>2016-07-13T03:59:36Z</time>
      </trkpt>
      <trkpt lat="45.61474" lon="5.205">
        <ele>218</ele>
        <time>2016-07-13T04:01:36Z</time>
      </trkpt>
      <trkpt lat="45.61473" lon="5.2054">
        <ele>217</ele>
        <time>2016-07-13T04:03:36Z</time>
      </trkpt>
      <trkpt lat="45.61472" lon="5.20599">
        <ele>217</ele>
        <time>2016-07-13T04:05:36Z</time>
      </trkpt>
      <trkpt lat="45.61471" lon="5.20634">
        <ele>217</ele>
        <time>2016-07-13T04:07:36Z</time>
      </trkpt>
      <trkpt lat="45.61469" lon="5.20673">
        <ele>217</ele>
        <time>2016-07-13T04:09:36Z</time>
      </trkpt>
      <trkpt lat="45.61467" lon="5.20717">
        <ele>218</ele>
        <time>2016-07-13T04:11:36Z</time>
      </trkpt>
      <trkpt lat="45.61465" lon="5.20754">
        <ele>219</ele>
        <time>2016-07-13T04:13:36Z</time>
      </trkpt>
      <trkpt lat="45.61464" lon="5.208">
        <ele>219</ele>
        <time>2016-07-13T04:15:36Z</time>
      </trkpt>
      <trkpt lat="45.61462" lon="5.20848">
        <ele>219</ele>
        <time>2016-07-13T04:17:36Z</time>
      </trkpt>
      <trkpt lat="45.6146" lon="5.20892">
        <ele>218</ele>
        <time>2016-07-13T04:19:36Z</time>
      </trkpt>
      <trkpt lat="45.61458" lon="5.20936">
        <ele>218</ele>
        <time>2016-07-13T04:21:36Z</time>
      </trkpt>
      <trkpt lat="45.61455" lon="5.21008">
        <ele>218</ele>
        <time>2016-07-13T04:23:36Z</time>
      </trkpt>
      <trkpt lat="45.61454" lon="5.21079">
        <ele>218</ele>
        <time>2016-07-13T04:25:36Z</time>
      </trkpt>
      <trkpt lat="45.61453" lon="5.21119">
        <ele>218</ele>
        <time>2016-07-13T04:27:36Z</time>
      </trkpt>
      <trkpt lat="45.61452" lon="5.21152">
        <ele>217</ele>
        <time>2016-07-13T04:29:36Z</time>
      </trkpt>
      <trkpt lat="45.6145" lon="5.21195">
        <ele>218</ele>
        <time>2016-07-13T04:31:36Z</time>
      </trkpt>
      <trkpt lat="45.61449" lon="5.21218">
        <ele>218</ele>
        <time>2016-07-13T04:33:36Z</time>
      </trkpt>
      <trkpt lat="45.61448" lon="5.21248">
        <ele>219</ele>
        <time>2016-07-13T04:35:36Z</time>
      </trkpt>
      <trkpt lat="45.61447" lon="5.21265">
        <ele>219</ele>
        <time>2016-07-13T04:37:36Z</time>
      </trkpt>
      <trkpt lat="45.61445" lon="5.21289">
        <ele>219</ele>
        <time>2016-07-13T04:39:36Z</time>
      </trkpt>
      <trkpt lat="45.61442" lon="5.21308">
        <ele>218</ele>
        <time>2016-07-13T04:41:36Z</time>
      </trkpt>
      <trkpt lat="45.61438" lon="5.21328">
        <ele>218</ele>
        <time>2016-07-13T04:43:36Z</time>
      </trkpt>
      <trkpt lat="45.61433" lon="5.21354">
        <ele>218</ele>
        <time>2016-07-13T04:45:36Z</time>
      </trkpt>
      <trkpt lat="45.61425" lon="5.21391">
        <ele>220</ele>
        <time>2016-07-13T04:47:36Z</time>
      </trkpt>
      <trkpt lat="45.61413" lon="5.21443">
        <ele>220</ele>
        <time>2016-07-13T04:49:36Z</time>
      </trkpt>
      <trkpt lat="45.61408" lon="5.2147">
        <ele>220</ele>
        <time>2016-07-13T04:51:36Z</time>
      </trkpt>
      <trkpt lat="45.61406" lon="5.21479">
        <ele>219</ele>
        <time>2016-07-13T04:53:36Z</time>
      </trkpt>
      <trkpt lat="45.61406" lon="5.21479">
        <ele>219</ele>
        <time>2016-07-13T04:55:36Z</time>
      </trkpt>
      <trkpt lat="45.61248" lon="5.22143">
        <ele>220</ele>
        <time>2016-07-13T04:57:36Z</time>
      </trkpt>
      <trkpt lat="45.61247" lon="5.22146">
        <ele>219</ele>
        <time>2016-07-13T04:59:36Z</time>
      </trkpt>
      <trkpt lat="45.61238" lon="5.22178">
        <ele>219</ele>
        <time>2016-07-13T05:01:36Z</time>
      </trkpt>
      <trkpt lat="45.61223" lon="5.22235">
        <ele>218</ele>
        <time>2016-07-13T05:03:36Z</time>
      </trkpt>
      <trkpt lat="45.61107" lon="5.22753">
        <ele>219</ele>
        <time>2016-07-13T05:05:36Z</time>
      </trkpt>
      <trkpt lat="45.61102" lon="5.22775">
        <ele>219</ele>
        <time>2016-07-13T05:07:36Z</time>
      </trkpt>
      <trkpt lat="45.61096" lon="5.22791">
        <ele>218</ele>
        <time>2016-07-13T05:09:36Z</time>
      </trkpt>
      <trkpt lat="45.61093" lon="5.228">
        <ele>218</ele>
        <time>2016-07-13T05:11:36Z</time>
      </trkpt>
      <trkpt lat="45.61081" lon="5.22849">
        <ele>218</ele>
        <time>2016-07-13T05:13:36Z</time>
      </trkpt>
      <trkpt lat="45.61062" lon="5.22932">
        <ele>219</ele>
        <time>2016-07-13T05:15:36Z</time>
      </trkpt>
      <trkpt lat="45.61041" lon="5.23015">
        <ele>219</ele>
        <time>2016-07-13T05:17:36Z</time>
      </trkpt>
      <trkpt lat="45.61009" lon="5.23155">
        <ele>218</ele>
        <time>2016-07-13T05:19:36Z</time>
      </trkpt>
      <trkpt lat="45.60986" lon="5.23249">
        <ele>217</ele>
        <time>2016-07-13T05:21:36Z</time>
      </trkpt>
      <trkpt lat="45.60986" lon="5.23253">
        <ele>217</ele>
        <time>2016-07-13T05:23:36Z</time>
      </trkpt>
      <trkpt lat="45.60938" lon="5.23452">
        <ele>218</ele>
        <time>2016-07-13T05:25:36Z</time>
      </trkpt>
      <trkpt lat="45.60908" lon="5.2359">
        <ele>218</ele>
        <time>2016-07-13T05:27:36Z</time>
      </trkpt>
      <trkpt lat="45.60863" lon="5.23776">
        <ele>218</ele>
        <time>2016-07-13T05:29:36Z</time>
      </trkpt>
      <trkpt lat="45.60855" lon="5.23812">
        <ele>218</ele>
        <time>2016-07-13T05:31:36Z</time>
      </trkpt>
      <trkpt lat="45.60852" lon="5.23832">
        <ele>218</ele>
        <time>2016-07-13T05:33:36Z</time>
      </trkpt>
      <trkpt lat="45.60834" lon="5.23904">
        <ele>218</ele>
        <time>2016-07-13T05:35:36Z</time>
      </trkpt>
      <trkpt lat="45.60793" lon="5.24078">
        <ele>218</ele>
        <time>2016-07-13T05:37:36Z</time>
      </trkpt>
      <trkpt lat="45.60773" lon="5.24174">
        <ele>222</ele>
        <time>2016-07-13T05:39:36Z</time>
      </trkpt>
      <trkpt lat="45.60743" lon="5.24292">
        <ele>220</ele>
        <time>2016-07-13T05:41:36Z</time>
      </trkpt>
      <trkpt lat="45.60726" lon="5.24365">
        <ele>220</ele>
        <time>2016-07-13T05:43:36Z</time>
      </trkpt>
      <trkpt lat="45.60716" lon="5.24405">
        <ele>221</ele>
        <time>2016-07-13T05:45:36Z</time>
      </trkpt>
      <trkpt lat="45.607" lon="5.24481">
        <ele>221</ele>
        <time>2016-07-13T05:47:36Z</time>
      </trkpt>
      <trkpt lat="45.60665" lon="5.24625">
        <ele>223</ele>
        <time>2016-07-13T05:49:36Z</time>
      </trkpt>
      <trkpt lat="45.60617" lon="5.24831">
        <ele>220</ele>
        <time>2016-07-13T05:51:36Z</time>
      </trkpt>
      <trkpt lat="45.60601" lon="5.24907">
        <ele>220</ele>
        <time>2016-07-13T05:53:36Z</time>
      </trkpt>
      <trkpt lat="45.60581" lon="5.24985">
        <ele>221</ele>
        <time>2016-07-13T05:55:36Z</time>
      </trkpt>
      <trkpt lat="45.60555" lon="5.25097">
        <ele>221</ele>
        <time>2016-07-13T05:57:36Z</time>
      </trkpt>
      <trkpt lat="45.60547" lon="5.25128">
        <ele>222</ele>
        <time>2016-07-13T05:59:36Z</time>
      </trkpt>
      <trkpt lat="45.60545" lon="5.25138">
        <ele>222</ele>
        <time>2016-07-13T06:01:36Z</time>
      </trkpt>
      <trkpt lat="45.60541" lon="5.2516">
        <ele>222</ele>
        <time>2016-07-13T06:03:36Z</time>
      </trkpt>
      <trkpt lat="45.60536" lon="5.25187">
        <ele>222</ele>
        <time>2016-07-13T06:05:36Z</time>
      </trkpt>
      <trkpt lat="45.60535" lon="5.25193">
        <ele>222</ele>
        <time>2016-07-13T06:07:36Z</time>
      </trkpt>
      <trkpt lat="45.60531" lon="5.25211">
        <ele>222</ele>
        <time>2016-07-13T06:09:36Z</time>
      </trkpt>
      <trkpt lat="45.60527" lon="5.25232">
        <ele>222</ele>
        <time>2016-07-13T06:11:36Z</time>
      </trkpt>
      <trkpt lat="45.60516" lon="5.25282">
        <ele>225</ele>
        <time>2016-07-13T06:13:36Z</time>
      </trkpt>
      <trkpt lat="45.60505" lon="5.25326">
        <ele>228</ele>
        <time>2016-07-13T06:15:36Z</time>
      </trkpt>
      <trkpt lat="45.60488" lon="5.25393">
        <ele>224</ele>
        <time>2016-07-13T06:17:36Z</time>
      </trkpt>
      <trkpt lat="45.60478" lon="5.25436">
        <ele>223</ele>
        <time>2016-07-13T06:19:36Z</time>
      </trkpt>
      <trkpt lat="45.60465" lon="5.25495">
        <ele>224</ele>
        <time>2016-07-13T06:21:36Z</time>
      </trkpt>
      <trkpt lat="45.60442" lon="5.25594">
        <ele>224</ele>
        <time>2016-07-13T06:23:36Z</time>
      </trkpt>
      <trkpt lat="45.60438" lon="5.25609">
        <ele>224</ele>
        <time>2016-07-13T06:25:36Z</time>
      </trkpt>
      <trkpt lat="45.60419" lon="5.25693">
        <ele>223</ele>
        <time>2016-07-13T06:27:36Z</time>
      </trkpt>
      <trkpt lat="45.60385" lon="5.25831">
        <ele>225</ele>
        <time>2016-07-13T06:29:36Z</time>
      </trkpt>
      <trkpt lat="45.60383" lon="5.25841">
        <ele>225</ele>
        <time>2016-07-13T06:31:36Z</time>
      </trkpt>
      <trkpt lat="45.60383" lon="5.25852">
        <ele>225</ele>
        <time>2016-07-13T06:33:36Z</time>
      </trkpt>
      <trkpt lat="45.60384" lon="5.25857">
        <ele>225</ele>
        <time>2016-07-13T06:35:36Z</time>
      </trkpt>
      <trkpt lat="45.60384" lon="5.25857">
        <ele>225</ele>
        <time>2016-07-13T06:37:36Z</time>
      </trkpt>
      <trkpt lat="45.60375" lon="5.25852">
        <ele>225</ele>
        <time>2016-07-13T06:39:36Z</time>
      </trkpt>
      <trkpt lat="45.60368" lon="5.25848">
        <ele>225</ele>
        <time>2016-07-13T06:41:36Z</time>
      </trkpt>
      <trkpt lat="45.60362" lon="5.25847">
        <ele>225</ele>
        <time>2016-07-13T06:43:36Z</time>
      </trkpt>
      <trkpt lat="45.60357" lon="5.25846">
        <ele>226</ele>
        <time>2016-07-13T06:45:36Z</time>
      </trkpt>
      <trkpt lat="45.60353" lon="5.25847">
        <ele>226</ele>
        <time>2016-07-13T06:47:36Z</time>
      </trkpt>
      <trkpt lat="45.60324" lon="5.25866">
        <ele>226</ele>
        <time>2016-07-13T06:49:36Z</time>
      </trkpt>
      <trkpt lat="45.60313" lon="5.25867">
        <ele>226</ele>
        <time>2016-07-13T06:51:36Z</time>
      </trkpt>
      <trkpt lat="45.60313" lon="5.25867">
        <ele>226</ele>
        <time>2016-07-13T06:53:36Z</time>
      </trkpt>
      <trkpt lat="45.60289" lon="5.25982">
        <ele>226</ele>
        <time>2016-07-13T06:55:36Z</time>
      </trkpt>
      <trkpt lat="45.60258" lon="5.26142">
        <ele>226</ele>
        <time>2016-07-13T06:57:36Z</time>
      </trkpt>
      <trkpt lat="45.60255" lon="5.2616">
        <ele>226</ele>
        <time>2016-07-13T06:59:36Z</time>
      </trkpt>
      <trkpt lat="45.60254" lon="5.26183">
        <ele>226</ele>
        <time>2016-07-13T07:01:36Z</time>
      </trkpt>
      <trkpt lat="45.60254" lon="5.26183">
        <ele>226</ele>
        <time>2016-07-13T07:03:36Z</time>
      </trkpt>
      <trkpt lat="45.60218" lon="5.26358">
        <ele>226</ele>
        <time>2016-07-13T07:05:36Z</time>
      </trkpt>
      <trkpt lat="45.60192" lon="5.26472">
        <ele>227</ele>
        <time>2016-07-13T07:07:36Z</time>
      </trkpt>
      <trkpt lat="45.60192" lon="5.26487">
        <ele>228</ele>
        <time>2016-07-13T07:09:36Z</time>
      </trkpt>
      <trkpt lat="45.60197" lon="5.26504">
        <ele>228</ele>
        <time>2016-07-13T07:11:36Z</time>
      </trkpt>
      <trkpt lat="45.60201" lon="5.26526">
        <ele>228</ele>
        <time>2016-07-13T07:13:36Z</time>
      </trkpt>
      <trkpt lat="45.60199" lon="5.26541">
        <ele>229</ele>
        <time>2016-07-13T07:15:36Z</time>
      </trkpt>
      <trkpt lat="45.60177" lon="5.26617">
        <ele>229</ele>
        <time>2016-07-13T07:17:36Z</time>
      </trkpt>
      <trkpt lat="45.60172" lon="5.26634">
        <ele>229</ele>
        <time>2016-07-13T07:19:36Z</time>
      </trkpt>
      <trkpt lat="45.60166" lon="5.26656">
        <ele>228</ele>
        <time>2016-07-13T07:21:36Z</time>
      </trkpt>
      <trkpt lat="45.60166" lon="5.26656">
        <ele>228</ele>
        <time>2016-07-13T07:23:36Z</time>
      </trkpt>
      <trkpt lat="45.6015" lon="5.26648">
        <ele>229</ele>
        <time>2016-07-13T07:25:36Z</time>
      </trkpt>
      <trkpt lat="45.60137" lon="5.26642">
        <ele>229</ele>
        <time>2016-07-13T07:27:36Z</time>
      </trkpt>
      <trkpt lat="45.60124" lon="5.26637">
        <ele>229</ele>
        <time>2016-07-13T07:29:36Z</time>
      </trkpt>
      <trkpt lat="45.60108" lon="5.2663">
        <ele>229</ele>
        <time>2016-07-13T07:31:36Z</time>
      </trkpt>
      <trkpt lat="45.60106" lon="5.26629">
        <ele>229</ele>
        <time>2016-07-13T07:33:36Z</time>
      </trkpt>
      <trkpt lat="45.60077" lon="5.26614">
        <ele>230</ele>
        <time>2016-07-13T07:35:36Z</time>
      </trkpt>
      <trkpt lat="45.6005" lon="5.26607">
        <ele>230</ele>
        <time>2016-07-13T07:37:36Z</time>
      </trkpt>
      <trkpt lat="45.60027" lon="5.26607">
        <ele>230</ele>
        <time>2016-07-13T07:39:36Z</time>
      </trkpt>
      <trkpt lat="45.60001" lon="5.26611">
        <ele>231</ele>
        <time>2016-07-13T07:41:36Z</time>
      </trkpt>
      <trkpt lat="45.5999" lon="5.26613">
        <ele>231</ele>
        <time>2016-07-13T07:43:36Z</time>
      </trkpt>
      <trkpt lat="45.59977" lon="5.26619">
        <ele>230</ele>
        <time>2016-07-13T07:45:36Z</time>
      </trkpt>
      <trkpt lat="45.59968" lon="5.26621">
        <ele>230</ele>
        <time>2016-07-13T07:47:36Z</time>
      </trkpt>
      <trkpt lat="45.59949" lon="5.26633">
        <ele>230</ele>
        <time>2016-07-13T07:49:36Z</time>
      </trkpt>
      <trkpt lat="45.59939" lon="5.26643">
        <ele>230</ele>
        <time>2016-07-13T07:51:36Z</time>
      </trkpt>
      <trkpt lat="45.59909" lon="5.26673">
        <ele>230</ele>
        <time>2016-07-13T07:53:36Z</time>
      </trkpt>
      <trkpt lat="45.59885" lon="5.26695">
        <ele>230</ele>
        <time>2016-07-13T07:55:36Z</time>
      </trkpt>
      <trkpt lat="45.59883" lon="5.26694">
        <ele>230</ele>
        <time>2016-07-13T07:57:36Z</time>
      </trkpt>
      <trkpt lat="45.5988" lon="5.26694">
        <ele>230</ele>
        <time>2016-07-13T07:59:36Z</time>
      </trkpt>
      <trkpt lat="45.59877" lon="5.26695">
        <ele>230</ele>
        <time>2016-07-13T08:01:36Z</time>
      </trkpt>
      <trkpt lat="45.59875" lon="5.26696">
        <ele>230</ele>
        <time>2016-07-13T08:03:36Z</time>
      </trkpt>
      <trkpt lat="45.59874" lon="5.26698">
        <ele>230</ele>
        <time>2016-07-13T08:05:36Z</time>
      </trkpt>
      <trkpt lat="45.59873" lon="5.26699">
        <ele>230</ele>
        <time>2016-07-13T08:07:36Z</time>
      </trkpt>
      <trkpt lat="45.59873" lon="5.26701">
        <ele>230</ele>
        <time>2016-07-13T08:09:36Z</time>
      </trkpt>
      <trkpt lat="45.59872" lon="5.26704">
        <ele>230</ele>
        <time>2016-07-13T08:11:36Z</time>
      </trkpt>
      <trkpt lat="45.59873" lon="5.26706">
        <ele>230</ele>
        <time>2016-07-13T08:13:36Z</time>
      </trkpt>
      <trkpt lat="45.59856" lon="5.2672">
        <ele>230</ele>
        <time>2016-07-13T08:15:36Z</time>
      </trkpt>
      <trkpt lat="45.59835" lon="5.26735">
        <ele>230</ele>
        <time>2016-07-13T08:17:36Z</time>
      </trkpt>
      <trkpt lat="45.59704" lon="5.26813">
        <ele>232</ele>
        <time>2016-07-13T08:19:36Z</time>
      </trkpt>
      <trkpt lat="45.59694" lon="5.26818">
        <ele>232</ele>
        <time>2016-07-13T08:21:36Z</time>
      </trkpt>
      <trkpt lat="45.5965" lon="5.26844">
        <ele>232</ele>
        <time>2016-07-13T08:23:36Z</time>
      </trkpt>
      <trkpt lat="45.59635" lon="5.26853">
        <ele>233</ele>
        <time>2016-07-13T08:25:36Z</time>
      </trkpt>
      <trkpt lat="45.59602" lon="5.26873">
        <ele>233</ele>
        <time>2016-07-13T08:27:36Z</time>
      </trkpt>
      <trkpt lat="45.59549" lon="5.26903">
        <ele>233</ele>
        <time>2016-07-13T08:29:36Z</time>
      </trkpt>
      <trkpt lat="45.59485" lon="5.26938">
        <ele>233</ele>
        <time>2016-07-13T08:31:36Z</time>
      </trkpt>
      <trkpt lat="45.59477" lon="5.26943">
        <ele>233</ele>
        <time>2016-07-13T08:33:36Z</time>
      </trkpt>
      <trkpt lat="45.59452" lon="5.26964">
        <ele>233</ele>
        <time>2016-07-13T08:35:36Z</time>
      </trkpt>
      <trkpt lat="45.59448" lon="5.26966">
        <ele>233</ele>
        <time>2016-07-13T08:37:36Z</time>
      </trkpt>
      <trkpt lat="45.59442" lon="5.26968">
        <ele>233</ele>
        <time>2016-07-13T08:39:36Z</time>
      </trkpt>
      <trkpt lat="45.59433" lon="5.26968">
        <ele>233</ele>
        <time>2016-07-13T08:41:36Z</time>
      </trkpt>
      <trkpt lat="45.5943" lon="5.26964">
        <ele>233</ele>
        <time>2016-07-13T08:43:36Z</time>
      </trkpt>
      <trkpt lat="45.59428" lon="5.26962">
        <ele>233</ele>
        <time>2016-07-13T08:45:36Z</time>
      </trkpt>
      <trkpt lat="45.59425" lon="5.26961">
        <ele>233</ele>
        <time>2016-07-13T08:47:36Z</time>
      </trkpt>
      <trkpt lat="45.59423" lon="5.26961">
        <ele>233</ele>
        <time>2016-07-13T08:49:36Z</time>
      </trkpt>
      <trkpt lat="45.59418" lon="5.2696">
        <ele>233</ele>
        <time>2016-07-13T08:51:36Z</time>
      </trkpt>
      <trkpt lat="45.59414" lon="5.26962">
        <ele>233</ele>
        <time>2016-07-13T08:53:36Z</time>
      </trkpt>
      <trkpt lat="45.59411" lon="5.26965">
        <ele>233</ele>
        <time>2016-07-13T08:55:36Z</time>
      </trkpt>
      <trkpt lat="45.59406" lon="5.26969">
        <ele>233</ele>
        <time>2016-07-13T08:57:36Z</time>
      </trkpt>
      <trkpt lat="45.59405" lon="5.26971">
        <ele>233</ele>
        <time>2016-07-13T08:59:36Z</time>
      </trkpt>
      <trkpt lat="45.59404" lon="5.26974">
        <ele>233</ele>
        <time>2016-07-13T09:01:36Z</time>
      </trkpt>
      <trkpt lat="45.59403" lon="5.26977">
        <ele>233</ele>
        <time>2016-07-13T09:03:36Z</time>
      </trkpt>
      <trkpt lat="45.59402" lon="5.26981">
        <ele>233</ele>
        <time>2016-07-13T09:05:36Z</time>
      </trkpt>
      <trkpt lat="45.59396" lon="5.26989">
        <ele>234</ele>
        <time>2016-07-13T09:07:36Z</time>
      </trkpt>
      <trkpt lat="45.59392" lon="5.26994">
        <ele>234</ele>
        <time>2016-07-13T09:09:36Z</time>
      </trkpt>
      <trkpt lat="45.59384" lon="5.27">
        <ele>234</ele>
        <time>2016-07-13T09:11:36Z</time>
      </trkpt>
      <trkpt lat="45.59295" lon="5.27053">
        <ele>236</ele>
        <time>2016-07-13T09:13:36Z</time>
      </trkpt>
      <trkpt lat="45.59264" lon="5.27075">
        <ele>237</ele>
        <time>2016-07-13T09:15:36Z</time>
      </trkpt>
      <trkpt lat="45.59256" lon="5.2708">
        <ele>238</ele>
        <time>2016-07-13T09:17:36Z</time>
      </trkpt>
      <trkpt lat="45.59243" lon="5.27088">
        <ele>238</ele>
        <time>2016-07-13T09:19:36Z</time>
      </trkpt>
      <trkpt lat="45.59198" lon="5.27113">
        <ele>239</ele>
        <time>2016-07-13T09:21:36Z</time>
      </trkpt>
      <trkpt lat="45.59179" lon="5.27124">
        <ele>239</ele>
        <time>2016-07-13T09:23:36Z</time>
      </trkpt>
      <trkpt lat="45.59134" lon="5.27149">
        <ele>240</ele>
        <time>2016-07-13T09:25:36Z</time>
      </trkpt>
      <trkpt lat="45.59124" lon="5.27154">
        <ele>240</ele>
        <time>2016-07-13T09:27:36Z</time>
      </trkpt>
      <trkpt lat="45.59092" lon="5.27181">
        <ele>242</ele>
        <time>2016-07-13T09:29:36Z</time>
      </trkpt>
      <trkpt lat="45.59082" lon="5.27191">
        <ele>242</ele>
        <time>2016-07-13T09:31:36Z</time>
      </trkpt>
      <trkpt lat="45.59079" lon="5.27193">
        <ele>242</ele>
        <time>2016-07-13T09:33:36Z</time>
      </trkpt>
      <trkpt lat="45.59061" lon="5.27213">
        <ele>242</ele>
        <time>2016-07-13T09:35:36Z</time>
      </trkpt>
      <trkpt lat="45.59058" lon="5.27216">
        <ele>242</ele>
        <time>2016-07-13T09:37:36Z</time>
      </trkpt>
      <trkpt lat="45.59052" lon="5.27222">
        <ele>242</ele>
        <time>2016-07-13T09:39:36Z</time>
      </trkpt>
      <trkpt lat="45.58994" lon="5.27287">
        <ele>243</ele>
        <time>2016-07-13T09:41:36Z</time>
      </trkpt>
      <trkpt lat="45.5898" lon="5.27298">
        <ele>243</ele>
        <time>2016-07-13T09:43:36Z</time>
      </trkpt>
      <trkpt lat="45.58976" lon="5.273">
        <ele>243</ele>
        <time>2016-07-13T09:45:36Z</time>
      </trkpt>
      <trkpt lat="45.58971" lon="5.27302">
        <ele>242</ele>
        <time>2016-07-13T09:47:36Z</time>
      </trkpt>
      <trkpt lat="45.58958" lon="5.27305">
        <ele>242</ele>
        <time>2016-07-13T09:49:36Z</time>
      </trkpt>
      <trkpt lat="45.58958" lon="5.27305">
        <ele>242</ele>
        <time>2016-07-13T09:51:36Z</time>
      </trkpt>
      <trkpt lat="45.58947" lon="5.27309">
        <ele>242</ele>
        <time>2016-07-13T09:53:36Z</time>
      </trkpt>
      <trkpt lat="45.58944" lon="5.27309">
        <ele>242</ele>
        <time>2016-07-13T09:55:36Z</time>
      </trkpt>
      <trkpt lat="45.58937" lon="5.2731">
        <ele>242</ele>
        <time>2016-07-13T09:57:36Z</time>
      </trkpt>
      <trkpt lat="45.58915" lon="5.27307">
        <ele>242</ele>
        <time>2016-07-13T09:59:36Z</time>
      </trkpt>
      <trkpt lat="45.58888" lon="5.27295">
        <ele>243</ele>
        <time>2016-07-13T10:01:36Z</time>
      </trkpt>
      <trkpt lat="45.58879" lon="5.27296">
        <ele>243</ele>
        <time>2016-07-13T10:03:36Z</time>
      </trkpt>
      <trkpt lat="45.58879" lon="5.27296">
        <ele>243</ele>
        <time>2016-07-13T10:05:36Z</time>
      </trkpt>
      <trkpt lat="45.58881" lon="5.27307">
        <ele>243</ele>
        <time>2016-07-13T10:07:36Z</time>
      </trkpt>
      <trkpt lat="45.5891" lon="5.27427">
        <ele>241</ele>
        <time>2016-07-13T10:09:36Z</time>
      </trkpt>
      <trkpt lat="45.5891" lon="5.27427">
        <ele>241</ele>
        <time>2016-07-13T10:11:36Z</time>
      </trkpt>
      <trkpt lat="45.58876" lon="5.27447">
        <ele>242</ele>
        <time>2016-07-13T10:13:36Z</time>
      </trkpt>
      <trkpt lat="45.58875" lon="5.27449">
        <ele>243</ele>
        <time>2016-07-13T10:15:36Z</time>
      </trkpt>
      <trkpt lat="45.58837" lon="5.27473">
        <ele>243</ele>
        <time>2016-07-13T10:17:36Z</time>
      </trkpt>
      <trkpt lat="45.58829" lon="5.27477">
        <ele>243</ele>
        <time>2016-07-13T10:19:36Z</time>
      </trkpt>
      <trkpt lat="45.58811" lon="5.27486">
        <ele>243</ele>
        <time>2016-07-13T10:21:36Z</time>
      </trkpt>
      <trkpt lat="45.58794" lon="5.27496">
        <ele>244</ele>
        <time>2016-07-13T10:23:36Z</time>
      </trkpt>
      <trkpt lat="45.58791" lon="5.27497">
        <ele>244</ele>
        <time>2016-07-13T10:25:36Z</time>
      </trkpt>
      <trkpt lat="45.58788" lon="5.27499">
        <ele>244</ele>
        <time>2016-07-13T10:27:36Z</time>
      </trkpt>
      <trkpt lat="45.58769" lon="5.27511">
        <ele>244</ele>
        <time>2016-07-13T10:29:36Z</time>
      </trkpt>
      <trkpt lat="45.5874" lon="5.27526">
        <ele>245</ele>
        <time>2016-07-13T10:31:36Z</time>
      </trkpt>
      <trkpt lat="45.58725" lon="5.27533">
        <ele>246</ele>
        <time>2016-07-13T10:33:36Z</time>
      </trkpt>
      <trkpt lat="45.58722" lon="5.27534">
        <ele>246</ele>
        <time>2016-07-13T10:35:36Z</time>
      </trkpt>
      <trkpt lat="45.58708" lon="5.27539">
        <ele>247</ele>
        <time>2016-07-13T10:37:36Z</time>
      </trkpt>
      <trkpt lat="45.58699" lon="5.27541">
        <ele>248</ele>
        <time>2016-07-13T10:39:36Z</time>
      </trkpt>
      <trkpt lat="45.58685" lon="5.27542">
        <ele>248</ele>
        <time>2016-07-13T10:41:36Z</time>
      </trkpt>
      <trkpt lat="45.58685" lon="5.27542">
        <ele>248</ele>
        <time>2016-07-13T10:43:36Z</time>
      </trkpt>
      <trkpt lat="45.58661" lon="5.27543">
        <ele>250</ele>
        <time>2016-07-13T10:45:36Z</time>
      </trkpt>
      <trkpt lat="45.58645" lon="5.27544">
        <ele>251</ele>
        <time>2016-07-13T10:47:36Z</time>
      </trkpt>
      <trkpt lat="45.5864" lon="5.27544">
        <ele>251</ele>
        <time>2016-07-13T10:49:36Z</time>
      </trkpt>
      <trkpt lat="45.58629" lon="5.27545">
        <ele>251</ele>
        <time>2016-07-13T10:51:36Z</time>
      </trkpt>
      <trkpt lat="45.58607" lon="5.27547">
        <ele>252</ele>
        <time>2016-07-13T10:53:36Z</time>
      </trkpt>
      <trkpt lat="45.58586" lon="5.27549">
        <ele>253</ele>
        <time>2016-07-13T10:55:36Z</time>
      </trkpt>
      <trkpt lat="45.58554" lon="5.27549">
        <ele>254</ele>
        <time>2016-07-13T10:57:36Z</time>
      </trkpt>
      <trkpt lat="45.58554" lon="5.27549">
        <ele>254</ele>
        <time>2016-07-13T10:59:36Z</time>
      </trkpt>
      <trkpt lat="45.58553" lon="5.27558">
        <ele>254</ele>
        <time>2016-07-13T11:01:36Z</time>
      </trkpt>
      <trkpt lat="45.58544" lon="5.276">
        <ele>255</ele>
        <time>2016-07-13T11:03:36Z</time>
      </trkpt>
      <trkpt lat="45.58532" lon="5.27653">
        <ele>257</ele>
        <time>2016-07-13T11:05:36Z</time>
      </trkpt>
      <trkpt lat="45.5853" lon="5.27662">
        <ele>257</ele>
        <time>2016-07-13T11:07:36Z</time>
      </trkpt>
      <trkpt lat="45.58527" lon="5.27676">
        <ele>257</ele>
        <time>2016-07-13T11:09:36Z</time>
      </trkpt>
      <trkpt lat="45.58527" lon="5.27682">
        <ele>256</ele>
        <time>2016-07-13T11:11:36Z</time>
      </trkpt>
      <trkpt lat="45.58526" lon="5.27747">
        <ele>253</ele>
        <time>2016-07-13T11:13:36Z</time>
      </trkpt>
      <trkpt lat="45.58528" lon="5.27777">
        <ele>253</ele>
        <time>2016-07-13T11:15:36Z</time>
      </trkpt>
      <trkpt lat="45.58528" lon="5.27777">
        <ele>253</ele>
        <time>2016-07-13T11:17:36Z</time>
      </trkpt>
      <trkpt lat="45.58524" lon="5.27799">
        <ele>253</ele>
        <time>2016-07-13T11:19:36Z</time>
      </trkpt>
      <trkpt lat="45.58524" lon="5.27799">
        <ele>253</ele>
        <time>2016-07-13T11:21:36Z</time>
      </trkpt>
      <trkpt lat="45.5852" lon="5.2787">
        <ele>252</ele>
        <time>2016-07-13T11:23:36Z</time>
      </trkpt>
      <trkpt lat="45.58518" lon="5.27891">
        <ele>251</ele>
        <time>2016-07-13T11:25:36Z</time>
      </trkpt>
      <trkpt lat="45.58516" lon="5.27924">
        <ele>249</ele>
        <time>2016-07-13T11:27:36Z</time>
      </trkpt>
      <trkpt lat="45.58515" lon="5.27937">
        <ele>249</ele>
        <time>2016-07-13T11:29:36Z</time>
      </trkpt>
      <trkpt lat="45.58511" lon="5.27977">
        <ele>248</ele>
        <time>2016-07-13T11:31:36Z</time>
      </trkpt>
      <trkpt lat="45.58511" lon="5.27984">
        <ele>248</ele>
        <time>2016-07-13T11:33:36Z</time>
      </trkpt>
      <trkpt lat="45.58508" lon="5.28036">
        <ele>248</ele>
        <time>2016-07-13T11:35:36Z</time>
      </trkpt>
      <trkpt lat="45.58505" lon="5.28077">
        <ele>249</ele>
        <time>2016-07-13T11:37:36Z</time>
      </trkpt>
      <trkpt lat="45.58503" lon="5.281">
        <ele>249</ele>
        <time>2016-07-13T11:39:36Z</time>
      </trkpt>
      <trkpt lat="45.58503" lon="5.281">
        <ele>249</ele>
        <time>2016-07-13T11:41:36Z</time>
      </trkpt>
      <trkpt lat="45.58503" lon="5.28115">
        <ele>249</ele>
        <time>2016-07-13T11:43:36Z</time>
      </trkpt>
      <trkpt lat="45.58499" lon="5.2814">
        <ele>249</ele>
        <time>2016-07-13T11:45:36Z</time>
      </trkpt>
      <trkpt lat="45.58495" lon="5.2818">
        <ele>249</ele>
        <time>2016-07-13T11:47:36Z</time>
      </trkpt>
      <trkpt lat="45.58488" lon="5.28276">
        <ele>249</ele>
        <time>2016-07-13T11:49:36Z</time>
      </trkpt>
      <trkpt lat="45.58484" lon="5.2832">
        <ele>249</ele>
        <time>2016-07-13T11:51:36Z</time>
      </trkpt>
      <trkpt lat="45.58481" lon="5.28355">
        <ele>250</ele>
        <time>2016-07-13T11:53:36Z</time>
      </trkpt>
      <trkpt lat="45.58479" lon="5.28408">
        <ele>250</ele>
        <time>2016-07-13T11:55:36Z</time>
      </trkpt>
      <trkpt lat="45.58476" lon="5.28492">
        <ele>252</ele>
        <time>2016-07-13T11:57:36Z</time>
      </trkpt>
      <trkpt lat="45.58472" lon="5.28543">
        <ele>252</ele>
        <time>2016-07-13T11:59:36Z</time>
      </trkpt>
      <trkpt lat="45.58472" lon="5.28543">
        <ele>252</ele>
        <time>2016-07-13T12:01:36Z</time>
      </trkpt>
      <trkpt lat="45.5845" lon="5.28546">
        <ele>253</ele>
        <time>2016-07-13T12:03:36Z</time>
      </trkpt>
      <trkpt lat="45.58441" lon="5.28548">
        <ele>253</ele>
        <time>2016-07-13T12:05:36Z</time>
      </trkpt>
      <trkpt lat="45.58441" lon="5.28548">
        <ele>253</ele>
        <time>2016-07-13T12:07:36Z</time>
      </trkpt>
      <trkpt lat="45.58442" lon="5.28581">
        <ele>254</ele>
        <time>2016-07-13T12:09:36Z</time>
      </trkpt>
      <trkpt lat="45.58442" lon="5.28589">
        <ele>254</ele>
        <time>2016-07-13T12:11:36Z</time>
      </trkpt>
      <trkpt lat="45.58442" lon="5.28622">
        <ele>254</ele>
        <time>2016-07-13T12:13:36Z</time>
      </trkpt>
      <trkpt lat="45.58441" lon="5.28657">
        <ele>253</ele>
        <time>2016-07-13T12:15:36Z</time>
      </trkpt>
      <trkpt lat="45.58441" lon="5.28673">
        <ele>253</ele>
        <time>2016-07-13T12:17:36Z</time>
      </trkpt>
      <trkpt lat="45.5844" lon="5.2869">
        <ele>253</ele>
        <time>2016-07-13T12:19:36Z</time>
      </trkpt>
      <trkpt lat="45.58437" lon="5.28723">
        <ele>252</ele>
        <time>2016-07-13T12:21:36Z</time>
      </trkpt>
      <trkpt lat="45.58435" lon="5.28741">
        <ele>252</ele>
        <time>2016-07-13T12:23:36Z</time>
      </trkpt>
      <trkpt lat="45.5843" lon="5.2878">
        <ele>251</ele>
        <time>2016-07-13T12:25:36Z</time>
      </trkpt>
      <trkpt lat="45.58425" lon="5.28808">
        <ele>251</ele>
        <time>2016-07-13T12:27:36Z</time>
      </trkpt>
      <trkpt lat="45.58416" lon="5.28859">
        <ele>251</ele>
        <time>2016-07-13T12:29:36Z</time>
      </trkpt>
      <trkpt lat="45.5841" lon="5.28893">
        <ele>252</ele>
        <time>2016-07-13T12:31:36Z</time>
      </trkpt>
      <trkpt lat="45.58403" lon="5.28927">
        <ele>253</ele>
        <time>2016-07-13T12:33:36Z</time>
      </trkpt>
      <trkpt lat="45.58395" lon="5.28982">
        <ele>252</ele>
        <time>2016-07-13T12:35:36Z</time>
      </trkpt>
      <trkpt lat="45.5839" lon="5.29032">
        <ele>251</ele>
        <time>2016-07-13T12:37:36Z</time>
      </trkpt>
      <trkpt lat="45.5839" lon="5.29032">
        <ele>251</ele>
        <time>2016-07-13T12:39:36Z</time>
      </trkpt>
      <trkpt lat="45.58381" lon="5.29047">
        <ele>252</ele>
        <time>2016-07-13T12:41:36Z</time>
      </trkpt>
      <trkpt lat="45.58381" lon="5.29049">
        <ele>252</ele>
        <time>2016-07-13T12:43:36Z</time>
      </trkpt>
      <trkpt lat="45.58375" lon="5.29078">
        <ele>253</ele>
        <time>2016-07-13T12:45:36Z</time>
      </trkpt>
      <trkpt lat="45.58374" lon="5.29085">
        <ele>253</ele>
        <time>2016-07-13T12:47:36Z</time>
      </trkpt>
      <trkpt lat="45.58358" lon="5.29174">
        <ele>256</ele>
        <time>2016-07-13T12:49:36Z</time>
      </trkpt>
      <trkpt lat="45.58352" lon="5.29215">
        <ele>256</ele>
        <time>2016-07-13T12:51:36Z</time>
      </trkpt>
      <trkpt lat="45.58347" lon="5.29248">
        <ele>256</ele>
        <time>2016-07-13T12:53:36Z</time>
      </trkpt>
      <trkpt lat="45.58318" lon="5.29404">
        <ele>260</ele>
        <time>2016-07-13T12:55:36Z</time>
      </trkpt>
      <trkpt lat="45.58311" lon="5.29438">
        <ele>260</ele>
        <time>2016-07-13T12:57:36Z</time>
      </trkpt>
      <trkpt lat="45.58306" lon="5.29458">
        <ele>259</ele>
        <time>2016-07-13T12:59:36Z</time>
      </trkpt>
      <trkpt lat="45.58295" lon="5.29492">
        <ele>259</ele>
        <time>2016-07-13T13:01:36Z</time>
      </trkpt>
      <trkpt lat="45.58277" lon="5.29537">
        <ele>258</ele>
        <time>2016-07-13T13:03:36Z</time>
      </trkpt>
      <trkpt lat="45.5826" lon="5.29573">
        <ele>257</ele>
        <time>2016-07-13T13:05:36Z</time>
      </trkpt>
      <trkpt lat="45.58247" lon="5.29598">
        <ele>256</ele>
        <time>2016-07-13T13:07:36Z</time>
      </trkpt>
      <trkpt lat="45.58232" lon="5.29625">
        <ele>258</ele>
        <time>2016-07-13T13:09:36Z</time>
      </trkpt>
      <trkpt lat="45.58212" lon="5.29656">
        <ele>259</ele>
        <time>2016-07-13T13:11:36Z</time>
      </trkpt>
      <trkpt lat="45.58196" lon="5.2968">
        <ele>258</ele>
        <time>2016-07-13T13:13:36Z</time>
      </trkpt>
      <trkpt lat="45.58165" lon="5.29728">
        <ele>257</ele>
        <time>2016-07-13T13:15:36Z</time>
      </trkpt>
      <trkpt lat="45.58144" lon="5.2976">
        <ele>259</ele>
        <time>2016-07-13T13:17:36Z</time>
      </trkpt>
      <trkpt lat="45.58103" lon="5.29824">
        <ele>259</ele>
        <time>2016-07-13T13:19:36Z</time>
      </trkpt>
      <trkpt lat="45.58098" lon="5.29824">
        <ele>259</ele>
        <time>2016-07-13T13:21:36Z</time>
      </trkpt>
      <trkpt lat="45.58097" lon="5.29825">
        <ele>259</ele>
        <time>2016-07-13T13:23:36Z</time>
      </trkpt>
      <trkpt lat="45.58097" lon="5.29826">
        <ele>259</ele>
        <time>2016-07-13T13:25:36Z</time>
      </trkpt>
      <trkpt lat="45.58096" lon="5.29827">
        <ele>258</ele>
        <time>2016-07-13T13:27:36Z</time>
      </trkpt>
      <trkpt lat="45.58064" lon="5.29869">
        <ele>263</ele>
        <time>2016-07-13T13:29:36Z</time>
      </trkpt>
      <trkpt lat="45.58033" lon="5.2991">
        <ele>268</ele>
        <time>2016-07-13T13:31:36Z</time>
      </trkpt>
      <trkpt lat="45.58027" lon="5.29919">
        <ele>268</ele>
        <time>2016-07-13T13:33:36Z</time>
      </trkpt>
      <trkpt lat="45.58005" lon="5.29949">
        <ele>267</ele>
        <time>2016-07-13T13:35:36Z</time>
      </trkpt>
      <trkpt lat="45.57998" lon="5.29958">
        <ele>266</ele>
        <time>2016-07-13T13:37:36Z</time>
      </trkpt>
      <trkpt lat="45.57957" lon="5.30019">
        <ele>259</ele>
        <time>2016-07-13T13:39:36Z</time>
      </trkpt>
      <trkpt lat="45.57938" lon="5.30045">
        <ele>258</ele>
        <time>2016-07-13T13:41:36Z</time>
      </trkpt>
      <trkpt lat="45.57937" lon="5.30046">
        <ele>258</ele>
        <time>2016-07-13T13:43:36Z</time>
      </trkpt>
      <trkpt lat="45.57937" lon="5.30047">
        <ele>258</ele>
        <time>2016-07-13T13:45:36Z</time>
      </trkpt>
      <trkpt lat="45.57936" lon="5.30053">
        <ele>258</ele>
        <time>2016-07-13T13:47:36Z</time>
      </trkpt>
      <trkpt lat="45.57897" lon="5.30101">
        <ele>258</ele>
        <time>2016-07-13T13:49:36Z</time>
      </trkpt>
      <trkpt lat="45.57892" lon="5.30107">
        <ele>258</ele>
        <time>2016-07-13T13:51:36Z</time>
      </trkpt>
      <trkpt lat="45.57887" lon="5.30112">
        <ele>259</ele>
        <time>2016-07-13T13:53:36Z</time>
      </trkpt>
      <trkpt lat="45.57878" lon="5.3012">
        <ele>259</ele>
        <time>2016-07-13T13:55:36Z</time>
      </trkpt>
      <trkpt lat="45.57863" lon="5.30133">
        <ele>260</ele>
        <time>2016-07-13T13:57:36Z</time>
      </trkpt>
      <trkpt lat="45.57851" lon="5.30142">
        <ele>261</ele>
        <time>2016-07-13T13:59:36Z</time>
      </trkpt>
      <trkpt lat="45.57831" lon="5.30155">
        <ele>262</ele>
        <time>2016-07-13T14:01:36Z</time>
      </trkpt>
      <trkpt lat="45.57814" lon="5.30166">
        <ele>261</ele>
        <time>2016-07-13T14:03:36Z</time>
      </trkpt>
      <trkpt lat="45.57807" lon="5.30165">
        <ele>261</ele>
        <time>2016-07-13T14:05:36Z</time>
      </trkpt>
      <trkpt lat="45.57806" lon="5.30165">
        <ele>261</ele>
        <time>2016-07-13T14:07:36Z</time>
      </trkpt>
      <trkpt lat="45.57805" lon="5.30165">
        <ele>261</ele>
        <time>2016-07-13T14:09:36Z</time>
      </trkpt>
      <trkpt lat="45.57805" lon="5.30166">
        <ele>261</ele>
        <time>2016-07-13T14:11:36Z</time>
      </trkpt>
      <trkpt lat="45.57783" lon="5.30176">
        <ele>260</ele>
        <time>2016-07-13T14:13:36Z</time>
      </trkpt>
      <trkpt lat="45.57765" lon="5.30184">
        <ele>260</ele>
        <time>2016-07-13T14:15:36Z</time>
      </trkpt>
      <trkpt lat="45.57753" lon="5.30188">
        <ele>259</ele>
        <time>2016-07-13T14:17:36Z</time>
      </trkpt>
      <trkpt lat="45.57737" lon="5.30191">
        <ele>260</ele>
        <time>2016-07-13T14:19:36Z</time>
      </trkpt>
      <trkpt lat="45.57723" lon="5.30194">
        <ele>260</ele>
        <time>2016-07-13T14:21:36Z</time>
      </trkpt>
      <trkpt lat="45.57706" lon="5.30196">
        <ele>261</ele>
        <time>2016-07-13T14:23:36Z</time>
      </trkpt>
      <trkpt lat="45.57699" lon="5.30196">
        <ele>261</ele>
        <time>2016-07-13T14:25:36Z</time>
      </trkpt>
      <trkpt lat="45.57683" lon="5.30197">
        <ele>262</ele>
        <time>2016-07-13T14:27:36Z</time>
      </trkpt>
      <trkpt lat="45.57677" lon="5.30197">
        <ele>262</ele>
        <time>2016-07-13T14:29:36Z</time>
      </trkpt>
      <trkpt lat="45.57655" lon="5.30196">
        <ele>263</ele>
        <time>2016-07-13T14:31:36Z</time>
      </trkpt>
      <trkpt lat="45.57644" lon="5.30195">
        <ele>263</ele>
        <time>2016-07-13T14:33:36Z</time>
      </trkpt>
      <trkpt lat="45.57644" lon="5.30195">
        <ele>263</ele>
        <time>2016-07-13T14:35:36Z</time>
      </trkpt>
      <trkpt lat="45.57643" lon="5.30203">
        <ele>263</ele>
        <time>2016-07-13T14:37:36Z</time>
      </trkpt>
      <trkpt lat="45.57642" lon="5.30211">
        <ele>263</ele>
        <time>2016-07-13T14:39:36Z</time>
      </trkpt>
      <trkpt lat="45.57641" lon="5.30216">
        <ele>263</ele>
        <time>2016-07-13T14:41:36Z</time>
      </trkpt>
      <trkpt lat="45.57638" lon="5.30221">
        <ele>263</ele>
        <time>2016-07-13T14:43:36Z</time>
      </trkpt>
      <trkpt lat="45.5763" lon="5.30228">
        <ele>263</ele>
        <time>2016-07-13T14:45:36Z</time>
      </trkpt>
      <trkpt lat="45.57613" lon="5.30237">
        <ele>263</ele>
        <time>2016-07-13T14:47:36Z</time>
      </trkpt>
      <trkpt lat="45.57584" lon="5.3025">
        <ele>263</ele>
        <time>2016-07-13T14:49:36Z</time>
      </trkpt>
      <trkpt lat="45.57559" lon="5.30263">
        <ele>264</ele>
        <time>2016-07-13T14:51:36Z</time>
      </trkpt>
      <trkpt lat="45.57544" lon="5.30273">
        <ele>264</ele>
        <time>2016-07-13T14:53:36Z</time>
      </trkpt>
      <trkpt lat="45.57527" lon="5.30288">
        <ele>264</ele>
        <time>2016-07-13T14:55:36Z</time>
      </trkpt>
      <trkpt lat="45.57511" lon="5.30304">
        <ele>264</ele>
        <time>2016-07-13T14:57:36Z</time>
      </trkpt>
      <trkpt lat="45.57497" lon="5.30321">
        <ele>264</ele>
        <time>2016-07-13T14:59:36Z</time>
      </trkpt>
      <trkpt lat="45.57492" lon="5.3033">
        <ele>264</ele>
        <time>2016-07-13T15:01:36Z</time>
      </trkpt>
      <trkpt lat="45.57485" lon="5.30344">
        <ele>264</ele>
        <time>2016-07-13T15:03:36Z</time>
      </trkpt>
      <trkpt lat="45.57467" lon="5.30395">
        <ele>265</ele>
        <time>2016-07-13T15:05:36Z</time>
      </trkpt>
      <trkpt lat="45.57446" lon="5.3045">
        <ele>266</ele>
        <time>2016-07-13T15:07:36Z</time>
      </trkpt>
      <trkpt lat="45.57434" lon="5.30483">
        <ele>266</ele>
        <time>2016-07-13T15:09:36Z</time>
      </trkpt>
      <trkpt lat="45.57416" lon="5.30529">
        <ele>266</ele>
        <time>2016-07-13T15:11:36Z</time>
      </trkpt>
      <trkpt lat="45.5741" lon="5.30548">
        <ele>265</ele>
        <time>2016-07-13T15:13:36Z</time>
      </trkpt>
      <trkpt lat="45.57404" lon="5.30564">
        <ele>265</ele>
        <time>2016-07-13T15:15:36Z</time>
      </trkpt>
      <trkpt lat="45.57387" lon="5.3061">
        <ele>265</ele>
        <time>2016-07-13T15:17:36Z</time>
      </trkpt>
      <trkpt lat="45.57382" lon="5.30623">
        <ele>265</ele>
        <time>2016-07-13T15:19:36Z</time>
      </trkpt>
      <trkpt lat="45.57378" lon="5.30632">
        <ele>265</ele>
        <time>2016-07-13T15:21:36Z</time>
      </trkpt>
      <trkpt lat="45.57375" lon="5.3064">
        <ele>265</ele>
        <time>2016-07-13T15:23:36Z</time>
      </trkpt>
      <trkpt lat="45.57366" lon="5.30664">
        <ele>266</ele>
        <time>2016-07-13T15:25:36Z</time>
      </trkpt>
      <trkpt lat="45.57349" lon="5.30708">
        <ele>266</ele>
        <time>2016-07-13T15:27:36Z</time>
      </trkpt>
      <trkpt lat="45.57338" lon="5.30736">
        <ele>266</ele>
        <time>2016-07-13T15:29:36Z</time>
      </trkpt>
      <trkpt lat="45.5731" lon="5.30811">
        <ele>267</ele>
        <time>2016-07-13T15:31:36Z</time>
      </trkpt>
      <trkpt lat="45.57308" lon="5.30815">
        <ele>267</ele>
        <time>2016-07-13T15:33:36Z</time>
      </trkpt>
      <trkpt lat="45.57303" lon="5.30828">
        <ele>267</ele>
        <time>2016-07-13T15:35:36Z</time>
      </trkpt>
      <trkpt lat="45.57287" lon="5.30867">
        <ele>267</ele>
        <time>2016-07-13T15:37:36Z</time>
      </trkpt>
      <trkpt lat="45.57268" lon="5.30915">
        <ele>269</ele>
        <time>2016-07-13T15:39:36Z</time>
      </trkpt>
      <trkpt lat="45.5726" lon="5.30932">
        <ele>269</ele>
        <time>2016-07-13T15:41:36Z</time>
      </trkpt>
      <trkpt lat="45.57255" lon="5.30941">
        <ele>269</ele>
        <time>2016-07-13T15:43:36Z</time>
      </trkpt>
      <trkpt lat="45.57252" lon="5.30946">
        <ele>269</ele>
        <time>2016-07-13T15:45:36Z</time>
      </trkpt>
      <trkpt lat="45.57244" lon="5.30956">
        <ele>268</ele>
        <time>2016-07-13T15:47:36Z</time>
      </trkpt>
      <trkpt lat="45.5724" lon="5.30962">
        <ele>268</ele>
        <time>2016-07-13T15:49:36Z</time>
      </trkpt>
      <trkpt lat="45.57238" lon="5.30968">
        <ele>268</ele>
        <time>2016-07-13T15:51:36Z</time>
      </trkpt>
      <trkpt lat="45.57237" lon="5.30975">
        <ele>268</ele>
        <time>2016-07-13T15:53:36Z</time>
      </trkpt>
      <trkpt lat="45.57237" lon="5.30982">
        <ele>268</ele>
        <time>2016-07-13T15:55:36Z</time>
      </trkpt>
      <trkpt lat="45.57231" lon="5.3106">
        <ele>268</ele>
        <time>2016-07-13T15:57:36Z</time>
      </trkpt>
      <trkpt lat="45.57231" lon="5.3106">
        <ele>268</ele>
        <time>2016-07-13T15:59:36Z</time>
      </trkpt>
      <trkpt lat="45.57226" lon="5.31164">
        <ele>267</ele>
        <time>2016-07-13T16:01:36Z</time>
      </trkpt>
      <trkpt lat="45.57226" lon="5.3118">
        <ele>267</ele>
        <time>2016-07-13T16:03:36Z</time>
      </trkpt>
      <trkpt lat="45.57227" lon="5.31184">
        <ele>267</ele>
        <time>2016-07-13T16:05:36Z</time>
      </trkpt>
      <trkpt lat="45.57227" lon="5.31186">
        <ele>267</ele>
        <time>2016-07-13T16:07:36Z</time>
      </trkpt>
      <trkpt lat="45.57227" lon="5.31189">
        <ele>267</ele>
        <time>2016-07-13T16:09:36Z</time>
      </trkpt>
      <trkpt lat="45.57228" lon="5.3119">
        <ele>267</ele>
        <time>2016-07-13T16:11:36Z</time>
      </trkpt>
      <trkpt lat="45.57228" lon="5.31191">
        <ele>267</ele>
        <time>2016-07-13T16:13:36Z</time>
      </trkpt>
      <trkpt lat="45.57229" lon="5.31191">
        <ele>267</ele>
        <time>2016-07-13T16:15:36Z</time>
      </trkpt>
      <trkpt lat="45.5723" lon="5.31192">
        <ele>267</ele>
        <time>2016-07-13T16:17:36Z</time>
      </trkpt>
      <trkpt lat="45.57231" lon="5.31192">
        <ele>267</ele>
        <time>2016-07-13T16:19:36Z</time>
      </trkpt>
      <trkpt lat="45.57236" lon="5.31194">
        <ele>267</ele>
        <time>2016-07-13T16:21:36Z</time>
      </trkpt>
      <trkpt lat="45.5727" lon="5.31192">
        <ele>267</ele>
        <time>2016-07-13T16:23:36Z</time>
      </trkpt>
      <trkpt lat="45.5728" lon="5.31193">
        <ele>267</ele>
        <time>2016-07-13T16:25:36Z</time>
      </trkpt>
      <trkpt lat="45.57286" lon="5.31195">
        <ele>267</ele>
        <time>2016-07-13T16:27:36Z</time>
      </trkpt>
      <trkpt lat="45.5729" lon="5.31197">
        <ele>267</ele>
        <time>2016-07-13T16:29:36Z</time>
      </trkpt>
      <trkpt lat="45.57293" lon="5.31199">
        <ele>267</ele>
        <time>2016-07-13T16:31:36Z</time>
      </trkpt>
      <trkpt lat="45.57297" lon="5.31203">
        <ele>267</ele>
        <time>2016-07-13T16:33:36Z</time>
      </trkpt>
      <trkpt lat="45.573" lon="5.31207">
        <ele>267</ele>
        <time>2016-07-13T16:35:36Z</time>
      </trkpt>
      <trkpt lat="45.57305" lon="5.31215">
        <ele>268</ele>
        <time>2016-07-13T16:37:36Z</time>
      </trkpt>
      <trkpt lat="45.5731" lon="5.31224">
        <ele>268</ele>
        <time>2016-07-13T16:39:36Z</time>
      </trkpt>
      <trkpt lat="45.57312" lon="5.31231">
        <ele>268</ele>
        <time>2016-07-13T16:41:36Z</time>
      </trkpt>
      <trkpt lat="45.57313" lon="5.31238">
        <ele>268</ele>
        <time>2016-07-13T16:43:36Z</time>
      </trkpt>
      <trkpt lat="45.57313" lon="5.31245">
        <ele>269</ele>
        <time>2016-07-13T16:45:36Z</time>
      </trkpt>
      <trkpt lat="45.57312" lon="5.31252">
        <ele>269</ele>
        <time>2016-07-13T16:47:36Z</time>
      </trkpt>
      <trkpt lat="45.57311" lon="5.31258">
        <ele>269</ele>
        <time>2016-07-13T16:49:36Z</time>
      </trkpt>
      <trkpt lat="45.57295" lon="5.31312">
        <ele>270</ele>
        <time>2016-07-13T16:51:36Z</time>
      </trkpt>
      <trkpt lat="45.57282" lon="5.31366">
        <ele>271</ele>
        <time>2016-07-13T16:53:36Z</time>
      </trkpt>
      <trkpt lat="45.57278" lon="5.31378">
        <ele>271</ele>
        <time>2016-07-13T16:55:36Z</time>
      </trkpt>
      <trkpt lat="45.57274" lon="5.31393">
        <ele>271</ele>
        <time>2016-07-13T16:57:36Z</time>
      </trkpt>
      <trkpt lat="45.57272" lon="5.31401">
        <ele>271</ele>
        <time>2016-07-13T16:59:36Z</time>
      </trkpt>
      <trkpt lat="45.57269" lon="5.31415">
        <ele>271</ele>
        <time>2016-07-13T17:01:36Z</time>
      </trkpt>
      <trkpt lat="45.57242" lon="5.31519">
        <ele>268</ele>
        <time>2016-07-13T17:03:36Z</time>
      </trkpt>
      <trkpt lat="45.57232" lon="5.31562">
        <ele>266</ele>
        <time>2016-07-13T17:05:36Z</time>
      </trkpt>
      <trkpt lat="45.57225" lon="5.3159">
        <ele>266</ele>
        <time>2016-07-13T17:07:36Z</time>
      </trkpt>
      <trkpt lat="45.5722" lon="5.31613">
        <ele>266</ele>
        <time>2016-07-13T17:09:36Z</time>
      </trkpt>
      <trkpt lat="45.572" lon="5.31735">
        <ele>268</ele>
        <time>2016-07-13T17:11:36Z</time>
      </trkpt>
      <trkpt lat="45.57198" lon="5.31749">
        <ele>269</ele>
        <time>2016-07-13T17:13:36Z</time>
      </trkpt>
      <trkpt lat="45.57195" lon="5.3176">
        <ele>269</ele>
        <time>2016-07-13T17:15:36Z</time>
      </trkpt>
      <trkpt lat="45.57192" lon="5.31776">
        <ele>270</ele>
        <time>2016-07-13T17:17:36Z</time>
      </trkpt>
      <trkpt lat="45.57181" lon="5.31848">
        <ele>271</ele>
        <time>2016-07-13T17:19:36Z</time>
      </trkpt>
      <trkpt lat="45.57172" lon="5.31921">
        <ele>269</ele>
        <time>2016-07-13T17:21:36Z</time>
      </trkpt>
      <trkpt lat="45.57168" lon="5.31983">
        <ele>269</ele>
        <time>2016-07-13T17:23:36Z</time>
      </trkpt>
      <trkpt lat="45.57167" lon="5.31995">
        <ele>269</ele>
        <time>2016-07-13T17:25:36Z</time>
      </trkpt>
      <trkpt lat="45.57164" lon="5.32041">
        <ele>268</ele>
        <time>2016-07-13T17:27:36Z</time>
      </trkpt>
      <trkpt lat="45.57158" lon="5.32205">
        <ele>270</ele>
        <time>2016-07-13T17:29:36Z</time>
      </trkpt>
      <trkpt lat="45.57158" lon="5.32221">
        <ele>270</ele>
        <time>2016-07-13T17:31:36Z</time>
      </trkpt>
      <trkpt lat="45.57155" lon="5.32254">
        <ele>270</ele>
        <time>2016-07-13T17:33:36Z</time>
      </trkpt>
      <trkpt lat="45.57152" lon="5.32267">
        <ele>270</ele>
        <time>2016-07-13T17:35:36Z</time>
      </trkpt>
      <trkpt lat="45.57148" lon="5.32277">
        <ele>270</ele>
        <time>2016-07-13T17:37:36Z</time>
      </trkpt>
      <trkpt lat="45.57145" lon="5.32286">
        <ele>270</ele>
        <time>2016-07-13T17:39:36Z</time>
      </trkpt>
      <trkpt lat="45.57123" lon="5.32329">
        <ele>270</ele>
        <time>2016-07-13T17:41:36Z</time>
      </trkpt>
      <trkpt lat="45.57117" lon="5.32348">
        <ele>271</ele>
        <time>2016-07-13T17:43:36Z</time>
      </trkpt>
      <trkpt lat="45.57113" lon="5.32361">
        <ele>272</ele>
        <time>2016-07-13T17:45:36Z</time>
      </trkpt>
      <trkpt lat="45.5711" lon="5.32374">
        <ele>273</ele>
        <time>2016-07-13T17:47:36Z</time>
      </trkpt>
      <trkpt lat="45.57105" lon="5.324">
        <ele>274</ele>
        <time>2016-07-13T17:49:36Z</time>
      </trkpt>
      <trkpt lat="45.57098" lon="5.32444">
        <ele>276</ele>
        <time>2016-07-13T17:51:36Z</time>
      </trkpt>
      <trkpt lat="45.57097" lon="5.32477">
        <ele>276</ele>
        <time>2016-07-13T17:53:36Z</time>
      </trkpt>
      <trkpt lat="45.57102" lon="5.32524">
        <ele>274</ele>
        <time>2016-07-13T17:55:36Z</time>
      </trkpt>
      <trkpt lat="45.57104" lon="5.32545">
        <ele>273</ele>
        <time>2016-07-13T17:57:36Z</time>
      </trkpt>
      <trkpt lat="45.57104" lon="5.32556">
        <ele>273</ele>
        <time>2016-07-13T17:59:36Z</time>
      </trkpt>
      <trkpt lat="45.57101" lon="5.32576">
        <ele>272</ele>
        <time>2016-07-13T18:01:36Z</time>
      </trkpt>
      <trkpt lat="45.57094" lon="5.32614">
        <ele>272</ele>
        <time>2016-07-13T18:03:36Z</time>
      </trkpt>
      <trkpt lat="45.57082" lon="5.3264">
        <ele>271</ele>
        <time>2016-07-13T18:05:36Z</time>
      </trkpt>
      <trkpt lat="45.57077" lon="5.32656">
        <ele>271</ele>
        <time>2016-07-13T18:07:36Z</time>
      </trkpt>
      <trkpt lat="45.57075" lon="5.32664">
        <ele>271</ele>
        <time>2016-07-13T18:09:36Z</time>
      </trkpt>
      <trkpt lat="45.57047" lon="5.32755">
        <ele>271</ele>
        <time>2016-07-13T18:11:36Z</time>
      </trkpt>
      <trkpt lat="45.57035" lon="5.32839">
        <ele>272</ele>
        <time>2016-07-13T18:13:36Z</time>
      </trkpt>
      <trkpt lat="45.57033" lon="5.3285">
        <ele>272</ele>
        <time>2016-07-13T18:15:36Z</time>
      </trkpt>
      <trkpt lat="45.57031" lon="5.32864">
        <ele>272</ele>
        <time>2016-07-13T18:17:36Z</time>
      </trkpt>
      <trkpt lat="45.57027" lon="5.32925">
        <ele>273</ele>
        <time>2016-07-13T18:19:36Z</time>
      </trkpt>
      <trkpt lat="45.57023" lon="5.32956">
        <ele>273</ele>
        <time>2016-07-13T18:21:36Z</time>
      </trkpt>
      <trkpt lat="45.57018" lon="5.32987">
        <ele>273</ele>
        <time>2016-07-13T18:23:36Z</time>
      </trkpt>
      <trkpt lat="45.57019" lon="5.33046">
        <ele>273</ele>
        <time>2016-07-13T18:25:36Z</time>
      </trkpt>
      <trkpt lat="45.57013" lon="5.33068">
        <ele>274</ele>
        <time>2016-07-13T18:27:36Z</time>
      </trkpt>
      <trkpt lat="45.57012" lon="5.33104">
        <ele>274</ele>
        <time>2016-07-13T18:29:36Z</time>
      </trkpt>
      <trkpt lat="45.56998" lon="5.3319">
        <ele>275</ele>
        <time>2016-07-13T18:31:36Z</time>
      </trkpt>
      <trkpt lat="45.56997" lon="5.33195">
        <ele>275</ele>
        <time>2016-07-13T18:33:36Z</time>
      </trkpt>
      <trkpt lat="45.56992" lon="5.33249">
        <ele>275</ele>
        <time>2016-07-13T18:35:36Z</time>
      </trkpt>
      <trkpt lat="45.56992" lon="5.33272">
        <ele>275</ele>
        <time>2016-07-13T18:37:36Z</time>
      </trkpt>
      <trkpt lat="45.56992" lon="5.33302">
        <ele>275</ele>
        <time>2016-07-13T18:39:36Z</time>
      </trkpt>
      <trkpt lat="45.56978" lon="5.3342">
        <ele>275</ele>
        <time>2016-07-13T18:41:36Z</time>
      </trkpt>
      <trkpt lat="45.56976" lon="5.33436">
        <ele>275</ele>
        <time>2016-07-13T18:43:36Z</time>
      </trkpt>
      <trkpt lat="45.56975" lon="5.33451">
        <ele>276</ele>
        <time>2016-07-13T18:45:36Z</time>
      </trkpt>
      <trkpt lat="45.56983" lon="5.33472">
        <ele>276</ele>
        <time>2016-07-13T18:47:36Z</time>
      </trkpt>
      <trkpt lat="45.56987" lon="5.33482">
        <ele>276</ele>
        <time>2016-07-13T18:49:36Z</time>
      </trkpt>
      <trkpt lat="45.56987" lon="5.33497">
        <ele>276</ele>
        <time>2016-07-13T18:51:36Z</time>
      </trkpt>
      <trkpt lat="45.56985" lon="5.33507">
        <ele>276</ele>
        <time>2016-07-13T18:53:36Z</time>
      </trkpt>
      <trkpt lat="45.5698" lon="5.33526">
        <ele>276</ele>
        <time>2016-07-13T18:55:36Z</time>
      </trkpt>
      <trkpt lat="45.56974" lon="5.33544">
        <ele>276</ele>
        <time>2016-07-13T18:57:36Z</time>
      </trkpt>
      <trkpt lat="45.5697" lon="5.33567">
        <ele>276</ele>
        <time>2016-07-13T18:59:36Z</time>
      </trkpt>
      <trkpt lat="45.56969" lon="5.33578">
        <ele>276</ele>
        <time>2016-07-13T19:01:36Z</time>
      </trkpt>
      <trkpt lat="45.56969" lon="5.33578">
        <ele>276</ele>
        <time>2016-07-13T19:03:36Z</time>
      </trkpt>
      <trkpt lat="45.56929" lon="5.33692">
        <ele>276</ele>
        <time>2016-07-13T19:05:36Z</time>
      </trkpt>
      <trkpt lat="45.56854" lon="5.339">
        <ele>279</ele>
        <time>2016-07-13T19:07:36Z</time>
      </trkpt>
      <trkpt lat="45.56782" lon="5.34106">
        <ele>280</ele>
        <time>2016-07-13T19:09:36Z</time>
      </trkpt>
      <trkpt lat="45.56776" lon="5.34122">
        <ele>280</ele>
        <time>2016-07-13T19:11:36Z</time>
      </trkpt>
      <trkpt lat="45.56774" lon="5.34128">
        <ele>280</ele>
        <time>2016-07-13T19:13:36Z</time>
      </trkpt>
      <trkpt lat="45.56757" lon="5.34176">
        <ele>280</ele>
        <time>2016-07-13T19:15:36Z</time>
      </trkpt>
      <trkpt lat="45.56742" lon="5.34217">
        <ele>281</ele>
        <time>2016-07-13T19:17:36Z</time>
      </trkpt>
      <trkpt lat="45.56737" lon="5.34226">
        <ele>282</ele>
        <time>2016-07-13T19:19:36Z</time>
      </trkpt>
      <trkpt lat="45.56731" lon="5.34233">
        <ele>282</ele>
        <time>2016-07-13T19:21:36Z</time>
      </trkpt>
      <trkpt lat="45.56717" lon="5.34243">
        <ele>283</ele>
        <time>2016-07-13T19:23:36Z</time>
      </trkpt>
      <trkpt lat="45.56708" lon="5.34246">
        <ele>283</ele>
        <time>2016-07-13T19:25:36Z</time>
      </trkpt>
      <trkpt lat="45.56704" lon="5.34246">
        <ele>283</ele>
        <time>2016-07-13T19:27:36Z</time>
      </trkpt>
      <trkpt lat="45.56673" lon="5.34247">
        <ele>283</ele>
        <time>2016-07-13T19:29:36Z</time>
      </trkpt>
      <trkpt lat="45.56662" lon="5.3425">
        <ele>283</ele>
        <time>2016-07-13T19:31:36Z</time>
      </trkpt>
      <trkpt lat="45.56655" lon="5.34254">
        <ele>283</ele>
        <time>2016-07-13T19:33:36Z</time>
      </trkpt>
      <trkpt lat="45.56646" lon="5.34268">
        <ele>283</ele>
        <time>2016-07-13T19:35:36Z</time>
      </trkpt>
      <trkpt lat="45.56642" lon="5.34285">
        <ele>283</ele>
        <time>2016-07-13T19:37:36Z</time>
      </trkpt>
      <trkpt lat="45.56642" lon="5.34285">
        <ele>283</ele>
        <time>2016-07-13T19:39:36Z</time>
      </trkpt>
      <trkpt lat="45.56646" lon="5.34283">
        <ele>283</ele>
        <time>2016-07-13T19:41:36Z</time>
      </trkpt>
      <trkpt lat="45.5665" lon="5.3428">
        <ele>283</ele>
        <time>2016-07-13T19:43:36Z</time>
      </trkpt>
      <trkpt lat="45.56661" lon="5.34276">
        <ele>283</ele>
        <time>2016-07-13T19:45:36Z</time>
      </trkpt>
      <trkpt lat="45.56672" lon="5.34275">
        <ele>284</ele>
        <time>2016-07-13T19:47:36Z</time>
      </trkpt>
      <trkpt lat="45.56683" lon="5.34276">
        <ele>284</ele>
        <time>2016-07-13T19:49:36Z</time>
      </trkpt>
      <trkpt lat="45.56684" lon="5.34276">
        <ele>284</ele>
        <time>2016-07-13T19:51:36Z</time>
      </trkpt>
      <trkpt lat="45.56694" lon="5.3428">
        <ele>284</ele>
        <time>2016-07-13T19:53:36Z</time>
      </trkpt>
      <trkpt lat="45.56704" lon="5.34287">
        <ele>284</ele>
        <time>2016-07-13T19:55:36Z</time>
      </trkpt>
      <trkpt lat="45.56708" lon="5.3429">
        <ele>284</ele>
        <time>2016-07-13T19:57:36Z</time>
      </trkpt>
      <trkpt lat="45.56711" lon="5.34291">
        <ele>284</ele>
        <time>2016-07-13T19:59:36Z</time>
      </trkpt>
      <trkpt lat="45.56717" lon="5.34296">
        <ele>284</ele>
        <time>2016-07-13T20:01:36Z</time>
      </trkpt>
      <trkpt lat="45.56734" lon="5.34307">
        <ele>285</ele>
        <time>2016-07-13T20:03:36Z</time>
      </trkpt>
      <trkpt lat="45.56737" lon="5.3431">
        <ele>285</ele>
        <time>2016-07-13T20:05:36Z</time>
      </trkpt>
      <trkpt lat="45.56745" lon="5.34315">
        <ele>285</ele>
        <time>2016-07-13T20:07:36Z</time>
      </trkpt>
      <trkpt lat="45.56758" lon="5.34324">
        <ele>286</ele>
        <time>2016-07-13T20:09:36Z</time>
      </trkpt>
      <trkpt lat="45.56772" lon="5.34336">
        <ele>286</ele>
        <time>2016-07-13T20:11:36Z</time>
      </trkpt>
      <trkpt lat="45.56781" lon="5.34345">
        <ele>286</ele>
        <time>2016-07-13T20:13:36Z</time>
      </trkpt>
      <trkpt lat="45.56791" lon="5.34359">
        <ele>286</ele>
        <time>2016-07-13T20:15:36Z</time>
      </trkpt>
      <trkpt lat="45.56798" lon="5.34369">
        <ele>287</ele>
        <time>2016-07-13T20:17:36Z</time>
      </trkpt>
      <trkpt lat="45.56799" lon="5.3437">
        <ele>287</ele>
        <time>2016-07-13T20:19:36Z</time>
      </trkpt>
      <trkpt lat="45.56803" lon="5.34377">
        <ele>287</ele>
        <time>2016-07-13T20:21:36Z</time>
      </trkpt>
      <trkpt lat="45.56808" lon="5.34384">
        <ele>287</ele>
        <time>2016-07-13T20:23:36Z</time>
      </trkpt>
      <trkpt lat="45.56811" lon="5.3439">
        <ele>288</ele>
        <time>2016-07-13T20:25:36Z</time>
      </trkpt>
      <trkpt lat="45.56816" lon="5.34404">
        <ele>289</ele>
        <time>2016-07-13T20:27:36Z</time>
      </trkpt>
      <trkpt lat="45.56819" lon="5.34412">
        <ele>289</ele>
        <time>2016-07-13T20:29:36Z</time>
      </trkpt>
      <trkpt lat="45.56821" lon="5.34415">
        <ele>289</ele>
        <time>2016-07-13T20:31:36Z</time>
      </trkpt>
      <trkpt lat="45.56825" lon="5.34421">
        <ele>290</ele>
        <time>2016-07-13T20:33:36Z</time>
      </trkpt>
      <trkpt lat="45.56832" lon="5.34426">
        <ele>290</ele>
        <time>2016-07-13T20:35:36Z</time>
      </trkpt>
      <trkpt lat="45.56832" lon="5.34426">
        <ele>290</ele>
        <time>2016-07-13T20:37:36Z</time>
      </trkpt>
      <trkpt lat="45.56824" lon="5.34445">
        <ele>290</ele>
        <time>2016-07-13T20:39:36Z</time>
      </trkpt>
      <trkpt lat="45.56821" lon="5.34461">
        <ele>289</ele>
        <time>2016-07-13T20:41:36Z</time>
      </trkpt>
      <trkpt lat="45.56806" lon="5.34508">
        <ele>289</ele>
        <time>2016-07-13T20:43:36Z</time>
      </trkpt>
      <trkpt lat="45.56772" lon="5.34589">
        <ele>286</ele>
        <time>2016-07-13T20:45:36Z</time>
      </trkpt>
      <trkpt lat="45.56757" lon="5.34619">
        <ele>286</ele>
        <time>2016-07-13T20:47:36Z</time>
      </trkpt>
      <trkpt lat="45.56714" lon="5.34686">
        <ele>286</ele>
        <time>2016-07-13T20:49:36Z</time>
      </trkpt>
      <trkpt lat="45.56705" lon="5.34698">
        <ele>286</ele>
        <time>2016-07-13T20:51:36Z</time>
      </trkpt>
      <trkpt lat="45.56691" lon="5.34714">
        <ele>286</ele>
        <time>2016-07-13T20:53:36Z</time>
      </trkpt>
      <trkpt lat="45.56681" lon="5.34725">
        <ele>286</ele>
        <time>2016-07-13T20:55:36Z</time>
      </trkpt>
      <trkpt lat="45.56655" lon="5.34752">
        <ele>286</ele>
        <time>2016-07-13T20:57:36Z</time>
      </trkpt>
      <trkpt lat="45.56641" lon="5.34766">
        <ele>286</ele>
        <time>2016-07-13T20:59:36Z</time>
      </trkpt>
      <trkpt lat="45.5663" lon="5.34778">
        <ele>286</ele>
        <time>2016-07-13T21:01:36Z</time>
      </trkpt>
      <trkpt lat="45.56624" lon="5.34786">
        <ele>286</ele>
        <time>2016-07-13T21:03:36Z</time>
      </trkpt>
      <trkpt lat="45.56616" lon="5.348">
        <ele>286</ele>
        <time>2016-07-13T21:05:36Z</time>
      </trkpt>
      <trkpt lat="45.56606" lon="5.34831">
        <ele>286</ele>
        <time>2016-07-13T21:07:36Z</time>
      </trkpt>
      <trkpt lat="45.5659" lon="5.34896">
        <ele>287</ele>
        <time>2016-07-13T21:09:36Z</time>
      </trkpt>
      <trkpt lat="45.56582" lon="5.34927">
        <ele>287</ele>
        <time>2016-07-13T21:11:36Z</time>
      </trkpt>
      <trkpt lat="45.56557" lon="5.3505">
        <ele>289</ele>
        <time>2016-07-13T21:13:36Z</time>
      </trkpt>
      <trkpt lat="45.56533" lon="5.35184">
        <ele>289</ele>
        <time>2016-07-13T21:15:36Z</time>
      </trkpt>
      <trkpt lat="45.56511" lon="5.353">
        <ele>287</ele>
        <time>2016-07-13T21:17:36Z</time>
      </trkpt>
      <trkpt lat="45.56505" lon="5.35342">
        <ele>286</ele>
        <time>2016-07-13T21:19:36Z</time>
      </trkpt>
      <trkpt lat="45.565" lon="5.35374">
        <ele>286</ele>
        <time>2016-07-13T21:21:36Z</time>
      </trkpt>
      <trkpt lat="45.56484" lon="5.35478">
        <ele>289</ele>
        <time>2016-07-13T21:23:36Z</time>
      </trkpt>
      <trkpt lat="45.56473" lon="5.35587">
        <ele>291</ele>
        <time>2016-07-13T21:25:36Z</time>
      </trkpt>
      <trkpt lat="45.5647" lon="5.35634">
        <ele>291</ele>
        <time>2016-07-13T21:27:36Z</time>
      </trkpt>
      <trkpt lat="45.56468" lon="5.3566">
        <ele>290</ele>
        <time>2016-07-13T21:29:36Z</time>
      </trkpt>
      <trkpt lat="45.56468" lon="5.35666">
        <ele>290</ele>
        <time>2016-07-13T21:31:36Z</time>
      </trkpt>
      <trkpt lat="45.56458" lon="5.35804">
        <ele>290</ele>
        <time>2016-07-13T21:33:36Z</time>
      </trkpt>
      <trkpt lat="45.56458" lon="5.35811">
        <ele>290</ele>
        <time>2016-07-13T21:35:36Z</time>
      </trkpt>
      <trkpt lat="45.56458" lon="5.3582">
        <ele>290</ele>
        <time>2016-07-13T21:37:36Z</time>
      </trkpt>
      <trkpt lat="45.56461" lon="5.35837">
        <ele>290</ele>
        <time>2016-07-13T21:39:36Z</time>
      </trkpt>
      <trkpt lat="45.5647" lon="5.35864">
        <ele>290</ele>
        <time>2016-07-13T21:41:36Z</time>
      </trkpt>
      <trkpt lat="45.56472" lon="5.35872">
        <ele>290</ele>
        <time>2016-07-13T21:43:36Z</time>
      </trkpt>
      <trkpt lat="45.56485" lon="5.35923">
        <ele>291</ele>
        <time>2016-07-13T21:45:36Z</time>
      </trkpt>
      <trkpt lat="45.56489" lon="5.35935">
        <ele>291</ele>
        <time>2016-07-13T21:47:36Z</time>
      </trkpt>
      <trkpt lat="45.56494" lon="5.35948">
        <ele>291</ele>
        <time>2016-07-13T21:49:36Z</time>
      </trkpt>
      <trkpt lat="45.56501" lon="5.35968">
        <ele>291</ele>
        <time>2016-07-13T21:51:36Z</time>
      </trkpt>
      <trkpt lat="45.56511" lon="5.35995">
        <ele>291</ele>
        <time>2016-07-13T21:53:36Z</time>
      </trkpt>
      <trkpt lat="45.56524" lon="5.36035">
        <ele>292</ele>
        <time>2016-07-13T21:55:36Z</time>
      </trkpt>
      <trkpt lat="45.56526" lon="5.3604">
        <ele>293</ele>
        <time>2016-07-13T21:57:36Z</time>
      </trkpt>
      <trkpt lat="45.56551" lon="5.3615">
        <ele>295</ele>
        <time>2016-07-13T21:59:36Z</time>
      </trkpt>
      <trkpt lat="45.56552" lon="5.36162">
        <ele>295</ele>
        <time>2016-07-13T22:01:36Z</time>
      </trkpt>
      <trkpt lat="45.56551" lon="5.3617">
        <ele>295</ele>
        <time>2016-07-13T22:03:36Z</time>
      </trkpt>
      <trkpt lat="45.56551" lon="5.3617">
        <ele>295</ele>
        <time>2016-07-13T22:05:36Z</time>
      </trkpt>
      <trkpt lat="45.56561" lon="5.36168">
        <ele>295</ele>
        <time>2016-07-13T22:07:36Z</time>
      </trkpt>
      <trkpt lat="45.56561" lon="5.36168">
        <ele>295</ele>
        <time>2016-07-13T22:09:36Z</time>
      </trkpt>
      <trkpt lat="45.56558" lon="5.36184">
        <ele>295</ele>
        <time>2016-07-13T22:11:36Z</time>
      </trkpt>
      <trkpt lat="45.56559" lon="5.36248">
        <ele>296</ele>
        <time>2016-07-13T22:13:36Z</time>
      </trkpt>
      <trkpt lat="45.56559" lon="5.36259">
        <ele>296</ele>
        <time>2016-07-13T22:15:36Z</time>
      </trkpt>
      <trkpt lat="45.56557" lon="5.36276">
        <ele>296</ele>
        <time>2016-07-13T22:17:36Z</time>
      </trkpt>
      <trkpt lat="45.56553" lon="5.36299">
        <ele>296</ele>
        <time>2016-07-13T22:19:36Z</time>
      </trkpt>
      <trkpt lat="45.5655" lon="5.36406">
        <ele>298</ele>
        <time>2016-07-13T22:21:36Z</time>
      </trkpt>
      <trkpt lat="45.56549" lon="5.36432">
        <ele>298</ele>
        <time>2016-07-13T22:23:36Z</time>
      </trkpt>
      <trkpt lat="45.56546" lon="5.36462">
        <ele>299</ele>
        <time>2016-07-13T22:25:36Z</time>
      </trkpt>
      <trkpt lat="45.56544" lon="5.36476">
        <ele>299</ele>
        <time>2016-07-13T22:27:36Z</time>
      </trkpt>
      <trkpt lat="45.56539" lon="5.36493">
        <ele>299</ele>
        <time>2016-07-13T22:29:36Z</time>
      </trkpt>
      <trkpt lat="45.56532" lon="5.36506">
        <ele>299</ele>
        <time>2016-07-13T22:31:36Z</time>
      </trkpt>
      <trkpt lat="45.56527" lon="5.36515">
        <ele>299</ele>
        <time>2016-07-13T22:33:36Z</time>
      </trkpt>
      <trkpt lat="45.56524" lon="5.36525">
        <ele>299</ele>
        <time>2016-07-13T22:35:36Z</time>
      </trkpt>
      <trkpt lat="45.56522" lon="5.36542">
        <ele>300</ele>
        <time>2016-07-13T22:37:36Z</time>
      </trkpt>
      <trkpt lat="45.56518" lon="5.36567">
        <ele>300</ele>
        <time>2016-07-13T22:39:36Z</time>
      </trkpt>
      <trkpt lat="45.56515" lon="5.36581">
        <ele>300</ele>
        <time>2016-07-13T22:41:36Z</time>
      </trkpt>
      <trkpt lat="45.56511" lon="5.36594">
        <ele>301</ele>
        <time>2016-07-13T22:43:36Z</time>
      </trkpt>
      <trkpt lat="45.56505" lon="5.36616">
        <ele>302</ele>
        <time>2016-07-13T22:45:36Z</time>
      </trkpt>
      <trkpt lat="45.56503" lon="5.36623">
        <ele>302</ele>
        <time>2016-07-13T22:47:36Z</time>
      </trkpt>
      <trkpt lat="45.56503" lon="5.36628">
        <ele>302</ele>
        <time>2016-07-13T22:49:36Z</time>
      </trkpt>
      <trkpt lat="45.56502" lon="5.36634">
        <ele>302</ele>
        <time>2016-07-13T22:51:36Z</time>
      </trkpt>
      <trkpt lat="45.56501" lon="5.36645">
        <ele>302</ele>
        <time>2016-07-13T22:53:36Z</time>
      </trkpt>
      <trkpt lat="45.565" lon="5.36654">
        <ele>303</ele>
        <time>2016-07-13T22:55:36Z</time>
      </trkpt>
      <trkpt lat="45.565" lon="5.3667">
        <ele>303</ele>
        <time>2016-07-13T22:57:36Z</time>
      </trkpt>
      <trkpt lat="45.56498" lon="5.36689">
        <ele>302</ele>
        <time>2016-07-13T22:59:36Z</time>
      </trkpt>
      <trkpt lat="45.56493" lon="5.36714">
        <ele>301</ele>
        <time>2016-07-13T23:01:36Z</time>
      </trkpt>
      <trkpt lat="45.56492" lon="5.36726">
        <ele>301</ele>
        <time>2016-07-13T23:03:36Z</time>
      </trkpt>
      <trkpt lat="45.56492" lon="5.36726">
        <ele>301</ele>
        <time>2016-07-13T23:05:36Z</time>
      </trkpt>
      <trkpt lat="45.56492" lon="5.36733">
        <ele>301</ele>
        <time>2016-07-13T23:07:36Z</time>
      </trkpt>
      <trkpt lat="45.56498" lon="5.36753">
        <ele>300</ele>
        <time>2016-07-13T23:09:36Z</time>
      </trkpt>
      <trkpt lat="45.56503" lon="5.36761">
        <ele>300</ele>
        <time>2016-07-13T23:11:36Z</time>
      </trkpt>
      <trkpt lat="45.5651" lon="5.36769">
        <ele>300</ele>
        <time>2016-07-13T23:13:36Z</time>
      </trkpt>
      <trkpt lat="45.56518" lon="5.36774">
        <ele>301</ele>
        <time>2016-07-13T23:15:36Z</time>
      </trkpt>
      <trkpt lat="45.56523" lon="5.3678">
        <ele>301</ele>
        <time>2016-07-13T23:17:36Z</time>
      </trkpt>
      <trkpt lat="45.5653" lon="5.36789">
        <ele>301</ele>
        <time>2016-07-13T23:19:36Z</time>
      </trkpt>
      <trkpt lat="45.56534" lon="5.368">
        <ele>301</ele>
        <time>2016-07-13T23:21:36Z</time>
      </trkpt>
      <trkpt lat="45.56542" lon="5.36827">
        <ele>301</ele>
        <time>2016-07-13T23:23:36Z</time>
      </trkpt>
      <trkpt lat="45.56545" lon="5.36844">
        <ele>301</ele>
        <time>2016-07-13T23:25:36Z</time>
      </trkpt>
      <trkpt lat="45.56546" lon="5.36874">
        <ele>301</ele>
        <time>2016-07-13T23:27:36Z</time>
      </trkpt>
      <trkpt lat="45.56545" lon="5.3691">
        <ele>300</ele>
        <time>2016-07-13T23:29:36Z</time>
      </trkpt>
      <trkpt lat="45.56541" lon="5.36948">
        <ele>301</ele>
        <time>2016-07-13T23:31:36Z</time>
      </trkpt>
      <trkpt lat="45.56535" lon="5.36979">
        <ele>302</ele>
        <time>2016-07-13T23:33:36Z</time>
      </trkpt>
      <trkpt lat="45.56522" lon="5.37065">
        <ele>302</ele>
        <time>2016-07-13T23:35:36Z</time>
      </trkpt>
      <trkpt lat="45.5652" lon="5.37079">
        <ele>302</ele>
        <time>2016-07-13T23:37:36Z</time>
      </trkpt>
      <trkpt lat="45.56516" lon="5.37145">
        <ele>302</ele>
        <time>2016-07-13T23:39:36Z</time>
      </trkpt>
      <trkpt lat="45.56516" lon="5.37146">
        <ele>302</ele>
        <time>2016-07-13T23:41:36Z</time>
      </trkpt>
      <trkpt lat="45.56516" lon="5.37154">
        <ele>302</ele>
        <time>2016-07-13T23:43:36Z</time>
      </trkpt>
      <trkpt lat="45.56513" lon="5.3719">
        <ele>302</ele>
        <time>2016-07-13T23:45:36Z</time>
      </trkpt>
      <trkpt lat="45.56513" lon="5.37199">
        <ele>303</ele>
        <time>2016-07-13T23:47:36Z</time>
      </trkpt>
      <trkpt lat="45.56509" lon="5.3722">
        <ele>303</ele>
        <time>2016-07-13T23:49:36Z</time>
      </trkpt>
      <trkpt lat="45.56493" lon="5.37281">
        <ele>303</ele>
        <time>2016-07-13T23:51:36Z</time>
      </trkpt>
      <trkpt lat="45.56484" lon="5.37331">
        <ele>304</ele>
        <time>2016-07-13T23:53:36Z</time>
      </trkpt>
      <trkpt lat="45.5648" lon="5.37359">
        <ele>305</ele>
        <time>2016-07-13T23:55:36Z</time>
      </trkpt>
      <trkpt lat="45.56477" lon="5.37375">
        <ele>305</ele>
        <time>2016-07-13T23:57:36Z</time>
      </trkpt>
      <trkpt lat="45.56471" lon="5.3742">
        <ele>306</ele>
        <time>2016-07-13T23:59:36Z</time>
      </trkpt>
      <trkpt lat="45.56458" lon="5.37482">
        <ele>306</ele>
        <time>2016-07-14T00:01:36Z</time>
      </trkpt>
      <trkpt lat="45.56456" lon="5.37499">
        <ele>306</ele>
        <time>2016-07-14T00:03:36Z</time>
      </trkpt>
      <trkpt lat="45.56456" lon="5.37523">
        <ele>307</ele>
        <time>2016-07-14T00:05:36Z</time>
      </trkpt>
      <trkpt lat="45.56456" lon="5.37539">
        <ele>307</ele>
        <time>2016-07-14T00:07:36Z</time>
      </trkpt>
      <trkpt lat="45.56456" lon="5.37539">
        <ele>307</ele>
        <time>2016-07-14T00:09:36Z</time>
      </trkpt>
      <trkpt lat="45.56454" lon="5.37558">
        <ele>307</ele>
        <time>2016-07-14T00:11:36Z</time>
      </trkpt>
      <trkpt lat="45.56451" lon="5.37667">
        <ele>309</ele>
        <time>2016-07-14T00:13:36Z</time>
      </trkpt>
      <trkpt lat="45.56449" lon="5.37725">
        <ele>308</ele>
        <time>2016-07-14T00:15:36Z</time>
      </trkpt>
      <trkpt lat="45.56447" lon="5.3779">
        <ele>308</ele>
        <time>2016-07-14T00:17:36Z</time>
      </trkpt>
      <trkpt lat="45.56447" lon="5.37827">
        <ele>308</ele>
        <time>2016-07-14T00:19:36Z</time>
      </trkpt>
      <trkpt lat="45.56448" lon="5.3784">
        <ele>308</ele>
        <time>2016-07-14T00:21:36Z</time>
      </trkpt>
      <trkpt lat="45.56453" lon="5.37886">
        <ele>308</ele>
        <time>2016-07-14T00:23:36Z</time>
      </trkpt>
      <trkpt lat="45.56457" lon="5.37964">
        <ele>307</ele>
        <time>2016-07-14T00:25:36Z</time>
      </trkpt>
      <trkpt lat="45.56459" lon="5.37999">
        <ele>306</ele>
        <time>2016-07-14T00:27:36Z</time>
      </trkpt>
      <trkpt lat="45.5646" lon="5.38014">
        <ele>307</ele>
        <time>2016-07-14T00:29:36Z</time>
      </trkpt>
      <trkpt lat="45.56461" lon="5.3802">
        <ele>307</ele>
        <time>2016-07-14T00:31:36Z</time>
      </trkpt>
      <trkpt lat="45.56462" lon="5.38035">
        <ele>307</ele>
        <time>2016-07-14T00:33:36Z</time>
      </trkpt>
      <trkpt lat="45.56465" lon="5.38064">
        <ele>307</ele>
        <time>2016-07-14T00:35:36Z</time>
      </trkpt>
      <trkpt lat="45.56468" lon="5.38094">
        <ele>307</ele>
        <time>2016-07-14T00:37:36Z</time>
      </trkpt>
      <trkpt lat="45.56473" lon="5.38133">
        <ele>307</ele>
        <time>2016-07-14T00:39:36Z</time>
      </trkpt>
      <trkpt lat="45.56477" lon="5.38168">
        <ele>307</ele>
        <time>2016-07-14T00:41:36Z</time>
      </trkpt>
      <trkpt lat="45.56478" lon="5.38174">
        <ele>307</ele>
        <time>2016-07-14T00:43:36Z</time>
      </trkpt>
      <trkpt lat="45.5648" lon="5.38189">
        <ele>307</ele>
        <time>2016-07-14T00:45:36Z</time>
      </trkpt>
      <trkpt lat="45.56489" lon="5.38247">
        <ele>309</ele>
        <time>2016-07-14T00:47:36Z</time>
      </trkpt>
      <trkpt lat="45.56493" lon="5.38274">
        <ele>309</ele>
        <time>2016-07-14T00:49:36Z</time>
      </trkpt>
      <trkpt lat="45.56494" lon="5.38278">
        <ele>309</ele>
        <time>2016-07-14T00:51:36Z</time>
      </trkpt>
      <trkpt lat="45.56501" lon="5.38324">
        <ele>309</ele>
        <time>2016-07-14T00:53:36Z</time>
      </trkpt>
      <trkpt lat="45.56502" lon="5.38332">
        <ele>309</ele>
        <time>2016-07-14T00:55:36Z</time>
      </trkpt>
      <trkpt lat="45.56505" lon="5.38351">
        <ele>309</ele>
        <time>2016-07-14T00:57:36Z</time>
      </trkpt>
      <trkpt lat="45.56512" lon="5.38409">
        <ele>309</ele>
        <time>2016-07-14T00:59:36Z</time>
      </trkpt>
      <trkpt lat="45.56515" lon="5.3843">
        <ele>309</ele>
        <time>2016-07-14T01:01:36Z</time>
      </trkpt>
      <trkpt lat="45.56516" lon="5.38435">
        <ele>309</ele>
        <time>2016-07-14T01:03:36Z</time>
      </trkpt>
      <trkpt lat="45.56522" lon="5.38493">
        <ele>310</ele>
        <time>2016-07-14T01:05:36Z</time>
      </trkpt>
      <trkpt lat="45.56522" lon="5.38496">
        <ele>310</ele>
        <time>2016-07-14T01:07:36Z</time>
      </trkpt>
      <trkpt lat="45.56525" lon="5.38535">
        <ele>310</ele>
        <time>2016-07-14T01:09:36Z</time>
      </trkpt>
      <trkpt lat="45.56528" lon="5.38563">
        <ele>310</ele>
        <time>2016-07-14T01:11:36Z</time>
      </trkpt>
      <trkpt lat="45.5653" lon="5.38588">
        <ele>310</ele>
        <time>2016-07-14T01:13:36Z</time>
      </trkpt>
      <trkpt lat="45.56532" lon="5.38614">
        <ele>309</ele>
        <time>2016-07-14T01:15:36Z</time>
      </trkpt>
      <trkpt lat="45.56533" lon="5.38664">
        <ele>308</ele>
        <time>2016-07-14T01:17:36Z</time>
      </trkpt>
      <trkpt lat="45.56532" lon="5.38702">
        <ele>309</ele>
        <time>2016-07-14T01:19:36Z</time>
      </trkpt>
      <trkpt lat="45.56532" lon="5.38702">
        <ele>309</ele>
        <time>2016-07-14T01:21:36Z</time>
      </trkpt>
      <trkpt lat="45.56524" lon="5.38725">
        <ele>309</ele>
        <time>2016-07-14T01:23:36Z</time>
      </trkpt>
      <trkpt lat="45.56486" lon="5.38832">
        <ele>308</ele>
        <time>2016-07-14T01:25:36Z</time>
      </trkpt>
      <trkpt lat="45.56467" lon="5.38884">
        <ele>309</ele>
        <time>2016-07-14T01:27:36Z</time>
      </trkpt>
      <trkpt lat="45.56465" lon="5.38888">
        <ele>309</ele>
        <time>2016-07-14T01:29:36Z</time>
      </trkpt>
      <trkpt lat="45.56463" lon="5.3889">
        <ele>309</ele>
        <time>2016-07-14T01:31:36Z</time>
      </trkpt>
      <trkpt lat="45.5645" lon="5.38905">
        <ele>309</ele>
        <time>2016-07-14T01:33:36Z</time>
      </trkpt>
      <trkpt lat="45.56435" lon="5.38915">
        <ele>308</ele>
        <time>2016-07-14T01:35:36Z</time>
      </trkpt>
      <trkpt lat="45.56432" lon="5.38916">
        <ele>308</ele>
        <time>2016-07-14T01:37:36Z</time>
      </trkpt>
      <trkpt lat="45.56429" lon="5.38919">
        <ele>308</ele>
        <time>2016-07-14T01:39:36Z</time>
      </trkpt>
      <trkpt lat="45.56421" lon="5.38929">
        <ele>308</ele>
        <time>2016-07-14T01:41:36Z</time>
      </trkpt>
      <trkpt lat="45.56419" lon="5.38931">
        <ele>308</ele>
        <time>2016-07-14T01:43:36Z</time>
      </trkpt>
      <trkpt lat="45.56417" lon="5.38934">
        <ele>308</ele>
        <time>2016-07-14T01:45:36Z</time>
      </trkpt>
      <trkpt lat="45.56408" lon="5.38952">
        <ele>307</ele>
        <time>2016-07-14T01:47:36Z</time>
      </trkpt>
      <trkpt lat="45.56392" lon="5.3898">
        <ele>307</ele>
        <time>2016-07-14T01:49:36Z</time>
      </trkpt>
      <trkpt lat="45.56385" lon="5.3899">
        <ele>307</ele>
        <time>2016-07-14T01:51:36Z</time>
      </trkpt>
      <trkpt lat="45.5637" lon="5.39019">
        <ele>307</ele>
        <time>2016-07-14T01:53:36Z</time>
      </trkpt>
      <trkpt lat="45.56344" lon="5.39084">
        <ele>308</ele>
        <time>2016-07-14T01:55:36Z</time>
      </trkpt>
      <trkpt lat="45.5634" lon="5.39093">
        <ele>308</ele>
        <time>2016-07-14T01:57:36Z</time>
      </trkpt>
      <trkpt lat="45.56308" lon="5.39172">
        <ele>307</ele>
        <time>2016-07-14T01:59:36Z</time>
      </trkpt>
      <trkpt lat="45.56294" lon="5.39218">
        <ele>307</ele>
        <time>2016-07-14T02:01:36Z</time>
      </trkpt>
      <trkpt lat="45.56292" lon="5.39227">
        <ele>307</ele>
        <time>2016-07-14T02:03:36Z</time>
      </trkpt>
      <trkpt lat="45.56277" lon="5.39271">
        <ele>307</ele>
        <time>2016-07-14T02:05:36Z</time>
      </trkpt>
      <trkpt lat="45.56274" lon="5.3928">
        <ele>307</ele>
        <time>2016-07-14T02:07:36Z</time>
      </trkpt>
      <trkpt lat="45.56248" lon="5.39347">
        <ele>306</ele>
        <time>2016-07-14T02:09:36Z</time>
      </trkpt>
      <trkpt lat="45.5623" lon="5.3938">
        <ele>306</ele>
        <time>2016-07-14T02:11:36Z</time>
      </trkpt>
      <trkpt lat="45.56227" lon="5.39387">
        <ele>306</ele>
        <time>2016-07-14T02:13:36Z</time>
      </trkpt>
      <trkpt lat="45.56204" lon="5.39425">
        <ele>306</ele>
        <time>2016-07-14T02:15:36Z</time>
      </trkpt>
      <trkpt lat="45.56157" lon="5.39515">
        <ele>306</ele>
        <time>2016-07-14T02:17:36Z</time>
      </trkpt>
      <trkpt lat="45.56151" lon="5.39523">
        <ele>306</ele>
        <time>2016-07-14T02:19:36Z</time>
      </trkpt>
      <trkpt lat="45.56146" lon="5.3953">
        <ele>306</ele>
        <time>2016-07-14T02:21:36Z</time>
      </trkpt>
      <trkpt lat="45.56129" lon="5.39557">
        <ele>306</ele>
        <time>2016-07-14T02:23:36Z</time>
      </trkpt>
      <trkpt lat="45.56104" lon="5.39601">
        <ele>306</ele>
        <time>2016-07-14T02:25:36Z</time>
      </trkpt>
      <trkpt lat="45.56088" lon="5.39629">
        <ele>306</ele>
        <time>2016-07-14T02:27:36Z</time>
      </trkpt>
      <trkpt lat="45.56066" lon="5.39652">
        <ele>306</ele>
        <time>2016-07-14T02:29:36Z</time>
      </trkpt>
      <trkpt lat="45.56066" lon="5.39663">
        <ele>306</ele>
        <time>2016-07-14T02:31:36Z</time>
      </trkpt>
      <trkpt lat="45.56064" lon="5.3967">
        <ele>306</ele>
        <time>2016-07-14T02:33:36Z</time>
      </trkpt>
      <trkpt lat="45.5605" lon="5.39697">
        <ele>306</ele>
        <time>2016-07-14T02:35:36Z</time>
      </trkpt>
      <trkpt lat="45.56032" lon="5.39726">
        <ele>307</ele>
        <time>2016-07-14T02:37:36Z</time>
      </trkpt>
      <trkpt lat="45.5602" lon="5.39746">
        <ele>308</ele>
        <time>2016-07-14T02:39:36Z</time>
      </trkpt>
      <trkpt lat="45.56016" lon="5.39754">
        <ele>308</ele>
        <time>2016-07-14T02:41:36Z</time>
      </trkpt>
      <trkpt lat="45.56016" lon="5.39754">
        <ele>308</ele>
        <time>2016-07-14T02:43:36Z</time>
      </trkpt>
      <trkpt lat="45.56016" lon="5.39777">
        <ele>307</ele>
        <time>2016-07-14T02:45:36Z</time>
      </trkpt>
      <trkpt lat="45.56017" lon="5.39808">
        <ele>306</ele>
        <time>2016-07-14T02:47:36Z</time>
      </trkpt>
      <trkpt lat="45.56016" lon="5.39848">
        <ele>306</ele>
        <time>2016-07-14T02:49:36Z</time>
      </trkpt>
      <trkpt lat="45.5601" lon="5.39974">
        <ele>305</ele>
        <time>2016-07-14T02:51:36Z</time>
      </trkpt>
      <trkpt lat="45.56006" lon="5.40072">
        <ele>307</ele>
        <time>2016-07-14T02:53:36Z</time>
      </trkpt>
      <trkpt lat="45.56006" lon="5.40076">
        <ele>307</ele>
        <time>2016-07-14T02:55:36Z</time>
      </trkpt>
      <trkpt lat="45.56006" lon="5.40081">
        <ele>308</ele>
        <time>2016-07-14T02:57:36Z</time>
      </trkpt>
      <trkpt lat="45.56003" lon="5.40144">
        <ele>306</ele>
        <time>2016-07-14T02:59:36Z</time>
      </trkpt>
      <trkpt lat="45.56002" lon="5.40155">
        <ele>306</ele>
        <time>2016-07-14T03:01:36Z</time>
      </trkpt>
      <trkpt lat="45.56002" lon="5.4016">
        <ele>306</ele>
        <time>2016-07-14T03:03:36Z</time>
      </trkpt>
      <trkpt lat="45.56002" lon="5.40165">
        <ele>306</ele>
        <time>2016-07-14T03:05:36Z</time>
      </trkpt>
      <trkpt lat="45.56001" lon="5.40202">
        <ele>307</ele>
        <time>2016-07-14T03:07:36Z</time>
      </trkpt>
      <trkpt lat="45.56" lon="5.40238">
        <ele>308</ele>
        <time>2016-07-14T03:09:36Z</time>
      </trkpt>
      <trkpt lat="45.56004" lon="5.40328">
        <ele>308</ele>
        <time>2016-07-14T03:11:36Z</time>
      </trkpt>
      <trkpt lat="45.5601" lon="5.40426">
        <ele>308</ele>
        <time>2016-07-14T03:13:36Z</time>
      </trkpt>
      <trkpt lat="45.56018" lon="5.40559">
        <ele>307</ele>
        <time>2016-07-14T03:15:36Z</time>
      </trkpt>
      <trkpt lat="45.56022" lon="5.40658">
        <ele>307</ele>
        <time>2016-07-14T03:17:36Z</time>
      </trkpt>
      <trkpt lat="45.56024" lon="5.40669">
        <ele>307</ele>
        <time>2016-07-14T03:19:36Z</time>
      </trkpt>
      <trkpt lat="45.56027" lon="5.40674">
        <ele>307</ele>
        <time>2016-07-14T03:21:36Z</time>
      </trkpt>
      <trkpt lat="45.56027" lon="5.40674">
        <ele>307</ele>
        <time>2016-07-14T03:23:36Z</time>
      </trkpt>
      <trkpt lat="45.56026" lon="5.40692">
        <ele>307</ele>
        <time>2016-07-14T03:25:36Z</time>
      </trkpt>
      <trkpt lat="45.56026" lon="5.40707">
        <ele>307</ele>
        <time>2016-07-14T03:27:36Z</time>
      </trkpt>
      <trkpt lat="45.56026" lon="5.40726">
        <ele>307</ele>
        <time>2016-07-14T03:29:36Z</time>
      </trkpt>
      <trkpt lat="45.56035" lon="5.40872">
        <ele>306</ele>
        <time>2016-07-14T03:31:36Z</time>
      </trkpt>
      <trkpt lat="45.56043" lon="5.41016">
        <ele>308</ele>
        <time>2016-07-14T03:33:36Z</time>
      </trkpt>
      <trkpt lat="45.56045" lon="5.41055">
        <ele>309</ele>
        <time>2016-07-14T03:35:36Z</time>
      </trkpt>
      <trkpt lat="45.56049" lon="5.41129">
        <ele>310</ele>
        <time>2016-07-14T03:37:36Z</time>
      </trkpt>
      <trkpt lat="45.56053" lon="5.41215">
        <ele>311</ele>
        <time>2016-07-14T03:39:36Z</time>
      </trkpt>
      <trkpt lat="45.56056" lon="5.4125">
        <ele>311</ele>
        <time>2016-07-14T03:41:36Z</time>
      </trkpt>
      <trkpt lat="45.56059" lon="5.4127">
        <ele>311</ele>
        <time>2016-07-14T03:43:36Z</time>
      </trkpt>
      <trkpt lat="45.56062" lon="5.41288">
        <ele>312</ele>
        <time>2016-07-14T03:45:36Z</time>
      </trkpt>
      <trkpt lat="45.56074" lon="5.41352">
        <ele>312</ele>
        <time>2016-07-14T03:47:36Z</time>
      </trkpt>
      <trkpt lat="45.56092" lon="5.41452">
        <ele>310</ele>
        <time>2016-07-14T03:49:36Z</time>
      </trkpt>
      <trkpt lat="45.56103" lon="5.415">
        <ele>311</ele>
        <time>2016-07-14T03:51:36Z</time>
      </trkpt>
      <trkpt lat="45.56119" lon="5.41594">
        <ele>311</ele>
        <time>2016-07-14T03:53:36Z</time>
      </trkpt>
      <trkpt lat="45.56144" lon="5.41728">
        <ele>310</ele>
        <time>2016-07-14T03:55:36Z</time>
      </trkpt>
      <trkpt lat="45.56165" lon="5.41827">
        <ele>311</ele>
        <time>2016-07-14T03:57:36Z</time>
      </trkpt>
      <trkpt lat="45.56165" lon="5.4183">
        <ele>311</ele>
        <time>2016-07-14T03:59:36Z</time>
      </trkpt>
      <trkpt lat="45.56166" lon="5.41833">
        <ele>311</ele>
        <time>2016-07-14T04:01:36Z</time>
      </trkpt>
      <trkpt lat="45.56168" lon="5.41845">
        <ele>311</ele>
        <time>2016-07-14T04:03:36Z</time>
      </trkpt>
      <trkpt lat="45.56191" lon="5.41972">
        <ele>312</ele>
        <time>2016-07-14T04:05:36Z</time>
      </trkpt>
      <trkpt lat="45.5621" lon="5.42069">
        <ele>312</ele>
        <time>2016-07-14T04:07:36Z</time>
      </trkpt>
      <trkpt lat="45.56226" lon="5.42152">
        <ele>311</ele>
        <time>2016-07-14T04:09:36Z</time>
      </trkpt>
      <trkpt lat="45.56241" lon="5.42228">
        <ele>310</ele>
        <time>2016-07-14T04:11:36Z</time>
      </trkpt>
      <trkpt lat="45.56264" lon="5.42347">
        <ele>309</ele>
        <time>2016-07-14T04:13:36Z</time>
      </trkpt>
      <trkpt lat="45.56279" lon="5.42428">
        <ele>310</ele>
        <time>2016-07-14T04:15:36Z</time>
      </trkpt>
      <trkpt lat="45.56295" lon="5.4251">
        <ele>308</ele>
        <time>2016-07-14T04:17:36Z</time>
      </trkpt>
      <trkpt lat="45.5631" lon="5.42597">
        <ele>310</ele>
        <time>2016-07-14T04:19:36Z</time>
      </trkpt>
      <trkpt lat="45.56312" lon="5.42609">
        <ele>310</ele>
        <time>2016-07-14T04:21:36Z</time>
      </trkpt>
      <trkpt lat="45.56312" lon="5.42609">
        <ele>310</ele>
        <time>2016-07-14T04:23:36Z</time>
      </trkpt>
      <trkpt lat="45.56318" lon="5.42642">
        <ele>310</ele>
        <time>2016-07-14T04:25:36Z</time>
      </trkpt>
      <trkpt lat="45.5633" lon="5.42704">
        <ele>310</ele>
        <time>2016-07-14T04:27:36Z</time>
      </trkpt>
      <trkpt lat="45.56335" lon="5.42735">
        <ele>311</ele>
        <time>2016-07-14T04:29:36Z</time>
      </trkpt>
      <trkpt lat="45.56336" lon="5.42774">
        <ele>311</ele>
        <time>2016-07-14T04:31:36Z</time>
      </trkpt>
      <trkpt lat="45.56334" lon="5.42783">
        <ele>311</ele>
        <time>2016-07-14T04:33:36Z</time>
      </trkpt>
      <trkpt lat="45.56333" lon="5.42785">
        <ele>311</ele>
        <time>2016-07-14T04:35:36Z</time>
      </trkpt>
      <trkpt lat="45.56331" lon="5.42793">
        <ele>312</ele>
        <time>2016-07-14T04:37:36Z</time>
      </trkpt>
      <trkpt lat="45.56314" lon="5.42826">
        <ele>312</ele>
        <time>2016-07-14T04:39:36Z</time>
      </trkpt>
      <trkpt lat="45.56302" lon="5.42849">
        <ele>312</ele>
        <time>2016-07-14T04:41:36Z</time>
      </trkpt>
      <trkpt lat="45.56298" lon="5.42864">
        <ele>313</ele>
        <time>2016-07-14T04:43:36Z</time>
      </trkpt>
      <trkpt lat="45.56297" lon="5.42881">
        <ele>313</ele>
        <time>2016-07-14T04:45:36Z</time>
      </trkpt>
      <trkpt lat="45.56294" lon="5.42936">
        <ele>313</ele>
        <time>2016-07-14T04:47:36Z</time>
      </trkpt>
      <trkpt lat="45.56291" lon="5.42986">
        <ele>314</ele>
        <time>2016-07-14T04:49:36Z</time>
      </trkpt>
      <trkpt lat="45.56291" lon="5.42986">
        <ele>314</ele>
        <time>2016-07-14T04:51:36Z</time>
      </trkpt>
      <trkpt lat="45.56279" lon="5.42989">
        <ele>314</ele>
        <time>2016-07-14T04:53:36Z</time>
      </trkpt>
      <trkpt lat="45.56276" lon="5.4299">
        <ele>314</ele>
        <time>2016-07-14T04:55:36Z</time>
      </trkpt>
      <trkpt lat="45.5627" lon="5.42992">
        <ele>314</ele>
        <time>2016-07-14T04:57:36Z</time>
      </trkpt>
      <trkpt lat="45.56263" lon="5.42996">
        <ele>314</ele>
        <time>2016-07-14T04:59:36Z</time>
      </trkpt>
      <trkpt lat="45.56252" lon="5.43002">
        <ele>314</ele>
        <time>2016-07-14T05:01:36Z</time>
      </trkpt>
      <trkpt lat="45.56228" lon="5.43015">
        <ele>314</ele>
        <time>2016-07-14T05:03:36Z</time>
      </trkpt>
      <trkpt lat="45.56204" lon="5.43029">
        <ele>314</ele>
        <time>2016-07-14T05:05:36Z</time>
      </trkpt>
      <trkpt lat="45.56194" lon="5.43036">
        <ele>314</ele>
        <time>2016-07-14T05:07:36Z</time>
      </trkpt>
      <trkpt lat="45.56189" lon="5.43038">
        <ele>314</ele>
        <time>2016-07-14T05:09:36Z</time>
      </trkpt>
      <trkpt lat="45.56186" lon="5.4304">
        <ele>314</ele>
        <time>2016-07-14T05:11:36Z</time>
      </trkpt>
      <trkpt lat="45.56183" lon="5.43041">
        <ele>314</ele>
        <time>2016-07-14T05:13:36Z</time>
      </trkpt>
      <trkpt lat="45.56179" lon="5.43041">
        <ele>314</ele>
        <time>2016-07-14T05:15:36Z</time>
      </trkpt>
      <trkpt lat="45.56171" lon="5.43041">
        <ele>314</ele>
        <time>2016-07-14T05:17:36Z</time>
      </trkpt>
      <trkpt lat="45.56171" lon="5.43041">
        <ele>314</ele>
        <time>2016-07-14T05:19:36Z</time>
      </trkpt>
      <trkpt lat="45.56169" lon="5.43039">
        <ele>314</ele>
        <time>2016-07-14T05:21:36Z</time>
      </trkpt>
      <trkpt lat="45.56169" lon="5.43038">
        <ele>314</ele>
        <time>2016-07-14T05:23:36Z</time>
      </trkpt>
      <trkpt lat="45.56168" lon="5.43037">
        <ele>314</ele>
        <time>2016-07-14T05:25:36Z</time>
      </trkpt>
      <trkpt lat="45.56167" lon="5.43036">
        <ele>314</ele>
        <time>2016-07-14T05:27:36Z</time>
      </trkpt>
      <trkpt lat="45.56166" lon="5.43035">
        <ele>314</ele>
        <time>2016-07-14T05:29:36Z</time>
      </trkpt>
      <trkpt lat="45.56165" lon="5.43034">
        <ele>314</ele>
        <time>2016-07-14T05:31:36Z</time>
      </trkpt>
      <trkpt lat="45.56164" lon="5.43032">
        <ele>314</ele>
        <time>2016-07-14T05:33:36Z</time>
      </trkpt>
      <trkpt lat="45.56162" lon="5.43032">
        <ele>314</ele>
        <time>2016-07-14T05:35:36Z</time>
      </trkpt>
      <trkpt lat="45.56161" lon="5.43031">
        <ele>315</ele>
        <time>2016-07-14T05:37:36Z</time>
      </trkpt>
      <trkpt lat="45.56159" lon="5.4303">
        <ele>315</ele>
        <time>2016-07-14T05:39:36Z</time>
      </trkpt>
      <trkpt lat="45.56158" lon="5.4303">
        <ele>315</ele>
        <time>2016-07-14T05:41:36Z</time>
      </trkpt>
      <trkpt lat="45.56156" lon="5.4303">
        <ele>315</ele>
        <time>2016-07-14T05:43:36Z</time>
      </trkpt>
      <trkpt lat="45.56155" lon="5.4303">
        <ele>315</ele>
        <time>2016-07-14T05:45:36Z</time>
      </trkpt>
      <trkpt lat="45.56153" lon="5.4303">
        <ele>315</ele>
        <time>2016-07-14T05:47:36Z</time>
      </trkpt>
      <trkpt lat="45.56152" lon="5.43031">
        <ele>315</ele>
        <time>2016-07-14T05:49:36Z</time>
      </trkpt>
      <trkpt lat="45.5615" lon="5.43031">
        <ele>315</ele>
        <time>2016-07-14T05:51:36Z</time>
      </trkpt>
      <trkpt lat="45.56149" lon="5.43032">
        <ele>316</ele>
        <time>2016-07-14T05:53:36Z</time>
      </trkpt>
      <trkpt lat="45.56147" lon="5.43033">
        <ele>316</ele>
        <time>2016-07-14T05:55:36Z</time>
      </trkpt>
      <trkpt lat="45.56146" lon="5.43034">
        <ele>316</ele>
        <time>2016-07-14T05:57:36Z</time>
      </trkpt>
      <trkpt lat="45.56145" lon="5.43035">
        <ele>316</ele>
        <time>2016-07-14T05:59:36Z</time>
      </trkpt>
      <trkpt lat="45.56144" lon="5.43036">
        <ele>316</ele>
        <time>2016-07-14T06:01:36Z</time>
      </trkpt>
      <trkpt lat="45.56143" lon="5.43037">
        <ele>316</ele>
        <time>2016-07-14T06:03:36Z</time>
      </trkpt>
      <trkpt lat="45.56142" lon="5.43039">
        <ele>316</ele>
        <time>2016-07-14T06:05:36Z</time>
      </trkpt>
      <trkpt lat="45.56141" lon="5.4304">
        <ele>316</ele>
        <time>2016-07-14T06:07:36Z</time>
      </trkpt>
      <trkpt lat="45.5614" lon="5.43042">
        <ele>317</ele>
        <time>2016-07-14T06:09:36Z</time>
      </trkpt>
      <trkpt lat="45.56139" lon="5.43044">
        <ele>317</ele>
        <time>2016-07-14T06:11:36Z</time>
      </trkpt>
      <trkpt lat="45.56138" lon="5.43046">
        <ele>317</ele>
        <time>2016-07-14T06:13:36Z</time>
      </trkpt>
      <trkpt lat="45.56138" lon="5.43048">
        <ele>317</ele>
        <time>2016-07-14T06:15:36Z</time>
      </trkpt>
      <trkpt lat="45.56138" lon="5.4305">
        <ele>317</ele>
        <time>2016-07-14T06:17:36Z</time>
      </trkpt>
      <trkpt lat="45.56137" lon="5.43053">
        <ele>317</ele>
        <time>2016-07-14T06:19:36Z</time>
      </trkpt>
      <trkpt lat="45.56137" lon="5.43055">
        <ele>317</ele>
        <time>2016-07-14T06:21:36Z</time>
      </trkpt>
      <trkpt lat="45.56137" lon="5.43057">
        <ele>317</ele>
        <time>2016-07-14T06:23:36Z</time>
      </trkpt>
      <trkpt lat="45.56137" lon="5.43059">
        <ele>317</ele>
        <time>2016-07-14T06:25:36Z</time>
      </trkpt>
      <trkpt lat="45.56137" lon="5.43063">
        <ele>317</ele>
        <time>2016-07-14T06:27:36Z</time>
      </trkpt>
      <trkpt lat="45.56138" lon="5.43065">
        <ele>317</ele>
        <time>2016-07-14T06:29:36Z</time>
      </trkpt>
      <trkpt lat="45.56139" lon="5.43067">
        <ele>317</ele>
        <time>2016-07-14T06:31:36Z</time>
      </trkpt>
      <trkpt lat="45.56139" lon="5.43069">
        <ele>317</ele>
        <time>2016-07-14T06:33:36Z</time>
      </trkpt>
      <trkpt lat="45.5614" lon="5.43071">
        <ele>317</ele>
        <time>2016-07-14T06:35:36Z</time>
      </trkpt>
      <trkpt lat="45.56141" lon="5.43073">
        <ele>317</ele>
        <time>2016-07-14T06:37:36Z</time>
      </trkpt>
      <trkpt lat="45.56142" lon="5.43075">
        <ele>317</ele>
        <time>2016-07-14T06:39:36Z</time>
      </trkpt>
      <trkpt lat="45.56143" lon="5.43076">
        <ele>317</ele>
        <time>2016-07-14T06:41:36Z</time>
      </trkpt>
      <trkpt lat="45.56144" lon="5.43078">
        <ele>317</ele>
        <time>2016-07-14T06:43:36Z</time>
      </trkpt>
      <trkpt lat="45.56145" lon="5.43079">
        <ele>317</ele>
        <time>2016-07-14T06:45:36Z</time>
      </trkpt>
      <trkpt lat="45.56147" lon="5.4308">
        <ele>316</ele>
        <time>2016-07-14T06:47:36Z</time>
      </trkpt>
      <trkpt lat="45.56149" lon="5.43096">
        <ele>316</ele>
        <time>2016-07-14T06:49:36Z</time>
      </trkpt>
      <trkpt lat="45.5615" lon="5.43101">
        <ele>316</ele>
        <time>2016-07-14T06:51:36Z</time>
      </trkpt>
      <trkpt lat="45.56151" lon="5.43106">
        <ele>316</ele>
        <time>2016-07-14T06:53:36Z</time>
      </trkpt>
      <trkpt lat="45.56151" lon="5.43111">
        <ele>316</ele>
        <time>2016-07-14T06:55:36Z</time>
      </trkpt>
      <trkpt lat="45.56151" lon="5.43116">
        <ele>316</ele>
        <time>2016-07-14T06:57:36Z</time>
      </trkpt>
      <trkpt lat="45.56151" lon="5.43123">
        <ele>316</ele>
        <time>2016-07-14T06:59:36Z</time>
      </trkpt>
      <trkpt lat="45.5615" lon="5.43148">
        <ele>316</ele>
        <time>2016-07-14T07:01:36Z</time>
      </trkpt>
      <trkpt lat="45.56149" lon="5.43173">
        <ele>317</ele>
        <time>2016-07-14T07:03:36Z</time>
      </trkpt>
      <trkpt lat="45.56149" lon="5.4319">
        <ele>317</ele>
        <time>2016-07-14T07:05:36Z</time>
      </trkpt>
      <trkpt lat="45.56149" lon="5.43197">
        <ele>317</ele>
        <time>2016-07-14T07:07:36Z</time>
      </trkpt>
      <trkpt lat="45.56149" lon="5.43203">
        <ele>317</ele>
        <time>2016-07-14T07:09:36Z</time>
      </trkpt>
      <trkpt lat="45.5615" lon="5.4321">
        <ele>316</ele>
        <time>2016-07-14T07:11:36Z</time>
      </trkpt>
      <trkpt lat="45.56151" lon="5.43217">
        <ele>316</ele>
        <time>2016-07-14T07:13:36Z</time>
      </trkpt>
      <trkpt lat="45.56171" lon="5.43338">
        <ele>314</ele>
        <time>2016-07-14T07:15:36Z</time>
      </trkpt>
      <trkpt lat="45.56175" lon="5.43369">
        <ele>314</ele>
        <time>2016-07-14T07:17:36Z</time>
      </trkpt>
      <trkpt lat="45.56178" lon="5.43385">
        <ele>314</ele>
        <time>2016-07-14T07:19:36Z</time>
      </trkpt>
      <trkpt lat="45.56186" lon="5.43441">
        <ele>314</ele>
        <time>2016-07-14T07:21:36Z</time>
      </trkpt>
      <trkpt lat="45.56191" lon="5.43472">
        <ele>315</ele>
        <time>2016-07-14T07:23:36Z</time>
      </trkpt>
      <trkpt lat="45.56198" lon="5.43507">
        <ele>316</ele>
        <time>2016-07-14T07:25:36Z</time>
      </trkpt>
      <trkpt lat="45.56201" lon="5.43513">
        <ele>316</ele>
        <time>2016-07-14T07:27:36Z</time>
      </trkpt>
      <trkpt lat="45.56205" lon="5.43533">
        <ele>317</ele>
        <time>2016-07-14T07:29:36Z</time>
      </trkpt>
      <trkpt lat="45.5621" lon="5.43561">
        <ele>317</ele>
        <time>2016-07-14T07:31:36Z</time>
      </trkpt>
      <trkpt lat="45.56214" lon="5.43584">
        <ele>317</ele>
        <time>2016-07-14T07:33:36Z</time>
      </trkpt>
      <trkpt lat="45.56224" lon="5.43636">
        <ele>318</ele>
        <time>2016-07-14T07:35:36Z</time>
      </trkpt>
      <trkpt lat="45.56225" lon="5.43643">
        <ele>318</ele>
        <time>2016-07-14T07:37:36Z</time>
      </trkpt>
      <trkpt lat="45.56226" lon="5.43645">
        <ele>318</ele>
        <time>2016-07-14T07:39:36Z</time>
      </trkpt>
      <trkpt lat="45.56235" lon="5.43704">
        <ele>318</ele>
        <time>2016-07-14T07:41:36Z</time>
      </trkpt>
      <trkpt lat="45.56238" lon="5.43718">
        <ele>318</ele>
        <time>2016-07-14T07:43:36Z</time>
      </trkpt>
      <trkpt lat="45.56252" lon="5.43817">
        <ele>317</ele>
        <time>2016-07-14T07:45:36Z</time>
      </trkpt>
      <trkpt lat="45.56265" lon="5.439">
        <ele>319</ele>
        <time>2016-07-14T07:47:36Z</time>
      </trkpt>
      <trkpt lat="45.56275" lon="5.43957">
        <ele>320</ele>
        <time>2016-07-14T07:49:36Z</time>
      </trkpt>
      <trkpt lat="45.56291" lon="5.4405">
        <ele>320</ele>
        <time>2016-07-14T07:51:36Z</time>
      </trkpt>
      <trkpt lat="45.56304" lon="5.44135">
        <ele>321</ele>
        <time>2016-07-14T07:53:36Z</time>
      </trkpt>
      <trkpt lat="45.56321" lon="5.44236">
        <ele>320</ele>
        <time>2016-07-14T07:55:36Z</time>
      </trkpt>
      <trkpt lat="45.56329" lon="5.44274">
        <ele>320</ele>
        <time>2016-07-14T07:57:36Z</time>
      </trkpt>
      <trkpt lat="45.56332" lon="5.44291">
        <ele>320</ele>
        <time>2016-07-14T07:59:36Z</time>
      </trkpt>
      <trkpt lat="45.56335" lon="5.44304">
        <ele>320</ele>
        <time>2016-07-14T08:01:36Z</time>
      </trkpt>
      <trkpt lat="45.56336" lon="5.4431">
        <ele>320</ele>
        <time>2016-07-14T08:03:36Z</time>
      </trkpt>
      <trkpt lat="45.56337" lon="5.44315">
        <ele>320</ele>
        <time>2016-07-14T08:05:36Z</time>
      </trkpt>
      <trkpt lat="45.56337" lon="5.44315">
        <ele>320</ele>
        <time>2016-07-14T08:07:36Z</time>
      </trkpt>
      <trkpt lat="45.56324" lon="5.44349">
        <ele>320</ele>
        <time>2016-07-14T08:09:36Z</time>
      </trkpt>
      <trkpt lat="45.56319" lon="5.44365">
        <ele>320</ele>
        <time>2016-07-14T08:11:36Z</time>
      </trkpt>
      <trkpt lat="45.56315" lon="5.44376">
        <ele>321</ele>
        <time>2016-07-14T08:13:36Z</time>
      </trkpt>
      <trkpt lat="45.56303" lon="5.44409">
        <ele>321</ele>
        <time>2016-07-14T08:15:36Z</time>
      </trkpt>
      <trkpt lat="45.56278" lon="5.44476">
        <ele>320</ele>
        <time>2016-07-14T08:17:36Z</time>
      </trkpt>
      <trkpt lat="45.56257" lon="5.44532">
        <ele>320</ele>
        <time>2016-07-14T08:19:36Z</time>
      </trkpt>
      <trkpt lat="45.56254" lon="5.44541">
        <ele>321</ele>
        <time>2016-07-14T08:21:36Z</time>
      </trkpt>
      <trkpt lat="45.56251" lon="5.44547">
        <ele>321</ele>
        <time>2016-07-14T08:23:36Z</time>
      </trkpt>
      <trkpt lat="45.56247" lon="5.44556">
        <ele>321</ele>
        <time>2016-07-14T08:25:36Z</time>
      </trkpt>
      <trkpt lat="45.56235" lon="5.4458">
        <ele>322</ele>
        <time>2016-07-14T08:27:36Z</time>
      </trkpt>
      <trkpt lat="45.5623" lon="5.44595">
        <ele>323</ele>
        <time>2016-07-14T08:29:36Z</time>
      </trkpt>
      <trkpt lat="45.56224" lon="5.44612">
        <ele>323</ele>
        <time>2016-07-14T08:31:36Z</time>
      </trkpt>
      <trkpt lat="45.56217" lon="5.44635">
        <ele>323</ele>
        <time>2016-07-14T08:33:36Z</time>
      </trkpt>
      <trkpt lat="45.5621" lon="5.44657">
        <ele>324</ele>
        <time>2016-07-14T08:35:36Z</time>
      </trkpt>
      <trkpt lat="45.56199" lon="5.44701">
        <ele>324</ele>
        <time>2016-07-14T08:37:36Z</time>
      </trkpt>
      <trkpt lat="45.56192" lon="5.44726">
        <ele>324</ele>
        <time>2016-07-14T08:39:36Z</time>
      </trkpt>
      <trkpt lat="45.56175" lon="5.44784">
        <ele>325</ele>
        <time>2016-07-14T08:41:36Z</time>
      </trkpt>
      <trkpt lat="45.5617" lon="5.448">
        <ele>325</ele>
        <time>2016-07-14T08:43:36Z</time>
      </trkpt>
      <trkpt lat="45.56163" lon="5.44825">
        <ele>325</ele>
        <time>2016-07-14T08:45:36Z</time>
      </trkpt>
      <trkpt lat="45.56138" lon="5.44908">
        <ele>328</ele>
        <time>2016-07-14T08:47:36Z</time>
      </trkpt>
      <trkpt lat="45.5613" lon="5.44936">
        <ele>328</ele>
        <time>2016-07-14T08:49:36Z</time>
      </trkpt>
      <trkpt lat="45.56123" lon="5.44958">
        <ele>329</ele>
        <time>2016-07-14T08:51:36Z</time>
      </trkpt>
      <trkpt lat="45.56118" lon="5.44979">
        <ele>329</ele>
        <time>2016-07-14T08:53:36Z</time>
      </trkpt>
      <trkpt lat="45.56101" lon="5.45053">
        <ele>329</ele>
        <time>2016-07-14T08:55:36Z</time>
      </trkpt>
      <trkpt lat="45.56094" lon="5.45083">
        <ele>329</ele>
        <time>2016-07-14T08:57:36Z</time>
      </trkpt>
      <trkpt lat="45.56087" lon="5.45107">
        <ele>329</ele>
        <time>2016-07-14T08:59:36Z</time>
      </trkpt>
      <trkpt lat="45.56045" lon="5.45298">
        <ele>331</ele>
        <time>2016-07-14T09:01:36Z</time>
      </trkpt>
      <trkpt lat="45.56043" lon="5.45305">
        <ele>332</ele>
        <time>2016-07-14T09:03:36Z</time>
      </trkpt>
      <trkpt lat="45.56038" lon="5.45331">
        <ele>332</ele>
        <time>2016-07-14T09:05:36Z</time>
      </trkpt>
      <trkpt lat="45.56023" lon="5.45397">
        <ele>332</ele>
        <time>2016-07-14T09:07:36Z</time>
      </trkpt>
      <trkpt lat="45.56021" lon="5.45406">
        <ele>332</ele>
        <time>2016-07-14T09:09:36Z</time>
      </trkpt>
      <trkpt lat="45.5602" lon="5.45411">
        <ele>332</ele>
        <time>2016-07-14T09:11:36Z</time>
      </trkpt>
      <trkpt lat="45.56019" lon="5.45417">
        <ele>332</ele>
        <time>2016-07-14T09:13:36Z</time>
      </trkpt>
      <trkpt lat="45.56019" lon="5.45421">
        <ele>332</ele>
        <time>2016-07-14T09:15:36Z</time>
      </trkpt>
      <trkpt lat="45.56019" lon="5.45425">
        <ele>332</ele>
        <time>2016-07-14T09:17:36Z</time>
      </trkpt>
      <trkpt lat="45.56019" lon="5.45432">
        <ele>332</ele>
        <time>2016-07-14T09:19:36Z</time>
      </trkpt>
      <trkpt lat="45.56033" lon="5.45492">
        <ele>334</ele>
        <time>2016-07-14T09:21:36Z</time>
      </trkpt>
      <trkpt lat="45.56037" lon="5.45505">
        <ele>334</ele>
        <time>2016-07-14T09:23:36Z</time>
      </trkpt>
      <trkpt lat="45.56039" lon="5.45513">
        <ele>334</ele>
        <time>2016-07-14T09:25:36Z</time>
      </trkpt>
      <trkpt lat="45.56038" lon="5.45513">
        <ele>334</ele>
        <time>2016-07-14T09:27:36Z</time>
      </trkpt>
      <trkpt lat="45.56038" lon="5.45514">
        <ele>334</ele>
        <time>2016-07-14T09:29:36Z</time>
      </trkpt>
      <trkpt lat="45.56037" lon="5.45514">
        <ele>334</ele>
        <time>2016-07-14T09:31:36Z</time>
      </trkpt>
      <trkpt lat="45.56037" lon="5.45515">
        <ele>334</ele>
        <time>2016-07-14T09:33:36Z</time>
      </trkpt>
      <trkpt lat="45.56036" lon="5.45515">
        <ele>334</ele>
        <time>2016-07-14T09:35:36Z</time>
      </trkpt>
      <trkpt lat="45.56036" lon="5.45516">
        <ele>334</ele>
        <time>2016-07-14T09:37:36Z</time>
      </trkpt>
      <trkpt lat="45.56036" lon="5.45517">
        <ele>334</ele>
        <time>2016-07-14T09:39:36Z</time>
      </trkpt>
      <trkpt lat="45.56035" lon="5.45517">
        <ele>334</ele>
        <time>2016-07-14T09:41:36Z</time>
      </trkpt>
      <trkpt lat="45.56035" lon="5.45518">
        <ele>334</ele>
        <time>2016-07-14T09:43:36Z</time>
      </trkpt>
      <trkpt lat="45.56035" lon="5.45519">
        <ele>334</ele>
        <time>2016-07-14T09:45:36Z</time>
      </trkpt>
      <trkpt lat="45.56035" lon="5.4552">
        <ele>334</ele>
        <time>2016-07-14T09:47:36Z</time>
      </trkpt>
      <trkpt lat="45.56034" lon="5.45521">
        <ele>334</ele>
        <time>2016-07-14T09:49:36Z</time>
      </trkpt>
      <trkpt lat="45.56034" lon="5.45522">
        <ele>334</ele>
        <time>2016-07-14T09:51:36Z</time>
      </trkpt>
      <trkpt lat="45.56034" lon="5.45523">
        <ele>335</ele>
        <time>2016-07-14T09:53:36Z</time>
      </trkpt>
      <trkpt lat="45.56034" lon="5.45524">
        <ele>335</ele>
        <time>2016-07-14T09:55:36Z</time>
      </trkpt>
      <trkpt lat="45.56034" lon="5.45525">
        <ele>335</ele>
        <time>2016-07-14T09:57:36Z</time>
      </trkpt>
      <trkpt lat="45.56035" lon="5.45525">
        <ele>335</ele>
        <time>2016-07-14T09:59:36Z</time>
      </trkpt>
      <trkpt lat="45.56035" lon="5.45526">
        <ele>335</ele>
        <time>2016-07-14T10:01:36Z</time>
      </trkpt>
      <trkpt lat="45.56035" lon="5.45527">
        <ele>335</ele>
        <time>2016-07-14T10:03:36Z</time>
      </trkpt>
      <trkpt lat="45.56035" lon="5.45528">
        <ele>335</ele>
        <time>2016-07-14T10:05:36Z</time>
      </trkpt>
      <trkpt lat="45.56033" lon="5.45538">
        <ele>335</ele>
        <time>2016-07-14T10:07:36Z</time>
      </trkpt>
      <trkpt lat="45.56031" lon="5.45547">
        <ele>335</ele>
        <time>2016-07-14T10:09:36Z</time>
      </trkpt>
      <trkpt lat="45.56029" lon="5.45561">
        <ele>335</ele>
        <time>2016-07-14T10:11:36Z</time>
      </trkpt>
      <trkpt lat="45.56025" lon="5.45574">
        <ele>335</ele>
        <time>2016-07-14T10:13:36Z</time>
      </trkpt>
      <trkpt lat="45.56016" lon="5.45597">
        <ele>336</ele>
        <time>2016-07-14T10:15:36Z</time>
      </trkpt>
      <trkpt lat="45.56012" lon="5.45612">
        <ele>336</ele>
        <time>2016-07-14T10:17:36Z</time>
      </trkpt>
      <trkpt lat="45.55997" lon="5.45645">
        <ele>336</ele>
        <time>2016-07-14T10:19:36Z</time>
      </trkpt>
      <trkpt lat="45.55987" lon="5.45669">
        <ele>336</ele>
        <time>2016-07-14T10:21:36Z</time>
      </trkpt>
      <trkpt lat="45.55978" lon="5.45691">
        <ele>338</ele>
        <time>2016-07-14T10:23:36Z</time>
      </trkpt>
      <trkpt lat="45.55968" lon="5.45715">
        <ele>339</ele>
        <time>2016-07-14T10:25:36Z</time>
      </trkpt>
      <trkpt lat="45.5596" lon="5.45736">
        <ele>340</ele>
        <time>2016-07-14T10:27:36Z</time>
      </trkpt>
      <trkpt lat="45.55953" lon="5.45758">
        <ele>341</ele>
        <time>2016-07-14T10:29:36Z</time>
      </trkpt>
      <trkpt lat="45.5594" lon="5.45804">
        <ele>345</ele>
        <time>2016-07-14T10:31:36Z</time>
      </trkpt>
      <trkpt lat="45.55934" lon="5.45824">
        <ele>346</ele>
        <time>2016-07-14T10:33:36Z</time>
      </trkpt>
      <trkpt lat="45.55873" lon="5.46041">
        <ele>355</ele>
        <time>2016-07-14T10:35:36Z</time>
      </trkpt>
      <trkpt lat="45.55862" lon="5.46077">
        <ele>354</ele>
        <time>2016-07-14T10:37:36Z</time>
      </trkpt>
      <trkpt lat="45.55847" lon="5.46132">
        <ele>351</ele>
        <time>2016-07-14T10:39:36Z</time>
      </trkpt>
      <trkpt lat="45.55825" lon="5.46218">
        <ele>348</ele>
        <time>2016-07-14T10:41:36Z</time>
      </trkpt>
      <trkpt lat="45.55824" lon="5.4622">
        <ele>348</ele>
        <time>2016-07-14T10:43:36Z</time>
      </trkpt>
      <trkpt lat="45.5582" lon="5.46236">
        <ele>348</ele>
        <time>2016-07-14T10:45:36Z</time>
      </trkpt>
      <trkpt lat="45.55818" lon="5.46239">
        <ele>348</ele>
        <time>2016-07-14T10:47:36Z</time>
      </trkpt>
      <trkpt lat="45.55814" lon="5.46254">
        <ele>349</ele>
        <time>2016-07-14T10:49:36Z</time>
      </trkpt>
      <trkpt lat="45.55811" lon="5.46268">
        <ele>348</ele>
        <time>2016-07-14T10:51:36Z</time>
      </trkpt>
      <trkpt lat="45.55809" lon="5.46277">
        <ele>348</ele>
        <time>2016-07-14T10:53:36Z</time>
      </trkpt>
      <trkpt lat="45.55806" lon="5.46287">
        <ele>348</ele>
        <time>2016-07-14T10:55:36Z</time>
      </trkpt>
      <trkpt lat="45.55797" lon="5.4631">
        <ele>348</ele>
        <time>2016-07-14T10:57:36Z</time>
      </trkpt>
      <trkpt lat="45.55787" lon="5.4633">
        <ele>347</ele>
        <time>2016-07-14T10:59:36Z</time>
      </trkpt>
      <trkpt lat="45.55763" lon="5.4636">
        <ele>347</ele>
        <time>2016-07-14T11:01:36Z</time>
      </trkpt>
      <trkpt lat="45.55739" lon="5.46389">
        <ele>347</ele>
        <time>2016-07-14T11:03:36Z</time>
      </trkpt>
      <trkpt lat="45.55735" lon="5.46397">
        <ele>347</ele>
        <time>2016-07-14T11:05:36Z</time>
      </trkpt>
      <trkpt lat="45.55731" lon="5.46407">
        <ele>348</ele>
        <time>2016-07-14T11:07:36Z</time>
      </trkpt>
      <trkpt lat="45.55727" lon="5.46418">
        <ele>348</ele>
        <time>2016-07-14T11:09:36Z</time>
      </trkpt>
      <trkpt lat="45.55724" lon="5.46429">
        <ele>348</ele>
        <time>2016-07-14T11:11:36Z</time>
      </trkpt>
      <trkpt lat="45.55722" lon="5.46437">
        <ele>348</ele>
        <time>2016-07-14T11:13:36Z</time>
      </trkpt>
      <trkpt lat="45.5572" lon="5.46448">
        <ele>349</ele>
        <time>2016-07-14T11:15:36Z</time>
      </trkpt>
      <trkpt lat="45.55719" lon="5.46457">
        <ele>349</ele>
        <time>2016-07-14T11:17:36Z</time>
      </trkpt>
      <trkpt lat="45.55718" lon="5.4647">
        <ele>350</ele>
        <time>2016-07-14T11:19:36Z</time>
      </trkpt>
      <trkpt lat="45.55718" lon="5.46483">
        <ele>350</ele>
        <time>2016-07-14T11:21:36Z</time>
      </trkpt>
      <trkpt lat="45.55718" lon="5.46497">
        <ele>351</ele>
        <time>2016-07-14T11:23:36Z</time>
      </trkpt>
      <trkpt lat="45.55718" lon="5.46513">
        <ele>351</ele>
        <time>2016-07-14T11:25:36Z</time>
      </trkpt>
      <trkpt lat="45.55722" lon="5.46554">
        <ele>351</ele>
        <time>2016-07-14T11:27:36Z</time>
      </trkpt>
      <trkpt lat="45.55725" lon="5.46595">
        <ele>351</ele>
        <time>2016-07-14T11:29:36Z</time>
      </trkpt>
      <trkpt lat="45.55728" lon="5.46631">
        <ele>352</ele>
        <time>2016-07-14T11:31:36Z</time>
      </trkpt>
      <trkpt lat="45.55727" lon="5.46632">
        <ele>352</ele>
        <time>2016-07-14T11:33:36Z</time>
      </trkpt>
      <trkpt lat="45.55725" lon="5.46632">
        <ele>352</ele>
        <time>2016-07-14T11:35:36Z</time>
      </trkpt>
      <trkpt lat="45.55724" lon="5.46632">
        <ele>352</ele>
        <time>2016-07-14T11:37:36Z</time>
      </trkpt>
      <trkpt lat="45.55722" lon="5.46633">
        <ele>352</ele>
        <time>2016-07-14T11:39:36Z</time>
      </trkpt>
      <trkpt lat="45.55721" lon="5.46634">
        <ele>352</ele>
        <time>2016-07-14T11:41:36Z</time>
      </trkpt>
      <trkpt lat="45.55719" lon="5.46635">
        <ele>352</ele>
        <time>2016-07-14T11:43:36Z</time>
      </trkpt>
      <trkpt lat="45.55718" lon="5.46636">
        <ele>352</ele>
        <time>2016-07-14T11:45:36Z</time>
      </trkpt>
      <trkpt lat="45.55717" lon="5.46637">
        <ele>352</ele>
        <time>2016-07-14T11:47:36Z</time>
      </trkpt>
      <trkpt lat="45.55716" lon="5.46639">
        <ele>352</ele>
        <time>2016-07-14T11:49:36Z</time>
      </trkpt>
      <trkpt lat="45.55715" lon="5.4664">
        <ele>352</ele>
        <time>2016-07-14T11:51:36Z</time>
      </trkpt>
      <trkpt lat="45.55714" lon="5.46642">
        <ele>352</ele>
        <time>2016-07-14T11:53:36Z</time>
      </trkpt>
      <trkpt lat="45.55713" lon="5.46644">
        <ele>352</ele>
        <time>2016-07-14T11:55:36Z</time>
      </trkpt>
      <trkpt lat="45.55712" lon="5.46646">
        <ele>352</ele>
        <time>2016-07-14T11:57:36Z</time>
      </trkpt>
      <trkpt lat="45.55711" lon="5.46648">
        <ele>352</ele>
        <time>2016-07-14T11:59:36Z</time>
      </trkpt>
      <trkpt lat="45.55711" lon="5.4665">
        <ele>352</ele>
        <time>2016-07-14T12:01:36Z</time>
      </trkpt>
      <trkpt lat="45.5571" lon="5.46652">
        <ele>352</ele>
        <time>2016-07-14T12:03:36Z</time>
      </trkpt>
      <trkpt lat="45.5571" lon="5.46654">
        <ele>352</ele>
        <time>2016-07-14T12:05:36Z</time>
      </trkpt>
      <trkpt lat="45.5571" lon="5.46656">
        <ele>352</ele>
        <time>2016-07-14T12:07:36Z</time>
      </trkpt>
      <trkpt lat="45.5571" lon="5.46658">
        <ele>352</ele>
        <time>2016-07-14T12:09:36Z</time>
      </trkpt>
      <trkpt lat="45.5571" lon="5.4666">
        <ele>352</ele>
        <time>2016-07-14T12:11:36Z</time>
      </trkpt>
      <trkpt lat="45.5571" lon="5.46661">
        <ele>352</ele>
        <time>2016-07-14T12:13:36Z</time>
      </trkpt>
      <trkpt lat="45.5571" lon="5.46663">
        <ele>352</ele>
        <time>2016-07-14T12:15:36Z</time>
      </trkpt>
      <trkpt lat="45.55711" lon="5.46665">
        <ele>352</ele>
        <time>2016-07-14T12:17:36Z</time>
      </trkpt>
      <trkpt lat="45.55711" lon="5.46667">
        <ele>352</ele>
        <time>2016-07-14T12:19:36Z</time>
      </trkpt>
      <trkpt lat="45.55712" lon="5.46669">
        <ele>353</ele>
        <time>2016-07-14T12:21:36Z</time>
      </trkpt>
      <trkpt lat="45.55713" lon="5.46671">
        <ele>353</ele>
        <time>2016-07-14T12:23:36Z</time>
      </trkpt>
      <trkpt lat="45.55713" lon="5.46673">
        <ele>353</ele>
        <time>2016-07-14T12:25:36Z</time>
      </trkpt>
      <trkpt lat="45.55714" lon="5.46675">
        <ele>353</ele>
        <time>2016-07-14T12:27:36Z</time>
      </trkpt>
      <trkpt lat="45.55715" lon="5.46676">
        <ele>353</ele>
        <time>2016-07-14T12:29:36Z</time>
      </trkpt>
      <trkpt lat="45.55716" lon="5.46678">
        <ele>353</ele>
        <time>2016-07-14T12:31:36Z</time>
      </trkpt>
      <trkpt lat="45.55718" lon="5.46679">
        <ele>353</ele>
        <time>2016-07-14T12:33:36Z</time>
      </trkpt>
      <trkpt lat="45.55719" lon="5.46681">
        <ele>353</ele>
        <time>2016-07-14T12:35:36Z</time>
      </trkpt>
      <trkpt lat="45.5572" lon="5.46682">
        <ele>353</ele>
        <time>2016-07-14T12:37:36Z</time>
      </trkpt>
      <trkpt lat="45.55722" lon="5.46682">
        <ele>353</ele>
        <time>2016-07-14T12:39:36Z</time>
      </trkpt>
      <trkpt lat="45.55723" lon="5.46683">
        <ele>353</ele>
        <time>2016-07-14T12:41:36Z</time>
      </trkpt>
      <trkpt lat="45.55725" lon="5.46684">
        <ele>353</ele>
        <time>2016-07-14T12:43:36Z</time>
      </trkpt>
      <trkpt lat="45.55726" lon="5.46684">
        <ele>353</ele>
        <time>2016-07-14T12:45:36Z</time>
      </trkpt>
      <trkpt lat="45.55728" lon="5.46684">
        <ele>353</ele>
        <time>2016-07-14T12:47:36Z</time>
      </trkpt>
      <trkpt lat="45.55729" lon="5.46684">
        <ele>353</ele>
        <time>2016-07-14T12:49:36Z</time>
      </trkpt>
      <trkpt lat="45.55731" lon="5.46684">
        <ele>353</ele>
        <time>2016-07-14T12:51:36Z</time>
      </trkpt>
      <trkpt lat="45.55732" lon="5.46684">
        <ele>353</ele>
        <time>2016-07-14T12:53:36Z</time>
      </trkpt>
      <trkpt lat="45.55734" lon="5.46683">
        <ele>353</ele>
        <time>2016-07-14T12:55:36Z</time>
      </trkpt>
      <trkpt lat="45.55735" lon="5.46683">
        <ele>353</ele>
        <time>2016-07-14T12:57:36Z</time>
      </trkpt>
      <trkpt lat="45.55743" lon="5.46723">
        <ele>354</ele>
        <time>2016-07-14T12:59:36Z</time>
      </trkpt>
      <trkpt lat="45.55743" lon="5.4673">
        <ele>354</ele>
        <time>2016-07-14T13:01:36Z</time>
      </trkpt>
      <trkpt lat="45.55744" lon="5.46739">
        <ele>354</ele>
        <time>2016-07-14T13:03:36Z</time>
      </trkpt>
      <trkpt lat="45.55744" lon="5.46751">
        <ele>354</ele>
        <time>2016-07-14T13:05:36Z</time>
      </trkpt>
      <trkpt lat="45.55742" lon="5.46769">
        <ele>355</ele>
        <time>2016-07-14T13:07:36Z</time>
      </trkpt>
      <trkpt lat="45.5573" lon="5.46869">
        <ele>356</ele>
        <time>2016-07-14T13:09:36Z</time>
      </trkpt>
      <trkpt lat="45.55706" lon="5.47083">
        <ele>363</ele>
        <time>2016-07-14T13:11:36Z</time>
      </trkpt>
      <trkpt lat="45.55684" lon="5.47276">
        <ele>366</ele>
        <time>2016-07-14T13:13:36Z</time>
      </trkpt>
      <trkpt lat="45.55671" lon="5.47389">
        <ele>368</ele>
        <time>2016-07-14T13:15:36Z</time>
      </trkpt>
      <trkpt lat="45.55664" lon="5.4744">
        <ele>369</ele>
        <time>2016-07-14T13:17:36Z</time>
      </trkpt>
      <trkpt lat="45.55657" lon="5.475">
        <ele>370</ele>
        <time>2016-07-14T13:19:36Z</time>
      </trkpt>
      <trkpt lat="45.55651" lon="5.47551">
        <ele>372</ele>
        <time>2016-07-14T13:21:36Z</time>
      </trkpt>
      <trkpt lat="45.55639" lon="5.47653">
        <ele>376</ele>
        <time>2016-07-14T13:23:36Z</time>
      </trkpt>
      <trkpt lat="45.55628" lon="5.47748">
        <ele>379</ele>
        <time>2016-07-14T13:25:36Z</time>
      </trkpt>
      <trkpt lat="45.55622" lon="5.47797">
        <ele>380</ele>
        <time>2016-07-14T13:27:36Z</time>
      </trkpt>
      <trkpt lat="45.55614" lon="5.47862">
        <ele>380</ele>
        <time>2016-07-14T13:29:36Z</time>
      </trkpt>
      <trkpt lat="45.55607" lon="5.47925">
        <ele>380</ele>
        <time>2016-07-14T13:31:36Z</time>
      </trkpt>
      <trkpt lat="45.55598" lon="5.48003">
        <ele>382</ele>
        <time>2016-07-14T13:33:36Z</time>
      </trkpt>
      <trkpt lat="45.55589" lon="5.48081">
        <ele>383</ele>
        <time>2016-07-14T13:35:36Z</time>
      </trkpt>
      <trkpt lat="45.5557" lon="5.4824">
        <ele>380</ele>
        <time>2016-07-14T13:37:36Z</time>
      </trkpt>
      <trkpt lat="45.55567" lon="5.48257">
        <ele>380</ele>
        <time>2016-07-14T13:39:36Z</time>
      </trkpt>
      <trkpt lat="45.55559" lon="5.48277">
        <ele>380</ele>
        <time>2016-07-14T13:41:36Z</time>
      </trkpt>
      <trkpt lat="45.55554" lon="5.48291">
        <ele>380</ele>
        <time>2016-07-14T13:43:36Z</time>
      </trkpt>
      <trkpt lat="45.5555" lon="5.48304">
        <ele>380</ele>
        <time>2016-07-14T13:45:36Z</time>
      </trkpt>
      <trkpt lat="45.55545" lon="5.48318">
        <ele>380</ele>
        <time>2016-07-14T13:47:36Z</time>
      </trkpt>
      <trkpt lat="45.55542" lon="5.4833">
        <ele>380</ele>
        <time>2016-07-14T13:49:36Z</time>
      </trkpt>
      <trkpt lat="45.55537" lon="5.48348">
        <ele>380</ele>
        <time>2016-07-14T13:51:36Z</time>
      </trkpt>
      <trkpt lat="45.55534" lon="5.48363">
        <ele>380</ele>
        <time>2016-07-14T13:53:36Z</time>
      </trkpt>
      <trkpt lat="45.55532" lon="5.48374">
        <ele>380</ele>
        <time>2016-07-14T13:55:36Z</time>
      </trkpt>
      <trkpt lat="45.55529" lon="5.48383">
        <ele>380</ele>
        <time>2016-07-14T13:57:36Z</time>
      </trkpt>
      <trkpt lat="45.55525" lon="5.48398">
        <ele>380</ele>
        <time>2016-07-14T13:59:36Z</time>
      </trkpt>
      <trkpt lat="45.55522" lon="5.48404">
        <ele>380</ele>
        <time>2016-07-14T14:01:36Z</time>
      </trkpt>
      <trkpt lat="45.55517" lon="5.48416">
        <ele>380</ele>
        <time>2016-07-14T14:03:36Z</time>
      </trkpt>
      <trkpt lat="45.55511" lon="5.48429">
        <ele>380</ele>
        <time>2016-07-14T14:05:36Z</time>
      </trkpt>
      <trkpt lat="45.5551" lon="5.48429">
        <ele>380</ele>
        <time>2016-07-14T14:07:36Z</time>
      </trkpt>
      <trkpt lat="45.55509" lon="5.48428">
        <ele>380</ele>
        <time>2016-07-14T14:09:36Z</time>
      </trkpt>
      <trkpt lat="45.55508" lon="5.48428">
        <ele>381</ele>
        <time>2016-07-14T14:11:36Z</time>
      </trkpt>
      <trkpt lat="45.55507" lon="5.48428">
        <ele>381</ele>
        <time>2016-07-14T14:13:36Z</time>
      </trkpt>
      <trkpt lat="45.55506" lon="5.48428">
        <ele>381</ele>
        <time>2016-07-14T14:15:36Z</time>
      </trkpt>
      <trkpt lat="45.55505" lon="5.48428">
        <ele>381</ele>
        <time>2016-07-14T14:17:36Z</time>
      </trkpt>
      <trkpt lat="45.55505" lon="5.48429">
        <ele>381</ele>
        <time>2016-07-14T14:19:36Z</time>
      </trkpt>
      <trkpt lat="45.55504" lon="5.48429">
        <ele>381</ele>
        <time>2016-07-14T14:21:36Z</time>
      </trkpt>
      <trkpt lat="45.55503" lon="5.48429">
        <ele>381</ele>
        <time>2016-07-14T14:23:36Z</time>
      </trkpt>
      <trkpt lat="45.55503" lon="5.4843">
        <ele>381</ele>
        <time>2016-07-14T14:25:36Z</time>
      </trkpt>
      <trkpt lat="45.55502" lon="5.4843">
        <ele>381</ele>
        <time>2016-07-14T14:27:36Z</time>
      </trkpt>
      <trkpt lat="45.55502" lon="5.48431">
        <ele>381</ele>
        <time>2016-07-14T14:29:36Z</time>
      </trkpt>
      <trkpt lat="45.55501" lon="5.48432">
        <ele>381</ele>
        <time>2016-07-14T14:31:36Z</time>
      </trkpt>
      <trkpt lat="45.55501" lon="5.48433">
        <ele>381</ele>
        <time>2016-07-14T14:33:36Z</time>
      </trkpt>
      <trkpt lat="45.555" lon="5.48433">
        <ele>381</ele>
        <time>2016-07-14T14:35:36Z</time>
      </trkpt>
      <trkpt lat="45.555" lon="5.48434">
        <ele>381</ele>
        <time>2016-07-14T14:37:36Z</time>
      </trkpt>
      <trkpt lat="45.555" lon="5.48435">
        <ele>381</ele>
        <time>2016-07-14T14:39:36Z</time>
      </trkpt>
      <trkpt lat="45.555" lon="5.48436">
        <ele>381</ele>
        <time>2016-07-14T14:41:36Z</time>
      </trkpt>
      <trkpt lat="45.55499" lon="5.48437">
        <ele>381</ele>
        <time>2016-07-14T14:43:36Z</time>
      </trkpt>
      <trkpt lat="45.55499" lon="5.48438">
        <ele>381</ele>
        <time>2016-07-14T14:45:36Z</time>
      </trkpt>
      <trkpt lat="45.55499" lon="5.48439">
        <ele>381</ele>
        <time>2016-07-14T14:47:36Z</time>
      </trkpt>
      <trkpt lat="45.55499" lon="5.4844">
        <ele>381</ele>
        <time>2016-07-14T14:49:36Z</time>
      </trkpt>
      <trkpt lat="45.55499" lon="5.48441">
        <ele>381</ele>
        <time>2016-07-14T14:51:36Z</time>
      </trkpt>
      <trkpt lat="45.55499" lon="5.48442">
        <ele>381</ele>
        <time>2016-07-14T14:53:36Z</time>
      </trkpt>
      <trkpt lat="45.55499" lon="5.48443">
        <ele>381</ele>
        <time>2016-07-14T14:55:36Z</time>
      </trkpt>
      <trkpt lat="45.555" lon="5.48444">
        <ele>381</ele>
        <time>2016-07-14T14:57:36Z</time>
      </trkpt>
      <trkpt lat="45.555" lon="5.48445">
        <ele>381</ele>
        <time>2016-07-14T14:59:36Z</time>
      </trkpt>
      <trkpt lat="45.555" lon="5.48446">
        <ele>381</ele>
        <time>2016-07-14T15:01:36Z</time>
      </trkpt>
      <trkpt lat="45.55501" lon="5.48446">
        <ele>381</ele>
        <time>2016-07-14T15:03:36Z</time>
      </trkpt>
      <trkpt lat="45.55501" lon="5.48447">
        <ele>381</ele>
        <time>2016-07-14T15:05:36Z</time>
      </trkpt>
      <trkpt lat="45.55501" lon="5.48448">
        <ele>381</ele>
        <time>2016-07-14T15:07:36Z</time>
      </trkpt>
      <trkpt lat="45.55502" lon="5.48448">
        <ele>381</ele>
        <time>2016-07-14T15:09:36Z</time>
      </trkpt>
      <trkpt lat="45.55502" lon="5.48449">
        <ele>381</ele>
        <time>2016-07-14T15:11:36Z</time>
      </trkpt>
      <trkpt lat="45.55503" lon="5.48449">
        <ele>381</ele>
        <time>2016-07-14T15:13:36Z</time>
      </trkpt>
      <trkpt lat="45.55503" lon="5.4845">
        <ele>381</ele>
        <time>2016-07-14T15:15:36Z</time>
      </trkpt>
      <trkpt lat="45.55504" lon="5.4845">
        <ele>380</ele>
        <time>2016-07-14T15:17:36Z</time>
      </trkpt>
      <trkpt lat="45.55504" lon="5.48451">
        <ele>380</ele>
        <time>2016-07-14T15:19:36Z</time>
      </trkpt>
      <trkpt lat="45.55505" lon="5.48451">
        <ele>380</ele>
        <time>2016-07-14T15:21:36Z</time>
      </trkpt>
      <trkpt lat="45.55504" lon="5.48456">
        <ele>380</ele>
        <time>2016-07-14T15:23:36Z</time>
      </trkpt>
      <trkpt lat="45.55501" lon="5.48469">
        <ele>380</ele>
        <time>2016-07-14T15:25:36Z</time>
      </trkpt>
      <trkpt lat="45.55473" lon="5.48562">
        <ele>383</ele>
        <time>2016-07-14T15:27:36Z</time>
      </trkpt>
      <trkpt lat="45.55465" lon="5.48589">
        <ele>383</ele>
        <time>2016-07-14T15:29:36Z</time>
      </trkpt>
      <trkpt lat="45.55458" lon="5.48609">
        <ele>384</ele>
        <time>2016-07-14T15:31:36Z</time>
      </trkpt>
      <trkpt lat="45.55453" lon="5.48625">
        <ele>384</ele>
        <time>2016-07-14T15:33:36Z</time>
      </trkpt>
      <trkpt lat="45.55446" lon="5.48642">
        <ele>385</ele>
        <time>2016-07-14T15:35:36Z</time>
      </trkpt>
      <trkpt lat="45.55435" lon="5.48666">
        <ele>385</ele>
        <time>2016-07-14T15:37:36Z</time>
      </trkpt>
      <trkpt lat="45.55409" lon="5.48726">
        <ele>386</ele>
        <time>2016-07-14T15:39:36Z</time>
      </trkpt>
      <trkpt lat="45.5539" lon="5.48767">
        <ele>388</ele>
        <time>2016-07-14T15:41:36Z</time>
      </trkpt>
      <trkpt lat="45.55358" lon="5.48843">
        <ele>392</ele>
        <time>2016-07-14T15:43:36Z</time>
      </trkpt>
      <trkpt lat="45.55327" lon="5.48917">
        <ele>392</ele>
        <time>2016-07-14T15:45:36Z</time>
      </trkpt>
      <trkpt lat="45.55273" lon="5.49045">
        <ele>397</ele>
        <time>2016-07-14T15:47:36Z</time>
      </trkpt>
      <trkpt lat="45.55256" lon="5.49088">
        <ele>397</ele>
        <time>2016-07-14T15:49:36Z</time>
      </trkpt>
      <trkpt lat="45.55248" lon="5.49108">
        <ele>397</ele>
        <time>2016-07-14T15:51:36Z</time>
      </trkpt>
      <trkpt lat="45.55242" lon="5.49123">
        <ele>397</ele>
        <time>2016-07-14T15:53:36Z</time>
      </trkpt>
      <trkpt lat="45.5524" lon="5.49131">
        <ele>397</ele>
        <time>2016-07-14T15:55:36Z</time>
      </trkpt>
      <trkpt lat="45.55238" lon="5.49138">
        <ele>397</ele>
        <time>2016-07-14T15:57:36Z</time>
      </trkpt>
      <trkpt lat="45.55231" lon="5.4917">
        <ele>397</ele>
        <time>2016-07-14T15:59:36Z</time>
      </trkpt>
      <trkpt lat="45.55223" lon="5.49209">
        <ele>396</ele>
        <time>2016-07-14T16:01:36Z</time>
      </trkpt>
      <trkpt lat="45.55199" lon="5.49347">
        <ele>398</ele>
        <time>2016-07-14T16:03:36Z</time>
      </trkpt>
      <trkpt lat="45.55184" lon="5.49435">
        <ele>400</ele>
        <time>2016-07-14T16:05:36Z</time>
      </trkpt>
      <trkpt lat="45.55172" lon="5.49507">
        <ele>403</ele>
        <time>2016-07-14T16:07:36Z</time>
      </trkpt>
      <trkpt lat="45.5517" lon="5.49515">
        <ele>404</ele>
        <time>2016-07-14T16:09:36Z</time>
      </trkpt>
      <trkpt lat="45.5515" lon="5.49632">
        <ele>408</ele>
        <time>2016-07-14T16:11:36Z</time>
      </trkpt>
      <trkpt lat="45.55133" lon="5.49726">
        <ele>411</ele>
        <time>2016-07-14T16:13:36Z</time>
      </trkpt>
      <trkpt lat="45.5513" lon="5.49744">
        <ele>411</ele>
        <time>2016-07-14T16:15:36Z</time>
      </trkpt>
      <trkpt lat="45.55105" lon="5.49889">
        <ele>414</ele>
        <time>2016-07-14T16:17:36Z</time>
      </trkpt>
      <trkpt lat="45.55094" lon="5.49954">
        <ele>415</ele>
        <time>2016-07-14T16:19:36Z</time>
      </trkpt>
      <trkpt lat="45.55065" lon="5.50122">
        <ele>419</ele>
        <time>2016-07-14T16:21:36Z</time>
      </trkpt>
      <trkpt lat="45.55052" lon="5.50197">
        <ele>421</ele>
        <time>2016-07-14T16:23:36Z</time>
      </trkpt>
      <trkpt lat="45.55037" lon="5.50287">
        <ele>424</ele>
        <time>2016-07-14T16:25:36Z</time>
      </trkpt>
      <trkpt lat="45.55035" lon="5.503">
        <ele>424</ele>
        <time>2016-07-14T16:27:36Z</time>
      </trkpt>
      <trkpt lat="45.55024" lon="5.50363">
        <ele>426</ele>
        <time>2016-07-14T16:29:36Z</time>
      </trkpt>
      <trkpt lat="45.55015" lon="5.50421">
        <ele>427</ele>
        <time>2016-07-14T16:31:36Z</time>
      </trkpt>
      <trkpt lat="45.54995" lon="5.50541">
        <ele>426</ele>
        <time>2016-07-14T16:33:36Z</time>
      </trkpt>
      <trkpt lat="45.5499" lon="5.50567">
        <ele>426</ele>
        <time>2016-07-14T16:35:36Z</time>
      </trkpt>
      <trkpt lat="45.54982" lon="5.50598">
        <ele>426</ele>
        <time>2016-07-14T16:37:36Z</time>
      </trkpt>
      <trkpt lat="45.54972" lon="5.50631">
        <ele>425</ele>
        <time>2016-07-14T16:39:36Z</time>
      </trkpt>
      <trkpt lat="45.54959" lon="5.50665">
        <ele>425</ele>
        <time>2016-07-14T16:41:36Z</time>
      </trkpt>
      <trkpt lat="45.54944" lon="5.50705">
        <ele>424</ele>
        <time>2016-07-14T16:43:36Z</time>
      </trkpt>
      <trkpt lat="45.54932" lon="5.50737">
        <ele>425</ele>
        <time>2016-07-14T16:45:36Z</time>
      </trkpt>
      <trkpt lat="45.54923" lon="5.50763">
        <ele>425</ele>
        <time>2016-07-14T16:47:36Z</time>
      </trkpt>
      <trkpt lat="45.54913" lon="5.50794">
        <ele>426</ele>
        <time>2016-07-14T16:49:36Z</time>
      </trkpt>
      <trkpt lat="45.54899" lon="5.50841">
        <ele>428</ele>
        <time>2016-07-14T16:51:36Z</time>
      </trkpt>
      <trkpt lat="45.54878" lon="5.50916">
        <ele>431</ele>
        <time>2016-07-14T16:53:36Z</time>
      </trkpt>
      <trkpt lat="45.54867" lon="5.50955">
        <ele>433</ele>
        <time>2016-07-14T16:55:36Z</time>
      </trkpt>
      <trkpt lat="45.54836" lon="5.51066">
        <ele>434</ele>
        <time>2016-07-14T16:57:36Z</time>
      </trkpt>
      <trkpt lat="45.54815" lon="5.5114">
        <ele>432</ele>
        <time>2016-07-14T16:59:36Z</time>
      </trkpt>
      <trkpt lat="45.54787" lon="5.51231">
        <ele>431</ele>
        <time>2016-07-14T17:01:36Z</time>
      </trkpt>
      <trkpt lat="45.54764" lon="5.51304">
        <ele>428</ele>
        <time>2016-07-14T17:03:36Z</time>
      </trkpt>
      <trkpt lat="45.54739" lon="5.51369">
        <ele>426</ele>
        <time>2016-07-14T17:05:36Z</time>
      </trkpt>
      <trkpt lat="45.54713" lon="5.51436">
        <ele>426</ele>
        <time>2016-07-14T17:07:36Z</time>
      </trkpt>
      <trkpt lat="45.54696" lon="5.51477">
        <ele>426</ele>
        <time>2016-07-14T17:09:36Z</time>
      </trkpt>
      <trkpt lat="45.54656" lon="5.51578">
        <ele>426</ele>
        <time>2016-07-14T17:11:36Z</time>
      </trkpt>
      <trkpt lat="45.54648" lon="5.51597">
        <ele>426</ele>
        <time>2016-07-14T17:13:36Z</time>
      </trkpt>
      <trkpt lat="45.54639" lon="5.51615">
        <ele>427</ele>
        <time>2016-07-14T17:15:36Z</time>
      </trkpt>
      <trkpt lat="45.5463" lon="5.51631">
        <ele>427</ele>
        <time>2016-07-14T17:17:36Z</time>
      </trkpt>
      <trkpt lat="45.54622" lon="5.51646">
        <ele>428</ele>
        <time>2016-07-14T17:19:36Z</time>
      </trkpt>
      <trkpt lat="45.54606" lon="5.51675">
        <ele>429</ele>
        <time>2016-07-14T17:21:36Z</time>
      </trkpt>
      <trkpt lat="45.54589" lon="5.51705">
        <ele>429</ele>
        <time>2016-07-14T17:23:36Z</time>
      </trkpt>
      <trkpt lat="45.54582" lon="5.5172">
        <ele>428</ele>
        <time>2016-07-14T17:25:36Z</time>
      </trkpt>
      <trkpt lat="45.54573" lon="5.5174">
        <ele>428</ele>
        <time>2016-07-14T17:27:36Z</time>
      </trkpt>
      <trkpt lat="45.54565" lon="5.51761">
        <ele>428</ele>
        <time>2016-07-14T17:29:36Z</time>
      </trkpt>
      <trkpt lat="45.54557" lon="5.51783">
        <ele>429</ele>
        <time>2016-07-14T17:31:36Z</time>
      </trkpt>
      <trkpt lat="45.54548" lon="5.51805">
        <ele>429</ele>
        <time>2016-07-14T17:33:36Z</time>
      </trkpt>
      <trkpt lat="45.54538" lon="5.51832">
        <ele>428</ele>
        <time>2016-07-14T17:35:36Z</time>
      </trkpt>
      <trkpt lat="45.54523" lon="5.51866">
        <ele>428</ele>
        <time>2016-07-14T17:37:36Z</time>
      </trkpt>
      <trkpt lat="45.54478" lon="5.51959">
        <ele>425</ele>
        <time>2016-07-14T17:39:36Z</time>
      </trkpt>
      <trkpt lat="45.54425" lon="5.52069">
        <ele>420</ele>
        <time>2016-07-14T17:41:36Z</time>
      </trkpt>
      <trkpt lat="45.54416" lon="5.52088">
        <ele>419</ele>
        <time>2016-07-14T17:43:36Z</time>
      </trkpt>
      <trkpt lat="45.54411" lon="5.52095">
        <ele>419</ele>
        <time>2016-07-14T17:45:36Z</time>
      </trkpt>
      <trkpt lat="45.54398" lon="5.5212">
        <ele>420</ele>
        <time>2016-07-14T17:47:36Z</time>
      </trkpt>
      <trkpt lat="45.54391" lon="5.52134">
        <ele>420</ele>
        <time>2016-07-14T17:49:36Z</time>
      </trkpt>
      <trkpt lat="45.54385" lon="5.52148">
        <ele>420</ele>
        <time>2016-07-14T17:51:36Z</time>
      </trkpt>
      <trkpt lat="45.54381" lon="5.5216">
        <ele>420</ele>
        <time>2016-07-14T17:53:36Z</time>
      </trkpt>
      <trkpt lat="45.54376" lon="5.52175">
        <ele>420</ele>
        <time>2016-07-14T17:55:36Z</time>
      </trkpt>
      <trkpt lat="45.5437" lon="5.52189">
        <ele>420</ele>
        <time>2016-07-14T17:57:36Z</time>
      </trkpt>
      <trkpt lat="45.54365" lon="5.52202">
        <ele>420</ele>
        <time>2016-07-14T17:59:36Z</time>
      </trkpt>
      <trkpt lat="45.54357" lon="5.52219">
        <ele>420</ele>
        <time>2016-07-14T18:01:36Z</time>
      </trkpt>
      <trkpt lat="45.54348" lon="5.52242">
        <ele>420</ele>
        <time>2016-07-14T18:03:36Z</time>
      </trkpt>
      <trkpt lat="45.54322" lon="5.52301">
        <ele>419</ele>
        <time>2016-07-14T18:05:36Z</time>
      </trkpt>
      <trkpt lat="45.5432" lon="5.52304">
        <ele>419</ele>
        <time>2016-07-14T18:07:36Z</time>
      </trkpt>
      <trkpt lat="45.543" lon="5.52355">
        <ele>419</ele>
        <time>2016-07-14T18:09:36Z</time>
      </trkpt>
      <trkpt lat="45.54295" lon="5.52366">
        <ele>419</ele>
        <time>2016-07-14T18:11:36Z</time>
      </trkpt>
      <trkpt lat="45.5429" lon="5.52377">
        <ele>419</ele>
        <time>2016-07-14T18:13:36Z</time>
      </trkpt>
      <trkpt lat="45.54259" lon="5.52445">
        <ele>417</ele>
        <time>2016-07-14T18:15:36Z</time>
      </trkpt>
      <trkpt lat="45.54256" lon="5.52454">
        <ele>417</ele>
        <time>2016-07-14T18:17:36Z</time>
      </trkpt>
      <trkpt lat="45.54246" lon="5.52472">
        <ele>416</ele>
        <time>2016-07-14T18:19:36Z</time>
      </trkpt>
      <trkpt lat="45.54239" lon="5.52482">
        <ele>416</ele>
        <time>2016-07-14T18:21:36Z</time>
      </trkpt>
      <trkpt lat="45.54231" lon="5.5249">
        <ele>416</ele>
        <time>2016-07-14T18:23:36Z</time>
      </trkpt>
      <trkpt lat="45.54221" lon="5.52498">
        <ele>416</ele>
        <time>2016-07-14T18:25:36Z</time>
      </trkpt>
      <trkpt lat="45.54207" lon="5.52508">
        <ele>416</ele>
        <time>2016-07-14T18:27:36Z</time>
      </trkpt>
      <trkpt lat="45.54197" lon="5.52515">
        <ele>417</ele>
        <time>2016-07-14T18:29:36Z</time>
      </trkpt>
      <trkpt lat="45.54192" lon="5.5252">
        <ele>416</ele>
        <time>2016-07-14T18:31:36Z</time>
      </trkpt>
      <trkpt lat="45.54187" lon="5.52525">
        <ele>416</ele>
        <time>2016-07-14T18:33:36Z</time>
      </trkpt>
      <trkpt lat="45.54183" lon="5.52529">
        <ele>416</ele>
        <time>2016-07-14T18:35:36Z</time>
      </trkpt>
      <trkpt lat="45.54174" lon="5.52539">
        <ele>416</ele>
        <time>2016-07-14T18:37:36Z</time>
      </trkpt>
      <trkpt lat="45.54167" lon="5.52548">
        <ele>415</ele>
        <time>2016-07-14T18:39:36Z</time>
      </trkpt>
      <trkpt lat="45.54163" lon="5.52556">
        <ele>415</ele>
        <time>2016-07-14T18:41:36Z</time>
      </trkpt>
      <trkpt lat="45.54158" lon="5.52565">
        <ele>414</ele>
        <time>2016-07-14T18:43:36Z</time>
      </trkpt>
      <trkpt lat="45.54153" lon="5.52577">
        <ele>413</ele>
        <time>2016-07-14T18:45:36Z</time>
      </trkpt>
      <trkpt lat="45.5415" lon="5.52583">
        <ele>412</ele>
        <time>2016-07-14T18:47:36Z</time>
      </trkpt>
      <trkpt lat="45.54144" lon="5.52595">
        <ele>412</ele>
        <time>2016-07-14T18:49:36Z</time>
      </trkpt>
      <trkpt lat="45.53979" lon="5.52938">
        <ele>402</ele>
        <time>2016-07-14T18:51:36Z</time>
      </trkpt>
      <trkpt lat="45.53897" lon="5.53111">
        <ele>403</ele>
        <time>2016-07-14T18:53:36Z</time>
      </trkpt>
      <trkpt lat="45.53886" lon="5.53132">
        <ele>404</ele>
        <time>2016-07-14T18:55:36Z</time>
      </trkpt>
      <trkpt lat="45.53765" lon="5.53385">
        <ele>398</ele>
        <time>2016-07-14T18:57:36Z</time>
      </trkpt>
      <trkpt lat="45.53749" lon="5.53417">
        <ele>396</ele>
        <time>2016-07-14T18:59:36Z</time>
      </trkpt>
      <trkpt lat="45.53741" lon="5.53431">
        <ele>395</ele>
        <time>2016-07-14T19:01:36Z</time>
      </trkpt>
      <trkpt lat="45.53731" lon="5.53447">
        <ele>394</ele>
        <time>2016-07-14T19:03:36Z</time>
      </trkpt>
      <trkpt lat="45.5371" lon="5.53473">
        <ele>392</ele>
        <time>2016-07-14T19:05:36Z</time>
      </trkpt>
      <trkpt lat="45.53688" lon="5.53503">
        <ele>388</ele>
        <time>2016-07-14T19:07:36Z</time>
      </trkpt>
      <trkpt lat="45.53676" lon="5.53522">
        <ele>387</ele>
        <time>2016-07-14T19:09:36Z</time>
      </trkpt>
      <trkpt lat="45.53667" lon="5.53536">
        <ele>386</ele>
        <time>2016-07-14T19:11:36Z</time>
      </trkpt>
      <trkpt lat="45.53663" lon="5.53544">
        <ele>386</ele>
        <time>2016-07-14T19:13:36Z</time>
      </trkpt>
      <trkpt lat="45.53659" lon="5.53551">
        <ele>386</ele>
        <time>2016-07-14T19:15:36Z</time>
      </trkpt>
      <trkpt lat="45.53653" lon="5.53563">
        <ele>385</ele>
        <time>2016-07-14T19:17:36Z</time>
      </trkpt>
      <trkpt lat="45.53643" lon="5.53584">
        <ele>383</ele>
        <time>2016-07-14T19:19:36Z</time>
      </trkpt>
      <trkpt lat="45.53604" lon="5.53687">
        <ele>374</ele>
        <time>2016-07-14T19:21:36Z</time>
      </trkpt>
      <trkpt lat="45.53572" lon="5.53777">
        <ele>372</ele>
        <time>2016-07-14T19:23:36Z</time>
      </trkpt>
      <trkpt lat="45.5356" lon="5.53812">
        <ele>372</ele>
        <time>2016-07-14T19:25:36Z</time>
      </trkpt>
      <trkpt lat="45.5355" lon="5.53841">
        <ele>372</ele>
        <time>2016-07-14T19:27:36Z</time>
      </trkpt>
      <trkpt lat="45.53548" lon="5.53852">
        <ele>372</ele>
        <time>2016-07-14T19:29:36Z</time>
      </trkpt>
      <trkpt lat="45.53547" lon="5.53856">
        <ele>372</ele>
        <time>2016-07-14T19:31:36Z</time>
      </trkpt>
      <trkpt lat="45.53546" lon="5.5386">
        <ele>372</ele>
        <time>2016-07-14T19:33:36Z</time>
      </trkpt>
      <trkpt lat="45.53542" lon="5.53876">
        <ele>371</ele>
        <time>2016-07-14T19:35:36Z</time>
      </trkpt>
      <trkpt lat="45.5354" lon="5.53892">
        <ele>371</ele>
        <time>2016-07-14T19:37:36Z</time>
      </trkpt>
      <trkpt lat="45.53538" lon="5.5391">
        <ele>371</ele>
        <time>2016-07-14T19:39:36Z</time>
      </trkpt>
      <trkpt lat="45.53537" lon="5.53934">
        <ele>371</ele>
        <time>2016-07-14T19:41:36Z</time>
      </trkpt>
      <trkpt lat="45.53537" lon="5.53947">
        <ele>371</ele>
        <time>2016-07-14T19:43:36Z</time>
      </trkpt>
      <trkpt lat="45.53536" lon="5.53957">
        <ele>371</ele>
        <time>2016-07-14T19:45:36Z</time>
      </trkpt>
      <trkpt lat="45.53536" lon="5.53967">
        <ele>371</ele>
        <time>2016-07-14T19:47:36Z</time>
      </trkpt>
      <trkpt lat="45.53531" lon="5.54093">
        <ele>373</ele>
        <time>2016-07-14T19:49:36Z</time>
      </trkpt>
      <trkpt lat="45.53527" lon="5.54158">
        <ele>373</ele>
        <time>2016-07-14T19:51:36Z</time>
      </trkpt>
      <trkpt lat="45.53525" lon="5.54212">
        <ele>375</ele>
        <time>2016-07-14T19:53:36Z</time>
      </trkpt>
      <trkpt lat="45.53523" lon="5.54249">
        <ele>376</ele>
        <time>2016-07-14T19:55:36Z</time>
      </trkpt>
      <trkpt lat="45.53521" lon="5.54267">
        <ele>376</ele>
        <time>2016-07-14T19:57:36Z</time>
      </trkpt>
      <trkpt lat="45.53519" lon="5.54288">
        <ele>375</ele>
        <time>2016-07-14T19:59:36Z</time>
      </trkpt>
      <trkpt lat="45.53516" lon="5.54327">
        <ele>374</ele>
        <time>2016-07-14T20:01:36Z</time>
      </trkpt>
      <trkpt lat="45.53513" lon="5.54363">
        <ele>374</ele>
        <time>2016-07-14T20:03:36Z</time>
      </trkpt>
      <trkpt lat="45.53512" lon="5.54377">
        <ele>374</ele>
        <time>2016-07-14T20:05:36Z</time>
      </trkpt>
      <trkpt lat="45.53513" lon="5.54392">
        <ele>374</ele>
        <time>2016-07-14T20:07:36Z</time>
      </trkpt>
      <trkpt lat="45.53514" lon="5.54408">
        <ele>374</ele>
        <time>2016-07-14T20:09:36Z</time>
      </trkpt>
      <trkpt lat="45.53515" lon="5.54418">
        <ele>374</ele>
        <time>2016-07-14T20:11:36Z</time>
      </trkpt>
      <trkpt lat="45.53517" lon="5.54437">
        <ele>375</ele>
        <time>2016-07-14T20:13:36Z</time>
      </trkpt>
      <trkpt lat="45.53518" lon="5.5445">
        <ele>375</ele>
        <time>2016-07-14T20:15:36Z</time>
      </trkpt>
      <trkpt lat="45.53519" lon="5.54463">
        <ele>376</ele>
        <time>2016-07-14T20:17:36Z</time>
      </trkpt>
      <trkpt lat="45.53521" lon="5.54475">
        <ele>376</ele>
        <time>2016-07-14T20:19:36Z</time>
      </trkpt>
      <trkpt lat="45.53522" lon="5.54487">
        <ele>376</ele>
        <time>2016-07-14T20:21:36Z</time>
      </trkpt>
      <trkpt lat="45.53523" lon="5.54507">
        <ele>377</ele>
        <time>2016-07-14T20:23:36Z</time>
      </trkpt>
      <trkpt lat="45.53524" lon="5.54537">
        <ele>379</ele>
        <time>2016-07-14T20:25:36Z</time>
      </trkpt>
      <trkpt lat="45.53524" lon="5.54592">
        <ele>383</ele>
        <time>2016-07-14T20:27:36Z</time>
      </trkpt>
      <trkpt lat="45.53523" lon="5.54615">
        <ele>385</ele>
        <time>2016-07-14T20:29:36Z</time>
      </trkpt>
      <trkpt lat="45.53521" lon="5.54674">
        <ele>389</ele>
        <time>2016-07-14T20:31:36Z</time>
      </trkpt>
      <trkpt lat="45.53517" lon="5.54723">
        <ele>390</ele>
        <time>2016-07-14T20:33:36Z</time>
      </trkpt>
      <trkpt lat="45.53445" lon="5.55485">
        <ele>403</ele>
        <time>2016-07-14T20:35:36Z</time>
      </trkpt>
      <trkpt lat="45.53444" lon="5.55492">
        <ele>403</ele>
        <time>2016-07-14T20:37:36Z</time>
      </trkpt>
      <trkpt lat="45.53442" lon="5.55506">
        <ele>404</ele>
        <time>2016-07-14T20:39:36Z</time>
      </trkpt>
      <trkpt lat="45.53436" lon="5.55576">
        <ele>407</ele>
        <time>2016-07-14T20:41:36Z</time>
      </trkpt>
      <trkpt lat="45.53432" lon="5.5563">
        <ele>407</ele>
        <time>2016-07-14T20:43:36Z</time>
      </trkpt>
      <trkpt lat="45.5343" lon="5.55659">
        <ele>407</ele>
        <time>2016-07-14T20:45:36Z</time>
      </trkpt>
      <trkpt lat="45.53429" lon="5.55678">
        <ele>406</ele>
        <time>2016-07-14T20:47:36Z</time>
      </trkpt>
      <trkpt lat="45.53429" lon="5.55688">
        <ele>406</ele>
        <time>2016-07-14T20:49:36Z</time>
      </trkpt>
      <trkpt lat="45.53428" lon="5.55706">
        <ele>405</ele>
        <time>2016-07-14T20:51:36Z</time>
      </trkpt>
      <trkpt lat="45.53428" lon="5.55723">
        <ele>405</ele>
        <time>2016-07-14T20:53:36Z</time>
      </trkpt>
      <trkpt lat="45.53429" lon="5.55741">
        <ele>405</ele>
        <time>2016-07-14T20:55:36Z</time>
      </trkpt>
      <trkpt lat="45.53431" lon="5.55756">
        <ele>404</ele>
        <time>2016-07-14T20:57:36Z</time>
      </trkpt>
      <trkpt lat="45.53433" lon="5.55774">
        <ele>404</ele>
        <time>2016-07-14T20:59:36Z</time>
      </trkpt>
      <trkpt lat="45.53438" lon="5.55813">
        <ele>403</ele>
        <time>2016-07-14T21:01:36Z</time>
      </trkpt>
      <trkpt lat="45.53444" lon="5.55854">
        <ele>402</ele>
        <time>2016-07-14T21:03:36Z</time>
      </trkpt>
      <trkpt lat="45.53451" lon="5.55902">
        <ele>401</ele>
        <time>2016-07-14T21:05:36Z</time>
      </trkpt>
      <trkpt lat="45.53451" lon="5.55914">
        <ele>400</ele>
        <time>2016-07-14T21:07:36Z</time>
      </trkpt>
      <trkpt lat="45.53459" lon="5.55969">
        <ele>399</ele>
        <time>2016-07-14T21:09:36Z</time>
      </trkpt>
      <trkpt lat="45.53459" lon="5.55973">
        <ele>399</ele>
        <time>2016-07-14T21:11:36Z</time>
      </trkpt>
      <trkpt lat="45.53466" lon="5.56018">
        <ele>398</ele>
        <time>2016-07-14T21:13:36Z</time>
      </trkpt>
      <trkpt lat="45.53468" lon="5.56033">
        <ele>397</ele>
        <time>2016-07-14T21:15:36Z</time>
      </trkpt>
      <trkpt lat="45.53469" lon="5.56044">
        <ele>397</ele>
        <time>2016-07-14T21:17:36Z</time>
      </trkpt>
      <trkpt lat="45.53468" lon="5.56059">
        <ele>397</ele>
        <time>2016-07-14T21:19:36Z</time>
      </trkpt>
      <trkpt lat="45.53467" lon="5.5606">
        <ele>397</ele>
        <time>2016-07-14T21:21:36Z</time>
      </trkpt>
      <trkpt lat="45.53466" lon="5.56061">
        <ele>397</ele>
        <time>2016-07-14T21:23:36Z</time>
      </trkpt>
      <trkpt lat="45.53466" lon="5.56062">
        <ele>397</ele>
        <time>2016-07-14T21:25:36Z</time>
      </trkpt>
      <trkpt lat="45.53466" lon="5.56063">
        <ele>397</ele>
        <time>2016-07-14T21:27:36Z</time>
      </trkpt>
      <trkpt lat="45.53465" lon="5.56065">
        <ele>396</ele>
        <time>2016-07-14T21:29:36Z</time>
      </trkpt>
      <trkpt lat="45.53465" lon="5.56066">
        <ele>396</ele>
        <time>2016-07-14T21:31:36Z</time>
      </trkpt>
      <trkpt lat="45.53464" lon="5.56067">
        <ele>396</ele>
        <time>2016-07-14T21:33:36Z</time>
      </trkpt>
      <trkpt lat="45.53464" lon="5.56068">
        <ele>396</ele>
        <time>2016-07-14T21:35:36Z</time>
      </trkpt>
      <trkpt lat="45.53464" lon="5.56069">
        <ele>396</ele>
        <time>2016-07-14T21:37:36Z</time>
      </trkpt>
      <trkpt lat="45.53464" lon="5.5607">
        <ele>396</ele>
        <time>2016-07-14T21:39:36Z</time>
      </trkpt>
      <trkpt lat="45.53464" lon="5.56072">
        <ele>396</ele>
        <time>2016-07-14T21:41:36Z</time>
      </trkpt>
      <trkpt lat="45.53464" lon="5.56073">
        <ele>396</ele>
        <time>2016-07-14T21:43:36Z</time>
      </trkpt>
      <trkpt lat="45.53464" lon="5.56074">
        <ele>396</ele>
        <time>2016-07-14T21:45:36Z</time>
      </trkpt>
      <trkpt lat="45.53464" lon="5.56075">
        <ele>396</ele>
        <time>2016-07-14T21:47:36Z</time>
      </trkpt>
      <trkpt lat="45.53464" lon="5.56077">
        <ele>396</ele>
        <time>2016-07-14T21:49:36Z</time>
      </trkpt>
      <trkpt lat="45.53464" lon="5.56078">
        <ele>396</ele>
        <time>2016-07-14T21:51:36Z</time>
      </trkpt>
      <trkpt lat="45.53465" lon="5.56079">
        <ele>396</ele>
        <time>2016-07-14T21:53:36Z</time>
      </trkpt>
      <trkpt lat="45.53465" lon="5.5608">
        <ele>396</ele>
        <time>2016-07-14T21:55:36Z</time>
      </trkpt>
      <trkpt lat="45.53465" lon="5.56081">
        <ele>396</ele>
        <time>2016-07-14T21:57:36Z</time>
      </trkpt>
      <trkpt lat="45.53466" lon="5.56082">
        <ele>396</ele>
        <time>2016-07-14T21:59:36Z</time>
      </trkpt>
      <trkpt lat="45.53466" lon="5.56083">
        <ele>396</ele>
        <time>2016-07-14T22:01:36Z</time>
      </trkpt>
      <trkpt lat="45.53467" lon="5.56084">
        <ele>396</ele>
        <time>2016-07-14T22:03:36Z</time>
      </trkpt>
      <trkpt lat="45.53467" lon="5.56085">
        <ele>396</ele>
        <time>2016-07-14T22:05:36Z</time>
      </trkpt>
      <trkpt lat="45.53467" lon="5.56086">
        <ele>396</ele>
        <time>2016-07-14T22:07:36Z</time>
      </trkpt>
      <trkpt lat="45.53468" lon="5.56086">
        <ele>396</ele>
        <time>2016-07-14T22:09:36Z</time>
      </trkpt>
      <trkpt lat="45.53469" lon="5.56087">
        <ele>396</ele>
        <time>2016-07-14T22:11:36Z</time>
      </trkpt>
      <trkpt lat="45.53469" lon="5.56088">
        <ele>396</ele>
        <time>2016-07-14T22:13:36Z</time>
      </trkpt>
      <trkpt lat="45.5347" lon="5.56088">
        <ele>396</ele>
        <time>2016-07-14T22:15:36Z</time>
      </trkpt>
      <trkpt lat="45.53471" lon="5.56089">
        <ele>396</ele>
        <time>2016-07-14T22:17:36Z</time>
      </trkpt>
      <trkpt lat="45.53471" lon="5.5609">
        <ele>396</ele>
        <time>2016-07-14T22:19:36Z</time>
      </trkpt>
      <trkpt lat="45.53472" lon="5.5609">
        <ele>396</ele>
        <time>2016-07-14T22:21:36Z</time>
      </trkpt>
      <trkpt lat="45.53473" lon="5.5609">
        <ele>396</ele>
        <time>2016-07-14T22:23:36Z</time>
      </trkpt>
      <trkpt lat="45.53474" lon="5.56091">
        <ele>396</ele>
        <time>2016-07-14T22:25:36Z</time>
      </trkpt>
      <trkpt lat="45.53491" lon="5.56179">
        <ele>399</ele>
        <time>2016-07-14T22:27:36Z</time>
      </trkpt>
      <trkpt lat="45.53494" lon="5.56195">
        <ele>399</ele>
        <time>2016-07-14T22:29:36Z</time>
      </trkpt>
      <trkpt lat="45.53501" lon="5.5624">
        <ele>397</ele>
        <time>2016-07-14T22:31:36Z</time>
      </trkpt>
      <trkpt lat="45.53517" lon="5.56333">
        <ele>395</ele>
        <time>2016-07-14T22:33:36Z</time>
      </trkpt>
      <trkpt lat="45.53528" lon="5.56394">
        <ele>394</ele>
        <time>2016-07-14T22:35:36Z</time>
      </trkpt>
      <trkpt lat="45.53531" lon="5.56403">
        <ele>394</ele>
        <time>2016-07-14T22:37:36Z</time>
      </trkpt>
      <trkpt lat="45.53599" lon="5.56829">
        <ele>400</ele>
        <time>2016-07-14T22:39:36Z</time>
      </trkpt>
      <trkpt lat="45.53663" lon="5.5723">
        <ele>398</ele>
        <time>2016-07-14T22:41:36Z</time>
      </trkpt>
      <trkpt lat="45.53675" lon="5.57304">
        <ele>400</ele>
        <time>2016-07-14T22:43:36Z</time>
      </trkpt>
      <trkpt lat="45.53679" lon="5.57336">
        <ele>400</ele>
        <time>2016-07-14T22:45:36Z</time>
      </trkpt>
      <trkpt lat="45.53683" lon="5.57367">
        <ele>401</ele>
        <time>2016-07-14T22:47:36Z</time>
      </trkpt>
      <trkpt lat="45.53684" lon="5.57384">
        <ele>401</ele>
        <time>2016-07-14T22:49:36Z</time>
      </trkpt>
      <trkpt lat="45.53689" lon="5.57508">
        <ele>402</ele>
        <time>2016-07-14T22:51:36Z</time>
      </trkpt>
      <trkpt lat="45.53697" lon="5.5768">
        <ele>403</ele>
        <time>2016-07-14T22:53:36Z</time>
      </trkpt>
      <trkpt lat="45.53699" lon="5.57713">
        <ele>403</ele>
        <time>2016-07-14T22:55:36Z</time>
      </trkpt>
      <trkpt lat="45.537" lon="5.57748">
        <ele>403</ele>
        <time>2016-07-14T22:57:36Z</time>
      </trkpt>
      <trkpt lat="45.53701" lon="5.5778">
        <ele>402</ele>
        <time>2016-07-14T22:59:36Z</time>
      </trkpt>
      <trkpt lat="45.53699" lon="5.578">
        <ele>402</ele>
        <time>2016-07-14T23:01:36Z</time>
      </trkpt>
      <trkpt lat="45.53696" lon="5.57826">
        <ele>401</ele>
        <time>2016-07-14T23:03:36Z</time>
      </trkpt>
      <trkpt lat="45.53694" lon="5.57857">
        <ele>401</ele>
        <time>2016-07-14T23:05:36Z</time>
      </trkpt>
      <trkpt lat="45.53695" lon="5.57876">
        <ele>401</ele>
        <time>2016-07-14T23:07:36Z</time>
      </trkpt>
      <trkpt lat="45.53697" lon="5.5789">
        <ele>401</ele>
        <time>2016-07-14T23:09:36Z</time>
      </trkpt>
      <trkpt lat="45.537" lon="5.57903">
        <ele>401</ele>
        <time>2016-07-14T23:11:36Z</time>
      </trkpt>
      <trkpt lat="45.53703" lon="5.57915">
        <ele>401</ele>
        <time>2016-07-14T23:13:36Z</time>
      </trkpt>
      <trkpt lat="45.53705" lon="5.57924">
        <ele>401</ele>
        <time>2016-07-14T23:15:36Z</time>
      </trkpt>
      <trkpt lat="45.53706" lon="5.57934">
        <ele>401</ele>
        <time>2016-07-14T23:17:36Z</time>
      </trkpt>
      <trkpt lat="45.53708" lon="5.57955">
        <ele>401</ele>
        <time>2016-07-14T23:19:36Z</time>
      </trkpt>
      <trkpt lat="45.53709" lon="5.57986">
        <ele>402</ele>
        <time>2016-07-14T23:21:36Z</time>
      </trkpt>
      <trkpt lat="45.53717" lon="5.58134">
        <ele>399</ele>
        <time>2016-07-14T23:23:36Z</time>
      </trkpt>
      <trkpt lat="45.53719" lon="5.58191">
        <ele>399</ele>
        <time>2016-07-14T23:25:36Z</time>
      </trkpt>
      <trkpt lat="45.53721" lon="5.58204">
        <ele>399</ele>
        <time>2016-07-14T23:27:36Z</time>
      </trkpt>
      <trkpt lat="45.5373" lon="5.58382">
        <ele>400</ele>
        <time>2016-07-14T23:29:36Z</time>
      </trkpt>
      <trkpt lat="45.53733" lon="5.58438">
        <ele>400</ele>
        <time>2016-07-14T23:31:36Z</time>
      </trkpt>
      <trkpt lat="45.53734" lon="5.58457">
        <ele>400</ele>
        <time>2016-07-14T23:33:36Z</time>
      </trkpt>
      <trkpt lat="45.53736" lon="5.58495">
        <ele>400</ele>
        <time>2016-07-14T23:35:36Z</time>
      </trkpt>
      <trkpt lat="45.53737" lon="5.58513">
        <ele>400</ele>
        <time>2016-07-14T23:37:36Z</time>
      </trkpt>
      <trkpt lat="45.53739" lon="5.58535">
        <ele>400</ele>
        <time>2016-07-14T23:39:36Z</time>
      </trkpt>
      <trkpt lat="45.53737" lon="5.58537">
        <ele>400</ele>
        <time>2016-07-14T23:41:36Z</time>
      </trkpt>
      <trkpt lat="45.53736" lon="5.5854">
        <ele>400</ele>
        <time>2016-07-14T23:43:36Z</time>
      </trkpt>
      <trkpt lat="45.53735" lon="5.58543">
        <ele>401</ele>
        <time>2016-07-14T23:45:36Z</time>
      </trkpt>
      <trkpt lat="45.53734" lon="5.58547">
        <ele>401</ele>
        <time>2016-07-14T23:47:36Z</time>
      </trkpt>
      <trkpt lat="45.53735" lon="5.58549">
        <ele>401</ele>
        <time>2016-07-14T23:49:36Z</time>
      </trkpt>
      <trkpt lat="45.53735" lon="5.58552">
        <ele>401</ele>
        <time>2016-07-14T23:51:36Z</time>
      </trkpt>
      <trkpt lat="45.53737" lon="5.58556">
        <ele>401</ele>
        <time>2016-07-14T23:53:36Z</time>
      </trkpt>
      <trkpt lat="45.53739" lon="5.58557">
        <ele>401</ele>
        <time>2016-07-14T23:55:36Z</time>
      </trkpt>
      <trkpt lat="45.5374" lon="5.58558">
        <ele>401</ele>
        <time>2016-07-14T23:57:36Z</time>
      </trkpt>
      <trkpt lat="45.53739" lon="5.58571">
        <ele>401</ele>
        <time>2016-07-14T23:59:36Z</time>
      </trkpt>
      <trkpt lat="45.53735" lon="5.58611">
        <ele>400</ele>
        <time>2016-07-15T00:01:36Z</time>
      </trkpt>
      <trkpt lat="45.5373" lon="5.5867">
        <ele>399</ele>
        <time>2016-07-15T00:03:36Z</time>
      </trkpt>
      <trkpt lat="45.53729" lon="5.58683">
        <ele>399</ele>
        <time>2016-07-15T00:05:36Z</time>
      </trkpt>
      <trkpt lat="45.53723" lon="5.58774">
        <ele>399</ele>
        <time>2016-07-15T00:07:36Z</time>
      </trkpt>
      <trkpt lat="45.53722" lon="5.58803">
        <ele>402</ele>
        <time>2016-07-15T00:09:36Z</time>
      </trkpt>
      <trkpt lat="45.53714" lon="5.58892">
        <ele>404</ele>
        <time>2016-07-15T00:11:36Z</time>
      </trkpt>
      <trkpt lat="45.53714" lon="5.58923">
        <ele>404</ele>
        <time>2016-07-15T00:13:36Z</time>
      </trkpt>
      <trkpt lat="45.53714" lon="5.58953">
        <ele>404</ele>
        <time>2016-07-15T00:15:36Z</time>
      </trkpt>
      <trkpt lat="45.53716" lon="5.58979">
        <ele>404</ele>
        <time>2016-07-15T00:17:36Z</time>
      </trkpt>
      <trkpt lat="45.5372" lon="5.59019">
        <ele>405</ele>
        <time>2016-07-15T00:19:36Z</time>
      </trkpt>
      <trkpt lat="45.53728" lon="5.59086">
        <ele>405</ele>
        <time>2016-07-15T00:21:36Z</time>
      </trkpt>
      <trkpt lat="45.53726" lon="5.59099">
        <ele>406</ele>
        <time>2016-07-15T00:23:36Z</time>
      </trkpt>
      <trkpt lat="45.53735" lon="5.59188">
        <ele>406</ele>
        <time>2016-07-15T00:25:36Z</time>
      </trkpt>
      <trkpt lat="45.53736" lon="5.59197">
        <ele>406</ele>
        <time>2016-07-15T00:27:36Z</time>
      </trkpt>
      <trkpt lat="45.53737" lon="5.59208">
        <ele>405</ele>
        <time>2016-07-15T00:29:36Z</time>
      </trkpt>
      <trkpt lat="45.5374" lon="5.5923">
        <ele>404</ele>
        <time>2016-07-15T00:31:36Z</time>
      </trkpt>
      <trkpt lat="45.53744" lon="5.59278">
        <ele>403</ele>
        <time>2016-07-15T00:33:36Z</time>
      </trkpt>
      <trkpt lat="45.53769" lon="5.59634">
        <ele>388</ele>
        <time>2016-07-15T00:35:36Z</time>
      </trkpt>
      <trkpt lat="45.53773" lon="5.59696">
        <ele>386</ele>
        <time>2016-07-15T00:37:36Z</time>
      </trkpt>
      <trkpt lat="45.53774" lon="5.59718">
        <ele>385</ele>
        <time>2016-07-15T00:39:36Z</time>
      </trkpt>
      <trkpt lat="45.5378" lon="5.59805">
        <ele>380</ele>
        <time>2016-07-15T00:41:36Z</time>
      </trkpt>
      <trkpt lat="45.53784" lon="5.59819">
        <ele>379</ele>
        <time>2016-07-15T00:43:36Z</time>
      </trkpt>
      <trkpt lat="45.53785" lon="5.59832">
        <ele>379</ele>
        <time>2016-07-15T00:45:36Z</time>
      </trkpt>
      <trkpt lat="45.53785" lon="5.59852">
        <ele>378</ele>
        <time>2016-07-15T00:47:36Z</time>
      </trkpt>
      <trkpt lat="45.53786" lon="5.59866">
        <ele>378</ele>
        <time>2016-07-15T00:49:36Z</time>
      </trkpt>
      <trkpt lat="45.53785" lon="5.59881">
        <ele>377</ele>
        <time>2016-07-15T00:51:36Z</time>
      </trkpt>
      <trkpt lat="45.53784" lon="5.59899">
        <ele>377</ele>
        <time>2016-07-15T00:53:36Z</time>
      </trkpt>
      <trkpt lat="45.53781" lon="5.59912">
        <ele>377</ele>
        <time>2016-07-15T00:55:36Z</time>
      </trkpt>
      <trkpt lat="45.53779" lon="5.59926">
        <ele>376</ele>
        <time>2016-07-15T00:57:36Z</time>
      </trkpt>
      <trkpt lat="45.53773" lon="5.59951">
        <ele>375</ele>
        <time>2016-07-15T00:59:36Z</time>
      </trkpt>
      <trkpt lat="45.53762" lon="5.59998">
        <ele>373</ele>
        <time>2016-07-15T01:01:36Z</time>
      </trkpt>
      <trkpt lat="45.53696" lon="5.60261">
        <ele>361</ele>
        <time>2016-07-15T01:03:36Z</time>
      </trkpt>
      <trkpt lat="45.53689" lon="5.60285">
        <ele>359</ele>
        <time>2016-07-15T01:05:36Z</time>
      </trkpt>
      <trkpt lat="45.53686" lon="5.60296">
        <ele>358</ele>
        <time>2016-07-15T01:07:36Z</time>
      </trkpt>
      <trkpt lat="45.5368" lon="5.60309">
        <ele>356</ele>
        <time>2016-07-15T01:09:36Z</time>
      </trkpt>
      <trkpt lat="45.53676" lon="5.60318">
        <ele>355</ele>
        <time>2016-07-15T01:11:36Z</time>
      </trkpt>
      <trkpt lat="45.53669" lon="5.60331">
        <ele>354</ele>
        <time>2016-07-15T01:13:36Z</time>
      </trkpt>
      <trkpt lat="45.53547" lon="5.60578">
        <ele>348</ele>
        <time>2016-07-15T01:15:36Z</time>
      </trkpt>
      <trkpt lat="45.53541" lon="5.60583">
        <ele>348</ele>
        <time>2016-07-15T01:17:36Z</time>
      </trkpt>
      <trkpt lat="45.53534" lon="5.60596">
        <ele>348</ele>
        <time>2016-07-15T01:19:36Z</time>
      </trkpt>
      <trkpt lat="45.5353" lon="5.60604">
        <ele>348</ele>
        <time>2016-07-15T01:21:36Z</time>
      </trkpt>
      <trkpt lat="45.53525" lon="5.60614">
        <ele>348</ele>
        <time>2016-07-15T01:23:36Z</time>
      </trkpt>
      <trkpt lat="45.53521" lon="5.60624">
        <ele>348</ele>
        <time>2016-07-15T01:25:36Z</time>
      </trkpt>
      <trkpt lat="45.53518" lon="5.60633">
        <ele>347</ele>
        <time>2016-07-15T01:27:36Z</time>
      </trkpt>
      <trkpt lat="45.53515" lon="5.60643">
        <ele>347</ele>
        <time>2016-07-15T01:29:36Z</time>
      </trkpt>
      <trkpt lat="45.5351" lon="5.60658">
        <ele>347</ele>
        <time>2016-07-15T01:31:36Z</time>
      </trkpt>
      <trkpt lat="45.53509" lon="5.60664">
        <ele>346</ele>
        <time>2016-07-15T01:33:36Z</time>
      </trkpt>
      <trkpt lat="45.53508" lon="5.60668">
        <ele>346</ele>
        <time>2016-07-15T01:35:36Z</time>
      </trkpt>
      <trkpt lat="45.53506" lon="5.60676">
        <ele>346</ele>
        <time>2016-07-15T01:37:36Z</time>
      </trkpt>
      <trkpt lat="45.53503" lon="5.60684">
        <ele>345</ele>
        <time>2016-07-15T01:39:36Z</time>
      </trkpt>
      <trkpt lat="45.53499" lon="5.6069">
        <ele>345</ele>
        <time>2016-07-15T01:41:36Z</time>
      </trkpt>
      <trkpt lat="45.53496" lon="5.60695">
        <ele>344</ele>
        <time>2016-07-15T01:43:36Z</time>
      </trkpt>
      <trkpt lat="45.53491" lon="5.60701">
        <ele>344</ele>
        <time>2016-07-15T01:45:36Z</time>
      </trkpt>
      <trkpt lat="45.5349" lon="5.60702">
        <ele>344</ele>
        <time>2016-07-15T01:47:36Z</time>
      </trkpt>
      <trkpt lat="45.5348" lon="5.60717">
        <ele>343</ele>
        <time>2016-07-15T01:49:36Z</time>
      </trkpt>
      <trkpt lat="45.53476" lon="5.60723">
        <ele>343</ele>
        <time>2016-07-15T01:51:36Z</time>
      </trkpt>
      <trkpt lat="45.53474" lon="5.60729">
        <ele>342</ele>
        <time>2016-07-15T01:53:36Z</time>
      </trkpt>
      <trkpt lat="45.53455" lon="5.60767">
        <ele>338</ele>
        <time>2016-07-15T01:55:36Z</time>
      </trkpt>
      <trkpt lat="45.53369" lon="5.60945">
        <ele>329</ele>
        <time>2016-07-15T01:57:36Z</time>
      </trkpt>
      <trkpt lat="45.53337" lon="5.61012">
        <ele>328</ele>
        <time>2016-07-15T01:59:36Z</time>
      </trkpt>
      <trkpt lat="45.53334" lon="5.61016">
        <ele>328</ele>
        <time>2016-07-15T02:01:36Z</time>
      </trkpt>
      <trkpt lat="45.53272" lon="5.61144">
        <ele>324</ele>
        <time>2016-07-15T02:03:36Z</time>
      </trkpt>
      <trkpt lat="45.53227" lon="5.6124">
        <ele>320</ele>
        <time>2016-07-15T02:05:36Z</time>
      </trkpt>
      <trkpt lat="45.53202" lon="5.61292">
        <ele>319</ele>
        <time>2016-07-15T02:07:36Z</time>
      </trkpt>
      <trkpt lat="45.53188" lon="5.61321">
        <ele>319</ele>
        <time>2016-07-15T02:09:36Z</time>
      </trkpt>
      <trkpt lat="45.53176" lon="5.61352">
        <ele>318</ele>
        <time>2016-07-15T02:11:36Z</time>
      </trkpt>
      <trkpt lat="45.53166" lon="5.61379">
        <ele>317</ele>
        <time>2016-07-15T02:13:36Z</time>
      </trkpt>
      <trkpt lat="45.53157" lon="5.61404">
        <ele>316</ele>
        <time>2016-07-15T02:15:36Z</time>
      </trkpt>
      <trkpt lat="45.53147" lon="5.61435">
        <ele>315</ele>
        <time>2016-07-15T02:17:36Z</time>
      </trkpt>
      <trkpt lat="45.5314" lon="5.61462">
        <ele>314</ele>
        <time>2016-07-15T02:19:36Z</time>
      </trkpt>
      <trkpt lat="45.53132" lon="5.61488">
        <ele>313</ele>
        <time>2016-07-15T02:21:36Z</time>
      </trkpt>
      <trkpt lat="45.53129" lon="5.61506">
        <ele>313</ele>
        <time>2016-07-15T02:23:36Z</time>
      </trkpt>
      <trkpt lat="45.53126" lon="5.61521">
        <ele>312</ele>
        <time>2016-07-15T02:25:36Z</time>
      </trkpt>
      <trkpt lat="45.53124" lon="5.61535">
        <ele>311</ele>
        <time>2016-07-15T02:27:36Z</time>
      </trkpt>
      <trkpt lat="45.53122" lon="5.61551">
        <ele>310</ele>
        <time>2016-07-15T02:29:36Z</time>
      </trkpt>
      <trkpt lat="45.5312" lon="5.61577">
        <ele>308</ele>
        <time>2016-07-15T02:31:36Z</time>
      </trkpt>
      <trkpt lat="45.53119" lon="5.61636">
        <ele>307</ele>
        <time>2016-07-15T02:33:36Z</time>
      </trkpt>
      <trkpt lat="45.53118" lon="5.61666">
        <ele>307</ele>
        <time>2016-07-15T02:35:36Z</time>
      </trkpt>
      <trkpt lat="45.53118" lon="5.6169">
        <ele>307</ele>
        <time>2016-07-15T02:37:36Z</time>
      </trkpt>
      <trkpt lat="45.53118" lon="5.61717">
        <ele>307</ele>
        <time>2016-07-15T02:39:36Z</time>
      </trkpt>
      <trkpt lat="45.53119" lon="5.61735">
        <ele>307</ele>
        <time>2016-07-15T02:41:36Z</time>
      </trkpt>
      <trkpt lat="45.5312" lon="5.61744">
        <ele>307</ele>
        <time>2016-07-15T02:43:36Z</time>
      </trkpt>
      <trkpt lat="45.53121" lon="5.61757">
        <ele>307</ele>
        <time>2016-07-15T02:45:36Z</time>
      </trkpt>
      <trkpt lat="45.53122" lon="5.61765">
        <ele>307</ele>
        <time>2016-07-15T02:47:36Z</time>
      </trkpt>
      <trkpt lat="45.53124" lon="5.61773">
        <ele>308</ele>
        <time>2016-07-15T02:49:36Z</time>
      </trkpt>
      <trkpt lat="45.53126" lon="5.61784">
        <ele>308</ele>
        <time>2016-07-15T02:51:36Z</time>
      </trkpt>
      <trkpt lat="45.53128" lon="5.6179">
        <ele>308</ele>
        <time>2016-07-15T02:53:36Z</time>
      </trkpt>
      <trkpt lat="45.53133" lon="5.61806">
        <ele>308</ele>
        <time>2016-07-15T02:55:36Z</time>
      </trkpt>
      <trkpt lat="45.5314" lon="5.61826">
        <ele>309</ele>
        <time>2016-07-15T02:57:36Z</time>
      </trkpt>
      <trkpt lat="45.53146" lon="5.61842">
        <ele>310</ele>
        <time>2016-07-15T02:59:36Z</time>
      </trkpt>
      <trkpt lat="45.53149" lon="5.61851">
        <ele>310</ele>
        <time>2016-07-15T03:01:36Z</time>
      </trkpt>
      <trkpt lat="45.53152" lon="5.6186">
        <ele>310</ele>
        <time>2016-07-15T03:03:36Z</time>
      </trkpt>
      <trkpt lat="45.53156" lon="5.61876">
        <ele>310</ele>
        <time>2016-07-15T03:05:36Z</time>
      </trkpt>
      <trkpt lat="45.53158" lon="5.61885">
        <ele>310</ele>
        <time>2016-07-15T03:07:36Z</time>
      </trkpt>
      <trkpt lat="45.53159" lon="5.61895">
        <ele>310</ele>
        <time>2016-07-15T03:09:36Z</time>
      </trkpt>
      <trkpt lat="45.53161" lon="5.61911">
        <ele>309</ele>
        <time>2016-07-15T03:11:36Z</time>
      </trkpt>
      <trkpt lat="45.53162" lon="5.61923">
        <ele>309</ele>
        <time>2016-07-15T03:13:36Z</time>
      </trkpt>
      <trkpt lat="45.53163" lon="5.61932">
        <ele>309</ele>
        <time>2016-07-15T03:15:36Z</time>
      </trkpt>
      <trkpt lat="45.53163" lon="5.61945">
        <ele>309</ele>
        <time>2016-07-15T03:17:36Z</time>
      </trkpt>
      <trkpt lat="45.53163" lon="5.61955">
        <ele>309</ele>
        <time>2016-07-15T03:19:36Z</time>
      </trkpt>
      <trkpt lat="45.53163" lon="5.61976">
        <ele>308</ele>
        <time>2016-07-15T03:21:36Z</time>
      </trkpt>
      <trkpt lat="45.53162" lon="5.61998">
        <ele>308</ele>
        <time>2016-07-15T03:23:36Z</time>
      </trkpt>
      <trkpt lat="45.5316" lon="5.62032">
        <ele>308</ele>
        <time>2016-07-15T03:25:36Z</time>
      </trkpt>
      <trkpt lat="45.53159" lon="5.62059">
        <ele>308</ele>
        <time>2016-07-15T03:27:36Z</time>
      </trkpt>
      <trkpt lat="45.53159" lon="5.62073">
        <ele>308</ele>
        <time>2016-07-15T03:29:36Z</time>
      </trkpt>
      <trkpt lat="45.5316" lon="5.62089">
        <ele>307</ele>
        <time>2016-07-15T03:31:36Z</time>
      </trkpt>
      <trkpt lat="45.53163" lon="5.62109">
        <ele>306</ele>
        <time>2016-07-15T03:33:36Z</time>
      </trkpt>
      <trkpt lat="45.53167" lon="5.62131">
        <ele>305</ele>
        <time>2016-07-15T03:35:36Z</time>
      </trkpt>
      <trkpt lat="45.5317" lon="5.62146">
        <ele>305</ele>
        <time>2016-07-15T03:37:36Z</time>
      </trkpt>
      <trkpt lat="45.53172" lon="5.6216">
        <ele>304</ele>
        <time>2016-07-15T03:39:36Z</time>
      </trkpt>
      <trkpt lat="45.53174" lon="5.62169">
        <ele>304</ele>
        <time>2016-07-15T03:41:36Z</time>
      </trkpt>
      <trkpt lat="45.53174" lon="5.62176">
        <ele>304</ele>
        <time>2016-07-15T03:43:36Z</time>
      </trkpt>
      <trkpt lat="45.53175" lon="5.62184">
        <ele>304</ele>
        <time>2016-07-15T03:45:36Z</time>
      </trkpt>
      <trkpt lat="45.53175" lon="5.6219">
        <ele>304</ele>
        <time>2016-07-15T03:47:36Z</time>
      </trkpt>
      <trkpt lat="45.53175" lon="5.62202">
        <ele>304</ele>
        <time>2016-07-15T03:49:36Z</time>
      </trkpt>
      <trkpt lat="45.53174" lon="5.62214">
        <ele>304</ele>
        <time>2016-07-15T03:51:36Z</time>
      </trkpt>
      <trkpt lat="45.53172" lon="5.62229">
        <ele>303</ele>
        <time>2016-07-15T03:53:36Z</time>
      </trkpt>
      <trkpt lat="45.53171" lon="5.62236">
        <ele>303</ele>
        <time>2016-07-15T03:55:36Z</time>
      </trkpt>
      <trkpt lat="45.53169" lon="5.62243">
        <ele>303</ele>
        <time>2016-07-15T03:57:36Z</time>
      </trkpt>
      <trkpt lat="45.53166" lon="5.62255">
        <ele>303</ele>
        <time>2016-07-15T03:59:36Z</time>
      </trkpt>
      <trkpt lat="45.5316" lon="5.62272">
        <ele>305</ele>
        <time>2016-07-15T04:01:36Z</time>
      </trkpt>
      <trkpt lat="45.53156" lon="5.62285">
        <ele>306</ele>
        <time>2016-07-15T04:03:36Z</time>
      </trkpt>
      <trkpt lat="45.53149" lon="5.62302">
        <ele>307</ele>
        <time>2016-07-15T04:05:36Z</time>
      </trkpt>
      <trkpt lat="45.53145" lon="5.62315">
        <ele>308</ele>
        <time>2016-07-15T04:07:36Z</time>
      </trkpt>
      <trkpt lat="45.53143" lon="5.62322">
        <ele>308</ele>
        <time>2016-07-15T04:09:36Z</time>
      </trkpt>
      <trkpt lat="45.5314" lon="5.62331">
        <ele>308</ele>
        <time>2016-07-15T04:11:36Z</time>
      </trkpt>
      <trkpt lat="45.53138" lon="5.62342">
        <ele>308</ele>
        <time>2016-07-15T04:13:36Z</time>
      </trkpt>
      <trkpt lat="45.53135" lon="5.6236">
        <ele>307</ele>
        <time>2016-07-15T04:15:36Z</time>
      </trkpt>
      <trkpt lat="45.53133" lon="5.62372">
        <ele>306</ele>
        <time>2016-07-15T04:17:36Z</time>
      </trkpt>
      <trkpt lat="45.53132" lon="5.62383">
        <ele>306</ele>
        <time>2016-07-15T04:19:36Z</time>
      </trkpt>
      <trkpt lat="45.53132" lon="5.62401">
        <ele>305</ele>
        <time>2016-07-15T04:21:36Z</time>
      </trkpt>
      <trkpt lat="45.53133" lon="5.62417">
        <ele>305</ele>
        <time>2016-07-15T04:23:36Z</time>
      </trkpt>
      <trkpt lat="45.53134" lon="5.62426">
        <ele>304</ele>
        <time>2016-07-15T04:25:36Z</time>
      </trkpt>
      <trkpt lat="45.53135" lon="5.62434">
        <ele>304</ele>
        <time>2016-07-15T04:27:36Z</time>
      </trkpt>
      <trkpt lat="45.53137" lon="5.62445">
        <ele>303</ele>
        <time>2016-07-15T04:29:36Z</time>
      </trkpt>
      <trkpt lat="45.53139" lon="5.62454">
        <ele>302</ele>
        <time>2016-07-15T04:31:36Z</time>
      </trkpt>
      <trkpt lat="45.53144" lon="5.62478">
        <ele>300</ele>
        <time>2016-07-15T04:33:36Z</time>
      </trkpt>
      <trkpt lat="45.5315" lon="5.62505">
        <ele>297</ele>
        <time>2016-07-15T04:35:36Z</time>
      </trkpt>
      <trkpt lat="45.53158" lon="5.62542">
        <ele>296</ele>
        <time>2016-07-15T04:37:36Z</time>
      </trkpt>
      <trkpt lat="45.53167" lon="5.6258">
        <ele>294</ele>
        <time>2016-07-15T04:39:36Z</time>
      </trkpt>
      <trkpt lat="45.53173" lon="5.62609">
        <ele>294</ele>
        <time>2016-07-15T04:41:36Z</time>
      </trkpt>
      <trkpt lat="45.53202" lon="5.62734">
        <ele>294</ele>
        <time>2016-07-15T04:43:36Z</time>
      </trkpt>
      <trkpt lat="45.53206" lon="5.62754">
        <ele>294</ele>
        <time>2016-07-15T04:45:36Z</time>
      </trkpt>
      <trkpt lat="45.53209" lon="5.62767">
        <ele>294</ele>
        <time>2016-07-15T04:47:36Z</time>
      </trkpt>
      <trkpt lat="45.53231" lon="5.62866">
        <ele>293</ele>
        <time>2016-07-15T04:49:36Z</time>
      </trkpt>
      <trkpt lat="45.53252" lon="5.62958">
        <ele>290</ele>
        <time>2016-07-15T04:51:36Z</time>
      </trkpt>
      <trkpt lat="45.53279" lon="5.63078">
        <ele>287</ele>
        <time>2016-07-15T04:53:36Z</time>
      </trkpt>
      <trkpt lat="45.53302" lon="5.63184">
        <ele>287</ele>
        <time>2016-07-15T04:55:36Z</time>
      </trkpt>
      <trkpt lat="45.5332" lon="5.63264">
        <ele>288</ele>
        <time>2016-07-15T04:57:36Z</time>
      </trkpt>
      <trkpt lat="45.53325" lon="5.63284">
        <ele>288</ele>
        <time>2016-07-15T04:59:36Z</time>
      </trkpt>
      <trkpt lat="45.53326" lon="5.63288">
        <ele>288</ele>
        <time>2016-07-15T05:01:36Z</time>
      </trkpt>
      <trkpt lat="45.53327" lon="5.63295">
        <ele>288</ele>
        <time>2016-07-15T05:03:36Z</time>
      </trkpt>
      <trkpt lat="45.53329" lon="5.63304">
        <ele>288</ele>
        <time>2016-07-15T05:05:36Z</time>
      </trkpt>
      <trkpt lat="45.53331" lon="5.6331">
        <ele>288</ele>
        <time>2016-07-15T05:07:36Z</time>
      </trkpt>
      <trkpt lat="45.53334" lon="5.63324">
        <ele>288</ele>
        <time>2016-07-15T05:09:36Z</time>
      </trkpt>
      <trkpt lat="45.53355" lon="5.63418">
        <ele>289</ele>
        <time>2016-07-15T05:11:36Z</time>
      </trkpt>
      <trkpt lat="45.53372" lon="5.63496">
        <ele>288</ele>
        <time>2016-07-15T05:13:36Z</time>
      </trkpt>
      <trkpt lat="45.53378" lon="5.63522">
        <ele>289</ele>
        <time>2016-07-15T05:15:36Z</time>
      </trkpt>
      <trkpt lat="45.53385" lon="5.63552">
        <ele>290</ele>
        <time>2016-07-15T05:17:36Z</time>
      </trkpt>
      <trkpt lat="45.534" lon="5.63623">
        <ele>293</ele>
        <time>2016-07-15T05:19:36Z</time>
      </trkpt>
      <trkpt lat="45.53401" lon="5.63625">
        <ele>293</ele>
        <time>2016-07-15T05:21:36Z</time>
      </trkpt>
      <trkpt lat="45.53405" lon="5.63643">
        <ele>294</ele>
        <time>2016-07-15T05:23:36Z</time>
      </trkpt>
      <trkpt lat="45.53414" lon="5.63683">
        <ele>295</ele>
        <time>2016-07-15T05:25:36Z</time>
      </trkpt>
      <trkpt lat="45.53427" lon="5.63746">
        <ele>298</ele>
        <time>2016-07-15T05:27:36Z</time>
      </trkpt>
      <trkpt lat="45.53441" lon="5.63808">
        <ele>300</ele>
        <time>2016-07-15T05:29:36Z</time>
      </trkpt>
      <trkpt lat="45.53455" lon="5.63868">
        <ele>304</ele>
        <time>2016-07-15T05:31:36Z</time>
      </trkpt>
      <trkpt lat="45.53463" lon="5.63902">
        <ele>307</ele>
        <time>2016-07-15T05:33:36Z</time>
      </trkpt>
      <trkpt lat="45.53472" lon="5.63938">
        <ele>309</ele>
        <time>2016-07-15T05:35:36Z</time>
      </trkpt>
      <trkpt lat="45.53479" lon="5.63967">
        <ele>309</ele>
        <time>2016-07-15T05:37:36Z</time>
      </trkpt>
      <trkpt lat="45.53484" lon="5.63988">
        <ele>310</ele>
        <time>2016-07-15T05:39:36Z</time>
      </trkpt>
      <trkpt lat="45.53488" lon="5.64007">
        <ele>310</ele>
        <time>2016-07-15T05:41:36Z</time>
      </trkpt>
      <trkpt lat="45.53491" lon="5.6402">
        <ele>310</ele>
        <time>2016-07-15T05:43:36Z</time>
      </trkpt>
      <trkpt lat="45.53494" lon="5.64035">
        <ele>309</ele>
        <time>2016-07-15T05:45:36Z</time>
      </trkpt>
      <trkpt lat="45.53496" lon="5.64047">
        <ele>309</ele>
        <time>2016-07-15T05:47:36Z</time>
      </trkpt>
      <trkpt lat="45.53499" lon="5.64067">
        <ele>309</ele>
        <time>2016-07-15T05:49:36Z</time>
      </trkpt>
      <trkpt lat="45.53501" lon="5.64088">
        <ele>309</ele>
        <time>2016-07-15T05:51:36Z</time>
      </trkpt>
      <trkpt lat="45.53504" lon="5.64111">
        <ele>308</ele>
        <time>2016-07-15T05:53:36Z</time>
      </trkpt>
      <trkpt lat="45.53506" lon="5.64135">
        <ele>307</ele>
        <time>2016-07-15T05:55:36Z</time>
      </trkpt>
      <trkpt lat="45.53511" lon="5.6418">
        <ele>305</ele>
        <time>2016-07-15T05:57:36Z</time>
      </trkpt>
      <trkpt lat="45.53516" lon="5.64225">
        <ele>303</ele>
        <time>2016-07-15T05:59:36Z</time>
      </trkpt>
      <trkpt lat="45.5352" lon="5.64264">
        <ele>302</ele>
        <time>2016-07-15T06:01:36Z</time>
      </trkpt>
      <trkpt lat="45.53528" lon="5.64337">
        <ele>301</ele>
        <time>2016-07-15T06:03:36Z</time>
      </trkpt>
      <trkpt lat="45.5354" lon="5.64446">
        <ele>303</ele>
        <time>2016-07-15T06:05:36Z</time>
      </trkpt>
      <trkpt lat="45.53545" lon="5.64468">
        <ele>302</ele>
        <time>2016-07-15T06:07:36Z</time>
      </trkpt>
      <trkpt lat="45.53549" lon="5.64486">
        <ele>301</ele>
        <time>2016-07-15T06:09:36Z</time>
      </trkpt>
      <trkpt lat="45.53552" lon="5.64498">
        <ele>301</ele>
        <time>2016-07-15T06:11:36Z</time>
      </trkpt>
      <trkpt lat="45.53555" lon="5.64506">
        <ele>300</ele>
        <time>2016-07-15T06:13:36Z</time>
      </trkpt>
      <trkpt lat="45.53557" lon="5.64512">
        <ele>300</ele>
        <time>2016-07-15T06:15:36Z</time>
      </trkpt>
      <trkpt lat="45.53561" lon="5.6452">
        <ele>299</ele>
        <time>2016-07-15T06:17:36Z</time>
      </trkpt>
      <trkpt lat="45.5356" lon="5.6452">
        <ele>299</ele>
        <time>2016-07-15T06:19:36Z</time>
      </trkpt>
      <trkpt lat="45.5356" lon="5.64521">
        <ele>299</ele>
        <time>2016-07-15T06:21:36Z</time>
      </trkpt>
      <trkpt lat="45.53559" lon="5.64522">
        <ele>300</ele>
        <time>2016-07-15T06:23:36Z</time>
      </trkpt>
      <trkpt lat="45.53558" lon="5.64522">
        <ele>300</ele>
        <time>2016-07-15T06:25:36Z</time>
      </trkpt>
      <trkpt lat="45.53558" lon="5.64523">
        <ele>300</ele>
        <time>2016-07-15T06:27:36Z</time>
      </trkpt>
      <trkpt lat="45.53557" lon="5.64524">
        <ele>300</ele>
        <time>2016-07-15T06:29:36Z</time>
      </trkpt>
      <trkpt lat="45.53557" lon="5.64525">
        <ele>300</ele>
        <time>2016-07-15T06:31:36Z</time>
      </trkpt>
      <trkpt lat="45.53556" lon="5.64526">
        <ele>300</ele>
        <time>2016-07-15T06:33:36Z</time>
      </trkpt>
      <trkpt lat="45.53556" lon="5.64527">
        <ele>300</ele>
        <time>2016-07-15T06:35:36Z</time>
      </trkpt>
      <trkpt lat="45.53556" lon="5.64528">
        <ele>300</ele>
        <time>2016-07-15T06:37:36Z</time>
      </trkpt>
      <trkpt lat="45.53555" lon="5.64529">
        <ele>300</ele>
        <time>2016-07-15T06:39:36Z</time>
      </trkpt>
      <trkpt lat="45.53555" lon="5.6453">
        <ele>300</ele>
        <time>2016-07-15T06:41:36Z</time>
      </trkpt>
      <trkpt lat="45.53555" lon="5.64531">
        <ele>300</ele>
        <time>2016-07-15T06:43:36Z</time>
      </trkpt>
      <trkpt lat="45.53554" lon="5.64532">
        <ele>300</ele>
        <time>2016-07-15T06:45:36Z</time>
      </trkpt>
      <trkpt lat="45.53554" lon="5.64533">
        <ele>300</ele>
        <time>2016-07-15T06:47:36Z</time>
      </trkpt>
      <trkpt lat="45.53554" lon="5.64534">
        <ele>300</ele>
        <time>2016-07-15T06:49:36Z</time>
      </trkpt>
      <trkpt lat="45.53554" lon="5.64535">
        <ele>300</ele>
        <time>2016-07-15T06:51:36Z</time>
      </trkpt>
      <trkpt lat="45.53554" lon="5.64536">
        <ele>300</ele>
        <time>2016-07-15T06:53:36Z</time>
      </trkpt>
      <trkpt lat="45.53554" lon="5.64537">
        <ele>300</ele>
        <time>2016-07-15T06:55:36Z</time>
      </trkpt>
      <trkpt lat="45.53554" lon="5.64538">
        <ele>300</ele>
        <time>2016-07-15T06:57:36Z</time>
      </trkpt>
      <trkpt lat="45.53554" lon="5.6454">
        <ele>300</ele>
        <time>2016-07-15T06:59:36Z</time>
      </trkpt>
      <trkpt lat="45.53554" lon="5.64541">
        <ele>300</ele>
        <time>2016-07-15T07:01:36Z</time>
      </trkpt>
      <trkpt lat="45.53554" lon="5.64542">
        <ele>300</ele>
        <time>2016-07-15T07:03:36Z</time>
      </trkpt>
      <trkpt lat="45.53555" lon="5.64543">
        <ele>300</ele>
        <time>2016-07-15T07:05:36Z</time>
      </trkpt>
      <trkpt lat="45.53555" lon="5.64544">
        <ele>300</ele>
        <time>2016-07-15T07:07:36Z</time>
      </trkpt>
      <trkpt lat="45.53555" lon="5.64545">
        <ele>300</ele>
        <time>2016-07-15T07:09:36Z</time>
      </trkpt>
      <trkpt lat="45.53556" lon="5.64546">
        <ele>300</ele>
        <time>2016-07-15T07:11:36Z</time>
      </trkpt>
      <trkpt lat="45.53556" lon="5.64547">
        <ele>300</ele>
        <time>2016-07-15T07:13:36Z</time>
      </trkpt>
      <trkpt lat="45.53556" lon="5.64548">
        <ele>300</ele>
        <time>2016-07-15T07:15:36Z</time>
      </trkpt>
      <trkpt lat="45.53557" lon="5.64549">
        <ele>300</ele>
        <time>2016-07-15T07:17:36Z</time>
      </trkpt>
      <trkpt lat="45.53558" lon="5.6455">
        <ele>299</ele>
        <time>2016-07-15T07:19:36Z</time>
      </trkpt>
      <trkpt lat="45.53559" lon="5.64551">
        <ele>299</ele>
        <time>2016-07-15T07:21:36Z</time>
      </trkpt>
      <trkpt lat="45.53559" lon="5.64552">
        <ele>299</ele>
        <time>2016-07-15T07:23:36Z</time>
      </trkpt>
      <trkpt lat="45.5356" lon="5.64552">
        <ele>299</ele>
        <time>2016-07-15T07:25:36Z</time>
      </trkpt>
      <trkpt lat="45.53561" lon="5.64553">
        <ele>299</ele>
        <time>2016-07-15T07:27:36Z</time>
      </trkpt>
      <trkpt lat="45.53561" lon="5.64554">
        <ele>299</ele>
        <time>2016-07-15T07:29:36Z</time>
      </trkpt>
      <trkpt lat="45.53562" lon="5.64554">
        <ele>299</ele>
        <time>2016-07-15T07:31:36Z</time>
      </trkpt>
      <trkpt lat="45.53563" lon="5.64554">
        <ele>299</ele>
        <time>2016-07-15T07:33:36Z</time>
      </trkpt>
      <trkpt lat="45.53559" lon="5.64573">
        <ele>299</ele>
        <time>2016-07-15T07:35:36Z</time>
      </trkpt>
      <trkpt lat="45.53558" lon="5.64583">
        <ele>299</ele>
        <time>2016-07-15T07:37:36Z</time>
      </trkpt>
      <trkpt lat="45.53559" lon="5.64594">
        <ele>299</ele>
        <time>2016-07-15T07:39:36Z</time>
      </trkpt>
      <trkpt lat="45.53561" lon="5.64633">
        <ele>298</ele>
        <time>2016-07-15T07:41:36Z</time>
      </trkpt>
      <trkpt lat="45.53564" lon="5.64654">
        <ele>297</ele>
        <time>2016-07-15T07:43:36Z</time>
      </trkpt>
      <trkpt lat="45.53582" lon="5.64821">
        <ele>294</ele>
        <time>2016-07-15T07:45:36Z</time>
      </trkpt>
      <trkpt lat="45.53594" lon="5.64922">
        <ele>294</ele>
        <time>2016-07-15T07:47:36Z</time>
      </trkpt>
      <trkpt lat="45.53597" lon="5.64948">
        <ele>294</ele>
        <time>2016-07-15T07:49:36Z</time>
      </trkpt>
      <trkpt lat="45.53606" lon="5.65035">
        <ele>295</ele>
        <time>2016-07-15T07:51:36Z</time>
      </trkpt>
      <trkpt lat="45.53613" lon="5.65095">
        <ele>296</ele>
        <time>2016-07-15T07:53:36Z</time>
      </trkpt>
      <trkpt lat="45.53618" lon="5.65137">
        <ele>296</ele>
        <time>2016-07-15T07:55:36Z</time>
      </trkpt>
      <trkpt lat="45.53622" lon="5.65171">
        <ele>295</ele>
        <time>2016-07-15T07:57:36Z</time>
      </trkpt>
      <trkpt lat="45.53626" lon="5.65194">
        <ele>295</ele>
        <time>2016-07-15T07:59:36Z</time>
      </trkpt>
      <trkpt lat="45.53631" lon="5.65222">
        <ele>294</ele>
        <time>2016-07-15T08:01:36Z</time>
      </trkpt>
      <trkpt lat="45.53637" lon="5.65249">
        <ele>293</ele>
        <time>2016-07-15T08:03:36Z</time>
      </trkpt>
      <trkpt lat="45.53646" lon="5.65286">
        <ele>293</ele>
        <time>2016-07-15T08:05:36Z</time>
      </trkpt>
      <trkpt lat="45.53657" lon="5.65326">
        <ele>292</ele>
        <time>2016-07-15T08:07:36Z</time>
      </trkpt>
      <trkpt lat="45.53662" lon="5.65344">
        <ele>292</ele>
        <time>2016-07-15T08:09:36Z</time>
      </trkpt>
      <trkpt lat="45.53674" lon="5.65381">
        <ele>293</ele>
        <time>2016-07-15T08:11:36Z</time>
      </trkpt>
      <trkpt lat="45.53675" lon="5.65387">
        <ele>293</ele>
        <time>2016-07-15T08:13:36Z</time>
      </trkpt>
      <trkpt lat="45.53684" lon="5.65426">
        <ele>294</ele>
        <time>2016-07-15T08:15:36Z</time>
      </trkpt>
      <trkpt lat="45.53688" lon="5.65446">
        <ele>293</ele>
        <time>2016-07-15T08:17:36Z</time>
      </trkpt>
      <trkpt lat="45.53692" lon="5.65468">
        <ele>292</ele>
        <time>2016-07-15T08:19:36Z</time>
      </trkpt>
      <trkpt lat="45.53695" lon="5.65488">
        <ele>291</ele>
        <time>2016-07-15T08:21:36Z</time>
      </trkpt>
      <trkpt lat="45.53696" lon="5.65503">
        <ele>291</ele>
        <time>2016-07-15T08:23:36Z</time>
      </trkpt>
      <trkpt lat="45.53697" lon="5.6552">
        <ele>290</ele>
        <time>2016-07-15T08:25:36Z</time>
      </trkpt>
      <trkpt lat="45.53697" lon="5.65533">
        <ele>290</ele>
        <time>2016-07-15T08:27:36Z</time>
      </trkpt>
      <trkpt lat="45.53697" lon="5.65554">
        <ele>289</ele>
        <time>2016-07-15T08:29:36Z</time>
      </trkpt>
      <trkpt lat="45.53696" lon="5.65564">
        <ele>289</ele>
        <time>2016-07-15T08:31:36Z</time>
      </trkpt>
      <trkpt lat="45.53695" lon="5.65601">
        <ele>288</ele>
        <time>2016-07-15T08:33:36Z</time>
      </trkpt>
      <trkpt lat="45.53691" lon="5.65683">
        <ele>286</ele>
        <time>2016-07-15T08:35:36Z</time>
      </trkpt>
      <trkpt lat="45.53688" lon="5.65734">
        <ele>286</ele>
        <time>2016-07-15T08:37:36Z</time>
      </trkpt>
      <trkpt lat="45.53686" lon="5.6578">
        <ele>285</ele>
        <time>2016-07-15T08:39:36Z</time>
      </trkpt>
      <trkpt lat="45.53676" lon="5.65911">
        <ele>284</ele>
        <time>2016-07-15T08:41:36Z</time>
      </trkpt>
      <trkpt lat="45.53668" lon="5.66031">
        <ele>285</ele>
        <time>2016-07-15T08:43:36Z</time>
      </trkpt>
      <trkpt lat="45.53666" lon="5.66049">
        <ele>286</ele>
        <time>2016-07-15T08:45:36Z</time>
      </trkpt>
      <trkpt lat="45.53653" lon="5.66145">
        <ele>286</ele>
        <time>2016-07-15T08:47:36Z</time>
      </trkpt>
      <trkpt lat="45.53649" lon="5.66175">
        <ele>285</ele>
        <time>2016-07-15T08:49:36Z</time>
      </trkpt>
      <trkpt lat="45.53639" lon="5.66246">
        <ele>283</ele>
        <time>2016-07-15T08:51:36Z</time>
      </trkpt>
      <trkpt lat="45.53629" lon="5.66315">
        <ele>283</ele>
        <time>2016-07-15T08:53:36Z</time>
      </trkpt>
      <trkpt lat="45.53623" lon="5.66351">
        <ele>283</ele>
        <time>2016-07-15T08:55:36Z</time>
      </trkpt>
      <trkpt lat="45.5362" lon="5.6637">
        <ele>283</ele>
        <time>2016-07-15T08:57:36Z</time>
      </trkpt>
      <trkpt lat="45.53618" lon="5.66382">
        <ele>283</ele>
        <time>2016-07-15T08:59:36Z</time>
      </trkpt>
      <trkpt lat="45.53616" lon="5.66394">
        <ele>283</ele>
        <time>2016-07-15T09:01:36Z</time>
      </trkpt>
      <trkpt lat="45.53614" lon="5.66412">
        <ele>283</ele>
        <time>2016-07-15T09:03:36Z</time>
      </trkpt>
      <trkpt lat="45.53606" lon="5.66479">
        <ele>283</ele>
        <time>2016-07-15T09:05:36Z</time>
      </trkpt>
      <trkpt lat="45.536" lon="5.66527">
        <ele>281</ele>
        <time>2016-07-15T09:07:36Z</time>
      </trkpt>
      <trkpt lat="45.536" lon="5.66542">
        <ele>280</ele>
        <time>2016-07-15T09:09:36Z</time>
      </trkpt>
      <trkpt lat="45.53603" lon="5.66565">
        <ele>279</ele>
        <time>2016-07-15T09:11:36Z</time>
      </trkpt>
      <trkpt lat="45.53605" lon="5.66595">
        <ele>278</ele>
        <time>2016-07-15T09:13:36Z</time>
      </trkpt>
      <trkpt lat="45.53606" lon="5.66617">
        <ele>278</ele>
        <time>2016-07-15T09:15:36Z</time>
      </trkpt>
      <trkpt lat="45.53607" lon="5.66633">
        <ele>277</ele>
        <time>2016-07-15T09:17:36Z</time>
      </trkpt>
      <trkpt lat="45.53607" lon="5.66666">
        <ele>277</ele>
        <time>2016-07-15T09:19:36Z</time>
      </trkpt>
      <trkpt lat="45.53606" lon="5.66708">
        <ele>274</ele>
        <time>2016-07-15T09:21:36Z</time>
      </trkpt>
      <trkpt lat="45.53605" lon="5.66741">
        <ele>271</ele>
        <time>2016-07-15T09:23:36Z</time>
      </trkpt>
      <trkpt lat="45.53602" lon="5.6678">
        <ele>268</ele>
        <time>2016-07-15T09:25:36Z</time>
      </trkpt>
      <trkpt lat="45.53602" lon="5.66803">
        <ele>265</ele>
        <time>2016-07-15T09:27:36Z</time>
      </trkpt>
      <trkpt lat="45.53603" lon="5.66816">
        <ele>264</ele>
        <time>2016-07-15T09:29:36Z</time>
      </trkpt>
      <trkpt lat="45.53604" lon="5.66829">
        <ele>263</ele>
        <time>2016-07-15T09:31:36Z</time>
      </trkpt>
      <trkpt lat="45.53604" lon="5.66833">
        <ele>263</ele>
        <time>2016-07-15T09:33:36Z</time>
      </trkpt>
      <trkpt lat="45.5361" lon="5.6687">
        <ele>260</ele>
        <time>2016-07-15T09:35:36Z</time>
      </trkpt>
      <trkpt lat="45.5361" lon="5.66876">
        <ele>259</ele>
        <time>2016-07-15T09:37:36Z</time>
      </trkpt>
      <trkpt lat="45.53614" lon="5.66901">
        <ele>257</ele>
        <time>2016-07-15T09:39:36Z</time>
      </trkpt>
      <trkpt lat="45.53616" lon="5.66912">
        <ele>256</ele>
        <time>2016-07-15T09:41:36Z</time>
      </trkpt>
      <trkpt lat="45.53618" lon="5.66919">
        <ele>256</ele>
        <time>2016-07-15T09:43:36Z</time>
      </trkpt>
      <trkpt lat="45.53619" lon="5.66925">
        <ele>256</ele>
        <time>2016-07-15T09:45:36Z</time>
      </trkpt>
      <trkpt lat="45.53621" lon="5.66933">
        <ele>255</ele>
        <time>2016-07-15T09:47:36Z</time>
      </trkpt>
      <trkpt lat="45.53626" lon="5.66947">
        <ele>255</ele>
        <time>2016-07-15T09:49:36Z</time>
      </trkpt>
      <trkpt lat="45.53639" lon="5.66982">
        <ele>255</ele>
        <time>2016-07-15T09:51:36Z</time>
      </trkpt>
      <trkpt lat="45.53643" lon="5.66997">
        <ele>254</ele>
        <time>2016-07-15T09:53:36Z</time>
      </trkpt>
      <trkpt lat="45.53644" lon="5.67003">
        <ele>254</ele>
        <time>2016-07-15T09:55:36Z</time>
      </trkpt>
      <trkpt lat="45.53645" lon="5.6701">
        <ele>254</ele>
        <time>2016-07-15T09:57:36Z</time>
      </trkpt>
      <trkpt lat="45.53645" lon="5.67018">
        <ele>254</ele>
        <time>2016-07-15T09:59:36Z</time>
      </trkpt>
      <trkpt lat="45.53644" lon="5.67027">
        <ele>254</ele>
        <time>2016-07-15T10:01:36Z</time>
      </trkpt>
      <trkpt lat="45.53642" lon="5.67046">
        <ele>255</ele>
        <time>2016-07-15T10:03:36Z</time>
      </trkpt>
      <trkpt lat="45.53637" lon="5.67066">
        <ele>255</ele>
        <time>2016-07-15T10:05:36Z</time>
      </trkpt>
      <trkpt lat="45.53637" lon="5.67072">
        <ele>255</ele>
        <time>2016-07-15T10:07:36Z</time>
      </trkpt>
      <trkpt lat="45.5362" lon="5.671">
        <ele>256</ele>
        <time>2016-07-15T10:09:36Z</time>
      </trkpt>
      <trkpt lat="45.5361" lon="5.67119">
        <ele>257</ele>
        <time>2016-07-15T10:11:36Z</time>
      </trkpt>
      <trkpt lat="45.53603" lon="5.67129">
        <ele>257</ele>
        <time>2016-07-15T10:13:36Z</time>
      </trkpt>
      <trkpt lat="45.53601" lon="5.67136">
        <ele>258</ele>
        <time>2016-07-15T10:15:36Z</time>
      </trkpt>
      <trkpt lat="45.53597" lon="5.67144">
        <ele>258</ele>
        <time>2016-07-15T10:17:36Z</time>
      </trkpt>
      <trkpt lat="45.53585" lon="5.67174">
        <ele>258</ele>
        <time>2016-07-15T10:19:36Z</time>
      </trkpt>
      <trkpt lat="45.53585" lon="5.67177">
        <ele>258</ele>
        <time>2016-07-15T10:21:36Z</time>
      </trkpt>
      <trkpt lat="45.53586" lon="5.67179">
        <ele>258</ele>
        <time>2016-07-15T10:23:36Z</time>
      </trkpt>
      <trkpt lat="45.53586" lon="5.67182">
        <ele>258</ele>
        <time>2016-07-15T10:25:36Z</time>
      </trkpt>
      <trkpt lat="45.53588" lon="5.67189">
        <ele>257</ele>
        <time>2016-07-15T10:27:36Z</time>
      </trkpt>
      <trkpt lat="45.5359" lon="5.67196">
        <ele>257</ele>
        <time>2016-07-15T10:29:36Z</time>
      </trkpt>
      <trkpt lat="45.53593" lon="5.67207">
        <ele>256</ele>
        <time>2016-07-15T10:31:36Z</time>
      </trkpt>
      <trkpt lat="45.53599" lon="5.67223">
        <ele>254</ele>
        <time>2016-07-15T10:33:36Z</time>
      </trkpt>
      <trkpt lat="45.53603" lon="5.67232">
        <ele>254</ele>
        <time>2016-07-15T10:35:36Z</time>
      </trkpt>
      <trkpt lat="45.53607" lon="5.6724">
        <ele>253</ele>
        <time>2016-07-15T10:37:36Z</time>
      </trkpt>
      <trkpt lat="45.53613" lon="5.67255">
        <ele>253</ele>
        <time>2016-07-15T10:39:36Z</time>
      </trkpt>
      <trkpt lat="45.53633" lon="5.67299">
        <ele>255</ele>
        <time>2016-07-15T10:41:36Z</time>
      </trkpt>
      <trkpt lat="45.53633" lon="5.67299">
        <ele>255</ele>
        <time>2016-07-15T10:43:36Z</time>
      </trkpt>
      <trkpt lat="45.53589" lon="5.67344">
        <ele>258</ele>
        <time>2016-07-15T10:45:36Z</time>
      </trkpt>
      <trkpt lat="45.53572" lon="5.6737">
        <ele>259</ele>
        <time>2016-07-15T10:47:36Z</time>
      </trkpt>
      <trkpt lat="45.53568" lon="5.67374">
        <ele>259</ele>
        <time>2016-07-15T10:49:36Z</time>
      </trkpt>
      <trkpt lat="45.53553" lon="5.67396">
        <ele>260</ele>
        <time>2016-07-15T10:51:36Z</time>
      </trkpt>
      <trkpt lat="45.53549" lon="5.67401">
        <ele>260</ele>
        <time>2016-07-15T10:53:36Z</time>
      </trkpt>
      <trkpt lat="45.53546" lon="5.67406">
        <ele>260</ele>
        <time>2016-07-15T10:55:36Z</time>
      </trkpt>
      <trkpt lat="45.53544" lon="5.67411">
        <ele>261</ele>
        <time>2016-07-15T10:57:36Z</time>
      </trkpt>
      <trkpt lat="45.53541" lon="5.67418">
        <ele>261</ele>
        <time>2016-07-15T10:59:36Z</time>
      </trkpt>
      <trkpt lat="45.5354" lon="5.67423">
        <ele>262</ele>
        <time>2016-07-15T11:01:36Z</time>
      </trkpt>
      <trkpt lat="45.53538" lon="5.67429">
        <ele>262</ele>
        <time>2016-07-15T11:03:36Z</time>
      </trkpt>
      <trkpt lat="45.5353" lon="5.67452">
        <ele>264</ele>
        <time>2016-07-15T11:05:36Z</time>
      </trkpt>
      <trkpt lat="45.53498" lon="5.67501">
        <ele>262</ele>
        <time>2016-07-15T11:07:36Z</time>
      </trkpt>
      <trkpt lat="45.53458" lon="5.67562">
        <ele>263</ele>
        <time>2016-07-15T11:09:36Z</time>
      </trkpt>
      <trkpt lat="45.53427" lon="5.67616">
        <ele>262</ele>
        <time>2016-07-15T11:11:36Z</time>
      </trkpt>
      <trkpt lat="45.53399" lon="5.67665">
        <ele>262</ele>
        <time>2016-07-15T11:13:36Z</time>
      </trkpt>
      <trkpt lat="45.53371" lon="5.67714">
        <ele>266</ele>
        <time>2016-07-15T11:15:36Z</time>
      </trkpt>
      <trkpt lat="45.53346" lon="5.67759">
        <ele>266</ele>
        <time>2016-07-15T11:17:36Z</time>
      </trkpt>
      <trkpt lat="45.53321" lon="5.67804">
        <ele>265</ele>
        <time>2016-07-15T11:19:36Z</time>
      </trkpt>
      <trkpt lat="45.53318" lon="5.67808">
        <ele>265</ele>
        <time>2016-07-15T11:21:36Z</time>
      </trkpt>
      <trkpt lat="45.53282" lon="5.67873">
        <ele>264</ele>
        <time>2016-07-15T11:23:36Z</time>
      </trkpt>
      <trkpt lat="45.5324" lon="5.67946">
        <ele>264</ele>
        <time>2016-07-15T11:25:36Z</time>
      </trkpt>
      <trkpt lat="45.53233" lon="5.67959">
        <ele>265</ele>
        <time>2016-07-15T11:27:36Z</time>
      </trkpt>
      <trkpt lat="45.53228" lon="5.67965">
        <ele>265</ele>
        <time>2016-07-15T11:29:36Z</time>
      </trkpt>
      <trkpt lat="45.53211" lon="5.67997">
        <ele>264</ele>
        <time>2016-07-15T11:31:36Z</time>
      </trkpt>
      <trkpt lat="45.53204" lon="5.6801">
        <ele>264</ele>
        <time>2016-07-15T11:33:36Z</time>
      </trkpt>
      <trkpt lat="45.532" lon="5.68018">
        <ele>264</ele>
        <time>2016-07-15T11:35:36Z</time>
      </trkpt>
      <trkpt lat="45.53178" lon="5.68059">
        <ele>262</ele>
        <time>2016-07-15T11:37:36Z</time>
      </trkpt>
      <trkpt lat="45.53176" lon="5.68065">
        <ele>261</ele>
        <time>2016-07-15T11:39:36Z</time>
      </trkpt>
      <trkpt lat="45.53173" lon="5.68071">
        <ele>261</ele>
        <time>2016-07-15T11:41:36Z</time>
      </trkpt>
      <trkpt lat="45.5317" lon="5.68081">
        <ele>261</ele>
        <time>2016-07-15T11:43:36Z</time>
      </trkpt>
      <trkpt lat="45.53168" lon="5.68087">
        <ele>260</ele>
        <time>2016-07-15T11:45:36Z</time>
      </trkpt>
      <trkpt lat="45.53166" lon="5.68091">
        <ele>260</ele>
        <time>2016-07-15T11:47:36Z</time>
      </trkpt>
      <trkpt lat="45.53164" lon="5.68095">
        <ele>260</ele>
        <time>2016-07-15T11:49:36Z</time>
      </trkpt>
      <trkpt lat="45.53161" lon="5.68099">
        <ele>260</ele>
        <time>2016-07-15T11:51:36Z</time>
      </trkpt>
      <trkpt lat="45.53157" lon="5.68102">
        <ele>260</ele>
        <time>2016-07-15T11:53:36Z</time>
      </trkpt>
      <trkpt lat="45.53147" lon="5.68107">
        <ele>259</ele>
        <time>2016-07-15T11:55:36Z</time>
      </trkpt>
      <trkpt lat="45.53145" lon="5.68107">
        <ele>259</ele>
        <time>2016-07-15T11:57:36Z</time>
      </trkpt>
      <trkpt lat="45.53143" lon="5.68106">
        <ele>259</ele>
        <time>2016-07-15T11:59:36Z</time>
      </trkpt>
      <trkpt lat="45.53141" lon="5.68106">
        <ele>259</ele>
        <time>2016-07-15T12:01:36Z</time>
      </trkpt>
      <trkpt lat="45.53139" lon="5.68106">
        <ele>259</ele>
        <time>2016-07-15T12:03:36Z</time>
      </trkpt>
      <trkpt lat="45.53137" lon="5.68107">
        <ele>259</ele>
        <time>2016-07-15T12:05:36Z</time>
      </trkpt>
      <trkpt lat="45.53136" lon="5.68108">
        <ele>259</ele>
        <time>2016-07-15T12:07:36Z</time>
      </trkpt>
      <trkpt lat="45.53134" lon="5.68108">
        <ele>259</ele>
        <time>2016-07-15T12:09:36Z</time>
      </trkpt>
      <trkpt lat="45.53132" lon="5.6811">
        <ele>259</ele>
        <time>2016-07-15T12:11:36Z</time>
      </trkpt>
      <trkpt lat="45.5313" lon="5.68111">
        <ele>259</ele>
        <time>2016-07-15T12:13:36Z</time>
      </trkpt>
      <trkpt lat="45.53128" lon="5.68113">
        <ele>258</ele>
        <time>2016-07-15T12:15:36Z</time>
      </trkpt>
      <trkpt lat="45.53127" lon="5.68115">
        <ele>258</ele>
        <time>2016-07-15T12:17:36Z</time>
      </trkpt>
      <trkpt lat="45.53126" lon="5.68117">
        <ele>258</ele>
        <time>2016-07-15T12:19:36Z</time>
      </trkpt>
      <trkpt lat="45.53125" lon="5.6812">
        <ele>258</ele>
        <time>2016-07-15T12:21:36Z</time>
      </trkpt>
      <trkpt lat="45.53124" lon="5.68122">
        <ele>258</ele>
        <time>2016-07-15T12:23:36Z</time>
      </trkpt>
      <trkpt lat="45.53123" lon="5.68125">
        <ele>258</ele>
        <time>2016-07-15T12:25:36Z</time>
      </trkpt>
      <trkpt lat="45.53122" lon="5.68128">
        <ele>258</ele>
        <time>2016-07-15T12:27:36Z</time>
      </trkpt>
      <trkpt lat="45.53122" lon="5.6813">
        <ele>258</ele>
        <time>2016-07-15T12:29:36Z</time>
      </trkpt>
      <trkpt lat="45.53121" lon="5.68133">
        <ele>258</ele>
        <time>2016-07-15T12:31:36Z</time>
      </trkpt>
      <trkpt lat="45.53121" lon="5.68139">
        <ele>259</ele>
        <time>2016-07-15T12:33:36Z</time>
      </trkpt>
      <trkpt lat="45.53121" lon="5.6814">
        <ele>259</ele>
        <time>2016-07-15T12:35:36Z</time>
      </trkpt>
      <trkpt lat="45.53121" lon="5.68142">
        <ele>259</ele>
        <time>2016-07-15T12:37:36Z</time>
      </trkpt>
      <trkpt lat="45.53122" lon="5.68143">
        <ele>259</ele>
        <time>2016-07-15T12:39:36Z</time>
      </trkpt>
      <trkpt lat="45.53122" lon="5.68144">
        <ele>259</ele>
        <time>2016-07-15T12:41:36Z</time>
      </trkpt>
      <trkpt lat="45.53122" lon="5.68146">
        <ele>259</ele>
        <time>2016-07-15T12:43:36Z</time>
      </trkpt>
      <trkpt lat="45.53123" lon="5.68147">
        <ele>259</ele>
        <time>2016-07-15T12:45:36Z</time>
      </trkpt>
      <trkpt lat="45.53123" lon="5.68149">
        <ele>259</ele>
        <time>2016-07-15T12:47:36Z</time>
      </trkpt>
      <trkpt lat="45.53123" lon="5.6815">
        <ele>259</ele>
        <time>2016-07-15T12:49:36Z</time>
      </trkpt>
      <trkpt lat="45.53121" lon="5.68159">
        <ele>259</ele>
        <time>2016-07-15T12:51:36Z</time>
      </trkpt>
      <trkpt lat="45.53118" lon="5.68169">
        <ele>259</ele>
        <time>2016-07-15T12:53:36Z</time>
      </trkpt>
      <trkpt lat="45.53115" lon="5.68178">
        <ele>259</ele>
        <time>2016-07-15T12:55:36Z</time>
      </trkpt>
      <trkpt lat="45.53109" lon="5.6819">
        <ele>258</ele>
        <time>2016-07-15T12:57:36Z</time>
      </trkpt>
      <trkpt lat="45.53097" lon="5.68212">
        <ele>258</ele>
        <time>2016-07-15T12:59:36Z</time>
      </trkpt>
      <trkpt lat="45.53068" lon="5.68266">
        <ele>257</ele>
        <time>2016-07-15T13:01:36Z</time>
      </trkpt>
      <trkpt lat="45.53039" lon="5.6832">
        <ele>255</ele>
        <time>2016-07-15T13:03:36Z</time>
      </trkpt>
      <trkpt lat="45.53019" lon="5.68358">
        <ele>255</ele>
        <time>2016-07-15T13:05:36Z</time>
      </trkpt>
      <trkpt lat="45.5301" lon="5.68374">
        <ele>255</ele>
        <time>2016-07-15T13:07:36Z</time>
      </trkpt>
      <trkpt lat="45.52998" lon="5.68398">
        <ele>255</ele>
        <time>2016-07-15T13:09:36Z</time>
      </trkpt>
      <trkpt lat="45.52974" lon="5.68445">
        <ele>255</ele>
        <time>2016-07-15T13:11:36Z</time>
      </trkpt>
      <trkpt lat="45.5296" lon="5.68471">
        <ele>254</ele>
        <time>2016-07-15T13:13:36Z</time>
      </trkpt>
      <trkpt lat="45.52953" lon="5.68488">
        <ele>254</ele>
        <time>2016-07-15T13:15:36Z</time>
      </trkpt>
      <trkpt lat="45.5295" lon="5.68497">
        <ele>254</ele>
        <time>2016-07-15T13:17:36Z</time>
      </trkpt>
      <trkpt lat="45.52946" lon="5.68508">
        <ele>254</ele>
        <time>2016-07-15T13:19:36Z</time>
      </trkpt>
      <trkpt lat="45.52944" lon="5.68519">
        <ele>255</ele>
        <time>2016-07-15T13:21:36Z</time>
      </trkpt>
      <trkpt lat="45.5294" lon="5.68534">
        <ele>255</ele>
        <time>2016-07-15T13:23:36Z</time>
      </trkpt>
      <trkpt lat="45.52936" lon="5.68558">
        <ele>256</ele>
        <time>2016-07-15T13:25:36Z</time>
      </trkpt>
      <trkpt lat="45.52931" lon="5.68586">
        <ele>257</ele>
        <time>2016-07-15T13:27:36Z</time>
      </trkpt>
      <trkpt lat="45.52926" lon="5.68612">
        <ele>257</ele>
        <time>2016-07-15T13:29:36Z</time>
      </trkpt>
      <trkpt lat="45.52926" lon="5.68622">
        <ele>257</ele>
        <time>2016-07-15T13:31:36Z</time>
      </trkpt>
      <trkpt lat="45.52919" lon="5.68664">
        <ele>257</ele>
        <time>2016-07-15T13:33:36Z</time>
      </trkpt>
      <trkpt lat="45.52909" lon="5.68715">
        <ele>257</ele>
        <time>2016-07-15T13:35:36Z</time>
      </trkpt>
      <trkpt lat="45.52891" lon="5.68816">
        <ele>256</ele>
        <time>2016-07-15T13:37:36Z</time>
      </trkpt>
      <trkpt lat="45.52881" lon="5.68876">
        <ele>256</ele>
        <time>2016-07-15T13:39:36Z</time>
      </trkpt>
      <trkpt lat="45.52877" lon="5.6889">
        <ele>256</ele>
        <time>2016-07-15T13:41:36Z</time>
      </trkpt>
      <trkpt lat="45.52873" lon="5.68902">
        <ele>255</ele>
        <time>2016-07-15T13:43:36Z</time>
      </trkpt>
      <trkpt lat="45.52868" lon="5.68914">
        <ele>255</ele>
        <time>2016-07-15T13:45:36Z</time>
      </trkpt>
      <trkpt lat="45.52868" lon="5.68915">
        <ele>255</ele>
        <time>2016-07-15T13:47:36Z</time>
      </trkpt>
      <trkpt lat="45.52867" lon="5.68915">
        <ele>255</ele>
        <time>2016-07-15T13:49:36Z</time>
      </trkpt>
      <trkpt lat="45.52866" lon="5.68916">
        <ele>255</ele>
        <time>2016-07-15T13:51:36Z</time>
      </trkpt>
      <trkpt lat="45.52865" lon="5.68917">
        <ele>255</ele>
        <time>2016-07-15T13:53:36Z</time>
      </trkpt>
      <trkpt lat="45.52864" lon="5.68917">
        <ele>254</ele>
        <time>2016-07-15T13:55:36Z</time>
      </trkpt>
      <trkpt lat="45.52864" lon="5.68918">
        <ele>255</ele>
        <time>2016-07-15T13:57:36Z</time>
      </trkpt>
      <trkpt lat="45.52863" lon="5.68919">
        <ele>254</ele>
        <time>2016-07-15T13:59:36Z</time>
      </trkpt>
      <trkpt lat="45.52863" lon="5.6892">
        <ele>255</ele>
        <time>2016-07-15T14:01:36Z</time>
      </trkpt>
      <trkpt lat="45.52862" lon="5.68921">
        <ele>254</ele>
        <time>2016-07-15T14:03:36Z</time>
      </trkpt>
      <trkpt lat="45.52861" lon="5.68922">
        <ele>254</ele>
        <time>2016-07-15T14:05:36Z</time>
      </trkpt>
      <trkpt lat="45.52861" lon="5.68923">
        <ele>255</ele>
        <time>2016-07-15T14:07:36Z</time>
      </trkpt>
      <trkpt lat="45.5286" lon="5.68924">
        <ele>254</ele>
        <time>2016-07-15T14:09:36Z</time>
      </trkpt>
      <trkpt lat="45.5286" lon="5.68925">
        <ele>255</ele>
        <time>2016-07-15T14:11:36Z</time>
      </trkpt>
      <trkpt lat="45.5286" lon="5.68926">
        <ele>255</ele>
        <time>2016-07-15T14:13:36Z</time>
      </trkpt>
      <trkpt lat="45.52859" lon="5.68928">
        <ele>255</ele>
        <time>2016-07-15T14:15:36Z</time>
      </trkpt>
      <trkpt lat="45.52859" lon="5.68929">
        <ele>255</ele>
        <time>2016-07-15T14:17:36Z</time>
      </trkpt>
      <trkpt lat="45.52859" lon="5.6893">
        <ele>255</ele>
        <time>2016-07-15T14:19:36Z</time>
      </trkpt>
      <trkpt lat="45.52859" lon="5.68932">
        <ele>255</ele>
        <time>2016-07-15T14:21:36Z</time>
      </trkpt>
      <trkpt lat="45.52859" lon="5.68933">
        <ele>255</ele>
        <time>2016-07-15T14:23:36Z</time>
      </trkpt>
      <trkpt lat="45.52859" lon="5.68934">
        <ele>255</ele>
        <time>2016-07-15T14:25:36Z</time>
      </trkpt>
      <trkpt lat="45.52859" lon="5.68936">
        <ele>255</ele>
        <time>2016-07-15T14:27:36Z</time>
      </trkpt>
      <trkpt lat="45.52859" lon="5.68938">
        <ele>255</ele>
        <time>2016-07-15T14:29:36Z</time>
      </trkpt>
      <trkpt lat="45.52859" lon="5.68939">
        <ele>255</ele>
        <time>2016-07-15T14:31:36Z</time>
      </trkpt>
      <trkpt lat="45.5286" lon="5.6894">
        <ele>255</ele>
        <time>2016-07-15T14:33:36Z</time>
      </trkpt>
      <trkpt lat="45.5286" lon="5.68942">
        <ele>255</ele>
        <time>2016-07-15T14:35:36Z</time>
      </trkpt>
      <trkpt lat="45.5286" lon="5.68943">
        <ele>255</ele>
        <time>2016-07-15T14:37:36Z</time>
      </trkpt>
      <trkpt lat="45.52861" lon="5.68944">
        <ele>255</ele>
        <time>2016-07-15T14:39:36Z</time>
      </trkpt>
      <trkpt lat="45.52861" lon="5.68945">
        <ele>255</ele>
        <time>2016-07-15T14:41:36Z</time>
      </trkpt>
      <trkpt lat="45.52862" lon="5.68946">
        <ele>255</ele>
        <time>2016-07-15T14:43:36Z</time>
      </trkpt>
      <trkpt lat="45.52862" lon="5.68947">
        <ele>255</ele>
        <time>2016-07-15T14:45:36Z</time>
      </trkpt>
      <trkpt lat="45.52863" lon="5.68948">
        <ele>255</ele>
        <time>2016-07-15T14:47:36Z</time>
      </trkpt>
      <trkpt lat="45.52864" lon="5.68965">
        <ele>256</ele>
        <time>2016-07-15T14:49:36Z</time>
      </trkpt>
      <trkpt lat="45.52864" lon="5.68972">
        <ele>256</ele>
        <time>2016-07-15T14:51:36Z</time>
      </trkpt>
      <trkpt lat="45.52863" lon="5.68989">
        <ele>256</ele>
        <time>2016-07-15T14:53:36Z</time>
      </trkpt>
      <trkpt lat="45.52859" lon="5.69004">
        <ele>257</ele>
        <time>2016-07-15T14:55:36Z</time>
      </trkpt>
      <trkpt lat="45.52853" lon="5.69032">
        <ele>256</ele>
        <time>2016-07-15T14:57:36Z</time>
      </trkpt>
      <trkpt lat="45.52837" lon="5.69121">
        <ele>256</ele>
        <time>2016-07-15T14:59:36Z</time>
      </trkpt>
      <trkpt lat="45.52831" lon="5.69153">
        <ele>257</ele>
        <time>2016-07-15T15:01:36Z</time>
      </trkpt>
      <trkpt lat="45.52826" lon="5.69179">
        <ele>257</ele>
        <time>2016-07-15T15:03:36Z</time>
      </trkpt>
      <trkpt lat="45.52821" lon="5.69194">
        <ele>258</ele>
        <time>2016-07-15T15:05:36Z</time>
      </trkpt>
      <trkpt lat="45.52815" lon="5.69207">
        <ele>258</ele>
        <time>2016-07-15T15:07:36Z</time>
      </trkpt>
      <trkpt lat="45.5281" lon="5.69216">
        <ele>258</ele>
        <time>2016-07-15T15:09:36Z</time>
      </trkpt>
      <trkpt lat="45.52806" lon="5.69223">
        <ele>258</ele>
        <time>2016-07-15T15:11:36Z</time>
      </trkpt>
      <trkpt lat="45.52801" lon="5.69231">
        <ele>258</ele>
        <time>2016-07-15T15:13:36Z</time>
      </trkpt>
      <trkpt lat="45.52797" lon="5.69237">
        <ele>258</ele>
        <time>2016-07-15T15:15:36Z</time>
      </trkpt>
      <trkpt lat="45.52793" lon="5.69241">
        <ele>258</ele>
        <time>2016-07-15T15:17:36Z</time>
      </trkpt>
      <trkpt lat="45.52781" lon="5.69254">
        <ele>257</ele>
        <time>2016-07-15T15:19:36Z</time>
      </trkpt>
      <trkpt lat="45.52772" lon="5.69264">
        <ele>257</ele>
        <time>2016-07-15T15:21:36Z</time>
      </trkpt>
      <trkpt lat="45.52737" lon="5.69297">
        <ele>257</ele>
        <time>2016-07-15T15:23:36Z</time>
      </trkpt>
      <trkpt lat="45.52639" lon="5.69384">
        <ele>263</ele>
        <time>2016-07-15T15:25:36Z</time>
      </trkpt>
      <trkpt lat="45.52574" lon="5.69442">
        <ele>266</ele>
        <time>2016-07-15T15:27:36Z</time>
      </trkpt>
      <trkpt lat="45.52561" lon="5.69454">
        <ele>267</ele>
        <time>2016-07-15T15:29:36Z</time>
      </trkpt>
      <trkpt lat="45.52548" lon="5.69466">
        <ele>267</ele>
        <time>2016-07-15T15:31:36Z</time>
      </trkpt>
      <trkpt lat="45.5247" lon="5.69538">
        <ele>267</ele>
        <time>2016-07-15T15:33:36Z</time>
      </trkpt>
      <trkpt lat="45.52448" lon="5.69559">
        <ele>266</ele>
        <time>2016-07-15T15:35:36Z</time>
      </trkpt>
      <trkpt lat="45.52442" lon="5.69566">
        <ele>266</ele>
        <time>2016-07-15T15:37:36Z</time>
      </trkpt>
      <trkpt lat="45.52437" lon="5.69572">
        <ele>266</ele>
        <time>2016-07-15T15:39:36Z</time>
      </trkpt>
      <trkpt lat="45.52434" lon="5.69578">
        <ele>266</ele>
        <time>2016-07-15T15:41:36Z</time>
      </trkpt>
      <trkpt lat="45.52431" lon="5.69583">
        <ele>265</ele>
        <time>2016-07-15T15:43:36Z</time>
      </trkpt>
      <trkpt lat="45.52429" lon="5.6959">
        <ele>265</ele>
        <time>2016-07-15T15:45:36Z</time>
      </trkpt>
      <trkpt lat="45.52427" lon="5.69598">
        <ele>265</ele>
        <time>2016-07-15T15:47:36Z</time>
      </trkpt>
      <trkpt lat="45.52422" lon="5.69619">
        <ele>265</ele>
        <time>2016-07-15T15:49:36Z</time>
      </trkpt>
      <trkpt lat="45.52421" lon="5.69624">
        <ele>265</ele>
        <time>2016-07-15T15:51:36Z</time>
      </trkpt>
      <trkpt lat="45.5242" lon="5.69631">
        <ele>265</ele>
        <time>2016-07-15T15:53:36Z</time>
      </trkpt>
      <trkpt lat="45.52418" lon="5.69637">
        <ele>265</ele>
        <time>2016-07-15T15:55:36Z</time>
      </trkpt>
      <trkpt lat="45.52415" lon="5.69648">
        <ele>265</ele>
        <time>2016-07-15T15:57:36Z</time>
      </trkpt>
      <trkpt lat="45.52409" lon="5.69665">
        <ele>266</ele>
        <time>2016-07-15T15:59:36Z</time>
      </trkpt>
      <trkpt lat="45.52404" lon="5.69677">
        <ele>266</ele>
        <time>2016-07-15T16:01:36Z</time>
      </trkpt>
      <trkpt lat="45.52374" lon="5.69755">
        <ele>266</ele>
        <time>2016-07-15T16:03:36Z</time>
      </trkpt>
      <trkpt lat="45.52341" lon="5.6984">
        <ele>266</ele>
        <time>2016-07-15T16:05:36Z</time>
      </trkpt>
      <trkpt lat="45.52332" lon="5.69865">
        <ele>266</ele>
        <time>2016-07-15T16:07:36Z</time>
      </trkpt>
      <trkpt lat="45.52327" lon="5.69881">
        <ele>266</ele>
        <time>2016-07-15T16:09:36Z</time>
      </trkpt>
      <trkpt lat="45.5232" lon="5.69899">
        <ele>266</ele>
        <time>2016-07-15T16:11:36Z</time>
      </trkpt>
      <trkpt lat="45.5231" lon="5.69927">
        <ele>265</ele>
        <time>2016-07-15T16:13:36Z</time>
      </trkpt>
      <trkpt lat="45.52304" lon="5.69947">
        <ele>265</ele>
        <time>2016-07-15T16:15:36Z</time>
      </trkpt>
      <trkpt lat="45.52297" lon="5.69971">
        <ele>265</ele>
        <time>2016-07-15T16:17:36Z</time>
      </trkpt>
      <trkpt lat="45.52269" lon="5.70064">
        <ele>266</ele>
        <time>2016-07-15T16:19:36Z</time>
      </trkpt>
      <trkpt lat="45.52265" lon="5.70077">
        <ele>267</ele>
        <time>2016-07-15T16:21:36Z</time>
      </trkpt>
      <trkpt lat="45.52261" lon="5.70087">
        <ele>267</ele>
        <time>2016-07-15T16:23:36Z</time>
      </trkpt>
      <trkpt lat="45.52258" lon="5.70094">
        <ele>267</ele>
        <time>2016-07-15T16:25:36Z</time>
      </trkpt>
      <trkpt lat="45.52256" lon="5.70101">
        <ele>267</ele>
        <time>2016-07-15T16:27:36Z</time>
      </trkpt>
      <trkpt lat="45.52249" lon="5.70117">
        <ele>267</ele>
        <time>2016-07-15T16:29:36Z</time>
      </trkpt>
      <trkpt lat="45.52228" lon="5.70164">
        <ele>267</ele>
        <time>2016-07-15T16:31:36Z</time>
      </trkpt>
      <trkpt lat="45.52196" lon="5.70238">
        <ele>268</ele>
        <time>2016-07-15T16:33:36Z</time>
      </trkpt>
      <trkpt lat="45.5218" lon="5.70272">
        <ele>269</ele>
        <time>2016-07-15T16:35:36Z</time>
      </trkpt>
      <trkpt lat="45.52167" lon="5.70303">
        <ele>269</ele>
        <time>2016-07-15T16:37:36Z</time>
      </trkpt>
      <trkpt lat="45.5216" lon="5.70318">
        <ele>269</ele>
        <time>2016-07-15T16:39:36Z</time>
      </trkpt>
      <trkpt lat="45.52154" lon="5.70331">
        <ele>269</ele>
        <time>2016-07-15T16:41:36Z</time>
      </trkpt>
      <trkpt lat="45.52149" lon="5.7034">
        <ele>269</ele>
        <time>2016-07-15T16:43:36Z</time>
      </trkpt>
      <trkpt lat="45.52145" lon="5.70347">
        <ele>269</ele>
        <time>2016-07-15T16:45:36Z</time>
      </trkpt>
      <trkpt lat="45.5214" lon="5.70354">
        <ele>268</ele>
        <time>2016-07-15T16:47:36Z</time>
      </trkpt>
      <trkpt lat="45.52136" lon="5.70359">
        <ele>268</ele>
        <time>2016-07-15T16:49:36Z</time>
      </trkpt>
      <trkpt lat="45.52132" lon="5.70364">
        <ele>268</ele>
        <time>2016-07-15T16:51:36Z</time>
      </trkpt>
      <trkpt lat="45.52126" lon="5.70371">
        <ele>268</ele>
        <time>2016-07-15T16:53:36Z</time>
      </trkpt>
      <trkpt lat="45.52118" lon="5.70379">
        <ele>268</ele>
        <time>2016-07-15T16:55:36Z</time>
      </trkpt>
      <trkpt lat="45.52109" lon="5.70387">
        <ele>268</ele>
        <time>2016-07-15T16:57:36Z</time>
      </trkpt>
      <trkpt lat="45.52102" lon="5.70392">
        <ele>268</ele>
        <time>2016-07-15T16:59:36Z</time>
      </trkpt>
      <trkpt lat="45.52094" lon="5.70398">
        <ele>269</ele>
        <time>2016-07-15T17:01:36Z</time>
      </trkpt>
      <trkpt lat="45.52085" lon="5.70403">
        <ele>269</ele>
        <time>2016-07-15T17:03:36Z</time>
      </trkpt>
      <trkpt lat="45.52076" lon="5.70409">
        <ele>269</ele>
        <time>2016-07-15T17:05:36Z</time>
      </trkpt>
      <trkpt lat="45.52068" lon="5.70413">
        <ele>268</ele>
        <time>2016-07-15T17:07:36Z</time>
      </trkpt>
      <trkpt lat="45.52063" lon="5.70416">
        <ele>268</ele>
        <time>2016-07-15T17:09:36Z</time>
      </trkpt>
      <trkpt lat="45.52003" lon="5.70447">
        <ele>267</ele>
        <time>2016-07-15T17:11:36Z</time>
      </trkpt>
      <trkpt lat="45.51954" lon="5.70473">
        <ele>268</ele>
        <time>2016-07-15T17:13:36Z</time>
      </trkpt>
      <trkpt lat="45.51865" lon="5.7052">
        <ele>268</ele>
        <time>2016-07-15T17:15:36Z</time>
      </trkpt>
      <trkpt lat="45.51739" lon="5.70584">
        <ele>271</ele>
        <time>2016-07-15T17:17:36Z</time>
      </trkpt>
      <trkpt lat="45.51701" lon="5.70604">
        <ele>272</ele>
        <time>2016-07-15T17:19:36Z</time>
      </trkpt>
      <trkpt lat="45.51628" lon="5.70641">
        <ele>273</ele>
        <time>2016-07-15T17:21:36Z</time>
      </trkpt>
      <trkpt lat="45.51592" lon="5.70659">
        <ele>271</ele>
        <time>2016-07-15T17:23:36Z</time>
      </trkpt>
      <trkpt lat="45.51503" lon="5.70704">
        <ele>272</ele>
        <time>2016-07-15T17:25:36Z</time>
      </trkpt>
      <trkpt lat="45.51467" lon="5.70722">
        <ele>273</ele>
        <time>2016-07-15T17:27:36Z</time>
      </trkpt>
      <trkpt lat="45.51427" lon="5.70742">
        <ele>274</ele>
        <time>2016-07-15T17:29:36Z</time>
      </trkpt>
      <trkpt lat="45.51409" lon="5.70752">
        <ele>274</ele>
        <time>2016-07-15T17:31:36Z</time>
      </trkpt>
      <trkpt lat="45.51399" lon="5.70756">
        <ele>274</ele>
        <time>2016-07-15T17:33:36Z</time>
      </trkpt>
      <trkpt lat="45.51385" lon="5.70764">
        <ele>274</ele>
        <time>2016-07-15T17:35:36Z</time>
      </trkpt>
      <trkpt lat="45.51371" lon="5.70771">
        <ele>274</ele>
        <time>2016-07-15T17:37:36Z</time>
      </trkpt>
      <trkpt lat="45.51363" lon="5.70777">
        <ele>275</ele>
        <time>2016-07-15T17:39:36Z</time>
      </trkpt>
      <trkpt lat="45.51351" lon="5.70784">
        <ele>275</ele>
        <time>2016-07-15T17:41:36Z</time>
      </trkpt>
      <trkpt lat="45.51346" lon="5.70789">
        <ele>275</ele>
        <time>2016-07-15T17:43:36Z</time>
      </trkpt>
      <trkpt lat="45.5134" lon="5.70793">
        <ele>276</ele>
        <time>2016-07-15T17:45:36Z</time>
      </trkpt>
      <trkpt lat="45.51335" lon="5.70797">
        <ele>276</ele>
        <time>2016-07-15T17:47:36Z</time>
      </trkpt>
      <trkpt lat="45.51326" lon="5.70806">
        <ele>276</ele>
        <time>2016-07-15T17:49:36Z</time>
      </trkpt>
      <trkpt lat="45.5132" lon="5.70812">
        <ele>277</ele>
        <time>2016-07-15T17:51:36Z</time>
      </trkpt>
      <trkpt lat="45.51314" lon="5.70819">
        <ele>277</ele>
        <time>2016-07-15T17:53:36Z</time>
      </trkpt>
      <trkpt lat="45.51307" lon="5.70827">
        <ele>278</ele>
        <time>2016-07-15T17:55:36Z</time>
      </trkpt>
      <trkpt lat="45.513" lon="5.70837">
        <ele>278</ele>
        <time>2016-07-15T17:57:36Z</time>
      </trkpt>
      <trkpt lat="45.51289" lon="5.70851">
        <ele>278</ele>
        <time>2016-07-15T17:59:36Z</time>
      </trkpt>
      <trkpt lat="45.5127" lon="5.70878">
        <ele>279</ele>
        <time>2016-07-15T18:01:36Z</time>
      </trkpt>
      <trkpt lat="45.51248" lon="5.7091">
        <ele>280</ele>
        <time>2016-07-15T18:03:36Z</time>
      </trkpt>
      <trkpt lat="45.51221" lon="5.7095">
        <ele>279</ele>
        <time>2016-07-15T18:05:36Z</time>
      </trkpt>
      <trkpt lat="45.51182" lon="5.71008">
        <ele>277</ele>
        <time>2016-07-15T18:07:36Z</time>
      </trkpt>
      <trkpt lat="45.51156" lon="5.71045">
        <ele>276</ele>
        <time>2016-07-15T18:09:36Z</time>
      </trkpt>
      <trkpt lat="45.51127" lon="5.71088">
        <ele>276</ele>
        <time>2016-07-15T18:11:36Z</time>
      </trkpt>
      <trkpt lat="45.51115" lon="5.71105">
        <ele>276</ele>
        <time>2016-07-15T18:13:36Z</time>
      </trkpt>
      <trkpt lat="45.51106" lon="5.71117">
        <ele>276</ele>
        <time>2016-07-15T18:15:36Z</time>
      </trkpt>
      <trkpt lat="45.51086" lon="5.71147">
        <ele>275</ele>
        <time>2016-07-15T18:17:36Z</time>
      </trkpt>
      <trkpt lat="45.51032" lon="5.71229">
        <ele>277</ele>
        <time>2016-07-15T18:19:36Z</time>
      </trkpt>
      <trkpt lat="45.51006" lon="5.71268">
        <ele>278</ele>
        <time>2016-07-15T18:21:36Z</time>
      </trkpt>
      <trkpt lat="45.50982" lon="5.71303">
        <ele>279</ele>
        <time>2016-07-15T18:23:36Z</time>
      </trkpt>
      <trkpt lat="45.50955" lon="5.71342">
        <ele>280</ele>
        <time>2016-07-15T18:25:36Z</time>
      </trkpt>
      <trkpt lat="45.50937" lon="5.71367">
        <ele>280</ele>
        <time>2016-07-15T18:27:36Z</time>
      </trkpt>
      <trkpt lat="45.50904" lon="5.71414">
        <ele>282</ele>
        <time>2016-07-15T18:29:36Z</time>
      </trkpt>
      <trkpt lat="45.50891" lon="5.71431">
        <ele>283</ele>
        <time>2016-07-15T18:31:36Z</time>
      </trkpt>
      <trkpt lat="45.50874" lon="5.71456">
        <ele>285</ele>
        <time>2016-07-15T18:33:36Z</time>
      </trkpt>
      <trkpt lat="45.50689" lon="5.71722">
        <ele>290</ele>
        <time>2016-07-15T18:35:36Z</time>
      </trkpt>
      <trkpt lat="45.50677" lon="5.71741">
        <ele>289</ele>
        <time>2016-07-15T18:37:36Z</time>
      </trkpt>
      <trkpt lat="45.50625" lon="5.71815">
        <ele>289</ele>
        <time>2016-07-15T18:39:36Z</time>
      </trkpt>
      <trkpt lat="45.50614" lon="5.71831">
        <ele>289</ele>
        <time>2016-07-15T18:41:36Z</time>
      </trkpt>
      <trkpt lat="45.50587" lon="5.71871">
        <ele>290</ele>
        <time>2016-07-15T18:43:36Z</time>
      </trkpt>
      <trkpt lat="45.50528" lon="5.71957">
        <ele>293</ele>
        <time>2016-07-15T18:45:36Z</time>
      </trkpt>
      <trkpt lat="45.50479" lon="5.72029">
        <ele>296</ele>
        <time>2016-07-15T18:47:36Z</time>
      </trkpt>
      <trkpt lat="45.5039" lon="5.72162">
        <ele>298</ele>
        <time>2016-07-15T18:49:36Z</time>
      </trkpt>
      <trkpt lat="45.50359" lon="5.72208">
        <ele>300</ele>
        <time>2016-07-15T18:51:36Z</time>
      </trkpt>
      <trkpt lat="45.50326" lon="5.72258">
        <ele>300</ele>
        <time>2016-07-15T18:53:36Z</time>
      </trkpt>
      <trkpt lat="45.50286" lon="5.72318">
        <ele>302</ele>
        <time>2016-07-15T18:55:36Z</time>
      </trkpt>
      <trkpt lat="45.50224" lon="5.72413">
        <ele>305</ele>
        <time>2016-07-15T18:57:36Z</time>
      </trkpt>
      <trkpt lat="45.5022" lon="5.72416">
        <ele>305</ele>
        <time>2016-07-15T18:59:36Z</time>
      </trkpt>
      <trkpt lat="45.50191" lon="5.7246">
        <ele>308</ele>
        <time>2016-07-15T19:01:36Z</time>
      </trkpt>
      <trkpt lat="45.50167" lon="5.72497">
        <ele>312</ele>
        <time>2016-07-15T19:03:36Z</time>
      </trkpt>
      <trkpt lat="45.50139" lon="5.72539">
        <ele>314</ele>
        <time>2016-07-15T19:05:36Z</time>
      </trkpt>
      <trkpt lat="45.50126" lon="5.72557">
        <ele>315</ele>
        <time>2016-07-15T19:07:36Z</time>
      </trkpt>
      <trkpt lat="45.50107" lon="5.72585">
        <ele>316</ele>
        <time>2016-07-15T19:09:36Z</time>
      </trkpt>
      <trkpt lat="45.50091" lon="5.72607">
        <ele>316</ele>
        <time>2016-07-15T19:11:36Z</time>
      </trkpt>
      <trkpt lat="45.50082" lon="5.7262">
        <ele>316</ele>
        <time>2016-07-15T19:13:36Z</time>
      </trkpt>
      <trkpt lat="45.5008" lon="5.72622">
        <ele>316</ele>
        <time>2016-07-15T19:15:36Z</time>
      </trkpt>
      <trkpt lat="45.50075" lon="5.72629">
        <ele>316</ele>
        <time>2016-07-15T19:17:36Z</time>
      </trkpt>
      <trkpt lat="45.50071" lon="5.72634">
        <ele>316</ele>
        <time>2016-07-15T19:19:36Z</time>
      </trkpt>
      <trkpt lat="45.50067" lon="5.7264">
        <ele>316</ele>
        <time>2016-07-15T19:21:36Z</time>
      </trkpt>
      <trkpt lat="45.4997" lon="5.72778">
        <ele>324</ele>
        <time>2016-07-15T19:23:36Z</time>
      </trkpt>
      <trkpt lat="45.49946" lon="5.72815">
        <ele>329</ele>
        <time>2016-07-15T19:25:36Z</time>
      </trkpt>
      <trkpt lat="45.49944" lon="5.72822">
        <ele>330</ele>
        <time>2016-07-15T19:27:36Z</time>
      </trkpt>
      <trkpt lat="45.49895" lon="5.72896">
        <ele>339</ele>
        <time>2016-07-15T19:29:36Z</time>
      </trkpt>
      <trkpt lat="45.4985" lon="5.72963">
        <ele>337</ele>
        <time>2016-07-15T19:31:36Z</time>
      </trkpt>
      <trkpt lat="45.49844" lon="5.72972">
        <ele>338</ele>
        <time>2016-07-15T19:33:36Z</time>
      </trkpt>
      <trkpt lat="45.49837" lon="5.7298">
        <ele>338</ele>
        <time>2016-07-15T19:35:36Z</time>
      </trkpt>
      <trkpt lat="45.4983" lon="5.72988">
        <ele>338</ele>
        <time>2016-07-15T19:37:36Z</time>
      </trkpt>
      <trkpt lat="45.49826" lon="5.72992">
        <ele>339</ele>
        <time>2016-07-15T19:39:36Z</time>
      </trkpt>
      <trkpt lat="45.49822" lon="5.72995">
        <ele>339</ele>
        <time>2016-07-15T19:41:36Z</time>
      </trkpt>
      <trkpt lat="45.49815" lon="5.72999">
        <ele>340</ele>
        <time>2016-07-15T19:43:36Z</time>
      </trkpt>
      <trkpt lat="45.49809" lon="5.73003">
        <ele>340</ele>
        <time>2016-07-15T19:45:36Z</time>
      </trkpt>
      <trkpt lat="45.49805" lon="5.73005">
        <ele>340</ele>
        <time>2016-07-15T19:47:36Z</time>
      </trkpt>
      <trkpt lat="45.49801" lon="5.73006">
        <ele>340</ele>
        <time>2016-07-15T19:49:36Z</time>
      </trkpt>
      <trkpt lat="45.49798" lon="5.73007">
        <ele>341</ele>
        <time>2016-07-15T19:51:36Z</time>
      </trkpt>
      <trkpt lat="45.49795" lon="5.73007">
        <ele>341</ele>
        <time>2016-07-15T19:53:36Z</time>
      </trkpt>
      <trkpt lat="45.4979" lon="5.73008">
        <ele>341</ele>
        <time>2016-07-15T19:55:36Z</time>
      </trkpt>
      <trkpt lat="45.49788" lon="5.73009">
        <ele>341</ele>
        <time>2016-07-15T19:57:36Z</time>
      </trkpt>
      <trkpt lat="45.49785" lon="5.73009">
        <ele>341</ele>
        <time>2016-07-15T19:59:36Z</time>
      </trkpt>
      <trkpt lat="45.49782" lon="5.73009">
        <ele>341</ele>
        <time>2016-07-15T20:01:36Z</time>
      </trkpt>
      <trkpt lat="45.4978" lon="5.73009">
        <ele>341</ele>
        <time>2016-07-15T20:03:36Z</time>
      </trkpt>
      <trkpt lat="45.49776" lon="5.73008">
        <ele>341</ele>
        <time>2016-07-15T20:05:36Z</time>
      </trkpt>
      <trkpt lat="45.49773" lon="5.73007">
        <ele>341</ele>
        <time>2016-07-15T20:07:36Z</time>
      </trkpt>
      <trkpt lat="45.4977" lon="5.73006">
        <ele>342</ele>
        <time>2016-07-15T20:09:36Z</time>
      </trkpt>
      <trkpt lat="45.49766" lon="5.73005">
        <ele>342</ele>
        <time>2016-07-15T20:11:36Z</time>
      </trkpt>
      <trkpt lat="45.49764" lon="5.73004">
        <ele>342</ele>
        <time>2016-07-15T20:13:36Z</time>
      </trkpt>
      <trkpt lat="45.49761" lon="5.73003">
        <ele>342</ele>
        <time>2016-07-15T20:15:36Z</time>
      </trkpt>
      <trkpt lat="45.49758" lon="5.73001">
        <ele>342</ele>
        <time>2016-07-15T20:17:36Z</time>
      </trkpt>
      <trkpt lat="45.4975" lon="5.72996">
        <ele>342</ele>
        <time>2016-07-15T20:19:36Z</time>
      </trkpt>
      <trkpt lat="45.49743" lon="5.72992">
        <ele>342</ele>
        <time>2016-07-15T20:21:36Z</time>
      </trkpt>
      <trkpt lat="45.49736" lon="5.72987">
        <ele>343</ele>
        <time>2016-07-15T20:23:36Z</time>
      </trkpt>
      <trkpt lat="45.4973" lon="5.72983">
        <ele>344</ele>
        <time>2016-07-15T20:25:36Z</time>
      </trkpt>
      <trkpt lat="45.49705" lon="5.72965">
        <ele>345</ele>
        <time>2016-07-15T20:27:36Z</time>
      </trkpt>
      <trkpt lat="45.49688" lon="5.72953">
        <ele>346</ele>
        <time>2016-07-15T20:29:36Z</time>
      </trkpt>
      <trkpt lat="45.49659" lon="5.72932">
        <ele>347</ele>
        <time>2016-07-15T20:31:36Z</time>
      </trkpt>
      <trkpt lat="45.49598" lon="5.72889">
        <ele>352</ele>
        <time>2016-07-15T20:33:36Z</time>
      </trkpt>
      <trkpt lat="45.49576" lon="5.72874">
        <ele>353</ele>
        <time>2016-07-15T20:35:36Z</time>
      </trkpt>
      <trkpt lat="45.49558" lon="5.72862">
        <ele>354</ele>
        <time>2016-07-15T20:37:36Z</time>
      </trkpt>
      <trkpt lat="45.49511" lon="5.7283">
        <ele>357</ele>
        <time>2016-07-15T20:39:36Z</time>
      </trkpt>
      <trkpt lat="45.49497" lon="5.72821">
        <ele>358</ele>
        <time>2016-07-15T20:41:36Z</time>
      </trkpt>
      <trkpt lat="45.49486" lon="5.72812">
        <ele>358</ele>
        <time>2016-07-15T20:43:36Z</time>
      </trkpt>
      <trkpt lat="45.49475" lon="5.72803">
        <ele>358</ele>
        <time>2016-07-15T20:45:36Z</time>
      </trkpt>
      <trkpt lat="45.49464" lon="5.72792">
        <ele>359</ele>
        <time>2016-07-15T20:47:36Z</time>
      </trkpt>
      <trkpt lat="45.49449" lon="5.72775">
        <ele>359</ele>
        <time>2016-07-15T20:49:36Z</time>
      </trkpt>
      <trkpt lat="45.49428" lon="5.72751">
        <ele>360</ele>
        <time>2016-07-15T20:51:36Z</time>
      </trkpt>
      <trkpt lat="45.49392" lon="5.72708">
        <ele>361</ele>
        <time>2016-07-15T20:53:36Z</time>
      </trkpt>
      <trkpt lat="45.49356" lon="5.72666">
        <ele>363</ele>
        <time>2016-07-15T20:55:36Z</time>
      </trkpt>
      <trkpt lat="45.49296" lon="5.72597">
        <ele>367</ele>
        <time>2016-07-15T20:57:36Z</time>
      </trkpt>
      <trkpt lat="45.49277" lon="5.72576">
        <ele>368</ele>
        <time>2016-07-15T20:59:36Z</time>
      </trkpt>
      <trkpt lat="45.49254" lon="5.7255">
        <ele>368</ele>
        <time>2016-07-15T21:01:36Z</time>
      </trkpt>
      <trkpt lat="45.49244" lon="5.72538">
        <ele>368</ele>
        <time>2016-07-15T21:03:36Z</time>
      </trkpt>
      <trkpt lat="45.49238" lon="5.72531">
        <ele>368</ele>
        <time>2016-07-15T21:05:36Z</time>
      </trkpt>
      <trkpt lat="45.49229" lon="5.72519">
        <ele>368</ele>
        <time>2016-07-15T21:07:36Z</time>
      </trkpt>
      <trkpt lat="45.49221" lon="5.72509">
        <ele>368</ele>
        <time>2016-07-15T21:09:36Z</time>
      </trkpt>
      <trkpt lat="45.49214" lon="5.725">
        <ele>369</ele>
        <time>2016-07-15T21:11:36Z</time>
      </trkpt>
      <trkpt lat="45.49207" lon="5.7249">
        <ele>369</ele>
        <time>2016-07-15T21:13:36Z</time>
      </trkpt>
      <trkpt lat="45.49194" lon="5.72472">
        <ele>369</ele>
        <time>2016-07-15T21:15:36Z</time>
      </trkpt>
      <trkpt lat="45.49166" lon="5.72431">
        <ele>369</ele>
        <time>2016-07-15T21:17:36Z</time>
      </trkpt>
      <trkpt lat="45.49147" lon="5.72405">
        <ele>372</ele>
        <time>2016-07-15T21:19:36Z</time>
      </trkpt>
      <trkpt lat="45.49142" lon="5.72397">
        <ele>373</ele>
        <time>2016-07-15T21:21:36Z</time>
      </trkpt>
      <trkpt lat="45.49134" lon="5.72385">
        <ele>374</ele>
        <time>2016-07-15T21:23:36Z</time>
      </trkpt>
      <trkpt lat="45.49123" lon="5.72368">
        <ele>375</ele>
        <time>2016-07-15T21:25:36Z</time>
      </trkpt>
      <trkpt lat="45.49081" lon="5.72294">
        <ele>377</ele>
        <time>2016-07-15T21:27:36Z</time>
      </trkpt>
      <trkpt lat="45.49058" lon="5.72254">
        <ele>376</ele>
        <time>2016-07-15T21:29:36Z</time>
      </trkpt>
      <trkpt lat="45.49038" lon="5.72218">
        <ele>378</ele>
        <time>2016-07-15T21:31:36Z</time>
      </trkpt>
      <trkpt lat="45.49031" lon="5.72208">
        <ele>379</ele>
        <time>2016-07-15T21:33:36Z</time>
      </trkpt>
      <trkpt lat="45.49026" lon="5.722">
        <ele>379</ele>
        <time>2016-07-15T21:35:36Z</time>
      </trkpt>
      <trkpt lat="45.49023" lon="5.72195">
        <ele>379</ele>
        <time>2016-07-15T21:37:36Z</time>
      </trkpt>
      <trkpt lat="45.49019" lon="5.7219">
        <ele>380</ele>
        <time>2016-07-15T21:39:36Z</time>
      </trkpt>
      <trkpt lat="45.49016" lon="5.72186">
        <ele>380</ele>
        <time>2016-07-15T21:41:36Z</time>
      </trkpt>
      <trkpt lat="45.49012" lon="5.72182">
        <ele>381</ele>
        <time>2016-07-15T21:43:36Z</time>
      </trkpt>
      <trkpt lat="45.49008" lon="5.72178">
        <ele>381</ele>
        <time>2016-07-15T21:45:36Z</time>
      </trkpt>
      <trkpt lat="45.49003" lon="5.72174">
        <ele>382</ele>
        <time>2016-07-15T21:47:36Z</time>
      </trkpt>
      <trkpt lat="45.48995" lon="5.72167">
        <ele>383</ele>
        <time>2016-07-15T21:49:36Z</time>
      </trkpt>
      <trkpt lat="45.48988" lon="5.72161">
        <ele>383</ele>
        <time>2016-07-15T21:51:36Z</time>
      </trkpt>
      <trkpt lat="45.48983" lon="5.72159">
        <ele>383</ele>
        <time>2016-07-15T21:53:36Z</time>
      </trkpt>
      <trkpt lat="45.48978" lon="5.72156">
        <ele>383</ele>
        <time>2016-07-15T21:55:36Z</time>
      </trkpt>
      <trkpt lat="45.48975" lon="5.72155">
        <ele>383</ele>
        <time>2016-07-15T21:57:36Z</time>
      </trkpt>
      <trkpt lat="45.48971" lon="5.72155">
        <ele>383</ele>
        <time>2016-07-15T21:59:36Z</time>
      </trkpt>
      <trkpt lat="45.48965" lon="5.72155">
        <ele>384</ele>
        <time>2016-07-15T22:01:36Z</time>
      </trkpt>
      <trkpt lat="45.4896" lon="5.72156">
        <ele>384</ele>
        <time>2016-07-15T22:03:36Z</time>
      </trkpt>
      <trkpt lat="45.48955" lon="5.72159">
        <ele>385</ele>
        <time>2016-07-15T22:05:36Z</time>
      </trkpt>
      <trkpt lat="45.48949" lon="5.72162">
        <ele>387</ele>
        <time>2016-07-15T22:07:36Z</time>
      </trkpt>
      <trkpt lat="45.48942" lon="5.72167">
        <ele>388</ele>
        <time>2016-07-15T22:09:36Z</time>
      </trkpt>
      <trkpt lat="45.48935" lon="5.72172">
        <ele>390</ele>
        <time>2016-07-15T22:11:36Z</time>
      </trkpt>
      <trkpt lat="45.48923" lon="5.7218">
        <ele>394</ele>
        <time>2016-07-15T22:13:36Z</time>
      </trkpt>
      <trkpt lat="45.48918" lon="5.72183">
        <ele>396</ele>
        <time>2016-07-15T22:15:36Z</time>
      </trkpt>
      <trkpt lat="45.48913" lon="5.72185">
        <ele>398</ele>
        <time>2016-07-15T22:17:36Z</time>
      </trkpt>
      <trkpt lat="45.48909" lon="5.72187">
        <ele>400</ele>
        <time>2016-07-15T22:19:36Z</time>
      </trkpt>
      <trkpt lat="45.48905" lon="5.72188">
        <ele>401</ele>
        <time>2016-07-15T22:21:36Z</time>
      </trkpt>
      <trkpt lat="45.48903" lon="5.72188">
        <ele>402</ele>
        <time>2016-07-15T22:23:36Z</time>
      </trkpt>
      <trkpt lat="45.48901" lon="5.72188">
        <ele>402</ele>
        <time>2016-07-15T22:25:36Z</time>
      </trkpt>
      <trkpt lat="45.48897" lon="5.72188">
        <ele>404</ele>
        <time>2016-07-15T22:27:36Z</time>
      </trkpt>
      <trkpt lat="45.48893" lon="5.72188">
        <ele>405</ele>
        <time>2016-07-15T22:29:36Z</time>
      </trkpt>
      <trkpt lat="45.48889" lon="5.72186">
        <ele>405</ele>
        <time>2016-07-15T22:31:36Z</time>
      </trkpt>
      <trkpt lat="45.48885" lon="5.72185">
        <ele>406</ele>
        <time>2016-07-15T22:33:36Z</time>
      </trkpt>
      <trkpt lat="45.48881" lon="5.72183">
        <ele>407</ele>
        <time>2016-07-15T22:35:36Z</time>
      </trkpt>
      <trkpt lat="45.48876" lon="5.72181">
        <ele>407</ele>
        <time>2016-07-15T22:37:36Z</time>
      </trkpt>
      <trkpt lat="45.48861" lon="5.72174">
        <ele>409</ele>
        <time>2016-07-15T22:39:36Z</time>
      </trkpt>
      <trkpt lat="45.4885" lon="5.72168">
        <ele>411</ele>
        <time>2016-07-15T22:41:36Z</time>
      </trkpt>
      <trkpt lat="45.48841" lon="5.72163">
        <ele>411</ele>
        <time>2016-07-15T22:43:36Z</time>
      </trkpt>
      <trkpt lat="45.48834" lon="5.7216">
        <ele>412</ele>
        <time>2016-07-15T22:45:36Z</time>
      </trkpt>
      <trkpt lat="45.48829" lon="5.72158">
        <ele>411</ele>
        <time>2016-07-15T22:47:36Z</time>
      </trkpt>
      <trkpt lat="45.48823" lon="5.72156">
        <ele>412</ele>
        <time>2016-07-15T22:49:36Z</time>
      </trkpt>
      <trkpt lat="45.48816" lon="5.72155">
        <ele>412</ele>
        <time>2016-07-15T22:51:36Z</time>
      </trkpt>
      <trkpt lat="45.48798" lon="5.72152">
        <ele>414</ele>
        <time>2016-07-15T22:53:36Z</time>
      </trkpt>
      <trkpt lat="45.48784" lon="5.7215">
        <ele>416</ele>
        <time>2016-07-15T22:55:36Z</time>
      </trkpt>
      <trkpt lat="45.48771" lon="5.72149">
        <ele>417</ele>
        <time>2016-07-15T22:57:36Z</time>
      </trkpt>
      <trkpt lat="45.48761" lon="5.72148">
        <ele>419</ele>
        <time>2016-07-15T22:59:36Z</time>
      </trkpt>
      <trkpt lat="45.48752" lon="5.72147">
        <ele>420</ele>
        <time>2016-07-15T23:01:36Z</time>
      </trkpt>
      <trkpt lat="45.48744" lon="5.72146">
        <ele>421</ele>
        <time>2016-07-15T23:03:36Z</time>
      </trkpt>
      <trkpt lat="45.48724" lon="5.72144">
        <ele>423</ele>
        <time>2016-07-15T23:05:36Z</time>
      </trkpt>
      <trkpt lat="45.48715" lon="5.72144">
        <ele>424</ele>
        <time>2016-07-15T23:07:36Z</time>
      </trkpt>
      <trkpt lat="45.48695" lon="5.72143">
        <ele>426</ele>
        <time>2016-07-15T23:09:36Z</time>
      </trkpt>
      <trkpt lat="45.48668" lon="5.72142">
        <ele>430</ele>
        <time>2016-07-15T23:11:36Z</time>
      </trkpt>
      <trkpt lat="45.48652" lon="5.72142">
        <ele>430</ele>
        <time>2016-07-15T23:13:36Z</time>
      </trkpt>
      <trkpt lat="45.48635" lon="5.7214">
        <ele>429</ele>
        <time>2016-07-15T23:15:36Z</time>
      </trkpt>
      <trkpt lat="45.48596" lon="5.72139">
        <ele>430</ele>
        <time>2016-07-15T23:17:36Z</time>
      </trkpt>
      <trkpt lat="45.48571" lon="5.72138">
        <ele>430</ele>
        <time>2016-07-15T23:19:36Z</time>
      </trkpt>
      <trkpt lat="45.48555" lon="5.72138">
        <ele>431</ele>
        <time>2016-07-15T23:21:36Z</time>
      </trkpt>
      <trkpt lat="45.48544" lon="5.72137">
        <ele>431</ele>
        <time>2016-07-15T23:23:36Z</time>
      </trkpt>
      <trkpt lat="45.48535" lon="5.72136">
        <ele>431</ele>
        <time>2016-07-15T23:25:36Z</time>
      </trkpt>
      <trkpt lat="45.4853" lon="5.72135">
        <ele>431</ele>
        <time>2016-07-15T23:27:36Z</time>
      </trkpt>
      <trkpt lat="45.48527" lon="5.72134">
        <ele>430</ele>
        <time>2016-07-15T23:29:36Z</time>
      </trkpt>
      <trkpt lat="45.48524" lon="5.72133">
        <ele>430</ele>
        <time>2016-07-15T23:31:36Z</time>
      </trkpt>
      <trkpt lat="45.48522" lon="5.72132">
        <ele>430</ele>
        <time>2016-07-15T23:33:36Z</time>
      </trkpt>
      <trkpt lat="45.48515" lon="5.72128">
        <ele>428</ele>
        <time>2016-07-15T23:35:36Z</time>
      </trkpt>
      <trkpt lat="45.48506" lon="5.72123">
        <ele>426</ele>
        <time>2016-07-15T23:37:36Z</time>
      </trkpt>
      <trkpt lat="45.48478" lon="5.72106">
        <ele>427</ele>
        <time>2016-07-15T23:39:36Z</time>
      </trkpt>
      <trkpt lat="45.48451" lon="5.72089">
        <ele>433</ele>
        <time>2016-07-15T23:41:36Z</time>
      </trkpt>
      <trkpt lat="45.48444" lon="5.72086">
        <ele>436</ele>
        <time>2016-07-15T23:43:36Z</time>
      </trkpt>
      <trkpt lat="45.48438" lon="5.72083">
        <ele>438</ele>
        <time>2016-07-15T23:45:36Z</time>
      </trkpt>
      <trkpt lat="45.48433" lon="5.72081">
        <ele>440</ele>
        <time>2016-07-15T23:47:36Z</time>
      </trkpt>
      <trkpt lat="45.48426" lon="5.7208">
        <ele>443</ele>
        <time>2016-07-15T23:49:36Z</time>
      </trkpt>
      <trkpt lat="45.4842" lon="5.72079">
        <ele>445</ele>
        <time>2016-07-15T23:51:36Z</time>
      </trkpt>
      <trkpt lat="45.48414" lon="5.72078">
        <ele>445</ele>
        <time>2016-07-15T23:53:36Z</time>
      </trkpt>
      <trkpt lat="45.4841" lon="5.72078">
        <ele>443</ele>
        <time>2016-07-15T23:55:36Z</time>
      </trkpt>
      <trkpt lat="45.48407" lon="5.72078">
        <ele>441</ele>
        <time>2016-07-15T23:57:36Z</time>
      </trkpt>
      <trkpt lat="45.48403" lon="5.7208">
        <ele>439</ele>
        <time>2016-07-15T23:59:36Z</time>
      </trkpt>
      <trkpt lat="45.48399" lon="5.72082">
        <ele>437</ele>
        <time>2016-07-16T00:01:36Z</time>
      </trkpt>
      <trkpt lat="45.48396" lon="5.72084">
        <ele>436</ele>
        <time>2016-07-16T00:03:36Z</time>
      </trkpt>
      <trkpt lat="45.48393" lon="5.72086">
        <ele>434</ele>
        <time>2016-07-16T00:05:36Z</time>
      </trkpt>
      <trkpt lat="45.48391" lon="5.72088">
        <ele>434</ele>
        <time>2016-07-16T00:07:36Z</time>
      </trkpt>
      <trkpt lat="45.48389" lon="5.7209">
        <ele>433</ele>
        <time>2016-07-16T00:09:36Z</time>
      </trkpt>
      <trkpt lat="45.48387" lon="5.72093">
        <ele>432</ele>
        <time>2016-07-16T00:11:36Z</time>
      </trkpt>
      <trkpt lat="45.48385" lon="5.72096">
        <ele>431</ele>
        <time>2016-07-16T00:13:36Z</time>
      </trkpt>
      <trkpt lat="45.48382" lon="5.72102">
        <ele>431</ele>
        <time>2016-07-16T00:15:36Z</time>
      </trkpt>
      <trkpt lat="45.48379" lon="5.72107">
        <ele>430</ele>
        <time>2016-07-16T00:17:36Z</time>
      </trkpt>
      <trkpt lat="45.48377" lon="5.7211">
        <ele>429</ele>
        <time>2016-07-16T00:19:36Z</time>
      </trkpt>
      <trkpt lat="45.48376" lon="5.72112">
        <ele>429</ele>
        <time>2016-07-16T00:21:36Z</time>
      </trkpt>
      <trkpt lat="45.48374" lon="5.72114">
        <ele>428</ele>
        <time>2016-07-16T00:23:36Z</time>
      </trkpt>
      <trkpt lat="45.48373" lon="5.72115">
        <ele>428</ele>
        <time>2016-07-16T00:25:36Z</time>
      </trkpt>
      <trkpt lat="45.48371" lon="5.72117">
        <ele>427</ele>
        <time>2016-07-16T00:27:36Z</time>
      </trkpt>
      <trkpt lat="45.48369" lon="5.72119">
        <ele>426</ele>
        <time>2016-07-16T00:29:36Z</time>
      </trkpt>
      <trkpt lat="45.48366" lon="5.72121">
        <ele>425</ele>
        <time>2016-07-16T00:31:36Z</time>
      </trkpt>
      <trkpt lat="45.48362" lon="5.72125">
        <ele>424</ele>
        <time>2016-07-16T00:33:36Z</time>
      </trkpt>
      <trkpt lat="45.48357" lon="5.72129">
        <ele>422</ele>
        <time>2016-07-16T00:35:36Z</time>
      </trkpt>
      <trkpt lat="45.48353" lon="5.72133">
        <ele>420</ele>
        <time>2016-07-16T00:37:36Z</time>
      </trkpt>
      <trkpt lat="45.48348" lon="5.72138">
        <ele>419</ele>
        <time>2016-07-16T00:39:36Z</time>
      </trkpt>
      <trkpt lat="45.48344" lon="5.72144">
        <ele>418</ele>
        <time>2016-07-16T00:41:36Z</time>
      </trkpt>
      <trkpt lat="45.4834" lon="5.72149">
        <ele>417</ele>
        <time>2016-07-16T00:43:36Z</time>
      </trkpt>
      <trkpt lat="45.48338" lon="5.72153">
        <ele>417</ele>
        <time>2016-07-16T00:45:36Z</time>
      </trkpt>
      <trkpt lat="45.48334" lon="5.7216">
        <ele>417</ele>
        <time>2016-07-16T00:47:36Z</time>
      </trkpt>
      <trkpt lat="45.48331" lon="5.72168">
        <ele>417</ele>
        <time>2016-07-16T00:49:36Z</time>
      </trkpt>
      <trkpt lat="45.48327" lon="5.72176">
        <ele>419</ele>
        <time>2016-07-16T00:51:36Z</time>
      </trkpt>
      <trkpt lat="45.48324" lon="5.72183">
        <ele>420</ele>
        <time>2016-07-16T00:53:36Z</time>
      </trkpt>
      <trkpt lat="45.48321" lon="5.72189">
        <ele>421</ele>
        <time>2016-07-16T00:55:36Z</time>
      </trkpt>
      <trkpt lat="45.4832" lon="5.72195">
        <ele>423</ele>
        <time>2016-07-16T00:57:36Z</time>
      </trkpt>
      <trkpt lat="45.48318" lon="5.722">
        <ele>424</ele>
        <time>2016-07-16T00:59:36Z</time>
      </trkpt>
      <trkpt lat="45.48318" lon="5.72205">
        <ele>426</ele>
        <time>2016-07-16T01:01:36Z</time>
      </trkpt>
      <trkpt lat="45.48317" lon="5.72211">
        <ele>427</ele>
        <time>2016-07-16T01:03:36Z</time>
      </trkpt>
      <trkpt lat="45.48317" lon="5.72218">
        <ele>430</ele>
        <time>2016-07-16T01:05:36Z</time>
      </trkpt>
      <trkpt lat="45.48317" lon="5.72225">
        <ele>433</ele>
        <time>2016-07-16T01:07:36Z</time>
      </trkpt>
      <trkpt lat="45.48316" lon="5.7223">
        <ele>434</ele>
        <time>2016-07-16T01:09:36Z</time>
      </trkpt>
      <trkpt lat="45.48316" lon="5.72233">
        <ele>435</ele>
        <time>2016-07-16T01:11:36Z</time>
      </trkpt>
      <trkpt lat="45.48315" lon="5.72236">
        <ele>436</ele>
        <time>2016-07-16T01:13:36Z</time>
      </trkpt>
      <trkpt lat="45.48313" lon="5.72241">
        <ele>437</ele>
        <time>2016-07-16T01:15:36Z</time>
      </trkpt>
      <trkpt lat="45.48312" lon="5.72245">
        <ele>438</ele>
        <time>2016-07-16T01:17:36Z</time>
      </trkpt>
      <trkpt lat="45.4831" lon="5.7225">
        <ele>438</ele>
        <time>2016-07-16T01:19:36Z</time>
      </trkpt>
      <trkpt lat="45.48307" lon="5.72255">
        <ele>439</ele>
        <time>2016-07-16T01:21:36Z</time>
      </trkpt>
      <trkpt lat="45.48304" lon="5.72261">
        <ele>441</ele>
        <time>2016-07-16T01:23:36Z</time>
      </trkpt>
      <trkpt lat="45.483" lon="5.72266">
        <ele>441</ele>
        <time>2016-07-16T01:25:36Z</time>
      </trkpt>
      <trkpt lat="45.48297" lon="5.7227">
        <ele>441</ele>
        <time>2016-07-16T01:27:36Z</time>
      </trkpt>
      <trkpt lat="45.48294" lon="5.72275">
        <ele>442</ele>
        <time>2016-07-16T01:29:36Z</time>
      </trkpt>
      <trkpt lat="45.48287" lon="5.72283">
        <ele>443</ele>
        <time>2016-07-16T01:31:36Z</time>
      </trkpt>
      <trkpt lat="45.4828" lon="5.7229">
        <ele>443</ele>
        <time>2016-07-16T01:33:36Z</time>
      </trkpt>
      <trkpt lat="45.48278" lon="5.72293">
        <ele>444</ele>
        <time>2016-07-16T01:35:36Z</time>
      </trkpt>
      <trkpt lat="45.48274" lon="5.72297">
        <ele>444</ele>
        <time>2016-07-16T01:37:36Z</time>
      </trkpt>
      <trkpt lat="45.48269" lon="5.72301">
        <ele>444</ele>
        <time>2016-07-16T01:39:36Z</time>
      </trkpt>
      <trkpt lat="45.48262" lon="5.72306">
        <ele>443</ele>
        <time>2016-07-16T01:41:36Z</time>
      </trkpt>
      <trkpt lat="45.48255" lon="5.72312">
        <ele>443</ele>
        <time>2016-07-16T01:43:36Z</time>
      </trkpt>
      <trkpt lat="45.48248" lon="5.72319">
        <ele>443</ele>
        <time>2016-07-16T01:45:36Z</time>
      </trkpt>
      <trkpt lat="45.48243" lon="5.72323">
        <ele>443</ele>
        <time>2016-07-16T01:47:36Z</time>
      </trkpt>
      <trkpt lat="45.48239" lon="5.72327">
        <ele>443</ele>
        <time>2016-07-16T01:49:36Z</time>
      </trkpt>
      <trkpt lat="45.48236" lon="5.7233">
        <ele>443</ele>
        <time>2016-07-16T01:51:36Z</time>
      </trkpt>
      <trkpt lat="45.48234" lon="5.72332">
        <ele>443</ele>
        <time>2016-07-16T01:53:36Z</time>
      </trkpt>
      <trkpt lat="45.48232" lon="5.72336">
        <ele>444</ele>
        <time>2016-07-16T01:55:36Z</time>
      </trkpt>
      <trkpt lat="45.4823" lon="5.72338">
        <ele>444</ele>
        <time>2016-07-16T01:57:36Z</time>
      </trkpt>
      <trkpt lat="45.48226" lon="5.72345">
        <ele>446</ele>
        <time>2016-07-16T01:59:36Z</time>
      </trkpt>
      <trkpt lat="45.48223" lon="5.72351">
        <ele>448</ele>
        <time>2016-07-16T02:01:36Z</time>
      </trkpt>
      <trkpt lat="45.4822" lon="5.72356">
        <ele>449</ele>
        <time>2016-07-16T02:03:36Z</time>
      </trkpt>
      <trkpt lat="45.48214" lon="5.72364">
        <ele>451</ele>
        <time>2016-07-16T02:05:36Z</time>
      </trkpt>
      <trkpt lat="45.48211" lon="5.72368">
        <ele>452</ele>
        <time>2016-07-16T02:07:36Z</time>
      </trkpt>
      <trkpt lat="45.48209" lon="5.7237">
        <ele>452</ele>
        <time>2016-07-16T02:09:36Z</time>
      </trkpt>
      <trkpt lat="45.48207" lon="5.72372">
        <ele>452</ele>
        <time>2016-07-16T02:11:36Z</time>
      </trkpt>
      <trkpt lat="45.48203" lon="5.72375">
        <ele>452</ele>
        <time>2016-07-16T02:13:36Z</time>
      </trkpt>
      <trkpt lat="45.482" lon="5.72377">
        <ele>452</ele>
        <time>2016-07-16T02:15:36Z</time>
      </trkpt>
      <trkpt lat="45.48196" lon="5.72379">
        <ele>451</ele>
        <time>2016-07-16T02:17:36Z</time>
      </trkpt>
      <trkpt lat="45.48189" lon="5.72382">
        <ele>450</ele>
        <time>2016-07-16T02:19:36Z</time>
      </trkpt>
      <trkpt lat="45.48181" lon="5.72385">
        <ele>448</ele>
        <time>2016-07-16T02:21:36Z</time>
      </trkpt>
      <trkpt lat="45.4816" lon="5.72393">
        <ele>445</ele>
        <time>2016-07-16T02:23:36Z</time>
      </trkpt>
      <trkpt lat="45.48153" lon="5.72395">
        <ele>444</ele>
        <time>2016-07-16T02:25:36Z</time>
      </trkpt>
      <trkpt lat="45.48148" lon="5.72397">
        <ele>444</ele>
        <time>2016-07-16T02:27:36Z</time>
      </trkpt>
      <trkpt lat="45.48141" lon="5.72401">
        <ele>443</ele>
        <time>2016-07-16T02:29:36Z</time>
      </trkpt>
      <trkpt lat="45.48136" lon="5.72404">
        <ele>443</ele>
        <time>2016-07-16T02:31:36Z</time>
      </trkpt>
      <trkpt lat="45.48131" lon="5.72408">
        <ele>443</ele>
        <time>2016-07-16T02:33:36Z</time>
      </trkpt>
      <trkpt lat="45.48126" lon="5.72412">
        <ele>444</ele>
        <time>2016-07-16T02:35:36Z</time>
      </trkpt>
      <trkpt lat="45.48122" lon="5.72417">
        <ele>444</ele>
        <time>2016-07-16T02:37:36Z</time>
      </trkpt>
      <trkpt lat="45.48115" lon="5.72425">
        <ele>447</ele>
        <time>2016-07-16T02:39:36Z</time>
      </trkpt>
      <trkpt lat="45.4811" lon="5.7243">
        <ele>449</ele>
        <time>2016-07-16T02:41:36Z</time>
      </trkpt>
      <trkpt lat="45.48106" lon="5.72434">
        <ele>450</ele>
        <time>2016-07-16T02:43:36Z</time>
      </trkpt>
      <trkpt lat="45.48103" lon="5.72436">
        <ele>450</ele>
        <time>2016-07-16T02:45:36Z</time>
      </trkpt>
      <trkpt lat="45.48099" lon="5.72439">
        <ele>451</ele>
        <time>2016-07-16T02:47:36Z</time>
      </trkpt>
      <trkpt lat="45.48095" lon="5.72441">
        <ele>451</ele>
        <time>2016-07-16T02:49:36Z</time>
      </trkpt>
      <trkpt lat="45.48091" lon="5.72443">
        <ele>451</ele>
        <time>2016-07-16T02:51:36Z</time>
      </trkpt>
      <trkpt lat="45.48085" lon="5.72445">
        <ele>450</ele>
        <time>2016-07-16T02:53:36Z</time>
      </trkpt>
      <trkpt lat="45.4808" lon="5.72446">
        <ele>448</ele>
        <time>2016-07-16T02:55:36Z</time>
      </trkpt>
      <trkpt lat="45.48073" lon="5.72448">
        <ele>447</ele>
        <time>2016-07-16T02:57:36Z</time>
      </trkpt>
      <trkpt lat="45.48068" lon="5.72449">
        <ele>445</ele>
        <time>2016-07-16T02:59:36Z</time>
      </trkpt>
      <trkpt lat="45.48064" lon="5.7245">
        <ele>444</ele>
        <time>2016-07-16T03:01:36Z</time>
      </trkpt>
      <trkpt lat="45.48061" lon="5.72451">
        <ele>443</ele>
        <time>2016-07-16T03:03:36Z</time>
      </trkpt>
      <trkpt lat="45.48053" lon="5.72454">
        <ele>441</ele>
        <time>2016-07-16T03:05:36Z</time>
      </trkpt>
      <trkpt lat="45.48047" lon="5.72458">
        <ele>441</ele>
        <time>2016-07-16T03:07:36Z</time>
      </trkpt>
      <trkpt lat="45.48043" lon="5.72461">
        <ele>440</ele>
        <time>2016-07-16T03:09:36Z</time>
      </trkpt>
      <trkpt lat="45.48037" lon="5.72465">
        <ele>440</ele>
        <time>2016-07-16T03:11:36Z</time>
      </trkpt>
      <trkpt lat="45.48031" lon="5.72471">
        <ele>439</ele>
        <time>2016-07-16T03:13:36Z</time>
      </trkpt>
      <trkpt lat="45.48025" lon="5.72476">
        <ele>438</ele>
        <time>2016-07-16T03:15:36Z</time>
      </trkpt>
      <trkpt lat="45.48019" lon="5.72482">
        <ele>437</ele>
        <time>2016-07-16T03:17:36Z</time>
      </trkpt>
      <trkpt lat="45.48011" lon="5.72491">
        <ele>436</ele>
        <time>2016-07-16T03:19:36Z</time>
      </trkpt>
      <trkpt lat="45.47993" lon="5.72512">
        <ele>435</ele>
        <time>2016-07-16T03:21:36Z</time>
      </trkpt>
      <trkpt lat="45.47984" lon="5.72522">
        <ele>435</ele>
        <time>2016-07-16T03:23:36Z</time>
      </trkpt>
      <trkpt lat="45.47974" lon="5.72535">
        <ele>436</ele>
        <time>2016-07-16T03:25:36Z</time>
      </trkpt>
      <trkpt lat="45.47965" lon="5.72548">
        <ele>438</ele>
        <time>2016-07-16T03:27:36Z</time>
      </trkpt>
      <trkpt lat="45.47958" lon="5.72557">
        <ele>438</ele>
        <time>2016-07-16T03:29:36Z</time>
      </trkpt>
      <trkpt lat="45.47952" lon="5.72566">
        <ele>439</ele>
        <time>2016-07-16T03:31:36Z</time>
      </trkpt>
      <trkpt lat="45.47948" lon="5.72573">
        <ele>439</ele>
        <time>2016-07-16T03:33:36Z</time>
      </trkpt>
      <trkpt lat="45.47944" lon="5.72579">
        <ele>440</ele>
        <time>2016-07-16T03:35:36Z</time>
      </trkpt>
      <trkpt lat="45.47938" lon="5.72589">
        <ele>441</ele>
        <time>2016-07-16T03:37:36Z</time>
      </trkpt>
      <trkpt lat="45.47934" lon="5.72597">
        <ele>444</ele>
        <time>2016-07-16T03:39:36Z</time>
      </trkpt>
      <trkpt lat="45.47931" lon="5.72602">
        <ele>445</ele>
        <time>2016-07-16T03:41:36Z</time>
      </trkpt>
      <trkpt lat="45.47929" lon="5.72605">
        <ele>446</ele>
        <time>2016-07-16T03:43:36Z</time>
      </trkpt>
      <trkpt lat="45.47927" lon="5.72607">
        <ele>445</ele>
        <time>2016-07-16T03:45:36Z</time>
      </trkpt>
      <trkpt lat="45.47923" lon="5.72612">
        <ele>446</ele>
        <time>2016-07-16T03:47:36Z</time>
      </trkpt>
      <trkpt lat="45.47914" lon="5.72622">
        <ele>445</ele>
        <time>2016-07-16T03:49:36Z</time>
      </trkpt>
      <trkpt lat="45.47909" lon="5.72628">
        <ele>444</ele>
        <time>2016-07-16T03:51:36Z</time>
      </trkpt>
      <trkpt lat="45.47903" lon="5.72637">
        <ele>442</ele>
        <time>2016-07-16T03:53:36Z</time>
      </trkpt>
      <trkpt lat="45.47896" lon="5.72649">
        <ele>441</ele>
        <time>2016-07-16T03:55:36Z</time>
      </trkpt>
      <trkpt lat="45.47891" lon="5.72659">
        <ele>439</ele>
        <time>2016-07-16T03:57:36Z</time>
      </trkpt>
      <trkpt lat="45.47885" lon="5.7267">
        <ele>436</ele>
        <time>2016-07-16T03:59:36Z</time>
      </trkpt>
      <trkpt lat="45.4788" lon="5.7268">
        <ele>434</ele>
        <time>2016-07-16T04:01:36Z</time>
      </trkpt>
      <trkpt lat="45.47875" lon="5.7269">
        <ele>433</ele>
        <time>2016-07-16T04:03:36Z</time>
      </trkpt>
      <trkpt lat="45.47871" lon="5.72698">
        <ele>431</ele>
        <time>2016-07-16T04:05:36Z</time>
      </trkpt>
      <trkpt lat="45.47868" lon="5.72706">
        <ele>432</ele>
        <time>2016-07-16T04:07:36Z</time>
      </trkpt>
      <trkpt lat="45.47864" lon="5.72717">
        <ele>432</ele>
        <time>2016-07-16T04:09:36Z</time>
      </trkpt>
      <trkpt lat="45.4786" lon="5.72725">
        <ele>431</ele>
        <time>2016-07-16T04:11:36Z</time>
      </trkpt>
      <trkpt lat="45.47858" lon="5.7273">
        <ele>431</ele>
        <time>2016-07-16T04:13:36Z</time>
      </trkpt>
      <trkpt lat="45.47856" lon="5.72734">
        <ele>431</ele>
        <time>2016-07-16T04:15:36Z</time>
      </trkpt>
      <trkpt lat="45.47853" lon="5.72739">
        <ele>430</ele>
        <time>2016-07-16T04:17:36Z</time>
      </trkpt>
      <trkpt lat="45.47848" lon="5.72748">
        <ele>428</ele>
        <time>2016-07-16T04:19:36Z</time>
      </trkpt>
      <trkpt lat="45.47837" lon="5.72771">
        <ele>421</ele>
        <time>2016-07-16T04:21:36Z</time>
      </trkpt>
      <trkpt lat="45.47829" lon="5.72787">
        <ele>418</ele>
        <time>2016-07-16T04:23:36Z</time>
      </trkpt>
      <trkpt lat="45.4782" lon="5.72808">
        <ele>418</ele>
        <time>2016-07-16T04:25:36Z</time>
      </trkpt>
      <trkpt lat="45.47813" lon="5.72823">
        <ele>418</ele>
        <time>2016-07-16T04:27:36Z</time>
      </trkpt>
      <trkpt lat="45.47806" lon="5.72841">
        <ele>419</ele>
        <time>2016-07-16T04:29:36Z</time>
      </trkpt>
      <trkpt lat="45.478" lon="5.72857">
        <ele>421</ele>
        <time>2016-07-16T04:31:36Z</time>
      </trkpt>
      <trkpt lat="45.47794" lon="5.72876">
        <ele>423</ele>
        <time>2016-07-16T04:33:36Z</time>
      </trkpt>
      <trkpt lat="45.47787" lon="5.72895">
        <ele>422</ele>
        <time>2016-07-16T04:35:36Z</time>
      </trkpt>
      <trkpt lat="45.47779" lon="5.7292">
        <ele>422</ele>
        <time>2016-07-16T04:37:36Z</time>
      </trkpt>
      <trkpt lat="45.47775" lon="5.7293">
        <ele>425</ele>
        <time>2016-07-16T04:39:36Z</time>
      </trkpt>
      <trkpt lat="45.4777" lon="5.72943">
        <ele>428</ele>
        <time>2016-07-16T04:41:36Z</time>
      </trkpt>
      <trkpt lat="45.47767" lon="5.72951">
        <ele>431</ele>
        <time>2016-07-16T04:43:36Z</time>
      </trkpt>
      <trkpt lat="45.47761" lon="5.72962">
        <ele>431</ele>
        <time>2016-07-16T04:45:36Z</time>
      </trkpt>
      <trkpt lat="45.47754" lon="5.72978">
        <ele>434</ele>
        <time>2016-07-16T04:47:36Z</time>
      </trkpt>
      <trkpt lat="45.47738" lon="5.73009">
        <ele>436</ele>
        <time>2016-07-16T04:49:36Z</time>
      </trkpt>
      <trkpt lat="45.47733" lon="5.73018">
        <ele>436</ele>
        <time>2016-07-16T04:51:36Z</time>
      </trkpt>
      <trkpt lat="45.47729" lon="5.73025">
        <ele>435</ele>
        <time>2016-07-16T04:53:36Z</time>
      </trkpt>
      <trkpt lat="45.47724" lon="5.73032">
        <ele>433</ele>
        <time>2016-07-16T04:55:36Z</time>
      </trkpt>
      <trkpt lat="45.47721" lon="5.73039">
        <ele>433</ele>
        <time>2016-07-16T04:57:36Z</time>
      </trkpt>
      <trkpt lat="45.47715" lon="5.73047">
        <ele>431</ele>
        <time>2016-07-16T04:59:36Z</time>
      </trkpt>
      <trkpt lat="45.47709" lon="5.73055">
        <ele>428</ele>
        <time>2016-07-16T05:01:36Z</time>
      </trkpt>
      <trkpt lat="45.47704" lon="5.73063">
        <ele>427</ele>
        <time>2016-07-16T05:03:36Z</time>
      </trkpt>
      <trkpt lat="45.47699" lon="5.7307">
        <ele>425</ele>
        <time>2016-07-16T05:05:36Z</time>
      </trkpt>
      <trkpt lat="45.47693" lon="5.73079">
        <ele>422</ele>
        <time>2016-07-16T05:07:36Z</time>
      </trkpt>
      <trkpt lat="45.47689" lon="5.73086">
        <ele>421</ele>
        <time>2016-07-16T05:09:36Z</time>
      </trkpt>
      <trkpt lat="45.47685" lon="5.73093">
        <ele>419</ele>
        <time>2016-07-16T05:11:36Z</time>
      </trkpt>
      <trkpt lat="45.47682" lon="5.731">
        <ele>418</ele>
        <time>2016-07-16T05:13:36Z</time>
      </trkpt>
      <trkpt lat="45.47679" lon="5.73107">
        <ele>417</ele>
        <time>2016-07-16T05:15:36Z</time>
      </trkpt>
      <trkpt lat="45.47676" lon="5.73115">
        <ele>416</ele>
        <time>2016-07-16T05:17:36Z</time>
      </trkpt>
      <trkpt lat="45.47674" lon="5.73123">
        <ele>416</ele>
        <time>2016-07-16T05:19:36Z</time>
      </trkpt>
      <trkpt lat="45.47672" lon="5.73133">
        <ele>417</ele>
        <time>2016-07-16T05:21:36Z</time>
      </trkpt>
      <trkpt lat="45.47671" lon="5.73142">
        <ele>418</ele>
        <time>2016-07-16T05:23:36Z</time>
      </trkpt>
      <trkpt lat="45.47669" lon="5.73152">
        <ele>419</ele>
        <time>2016-07-16T05:25:36Z</time>
      </trkpt>
      <trkpt lat="45.47667" lon="5.7316">
        <ele>419</ele>
        <time>2016-07-16T05:27:36Z</time>
      </trkpt>
      <trkpt lat="45.47662" lon="5.73179">
        <ele>422</ele>
        <time>2016-07-16T05:29:36Z</time>
      </trkpt>
      <trkpt lat="45.4766" lon="5.73186">
        <ele>424</ele>
        <time>2016-07-16T05:31:36Z</time>
      </trkpt>
      <trkpt lat="45.47659" lon="5.73192">
        <ele>426</ele>
        <time>2016-07-16T05:33:36Z</time>
      </trkpt>
      <trkpt lat="45.47657" lon="5.73198">
        <ele>427</ele>
        <time>2016-07-16T05:35:36Z</time>
      </trkpt>
      <trkpt lat="45.47655" lon="5.73204">
        <ele>428</ele>
        <time>2016-07-16T05:37:36Z</time>
      </trkpt>
      <trkpt lat="45.47652" lon="5.7321">
        <ele>428</ele>
        <time>2016-07-16T05:39:36Z</time>
      </trkpt>
      <trkpt lat="45.47649" lon="5.73215">
        <ele>428</ele>
        <time>2016-07-16T05:41:36Z</time>
      </trkpt>
      <trkpt lat="45.47644" lon="5.73223">
        <ele>428</ele>
        <time>2016-07-16T05:43:36Z</time>
      </trkpt>
      <trkpt lat="45.47638" lon="5.7323">
        <ele>426</ele>
        <time>2016-07-16T05:45:36Z</time>
      </trkpt>
      <trkpt lat="45.47626" lon="5.73243">
        <ele>422</ele>
        <time>2016-07-16T05:47:36Z</time>
      </trkpt>
      <trkpt lat="45.47619" lon="5.73251">
        <ele>419</ele>
        <time>2016-07-16T05:49:36Z</time>
      </trkpt>
      <trkpt lat="45.47604" lon="5.73267">
        <ele>409</ele>
        <time>2016-07-16T05:51:36Z</time>
      </trkpt>
      <trkpt lat="45.47592" lon="5.7328">
        <ele>400</ele>
        <time>2016-07-16T05:53:36Z</time>
      </trkpt>
      <trkpt lat="45.47583" lon="5.7329">
        <ele>394</ele>
        <time>2016-07-16T05:55:36Z</time>
      </trkpt>
      <trkpt lat="45.47579" lon="5.73295">
        <ele>394</ele>
        <time>2016-07-16T05:57:36Z</time>
      </trkpt>
      <trkpt lat="45.47577" lon="5.73298">
        <ele>393</ele>
        <time>2016-07-16T05:59:36Z</time>
      </trkpt>
      <trkpt lat="45.47575" lon="5.73302">
        <ele>393</ele>
        <time>2016-07-16T06:01:36Z</time>
      </trkpt>
      <trkpt lat="45.47574" lon="5.73307">
        <ele>393</ele>
        <time>2016-07-16T06:03:36Z</time>
      </trkpt>
      <trkpt lat="45.47574" lon="5.73311">
        <ele>393</ele>
        <time>2016-07-16T06:05:36Z</time>
      </trkpt>
      <trkpt lat="45.47574" lon="5.73315">
        <ele>393</ele>
        <time>2016-07-16T06:07:36Z</time>
      </trkpt>
      <trkpt lat="45.47574" lon="5.7332">
        <ele>393</ele>
        <time>2016-07-16T06:09:36Z</time>
      </trkpt>
      <trkpt lat="45.47574" lon="5.73324">
        <ele>393</ele>
        <time>2016-07-16T06:11:36Z</time>
      </trkpt>
      <trkpt lat="45.47576" lon="5.73329">
        <ele>394</ele>
        <time>2016-07-16T06:13:36Z</time>
      </trkpt>
      <trkpt lat="45.47577" lon="5.73331">
        <ele>394</ele>
        <time>2016-07-16T06:15:36Z</time>
      </trkpt>
      <trkpt lat="45.47578" lon="5.73334">
        <ele>394</ele>
        <time>2016-07-16T06:17:36Z</time>
      </trkpt>
      <trkpt lat="45.47579" lon="5.73337">
        <ele>396</ele>
        <time>2016-07-16T06:19:36Z</time>
      </trkpt>
      <trkpt lat="45.4758" lon="5.73339">
        <ele>397</ele>
        <time>2016-07-16T06:21:36Z</time>
      </trkpt>
      <trkpt lat="45.47581" lon="5.73343">
        <ele>398</ele>
        <time>2016-07-16T06:23:36Z</time>
      </trkpt>
      <trkpt lat="45.47582" lon="5.73346">
        <ele>399</ele>
        <time>2016-07-16T06:25:36Z</time>
      </trkpt>
      <trkpt lat="45.47583" lon="5.73349">
        <ele>401</ele>
        <time>2016-07-16T06:27:36Z</time>
      </trkpt>
      <trkpt lat="45.47583" lon="5.73351">
        <ele>401</ele>
        <time>2016-07-16T06:29:36Z</time>
      </trkpt>
      <trkpt lat="45.47583" lon="5.73354">
        <ele>402</ele>
        <time>2016-07-16T06:31:36Z</time>
      </trkpt>
      <trkpt lat="45.47583" lon="5.73356">
        <ele>403</ele>
        <time>2016-07-16T06:33:36Z</time>
      </trkpt>
      <trkpt lat="45.47583" lon="5.73358">
        <ele>403</ele>
        <time>2016-07-16T06:35:36Z</time>
      </trkpt>
      <trkpt lat="45.47582" lon="5.73359">
        <ele>403</ele>
        <time>2016-07-16T06:37:36Z</time>
      </trkpt>
      <trkpt lat="45.47582" lon="5.73362">
        <ele>404</ele>
        <time>2016-07-16T06:39:36Z</time>
      </trkpt>
      <trkpt lat="45.47581" lon="5.73365">
        <ele>405</ele>
        <time>2016-07-16T06:41:36Z</time>
      </trkpt>
      <trkpt lat="45.47579" lon="5.73368">
        <ele>405</ele>
        <time>2016-07-16T06:43:36Z</time>
      </trkpt>
      <trkpt lat="45.47577" lon="5.73372">
        <ele>405</ele>
        <time>2016-07-16T06:45:36Z</time>
      </trkpt>
      <trkpt lat="45.47569" lon="5.73387">
        <ele>406</ele>
        <time>2016-07-16T06:47:36Z</time>
      </trkpt>
      <trkpt lat="45.47564" lon="5.73397">
        <ele>407</ele>
        <time>2016-07-16T06:49:36Z</time>
      </trkpt>
      <trkpt lat="45.47559" lon="5.73407">
        <ele>408</ele>
        <time>2016-07-16T06:51:36Z</time>
      </trkpt>
      <trkpt lat="45.47553" lon="5.7342">
        <ele>409</ele>
        <time>2016-07-16T06:53:36Z</time>
      </trkpt>
      <trkpt lat="45.47549" lon="5.73428">
        <ele>410</ele>
        <time>2016-07-16T06:55:36Z</time>
      </trkpt>
      <trkpt lat="45.47546" lon="5.73433">
        <ele>410</ele>
        <time>2016-07-16T06:57:36Z</time>
      </trkpt>
      <trkpt lat="45.47544" lon="5.73438">
        <ele>411</ele>
        <time>2016-07-16T06:59:36Z</time>
      </trkpt>
      <trkpt lat="45.47541" lon="5.73441">
        <ele>411</ele>
        <time>2016-07-16T07:01:36Z</time>
      </trkpt>
      <trkpt lat="45.47539" lon="5.73444">
        <ele>411</ele>
        <time>2016-07-16T07:03:36Z</time>
      </trkpt>
      <trkpt lat="45.47537" lon="5.73446">
        <ele>411</ele>
        <time>2016-07-16T07:05:36Z</time>
      </trkpt>
      <trkpt lat="45.47533" lon="5.7345">
        <ele>412</ele>
        <time>2016-07-16T07:07:36Z</time>
      </trkpt>
      <trkpt lat="45.4753" lon="5.73453">
        <ele>412</ele>
        <time>2016-07-16T07:09:36Z</time>
      </trkpt>
      <trkpt lat="45.47528" lon="5.73455">
        <ele>412</ele>
        <time>2016-07-16T07:11:36Z</time>
      </trkpt>
      <trkpt lat="45.4752" lon="5.73459">
        <ele>412</ele>
        <time>2016-07-16T07:13:36Z</time>
      </trkpt>
      <trkpt lat="45.47516" lon="5.73461">
        <ele>412</ele>
        <time>2016-07-16T07:15:36Z</time>
      </trkpt>
      <trkpt lat="45.47511" lon="5.73463">
        <ele>411</ele>
        <time>2016-07-16T07:17:36Z</time>
      </trkpt>
      <trkpt lat="45.47506" lon="5.73465">
        <ele>411</ele>
        <time>2016-07-16T07:19:36Z</time>
      </trkpt>
      <trkpt lat="45.47499" lon="5.73467">
        <ele>411</ele>
        <time>2016-07-16T07:21:36Z</time>
      </trkpt>
      <trkpt lat="45.47484" lon="5.73474">
        <ele>411</ele>
        <time>2016-07-16T07:23:36Z</time>
      </trkpt>
      <trkpt lat="45.47471" lon="5.7348">
        <ele>410</ele>
        <time>2016-07-16T07:25:36Z</time>
      </trkpt>
      <trkpt lat="45.47453" lon="5.7349">
        <ele>409</ele>
        <time>2016-07-16T07:27:36Z</time>
      </trkpt>
      <trkpt lat="45.47443" lon="5.73495">
        <ele>408</ele>
        <time>2016-07-16T07:29:36Z</time>
      </trkpt>
      <trkpt lat="45.47434" lon="5.735">
        <ele>407</ele>
        <time>2016-07-16T07:31:36Z</time>
      </trkpt>
      <trkpt lat="45.47424" lon="5.73507">
        <ele>405</ele>
        <time>2016-07-16T07:33:36Z</time>
      </trkpt>
      <trkpt lat="45.47416" lon="5.73512">
        <ele>404</ele>
        <time>2016-07-16T07:35:36Z</time>
      </trkpt>
      <trkpt lat="45.47407" lon="5.73519">
        <ele>403</ele>
        <time>2016-07-16T07:37:36Z</time>
      </trkpt>
      <trkpt lat="45.47398" lon="5.73525">
        <ele>401</ele>
        <time>2016-07-16T07:39:36Z</time>
      </trkpt>
      <trkpt lat="45.47387" lon="5.73532">
        <ele>400</ele>
        <time>2016-07-16T07:41:36Z</time>
      </trkpt>
      <trkpt lat="45.47378" lon="5.73537">
        <ele>398</ele>
        <time>2016-07-16T07:43:36Z</time>
      </trkpt>
      <trkpt lat="45.47372" lon="5.7354">
        <ele>397</ele>
        <time>2016-07-16T07:45:36Z</time>
      </trkpt>
      <trkpt lat="45.47365" lon="5.73542">
        <ele>395</ele>
        <time>2016-07-16T07:47:36Z</time>
      </trkpt>
      <trkpt lat="45.47355" lon="5.73545">
        <ele>393</ele>
        <time>2016-07-16T07:49:36Z</time>
      </trkpt>
      <trkpt lat="45.47347" lon="5.73548">
        <ele>391</ele>
        <time>2016-07-16T07:51:36Z</time>
      </trkpt>
      <trkpt lat="45.47342" lon="5.7355">
        <ele>390</ele>
        <time>2016-07-16T07:53:36Z</time>
      </trkpt>
      <trkpt lat="45.47337" lon="5.73553">
        <ele>389</ele>
        <time>2016-07-16T07:55:36Z</time>
      </trkpt>
      <trkpt lat="45.47331" lon="5.73557">
        <ele>389</ele>
        <time>2016-07-16T07:57:36Z</time>
      </trkpt>
      <trkpt lat="45.47327" lon="5.73562">
        <ele>389</ele>
        <time>2016-07-16T07:59:36Z</time>
      </trkpt>
      <trkpt lat="45.47321" lon="5.73569">
        <ele>390</ele>
        <time>2016-07-16T08:01:36Z</time>
      </trkpt>
      <trkpt lat="45.47317" lon="5.73576">
        <ele>390</ele>
        <time>2016-07-16T08:03:36Z</time>
      </trkpt>
      <trkpt lat="45.47315" lon="5.73582">
        <ele>391</ele>
        <time>2016-07-16T08:05:36Z</time>
      </trkpt>
      <trkpt lat="45.47313" lon="5.73588">
        <ele>391</ele>
        <time>2016-07-16T08:07:36Z</time>
      </trkpt>
      <trkpt lat="45.47311" lon="5.73594">
        <ele>390</ele>
        <time>2016-07-16T08:09:36Z</time>
      </trkpt>
      <trkpt lat="45.47308" lon="5.73603">
        <ele>389</ele>
        <time>2016-07-16T08:11:36Z</time>
      </trkpt>
      <trkpt lat="45.47306" lon="5.73616">
        <ele>389</ele>
        <time>2016-07-16T08:13:36Z</time>
      </trkpt>
      <trkpt lat="45.47305" lon="5.73623">
        <ele>388</ele>
        <time>2016-07-16T08:15:36Z</time>
      </trkpt>
      <trkpt lat="45.47304" lon="5.73633">
        <ele>388</ele>
        <time>2016-07-16T08:17:36Z</time>
      </trkpt>
      <trkpt lat="45.47303" lon="5.7364">
        <ele>387</ele>
        <time>2016-07-16T08:19:36Z</time>
      </trkpt>
      <trkpt lat="45.47302" lon="5.73646">
        <ele>387</ele>
        <time>2016-07-16T08:21:36Z</time>
      </trkpt>
      <trkpt lat="45.47301" lon="5.73653">
        <ele>386</ele>
        <time>2016-07-16T08:23:36Z</time>
      </trkpt>
      <trkpt lat="45.473" lon="5.73657">
        <ele>386</ele>
        <time>2016-07-16T08:25:36Z</time>
      </trkpt>
      <trkpt lat="45.47299" lon="5.73662">
        <ele>386</ele>
        <time>2016-07-16T08:27:36Z</time>
      </trkpt>
      <trkpt lat="45.47298" lon="5.73666">
        <ele>385</ele>
        <time>2016-07-16T08:29:36Z</time>
      </trkpt>
      <trkpt lat="45.47296" lon="5.7367">
        <ele>385</ele>
        <time>2016-07-16T08:31:36Z</time>
      </trkpt>
      <trkpt lat="45.47295" lon="5.73673">
        <ele>384</ele>
        <time>2016-07-16T08:33:36Z</time>
      </trkpt>
      <trkpt lat="45.4729" lon="5.73683">
        <ele>383</ele>
        <time>2016-07-16T08:35:36Z</time>
      </trkpt>
      <trkpt lat="45.47285" lon="5.73693">
        <ele>382</ele>
        <time>2016-07-16T08:37:36Z</time>
      </trkpt>
      <trkpt lat="45.47276" lon="5.73712">
        <ele>379</ele>
        <time>2016-07-16T08:39:36Z</time>
      </trkpt>
      <trkpt lat="45.47273" lon="5.73718">
        <ele>378</ele>
        <time>2016-07-16T08:41:36Z</time>
      </trkpt>
      <trkpt lat="45.47272" lon="5.73721">
        <ele>378</ele>
        <time>2016-07-16T08:43:36Z</time>
      </trkpt>
      <trkpt lat="45.47271" lon="5.73724">
        <ele>378</ele>
        <time>2016-07-16T08:45:36Z</time>
      </trkpt>
      <trkpt lat="45.4727" lon="5.7373">
        <ele>377</ele>
        <time>2016-07-16T08:47:36Z</time>
      </trkpt>
      <trkpt lat="45.47269" lon="5.73736">
        <ele>377</ele>
        <time>2016-07-16T08:49:36Z</time>
      </trkpt>
      <trkpt lat="45.47269" lon="5.7374">
        <ele>377</ele>
        <time>2016-07-16T08:51:36Z</time>
      </trkpt>
      <trkpt lat="45.47269" lon="5.73744">
        <ele>377</ele>
        <time>2016-07-16T08:53:36Z</time>
      </trkpt>
      <trkpt lat="45.4727" lon="5.73749">
        <ele>377</ele>
        <time>2016-07-16T08:55:36Z</time>
      </trkpt>
      <trkpt lat="45.47272" lon="5.73761">
        <ele>377</ele>
        <time>2016-07-16T08:57:36Z</time>
      </trkpt>
      <trkpt lat="45.47278" lon="5.73787">
        <ele>378</ele>
        <time>2016-07-16T08:59:36Z</time>
      </trkpt>
      <trkpt lat="45.47279" lon="5.73791">
        <ele>378</ele>
        <time>2016-07-16T09:01:36Z</time>
      </trkpt>
      <trkpt lat="45.4728" lon="5.73796">
        <ele>378</ele>
        <time>2016-07-16T09:03:36Z</time>
      </trkpt>
      <trkpt lat="45.4728" lon="5.73801">
        <ele>378</ele>
        <time>2016-07-16T09:05:36Z</time>
      </trkpt>
      <trkpt lat="45.47281" lon="5.73805">
        <ele>379</ele>
        <time>2016-07-16T09:07:36Z</time>
      </trkpt>
      <trkpt lat="45.47281" lon="5.73809">
        <ele>379</ele>
        <time>2016-07-16T09:09:36Z</time>
      </trkpt>
      <trkpt lat="45.47281" lon="5.73814">
        <ele>379</ele>
        <time>2016-07-16T09:11:36Z</time>
      </trkpt>
      <trkpt lat="45.47281" lon="5.73818">
        <ele>379</ele>
        <time>2016-07-16T09:13:36Z</time>
      </trkpt>
      <trkpt lat="45.4728" lon="5.73821">
        <ele>378</ele>
        <time>2016-07-16T09:15:36Z</time>
      </trkpt>
      <trkpt lat="45.47279" lon="5.73832">
        <ele>378</ele>
        <time>2016-07-16T09:17:36Z</time>
      </trkpt>
      <trkpt lat="45.47277" lon="5.73839">
        <ele>379</ele>
        <time>2016-07-16T09:19:36Z</time>
      </trkpt>
      <trkpt lat="45.47274" lon="5.73848">
        <ele>380</ele>
        <time>2016-07-16T09:21:36Z</time>
      </trkpt>
      <trkpt lat="45.47271" lon="5.73855">
        <ele>381</ele>
        <time>2016-07-16T09:23:36Z</time>
      </trkpt>
      <trkpt lat="45.47269" lon="5.73859">
        <ele>381</ele>
        <time>2016-07-16T09:25:36Z</time>
      </trkpt>
      <trkpt lat="45.47268" lon="5.73863">
        <ele>382</ele>
        <time>2016-07-16T09:27:36Z</time>
      </trkpt>
      <trkpt lat="45.47264" lon="5.7387">
        <ele>383</ele>
        <time>2016-07-16T09:29:36Z</time>
      </trkpt>
      <trkpt lat="45.4726" lon="5.73875">
        <ele>383</ele>
        <time>2016-07-16T09:31:36Z</time>
      </trkpt>
      <trkpt lat="45.47256" lon="5.73881">
        <ele>383</ele>
        <time>2016-07-16T09:33:36Z</time>
      </trkpt>
      <trkpt lat="45.4725" lon="5.73886">
        <ele>383</ele>
        <time>2016-07-16T09:35:36Z</time>
      </trkpt>
      <trkpt lat="45.47247" lon="5.73889">
        <ele>383</ele>
        <time>2016-07-16T09:37:36Z</time>
      </trkpt>
      <trkpt lat="45.47244" lon="5.73891">
        <ele>383</ele>
        <time>2016-07-16T09:39:36Z</time>
      </trkpt>
      <trkpt lat="45.47242" lon="5.73892">
        <ele>383</ele>
        <time>2016-07-16T09:41:36Z</time>
      </trkpt>
      <trkpt lat="45.47237" lon="5.73895">
        <ele>384</ele>
        <time>2016-07-16T09:43:36Z</time>
      </trkpt>
      <trkpt lat="45.47233" lon="5.73896">
        <ele>383</ele>
        <time>2016-07-16T09:45:36Z</time>
      </trkpt>
      <trkpt lat="45.4723" lon="5.73896">
        <ele>383</ele>
        <time>2016-07-16T09:47:36Z</time>
      </trkpt>
      <trkpt lat="45.47226" lon="5.73897">
        <ele>383</ele>
        <time>2016-07-16T09:49:36Z</time>
      </trkpt>
      <trkpt lat="45.47222" lon="5.73897">
        <ele>382</ele>
        <time>2016-07-16T09:51:36Z</time>
      </trkpt>
      <trkpt lat="45.4722" lon="5.73897">
        <ele>382</ele>
        <time>2016-07-16T09:53:36Z</time>
      </trkpt>
      <trkpt lat="45.47216" lon="5.73896">
        <ele>381</ele>
        <time>2016-07-16T09:55:36Z</time>
      </trkpt>
      <trkpt lat="45.47212" lon="5.73895">
        <ele>381</ele>
        <time>2016-07-16T09:57:36Z</time>
      </trkpt>
      <trkpt lat="45.47209" lon="5.73893">
        <ele>380</ele>
        <time>2016-07-16T09:59:36Z</time>
      </trkpt>
      <trkpt lat="45.47205" lon="5.73892">
        <ele>379</ele>
        <time>2016-07-16T10:01:36Z</time>
      </trkpt>
      <trkpt lat="45.47203" lon="5.7389">
        <ele>379</ele>
        <time>2016-07-16T10:03:36Z</time>
      </trkpt>
      <trkpt lat="45.47197" lon="5.73885">
        <ele>378</ele>
        <time>2016-07-16T10:05:36Z</time>
      </trkpt>
      <trkpt lat="45.47194" lon="5.73882">
        <ele>377</ele>
        <time>2016-07-16T10:07:36Z</time>
      </trkpt>
      <trkpt lat="45.47192" lon="5.7388">
        <ele>377</ele>
        <time>2016-07-16T10:09:36Z</time>
      </trkpt>
      <trkpt lat="45.4719" lon="5.73878">
        <ele>376</ele>
        <time>2016-07-16T10:11:36Z</time>
      </trkpt>
      <trkpt lat="45.47188" lon="5.73875">
        <ele>376</ele>
        <time>2016-07-16T10:13:36Z</time>
      </trkpt>
      <trkpt lat="45.47186" lon="5.73871">
        <ele>376</ele>
        <time>2016-07-16T10:15:36Z</time>
      </trkpt>
      <trkpt lat="45.47181" lon="5.73862">
        <ele>375</ele>
        <time>2016-07-16T10:17:36Z</time>
      </trkpt>
      <trkpt lat="45.47176" lon="5.73851">
        <ele>374</ele>
        <time>2016-07-16T10:19:36Z</time>
      </trkpt>
      <trkpt lat="45.47172" lon="5.73844">
        <ele>373</ele>
        <time>2016-07-16T10:21:36Z</time>
      </trkpt>
      <trkpt lat="45.47159" lon="5.73812">
        <ele>374</ele>
        <time>2016-07-16T10:23:36Z</time>
      </trkpt>
      <trkpt lat="45.47154" lon="5.738">
        <ele>375</ele>
        <time>2016-07-16T10:25:36Z</time>
      </trkpt>
      <trkpt lat="45.47149" lon="5.7379">
        <ele>375</ele>
        <time>2016-07-16T10:27:36Z</time>
      </trkpt>
      <trkpt lat="45.47144" lon="5.73782">
        <ele>376</ele>
        <time>2016-07-16T10:29:36Z</time>
      </trkpt>
      <trkpt lat="45.4714" lon="5.73776">
        <ele>376</ele>
        <time>2016-07-16T10:31:36Z</time>
      </trkpt>
      <trkpt lat="45.47137" lon="5.73772">
        <ele>376</ele>
        <time>2016-07-16T10:33:36Z</time>
      </trkpt>
      <trkpt lat="45.47134" lon="5.73768">
        <ele>377</ele>
        <time>2016-07-16T10:35:36Z</time>
      </trkpt>
      <trkpt lat="45.4713" lon="5.73764">
        <ele>377</ele>
        <time>2016-07-16T10:37:36Z</time>
      </trkpt>
      <trkpt lat="45.47124" lon="5.73759">
        <ele>377</ele>
        <time>2016-07-16T10:39:36Z</time>
      </trkpt>
      <trkpt lat="45.47112" lon="5.7375">
        <ele>378</ele>
        <time>2016-07-16T10:41:36Z</time>
      </trkpt>
      <trkpt lat="45.47103" lon="5.73742">
        <ele>378</ele>
        <time>2016-07-16T10:43:36Z</time>
      </trkpt>
      <trkpt lat="45.47056" lon="5.73705">
        <ele>376</ele>
        <time>2016-07-16T10:45:36Z</time>
      </trkpt>
      <trkpt lat="45.47035" lon="5.73688">
        <ele>374</ele>
        <time>2016-07-16T10:47:36Z</time>
      </trkpt>
      <trkpt lat="45.47022" lon="5.73678">
        <ele>372</ele>
        <time>2016-07-16T10:49:36Z</time>
      </trkpt>
      <trkpt lat="45.47011" lon="5.73672">
        <ele>370</ele>
        <time>2016-07-16T10:51:36Z</time>
      </trkpt>
      <trkpt lat="45.46993" lon="5.73661">
        <ele>369</ele>
        <time>2016-07-16T10:53:36Z</time>
      </trkpt>
      <trkpt lat="45.46976" lon="5.73653">
        <ele>370</ele>
        <time>2016-07-16T10:55:36Z</time>
      </trkpt>
      <trkpt lat="45.46957" lon="5.73645">
        <ele>371</ele>
        <time>2016-07-16T10:57:36Z</time>
      </trkpt>
      <trkpt lat="45.46939" lon="5.73638">
        <ele>371</ele>
        <time>2016-07-16T10:59:36Z</time>
      </trkpt>
      <trkpt lat="45.46927" lon="5.73635">
        <ele>371</ele>
        <time>2016-07-16T11:01:36Z</time>
      </trkpt>
      <trkpt lat="45.46915" lon="5.73631">
        <ele>371</ele>
        <time>2016-07-16T11:03:36Z</time>
      </trkpt>
      <trkpt lat="45.46904" lon="5.73629">
        <ele>371</ele>
        <time>2016-07-16T11:05:36Z</time>
      </trkpt>
      <trkpt lat="45.46897" lon="5.73627">
        <ele>371</ele>
        <time>2016-07-16T11:07:36Z</time>
      </trkpt>
      <trkpt lat="45.46889" lon="5.73626">
        <ele>371</ele>
        <time>2016-07-16T11:09:36Z</time>
      </trkpt>
      <trkpt lat="45.46876" lon="5.73624">
        <ele>371</ele>
        <time>2016-07-16T11:11:36Z</time>
      </trkpt>
      <trkpt lat="45.46868" lon="5.73623">
        <ele>372</ele>
        <time>2016-07-16T11:13:36Z</time>
      </trkpt>
      <trkpt lat="45.46858" lon="5.73622">
        <ele>372</ele>
        <time>2016-07-16T11:15:36Z</time>
      </trkpt>
      <trkpt lat="45.46848" lon="5.73621">
        <ele>372</ele>
        <time>2016-07-16T11:17:36Z</time>
      </trkpt>
      <trkpt lat="45.46838" lon="5.73622">
        <ele>373</ele>
        <time>2016-07-16T11:19:36Z</time>
      </trkpt>
      <trkpt lat="45.46828" lon="5.73622">
        <ele>373</ele>
        <time>2016-07-16T11:21:36Z</time>
      </trkpt>
      <trkpt lat="45.46816" lon="5.73623">
        <ele>374</ele>
        <time>2016-07-16T11:23:36Z</time>
      </trkpt>
      <trkpt lat="45.46801" lon="5.73624">
        <ele>374</ele>
        <time>2016-07-16T11:25:36Z</time>
      </trkpt>
      <trkpt lat="45.46779" lon="5.73628">
        <ele>375</ele>
        <time>2016-07-16T11:27:36Z</time>
      </trkpt>
      <trkpt lat="45.46752" lon="5.73632">
        <ele>377</ele>
        <time>2016-07-16T11:29:36Z</time>
      </trkpt>
      <trkpt lat="45.46723" lon="5.73637">
        <ele>378</ele>
        <time>2016-07-16T11:31:36Z</time>
      </trkpt>
      <trkpt lat="45.46693" lon="5.73642">
        <ele>379</ele>
        <time>2016-07-16T11:33:36Z</time>
      </trkpt>
      <trkpt lat="45.46665" lon="5.73647">
        <ele>379</ele>
        <time>2016-07-16T11:35:36Z</time>
      </trkpt>
      <trkpt lat="45.46641" lon="5.73652">
        <ele>378</ele>
        <time>2016-07-16T11:37:36Z</time>
      </trkpt>
      <trkpt lat="45.46591" lon="5.73661">
        <ele>376</ele>
        <time>2016-07-16T11:39:36Z</time>
      </trkpt>
      <trkpt lat="45.46548" lon="5.73669">
        <ele>376</ele>
        <time>2016-07-16T11:41:36Z</time>
      </trkpt>
      <trkpt lat="45.46495" lon="5.7368">
        <ele>375</ele>
        <time>2016-07-16T11:43:36Z</time>
      </trkpt>
      <trkpt lat="45.46482" lon="5.73683">
        <ele>375</ele>
        <time>2016-07-16T11:45:36Z</time>
      </trkpt>
      <trkpt lat="45.4647" lon="5.73685">
        <ele>375</ele>
        <time>2016-07-16T11:47:36Z</time>
      </trkpt>
      <trkpt lat="45.46458" lon="5.73688">
        <ele>375</ele>
        <time>2016-07-16T11:49:36Z</time>
      </trkpt>
      <trkpt lat="45.46449" lon="5.7369">
        <ele>375</ele>
        <time>2016-07-16T11:51:36Z</time>
      </trkpt>
      <trkpt lat="45.46414" lon="5.73696">
        <ele>376</ele>
        <time>2016-07-16T11:53:36Z</time>
      </trkpt>
      <trkpt lat="45.46332" lon="5.73711">
        <ele>378</ele>
        <time>2016-07-16T11:55:36Z</time>
      </trkpt>
      <trkpt lat="45.46297" lon="5.73715">
        <ele>377</ele>
        <time>2016-07-16T11:57:36Z</time>
      </trkpt>
      <trkpt lat="45.46259" lon="5.7372">
        <ele>376</ele>
        <time>2016-07-16T11:59:36Z</time>
      </trkpt>
      <trkpt lat="45.46223" lon="5.73725">
        <ele>378</ele>
        <time>2016-07-16T12:01:36Z</time>
      </trkpt>
      <trkpt lat="45.46178" lon="5.73733">
        <ele>382</ele>
        <time>2016-07-16T12:03:36Z</time>
      </trkpt>
      <trkpt lat="45.46162" lon="5.73735">
        <ele>382</ele>
        <time>2016-07-16T12:05:36Z</time>
      </trkpt>
      <trkpt lat="45.46077" lon="5.7375">
        <ele>381</ele>
        <time>2016-07-16T12:07:36Z</time>
      </trkpt>
      <trkpt lat="45.46051" lon="5.73755">
        <ele>382</ele>
        <time>2016-07-16T12:09:36Z</time>
      </trkpt>
      <trkpt lat="45.46039" lon="5.73757">
        <ele>382</ele>
        <time>2016-07-16T12:11:36Z</time>
      </trkpt>
      <trkpt lat="45.46014" lon="5.7376">
        <ele>382</ele>
        <time>2016-07-16T12:13:36Z</time>
      </trkpt>
      <trkpt lat="45.46007" lon="5.73761">
        <ele>382</ele>
        <time>2016-07-16T12:15:36Z</time>
      </trkpt>
      <trkpt lat="45.45994" lon="5.73763">
        <ele>383</ele>
        <time>2016-07-16T12:17:36Z</time>
      </trkpt>
      <trkpt lat="45.45987" lon="5.73763">
        <ele>383</ele>
        <time>2016-07-16T12:19:36Z</time>
      </trkpt>
      <trkpt lat="45.45984" lon="5.73764">
        <ele>383</ele>
        <time>2016-07-16T12:21:36Z</time>
      </trkpt>
      <trkpt lat="45.45973" lon="5.73764">
        <ele>383</ele>
        <time>2016-07-16T12:23:36Z</time>
      </trkpt>
      <trkpt lat="45.45966" lon="5.73764">
        <ele>383</ele>
        <time>2016-07-16T12:25:36Z</time>
      </trkpt>
      <trkpt lat="45.45958" lon="5.73764">
        <ele>383</ele>
        <time>2016-07-16T12:27:36Z</time>
      </trkpt>
      <trkpt lat="45.4595" lon="5.73763">
        <ele>383</ele>
        <time>2016-07-16T12:29:36Z</time>
      </trkpt>
      <trkpt lat="45.4592" lon="5.7376">
        <ele>382</ele>
        <time>2016-07-16T12:31:36Z</time>
      </trkpt>
      <trkpt lat="45.45913" lon="5.73759">
        <ele>382</ele>
        <time>2016-07-16T12:33:36Z</time>
      </trkpt>
      <trkpt lat="45.45908" lon="5.73758">
        <ele>383</ele>
        <time>2016-07-16T12:35:36Z</time>
      </trkpt>
      <trkpt lat="45.459" lon="5.73756">
        <ele>383</ele>
        <time>2016-07-16T12:37:36Z</time>
      </trkpt>
      <trkpt lat="45.45894" lon="5.73754">
        <ele>383</ele>
        <time>2016-07-16T12:39:36Z</time>
      </trkpt>
      <trkpt lat="45.4589" lon="5.73753">
        <ele>383</ele>
        <time>2016-07-16T12:41:36Z</time>
      </trkpt>
      <trkpt lat="45.45883" lon="5.73751">
        <ele>383</ele>
        <time>2016-07-16T12:43:36Z</time>
      </trkpt>
      <trkpt lat="45.45875" lon="5.73748">
        <ele>383</ele>
        <time>2016-07-16T12:45:36Z</time>
      </trkpt>
      <trkpt lat="45.45863" lon="5.73743">
        <ele>383</ele>
        <time>2016-07-16T12:47:36Z</time>
      </trkpt>
      <trkpt lat="45.45845" lon="5.73734">
        <ele>383</ele>
        <time>2016-07-16T12:49:36Z</time>
      </trkpt>
      <trkpt lat="45.45829" lon="5.73725">
        <ele>382</ele>
        <time>2016-07-16T12:51:36Z</time>
      </trkpt>
      <trkpt lat="45.4582" lon="5.73719">
        <ele>382</ele>
        <time>2016-07-16T12:53:36Z</time>
      </trkpt>
      <trkpt lat="45.45784" lon="5.73697">
        <ele>381</ele>
        <time>2016-07-16T12:55:36Z</time>
      </trkpt>
      <trkpt lat="45.45764" lon="5.73684">
        <ele>380</ele>
        <time>2016-07-16T12:57:36Z</time>
      </trkpt>
      <trkpt lat="45.45708" lon="5.73647">
        <ele>380</ele>
        <time>2016-07-16T12:59:36Z</time>
      </trkpt>
      <trkpt lat="45.45664" lon="5.73619">
        <ele>382</ele>
        <time>2016-07-16T13:01:36Z</time>
      </trkpt>
      <trkpt lat="45.45606" lon="5.73581">
        <ele>383</ele>
        <time>2016-07-16T13:03:36Z</time>
      </trkpt>
      <trkpt lat="45.4559" lon="5.73569">
        <ele>383</ele>
        <time>2016-07-16T13:05:36Z</time>
      </trkpt>
      <trkpt lat="45.45579" lon="5.73563">
        <ele>383</ele>
        <time>2016-07-16T13:07:36Z</time>
      </trkpt>
      <trkpt lat="45.45555" lon="5.73552">
        <ele>385</ele>
        <time>2016-07-16T13:09:36Z</time>
      </trkpt>
      <trkpt lat="45.4554" lon="5.73548">
        <ele>386</ele>
        <time>2016-07-16T13:11:36Z</time>
      </trkpt>
      <trkpt lat="45.45525" lon="5.73545">
        <ele>387</ele>
        <time>2016-07-16T13:13:36Z</time>
      </trkpt>
      <trkpt lat="45.45514" lon="5.73544">
        <ele>388</ele>
        <time>2016-07-16T13:15:36Z</time>
      </trkpt>
      <trkpt lat="45.45499" lon="5.73544">
        <ele>389</ele>
        <time>2016-07-16T13:17:36Z</time>
      </trkpt>
      <trkpt lat="45.45489" lon="5.73545">
        <ele>388</ele>
        <time>2016-07-16T13:19:36Z</time>
      </trkpt>
      <trkpt lat="45.45483" lon="5.73547">
        <ele>388</ele>
        <time>2016-07-16T13:21:36Z</time>
      </trkpt>
      <trkpt lat="45.45467" lon="5.73551">
        <ele>387</ele>
        <time>2016-07-16T13:23:36Z</time>
      </trkpt>
      <trkpt lat="45.4545" lon="5.73556">
        <ele>385</ele>
        <time>2016-07-16T13:25:36Z</time>
      </trkpt>
      <trkpt lat="45.45392" lon="5.73575">
        <ele>381</ele>
        <time>2016-07-16T13:27:36Z</time>
      </trkpt>
      <trkpt lat="45.45322" lon="5.736">
        <ele>374</ele>
        <time>2016-07-16T13:29:36Z</time>
      </trkpt>
      <trkpt lat="45.45272" lon="5.73616">
        <ele>373</ele>
        <time>2016-07-16T13:31:36Z</time>
      </trkpt>
      <trkpt lat="45.45266" lon="5.73618">
        <ele>372</ele>
        <time>2016-07-16T13:33:36Z</time>
      </trkpt>
      <trkpt lat="45.45258" lon="5.73622">
        <ele>372</ele>
        <time>2016-07-16T13:35:36Z</time>
      </trkpt>
      <trkpt lat="45.45196" lon="5.73645">
        <ele>372</ele>
        <time>2016-07-16T13:37:36Z</time>
      </trkpt>
      <trkpt lat="45.45105" lon="5.73678">
        <ele>373</ele>
        <time>2016-07-16T13:39:36Z</time>
      </trkpt>
      <trkpt lat="45.45028" lon="5.73706">
        <ele>373</ele>
        <time>2016-07-16T13:41:36Z</time>
      </trkpt>
      <trkpt lat="45.45005" lon="5.73715">
        <ele>374</ele>
        <time>2016-07-16T13:43:36Z</time>
      </trkpt>
      <trkpt lat="45.45" lon="5.73717">
        <ele>374</ele>
        <time>2016-07-16T13:45:36Z</time>
      </trkpt>
      <trkpt lat="45.44927" lon="5.73745">
        <ele>375</ele>
        <time>2016-07-16T13:47:36Z</time>
      </trkpt>
      <trkpt lat="45.4486" lon="5.73768">
        <ele>378</ele>
        <time>2016-07-16T13:49:36Z</time>
      </trkpt>
      <trkpt lat="45.4483" lon="5.73779">
        <ele>379</ele>
        <time>2016-07-16T13:51:36Z</time>
      </trkpt>
      <trkpt lat="45.44774" lon="5.73801">
        <ele>380</ele>
        <time>2016-07-16T13:53:36Z</time>
      </trkpt>
      <trkpt lat="45.44752" lon="5.73809">
        <ele>381</ele>
        <time>2016-07-16T13:55:36Z</time>
      </trkpt>
      <trkpt lat="45.4468" lon="5.73836">
        <ele>380</ele>
        <time>2016-07-16T13:57:36Z</time>
      </trkpt>
      <trkpt lat="45.44669" lon="5.7384">
        <ele>380</ele>
        <time>2016-07-16T13:59:36Z</time>
      </trkpt>
      <trkpt lat="45.44655" lon="5.73848">
        <ele>380</ele>
        <time>2016-07-16T14:01:36Z</time>
      </trkpt>
      <trkpt lat="45.44652" lon="5.7385">
        <ele>380</ele>
        <time>2016-07-16T14:03:36Z</time>
      </trkpt>
      <trkpt lat="45.44648" lon="5.73852">
        <ele>380</ele>
        <time>2016-07-16T14:05:36Z</time>
      </trkpt>
      <trkpt lat="45.44637" lon="5.73861">
        <ele>380</ele>
        <time>2016-07-16T14:07:36Z</time>
      </trkpt>
      <trkpt lat="45.44628" lon="5.73868">
        <ele>379</ele>
        <time>2016-07-16T14:09:36Z</time>
      </trkpt>
      <trkpt lat="45.4462" lon="5.73877">
        <ele>380</ele>
        <time>2016-07-16T14:11:36Z</time>
      </trkpt>
      <trkpt lat="45.44616" lon="5.73883">
        <ele>380</ele>
        <time>2016-07-16T14:13:36Z</time>
      </trkpt>
      <trkpt lat="45.446" lon="5.73905">
        <ele>380</ele>
        <time>2016-07-16T14:15:36Z</time>
      </trkpt>
      <trkpt lat="45.44533" lon="5.74014">
        <ele>384</ele>
        <time>2016-07-16T14:17:36Z</time>
      </trkpt>
      <trkpt lat="45.44513" lon="5.74046">
        <ele>383</ele>
        <time>2016-07-16T14:19:36Z</time>
      </trkpt>
      <trkpt lat="45.44416" lon="5.742">
        <ele>380</ele>
        <time>2016-07-16T14:21:36Z</time>
      </trkpt>
      <trkpt lat="45.44309" lon="5.74377">
        <ele>382</ele>
        <time>2016-07-16T14:23:36Z</time>
      </trkpt>
      <trkpt lat="45.44303" lon="5.74387">
        <ele>382</ele>
        <time>2016-07-16T14:25:36Z</time>
      </trkpt>
      <trkpt lat="45.44174" lon="5.74593">
        <ele>382</ele>
        <time>2016-07-16T14:27:36Z</time>
      </trkpt>
      <trkpt lat="45.4406" lon="5.74784">
        <ele>383</ele>
        <time>2016-07-16T14:29:36Z</time>
      </trkpt>
      <trkpt lat="45.4405" lon="5.74799">
        <ele>383</ele>
        <time>2016-07-16T14:31:36Z</time>
      </trkpt>
      <trkpt lat="45.43993" lon="5.74896">
        <ele>385</ele>
        <time>2016-07-16T14:33:36Z</time>
      </trkpt>
      <trkpt lat="45.4398" lon="5.74917">
        <ele>386</ele>
        <time>2016-07-16T14:35:36Z</time>
      </trkpt>
      <trkpt lat="45.43937" lon="5.74987">
        <ele>385</ele>
        <time>2016-07-16T14:37:36Z</time>
      </trkpt>
      <trkpt lat="45.43899" lon="5.75049">
        <ele>386</ele>
        <time>2016-07-16T14:39:36Z</time>
      </trkpt>
      <trkpt lat="45.43867" lon="5.75101">
        <ele>387</ele>
        <time>2016-07-16T14:41:36Z</time>
      </trkpt>
      <trkpt lat="45.43856" lon="5.75117">
        <ele>388</ele>
        <time>2016-07-16T14:43:36Z</time>
      </trkpt>
      <trkpt lat="45.43843" lon="5.7514">
        <ele>388</ele>
        <time>2016-07-16T14:45:36Z</time>
      </trkpt>
      <trkpt lat="45.43838" lon="5.75148">
        <ele>388</ele>
        <time>2016-07-16T14:47:36Z</time>
      </trkpt>
      <trkpt lat="45.43834" lon="5.75153">
        <ele>389</ele>
        <time>2016-07-16T14:49:36Z</time>
      </trkpt>
      <trkpt lat="45.43829" lon="5.7516">
        <ele>389</ele>
        <time>2016-07-16T14:51:36Z</time>
      </trkpt>
      <trkpt lat="45.43824" lon="5.75166">
        <ele>389</ele>
        <time>2016-07-16T14:53:36Z</time>
      </trkpt>
      <trkpt lat="45.43819" lon="5.75171">
        <ele>388</ele>
        <time>2016-07-16T14:55:36Z</time>
      </trkpt>
      <trkpt lat="45.43813" lon="5.75178">
        <ele>388</ele>
        <time>2016-07-16T14:57:36Z</time>
      </trkpt>
      <trkpt lat="45.43805" lon="5.75187">
        <ele>388</ele>
        <time>2016-07-16T14:59:36Z</time>
      </trkpt>
      <trkpt lat="45.4379" lon="5.75202">
        <ele>388</ele>
        <time>2016-07-16T15:01:36Z</time>
      </trkpt>
      <trkpt lat="45.43769" lon="5.75224">
        <ele>388</ele>
        <time>2016-07-16T15:03:36Z</time>
      </trkpt>
      <trkpt lat="45.43764" lon="5.75229">
        <ele>388</ele>
        <time>2016-07-16T15:05:36Z</time>
      </trkpt>
      <trkpt lat="45.4376" lon="5.75233">
        <ele>388</ele>
        <time>2016-07-16T15:07:36Z</time>
      </trkpt>
      <trkpt lat="45.43757" lon="5.75236">
        <ele>388</ele>
        <time>2016-07-16T15:09:36Z</time>
      </trkpt>
      <trkpt lat="45.43754" lon="5.75241">
        <ele>388</ele>
        <time>2016-07-16T15:11:36Z</time>
      </trkpt>
      <trkpt lat="45.43751" lon="5.75245">
        <ele>388</ele>
        <time>2016-07-16T15:13:36Z</time>
      </trkpt>
      <trkpt lat="45.43749" lon="5.75249">
        <ele>388</ele>
        <time>2016-07-16T15:15:36Z</time>
      </trkpt>
      <trkpt lat="45.43746" lon="5.75255">
        <ele>388</ele>
        <time>2016-07-16T15:17:36Z</time>
      </trkpt>
      <trkpt lat="45.43745" lon="5.7526">
        <ele>388</ele>
        <time>2016-07-16T15:19:36Z</time>
      </trkpt>
      <trkpt lat="45.43744" lon="5.75264">
        <ele>388</ele>
        <time>2016-07-16T15:21:36Z</time>
      </trkpt>
      <trkpt lat="45.43741" lon="5.75278">
        <ele>389</ele>
        <time>2016-07-16T15:23:36Z</time>
      </trkpt>
      <trkpt lat="45.43734" lon="5.75317">
        <ele>390</ele>
        <time>2016-07-16T15:25:36Z</time>
      </trkpt>
      <trkpt lat="45.43731" lon="5.75329">
        <ele>391</ele>
        <time>2016-07-16T15:27:36Z</time>
      </trkpt>
      <trkpt lat="45.4373" lon="5.75335">
        <ele>391</ele>
        <time>2016-07-16T15:29:36Z</time>
      </trkpt>
      <trkpt lat="45.43729" lon="5.75339">
        <ele>392</ele>
        <time>2016-07-16T15:31:36Z</time>
      </trkpt>
      <trkpt lat="45.43729" lon="5.7534">
        <ele>392</ele>
        <time>2016-07-16T15:33:36Z</time>
      </trkpt>
      <trkpt lat="45.43727" lon="5.75346">
        <ele>393</ele>
        <time>2016-07-16T15:35:36Z</time>
      </trkpt>
      <trkpt lat="45.43726" lon="5.75351">
        <ele>393</ele>
        <time>2016-07-16T15:37:36Z</time>
      </trkpt>
      <trkpt lat="45.43726" lon="5.75351">
        <ele>393</ele>
        <time>2016-07-16T15:39:36Z</time>
      </trkpt>
      <trkpt lat="45.4372" lon="5.75348">
        <ele>393</ele>
        <time>2016-07-16T15:41:36Z</time>
      </trkpt>
      <trkpt lat="45.43715" lon="5.75346">
        <ele>393</ele>
        <time>2016-07-16T15:43:36Z</time>
      </trkpt>
      <trkpt lat="45.43711" lon="5.75344">
        <ele>393</ele>
        <time>2016-07-16T15:45:36Z</time>
      </trkpt>
      <trkpt lat="45.43708" lon="5.75343">
        <ele>392</ele>
        <time>2016-07-16T15:47:36Z</time>
      </trkpt>
      <trkpt lat="45.43705" lon="5.75343">
        <ele>392</ele>
        <time>2016-07-16T15:49:36Z</time>
      </trkpt>
      <trkpt lat="45.437" lon="5.75343">
        <ele>393</ele>
        <time>2016-07-16T15:51:36Z</time>
      </trkpt>
      <trkpt lat="45.43695" lon="5.75345">
        <ele>393</ele>
        <time>2016-07-16T15:53:36Z</time>
      </trkpt>
      <trkpt lat="45.43689" lon="5.75347">
        <ele>393</ele>
        <time>2016-07-16T15:55:36Z</time>
      </trkpt>
      <trkpt lat="45.43684" lon="5.75349">
        <ele>393</ele>
        <time>2016-07-16T15:57:36Z</time>
      </trkpt>
      <trkpt lat="45.43667" lon="5.75356">
        <ele>394</ele>
        <time>2016-07-16T15:59:36Z</time>
      </trkpt>
      <trkpt lat="45.43655" lon="5.7536">
        <ele>394</ele>
        <time>2016-07-16T16:01:36Z</time>
      </trkpt>
      <trkpt lat="45.43645" lon="5.75364">
        <ele>394</ele>
        <time>2016-07-16T16:03:36Z</time>
      </trkpt>
      <trkpt lat="45.43635" lon="5.75367">
        <ele>394</ele>
        <time>2016-07-16T16:05:36Z</time>
      </trkpt>
      <trkpt lat="45.43628" lon="5.7537">
        <ele>394</ele>
        <time>2016-07-16T16:07:36Z</time>
      </trkpt>
      <trkpt lat="45.43626" lon="5.75371">
        <ele>394</ele>
        <time>2016-07-16T16:09:36Z</time>
      </trkpt>
      <trkpt lat="45.43624" lon="5.75372">
        <ele>394</ele>
        <time>2016-07-16T16:11:36Z</time>
      </trkpt>
      <trkpt lat="45.43623" lon="5.75373">
        <ele>395</ele>
        <time>2016-07-16T16:13:36Z</time>
      </trkpt>
      <trkpt lat="45.43622" lon="5.75374">
        <ele>395</ele>
        <time>2016-07-16T16:15:36Z</time>
      </trkpt>
      <trkpt lat="45.43622" lon="5.75375">
        <ele>395</ele>
        <time>2016-07-16T16:17:36Z</time>
      </trkpt>
      <trkpt lat="45.43622" lon="5.75377">
        <ele>395</ele>
        <time>2016-07-16T16:19:36Z</time>
      </trkpt>
      <trkpt lat="45.43621" lon="5.75379">
        <ele>395</ele>
        <time>2016-07-16T16:21:36Z</time>
      </trkpt>
      <trkpt lat="45.43621" lon="5.75381">
        <ele>395</ele>
        <time>2016-07-16T16:23:36Z</time>
      </trkpt>
      <trkpt lat="45.43621" lon="5.75391">
        <ele>396</ele>
        <time>2016-07-16T16:25:36Z</time>
      </trkpt>
      <trkpt lat="45.43623" lon="5.75411">
        <ele>398</ele>
        <time>2016-07-16T16:27:36Z</time>
      </trkpt>
      <trkpt lat="45.43623" lon="5.75411">
        <ele>398</ele>
        <time>2016-07-16T16:29:36Z</time>
      </trkpt>
      <trkpt lat="45.43623" lon="5.7543">
        <ele>398</ele>
        <time>2016-07-16T16:31:36Z</time>
      </trkpt>
      <trkpt lat="45.43623" lon="5.75442">
        <ele>397</ele>
        <time>2016-07-16T16:33:36Z</time>
      </trkpt>
      <trkpt lat="45.43623" lon="5.75455">
        <ele>397</ele>
        <time>2016-07-16T16:35:36Z</time>
      </trkpt>
      <trkpt lat="45.43623" lon="5.75464">
        <ele>397</ele>
        <time>2016-07-16T16:37:36Z</time>
      </trkpt>
      <trkpt lat="45.43623" lon="5.75471">
        <ele>397</ele>
        <time>2016-07-16T16:39:36Z</time>
      </trkpt>
      <trkpt lat="45.43623" lon="5.75477">
        <ele>397</ele>
        <time>2016-07-16T16:41:36Z</time>
      </trkpt>
      <trkpt lat="45.43623" lon="5.75482">
        <ele>397</ele>
        <time>2016-07-16T16:43:36Z</time>
      </trkpt>
      <trkpt lat="45.43624" lon="5.75485">
        <ele>397</ele>
        <time>2016-07-16T16:45:36Z</time>
      </trkpt>
      <trkpt lat="45.43626" lon="5.75491">
        <ele>397</ele>
        <time>2016-07-16T16:47:36Z</time>
      </trkpt>
      <trkpt lat="45.43628" lon="5.75497">
        <ele>397</ele>
        <time>2016-07-16T16:49:36Z</time>
      </trkpt>
      <trkpt lat="45.43631" lon="5.75502">
        <ele>397</ele>
        <time>2016-07-16T16:51:36Z</time>
      </trkpt>
      <trkpt lat="45.43646" lon="5.75529">
        <ele>398</ele>
        <time>2016-07-16T16:53:36Z</time>
      </trkpt>
      <trkpt lat="45.43654" lon="5.75544">
        <ele>398</ele>
        <time>2016-07-16T16:55:36Z</time>
      </trkpt>
      <trkpt lat="45.43665" lon="5.75563">
        <ele>399</ele>
        <time>2016-07-16T16:57:36Z</time>
      </trkpt>
      <trkpt lat="45.43668" lon="5.75568">
        <ele>399</ele>
        <time>2016-07-16T16:59:36Z</time>
      </trkpt>
      <trkpt lat="45.43671" lon="5.75571">
        <ele>399</ele>
        <time>2016-07-16T17:01:36Z</time>
      </trkpt>
      <trkpt lat="45.43672" lon="5.75573">
        <ele>399</ele>
        <time>2016-07-16T17:03:36Z</time>
      </trkpt>
      <trkpt lat="45.43675" lon="5.75576">
        <ele>399</ele>
        <time>2016-07-16T17:05:36Z</time>
      </trkpt>
      <trkpt lat="45.43678" lon="5.7558">
        <ele>399</ele>
        <time>2016-07-16T17:07:36Z</time>
      </trkpt>
      <trkpt lat="45.43692" lon="5.75592">
        <ele>399</ele>
        <time>2016-07-16T17:09:36Z</time>
      </trkpt>
      <trkpt lat="45.43731" lon="5.75621">
        <ele>399</ele>
        <time>2016-07-16T17:11:36Z</time>
      </trkpt>
      <trkpt lat="45.43737" lon="5.75626">
        <ele>399</ele>
        <time>2016-07-16T17:13:36Z</time>
      </trkpt>
      <trkpt lat="45.43751" lon="5.7564">
        <ele>398</ele>
        <time>2016-07-16T17:15:36Z</time>
      </trkpt>
      <trkpt lat="45.43779" lon="5.75661">
        <ele>400</ele>
        <time>2016-07-16T17:17:36Z</time>
      </trkpt>
      <trkpt lat="45.43792" lon="5.75669">
        <ele>400</ele>
        <time>2016-07-16T17:19:36Z</time>
      </trkpt>
      <trkpt lat="45.43808" lon="5.75676">
        <ele>401</ele>
        <time>2016-07-16T17:21:36Z</time>
      </trkpt>
      <trkpt lat="45.43841" lon="5.7569">
        <ele>403</ele>
        <time>2016-07-16T17:23:36Z</time>
      </trkpt>
      <trkpt lat="45.43842" lon="5.75691">
        <ele>403</ele>
        <time>2016-07-16T17:25:36Z</time>
      </trkpt>
      <trkpt lat="45.43854" lon="5.75696">
        <ele>404</ele>
        <time>2016-07-16T17:27:36Z</time>
      </trkpt>
      <trkpt lat="45.43862" lon="5.75701">
        <ele>405</ele>
        <time>2016-07-16T17:29:36Z</time>
      </trkpt>
      <trkpt lat="45.4387" lon="5.75705">
        <ele>405</ele>
        <time>2016-07-16T17:31:36Z</time>
      </trkpt>
      <trkpt lat="45.4387" lon="5.75705">
        <ele>405</ele>
        <time>2016-07-16T17:33:36Z</time>
      </trkpt>
      <trkpt lat="45.43863" lon="5.75723">
        <ele>401</ele>
        <time>2016-07-16T17:35:36Z</time>
      </trkpt>
      <trkpt lat="45.43862" lon="5.75726">
        <ele>401</ele>
        <time>2016-07-16T17:37:36Z</time>
      </trkpt>
      <trkpt lat="45.4386" lon="5.75734">
        <ele>399</ele>
        <time>2016-07-16T17:39:36Z</time>
      </trkpt>
      <trkpt lat="45.43858" lon="5.75743">
        <ele>397</ele>
        <time>2016-07-16T17:41:36Z</time>
      </trkpt>
      <trkpt lat="45.43858" lon="5.75749">
        <ele>397</ele>
        <time>2016-07-16T17:43:36Z</time>
      </trkpt>
      <trkpt lat="45.43857" lon="5.75755">
        <ele>396</ele>
        <time>2016-07-16T17:45:36Z</time>
      </trkpt>
      <trkpt lat="45.43856" lon="5.75765">
        <ele>395</ele>
        <time>2016-07-16T17:47:36Z</time>
      </trkpt>
      <trkpt lat="45.43855" lon="5.75772">
        <ele>395</ele>
        <time>2016-07-16T17:49:36Z</time>
      </trkpt>
      <trkpt lat="45.43856" lon="5.75778">
        <ele>395</ele>
        <time>2016-07-16T17:51:36Z</time>
      </trkpt>
      <trkpt lat="45.43857" lon="5.75784">
        <ele>395</ele>
        <time>2016-07-16T17:53:36Z</time>
      </trkpt>
      <trkpt lat="45.43859" lon="5.75792">
        <ele>394</ele>
        <time>2016-07-16T17:55:36Z</time>
      </trkpt>
      <trkpt lat="45.4386" lon="5.75797">
        <ele>394</ele>
        <time>2016-07-16T17:57:36Z</time>
      </trkpt>
      <trkpt lat="45.43867" lon="5.75825">
        <ele>393</ele>
        <time>2016-07-16T17:59:36Z</time>
      </trkpt>
      <trkpt lat="45.43884" lon="5.75882">
        <ele>393</ele>
        <time>2016-07-16T18:01:36Z</time>
      </trkpt>
      <trkpt lat="45.43902" lon="5.75938">
        <ele>393</ele>
        <time>2016-07-16T18:03:36Z</time>
      </trkpt>
      <trkpt lat="45.43909" lon="5.75962">
        <ele>392</ele>
        <time>2016-07-16T18:05:36Z</time>
      </trkpt>
      <trkpt lat="45.43916" lon="5.75984">
        <ele>392</ele>
        <time>2016-07-16T18:07:36Z</time>
      </trkpt>
      <trkpt lat="45.43921" lon="5.75994">
        <ele>391</ele>
        <time>2016-07-16T18:09:36Z</time>
      </trkpt>
      <trkpt lat="45.43926" lon="5.76004">
        <ele>392</ele>
        <time>2016-07-16T18:11:36Z</time>
      </trkpt>
      <trkpt lat="45.4393" lon="5.76011">
        <ele>392</ele>
        <time>2016-07-16T18:13:36Z</time>
      </trkpt>
      <trkpt lat="45.4394" lon="5.76026">
        <ele>393</ele>
        <time>2016-07-16T18:15:36Z</time>
      </trkpt>
      <trkpt lat="45.43949" lon="5.76039">
        <ele>393</ele>
        <time>2016-07-16T18:17:36Z</time>
      </trkpt>
      <trkpt lat="45.43956" lon="5.76049">
        <ele>393</ele>
        <time>2016-07-16T18:19:36Z</time>
      </trkpt>
      <trkpt lat="45.43961" lon="5.76056">
        <ele>393</ele>
        <time>2016-07-16T18:21:36Z</time>
      </trkpt>
      <trkpt lat="45.43986" lon="5.76091">
        <ele>393</ele>
        <time>2016-07-16T18:23:36Z</time>
      </trkpt>
      <trkpt lat="45.43997" lon="5.76107">
        <ele>393</ele>
        <time>2016-07-16T18:25:36Z</time>
      </trkpt>
      <trkpt lat="45.44008" lon="5.76123">
        <ele>393</ele>
        <time>2016-07-16T18:27:36Z</time>
      </trkpt>
      <trkpt lat="45.44038" lon="5.76169">
        <ele>393</ele>
        <time>2016-07-16T18:29:36Z</time>
      </trkpt>
      <trkpt lat="45.44079" lon="5.76235">
        <ele>394</ele>
        <time>2016-07-16T18:31:36Z</time>
      </trkpt>
      <trkpt lat="45.44096" lon="5.7626">
        <ele>395</ele>
        <time>2016-07-16T18:33:36Z</time>
      </trkpt>
      <trkpt lat="45.44136" lon="5.76317">
        <ele>396</ele>
        <time>2016-07-16T18:35:36Z</time>
      </trkpt>
      <trkpt lat="45.44152" lon="5.76338">
        <ele>396</ele>
        <time>2016-07-16T18:37:36Z</time>
      </trkpt>
      <trkpt lat="45.44172" lon="5.76365">
        <ele>396</ele>
        <time>2016-07-16T18:39:36Z</time>
      </trkpt>
      <trkpt lat="45.4418" lon="5.76377">
        <ele>397</ele>
        <time>2016-07-16T18:41:36Z</time>
      </trkpt>
      <trkpt lat="45.4418" lon="5.76377">
        <ele>397</ele>
        <time>2016-07-16T18:43:36Z</time>
      </trkpt>
      <trkpt lat="45.44179" lon="5.76383">
        <ele>397</ele>
        <time>2016-07-16T18:45:36Z</time>
      </trkpt>
      <trkpt lat="45.44181" lon="5.76388">
        <ele>397</ele>
        <time>2016-07-16T18:47:36Z</time>
      </trkpt>
      <trkpt lat="45.44183" lon="5.76393">
        <ele>397</ele>
        <time>2016-07-16T18:49:36Z</time>
      </trkpt>
      <trkpt lat="45.44191" lon="5.76406">
        <ele>397</ele>
        <time>2016-07-16T18:51:36Z</time>
      </trkpt>
      <trkpt lat="45.44199" lon="5.76416">
        <ele>397</ele>
        <time>2016-07-16T18:53:36Z</time>
      </trkpt>
      <trkpt lat="45.44209" lon="5.7643">
        <ele>398</ele>
        <time>2016-07-16T18:55:36Z</time>
      </trkpt>
      <trkpt lat="45.4422" lon="5.76443">
        <ele>398</ele>
        <time>2016-07-16T18:57:36Z</time>
      </trkpt>
      <trkpt lat="45.44266" lon="5.765">
        <ele>400</ele>
        <time>2016-07-16T18:59:36Z</time>
      </trkpt>
      <trkpt lat="45.44269" lon="5.76503">
        <ele>400</ele>
        <time>2016-07-16T19:01:36Z</time>
      </trkpt>
      <trkpt lat="45.44272" lon="5.76505">
        <ele>400</ele>
        <time>2016-07-16T19:03:36Z</time>
      </trkpt>
      <trkpt lat="45.44276" lon="5.76503">
        <ele>400</ele>
        <time>2016-07-16T19:05:36Z</time>
      </trkpt>
      <trkpt lat="45.44291" lon="5.76523">
        <ele>400</ele>
        <time>2016-07-16T19:07:36Z</time>
      </trkpt>
      <trkpt lat="45.44324" lon="5.76563">
        <ele>401</ele>
        <time>2016-07-16T19:09:36Z</time>
      </trkpt>
      <trkpt lat="45.44331" lon="5.76572">
        <ele>401</ele>
        <time>2016-07-16T19:11:36Z</time>
      </trkpt>
      <trkpt lat="45.44372" lon="5.76608">
        <ele>401</ele>
        <time>2016-07-16T19:13:36Z</time>
      </trkpt>
      <trkpt lat="45.44377" lon="5.76613">
        <ele>402</ele>
        <time>2016-07-16T19:15:36Z</time>
      </trkpt>
      <trkpt lat="45.44381" lon="5.76621">
        <ele>402</ele>
        <time>2016-07-16T19:17:36Z</time>
      </trkpt>
      <trkpt lat="45.44392" lon="5.76649">
        <ele>402</ele>
        <time>2016-07-16T19:19:36Z</time>
      </trkpt>
      <trkpt lat="45.44395" lon="5.76659">
        <ele>403</ele>
        <time>2016-07-16T19:21:36Z</time>
      </trkpt>
      <trkpt lat="45.44398" lon="5.76681">
        <ele>403</ele>
        <time>2016-07-16T19:23:36Z</time>
      </trkpt>
      <trkpt lat="45.44401" lon="5.76702">
        <ele>402</ele>
        <time>2016-07-16T19:25:36Z</time>
      </trkpt>
      <trkpt lat="45.44406" lon="5.76721">
        <ele>402</ele>
        <time>2016-07-16T19:27:36Z</time>
      </trkpt>
      <trkpt lat="45.44415" lon="5.76739">
        <ele>402</ele>
        <time>2016-07-16T19:29:36Z</time>
      </trkpt>
      <trkpt lat="45.4442" lon="5.76748">
        <ele>402</ele>
        <time>2016-07-16T19:31:36Z</time>
      </trkpt>
      <trkpt lat="45.44429" lon="5.7676">
        <ele>402</ele>
        <time>2016-07-16T19:33:36Z</time>
      </trkpt>
      <trkpt lat="45.44437" lon="5.76767">
        <ele>402</ele>
        <time>2016-07-16T19:35:36Z</time>
      </trkpt>
      <trkpt lat="45.44449" lon="5.7678">
        <ele>402</ele>
        <time>2016-07-16T19:37:36Z</time>
      </trkpt>
      <trkpt lat="45.4446" lon="5.76797">
        <ele>401</ele>
        <time>2016-07-16T19:39:36Z</time>
      </trkpt>
      <trkpt lat="45.44465" lon="5.76808">
        <ele>401</ele>
        <time>2016-07-16T19:41:36Z</time>
      </trkpt>
      <trkpt lat="45.4447" lon="5.76826">
        <ele>401</ele>
        <time>2016-07-16T19:43:36Z</time>
      </trkpt>
      <trkpt lat="45.44481" lon="5.7686">
        <ele>400</ele>
        <time>2016-07-16T19:45:36Z</time>
      </trkpt>
      <trkpt lat="45.44492" lon="5.76891">
        <ele>401</ele>
        <time>2016-07-16T19:47:36Z</time>
      </trkpt>
      <trkpt lat="45.44504" lon="5.7692">
        <ele>401</ele>
        <time>2016-07-16T19:49:36Z</time>
      </trkpt>
      <trkpt lat="45.44521" lon="5.76962">
        <ele>403</ele>
        <time>2016-07-16T19:51:36Z</time>
      </trkpt>
      <trkpt lat="45.44533" lon="5.76996">
        <ele>404</ele>
        <time>2016-07-16T19:53:36Z</time>
      </trkpt>
      <trkpt lat="45.44542" lon="5.77026">
        <ele>405</ele>
        <time>2016-07-16T19:55:36Z</time>
      </trkpt>
      <trkpt lat="45.44546" lon="5.77042">
        <ele>405</ele>
        <time>2016-07-16T19:57:36Z</time>
      </trkpt>
      <trkpt lat="45.4455" lon="5.77059">
        <ele>405</ele>
        <time>2016-07-16T19:59:36Z</time>
      </trkpt>
      <trkpt lat="45.4455" lon="5.7707">
        <ele>405</ele>
        <time>2016-07-16T20:01:36Z</time>
      </trkpt>
      <trkpt lat="45.44549" lon="5.77076">
        <ele>405</ele>
        <time>2016-07-16T20:03:36Z</time>
      </trkpt>
      <trkpt lat="45.44548" lon="5.77096">
        <ele>405</ele>
        <time>2016-07-16T20:05:36Z</time>
      </trkpt>
      <trkpt lat="45.44543" lon="5.77122">
        <ele>405</ele>
        <time>2016-07-16T20:07:36Z</time>
      </trkpt>
      <trkpt lat="45.44535" lon="5.77153">
        <ele>404</ele>
        <time>2016-07-16T20:09:36Z</time>
      </trkpt>
      <trkpt lat="45.44524" lon="5.77187">
        <ele>405</ele>
        <time>2016-07-16T20:11:36Z</time>
      </trkpt>
      <trkpt lat="45.44522" lon="5.77194">
        <ele>405</ele>
        <time>2016-07-16T20:13:36Z</time>
      </trkpt>
      <trkpt lat="45.4452" lon="5.772">
        <ele>405</ele>
        <time>2016-07-16T20:15:36Z</time>
      </trkpt>
      <trkpt lat="45.44517" lon="5.77214">
        <ele>405</ele>
        <time>2016-07-16T20:17:36Z</time>
      </trkpt>
      <trkpt lat="45.44517" lon="5.7722">
        <ele>405</ele>
        <time>2016-07-16T20:19:36Z</time>
      </trkpt>
      <trkpt lat="45.44517" lon="5.7724">
        <ele>406</ele>
        <time>2016-07-16T20:21:36Z</time>
      </trkpt>
      <trkpt lat="45.44518" lon="5.77253">
        <ele>406</ele>
        <time>2016-07-16T20:23:36Z</time>
      </trkpt>
      <trkpt lat="45.44528" lon="5.7732">
        <ele>407</ele>
        <time>2016-07-16T20:25:36Z</time>
      </trkpt>
      <trkpt lat="45.44529" lon="5.77333">
        <ele>407</ele>
        <time>2016-07-16T20:27:36Z</time>
      </trkpt>
      <trkpt lat="45.44528" lon="5.77346">
        <ele>407</ele>
        <time>2016-07-16T20:29:36Z</time>
      </trkpt>
      <trkpt lat="45.44515" lon="5.7744">
        <ele>406</ele>
        <time>2016-07-16T20:31:36Z</time>
      </trkpt>
      <trkpt lat="45.44496" lon="5.77561">
        <ele>408</ele>
        <time>2016-07-16T20:33:36Z</time>
      </trkpt>
      <trkpt lat="45.44492" lon="5.77593">
        <ele>408</ele>
        <time>2016-07-16T20:35:36Z</time>
      </trkpt>
      <trkpt lat="45.4449" lon="5.77613">
        <ele>408</ele>
        <time>2016-07-16T20:37:36Z</time>
      </trkpt>
      <trkpt lat="45.44487" lon="5.77656">
        <ele>409</ele>
        <time>2016-07-16T20:39:36Z</time>
      </trkpt>
      <trkpt lat="45.44455" lon="5.77883">
        <ele>412</ele>
        <time>2016-07-16T20:41:36Z</time>
      </trkpt>
      <trkpt lat="45.44448" lon="5.7793">
        <ele>412</ele>
        <time>2016-07-16T20:43:36Z</time>
      </trkpt>
      <trkpt lat="45.44444" lon="5.77951">
        <ele>413</ele>
        <time>2016-07-16T20:45:36Z</time>
      </trkpt>
      <trkpt lat="45.44444" lon="5.77951">
        <ele>413</ele>
        <time>2016-07-16T20:47:36Z</time>
      </trkpt>
      <trkpt lat="45.44435" lon="5.77963">
        <ele>413</ele>
        <time>2016-07-16T20:49:36Z</time>
      </trkpt>
      <trkpt lat="45.44428" lon="5.7797">
        <ele>413</ele>
        <time>2016-07-16T20:51:36Z</time>
      </trkpt>
      <trkpt lat="45.4442" lon="5.77978">
        <ele>413</ele>
        <time>2016-07-16T20:53:36Z</time>
      </trkpt>
      <trkpt lat="45.44413" lon="5.77988">
        <ele>414</ele>
        <time>2016-07-16T20:55:36Z</time>
      </trkpt>
      <trkpt lat="45.4439" lon="5.78022">
        <ele>415</ele>
        <time>2016-07-16T20:57:36Z</time>
      </trkpt>
      <trkpt lat="45.44383" lon="5.78035">
        <ele>415</ele>
        <time>2016-07-16T20:59:36Z</time>
      </trkpt>
      <trkpt lat="45.44376" lon="5.78048">
        <ele>415</ele>
        <time>2016-07-16T21:01:36Z</time>
      </trkpt>
      <trkpt lat="45.4436" lon="5.78075">
        <ele>416</ele>
        <time>2016-07-16T21:03:36Z</time>
      </trkpt>
      <trkpt lat="45.44336" lon="5.78119">
        <ele>416</ele>
        <time>2016-07-16T21:05:36Z</time>
      </trkpt>
      <trkpt lat="45.44321" lon="5.78147">
        <ele>416</ele>
        <time>2016-07-16T21:07:36Z</time>
      </trkpt>
      <trkpt lat="45.44313" lon="5.78164">
        <ele>416</ele>
        <time>2016-07-16T21:09:36Z</time>
      </trkpt>
      <trkpt lat="45.44308" lon="5.78179">
        <ele>417</ele>
        <time>2016-07-16T21:11:36Z</time>
      </trkpt>
      <trkpt lat="45.44304" lon="5.78191">
        <ele>417</ele>
        <time>2016-07-16T21:13:36Z</time>
      </trkpt>
      <trkpt lat="45.443" lon="5.78207">
        <ele>419</ele>
        <time>2016-07-16T21:15:36Z</time>
      </trkpt>
      <trkpt lat="45.44297" lon="5.78223">
        <ele>420</ele>
        <time>2016-07-16T21:17:36Z</time>
      </trkpt>
      <trkpt lat="45.44297" lon="5.78236">
        <ele>421</ele>
        <time>2016-07-16T21:19:36Z</time>
      </trkpt>
      <trkpt lat="45.44297" lon="5.78236">
        <ele>421</ele>
        <time>2016-07-16T21:21:36Z</time>
      </trkpt>
      <trkpt lat="45.44299" lon="5.78236">
        <ele>421</ele>
        <time>2016-07-16T21:23:36Z</time>
      </trkpt>
      <trkpt lat="45.44313" lon="5.78238">
        <ele>422</ele>
        <time>2016-07-16T21:25:36Z</time>
      </trkpt>
      <trkpt lat="45.4433" lon="5.78239">
        <ele>424</ele>
        <time>2016-07-16T21:27:36Z</time>
      </trkpt>
      <trkpt lat="45.4433" lon="5.78239">
        <ele>424</ele>
        <time>2016-07-16T21:29:36Z</time>
      </trkpt>
      <trkpt lat="45.44327" lon="5.78245">
        <ele>424</ele>
        <time>2016-07-16T21:31:36Z</time>
      </trkpt>
      <trkpt lat="45.44324" lon="5.78249">
        <ele>424</ele>
        <time>2016-07-16T21:33:36Z</time>
      </trkpt>
      <trkpt lat="45.44321" lon="5.78257">
        <ele>429</ele>
        <time>2016-07-16T21:35:36Z</time>
      </trkpt>
      <trkpt lat="45.44322" lon="5.78275">
        <ele>440</ele>
        <time>2016-07-16T21:37:36Z</time>
      </trkpt>
      <trkpt lat="45.4432" lon="5.78281">
        <ele>444</ele>
        <time>2016-07-16T21:39:36Z</time>
      </trkpt>
      <trkpt lat="45.44311" lon="5.78288">
        <ele>447</ele>
        <time>2016-07-16T21:41:36Z</time>
      </trkpt>
      <trkpt lat="45.44289" lon="5.78301">
        <ele>453</ele>
        <time>2016-07-16T21:43:36Z</time>
      </trkpt>
      <trkpt lat="45.44265" lon="5.78311">
        <ele>456</ele>
        <time>2016-07-16T21:45:36Z</time>
      </trkpt>
      <trkpt lat="45.44257" lon="5.78317">
        <ele>458</ele>
        <time>2016-07-16T21:47:36Z</time>
      </trkpt>
      <trkpt lat="45.44238" lon="5.78334">
        <ele>465</ele>
        <time>2016-07-16T21:49:36Z</time>
      </trkpt>
      <trkpt lat="45.4423" lon="5.78339">
        <ele>467</ele>
        <time>2016-07-16T21:51:36Z</time>
      </trkpt>
      <trkpt lat="45.44218" lon="5.78345">
        <ele>470</ele>
        <time>2016-07-16T21:53:36Z</time>
      </trkpt>
      <trkpt lat="45.44188" lon="5.78365">
        <ele>480</ele>
        <time>2016-07-16T21:55:36Z</time>
      </trkpt>
      <trkpt lat="45.44174" lon="5.7837">
        <ele>480</ele>
        <time>2016-07-16T21:57:36Z</time>
      </trkpt>
      <trkpt lat="45.44174" lon="5.7837">
        <ele>480</ele>
        <time>2016-07-16T21:59:36Z</time>
      </trkpt>
      <trkpt lat="45.44175" lon="5.78375">
        <ele>484</ele>
        <time>2016-07-16T22:01:36Z</time>
      </trkpt>
      <trkpt lat="45.44176" lon="5.7838">
        <ele>488</ele>
        <time>2016-07-16T22:03:36Z</time>
      </trkpt>
      <trkpt lat="45.44175" lon="5.78383">
        <ele>490</ele>
        <time>2016-07-16T22:05:36Z</time>
      </trkpt>
      <trkpt lat="45.44166" lon="5.78392">
        <ele>494</ele>
        <time>2016-07-16T22:07:36Z</time>
      </trkpt>
      <trkpt lat="45.44157" lon="5.78399">
        <ele>497</ele>
        <time>2016-07-16T22:09:36Z</time>
      </trkpt>
      <trkpt lat="45.44156" lon="5.78401">
        <ele>498</ele>
        <time>2016-07-16T22:11:36Z</time>
      </trkpt>
      <trkpt lat="45.44156" lon="5.78403">
        <ele>500</ele>
        <time>2016-07-16T22:13:36Z</time>
      </trkpt>
      <trkpt lat="45.44157" lon="5.78404">
        <ele>500</ele>
        <time>2016-07-16T22:15:36Z</time>
      </trkpt>
      <trkpt lat="45.44171" lon="5.78406">
        <ele>506</ele>
        <time>2016-07-16T22:17:36Z</time>
      </trkpt>
      <trkpt lat="45.44171" lon="5.78409">
        <ele>508</ele>
        <time>2016-07-16T22:19:36Z</time>
      </trkpt>
      <trkpt lat="45.4417" lon="5.7841">
        <ele>508</ele>
        <time>2016-07-16T22:21:36Z</time>
      </trkpt>
      <trkpt lat="45.44161" lon="5.78412">
        <ele>507</ele>
        <time>2016-07-16T22:23:36Z</time>
      </trkpt>
      <trkpt lat="45.44136" lon="5.78421">
        <ele>502</ele>
        <time>2016-07-16T22:25:36Z</time>
      </trkpt>
      <trkpt lat="45.44132" lon="5.78422">
        <ele>501</ele>
        <time>2016-07-16T22:27:36Z</time>
      </trkpt>
      <trkpt lat="45.44131" lon="5.78424">
        <ele>501</ele>
        <time>2016-07-16T22:29:36Z</time>
      </trkpt>
      <trkpt lat="45.44124" lon="5.78429">
        <ele>500</ele>
        <time>2016-07-16T22:31:36Z</time>
      </trkpt>
      <trkpt lat="45.44119" lon="5.78431">
        <ele>499</ele>
        <time>2016-07-16T22:33:36Z</time>
      </trkpt>
      <trkpt lat="45.44119" lon="5.78432">
        <ele>499</ele>
        <time>2016-07-16T22:35:36Z</time>
      </trkpt>
      <trkpt lat="45.44119" lon="5.78434">
        <ele>500</ele>
        <time>2016-07-16T22:37:36Z</time>
      </trkpt>
      <trkpt lat="45.44125" lon="5.78435">
        <ele>503</ele>
        <time>2016-07-16T22:39:36Z</time>
      </trkpt>
      <trkpt lat="45.44127" lon="5.78436">
        <ele>504</ele>
        <time>2016-07-16T22:41:36Z</time>
      </trkpt>
      <trkpt lat="45.44127" lon="5.78437">
        <ele>504</ele>
        <time>2016-07-16T22:43:36Z</time>
      </trkpt>
      <trkpt lat="45.44124" lon="5.78444">
        <ele>506</ele>
        <time>2016-07-16T22:45:36Z</time>
      </trkpt>
      <trkpt lat="45.44117" lon="5.78455">
        <ele>507</ele>
        <time>2016-07-16T22:47:36Z</time>
      </trkpt>
      <trkpt lat="45.44117" lon="5.78457">
        <ele>508</ele>
        <time>2016-07-16T22:49:36Z</time>
      </trkpt>
      <trkpt lat="45.44118" lon="5.78458">
        <ele>509</ele>
        <time>2016-07-16T22:51:36Z</time>
      </trkpt>
      <trkpt lat="45.44122" lon="5.78459">
        <ele>511</ele>
        <time>2016-07-16T22:53:36Z</time>
      </trkpt>
      <trkpt lat="45.44123" lon="5.78462">
        <ele>512</ele>
        <time>2016-07-16T22:55:36Z</time>
      </trkpt>
      <trkpt lat="45.44123" lon="5.78465">
        <ele>513</ele>
        <time>2016-07-16T22:57:36Z</time>
      </trkpt>
      <trkpt lat="45.44112" lon="5.78507">
        <ele>525</ele>
        <time>2016-07-16T22:59:36Z</time>
      </trkpt>
      <trkpt lat="45.44106" lon="5.78528">
        <ele>533</ele>
        <time>2016-07-16T23:01:36Z</time>
      </trkpt>
      <trkpt lat="45.44098" lon="5.78548">
        <ele>540</ele>
        <time>2016-07-16T23:03:36Z</time>
      </trkpt>
      <trkpt lat="45.44086" lon="5.78569">
        <ele>548</ele>
        <time>2016-07-16T23:05:36Z</time>
      </trkpt>
      <trkpt lat="45.44073" lon="5.78583">
        <ele>547</ele>
        <time>2016-07-16T23:07:36Z</time>
      </trkpt>
      <trkpt lat="45.44059" lon="5.78596">
        <ele>538</ele>
        <time>2016-07-16T23:09:36Z</time>
      </trkpt>
      <trkpt lat="45.44054" lon="5.78602">
        <ele>536</ele>
        <time>2016-07-16T23:11:36Z</time>
      </trkpt>
      <trkpt lat="45.4403" lon="5.78627">
        <ele>525</ele>
        <time>2016-07-16T23:13:36Z</time>
      </trkpt>
      <trkpt lat="45.44012" lon="5.78643">
        <ele>518</ele>
        <time>2016-07-16T23:15:36Z</time>
      </trkpt>
      <trkpt lat="45.43999" lon="5.78657">
        <ele>515</ele>
        <time>2016-07-16T23:17:36Z</time>
      </trkpt>
      <trkpt lat="45.43993" lon="5.78664">
        <ele>516</ele>
        <time>2016-07-16T23:19:36Z</time>
      </trkpt>
      <trkpt lat="45.4399" lon="5.7867">
        <ele>517</ele>
        <time>2016-07-16T23:21:36Z</time>
      </trkpt>
      <trkpt lat="45.43987" lon="5.78676">
        <ele>517</ele>
        <time>2016-07-16T23:23:36Z</time>
      </trkpt>
      <trkpt lat="45.43983" lon="5.78684">
        <ele>517</ele>
        <time>2016-07-16T23:25:36Z</time>
      </trkpt>
      <trkpt lat="45.43979" lon="5.78691">
        <ele>517</ele>
        <time>2016-07-16T23:27:36Z</time>
      </trkpt>
      <trkpt lat="45.43978" lon="5.78697">
        <ele>517</ele>
        <time>2016-07-16T23:29:36Z</time>
      </trkpt>
      <trkpt lat="45.43976" lon="5.78703">
        <ele>518</ele>
        <time>2016-07-16T23:31:36Z</time>
      </trkpt>
      <trkpt lat="45.43976" lon="5.78711">
        <ele>519</ele>
        <time>2016-07-16T23:33:36Z</time>
      </trkpt>
      <trkpt lat="45.43978" lon="5.78717">
        <ele>521</ele>
        <time>2016-07-16T23:35:36Z</time>
      </trkpt>
      <trkpt lat="45.43982" lon="5.78725">
        <ele>524</ele>
        <time>2016-07-16T23:37:36Z</time>
      </trkpt>
      <trkpt lat="45.43989" lon="5.78735">
        <ele>529</ele>
        <time>2016-07-16T23:39:36Z</time>
      </trkpt>
      <trkpt lat="45.43999" lon="5.78753">
        <ele>535</ele>
        <time>2016-07-16T23:41:36Z</time>
      </trkpt>
      <trkpt lat="45.44002" lon="5.78757">
        <ele>536</ele>
        <time>2016-07-16T23:43:36Z</time>
      </trkpt>
      <trkpt lat="45.44004" lon="5.78758">
        <ele>537</ele>
        <time>2016-07-16T23:45:36Z</time>
      </trkpt>
      <trkpt lat="45.44022" lon="5.78767">
        <ele>545</ele>
        <time>2016-07-16T23:47:36Z</time>
      </trkpt>
      <trkpt lat="45.44028" lon="5.78771">
        <ele>548</ele>
        <time>2016-07-16T23:49:36Z</time>
      </trkpt>
      <trkpt lat="45.44031" lon="5.78776">
        <ele>549</ele>
        <time>2016-07-16T23:51:36Z</time>
      </trkpt>
      <trkpt lat="45.44033" lon="5.78782">
        <ele>549</ele>
        <time>2016-07-16T23:53:36Z</time>
      </trkpt>
      <trkpt lat="45.44035" lon="5.78788">
        <ele>550</ele>
        <time>2016-07-16T23:55:36Z</time>
      </trkpt>
      <trkpt lat="45.44035" lon="5.78795">
        <ele>549</ele>
        <time>2016-07-16T23:57:36Z</time>
      </trkpt>
      <trkpt lat="45.44039" lon="5.78803">
        <ele>550</ele>
        <time>2016-07-16T23:59:36Z</time>
      </trkpt>
      <trkpt lat="45.44059" lon="5.78822">
        <ele>559</ele>
        <time>2016-07-17T00:01:36Z</time>
      </trkpt>
      <trkpt lat="45.44063" lon="5.7883">
        <ele>561</ele>
        <time>2016-07-17T00:03:36Z</time>
      </trkpt>
      <trkpt lat="45.44074" lon="5.78863">
        <ele>561</ele>
        <time>2016-07-17T00:05:36Z</time>
      </trkpt>
      <trkpt lat="45.44077" lon="5.7887">
        <ele>561</ele>
        <time>2016-07-17T00:07:36Z</time>
      </trkpt>
      <trkpt lat="45.44079" lon="5.78873">
        <ele>562</ele>
        <time>2016-07-17T00:09:36Z</time>
      </trkpt>
      <trkpt lat="45.44087" lon="5.78877">
        <ele>566</ele>
        <time>2016-07-17T00:11:36Z</time>
      </trkpt>
      <trkpt lat="45.44107" lon="5.78892">
        <ele>568</ele>
        <time>2016-07-17T00:13:36Z</time>
      </trkpt>
      <trkpt lat="45.44117" lon="5.78895">
        <ele>570</ele>
        <time>2016-07-17T00:15:36Z</time>
      </trkpt>
      <trkpt lat="45.44125" lon="5.78895">
        <ele>572</ele>
        <time>2016-07-17T00:17:36Z</time>
      </trkpt>
      <trkpt lat="45.44132" lon="5.78893">
        <ele>574</ele>
        <time>2016-07-17T00:19:36Z</time>
      </trkpt>
      <trkpt lat="45.44132" lon="5.78893">
        <ele>574</ele>
        <time>2016-07-17T00:21:36Z</time>
      </trkpt>
      <trkpt lat="45.44133" lon="5.78912">
        <ele>573</ele>
        <time>2016-07-17T00:23:36Z</time>
      </trkpt>
      <trkpt lat="45.44133" lon="5.78932">
        <ele>569</ele>
        <time>2016-07-17T00:25:36Z</time>
      </trkpt>
      <trkpt lat="45.44136" lon="5.78946">
        <ele>567</ele>
        <time>2016-07-17T00:27:36Z</time>
      </trkpt>
      <trkpt lat="45.44141" lon="5.78956">
        <ele>567</ele>
        <time>2016-07-17T00:29:36Z</time>
      </trkpt>
      <trkpt lat="45.44155" lon="5.78971">
        <ele>571</ele>
        <time>2016-07-17T00:31:36Z</time>
      </trkpt>
      <trkpt lat="45.44162" lon="5.7898">
        <ele>573</ele>
        <time>2016-07-17T00:33:36Z</time>
      </trkpt>
      <trkpt lat="45.44167" lon="5.78994">
        <ele>574</ele>
        <time>2016-07-17T00:35:36Z</time>
      </trkpt>
      <trkpt lat="45.44168" lon="5.79002">
        <ele>573</ele>
        <time>2016-07-17T00:37:36Z</time>
      </trkpt>
      <trkpt lat="45.4417" lon="5.79011">
        <ele>572</ele>
        <time>2016-07-17T00:39:36Z</time>
      </trkpt>
      <trkpt lat="45.44171" lon="5.79017">
        <ele>571</ele>
        <time>2016-07-17T00:41:36Z</time>
      </trkpt>
      <trkpt lat="45.44177" lon="5.79028">
        <ele>570</ele>
        <time>2016-07-17T00:43:36Z</time>
      </trkpt>
      <trkpt lat="45.4419" lon="5.7905">
        <ele>569</ele>
        <time>2016-07-17T00:45:36Z</time>
      </trkpt>
      <trkpt lat="45.44198" lon="5.79059">
        <ele>569</ele>
        <time>2016-07-17T00:47:36Z</time>
      </trkpt>
      <trkpt lat="45.44204" lon="5.79063">
        <ele>570</ele>
        <time>2016-07-17T00:49:36Z</time>
      </trkpt>
      <trkpt lat="45.44214" lon="5.79063">
        <ele>572</ele>
        <time>2016-07-17T00:51:36Z</time>
      </trkpt>
      <trkpt lat="45.44223" lon="5.79066">
        <ele>574</ele>
        <time>2016-07-17T00:53:36Z</time>
      </trkpt>
      <trkpt lat="45.44235" lon="5.79076">
        <ele>575</ele>
        <time>2016-07-17T00:55:36Z</time>
      </trkpt>
      <trkpt lat="45.44246" lon="5.79093">
        <ele>576</ele>
        <time>2016-07-17T00:57:36Z</time>
      </trkpt>
      <trkpt lat="45.44253" lon="5.791">
        <ele>576</ele>
        <time>2016-07-17T00:59:36Z</time>
      </trkpt>
      <trkpt lat="45.44262" lon="5.79105">
        <ele>577</ele>
        <time>2016-07-17T01:01:36Z</time>
      </trkpt>
      <trkpt lat="45.4427" lon="5.7911">
        <ele>577</ele>
        <time>2016-07-17T01:03:36Z</time>
      </trkpt>
      <trkpt lat="45.44271" lon="5.79111">
        <ele>577</ele>
        <time>2016-07-17T01:05:36Z</time>
      </trkpt>
      <trkpt lat="45.44277" lon="5.79112">
        <ele>577</ele>
        <time>2016-07-17T01:07:36Z</time>
      </trkpt>
      <trkpt lat="45.44284" lon="5.79117">
        <ele>577</ele>
        <time>2016-07-17T01:09:36Z</time>
      </trkpt>
      <trkpt lat="45.443" lon="5.79138">
        <ele>577</ele>
        <time>2016-07-17T01:11:36Z</time>
      </trkpt>
      <trkpt lat="45.4431" lon="5.79154">
        <ele>576</ele>
        <time>2016-07-17T01:13:36Z</time>
      </trkpt>
      <trkpt lat="45.44316" lon="5.79159">
        <ele>576</ele>
        <time>2016-07-17T01:15:36Z</time>
      </trkpt>
      <trkpt lat="45.44327" lon="5.79164">
        <ele>577</ele>
        <time>2016-07-17T01:17:36Z</time>
      </trkpt>
      <trkpt lat="45.4436" lon="5.79177">
        <ele>579</ele>
        <time>2016-07-17T01:19:36Z</time>
      </trkpt>
      <trkpt lat="45.44366" lon="5.79181">
        <ele>579</ele>
        <time>2016-07-17T01:21:36Z</time>
      </trkpt>
      <trkpt lat="45.44371" lon="5.79185">
        <ele>580</ele>
        <time>2016-07-17T01:23:36Z</time>
      </trkpt>
      <trkpt lat="45.44375" lon="5.79191">
        <ele>580</ele>
        <time>2016-07-17T01:25:36Z</time>
      </trkpt>
      <trkpt lat="45.44379" lon="5.79198">
        <ele>579</ele>
        <time>2016-07-17T01:27:36Z</time>
      </trkpt>
      <trkpt lat="45.44382" lon="5.79205">
        <ele>579</ele>
        <time>2016-07-17T01:29:36Z</time>
      </trkpt>
      <trkpt lat="45.44385" lon="5.79213">
        <ele>579</ele>
        <time>2016-07-17T01:31:36Z</time>
      </trkpt>
      <trkpt lat="45.44387" lon="5.79223">
        <ele>579</ele>
        <time>2016-07-17T01:33:36Z</time>
      </trkpt>
      <trkpt lat="45.44387" lon="5.79232">
        <ele>578</ele>
        <time>2016-07-17T01:35:36Z</time>
      </trkpt>
      <trkpt lat="45.44383" lon="5.79261">
        <ele>576</ele>
        <time>2016-07-17T01:37:36Z</time>
      </trkpt>
      <trkpt lat="45.4438" lon="5.79277">
        <ele>575</ele>
        <time>2016-07-17T01:39:36Z</time>
      </trkpt>
      <trkpt lat="45.44383" lon="5.79298">
        <ele>575</ele>
        <time>2016-07-17T01:41:36Z</time>
      </trkpt>
      <trkpt lat="45.44387" lon="5.79305">
        <ele>574</ele>
        <time>2016-07-17T01:43:36Z</time>
      </trkpt>
      <trkpt lat="45.44396" lon="5.79314">
        <ele>575</ele>
        <time>2016-07-17T01:45:36Z</time>
      </trkpt>
      <trkpt lat="45.44405" lon="5.79318">
        <ele>575</ele>
        <time>2016-07-17T01:47:36Z</time>
      </trkpt>
      <trkpt lat="45.44416" lon="5.7932">
        <ele>576</ele>
        <time>2016-07-17T01:49:36Z</time>
      </trkpt>
      <trkpt lat="45.44424" lon="5.79319">
        <ele>576</ele>
        <time>2016-07-17T01:51:36Z</time>
      </trkpt>
      <trkpt lat="45.44432" lon="5.79316">
        <ele>576</ele>
        <time>2016-07-17T01:53:36Z</time>
      </trkpt>
      <trkpt lat="45.44439" lon="5.79315">
        <ele>576</ele>
        <time>2016-07-17T01:55:36Z</time>
      </trkpt>
      <trkpt lat="45.44442" lon="5.79318">
        <ele>576</ele>
        <time>2016-07-17T01:57:36Z</time>
      </trkpt>
      <trkpt lat="45.44451" lon="5.79343">
        <ele>575</ele>
        <time>2016-07-17T01:59:36Z</time>
      </trkpt>
      <trkpt lat="45.44457" lon="5.7935">
        <ele>575</ele>
        <time>2016-07-17T02:01:36Z</time>
      </trkpt>
      <trkpt lat="45.44481" lon="5.79358">
        <ele>575</ele>
        <time>2016-07-17T02:03:36Z</time>
      </trkpt>
      <trkpt lat="45.44489" lon="5.79361">
        <ele>575</ele>
        <time>2016-07-17T02:05:36Z</time>
      </trkpt>
      <trkpt lat="45.44514" lon="5.79368">
        <ele>574</ele>
        <time>2016-07-17T02:07:36Z</time>
      </trkpt>
      <trkpt lat="45.44525" lon="5.79372">
        <ele>574</ele>
        <time>2016-07-17T02:09:36Z</time>
      </trkpt>
      <trkpt lat="45.44531" lon="5.79375">
        <ele>573</ele>
        <time>2016-07-17T02:11:36Z</time>
      </trkpt>
      <trkpt lat="45.44535" lon="5.79383">
        <ele>573</ele>
        <time>2016-07-17T02:13:36Z</time>
      </trkpt>
      <trkpt lat="45.44537" lon="5.79395">
        <ele>573</ele>
        <time>2016-07-17T02:15:36Z</time>
      </trkpt>
      <trkpt lat="45.44536" lon="5.79418">
        <ele>572</ele>
        <time>2016-07-17T02:17:36Z</time>
      </trkpt>
      <trkpt lat="45.44537" lon="5.79433">
        <ele>572</ele>
        <time>2016-07-17T02:19:36Z</time>
      </trkpt>
      <trkpt lat="45.4454" lon="5.79446">
        <ele>572</ele>
        <time>2016-07-17T02:21:36Z</time>
      </trkpt>
      <trkpt lat="45.44559" lon="5.79471">
        <ele>571</ele>
        <time>2016-07-17T02:23:36Z</time>
      </trkpt>
      <trkpt lat="45.44564" lon="5.79475">
        <ele>570</ele>
        <time>2016-07-17T02:25:36Z</time>
      </trkpt>
      <trkpt lat="45.44572" lon="5.79479">
        <ele>570</ele>
        <time>2016-07-17T02:27:36Z</time>
      </trkpt>
      <trkpt lat="45.44588" lon="5.79481">
        <ele>569</ele>
        <time>2016-07-17T02:29:36Z</time>
      </trkpt>
      <trkpt lat="45.44597" lon="5.79483">
        <ele>569</ele>
        <time>2016-07-17T02:31:36Z</time>
      </trkpt>
      <trkpt lat="45.44601" lon="5.79485">
        <ele>569</ele>
        <time>2016-07-17T02:33:36Z</time>
      </trkpt>
      <trkpt lat="45.44605" lon="5.79487">
        <ele>569</ele>
        <time>2016-07-17T02:35:36Z</time>
      </trkpt>
      <trkpt lat="45.44613" lon="5.79495">
        <ele>569</ele>
        <time>2016-07-17T02:37:36Z</time>
      </trkpt>
      <trkpt lat="45.44621" lon="5.79505">
        <ele>569</ele>
        <time>2016-07-17T02:39:36Z</time>
      </trkpt>
      <trkpt lat="45.44625" lon="5.79515">
        <ele>570</ele>
        <time>2016-07-17T02:41:36Z</time>
      </trkpt>
      <trkpt lat="45.4463" lon="5.79527">
        <ele>571</ele>
        <time>2016-07-17T02:43:36Z</time>
      </trkpt>
      <trkpt lat="45.44634" lon="5.79539">
        <ele>573</ele>
        <time>2016-07-17T02:45:36Z</time>
      </trkpt>
      <trkpt lat="45.4464" lon="5.79549">
        <ele>573</ele>
        <time>2016-07-17T02:47:36Z</time>
      </trkpt>
      <trkpt lat="45.44646" lon="5.79557">
        <ele>573</ele>
        <time>2016-07-17T02:49:36Z</time>
      </trkpt>
      <trkpt lat="45.44654" lon="5.79566">
        <ele>573</ele>
        <time>2016-07-17T02:51:36Z</time>
      </trkpt>
      <trkpt lat="45.44662" lon="5.79575">
        <ele>573</ele>
        <time>2016-07-17T02:53:36Z</time>
      </trkpt>
      <trkpt lat="45.44668" lon="5.79585">
        <ele>573</ele>
        <time>2016-07-17T02:55:36Z</time>
      </trkpt>
      <trkpt lat="45.44677" lon="5.796">
        <ele>576</ele>
        <time>2016-07-17T02:57:36Z</time>
      </trkpt>
      <trkpt lat="45.44685" lon="5.79614">
        <ele>578</ele>
        <time>2016-07-17T02:59:36Z</time>
      </trkpt>
      <trkpt lat="45.44702" lon="5.79637">
        <ele>580</ele>
        <time>2016-07-17T03:01:36Z</time>
      </trkpt>
      <trkpt lat="45.44706" lon="5.7964">
        <ele>580</ele>
        <time>2016-07-17T03:03:36Z</time>
      </trkpt>
      <trkpt lat="45.44712" lon="5.79647">
        <ele>581</ele>
        <time>2016-07-17T03:05:36Z</time>
      </trkpt>
      <trkpt lat="45.44728" lon="5.7966">
        <ele>581</ele>
        <time>2016-07-17T03:07:36Z</time>
      </trkpt>
      <trkpt lat="45.44752" lon="5.79676">
        <ele>579</ele>
        <time>2016-07-17T03:09:36Z</time>
      </trkpt>
      <trkpt lat="45.44763" lon="5.79686">
        <ele>579</ele>
        <time>2016-07-17T03:11:36Z</time>
      </trkpt>
      <trkpt lat="45.44777" lon="5.79701">
        <ele>579</ele>
        <time>2016-07-17T03:13:36Z</time>
      </trkpt>
      <trkpt lat="45.44787" lon="5.79719">
        <ele>579</ele>
        <time>2016-07-17T03:15:36Z</time>
      </trkpt>
      <trkpt lat="45.44792" lon="5.79736">
        <ele>579</ele>
        <time>2016-07-17T03:17:36Z</time>
      </trkpt>
      <trkpt lat="45.44794" lon="5.79742">
        <ele>579</ele>
        <time>2016-07-17T03:19:36Z</time>
      </trkpt>
      <trkpt lat="45.44796" lon="5.79755">
        <ele>580</ele>
        <time>2016-07-17T03:21:36Z</time>
      </trkpt>
      <trkpt lat="45.44801" lon="5.79778">
        <ele>583</ele>
        <time>2016-07-17T03:23:36Z</time>
      </trkpt>
      <trkpt lat="45.44803" lon="5.79786">
        <ele>583</ele>
        <time>2016-07-17T03:25:36Z</time>
      </trkpt>
      <trkpt lat="45.44807" lon="5.79793">
        <ele>584</ele>
        <time>2016-07-17T03:27:36Z</time>
      </trkpt>
      <trkpt lat="45.44814" lon="5.79797">
        <ele>583</ele>
        <time>2016-07-17T03:29:36Z</time>
      </trkpt>
      <trkpt lat="45.44833" lon="5.79811">
        <ele>581</ele>
        <time>2016-07-17T03:31:36Z</time>
      </trkpt>
      <trkpt lat="45.4484" lon="5.79815">
        <ele>581</ele>
        <time>2016-07-17T03:33:36Z</time>
      </trkpt>
      <trkpt lat="45.44852" lon="5.79826">
        <ele>581</ele>
        <time>2016-07-17T03:35:36Z</time>
      </trkpt>
      <trkpt lat="45.4486" lon="5.7984">
        <ele>582</ele>
        <time>2016-07-17T03:37:36Z</time>
      </trkpt>
      <trkpt lat="45.44878" lon="5.79863">
        <ele>583</ele>
        <time>2016-07-17T03:39:36Z</time>
      </trkpt>
      <trkpt lat="45.44886" lon="5.79882">
        <ele>584</ele>
        <time>2016-07-17T03:41:36Z</time>
      </trkpt>
      <trkpt lat="45.44892" lon="5.79891">
        <ele>584</ele>
        <time>2016-07-17T03:43:36Z</time>
      </trkpt>
      <trkpt lat="45.44899" lon="5.79909">
        <ele>584</ele>
        <time>2016-07-17T03:45:36Z</time>
      </trkpt>
      <trkpt lat="45.44903" lon="5.79922">
        <ele>585</ele>
        <time>2016-07-17T03:47:36Z</time>
      </trkpt>
      <trkpt lat="45.44905" lon="5.79928">
        <ele>586</ele>
        <time>2016-07-17T03:49:36Z</time>
      </trkpt>
      <trkpt lat="45.44916" lon="5.79952">
        <ele>588</ele>
        <time>2016-07-17T03:51:36Z</time>
      </trkpt>
      <trkpt lat="45.44927" lon="5.79973">
        <ele>590</ele>
        <time>2016-07-17T03:53:36Z</time>
      </trkpt>
      <trkpt lat="45.44939" lon="5.79987">
        <ele>590</ele>
        <time>2016-07-17T03:55:36Z</time>
      </trkpt>
      <trkpt lat="45.44949" lon="5.8">
        <ele>588</ele>
        <time>2016-07-17T03:57:36Z</time>
      </trkpt>
      <trkpt lat="45.44953" lon="5.80007">
        <ele>587</ele>
        <time>2016-07-17T03:59:36Z</time>
      </trkpt>
      <trkpt lat="45.44956" lon="5.80015">
        <ele>587</ele>
        <time>2016-07-17T04:01:36Z</time>
      </trkpt>
      <trkpt lat="45.44962" lon="5.80036">
        <ele>585</ele>
        <time>2016-07-17T04:03:36Z</time>
      </trkpt>
      <trkpt lat="45.44967" lon="5.80065">
        <ele>584</ele>
        <time>2016-07-17T04:05:36Z</time>
      </trkpt>
      <trkpt lat="45.44972" lon="5.80084">
        <ele>583</ele>
        <time>2016-07-17T04:07:36Z</time>
      </trkpt>
      <trkpt lat="45.44977" lon="5.8011">
        <ele>584</ele>
        <time>2016-07-17T04:09:36Z</time>
      </trkpt>
      <trkpt lat="45.44982" lon="5.80115">
        <ele>582</ele>
        <time>2016-07-17T04:11:36Z</time>
      </trkpt>
      <trkpt lat="45.44987" lon="5.80118">
        <ele>580</ele>
        <time>2016-07-17T04:13:36Z</time>
      </trkpt>
      <trkpt lat="45.44992" lon="5.8012">
        <ele>578</ele>
        <time>2016-07-17T04:15:36Z</time>
      </trkpt>
      <trkpt lat="45.44997" lon="5.80118">
        <ele>576</ele>
        <time>2016-07-17T04:17:36Z</time>
      </trkpt>
      <trkpt lat="45.45002" lon="5.80115">
        <ele>574</ele>
        <time>2016-07-17T04:19:36Z</time>
      </trkpt>
      <trkpt lat="45.45007" lon="5.80111">
        <ele>573</ele>
        <time>2016-07-17T04:21:36Z</time>
      </trkpt>
      <trkpt lat="45.45016" lon="5.80098">
        <ele>571</ele>
        <time>2016-07-17T04:23:36Z</time>
      </trkpt>
      <trkpt lat="45.45025" lon="5.80079">
        <ele>570</ele>
        <time>2016-07-17T04:25:36Z</time>
      </trkpt>
      <trkpt lat="45.45036" lon="5.80065">
        <ele>570</ele>
        <time>2016-07-17T04:27:36Z</time>
      </trkpt>
      <trkpt lat="45.45043" lon="5.8006">
        <ele>570</ele>
        <time>2016-07-17T04:29:36Z</time>
      </trkpt>
      <trkpt lat="45.4505" lon="5.80056">
        <ele>570</ele>
        <time>2016-07-17T04:31:36Z</time>
      </trkpt>
      <trkpt lat="45.45055" lon="5.80056">
        <ele>570</ele>
        <time>2016-07-17T04:33:36Z</time>
      </trkpt>
      <trkpt lat="45.45069" lon="5.8006">
        <ele>570</ele>
        <time>2016-07-17T04:35:36Z</time>
      </trkpt>
      <trkpt lat="45.45071" lon="5.80061">
        <ele>570</ele>
        <time>2016-07-17T04:37:36Z</time>
      </trkpt>
      <trkpt lat="45.45078" lon="5.80062">
        <ele>570</ele>
        <time>2016-07-17T04:39:36Z</time>
      </trkpt>
      <trkpt lat="45.45083" lon="5.80061">
        <ele>570</ele>
        <time>2016-07-17T04:41:36Z</time>
      </trkpt>
      <trkpt lat="45.45088" lon="5.80057">
        <ele>570</ele>
        <time>2016-07-17T04:43:36Z</time>
      </trkpt>
      <trkpt lat="45.45092" lon="5.80052">
        <ele>570</ele>
        <time>2016-07-17T04:45:36Z</time>
      </trkpt>
      <trkpt lat="45.45094" lon="5.80047">
        <ele>570</ele>
        <time>2016-07-17T04:47:36Z</time>
      </trkpt>
      <trkpt lat="45.45098" lon="5.80031">
        <ele>571</ele>
        <time>2016-07-17T04:49:36Z</time>
      </trkpt>
      <trkpt lat="45.451" lon="5.80029">
        <ele>571</ele>
        <time>2016-07-17T04:51:36Z</time>
      </trkpt>
      <trkpt lat="45.45101" lon="5.80028">
        <ele>571</ele>
        <time>2016-07-17T04:53:36Z</time>
      </trkpt>
      <trkpt lat="45.45104" lon="5.80026">
        <ele>571</ele>
        <time>2016-07-17T04:55:36Z</time>
      </trkpt>
      <trkpt lat="45.45127" lon="5.80021">
        <ele>570</ele>
        <time>2016-07-17T04:57:36Z</time>
      </trkpt>
      <trkpt lat="45.45147" lon="5.8002">
        <ele>569</ele>
        <time>2016-07-17T04:59:36Z</time>
      </trkpt>
      <trkpt lat="45.45172" lon="5.80028">
        <ele>569</ele>
        <time>2016-07-17T05:01:36Z</time>
      </trkpt>
      <trkpt lat="45.4519" lon="5.8003">
        <ele>571</ele>
        <time>2016-07-17T05:03:36Z</time>
      </trkpt>
      <trkpt lat="45.45206" lon="5.8003">
        <ele>573</ele>
        <time>2016-07-17T05:05:36Z</time>
      </trkpt>
      <trkpt lat="45.45223" lon="5.80027">
        <ele>575</ele>
        <time>2016-07-17T05:07:36Z</time>
      </trkpt>
      <trkpt lat="45.45229" lon="5.80024">
        <ele>575</ele>
        <time>2016-07-17T05:09:36Z</time>
      </trkpt>
      <trkpt lat="45.45241" lon="5.80021">
        <ele>577</ele>
        <time>2016-07-17T05:11:36Z</time>
      </trkpt>
      <trkpt lat="45.4525" lon="5.80022">
        <ele>578</ele>
        <time>2016-07-17T05:13:36Z</time>
      </trkpt>
      <trkpt lat="45.45257" lon="5.80025">
        <ele>578</ele>
        <time>2016-07-17T05:15:36Z</time>
      </trkpt>
      <trkpt lat="45.4527" lon="5.80028">
        <ele>577</ele>
        <time>2016-07-17T05:17:36Z</time>
      </trkpt>
      <trkpt lat="45.45279" lon="5.80029">
        <ele>577</ele>
        <time>2016-07-17T05:19:36Z</time>
      </trkpt>
      <trkpt lat="45.45285" lon="5.80028">
        <ele>576</ele>
        <time>2016-07-17T05:21:36Z</time>
      </trkpt>
      <trkpt lat="45.45304" lon="5.80025">
        <ele>576</ele>
        <time>2016-07-17T05:23:36Z</time>
      </trkpt>
      <trkpt lat="45.45304" lon="5.80025">
        <ele>576</ele>
        <time>2016-07-17T05:25:36Z</time>
      </trkpt>
      <trkpt lat="45.45309" lon="5.80055">
        <ele>575</ele>
        <time>2016-07-17T05:27:36Z</time>
      </trkpt>
      <trkpt lat="45.45314" lon="5.80076">
        <ele>574</ele>
        <time>2016-07-17T05:29:36Z</time>
      </trkpt>
      <trkpt lat="45.45321" lon="5.80096">
        <ele>574</ele>
        <time>2016-07-17T05:31:36Z</time>
      </trkpt>
      <trkpt lat="45.4533" lon="5.80115">
        <ele>573</ele>
        <time>2016-07-17T05:33:36Z</time>
      </trkpt>
      <trkpt lat="45.45338" lon="5.80131">
        <ele>573</ele>
        <time>2016-07-17T05:35:36Z</time>
      </trkpt>
      <trkpt lat="45.45345" lon="5.80143">
        <ele>573</ele>
        <time>2016-07-17T05:37:36Z</time>
      </trkpt>
      <trkpt lat="45.4535" lon="5.80152">
        <ele>574</ele>
        <time>2016-07-17T05:39:36Z</time>
      </trkpt>
      <trkpt lat="45.45358" lon="5.80162">
        <ele>574</ele>
        <time>2016-07-17T05:41:36Z</time>
      </trkpt>
      <trkpt lat="45.45365" lon="5.8017">
        <ele>575</ele>
        <time>2016-07-17T05:43:36Z</time>
      </trkpt>
      <trkpt lat="45.45373" lon="5.80178">
        <ele>576</ele>
        <time>2016-07-17T05:45:36Z</time>
      </trkpt>
      <trkpt lat="45.45395" lon="5.80198">
        <ele>578</ele>
        <time>2016-07-17T05:47:36Z</time>
      </trkpt>
      <trkpt lat="45.45395" lon="5.80198">
        <ele>578</ele>
        <time>2016-07-17T05:49:36Z</time>
      </trkpt>
      <trkpt lat="45.45406" lon="5.80222">
        <ele>579</ele>
        <time>2016-07-17T05:51:36Z</time>
      </trkpt>
      <trkpt lat="45.4541" lon="5.80235">
        <ele>579</ele>
        <time>2016-07-17T05:53:36Z</time>
      </trkpt>
      <trkpt lat="45.45415" lon="5.80247">
        <ele>579</ele>
        <time>2016-07-17T05:55:36Z</time>
      </trkpt>
      <trkpt lat="45.4542" lon="5.80262">
        <ele>581</ele>
        <time>2016-07-17T05:57:36Z</time>
      </trkpt>
      <trkpt lat="45.45424" lon="5.80274">
        <ele>583</ele>
        <time>2016-07-17T05:59:36Z</time>
      </trkpt>
      <trkpt lat="45.45431" lon="5.80291">
        <ele>585</ele>
        <time>2016-07-17T06:01:36Z</time>
      </trkpt>
      <trkpt lat="45.45445" lon="5.80315">
        <ele>589</ele>
        <time>2016-07-17T06:03:36Z</time>
      </trkpt>
      <trkpt lat="45.45465" lon="5.80353">
        <ele>595</ele>
        <time>2016-07-17T06:05:36Z</time>
      </trkpt>
      <trkpt lat="45.45478" lon="5.80358">
        <ele>597</ele>
        <time>2016-07-17T06:07:36Z</time>
      </trkpt>
      <trkpt lat="45.45492" lon="5.80369">
        <ele>600</ele>
        <time>2016-07-17T06:09:36Z</time>
      </trkpt>
      <trkpt lat="45.45508" lon="5.80379">
        <ele>603</ele>
        <time>2016-07-17T06:11:36Z</time>
      </trkpt>
      <trkpt lat="45.45523" lon="5.80387">
        <ele>605</ele>
        <time>2016-07-17T06:13:36Z</time>
      </trkpt>
      <trkpt lat="45.45529" lon="5.8039">
        <ele>605</ele>
        <time>2016-07-17T06:15:36Z</time>
      </trkpt>
      <trkpt lat="45.45548" lon="5.80396">
        <ele>607</ele>
        <time>2016-07-17T06:17:36Z</time>
      </trkpt>
      <trkpt lat="45.45559" lon="5.80406">
        <ele>608</ele>
        <time>2016-07-17T06:19:36Z</time>
      </trkpt>
      <trkpt lat="45.45588" lon="5.80441">
        <ele>613</ele>
        <time>2016-07-17T06:21:36Z</time>
      </trkpt>
      <trkpt lat="45.456" lon="5.80454">
        <ele>614</ele>
        <time>2016-07-17T06:23:36Z</time>
      </trkpt>
      <trkpt lat="45.45619" lon="5.80471">
        <ele>616</ele>
        <time>2016-07-17T06:25:36Z</time>
      </trkpt>
      <trkpt lat="45.45653" lon="5.80518">
        <ele>619</ele>
        <time>2016-07-17T06:27:36Z</time>
      </trkpt>
      <trkpt lat="45.45665" lon="5.80528">
        <ele>620</ele>
        <time>2016-07-17T06:29:36Z</time>
      </trkpt>
      <trkpt lat="45.4568" lon="5.80537">
        <ele>621</ele>
        <time>2016-07-17T06:31:36Z</time>
      </trkpt>
      <trkpt lat="45.45727" lon="5.80582">
        <ele>624</ele>
        <time>2016-07-17T06:33:36Z</time>
      </trkpt>
      <trkpt lat="45.45741" lon="5.80597">
        <ele>624</ele>
        <time>2016-07-17T06:35:36Z</time>
      </trkpt>
      <trkpt lat="45.45746" lon="5.80606">
        <ele>624</ele>
        <time>2016-07-17T06:37:36Z</time>
      </trkpt>
      <trkpt lat="45.45749" lon="5.8062">
        <ele>624</ele>
        <time>2016-07-17T06:39:36Z</time>
      </trkpt>
      <trkpt lat="45.4575" lon="5.80667">
        <ele>623</ele>
        <time>2016-07-17T06:41:36Z</time>
      </trkpt>
      <trkpt lat="45.45749" lon="5.80682">
        <ele>623</ele>
        <time>2016-07-17T06:43:36Z</time>
      </trkpt>
      <trkpt lat="45.45751" lon="5.807">
        <ele>622</ele>
        <time>2016-07-17T06:45:36Z</time>
      </trkpt>
      <trkpt lat="45.45756" lon="5.80723">
        <ele>622</ele>
        <time>2016-07-17T06:47:36Z</time>
      </trkpt>
      <trkpt lat="45.45761" lon="5.80755">
        <ele>620</ele>
        <time>2016-07-17T06:49:36Z</time>
      </trkpt>
      <trkpt lat="45.45764" lon="5.80765">
        <ele>620</ele>
        <time>2016-07-17T06:51:36Z</time>
      </trkpt>
      <trkpt lat="45.45772" lon="5.80779">
        <ele>619</ele>
        <time>2016-07-17T06:53:36Z</time>
      </trkpt>
      <trkpt lat="45.45782" lon="5.80793">
        <ele>618</ele>
        <time>2016-07-17T06:55:36Z</time>
      </trkpt>
      <trkpt lat="45.45792" lon="5.808">
        <ele>618</ele>
        <time>2016-07-17T06:57:36Z</time>
      </trkpt>
      <trkpt lat="45.45802" lon="5.80813">
        <ele>617</ele>
        <time>2016-07-17T06:59:36Z</time>
      </trkpt>
      <trkpt lat="45.45817" lon="5.80846">
        <ele>616</ele>
        <time>2016-07-17T07:01:36Z</time>
      </trkpt>
      <trkpt lat="45.45823" lon="5.80863">
        <ele>616</ele>
        <time>2016-07-17T07:03:36Z</time>
      </trkpt>
      <trkpt lat="45.45844" lon="5.80887">
        <ele>617</ele>
        <time>2016-07-17T07:05:36Z</time>
      </trkpt>
      <trkpt lat="45.45862" lon="5.80906">
        <ele>616</ele>
        <time>2016-07-17T07:07:36Z</time>
      </trkpt>
      <trkpt lat="45.45878" lon="5.80925">
        <ele>616</ele>
        <time>2016-07-17T07:09:36Z</time>
      </trkpt>
      <trkpt lat="45.4589" lon="5.80941">
        <ele>615</ele>
        <time>2016-07-17T07:11:36Z</time>
      </trkpt>
      <trkpt lat="45.45902" lon="5.80958">
        <ele>615</ele>
        <time>2016-07-17T07:13:36Z</time>
      </trkpt>
      <trkpt lat="45.45911" lon="5.80968">
        <ele>615</ele>
        <time>2016-07-17T07:15:36Z</time>
      </trkpt>
      <trkpt lat="45.45926" lon="5.80983">
        <ele>615</ele>
        <time>2016-07-17T07:17:36Z</time>
      </trkpt>
      <trkpt lat="45.45968" lon="5.8102">
        <ele>613</ele>
        <time>2016-07-17T07:19:36Z</time>
      </trkpt>
      <trkpt lat="45.45968" lon="5.8102">
        <ele>613</ele>
        <time>2016-07-17T07:21:36Z</time>
      </trkpt>
      <trkpt lat="45.45976" lon="5.81016">
        <ele>613</ele>
        <time>2016-07-17T07:23:36Z</time>
      </trkpt>
      <trkpt lat="45.45976" lon="5.81016">
        <ele>613</ele>
        <time>2016-07-17T07:25:36Z</time>
      </trkpt>
      <trkpt lat="45.45995" lon="5.81045">
        <ele>611</ele>
        <time>2016-07-17T07:27:36Z</time>
      </trkpt>
      <trkpt lat="45.46003" lon="5.81055">
        <ele>611</ele>
        <time>2016-07-17T07:29:36Z</time>
      </trkpt>
      <trkpt lat="45.46011" lon="5.81064">
        <ele>611</ele>
        <time>2016-07-17T07:31:36Z</time>
      </trkpt>
      <trkpt lat="45.46027" lon="5.81079">
        <ele>611</ele>
        <time>2016-07-17T07:33:36Z</time>
      </trkpt>
      <trkpt lat="45.46035" lon="5.81086">
        <ele>610</ele>
        <time>2016-07-17T07:35:36Z</time>
      </trkpt>
      <trkpt lat="45.46053" lon="5.811">
        <ele>610</ele>
        <time>2016-07-17T07:37:36Z</time>
      </trkpt>
      <trkpt lat="45.46062" lon="5.81106">
        <ele>609</ele>
        <time>2016-07-17T07:39:36Z</time>
      </trkpt>
      <trkpt lat="45.46091" lon="5.81126">
        <ele>609</ele>
        <time>2016-07-17T07:41:36Z</time>
      </trkpt>
      <trkpt lat="45.4611" lon="5.81139">
        <ele>610</ele>
        <time>2016-07-17T07:43:36Z</time>
      </trkpt>
      <trkpt lat="45.46149" lon="5.81164">
        <ele>613</ele>
        <time>2016-07-17T07:45:36Z</time>
      </trkpt>
      <trkpt lat="45.46177" lon="5.81184">
        <ele>614</ele>
        <time>2016-07-17T07:47:36Z</time>
      </trkpt>
      <trkpt lat="45.46198" lon="5.81199">
        <ele>615</ele>
        <time>2016-07-17T07:49:36Z</time>
      </trkpt>
      <trkpt lat="45.46235" lon="5.81227">
        <ele>617</ele>
        <time>2016-07-17T07:51:36Z</time>
      </trkpt>
      <trkpt lat="45.46272" lon="5.81256">
        <ele>618</ele>
        <time>2016-07-17T07:53:36Z</time>
      </trkpt>
      <trkpt lat="45.46409" lon="5.81366">
        <ele>625</ele>
        <time>2016-07-17T07:55:36Z</time>
      </trkpt>
      <trkpt lat="45.46438" lon="5.81387">
        <ele>627</ele>
        <time>2016-07-17T07:57:36Z</time>
      </trkpt>
      <trkpt lat="45.46466" lon="5.81404">
        <ele>628</ele>
        <time>2016-07-17T07:59:36Z</time>
      </trkpt>
      <trkpt lat="45.46523" lon="5.81433">
        <ele>631</ele>
        <time>2016-07-17T08:01:36Z</time>
      </trkpt>
      <trkpt lat="45.46567" lon="5.81455">
        <ele>634</ele>
        <time>2016-07-17T08:03:36Z</time>
      </trkpt>
      <trkpt lat="45.46649" lon="5.81495">
        <ele>633</ele>
        <time>2016-07-17T08:05:36Z</time>
      </trkpt>
      <trkpt lat="45.46718" lon="5.8153">
        <ele>642</ele>
        <time>2016-07-17T08:07:36Z</time>
      </trkpt>
      <trkpt lat="45.46769" lon="5.81557">
        <ele>644</ele>
        <time>2016-07-17T08:09:36Z</time>
      </trkpt>
      <trkpt lat="45.46801" lon="5.81576">
        <ele>640</ele>
        <time>2016-07-17T08:11:36Z</time>
      </trkpt>
      <trkpt lat="45.46815" lon="5.81586">
        <ele>638</ele>
        <time>2016-07-17T08:13:36Z</time>
      </trkpt>
      <trkpt lat="45.46837" lon="5.81603">
        <ele>636</ele>
        <time>2016-07-17T08:15:36Z</time>
      </trkpt>
      <trkpt lat="45.46851" lon="5.81617">
        <ele>637</ele>
        <time>2016-07-17T08:17:36Z</time>
      </trkpt>
      <trkpt lat="45.46881" lon="5.81649">
        <ele>636</ele>
        <time>2016-07-17T08:19:36Z</time>
      </trkpt>
      <trkpt lat="45.46887" lon="5.81656">
        <ele>636</ele>
        <time>2016-07-17T08:21:36Z</time>
      </trkpt>
      <trkpt lat="45.46894" lon="5.81665">
        <ele>634</ele>
        <time>2016-07-17T08:23:36Z</time>
      </trkpt>
      <trkpt lat="45.46919" lon="5.81697">
        <ele>632</ele>
        <time>2016-07-17T08:25:36Z</time>
      </trkpt>
      <trkpt lat="45.46936" lon="5.81722">
        <ele>631</ele>
        <time>2016-07-17T08:27:36Z</time>
      </trkpt>
      <trkpt lat="45.46942" lon="5.8173">
        <ele>630</ele>
        <time>2016-07-17T08:29:36Z</time>
      </trkpt>
      <trkpt lat="45.46964" lon="5.81762">
        <ele>629</ele>
        <time>2016-07-17T08:31:36Z</time>
      </trkpt>
      <trkpt lat="45.47009" lon="5.81824">
        <ele>630</ele>
        <time>2016-07-17T08:33:36Z</time>
      </trkpt>
      <trkpt lat="45.4703" lon="5.81854">
        <ele>628</ele>
        <time>2016-07-17T08:35:36Z</time>
      </trkpt>
      <trkpt lat="45.4705" lon="5.81882">
        <ele>626</ele>
        <time>2016-07-17T08:37:36Z</time>
      </trkpt>
      <trkpt lat="45.4721" lon="5.82116">
        <ele>629</ele>
        <time>2016-07-17T08:39:36Z</time>
      </trkpt>
      <trkpt lat="45.47225" lon="5.82138">
        <ele>630</ele>
        <time>2016-07-17T08:41:36Z</time>
      </trkpt>
      <trkpt lat="45.47255" lon="5.8218">
        <ele>631</ele>
        <time>2016-07-17T08:43:36Z</time>
      </trkpt>
      <trkpt lat="45.47258" lon="5.82185">
        <ele>631</ele>
        <time>2016-07-17T08:45:36Z</time>
      </trkpt>
      <trkpt lat="45.4729" lon="5.82228">
        <ele>630</ele>
        <time>2016-07-17T08:47:36Z</time>
      </trkpt>
      <trkpt lat="45.47295" lon="5.82236">
        <ele>630</ele>
        <time>2016-07-17T08:49:36Z</time>
      </trkpt>
      <trkpt lat="45.4731" lon="5.8226">
        <ele>629</ele>
        <time>2016-07-17T08:51:36Z</time>
      </trkpt>
      <trkpt lat="45.47383" lon="5.82365">
        <ele>626</ele>
        <time>2016-07-17T08:53:36Z</time>
      </trkpt>
      <trkpt lat="45.47384" lon="5.82365">
        <ele>626</ele>
        <time>2016-07-17T08:55:36Z</time>
      </trkpt>
      <trkpt lat="45.4739" lon="5.82369">
        <ele>626</ele>
        <time>2016-07-17T08:57:36Z</time>
      </trkpt>
      <trkpt lat="45.47393" lon="5.82373">
        <ele>626</ele>
        <time>2016-07-17T08:59:36Z</time>
      </trkpt>
      <trkpt lat="45.47589" lon="5.8265">
        <ele>605</ele>
        <time>2016-07-17T09:01:36Z</time>
      </trkpt>
      <trkpt lat="45.4761" lon="5.82675">
        <ele>603</ele>
        <time>2016-07-17T09:03:36Z</time>
      </trkpt>
      <trkpt lat="45.47633" lon="5.82695">
        <ele>602</ele>
        <time>2016-07-17T09:05:36Z</time>
      </trkpt>
      <trkpt lat="45.47665" lon="5.8272">
        <ele>600</ele>
        <time>2016-07-17T09:07:36Z</time>
      </trkpt>
      <trkpt lat="45.47702" lon="5.82745">
        <ele>597</ele>
        <time>2016-07-17T09:09:36Z</time>
      </trkpt>
      <trkpt lat="45.47727" lon="5.82763">
        <ele>595</ele>
        <time>2016-07-17T09:11:36Z</time>
      </trkpt>
      <trkpt lat="45.47749" lon="5.82782">
        <ele>593</ele>
        <time>2016-07-17T09:13:36Z</time>
      </trkpt>
      <trkpt lat="45.4777" lon="5.82802">
        <ele>592</ele>
        <time>2016-07-17T09:15:36Z</time>
      </trkpt>
      <trkpt lat="45.4778" lon="5.82815">
        <ele>591</ele>
        <time>2016-07-17T09:17:36Z</time>
      </trkpt>
      <trkpt lat="45.47786" lon="5.82825">
        <ele>591</ele>
        <time>2016-07-17T09:19:36Z</time>
      </trkpt>
      <trkpt lat="45.47798" lon="5.82847">
        <ele>589</ele>
        <time>2016-07-17T09:21:36Z</time>
      </trkpt>
      <trkpt lat="45.47816" lon="5.82885">
        <ele>587</ele>
        <time>2016-07-17T09:23:36Z</time>
      </trkpt>
      <trkpt lat="45.47835" lon="5.82929">
        <ele>586</ele>
        <time>2016-07-17T09:25:36Z</time>
      </trkpt>
      <trkpt lat="45.47846" lon="5.82949">
        <ele>587</ele>
        <time>2016-07-17T09:27:36Z</time>
      </trkpt>
      <trkpt lat="45.47853" lon="5.82958">
        <ele>588</ele>
        <time>2016-07-17T09:29:36Z</time>
      </trkpt>
      <trkpt lat="45.4786" lon="5.82967">
        <ele>588</ele>
        <time>2016-07-17T09:31:36Z</time>
      </trkpt>
      <trkpt lat="45.47871" lon="5.8298">
        <ele>588</ele>
        <time>2016-07-17T09:33:36Z</time>
      </trkpt>
      <trkpt lat="45.47878" lon="5.82987">
        <ele>587</ele>
        <time>2016-07-17T09:35:36Z</time>
      </trkpt>
      <trkpt lat="45.47885" lon="5.82994">
        <ele>587</ele>
        <time>2016-07-17T09:37:36Z</time>
      </trkpt>
      <trkpt lat="45.47897" lon="5.83003">
        <ele>586</ele>
        <time>2016-07-17T09:39:36Z</time>
      </trkpt>
      <trkpt lat="45.47906" lon="5.8301">
        <ele>586</ele>
        <time>2016-07-17T09:41:36Z</time>
      </trkpt>
      <trkpt lat="45.47947" lon="5.83038">
        <ele>585</ele>
        <time>2016-07-17T09:43:36Z</time>
      </trkpt>
      <trkpt lat="45.47972" lon="5.83053">
        <ele>583</ele>
        <time>2016-07-17T09:45:36Z</time>
      </trkpt>
      <trkpt lat="45.48003" lon="5.83075">
        <ele>580</ele>
        <time>2016-07-17T09:47:36Z</time>
      </trkpt>
      <trkpt lat="45.48039" lon="5.83098">
        <ele>580</ele>
        <time>2016-07-17T09:49:36Z</time>
      </trkpt>
      <trkpt lat="45.48108" lon="5.83145">
        <ele>582</ele>
        <time>2016-07-17T09:51:36Z</time>
      </trkpt>
      <trkpt lat="45.48142" lon="5.83167">
        <ele>580</ele>
        <time>2016-07-17T09:53:36Z</time>
      </trkpt>
      <trkpt lat="45.48184" lon="5.83195">
        <ele>580</ele>
        <time>2016-07-17T09:55:36Z</time>
      </trkpt>
      <trkpt lat="45.48214" lon="5.83215">
        <ele>580</ele>
        <time>2016-07-17T09:57:36Z</time>
      </trkpt>
      <trkpt lat="45.48407" lon="5.83343">
        <ele>574</ele>
        <time>2016-07-17T09:59:36Z</time>
      </trkpt>
      <trkpt lat="45.48451" lon="5.83372">
        <ele>572</ele>
        <time>2016-07-17T10:01:36Z</time>
      </trkpt>
      <trkpt lat="45.48489" lon="5.83397">
        <ele>568</ele>
        <time>2016-07-17T10:03:36Z</time>
      </trkpt>
      <trkpt lat="45.48493" lon="5.834">
        <ele>568</ele>
        <time>2016-07-17T10:05:36Z</time>
      </trkpt>
      <trkpt lat="45.48582" lon="5.8346">
        <ele>563</ele>
        <time>2016-07-17T10:07:36Z</time>
      </trkpt>
      <trkpt lat="45.48602" lon="5.83473">
        <ele>562</ele>
        <time>2016-07-17T10:09:36Z</time>
      </trkpt>
      <trkpt lat="45.48627" lon="5.83489">
        <ele>562</ele>
        <time>2016-07-17T10:11:36Z</time>
      </trkpt>
      <trkpt lat="45.48632" lon="5.83492">
        <ele>562</ele>
        <time>2016-07-17T10:13:36Z</time>
      </trkpt>
      <trkpt lat="45.48636" lon="5.83495">
        <ele>562</ele>
        <time>2016-07-17T10:15:36Z</time>
      </trkpt>
      <trkpt lat="45.4864" lon="5.83498">
        <ele>562</ele>
        <time>2016-07-17T10:17:36Z</time>
      </trkpt>
      <trkpt lat="45.48654" lon="5.83507">
        <ele>563</ele>
        <time>2016-07-17T10:19:36Z</time>
      </trkpt>
      <trkpt lat="45.48668" lon="5.83515">
        <ele>564</ele>
        <time>2016-07-17T10:21:36Z</time>
      </trkpt>
      <trkpt lat="45.48679" lon="5.83522">
        <ele>565</ele>
        <time>2016-07-17T10:23:36Z</time>
      </trkpt>
      <trkpt lat="45.48698" lon="5.83531">
        <ele>567</ele>
        <time>2016-07-17T10:25:36Z</time>
      </trkpt>
      <trkpt lat="45.48722" lon="5.8354">
        <ele>569</ele>
        <time>2016-07-17T10:27:36Z</time>
      </trkpt>
      <trkpt lat="45.48735" lon="5.83542">
        <ele>569</ele>
        <time>2016-07-17T10:29:36Z</time>
      </trkpt>
      <trkpt lat="45.4877" lon="5.83544">
        <ele>568</ele>
        <time>2016-07-17T10:31:36Z</time>
      </trkpt>
      <trkpt lat="45.48811" lon="5.83544">
        <ele>563</ele>
        <time>2016-07-17T10:33:36Z</time>
      </trkpt>
      <trkpt lat="45.48998" lon="5.8354">
        <ele>554</ele>
        <time>2016-07-17T10:35:36Z</time>
      </trkpt>
      <trkpt lat="45.49129" lon="5.83539">
        <ele>549</ele>
        <time>2016-07-17T10:37:36Z</time>
      </trkpt>
      <trkpt lat="45.49152" lon="5.83541">
        <ele>551</ele>
        <time>2016-07-17T10:39:36Z</time>
      </trkpt>
      <trkpt lat="45.49165" lon="5.83544">
        <ele>553</ele>
        <time>2016-07-17T10:41:36Z</time>
      </trkpt>
      <trkpt lat="45.49177" lon="5.83548">
        <ele>553</ele>
        <time>2016-07-17T10:43:36Z</time>
      </trkpt>
      <trkpt lat="45.49201" lon="5.8356">
        <ele>553</ele>
        <time>2016-07-17T10:45:36Z</time>
      </trkpt>
      <trkpt lat="45.49378" lon="5.8366">
        <ele>544</ele>
        <time>2016-07-17T10:47:36Z</time>
      </trkpt>
      <trkpt lat="45.49416" lon="5.83682">
        <ele>542</ele>
        <time>2016-07-17T10:49:36Z</time>
      </trkpt>
      <trkpt lat="45.49419" lon="5.83684">
        <ele>542</ele>
        <time>2016-07-17T10:51:36Z</time>
      </trkpt>
      <trkpt lat="45.49471" lon="5.83714">
        <ele>538</ele>
        <time>2016-07-17T10:53:36Z</time>
      </trkpt>
      <trkpt lat="45.49507" lon="5.83741">
        <ele>536</ele>
        <time>2016-07-17T10:55:36Z</time>
      </trkpt>
      <trkpt lat="45.49579" lon="5.8379">
        <ele>531</ele>
        <time>2016-07-17T10:57:36Z</time>
      </trkpt>
      <trkpt lat="45.49593" lon="5.83801">
        <ele>530</ele>
        <time>2016-07-17T10:59:36Z</time>
      </trkpt>
      <trkpt lat="45.49607" lon="5.83814">
        <ele>530</ele>
        <time>2016-07-17T11:01:36Z</time>
      </trkpt>
      <trkpt lat="45.49619" lon="5.83829">
        <ele>531</ele>
        <time>2016-07-17T11:03:36Z</time>
      </trkpt>
      <trkpt lat="45.49656" lon="5.83876">
        <ele>532</ele>
        <time>2016-07-17T11:05:36Z</time>
      </trkpt>
      <trkpt lat="45.49663" lon="5.83884">
        <ele>533</ele>
        <time>2016-07-17T11:07:36Z</time>
      </trkpt>
      <trkpt lat="45.49671" lon="5.83891">
        <ele>532</ele>
        <time>2016-07-17T11:09:36Z</time>
      </trkpt>
      <trkpt lat="45.49678" lon="5.83896">
        <ele>532</ele>
        <time>2016-07-17T11:11:36Z</time>
      </trkpt>
      <trkpt lat="45.49696" lon="5.83907">
        <ele>531</ele>
        <time>2016-07-17T11:13:36Z</time>
      </trkpt>
      <trkpt lat="45.49719" lon="5.83915">
        <ele>529</ele>
        <time>2016-07-17T11:15:36Z</time>
      </trkpt>
      <trkpt lat="45.49775" lon="5.83936">
        <ele>523</ele>
        <time>2016-07-17T11:17:36Z</time>
      </trkpt>
      <trkpt lat="45.49787" lon="5.83941">
        <ele>521</ele>
        <time>2016-07-17T11:19:36Z</time>
      </trkpt>
      <trkpt lat="45.49812" lon="5.83953">
        <ele>519</ele>
        <time>2016-07-17T11:21:36Z</time>
      </trkpt>
      <trkpt lat="45.49835" lon="5.8397">
        <ele>518</ele>
        <time>2016-07-17T11:23:36Z</time>
      </trkpt>
      <trkpt lat="45.49862" lon="5.83995">
        <ele>516</ele>
        <time>2016-07-17T11:25:36Z</time>
      </trkpt>
      <trkpt lat="45.499" lon="5.84036">
        <ele>511</ele>
        <time>2016-07-17T11:27:36Z</time>
      </trkpt>
      <trkpt lat="45.49922" lon="5.84066">
        <ele>510</ele>
        <time>2016-07-17T11:29:36Z</time>
      </trkpt>
      <trkpt lat="45.49931" lon="5.84083">
        <ele>510</ele>
        <time>2016-07-17T11:31:36Z</time>
      </trkpt>
      <trkpt lat="45.49939" lon="5.84111">
        <ele>509</ele>
        <time>2016-07-17T11:33:36Z</time>
      </trkpt>
      <trkpt lat="45.49946" lon="5.84138">
        <ele>508</ele>
        <time>2016-07-17T11:35:36Z</time>
      </trkpt>
      <trkpt lat="45.49953" lon="5.84183">
        <ele>506</ele>
        <time>2016-07-17T11:37:36Z</time>
      </trkpt>
      <trkpt lat="45.49957" lon="5.842">
        <ele>506</ele>
        <time>2016-07-17T11:39:36Z</time>
      </trkpt>
      <trkpt lat="45.49962" lon="5.84221">
        <ele>505</ele>
        <time>2016-07-17T11:41:36Z</time>
      </trkpt>
      <trkpt lat="45.49965" lon="5.84228">
        <ele>505</ele>
        <time>2016-07-17T11:43:36Z</time>
      </trkpt>
      <trkpt lat="45.4997" lon="5.8424">
        <ele>505</ele>
        <time>2016-07-17T11:45:36Z</time>
      </trkpt>
      <trkpt lat="45.49972" lon="5.8425">
        <ele>505</ele>
        <time>2016-07-17T11:47:36Z</time>
      </trkpt>
      <trkpt lat="45.49985" lon="5.84273">
        <ele>506</ele>
        <time>2016-07-17T11:49:36Z</time>
      </trkpt>
      <trkpt lat="45.49996" lon="5.84289">
        <ele>507</ele>
        <time>2016-07-17T11:51:36Z</time>
      </trkpt>
      <trkpt lat="45.50002" lon="5.84297">
        <ele>507</ele>
        <time>2016-07-17T11:53:36Z</time>
      </trkpt>
      <trkpt lat="45.50009" lon="5.84304">
        <ele>507</ele>
        <time>2016-07-17T11:55:36Z</time>
      </trkpt>
      <trkpt lat="45.50016" lon="5.84309">
        <ele>507</ele>
        <time>2016-07-17T11:57:36Z</time>
      </trkpt>
      <trkpt lat="45.50022" lon="5.84312">
        <ele>507</ele>
        <time>2016-07-17T11:59:36Z</time>
      </trkpt>
      <trkpt lat="45.50024" lon="5.84313">
        <ele>507</ele>
        <time>2016-07-17T12:01:36Z</time>
      </trkpt>
      <trkpt lat="45.50054" lon="5.84329">
        <ele>505</ele>
        <time>2016-07-17T12:03:36Z</time>
      </trkpt>
      <trkpt lat="45.50064" lon="5.84332">
        <ele>505</ele>
        <time>2016-07-17T12:05:36Z</time>
      </trkpt>
      <trkpt lat="45.50092" lon="5.84357">
        <ele>504</ele>
        <time>2016-07-17T12:07:36Z</time>
      </trkpt>
      <trkpt lat="45.50105" lon="5.84368">
        <ele>503</ele>
        <time>2016-07-17T12:09:36Z</time>
      </trkpt>
      <trkpt lat="45.50117" lon="5.84376">
        <ele>503</ele>
        <time>2016-07-17T12:11:36Z</time>
      </trkpt>
      <trkpt lat="45.50122" lon="5.84381">
        <ele>503</ele>
        <time>2016-07-17T12:13:36Z</time>
      </trkpt>
      <trkpt lat="45.50141" lon="5.84396">
        <ele>502</ele>
        <time>2016-07-17T12:15:36Z</time>
      </trkpt>
      <trkpt lat="45.5016" lon="5.84417">
        <ele>502</ele>
        <time>2016-07-17T12:17:36Z</time>
      </trkpt>
      <trkpt lat="45.50204" lon="5.84475">
        <ele>501</ele>
        <time>2016-07-17T12:19:36Z</time>
      </trkpt>
      <trkpt lat="45.50231" lon="5.84512">
        <ele>500</ele>
        <time>2016-07-17T12:21:36Z</time>
      </trkpt>
      <trkpt lat="45.50239" lon="5.84522">
        <ele>500</ele>
        <time>2016-07-17T12:23:36Z</time>
      </trkpt>
      <trkpt lat="45.50267" lon="5.8456">
        <ele>499</ele>
        <time>2016-07-17T12:25:36Z</time>
      </trkpt>
      <trkpt lat="45.50295" lon="5.84598">
        <ele>498</ele>
        <time>2016-07-17T12:27:36Z</time>
      </trkpt>
      <trkpt lat="45.50306" lon="5.84613">
        <ele>497</ele>
        <time>2016-07-17T12:29:36Z</time>
      </trkpt>
      <trkpt lat="45.50309" lon="5.84624">
        <ele>497</ele>
        <time>2016-07-17T12:31:36Z</time>
      </trkpt>
      <trkpt lat="45.5031" lon="5.84627">
        <ele>497</ele>
        <time>2016-07-17T12:33:36Z</time>
      </trkpt>
      <trkpt lat="45.50345" lon="5.84671">
        <ele>495</ele>
        <time>2016-07-17T12:35:36Z</time>
      </trkpt>
      <trkpt lat="45.50377" lon="5.84712">
        <ele>493</ele>
        <time>2016-07-17T12:37:36Z</time>
      </trkpt>
      <trkpt lat="45.50394" lon="5.84733">
        <ele>493</ele>
        <time>2016-07-17T12:39:36Z</time>
      </trkpt>
      <trkpt lat="45.50425" lon="5.84762">
        <ele>491</ele>
        <time>2016-07-17T12:41:36Z</time>
      </trkpt>
      <trkpt lat="45.50438" lon="5.84772">
        <ele>491</ele>
        <time>2016-07-17T12:43:36Z</time>
      </trkpt>
      <trkpt lat="45.50446" lon="5.84776">
        <ele>490</ele>
        <time>2016-07-17T12:45:36Z</time>
      </trkpt>
      <trkpt lat="45.50457" lon="5.84779">
        <ele>489</ele>
        <time>2016-07-17T12:47:36Z</time>
      </trkpt>
      <trkpt lat="45.50459" lon="5.84781">
        <ele>489</ele>
        <time>2016-07-17T12:49:36Z</time>
      </trkpt>
      <trkpt lat="45.5046" lon="5.84782">
        <ele>489</ele>
        <time>2016-07-17T12:51:36Z</time>
      </trkpt>
      <trkpt lat="45.5049" lon="5.848">
        <ele>487</ele>
        <time>2016-07-17T12:53:36Z</time>
      </trkpt>
      <trkpt lat="45.50526" lon="5.84818">
        <ele>486</ele>
        <time>2016-07-17T12:55:36Z</time>
      </trkpt>
      <trkpt lat="45.50579" lon="5.84843">
        <ele>485</ele>
        <time>2016-07-17T12:57:36Z</time>
      </trkpt>
      <trkpt lat="45.50632" lon="5.84868">
        <ele>485</ele>
        <time>2016-07-17T12:59:36Z</time>
      </trkpt>
      <trkpt lat="45.50663" lon="5.84883">
        <ele>486</ele>
        <time>2016-07-17T13:01:36Z</time>
      </trkpt>
      <trkpt lat="45.5068" lon="5.84892">
        <ele>486</ele>
        <time>2016-07-17T13:03:36Z</time>
      </trkpt>
      <trkpt lat="45.50714" lon="5.84909">
        <ele>486</ele>
        <time>2016-07-17T13:05:36Z</time>
      </trkpt>
      <trkpt lat="45.50768" lon="5.84936">
        <ele>488</ele>
        <time>2016-07-17T13:07:36Z</time>
      </trkpt>
      <trkpt lat="45.50814" lon="5.84958">
        <ele>490</ele>
        <time>2016-07-17T13:09:36Z</time>
      </trkpt>
      <trkpt lat="45.50859" lon="5.84978">
        <ele>491</ele>
        <time>2016-07-17T13:11:36Z</time>
      </trkpt>
      <trkpt lat="45.50886" lon="5.84989">
        <ele>491</ele>
        <time>2016-07-17T13:13:36Z</time>
      </trkpt>
      <trkpt lat="45.50915" lon="5.84996">
        <ele>490</ele>
        <time>2016-07-17T13:15:36Z</time>
      </trkpt>
      <trkpt lat="45.50987" lon="5.85013">
        <ele>486</ele>
        <time>2016-07-17T13:17:36Z</time>
      </trkpt>
      <trkpt lat="45.51071" lon="5.85034">
        <ele>488</ele>
        <time>2016-07-17T13:19:36Z</time>
      </trkpt>
      <trkpt lat="45.51101" lon="5.85043">
        <ele>487</ele>
        <time>2016-07-17T13:21:36Z</time>
      </trkpt>
      <trkpt lat="45.51261" lon="5.85108">
        <ele>481</ele>
        <time>2016-07-17T13:23:36Z</time>
      </trkpt>
      <trkpt lat="45.51301" lon="5.85125">
        <ele>484</ele>
        <time>2016-07-17T13:25:36Z</time>
      </trkpt>
      <trkpt lat="45.51361" lon="5.8515">
        <ele>484</ele>
        <time>2016-07-17T13:27:36Z</time>
      </trkpt>
      <trkpt lat="45.51402" lon="5.85166">
        <ele>481</ele>
        <time>2016-07-17T13:29:36Z</time>
      </trkpt>
      <trkpt lat="45.51441" lon="5.85182">
        <ele>481</ele>
        <time>2016-07-17T13:31:36Z</time>
      </trkpt>
      <trkpt lat="45.51565" lon="5.85233">
        <ele>475</ele>
        <time>2016-07-17T13:33:36Z</time>
      </trkpt>
      <trkpt lat="45.51641" lon="5.85264">
        <ele>474</ele>
        <time>2016-07-17T13:35:36Z</time>
      </trkpt>
      <trkpt lat="45.51684" lon="5.85281">
        <ele>473</ele>
        <time>2016-07-17T13:37:36Z</time>
      </trkpt>
      <trkpt lat="45.51756" lon="5.85311">
        <ele>471</ele>
        <time>2016-07-17T13:39:36Z</time>
      </trkpt>
      <trkpt lat="45.5179" lon="5.85324">
        <ele>472</ele>
        <time>2016-07-17T13:41:36Z</time>
      </trkpt>
      <trkpt lat="45.51848" lon="5.85348">
        <ele>473</ele>
        <time>2016-07-17T13:43:36Z</time>
      </trkpt>
      <trkpt lat="45.52015" lon="5.85417">
        <ele>476</ele>
        <time>2016-07-17T13:45:36Z</time>
      </trkpt>
      <trkpt lat="45.52024" lon="5.85422">
        <ele>476</ele>
        <time>2016-07-17T13:47:36Z</time>
      </trkpt>
      <trkpt lat="45.52036" lon="5.85429">
        <ele>477</ele>
        <time>2016-07-17T13:49:36Z</time>
      </trkpt>
      <trkpt lat="45.52048" lon="5.85438">
        <ele>478</ele>
        <time>2016-07-17T13:51:36Z</time>
      </trkpt>
      <trkpt lat="45.52067" lon="5.85453">
        <ele>481</ele>
        <time>2016-07-17T13:53:36Z</time>
      </trkpt>
      <trkpt lat="45.52089" lon="5.85471">
        <ele>484</ele>
        <time>2016-07-17T13:55:36Z</time>
      </trkpt>
      <trkpt lat="45.52095" lon="5.85476">
        <ele>484</ele>
        <time>2016-07-17T13:57:36Z</time>
      </trkpt>
      <trkpt lat="45.52107" lon="5.85485">
        <ele>484</ele>
        <time>2016-07-17T13:59:36Z</time>
      </trkpt>
      <trkpt lat="45.52127" lon="5.85496">
        <ele>483</ele>
        <time>2016-07-17T14:01:36Z</time>
      </trkpt>
      <trkpt lat="45.52149" lon="5.85504">
        <ele>483</ele>
        <time>2016-07-17T14:03:36Z</time>
      </trkpt>
      <trkpt lat="45.52175" lon="5.85512">
        <ele>484</ele>
        <time>2016-07-17T14:05:36Z</time>
      </trkpt>
      <trkpt lat="45.52187" lon="5.85515">
        <ele>483</ele>
        <time>2016-07-17T14:07:36Z</time>
      </trkpt>
      <trkpt lat="45.52219" lon="5.85524">
        <ele>483</ele>
        <time>2016-07-17T14:09:36Z</time>
      </trkpt>
      <trkpt lat="45.52237" lon="5.85528">
        <ele>482</ele>
        <time>2016-07-17T14:11:36Z</time>
      </trkpt>
      <trkpt lat="45.52249" lon="5.85527">
        <ele>480</ele>
        <time>2016-07-17T14:13:36Z</time>
      </trkpt>
      <trkpt lat="45.52258" lon="5.85525">
        <ele>478</ele>
        <time>2016-07-17T14:15:36Z</time>
      </trkpt>
      <trkpt lat="45.52282" lon="5.85517">
        <ele>475</ele>
        <time>2016-07-17T14:17:36Z</time>
      </trkpt>
      <trkpt lat="45.52293" lon="5.85511">
        <ele>474</ele>
        <time>2016-07-17T14:19:36Z</time>
      </trkpt>
      <trkpt lat="45.52303" lon="5.85507">
        <ele>472</ele>
        <time>2016-07-17T14:21:36Z</time>
      </trkpt>
      <trkpt lat="45.52318" lon="5.85503">
        <ele>472</ele>
        <time>2016-07-17T14:23:36Z</time>
      </trkpt>
      <trkpt lat="45.52332" lon="5.85501">
        <ele>471</ele>
        <time>2016-07-17T14:25:36Z</time>
      </trkpt>
      <trkpt lat="45.52342" lon="5.85501">
        <ele>471</ele>
        <time>2016-07-17T14:27:36Z</time>
      </trkpt>
      <trkpt lat="45.52347" lon="5.85502">
        <ele>471</ele>
        <time>2016-07-17T14:29:36Z</time>
      </trkpt>
      <trkpt lat="45.52423" lon="5.8552">
        <ele>474</ele>
        <time>2016-07-17T14:31:36Z</time>
      </trkpt>
      <trkpt lat="45.52445" lon="5.85527">
        <ele>476</ele>
        <time>2016-07-17T14:33:36Z</time>
      </trkpt>
      <trkpt lat="45.52456" lon="5.85532">
        <ele>476</ele>
        <time>2016-07-17T14:35:36Z</time>
      </trkpt>
      <trkpt lat="45.52466" lon="5.85539">
        <ele>476</ele>
        <time>2016-07-17T14:37:36Z</time>
      </trkpt>
      <trkpt lat="45.52474" lon="5.85544">
        <ele>476</ele>
        <time>2016-07-17T14:39:36Z</time>
      </trkpt>
      <trkpt lat="45.5248" lon="5.8555">
        <ele>475</ele>
        <time>2016-07-17T14:41:36Z</time>
      </trkpt>
      <trkpt lat="45.52486" lon="5.85555">
        <ele>474</ele>
        <time>2016-07-17T14:43:36Z</time>
      </trkpt>
      <trkpt lat="45.52541" lon="5.85639">
        <ele>464</ele>
        <time>2016-07-17T14:45:36Z</time>
      </trkpt>
      <trkpt lat="45.52584" lon="5.857">
        <ele>455</ele>
        <time>2016-07-17T14:47:36Z</time>
      </trkpt>
      <trkpt lat="45.5261" lon="5.85735">
        <ele>455</ele>
        <time>2016-07-17T14:49:36Z</time>
      </trkpt>
      <trkpt lat="45.5263" lon="5.85753">
        <ele>451</ele>
        <time>2016-07-17T14:51:36Z</time>
      </trkpt>
      <trkpt lat="45.52636" lon="5.85759">
        <ele>451</ele>
        <time>2016-07-17T14:53:36Z</time>
      </trkpt>
      <trkpt lat="45.52642" lon="5.85762">
        <ele>450</ele>
        <time>2016-07-17T14:55:36Z</time>
      </trkpt>
      <trkpt lat="45.52655" lon="5.8577">
        <ele>449</ele>
        <time>2016-07-17T14:57:36Z</time>
      </trkpt>
      <trkpt lat="45.52674" lon="5.85781">
        <ele>448</ele>
        <time>2016-07-17T14:59:36Z</time>
      </trkpt>
      <trkpt lat="45.52679" lon="5.85784">
        <ele>449</ele>
        <time>2016-07-17T15:01:36Z</time>
      </trkpt>
      <trkpt lat="45.52687" lon="5.85789">
        <ele>449</ele>
        <time>2016-07-17T15:03:36Z</time>
      </trkpt>
      <trkpt lat="45.52693" lon="5.85793">
        <ele>450</ele>
        <time>2016-07-17T15:05:36Z</time>
      </trkpt>
      <trkpt lat="45.52697" lon="5.85797">
        <ele>450</ele>
        <time>2016-07-17T15:07:36Z</time>
      </trkpt>
      <trkpt lat="45.52701" lon="5.858">
        <ele>450</ele>
        <time>2016-07-17T15:09:36Z</time>
      </trkpt>
      <trkpt lat="45.52705" lon="5.85804">
        <ele>449</ele>
        <time>2016-07-17T15:11:36Z</time>
      </trkpt>
      <trkpt lat="45.52709" lon="5.85809">
        <ele>449</ele>
        <time>2016-07-17T15:13:36Z</time>
      </trkpt>
      <trkpt lat="45.52713" lon="5.85815">
        <ele>448</ele>
        <time>2016-07-17T15:15:36Z</time>
      </trkpt>
      <trkpt lat="45.52718" lon="5.85821">
        <ele>447</ele>
        <time>2016-07-17T15:17:36Z</time>
      </trkpt>
      <trkpt lat="45.52722" lon="5.8583">
        <ele>446</ele>
        <time>2016-07-17T15:19:36Z</time>
      </trkpt>
      <trkpt lat="45.52728" lon="5.85847">
        <ele>446</ele>
        <time>2016-07-17T15:21:36Z</time>
      </trkpt>
      <trkpt lat="45.52734" lon="5.85863">
        <ele>445</ele>
        <time>2016-07-17T15:23:36Z</time>
      </trkpt>
      <trkpt lat="45.52742" lon="5.85882">
        <ele>445</ele>
        <time>2016-07-17T15:25:36Z</time>
      </trkpt>
      <trkpt lat="45.52751" lon="5.85903">
        <ele>444</ele>
        <time>2016-07-17T15:27:36Z</time>
      </trkpt>
      <trkpt lat="45.52756" lon="5.85913">
        <ele>444</ele>
        <time>2016-07-17T15:29:36Z</time>
      </trkpt>
      <trkpt lat="45.5276" lon="5.85921">
        <ele>444</ele>
        <time>2016-07-17T15:31:36Z</time>
      </trkpt>
      <trkpt lat="45.52765" lon="5.85928">
        <ele>444</ele>
        <time>2016-07-17T15:33:36Z</time>
      </trkpt>
      <trkpt lat="45.5278" lon="5.8595">
        <ele>443</ele>
        <time>2016-07-17T15:35:36Z</time>
      </trkpt>
      <trkpt lat="45.52799" lon="5.85976">
        <ele>440</ele>
        <time>2016-07-17T15:37:36Z</time>
      </trkpt>
      <trkpt lat="45.52817" lon="5.86">
        <ele>436</ele>
        <time>2016-07-17T15:39:36Z</time>
      </trkpt>
      <trkpt lat="45.5283" lon="5.86015">
        <ele>434</ele>
        <time>2016-07-17T15:41:36Z</time>
      </trkpt>
      <trkpt lat="45.52845" lon="5.86032">
        <ele>435</ele>
        <time>2016-07-17T15:43:36Z</time>
      </trkpt>
      <trkpt lat="45.52859" lon="5.86048">
        <ele>436</ele>
        <time>2016-07-17T15:45:36Z</time>
      </trkpt>
      <trkpt lat="45.52875" lon="5.86066">
        <ele>436</ele>
        <time>2016-07-17T15:47:36Z</time>
      </trkpt>
      <trkpt lat="45.52914" lon="5.86108">
        <ele>438</ele>
        <time>2016-07-17T15:49:36Z</time>
      </trkpt>
      <trkpt lat="45.52936" lon="5.86132">
        <ele>440</ele>
        <time>2016-07-17T15:51:36Z</time>
      </trkpt>
      <trkpt lat="45.52956" lon="5.86151">
        <ele>440</ele>
        <time>2016-07-17T15:53:36Z</time>
      </trkpt>
      <trkpt lat="45.52975" lon="5.86168">
        <ele>439</ele>
        <time>2016-07-17T15:55:36Z</time>
      </trkpt>
      <trkpt lat="45.5299" lon="5.8618">
        <ele>439</ele>
        <time>2016-07-17T15:57:36Z</time>
      </trkpt>
      <trkpt lat="45.52998" lon="5.86185">
        <ele>439</ele>
        <time>2016-07-17T15:59:36Z</time>
      </trkpt>
      <trkpt lat="45.53007" lon="5.86189">
        <ele>438</ele>
        <time>2016-07-17T16:01:36Z</time>
      </trkpt>
      <trkpt lat="45.53043" lon="5.86203">
        <ele>436</ele>
        <time>2016-07-17T16:03:36Z</time>
      </trkpt>
      <trkpt lat="45.53067" lon="5.86211">
        <ele>434</ele>
        <time>2016-07-17T16:05:36Z</time>
      </trkpt>
      <trkpt lat="45.53083" lon="5.86216">
        <ele>433</ele>
        <time>2016-07-17T16:07:36Z</time>
      </trkpt>
      <trkpt lat="45.53139" lon="5.86232">
        <ele>420</ele>
        <time>2016-07-17T16:09:36Z</time>
      </trkpt>
      <trkpt lat="45.53158" lon="5.86238">
        <ele>416</ele>
        <time>2016-07-17T16:11:36Z</time>
      </trkpt>
      <trkpt lat="45.53168" lon="5.86243">
        <ele>413</ele>
        <time>2016-07-17T16:13:36Z</time>
      </trkpt>
      <trkpt lat="45.53177" lon="5.86248">
        <ele>413</ele>
        <time>2016-07-17T16:15:36Z</time>
      </trkpt>
      <trkpt lat="45.53188" lon="5.86255">
        <ele>412</ele>
        <time>2016-07-17T16:17:36Z</time>
      </trkpt>
      <trkpt lat="45.53213" lon="5.86274">
        <ele>412</ele>
        <time>2016-07-17T16:19:36Z</time>
      </trkpt>
      <trkpt lat="45.53232" lon="5.86289">
        <ele>411</ele>
        <time>2016-07-17T16:21:36Z</time>
      </trkpt>
      <trkpt lat="45.53239" lon="5.86295">
        <ele>411</ele>
        <time>2016-07-17T16:23:36Z</time>
      </trkpt>
      <trkpt lat="45.53244" lon="5.863">
        <ele>411</ele>
        <time>2016-07-17T16:25:36Z</time>
      </trkpt>
      <trkpt lat="45.53248" lon="5.86304">
        <ele>410</ele>
        <time>2016-07-17T16:27:36Z</time>
      </trkpt>
      <trkpt lat="45.53252" lon="5.86309">
        <ele>410</ele>
        <time>2016-07-17T16:29:36Z</time>
      </trkpt>
      <trkpt lat="45.53257" lon="5.86316">
        <ele>410</ele>
        <time>2016-07-17T16:31:36Z</time>
      </trkpt>
      <trkpt lat="45.53262" lon="5.86326">
        <ele>411</ele>
        <time>2016-07-17T16:33:36Z</time>
      </trkpt>
      <trkpt lat="45.5328" lon="5.86358">
        <ele>412</ele>
        <time>2016-07-17T16:35:36Z</time>
      </trkpt>
      <trkpt lat="45.53293" lon="5.86388">
        <ele>412</ele>
        <time>2016-07-17T16:37:36Z</time>
      </trkpt>
      <trkpt lat="45.53306" lon="5.86418">
        <ele>410</ele>
        <time>2016-07-17T16:39:36Z</time>
      </trkpt>
      <trkpt lat="45.53312" lon="5.86432">
        <ele>410</ele>
        <time>2016-07-17T16:41:36Z</time>
      </trkpt>
      <trkpt lat="45.53315" lon="5.86438">
        <ele>410</ele>
        <time>2016-07-17T16:43:36Z</time>
      </trkpt>
      <trkpt lat="45.53317" lon="5.86443">
        <ele>409</ele>
        <time>2016-07-17T16:45:36Z</time>
      </trkpt>
      <trkpt lat="45.5332" lon="5.86447">
        <ele>409</ele>
        <time>2016-07-17T16:47:36Z</time>
      </trkpt>
      <trkpt lat="45.53323" lon="5.8645">
        <ele>408</ele>
        <time>2016-07-17T16:49:36Z</time>
      </trkpt>
      <trkpt lat="45.53326" lon="5.86451">
        <ele>407</ele>
        <time>2016-07-17T16:51:36Z</time>
      </trkpt>
      <trkpt lat="45.53341" lon="5.86455">
        <ele>404</ele>
        <time>2016-07-17T16:53:36Z</time>
      </trkpt>
      <trkpt lat="45.53347" lon="5.86458">
        <ele>404</ele>
        <time>2016-07-17T16:55:36Z</time>
      </trkpt>
      <trkpt lat="45.53352" lon="5.86461">
        <ele>404</ele>
        <time>2016-07-17T16:57:36Z</time>
      </trkpt>
      <trkpt lat="45.53356" lon="5.86464">
        <ele>404</ele>
        <time>2016-07-17T16:59:36Z</time>
      </trkpt>
      <trkpt lat="45.5336" lon="5.86468">
        <ele>404</ele>
        <time>2016-07-17T17:01:36Z</time>
      </trkpt>
      <trkpt lat="45.53367" lon="5.86478">
        <ele>404</ele>
        <time>2016-07-17T17:03:36Z</time>
      </trkpt>
      <trkpt lat="45.53375" lon="5.8649">
        <ele>403</ele>
        <time>2016-07-17T17:05:36Z</time>
      </trkpt>
      <trkpt lat="45.53389" lon="5.86509">
        <ele>403</ele>
        <time>2016-07-17T17:07:36Z</time>
      </trkpt>
      <trkpt lat="45.534" lon="5.86524">
        <ele>402</ele>
        <time>2016-07-17T17:09:36Z</time>
      </trkpt>
      <trkpt lat="45.53407" lon="5.86533">
        <ele>402</ele>
        <time>2016-07-17T17:11:36Z</time>
      </trkpt>
      <trkpt lat="45.53414" lon="5.86539">
        <ele>401</ele>
        <time>2016-07-17T17:13:36Z</time>
      </trkpt>
      <trkpt lat="45.5342" lon="5.86545">
        <ele>401</ele>
        <time>2016-07-17T17:15:36Z</time>
      </trkpt>
      <trkpt lat="45.53424" lon="5.86548">
        <ele>401</ele>
        <time>2016-07-17T17:17:36Z</time>
      </trkpt>
      <trkpt lat="45.53432" lon="5.86553">
        <ele>401</ele>
        <time>2016-07-17T17:19:36Z</time>
      </trkpt>
      <trkpt lat="45.5344" lon="5.86557">
        <ele>401</ele>
        <time>2016-07-17T17:21:36Z</time>
      </trkpt>
      <trkpt lat="45.53474" lon="5.86571">
        <ele>398</ele>
        <time>2016-07-17T17:23:36Z</time>
      </trkpt>
      <trkpt lat="45.53481" lon="5.86575">
        <ele>397</ele>
        <time>2016-07-17T17:25:36Z</time>
      </trkpt>
      <trkpt lat="45.5349" lon="5.86579">
        <ele>396</ele>
        <time>2016-07-17T17:27:36Z</time>
      </trkpt>
      <trkpt lat="45.53496" lon="5.86583">
        <ele>395</ele>
        <time>2016-07-17T17:29:36Z</time>
      </trkpt>
      <trkpt lat="45.53501" lon="5.86586">
        <ele>395</ele>
        <time>2016-07-17T17:31:36Z</time>
      </trkpt>
      <trkpt lat="45.53508" lon="5.86591">
        <ele>396</ele>
        <time>2016-07-17T17:33:36Z</time>
      </trkpt>
      <trkpt lat="45.53515" lon="5.86596">
        <ele>396</ele>
        <time>2016-07-17T17:35:36Z</time>
      </trkpt>
      <trkpt lat="45.53541" lon="5.86619">
        <ele>397</ele>
        <time>2016-07-17T17:37:36Z</time>
      </trkpt>
      <trkpt lat="45.53557" lon="5.86635">
        <ele>397</ele>
        <time>2016-07-17T17:39:36Z</time>
      </trkpt>
      <trkpt lat="45.53629" lon="5.867">
        <ele>394</ele>
        <time>2016-07-17T17:41:36Z</time>
      </trkpt>
      <trkpt lat="45.53674" lon="5.86741">
        <ele>392</ele>
        <time>2016-07-17T17:43:36Z</time>
      </trkpt>
      <trkpt lat="45.53702" lon="5.86766">
        <ele>391</ele>
        <time>2016-07-17T17:45:36Z</time>
      </trkpt>
      <trkpt lat="45.53712" lon="5.86775">
        <ele>390</ele>
        <time>2016-07-17T17:47:36Z</time>
      </trkpt>
      <trkpt lat="45.5372" lon="5.86784">
        <ele>389</ele>
        <time>2016-07-17T17:49:36Z</time>
      </trkpt>
      <trkpt lat="45.53728" lon="5.86792">
        <ele>388</ele>
        <time>2016-07-17T17:51:36Z</time>
      </trkpt>
      <trkpt lat="45.53735" lon="5.86799">
        <ele>386</ele>
        <time>2016-07-17T17:53:36Z</time>
      </trkpt>
      <trkpt lat="45.53743" lon="5.86809">
        <ele>385</ele>
        <time>2016-07-17T17:55:36Z</time>
      </trkpt>
      <trkpt lat="45.53751" lon="5.8682">
        <ele>383</ele>
        <time>2016-07-17T17:57:36Z</time>
      </trkpt>
      <trkpt lat="45.5376" lon="5.86832">
        <ele>383</ele>
        <time>2016-07-17T17:59:36Z</time>
      </trkpt>
      <trkpt lat="45.53772" lon="5.86852">
        <ele>386</ele>
        <time>2016-07-17T18:01:36Z</time>
      </trkpt>
      <trkpt lat="45.53795" lon="5.8689">
        <ele>387</ele>
        <time>2016-07-17T18:03:36Z</time>
      </trkpt>
      <trkpt lat="45.53831" lon="5.86955">
        <ele>382</ele>
        <time>2016-07-17T18:05:36Z</time>
      </trkpt>
      <trkpt lat="45.53943" lon="5.87142">
        <ele>380</ele>
        <time>2016-07-17T18:07:36Z</time>
      </trkpt>
      <trkpt lat="45.53959" lon="5.87175">
        <ele>379</ele>
        <time>2016-07-17T18:09:36Z</time>
      </trkpt>
      <trkpt lat="45.53973" lon="5.87204">
        <ele>379</ele>
        <time>2016-07-17T18:11:36Z</time>
      </trkpt>
      <trkpt lat="45.53985" lon="5.87229">
        <ele>377</ele>
        <time>2016-07-17T18:13:36Z</time>
      </trkpt>
      <trkpt lat="45.54043" lon="5.87352">
        <ele>377</ele>
        <time>2016-07-17T18:15:36Z</time>
      </trkpt>
      <trkpt lat="45.54056" lon="5.87382">
        <ele>377</ele>
        <time>2016-07-17T18:17:36Z</time>
      </trkpt>
      <trkpt lat="45.5406" lon="5.87391">
        <ele>376</ele>
        <time>2016-07-17T18:19:36Z</time>
      </trkpt>
      <trkpt lat="45.54065" lon="5.87406">
        <ele>375</ele>
        <time>2016-07-17T18:21:36Z</time>
      </trkpt>
      <trkpt lat="45.54068" lon="5.87422">
        <ele>375</ele>
        <time>2016-07-17T18:23:36Z</time>
      </trkpt>
      <trkpt lat="45.5407" lon="5.87452">
        <ele>374</ele>
        <time>2016-07-17T18:25:36Z</time>
      </trkpt>
      <trkpt lat="45.5407" lon="5.87477">
        <ele>375</ele>
        <time>2016-07-17T18:27:36Z</time>
      </trkpt>
      <trkpt lat="45.54073" lon="5.87512">
        <ele>374</ele>
        <time>2016-07-17T18:29:36Z</time>
      </trkpt>
      <trkpt lat="45.54077" lon="5.87538">
        <ele>372</ele>
        <time>2016-07-17T18:31:36Z</time>
      </trkpt>
      <trkpt lat="45.54082" lon="5.87558">
        <ele>369</ele>
        <time>2016-07-17T18:33:36Z</time>
      </trkpt>
      <trkpt lat="45.54087" lon="5.87571">
        <ele>367</ele>
        <time>2016-07-17T18:35:36Z</time>
      </trkpt>
      <trkpt lat="45.54099" lon="5.87598">
        <ele>368</ele>
        <time>2016-07-17T18:37:36Z</time>
      </trkpt>
      <trkpt lat="45.54117" lon="5.87638">
        <ele>368</ele>
        <time>2016-07-17T18:39:36Z</time>
      </trkpt>
      <trkpt lat="45.54136" lon="5.8768">
        <ele>367</ele>
        <time>2016-07-17T18:41:36Z</time>
      </trkpt>
      <trkpt lat="45.54153" lon="5.87718">
        <ele>365</ele>
        <time>2016-07-17T18:43:36Z</time>
      </trkpt>
      <trkpt lat="45.54175" lon="5.87767">
        <ele>361</ele>
        <time>2016-07-17T18:45:36Z</time>
      </trkpt>
      <trkpt lat="45.54188" lon="5.87789">
        <ele>362</ele>
        <time>2016-07-17T18:47:36Z</time>
      </trkpt>
      <trkpt lat="45.54196" lon="5.87799">
        <ele>362</ele>
        <time>2016-07-17T18:49:36Z</time>
      </trkpt>
      <trkpt lat="45.54211" lon="5.87816">
        <ele>361</ele>
        <time>2016-07-17T18:51:36Z</time>
      </trkpt>
      <trkpt lat="45.5424" lon="5.87847">
        <ele>358</ele>
        <time>2016-07-17T18:53:36Z</time>
      </trkpt>
      <trkpt lat="45.54273" lon="5.87879">
        <ele>356</ele>
        <time>2016-07-17T18:55:36Z</time>
      </trkpt>
      <trkpt lat="45.54279" lon="5.87885">
        <ele>356</ele>
        <time>2016-07-17T18:57:36Z</time>
      </trkpt>
      <trkpt lat="45.54294" lon="5.87896">
        <ele>355</ele>
        <time>2016-07-17T18:59:36Z</time>
      </trkpt>
      <trkpt lat="45.54323" lon="5.87917">
        <ele>352</ele>
        <time>2016-07-17T19:01:36Z</time>
      </trkpt>
      <trkpt lat="45.54334" lon="5.87928">
        <ele>353</ele>
        <time>2016-07-17T19:03:36Z</time>
      </trkpt>
      <trkpt lat="45.5434" lon="5.87937">
        <ele>354</ele>
        <time>2016-07-17T19:05:36Z</time>
      </trkpt>
      <trkpt lat="45.54349" lon="5.87953">
        <ele>355</ele>
        <time>2016-07-17T19:07:36Z</time>
      </trkpt>
      <trkpt lat="45.54363" lon="5.87983">
        <ele>357</ele>
        <time>2016-07-17T19:09:36Z</time>
      </trkpt>
      <trkpt lat="45.54444" lon="5.88168">
        <ele>353</ele>
        <time>2016-07-17T19:11:36Z</time>
      </trkpt>
      <trkpt lat="45.54462" lon="5.88208">
        <ele>352</ele>
        <time>2016-07-17T19:13:36Z</time>
      </trkpt>
      <trkpt lat="45.5447" lon="5.88228">
        <ele>352</ele>
        <time>2016-07-17T19:15:36Z</time>
      </trkpt>
      <trkpt lat="45.54477" lon="5.88246">
        <ele>351</ele>
        <time>2016-07-17T19:17:36Z</time>
      </trkpt>
      <trkpt lat="45.54484" lon="5.88273">
        <ele>351</ele>
        <time>2016-07-17T19:19:36Z</time>
      </trkpt>
      <trkpt lat="45.54488" lon="5.88287">
        <ele>351</ele>
        <time>2016-07-17T19:21:36Z</time>
      </trkpt>
      <trkpt lat="45.54498" lon="5.8831">
        <ele>349</ele>
        <time>2016-07-17T19:23:36Z</time>
      </trkpt>
      <trkpt lat="45.54533" lon="5.88384">
        <ele>348</ele>
        <time>2016-07-17T19:25:36Z</time>
      </trkpt>
      <trkpt lat="45.5457" lon="5.88461">
        <ele>344</ele>
        <time>2016-07-17T19:27:36Z</time>
      </trkpt>
      <trkpt lat="45.54583" lon="5.8849">
        <ele>341</ele>
        <time>2016-07-17T19:29:36Z</time>
      </trkpt>
      <trkpt lat="45.54597" lon="5.88519">
        <ele>340</ele>
        <time>2016-07-17T19:31:36Z</time>
      </trkpt>
      <trkpt lat="45.546" lon="5.88527">
        <ele>341</ele>
        <time>2016-07-17T19:33:36Z</time>
      </trkpt>
      <trkpt lat="45.54604" lon="5.88535">
        <ele>341</ele>
        <time>2016-07-17T19:35:36Z</time>
      </trkpt>
      <trkpt lat="45.54617" lon="5.88564">
        <ele>341</ele>
        <time>2016-07-17T19:37:36Z</time>
      </trkpt>
      <trkpt lat="45.5462" lon="5.8857">
        <ele>341</ele>
        <time>2016-07-17T19:39:36Z</time>
      </trkpt>
      <trkpt lat="45.54624" lon="5.88583">
        <ele>341</ele>
        <time>2016-07-17T19:41:36Z</time>
      </trkpt>
      <trkpt lat="45.54649" lon="5.88639">
        <ele>340</ele>
        <time>2016-07-17T19:43:36Z</time>
      </trkpt>
      <trkpt lat="45.54711" lon="5.88771">
        <ele>338</ele>
        <time>2016-07-17T19:45:36Z</time>
      </trkpt>
      <trkpt lat="45.5472" lon="5.88792">
        <ele>338</ele>
        <time>2016-07-17T19:47:36Z</time>
      </trkpt>
      <trkpt lat="45.54727" lon="5.888">
        <ele>337</ele>
        <time>2016-07-17T19:49:36Z</time>
      </trkpt>
      <trkpt lat="45.5474" lon="5.88822">
        <ele>335</ele>
        <time>2016-07-17T19:51:36Z</time>
      </trkpt>
      <trkpt lat="45.54748" lon="5.88834">
        <ele>333</ele>
        <time>2016-07-17T19:53:36Z</time>
      </trkpt>
      <trkpt lat="45.54761" lon="5.88852">
        <ele>334</ele>
        <time>2016-07-17T19:55:36Z</time>
      </trkpt>
      <trkpt lat="45.54787" lon="5.88883">
        <ele>334</ele>
        <time>2016-07-17T19:57:36Z</time>
      </trkpt>
      <trkpt lat="45.54805" lon="5.88899">
        <ele>332</ele>
        <time>2016-07-17T19:59:36Z</time>
      </trkpt>
      <trkpt lat="45.54817" lon="5.88908">
        <ele>330</ele>
        <time>2016-07-17T20:01:36Z</time>
      </trkpt>
      <trkpt lat="45.54831" lon="5.88917">
        <ele>327</ele>
        <time>2016-07-17T20:03:36Z</time>
      </trkpt>
      <trkpt lat="45.54838" lon="5.88923">
        <ele>328</ele>
        <time>2016-07-17T20:05:36Z</time>
      </trkpt>
      <trkpt lat="45.54846" lon="5.88928">
        <ele>329</ele>
        <time>2016-07-17T20:07:36Z</time>
      </trkpt>
      <trkpt lat="45.54857" lon="5.88935">
        <ele>330</ele>
        <time>2016-07-17T20:09:36Z</time>
      </trkpt>
      <trkpt lat="45.54869" lon="5.88942">
        <ele>330</ele>
        <time>2016-07-17T20:11:36Z</time>
      </trkpt>
      <trkpt lat="45.54892" lon="5.88955">
        <ele>331</ele>
        <time>2016-07-17T20:13:36Z</time>
      </trkpt>
      <trkpt lat="45.54912" lon="5.88966">
        <ele>330</ele>
        <time>2016-07-17T20:15:36Z</time>
      </trkpt>
      <trkpt lat="45.54924" lon="5.88971">
        <ele>330</ele>
        <time>2016-07-17T20:17:36Z</time>
      </trkpt>
      <trkpt lat="45.54961" lon="5.88986">
        <ele>329</ele>
        <time>2016-07-17T20:19:36Z</time>
      </trkpt>
      <trkpt lat="45.54996" lon="5.89">
        <ele>328</ele>
        <time>2016-07-17T20:21:36Z</time>
      </trkpt>
      <trkpt lat="45.55034" lon="5.89015">
        <ele>326</ele>
        <time>2016-07-17T20:23:36Z</time>
      </trkpt>
      <trkpt lat="45.55054" lon="5.89022">
        <ele>325</ele>
        <time>2016-07-17T20:25:36Z</time>
      </trkpt>
      <trkpt lat="45.55069" lon="5.89023">
        <ele>324</ele>
        <time>2016-07-17T20:27:36Z</time>
      </trkpt>
      <trkpt lat="45.55081" lon="5.89024">
        <ele>324</ele>
        <time>2016-07-17T20:29:36Z</time>
      </trkpt>
      <trkpt lat="45.55088" lon="5.89026">
        <ele>324</ele>
        <time>2016-07-17T20:31:36Z</time>
      </trkpt>
      <trkpt lat="45.55091" lon="5.89028">
        <ele>324</ele>
        <time>2016-07-17T20:33:36Z</time>
      </trkpt>
      <trkpt lat="45.55095" lon="5.89031">
        <ele>323</ele>
        <time>2016-07-17T20:35:36Z</time>
      </trkpt>
      <trkpt lat="45.5511" lon="5.89047">
        <ele>322</ele>
        <time>2016-07-17T20:37:36Z</time>
      </trkpt>
      <trkpt lat="45.55113" lon="5.89049">
        <ele>322</ele>
        <time>2016-07-17T20:39:36Z</time>
      </trkpt>
      <trkpt lat="45.5512" lon="5.89052">
        <ele>322</ele>
        <time>2016-07-17T20:41:36Z</time>
      </trkpt>
      <trkpt lat="45.55164" lon="5.89069">
        <ele>321</ele>
        <time>2016-07-17T20:43:36Z</time>
      </trkpt>
      <trkpt lat="45.55324" lon="5.89133">
        <ele>314</ele>
        <time>2016-07-17T20:45:36Z</time>
      </trkpt>
      <trkpt lat="45.55344" lon="5.89141">
        <ele>314</ele>
        <time>2016-07-17T20:47:36Z</time>
      </trkpt>
      <trkpt lat="45.55369" lon="5.89151">
        <ele>313</ele>
        <time>2016-07-17T20:49:36Z</time>
      </trkpt>
      <trkpt lat="45.5539" lon="5.89171">
        <ele>313</ele>
        <time>2016-07-17T20:51:36Z</time>
      </trkpt>
      <trkpt lat="45.5539" lon="5.89172">
        <ele>313</ele>
        <time>2016-07-17T20:53:36Z</time>
      </trkpt>
      <trkpt lat="45.55391" lon="5.89173">
        <ele>313</ele>
        <time>2016-07-17T20:55:36Z</time>
      </trkpt>
      <trkpt lat="45.55391" lon="5.89174">
        <ele>313</ele>
        <time>2016-07-17T20:57:36Z</time>
      </trkpt>
      <trkpt lat="45.55391" lon="5.89176">
        <ele>313</ele>
        <time>2016-07-17T20:59:36Z</time>
      </trkpt>
      <trkpt lat="45.55391" lon="5.89177">
        <ele>313</ele>
        <time>2016-07-17T21:01:36Z</time>
      </trkpt>
      <trkpt lat="45.55392" lon="5.89178">
        <ele>313</ele>
        <time>2016-07-17T21:03:36Z</time>
      </trkpt>
      <trkpt lat="45.55392" lon="5.89179">
        <ele>313</ele>
        <time>2016-07-17T21:05:36Z</time>
      </trkpt>
      <trkpt lat="45.55393" lon="5.8918">
        <ele>313</ele>
        <time>2016-07-17T21:07:36Z</time>
      </trkpt>
      <trkpt lat="45.55393" lon="5.89181">
        <ele>313</ele>
        <time>2016-07-17T21:09:36Z</time>
      </trkpt>
      <trkpt lat="45.55394" lon="5.89182">
        <ele>313</ele>
        <time>2016-07-17T21:11:36Z</time>
      </trkpt>
      <trkpt lat="45.55394" lon="5.89183">
        <ele>313</ele>
        <time>2016-07-17T21:13:36Z</time>
      </trkpt>
      <trkpt lat="45.55395" lon="5.89184">
        <ele>313</ele>
        <time>2016-07-17T21:15:36Z</time>
      </trkpt>
      <trkpt lat="45.55396" lon="5.89184">
        <ele>313</ele>
        <time>2016-07-17T21:17:36Z</time>
      </trkpt>
      <trkpt lat="45.55397" lon="5.89186">
        <ele>313</ele>
        <time>2016-07-17T21:19:36Z</time>
      </trkpt>
      <trkpt lat="45.55398" lon="5.89187">
        <ele>313</ele>
        <time>2016-07-17T21:21:36Z</time>
      </trkpt>
      <trkpt lat="45.55399" lon="5.89187">
        <ele>313</ele>
        <time>2016-07-17T21:23:36Z</time>
      </trkpt>
      <trkpt lat="45.55399" lon="5.89188">
        <ele>313</ele>
        <time>2016-07-17T21:25:36Z</time>
      </trkpt>
      <trkpt lat="45.554" lon="5.89188">
        <ele>313</ele>
        <time>2016-07-17T21:27:36Z</time>
      </trkpt>
      <trkpt lat="45.55401" lon="5.89188">
        <ele>313</ele>
        <time>2016-07-17T21:29:36Z</time>
      </trkpt>
      <trkpt lat="45.55402" lon="5.89188">
        <ele>313</ele>
        <time>2016-07-17T21:31:36Z</time>
      </trkpt>
      <trkpt lat="45.55403" lon="5.89189">
        <ele>313</ele>
        <time>2016-07-17T21:33:36Z</time>
      </trkpt>
      <trkpt lat="45.55404" lon="5.89189">
        <ele>313</ele>
        <time>2016-07-17T21:35:36Z</time>
      </trkpt>
      <trkpt lat="45.55405" lon="5.89189">
        <ele>313</ele>
        <time>2016-07-17T21:37:36Z</time>
      </trkpt>
      <trkpt lat="45.55406" lon="5.89189">
        <ele>313</ele>
        <time>2016-07-17T21:39:36Z</time>
      </trkpt>
      <trkpt lat="45.55406" lon="5.89188">
        <ele>313</ele>
        <time>2016-07-17T21:41:36Z</time>
      </trkpt>
      <trkpt lat="45.55407" lon="5.89188">
        <ele>313</ele>
        <time>2016-07-17T21:43:36Z</time>
      </trkpt>
      <trkpt lat="45.55408" lon="5.89188">
        <ele>313</ele>
        <time>2016-07-17T21:45:36Z</time>
      </trkpt>
      <trkpt lat="45.55409" lon="5.89187">
        <ele>313</ele>
        <time>2016-07-17T21:47:36Z</time>
      </trkpt>
      <trkpt lat="45.5541" lon="5.89187">
        <ele>313</ele>
        <time>2016-07-17T21:49:36Z</time>
      </trkpt>
      <trkpt lat="45.55411" lon="5.89186">
        <ele>313</ele>
        <time>2016-07-17T21:51:36Z</time>
      </trkpt>
      <trkpt lat="45.55411" lon="5.89185">
        <ele>313</ele>
        <time>2016-07-17T21:53:36Z</time>
      </trkpt>
      <trkpt lat="45.55412" lon="5.89185">
        <ele>313</ele>
        <time>2016-07-17T21:55:36Z</time>
      </trkpt>
      <trkpt lat="45.55413" lon="5.89184">
        <ele>313</ele>
        <time>2016-07-17T21:57:36Z</time>
      </trkpt>
      <trkpt lat="45.55413" lon="5.89183">
        <ele>313</ele>
        <time>2016-07-17T21:59:36Z</time>
      </trkpt>
      <trkpt lat="45.55414" lon="5.89182">
        <ele>313</ele>
        <time>2016-07-17T22:01:36Z</time>
      </trkpt>
      <trkpt lat="45.55415" lon="5.89181">
        <ele>313</ele>
        <time>2016-07-17T22:03:36Z</time>
      </trkpt>
      <trkpt lat="45.55415" lon="5.8918">
        <ele>313</ele>
        <time>2016-07-17T22:05:36Z</time>
      </trkpt>
      <trkpt lat="45.55416" lon="5.89178">
        <ele>314</ele>
        <time>2016-07-17T22:07:36Z</time>
      </trkpt>
      <trkpt lat="45.55436" lon="5.89177">
        <ele>313</ele>
        <time>2016-07-17T22:09:36Z</time>
      </trkpt>
      <trkpt lat="45.55456" lon="5.89188">
        <ele>311</ele>
        <time>2016-07-17T22:11:36Z</time>
      </trkpt>
      <trkpt lat="45.55473" lon="5.892">
        <ele>310</ele>
        <time>2016-07-17T22:13:36Z</time>
      </trkpt>
      <trkpt lat="45.55493" lon="5.89219">
        <ele>309</ele>
        <time>2016-07-17T22:15:36Z</time>
      </trkpt>
      <trkpt lat="45.55519" lon="5.89244">
        <ele>307</ele>
        <time>2016-07-17T22:17:36Z</time>
      </trkpt>
      <trkpt lat="45.55533" lon="5.89257">
        <ele>307</ele>
        <time>2016-07-17T22:19:36Z</time>
      </trkpt>
      <trkpt lat="45.55591" lon="5.89313">
        <ele>306</ele>
        <time>2016-07-17T22:21:36Z</time>
      </trkpt>
      <trkpt lat="45.55613" lon="5.89336">
        <ele>306</ele>
        <time>2016-07-17T22:23:36Z</time>
      </trkpt>
      <trkpt lat="45.55622" lon="5.89342">
        <ele>305</ele>
        <time>2016-07-17T22:25:36Z</time>
      </trkpt>
      <trkpt lat="45.55622" lon="5.89343">
        <ele>305</ele>
        <time>2016-07-17T22:27:36Z</time>
      </trkpt>
      <trkpt lat="45.55621" lon="5.89343">
        <ele>305</ele>
        <time>2016-07-17T22:29:36Z</time>
      </trkpt>
      <trkpt lat="45.55621" lon="5.89344">
        <ele>305</ele>
        <time>2016-07-17T22:31:36Z</time>
      </trkpt>
      <trkpt lat="45.55621" lon="5.89345">
        <ele>305</ele>
        <time>2016-07-17T22:33:36Z</time>
      </trkpt>
      <trkpt lat="45.5562" lon="5.89346">
        <ele>305</ele>
        <time>2016-07-17T22:35:36Z</time>
      </trkpt>
      <trkpt lat="45.5562" lon="5.89347">
        <ele>305</ele>
        <time>2016-07-17T22:37:36Z</time>
      </trkpt>
      <trkpt lat="45.5562" lon="5.89348">
        <ele>305</ele>
        <time>2016-07-17T22:39:36Z</time>
      </trkpt>
      <trkpt lat="45.5562" lon="5.89349">
        <ele>305</ele>
        <time>2016-07-17T22:41:36Z</time>
      </trkpt>
      <trkpt lat="45.5562" lon="5.8935">
        <ele>305</ele>
        <time>2016-07-17T22:43:36Z</time>
      </trkpt>
      <trkpt lat="45.5562" lon="5.89351">
        <ele>305</ele>
        <time>2016-07-17T22:45:36Z</time>
      </trkpt>
      <trkpt lat="45.5562" lon="5.89352">
        <ele>305</ele>
        <time>2016-07-17T22:47:36Z</time>
      </trkpt>
      <trkpt lat="45.55621" lon="5.89352">
        <ele>305</ele>
        <time>2016-07-17T22:49:36Z</time>
      </trkpt>
      <trkpt lat="45.55621" lon="5.89353">
        <ele>305</ele>
        <time>2016-07-17T22:51:36Z</time>
      </trkpt>
      <trkpt lat="45.55621" lon="5.89354">
        <ele>305</ele>
        <time>2016-07-17T22:53:36Z</time>
      </trkpt>
      <trkpt lat="45.55622" lon="5.89354">
        <ele>305</ele>
        <time>2016-07-17T22:55:36Z</time>
      </trkpt>
      <trkpt lat="45.55622" lon="5.89355">
        <ele>305</ele>
        <time>2016-07-17T22:57:36Z</time>
      </trkpt>
      <trkpt lat="45.55622" lon="5.89356">
        <ele>305</ele>
        <time>2016-07-17T22:59:36Z</time>
      </trkpt>
      <trkpt lat="45.55623" lon="5.89356">
        <ele>305</ele>
        <time>2016-07-17T23:01:36Z</time>
      </trkpt>
      <trkpt lat="45.55623" lon="5.89357">
        <ele>305</ele>
        <time>2016-07-17T23:03:36Z</time>
      </trkpt>
      <trkpt lat="45.55624" lon="5.89357">
        <ele>305</ele>
        <time>2016-07-17T23:05:36Z</time>
      </trkpt>
      <trkpt lat="45.55625" lon="5.89357">
        <ele>305</ele>
        <time>2016-07-17T23:07:36Z</time>
      </trkpt>
      <trkpt lat="45.55625" lon="5.89358">
        <ele>305</ele>
        <time>2016-07-17T23:09:36Z</time>
      </trkpt>
      <trkpt lat="45.55626" lon="5.89358">
        <ele>305</ele>
        <time>2016-07-17T23:11:36Z</time>
      </trkpt>
      <trkpt lat="45.55627" lon="5.89358">
        <ele>305</ele>
        <time>2016-07-17T23:13:36Z</time>
      </trkpt>
      <trkpt lat="45.55628" lon="5.89358">
        <ele>305</ele>
        <time>2016-07-17T23:15:36Z</time>
      </trkpt>
      <trkpt lat="45.55628" lon="5.89357">
        <ele>305</ele>
        <time>2016-07-17T23:17:36Z</time>
      </trkpt>
      <trkpt lat="45.55629" lon="5.89357">
        <ele>305</ele>
        <time>2016-07-17T23:19:36Z</time>
      </trkpt>
      <trkpt lat="45.5563" lon="5.89357">
        <ele>305</ele>
        <time>2016-07-17T23:21:36Z</time>
      </trkpt>
      <trkpt lat="45.5563" lon="5.89356">
        <ele>305</ele>
        <time>2016-07-17T23:23:36Z</time>
      </trkpt>
      <trkpt lat="45.55631" lon="5.89356">
        <ele>305</ele>
        <time>2016-07-17T23:25:36Z</time>
      </trkpt>
      <trkpt lat="45.55631" lon="5.89355">
        <ele>305</ele>
        <time>2016-07-17T23:27:36Z</time>
      </trkpt>
      <trkpt lat="45.55631" lon="5.89354">
        <ele>305</ele>
        <time>2016-07-17T23:29:36Z</time>
      </trkpt>
      <trkpt lat="45.55632" lon="5.89354">
        <ele>305</ele>
        <time>2016-07-17T23:31:36Z</time>
      </trkpt>
      <trkpt lat="45.55632" lon="5.89353">
        <ele>305</ele>
        <time>2016-07-17T23:33:36Z</time>
      </trkpt>
      <trkpt lat="45.55635" lon="5.89356">
        <ele>305</ele>
        <time>2016-07-17T23:35:36Z</time>
      </trkpt>
      <trkpt lat="45.55639" lon="5.89359">
        <ele>305</ele>
        <time>2016-07-17T23:37:36Z</time>
      </trkpt>
      <trkpt lat="45.55643" lon="5.89363">
        <ele>305</ele>
        <time>2016-07-17T23:39:36Z</time>
      </trkpt>
      <trkpt lat="45.55646" lon="5.89366">
        <ele>305</ele>
        <time>2016-07-17T23:41:36Z</time>
      </trkpt>
      <trkpt lat="45.55675" lon="5.89395">
        <ele>304</ele>
        <time>2016-07-17T23:43:36Z</time>
      </trkpt>
      <trkpt lat="45.55721" lon="5.89441">
        <ele>303</ele>
        <time>2016-07-17T23:45:36Z</time>
      </trkpt>
      <trkpt lat="45.55739" lon="5.89458">
        <ele>302</ele>
        <time>2016-07-17T23:47:36Z</time>
      </trkpt>
      <trkpt lat="45.55793" lon="5.8951">
        <ele>301</ele>
        <time>2016-07-17T23:49:36Z</time>
      </trkpt>
      <trkpt lat="45.55807" lon="5.89524">
        <ele>301</ele>
        <time>2016-07-17T23:51:36Z</time>
      </trkpt>
      <trkpt lat="45.55813" lon="5.89533">
        <ele>301</ele>
        <time>2016-07-17T23:53:36Z</time>
      </trkpt>
      <trkpt lat="45.55864" lon="5.89582">
        <ele>300</ele>
        <time>2016-07-17T23:55:36Z</time>
      </trkpt>
      <trkpt lat="45.5589" lon="5.89604">
        <ele>299</ele>
        <time>2016-07-17T23:57:36Z</time>
      </trkpt>
      <trkpt lat="45.55894" lon="5.89607">
        <ele>298</ele>
        <time>2016-07-17T23:59:36Z</time>
      </trkpt>
      <trkpt lat="45.55898" lon="5.89612">
        <ele>298</ele>
        <time>2016-07-18T00:01:36Z</time>
      </trkpt>
      <trkpt lat="45.55905" lon="5.89621">
        <ele>298</ele>
        <time>2016-07-18T00:03:36Z</time>
      </trkpt>
      <trkpt lat="45.55905" lon="5.89624">
        <ele>298</ele>
        <time>2016-07-18T00:05:36Z</time>
      </trkpt>
      <trkpt lat="45.55905" lon="5.89627">
        <ele>298</ele>
        <time>2016-07-18T00:07:36Z</time>
      </trkpt>
      <trkpt lat="45.55905" lon="5.89631">
        <ele>298</ele>
        <time>2016-07-18T00:09:36Z</time>
      </trkpt>
      <trkpt lat="45.55906" lon="5.89634">
        <ele>298</ele>
        <time>2016-07-18T00:11:36Z</time>
      </trkpt>
      <trkpt lat="45.55906" lon="5.89637">
        <ele>298</ele>
        <time>2016-07-18T00:13:36Z</time>
      </trkpt>
      <trkpt lat="45.55907" lon="5.8964">
        <ele>298</ele>
        <time>2016-07-18T00:15:36Z</time>
      </trkpt>
      <trkpt lat="45.55908" lon="5.89643">
        <ele>297</ele>
        <time>2016-07-18T00:17:36Z</time>
      </trkpt>
      <trkpt lat="45.55911" lon="5.89648">
        <ele>297</ele>
        <time>2016-07-18T00:19:36Z</time>
      </trkpt>
      <trkpt lat="45.55912" lon="5.89649">
        <ele>297</ele>
        <time>2016-07-18T00:21:36Z</time>
      </trkpt>
      <trkpt lat="45.55913" lon="5.89651">
        <ele>297</ele>
        <time>2016-07-18T00:23:36Z</time>
      </trkpt>
      <trkpt lat="45.55915" lon="5.89652">
        <ele>297</ele>
        <time>2016-07-18T00:25:36Z</time>
      </trkpt>
      <trkpt lat="45.55916" lon="5.89653">
        <ele>297</ele>
        <time>2016-07-18T00:27:36Z</time>
      </trkpt>
      <trkpt lat="45.55917" lon="5.89654">
        <ele>297</ele>
        <time>2016-07-18T00:29:36Z</time>
      </trkpt>
      <trkpt lat="45.55918" lon="5.89655">
        <ele>297</ele>
        <time>2016-07-18T00:31:36Z</time>
      </trkpt>
      <trkpt lat="45.5592" lon="5.89656">
        <ele>297</ele>
        <time>2016-07-18T00:33:36Z</time>
      </trkpt>
      <trkpt lat="45.55921" lon="5.89657">
        <ele>297</ele>
        <time>2016-07-18T00:35:36Z</time>
      </trkpt>
      <trkpt lat="45.55923" lon="5.89657">
        <ele>297</ele>
        <time>2016-07-18T00:37:36Z</time>
      </trkpt>
      <trkpt lat="45.55925" lon="5.89657">
        <ele>297</ele>
        <time>2016-07-18T00:39:36Z</time>
      </trkpt>
      <trkpt lat="45.55926" lon="5.89657">
        <ele>297</ele>
        <time>2016-07-18T00:41:36Z</time>
      </trkpt>
      <trkpt lat="45.55928" lon="5.89657">
        <ele>297</ele>
        <time>2016-07-18T00:43:36Z</time>
      </trkpt>
      <trkpt lat="45.5593" lon="5.89656">
        <ele>297</ele>
        <time>2016-07-18T00:45:36Z</time>
      </trkpt>
      <trkpt lat="45.55931" lon="5.89656">
        <ele>297</ele>
        <time>2016-07-18T00:47:36Z</time>
      </trkpt>
      <trkpt lat="45.55933" lon="5.89655">
        <ele>297</ele>
        <time>2016-07-18T00:49:36Z</time>
      </trkpt>
      <trkpt lat="45.55934" lon="5.89654">
        <ele>297</ele>
        <time>2016-07-18T00:51:36Z</time>
      </trkpt>
      <trkpt lat="45.55984" lon="5.897">
        <ele>295</ele>
        <time>2016-07-18T00:53:36Z</time>
      </trkpt>
      <trkpt lat="45.56019" lon="5.89736">
        <ele>295</ele>
        <time>2016-07-18T00:55:36Z</time>
      </trkpt>
      <trkpt lat="45.56028" lon="5.8974">
        <ele>296</ele>
        <time>2016-07-18T00:57:36Z</time>
      </trkpt>
      <trkpt lat="45.56049" lon="5.89763">
        <ele>296</ele>
        <time>2016-07-18T00:59:36Z</time>
      </trkpt>
      <trkpt lat="45.56059" lon="5.89772">
        <ele>296</ele>
        <time>2016-07-18T01:01:36Z</time>
      </trkpt>
      <trkpt lat="45.56078" lon="5.89788">
        <ele>297</ele>
        <time>2016-07-18T01:03:36Z</time>
      </trkpt>
      <trkpt lat="45.56088" lon="5.89798">
        <ele>297</ele>
        <time>2016-07-18T01:05:36Z</time>
      </trkpt>
      <trkpt lat="45.56127" lon="5.89836">
        <ele>294</ele>
        <time>2016-07-18T01:07:36Z</time>
      </trkpt>
      <trkpt lat="45.56163" lon="5.89874">
        <ele>291</ele>
        <time>2016-07-18T01:09:36Z</time>
      </trkpt>
      <trkpt lat="45.56232" lon="5.89941">
        <ele>289</ele>
        <time>2016-07-18T01:11:36Z</time>
      </trkpt>
      <trkpt lat="45.56236" lon="5.89949">
        <ele>288</ele>
        <time>2016-07-18T01:13:36Z</time>
      </trkpt>
      <trkpt lat="45.56239" lon="5.89956">
        <ele>288</ele>
        <time>2016-07-18T01:15:36Z</time>
      </trkpt>
      <trkpt lat="45.56242" lon="5.89962">
        <ele>288</ele>
        <time>2016-07-18T01:17:36Z</time>
      </trkpt>
      <trkpt lat="45.56245" lon="5.8997">
        <ele>287</ele>
        <time>2016-07-18T01:19:36Z</time>
      </trkpt>
      <trkpt lat="45.56248" lon="5.89979">
        <ele>287</ele>
        <time>2016-07-18T01:21:36Z</time>
      </trkpt>
      <trkpt lat="45.56252" lon="5.89996">
        <ele>286</ele>
        <time>2016-07-18T01:23:36Z</time>
      </trkpt>
      <trkpt lat="45.56253" lon="5.89999">
        <ele>286</ele>
        <time>2016-07-18T01:25:36Z</time>
      </trkpt>
      <trkpt lat="45.56255" lon="5.90003">
        <ele>286</ele>
        <time>2016-07-18T01:27:36Z</time>
      </trkpt>
      <trkpt lat="45.56257" lon="5.90013">
        <ele>286</ele>
        <time>2016-07-18T01:29:36Z</time>
      </trkpt>
      <trkpt lat="45.5626" lon="5.90022">
        <ele>287</ele>
        <time>2016-07-18T01:31:36Z</time>
      </trkpt>
      <trkpt lat="45.56269" lon="5.90055">
        <ele>287</ele>
        <time>2016-07-18T01:33:36Z</time>
      </trkpt>
      <trkpt lat="45.56278" lon="5.90085">
        <ele>287</ele>
        <time>2016-07-18T01:35:36Z</time>
      </trkpt>
      <trkpt lat="45.56319" lon="5.90216">
        <ele>293</ele>
        <time>2016-07-18T01:37:36Z</time>
      </trkpt>
      <trkpt lat="45.56341" lon="5.90284">
        <ele>296</ele>
        <time>2016-07-18T01:39:36Z</time>
      </trkpt>
      <trkpt lat="45.56343" lon="5.90293">
        <ele>296</ele>
        <time>2016-07-18T01:41:36Z</time>
      </trkpt>
      <trkpt lat="45.56343" lon="5.90294">
        <ele>297</ele>
        <time>2016-07-18T01:43:36Z</time>
      </trkpt>
      <trkpt lat="45.56355" lon="5.90328">
        <ele>297</ele>
        <time>2016-07-18T01:45:36Z</time>
      </trkpt>
      <trkpt lat="45.56355" lon="5.90328">
        <ele>297</ele>
        <time>2016-07-18T01:47:36Z</time>
      </trkpt>
      <trkpt lat="45.56354" lon="5.9033">
        <ele>297</ele>
        <time>2016-07-18T01:49:36Z</time>
      </trkpt>
      <trkpt lat="45.56354" lon="5.90331">
        <ele>297</ele>
        <time>2016-07-18T01:51:36Z</time>
      </trkpt>
      <trkpt lat="45.56354" lon="5.90332">
        <ele>297</ele>
        <time>2016-07-18T01:53:36Z</time>
      </trkpt>
      <trkpt lat="45.56353" lon="5.90333">
        <ele>297</ele>
        <time>2016-07-18T01:55:36Z</time>
      </trkpt>
      <trkpt lat="45.56353" lon="5.90334">
        <ele>297</ele>
        <time>2016-07-18T01:57:36Z</time>
      </trkpt>
      <trkpt lat="45.56353" lon="5.90335">
        <ele>297</ele>
        <time>2016-07-18T01:59:36Z</time>
      </trkpt>
      <trkpt lat="45.56353" lon="5.90336">
        <ele>297</ele>
        <time>2016-07-18T02:01:36Z</time>
      </trkpt>
      <trkpt lat="45.56353" lon="5.90337">
        <ele>297</ele>
        <time>2016-07-18T02:03:36Z</time>
      </trkpt>
      <trkpt lat="45.56353" lon="5.90338">
        <ele>297</ele>
        <time>2016-07-18T02:05:36Z</time>
      </trkpt>
      <trkpt lat="45.56353" lon="5.90339">
        <ele>297</ele>
        <time>2016-07-18T02:07:36Z</time>
      </trkpt>
      <trkpt lat="45.56353" lon="5.9034">
        <ele>297</ele>
        <time>2016-07-18T02:09:36Z</time>
      </trkpt>
      <trkpt lat="45.56353" lon="5.90341">
        <ele>297</ele>
        <time>2016-07-18T02:11:36Z</time>
      </trkpt>
      <trkpt lat="45.56354" lon="5.90342">
        <ele>297</ele>
        <time>2016-07-18T02:13:36Z</time>
      </trkpt>
      <trkpt lat="45.56354" lon="5.90343">
        <ele>297</ele>
        <time>2016-07-18T02:15:36Z</time>
      </trkpt>
      <trkpt lat="45.56354" lon="5.90344">
        <ele>297</ele>
        <time>2016-07-18T02:17:36Z</time>
      </trkpt>
      <trkpt lat="45.56354" lon="5.90345">
        <ele>297</ele>
        <time>2016-07-18T02:19:36Z</time>
      </trkpt>
      <trkpt lat="45.56355" lon="5.90346">
        <ele>297</ele>
        <time>2016-07-18T02:21:36Z</time>
      </trkpt>
      <trkpt lat="45.56355" lon="5.90347">
        <ele>297</ele>
        <time>2016-07-18T02:23:36Z</time>
      </trkpt>
      <trkpt lat="45.56356" lon="5.90348">
        <ele>297</ele>
        <time>2016-07-18T02:25:36Z</time>
      </trkpt>
      <trkpt lat="45.56356" lon="5.90349">
        <ele>297</ele>
        <time>2016-07-18T02:27:36Z</time>
      </trkpt>
      <trkpt lat="45.56357" lon="5.9035">
        <ele>297</ele>
        <time>2016-07-18T02:29:36Z</time>
      </trkpt>
      <trkpt lat="45.56358" lon="5.90351">
        <ele>297</ele>
        <time>2016-07-18T02:31:36Z</time>
      </trkpt>
      <trkpt lat="45.56357" lon="5.90372">
        <ele>296</ele>
        <time>2016-07-18T02:33:36Z</time>
      </trkpt>
      <trkpt lat="45.56356" lon="5.90385">
        <ele>296</ele>
        <time>2016-07-18T02:35:36Z</time>
      </trkpt>
      <trkpt lat="45.56355" lon="5.9039">
        <ele>296</ele>
        <time>2016-07-18T02:37:36Z</time>
      </trkpt>
      <trkpt lat="45.56355" lon="5.90397">
        <ele>296</ele>
        <time>2016-07-18T02:39:36Z</time>
      </trkpt>
      <trkpt lat="45.5634" lon="5.90494">
        <ele>294</ele>
        <time>2016-07-18T02:41:36Z</time>
      </trkpt>
      <trkpt lat="45.56336" lon="5.90532">
        <ele>293</ele>
        <time>2016-07-18T02:43:36Z</time>
      </trkpt>
      <trkpt lat="45.56324" lon="5.90601">
        <ele>291</ele>
        <time>2016-07-18T02:45:36Z</time>
      </trkpt>
      <trkpt lat="45.56318" lon="5.90655">
        <ele>290</ele>
        <time>2016-07-18T02:47:36Z</time>
      </trkpt>
      <trkpt lat="45.56312" lon="5.90696">
        <ele>289</ele>
        <time>2016-07-18T02:49:36Z</time>
      </trkpt>
      <trkpt lat="45.56307" lon="5.90728">
        <ele>288</ele>
        <time>2016-07-18T02:51:36Z</time>
      </trkpt>
      <trkpt lat="45.56303" lon="5.90757">
        <ele>288</ele>
        <time>2016-07-18T02:53:36Z</time>
      </trkpt>
      <trkpt lat="45.56294" lon="5.90818">
        <ele>288</ele>
        <time>2016-07-18T02:55:36Z</time>
      </trkpt>
      <trkpt lat="45.56281" lon="5.90922">
        <ele>287</ele>
        <time>2016-07-18T02:57:36Z</time>
      </trkpt>
      <trkpt lat="45.56272" lon="5.91004">
        <ele>286</ele>
        <time>2016-07-18T02:59:36Z</time>
      </trkpt>
      <trkpt lat="45.56272" lon="5.9101">
        <ele>286</ele>
        <time>2016-07-18T03:01:36Z</time>
      </trkpt>
      <trkpt lat="45.5626" lon="5.9107">
        <ele>287</ele>
        <time>2016-07-18T03:03:36Z</time>
      </trkpt>
      <trkpt lat="45.56248" lon="5.91153">
        <ele>287</ele>
        <time>2016-07-18T03:05:36Z</time>
      </trkpt>
      <trkpt lat="45.56239" lon="5.91198">
        <ele>286</ele>
        <time>2016-07-18T03:07:36Z</time>
      </trkpt>
      <trkpt lat="45.56237" lon="5.91215">
        <ele>286</ele>
        <time>2016-07-18T03:09:36Z</time>
      </trkpt>
      <trkpt lat="45.56238" lon="5.9123">
        <ele>286</ele>
        <time>2016-07-18T03:11:36Z</time>
      </trkpt>
      <trkpt lat="45.56235" lon="5.91234">
        <ele>286</ele>
        <time>2016-07-18T03:13:36Z</time>
      </trkpt>
      <trkpt lat="45.56233" lon="5.9124">
        <ele>286</ele>
        <time>2016-07-18T03:15:36Z</time>
      </trkpt>
      <trkpt lat="45.56234" lon="5.91247">
        <ele>286</ele>
        <time>2016-07-18T03:17:36Z</time>
      </trkpt>
      <trkpt lat="45.56236" lon="5.91252">
        <ele>285</ele>
        <time>2016-07-18T03:19:36Z</time>
      </trkpt>
      <trkpt lat="45.56239" lon="5.91256">
        <ele>285</ele>
        <time>2016-07-18T03:21:36Z</time>
      </trkpt>
      <trkpt lat="45.56243" lon="5.91257">
        <ele>285</ele>
        <time>2016-07-18T03:23:36Z</time>
      </trkpt>
      <trkpt lat="45.56246" lon="5.91256">
        <ele>285</ele>
        <time>2016-07-18T03:25:36Z</time>
      </trkpt>
      <trkpt lat="45.56253" lon="5.91269">
        <ele>285</ele>
        <time>2016-07-18T03:27:36Z</time>
      </trkpt>
      <trkpt lat="45.56283" lon="5.91321">
        <ele>287</ele>
        <time>2016-07-18T03:29:36Z</time>
      </trkpt>
      <trkpt lat="45.56303" lon="5.91353">
        <ele>288</ele>
        <time>2016-07-18T03:31:36Z</time>
      </trkpt>
      <trkpt lat="45.56319" lon="5.91375">
        <ele>288</ele>
        <time>2016-07-18T03:33:36Z</time>
      </trkpt>
      <trkpt lat="45.56353" lon="5.9142">
        <ele>287</ele>
        <time>2016-07-18T03:35:36Z</time>
      </trkpt>
      <trkpt lat="45.56358" lon="5.91428">
        <ele>288</ele>
        <time>2016-07-18T03:37:36Z</time>
      </trkpt>
      <trkpt lat="45.56379" lon="5.9146">
        <ele>288</ele>
        <time>2016-07-18T03:39:36Z</time>
      </trkpt>
      <trkpt lat="45.56387" lon="5.91474">
        <ele>288</ele>
        <time>2016-07-18T03:41:36Z</time>
      </trkpt>
      <trkpt lat="45.56392" lon="5.91485">
        <ele>287</ele>
        <time>2016-07-18T03:43:36Z</time>
      </trkpt>
      <trkpt lat="45.56389" lon="5.91488">
        <ele>287</ele>
        <time>2016-07-18T03:45:36Z</time>
      </trkpt>
      <trkpt lat="45.56388" lon="5.91493">
        <ele>287</ele>
        <time>2016-07-18T03:47:36Z</time>
      </trkpt>
      <trkpt lat="45.56388" lon="5.91499">
        <ele>287</ele>
        <time>2016-07-18T03:49:36Z</time>
      </trkpt>
      <trkpt lat="45.56391" lon="5.91504">
        <ele>287</ele>
        <time>2016-07-18T03:51:36Z</time>
      </trkpt>
      <trkpt lat="45.56395" lon="5.91505">
        <ele>287</ele>
        <time>2016-07-18T03:53:36Z</time>
      </trkpt>
      <trkpt lat="45.56392" lon="5.91537">
        <ele>288</ele>
        <time>2016-07-18T03:55:36Z</time>
      </trkpt>
      <trkpt lat="45.56377" lon="5.91765">
        <ele>285</ele>
        <time>2016-07-18T03:57:36Z</time>
      </trkpt>
      <trkpt lat="45.56371" lon="5.91836">
        <ele>283</ele>
        <time>2016-07-18T03:59:36Z</time>
      </trkpt>
      <trkpt lat="45.5637" lon="5.91851">
        <ele>283</ele>
        <time>2016-07-18T04:01:36Z</time>
      </trkpt>
      <trkpt lat="45.56367" lon="5.91892">
        <ele>282</ele>
        <time>2016-07-18T04:03:36Z</time>
      </trkpt>
      <trkpt lat="45.56369" lon="5.91911">
        <ele>281</ele>
        <time>2016-07-18T04:05:36Z</time>
      </trkpt>
      <trkpt lat="45.56368" lon="5.91934">
        <ele>280</ele>
        <time>2016-07-18T04:07:36Z</time>
      </trkpt>
      <trkpt lat="45.56367" lon="5.91943">
        <ele>280</ele>
        <time>2016-07-18T04:09:36Z</time>
      </trkpt>
      <trkpt lat="45.56367" lon="5.91943">
        <ele>280</ele>
        <time>2016-07-18T04:11:36Z</time>
      </trkpt>
      <trkpt lat="45.56366" lon="5.91947">
        <ele>280</ele>
        <time>2016-07-18T04:13:36Z</time>
      </trkpt>
      <trkpt lat="45.56365" lon="5.91952">
        <ele>280</ele>
        <time>2016-07-18T04:15:36Z</time>
      </trkpt>
      <trkpt lat="45.56365" lon="5.91957">
        <ele>280</ele>
        <time>2016-07-18T04:17:36Z</time>
      </trkpt>
      <trkpt lat="45.56367" lon="5.91961">
        <ele>280</ele>
        <time>2016-07-18T04:19:36Z</time>
      </trkpt>
      <trkpt lat="45.56369" lon="5.91964">
        <ele>280</ele>
        <time>2016-07-18T04:21:36Z</time>
      </trkpt>
      <trkpt lat="45.56372" lon="5.91965">
        <ele>279</ele>
        <time>2016-07-18T04:23:36Z</time>
      </trkpt>
      <trkpt lat="45.56375" lon="5.91966">
        <ele>279</ele>
        <time>2016-07-18T04:25:36Z</time>
      </trkpt>
      <trkpt lat="45.56378" lon="5.91966">
        <ele>279</ele>
        <time>2016-07-18T04:27:36Z</time>
      </trkpt>
      <trkpt lat="45.5638" lon="5.91964">
        <ele>279</ele>
        <time>2016-07-18T04:29:36Z</time>
      </trkpt>
      <trkpt lat="45.56382" lon="5.91962">
        <ele>279</ele>
        <time>2016-07-18T04:31:36Z</time>
      </trkpt>
      <trkpt lat="45.56392" lon="5.91977">
        <ele>279</ele>
        <time>2016-07-18T04:33:36Z</time>
      </trkpt>
      <trkpt lat="45.56402" lon="5.91997">
        <ele>278</ele>
        <time>2016-07-18T04:35:36Z</time>
      </trkpt>
      <trkpt lat="45.56413" lon="5.92022">
        <ele>277</ele>
        <time>2016-07-18T04:37:36Z</time>
      </trkpt>
      <trkpt lat="45.56419" lon="5.92037">
        <ele>277</ele>
        <time>2016-07-18T04:39:36Z</time>
      </trkpt>
      <trkpt lat="45.56424" lon="5.92046">
        <ele>277</ele>
        <time>2016-07-18T04:41:36Z</time>
      </trkpt>
      <trkpt lat="45.56428" lon="5.92053">
        <ele>277</ele>
        <time>2016-07-18T04:43:36Z</time>
      </trkpt>
      <trkpt lat="45.56428" lon="5.92053">
        <ele>277</ele>
        <time>2016-07-18T04:45:36Z</time>
      </trkpt>
      <trkpt lat="45.56434" lon="5.92064">
        <ele>277</ele>
        <time>2016-07-18T04:47:36Z</time>
      </trkpt>
      <trkpt lat="45.56454" lon="5.9209">
        <ele>278</ele>
        <time>2016-07-18T04:49:36Z</time>
      </trkpt>
      <trkpt lat="45.56466" lon="5.92102">
        <ele>279</ele>
        <time>2016-07-18T04:51:36Z</time>
      </trkpt>
      <trkpt lat="45.56466" lon="5.92102">
        <ele>279</ele>
        <time>2016-07-18T04:53:36Z</time>
      </trkpt>
      <trkpt lat="45.56452" lon="5.92119">
        <ele>279</ele>
        <time>2016-07-18T04:55:36Z</time>
      </trkpt>
      <trkpt lat="45.56444" lon="5.9213">
        <ele>279</ele>
        <time>2016-07-18T04:57:36Z</time>
      </trkpt>
      <trkpt lat="45.5644" lon="5.92134">
        <ele>279</ele>
        <time>2016-07-18T04:59:36Z</time>
      </trkpt>
      <trkpt lat="45.56437" lon="5.92137">
        <ele>279</ele>
        <time>2016-07-18T05:01:36Z</time>
      </trkpt>
      <trkpt lat="45.56431" lon="5.92146">
        <ele>279</ele>
        <time>2016-07-18T05:03:36Z</time>
      </trkpt>
      <trkpt lat="45.56425" lon="5.92155">
        <ele>279</ele>
        <time>2016-07-18T05:05:36Z</time>
      </trkpt>
      <trkpt lat="45.56422" lon="5.92159">
        <ele>279</ele>
        <time>2016-07-18T05:07:36Z</time>
      </trkpt>
      <trkpt lat="45.56417" lon="5.92166">
        <ele>279</ele>
        <time>2016-07-18T05:09:36Z</time>
      </trkpt>
      <trkpt lat="45.56409" lon="5.9218">
        <ele>279</ele>
        <time>2016-07-18T05:11:36Z</time>
      </trkpt>
      <trkpt lat="45.56401" lon="5.92197">
        <ele>278</ele>
        <time>2016-07-18T05:13:36Z</time>
      </trkpt>
      <trkpt lat="45.56401" lon="5.92197">
        <ele>278</ele>
        <time>2016-07-18T05:15:36Z</time>
      </trkpt>
      <trkpt lat="45.5644" lon="5.9226">
        <ele>279</ele>
        <time>2016-07-18T05:17:36Z</time>
      </trkpt>
      <trkpt lat="45.56442" lon="5.92266">
        <ele>279</ele>
        <time>2016-07-18T05:19:36Z</time>
      </trkpt>
      <trkpt lat="45.56446" lon="5.92276">
        <ele>279</ele>
        <time>2016-07-18T05:21:36Z</time>
      </trkpt>
      <trkpt lat="45.5645" lon="5.92293">
        <ele>279</ele>
        <time>2016-07-18T05:23:36Z</time>
      </trkpt>
      <trkpt lat="45.56452" lon="5.92301">
        <ele>279</ele>
        <time>2016-07-18T05:25:36Z</time>
      </trkpt>
      <trkpt lat="45.5646" lon="5.92331">
        <ele>279</ele>
        <time>2016-07-18T05:27:36Z</time>
      </trkpt>
      <trkpt lat="45.56464" lon="5.92347">
        <ele>278</ele>
        <time>2016-07-18T05:29:36Z</time>
      </trkpt>
      <trkpt lat="45.56475" lon="5.9238">
        <ele>278</ele>
        <time>2016-07-18T05:31:36Z</time>
      </trkpt>
      <trkpt lat="45.56483" lon="5.92404">
        <ele>278</ele>
        <time>2016-07-18T05:33:36Z</time>
      </trkpt>
      <trkpt lat="45.56491" lon="5.92423">
        <ele>277</ele>
        <time>2016-07-18T05:35:36Z</time>
      </trkpt>
      <trkpt lat="45.56499" lon="5.92437">
        <ele>277</ele>
        <time>2016-07-18T05:37:36Z</time>
      </trkpt>
      <trkpt lat="45.56503" lon="5.92445">
        <ele>277</ele>
        <time>2016-07-18T05:39:36Z</time>
      </trkpt>
      <trkpt lat="45.56503" lon="5.92445">
        <ele>277</ele>
        <time>2016-07-18T05:41:36Z</time>
      </trkpt>
      <trkpt lat="45.56504" lon="5.92447">
        <ele>277</ele>
        <time>2016-07-18T05:43:36Z</time>
      </trkpt>
      <trkpt lat="45.56506" lon="5.92451">
        <ele>277</ele>
        <time>2016-07-18T05:45:36Z</time>
      </trkpt>
      <trkpt lat="45.56518" lon="5.92474">
        <ele>276</ele>
        <time>2016-07-18T05:47:36Z</time>
      </trkpt>
      <trkpt lat="45.56528" lon="5.92491">
        <ele>276</ele>
        <time>2016-07-18T05:49:36Z</time>
      </trkpt>
      <trkpt lat="45.56536" lon="5.92502">
        <ele>276</ele>
        <time>2016-07-18T05:51:36Z</time>
      </trkpt>
      <trkpt lat="45.56553" lon="5.92524">
        <ele>277</ele>
        <time>2016-07-18T05:53:36Z</time>
      </trkpt>
      <trkpt lat="45.5657" lon="5.92545">
        <ele>277</ele>
        <time>2016-07-18T05:55:36Z</time>
      </trkpt>
      <trkpt lat="45.56583" lon="5.92562">
        <ele>277</ele>
        <time>2016-07-18T05:57:36Z</time>
      </trkpt>
      <trkpt lat="45.56591" lon="5.92574">
        <ele>277</ele>
        <time>2016-07-18T05:59:36Z</time>
      </trkpt>
      <trkpt lat="45.56595" lon="5.92584">
        <ele>277</ele>
        <time>2016-07-18T06:01:36Z</time>
      </trkpt>
      <trkpt lat="45.56595" lon="5.92584">
        <ele>277</ele>
        <time>2016-07-18T06:03:36Z</time>
      </trkpt>
      <trkpt lat="45.56603" lon="5.92592">
        <ele>277</ele>
        <time>2016-07-18T06:05:36Z</time>
      </trkpt>
      <trkpt lat="45.56608" lon="5.92602">
        <ele>277</ele>
        <time>2016-07-18T06:07:36Z</time>
      </trkpt>
      <trkpt lat="45.56609" lon="5.92612">
        <ele>277</ele>
        <time>2016-07-18T06:09:36Z</time>
      </trkpt>
      <trkpt lat="45.56613" lon="5.92653">
        <ele>276</ele>
        <time>2016-07-18T06:11:36Z</time>
      </trkpt>
      <trkpt lat="45.56615" lon="5.92668">
        <ele>276</ele>
        <time>2016-07-18T06:13:36Z</time>
      </trkpt>
      <trkpt lat="45.56615" lon="5.92675">
        <ele>276</ele>
        <time>2016-07-18T06:15:36Z</time>
      </trkpt>
      <trkpt lat="45.56616" lon="5.92681">
        <ele>276</ele>
        <time>2016-07-18T06:17:36Z</time>
      </trkpt>
      <trkpt lat="45.56624" lon="5.92729">
        <ele>277</ele>
        <time>2016-07-18T06:19:36Z</time>
      </trkpt>
      <trkpt lat="45.56628" lon="5.92742">
        <ele>277</ele>
        <time>2016-07-18T06:21:36Z</time>
      </trkpt>
      <trkpt lat="45.56628" lon="5.92745">
        <ele>278</ele>
        <time>2016-07-18T06:23:36Z</time>
      </trkpt>
      <trkpt lat="45.56628" lon="5.92748">
        <ele>278</ele>
        <time>2016-07-18T06:25:36Z</time>
      </trkpt>
      <trkpt lat="45.56629" lon="5.92759">
        <ele>278</ele>
        <time>2016-07-18T06:27:36Z</time>
      </trkpt>
      <trkpt lat="45.56634" lon="5.92865">
        <ele>280</ele>
        <time>2016-07-18T06:29:36Z</time>
      </trkpt>
      <trkpt lat="45.56634" lon="5.92871">
        <ele>279</ele>
        <time>2016-07-18T06:31:36Z</time>
      </trkpt>
      <trkpt lat="45.56634" lon="5.92929">
        <ele>278</ele>
        <time>2016-07-18T06:33:36Z</time>
      </trkpt>
      <trkpt lat="45.56634" lon="5.92961">
        <ele>279</ele>
        <time>2016-07-18T06:35:36Z</time>
      </trkpt>
      <trkpt lat="45.5663" lon="5.93102">
        <ele>279</ele>
        <time>2016-07-18T06:37:36Z</time>
      </trkpt>
      <trkpt lat="45.5663" lon="5.9314">
        <ele>279</ele>
        <time>2016-07-18T06:39:36Z</time>
      </trkpt>
      <trkpt lat="45.56629" lon="5.93157">
        <ele>279</ele>
        <time>2016-07-18T06:41:36Z</time>
      </trkpt>
      <trkpt lat="45.56629" lon="5.93178">
        <ele>278</ele>
        <time>2016-07-18T06:43:36Z</time>
      </trkpt>
      <trkpt lat="45.56627" lon="5.93198">
        <ele>278</ele>
        <time>2016-07-18T06:45:36Z</time>
      </trkpt>
      <trkpt lat="45.56625" lon="5.93234">
        <ele>277</ele>
        <time>2016-07-18T06:47:36Z</time>
      </trkpt>
      <trkpt lat="45.56621" lon="5.93281">
        <ele>278</ele>
        <time>2016-07-18T06:49:36Z</time>
      </trkpt>
      <trkpt lat="45.56619" lon="5.93311">
        <ele>279</ele>
        <time>2016-07-18T06:51:36Z</time>
      </trkpt>
      <trkpt lat="45.56619" lon="5.93325">
        <ele>280</ele>
        <time>2016-07-18T06:53:36Z</time>
      </trkpt>
      <trkpt lat="45.56619" lon="5.93337">
        <ele>280</ele>
        <time>2016-07-18T06:55:36Z</time>
      </trkpt>
      <trkpt lat="45.56619" lon="5.93351">
        <ele>280</ele>
        <time>2016-07-18T06:57:36Z</time>
      </trkpt>
      <trkpt lat="45.56617" lon="5.93354">
        <ele>280</ele>
        <time>2016-07-18T06:59:36Z</time>
      </trkpt>
      <trkpt lat="45.56615" lon="5.9336">
        <ele>280</ele>
        <time>2016-07-18T07:01:36Z</time>
      </trkpt>
      <trkpt lat="45.56617" lon="5.93405">
        <ele>280</ele>
        <time>2016-07-18T07:03:36Z</time>
      </trkpt>
      <trkpt lat="45.56617" lon="5.93405">
        <ele>280</ele>
        <time>2016-07-18T07:05:36Z</time>
      </trkpt>
      <trkpt lat="45.56616" lon="5.93405">
        <ele>280</ele>
        <time>2016-07-18T07:07:36Z</time>
      </trkpt>
      <trkpt lat="45.56614" lon="5.93407">
        <ele>280</ele>
        <time>2016-07-18T07:09:36Z</time>
      </trkpt>
      <trkpt lat="45.56613" lon="5.93408">
        <ele>280</ele>
        <time>2016-07-18T07:11:36Z</time>
      </trkpt>
      <trkpt lat="45.56612" lon="5.9341">
        <ele>280</ele>
        <time>2016-07-18T07:13:36Z</time>
      </trkpt>
      <trkpt lat="45.56611" lon="5.93412">
        <ele>280</ele>
        <time>2016-07-18T07:15:36Z</time>
      </trkpt>
      <trkpt lat="45.56611" lon="5.93414">
        <ele>280</ele>
        <time>2016-07-18T07:17:36Z</time>
      </trkpt>
      <trkpt lat="45.5661" lon="5.93415">
        <ele>280</ele>
        <time>2016-07-18T07:19:36Z</time>
      </trkpt>
      <trkpt lat="45.5661" lon="5.93417">
        <ele>280</ele>
        <time>2016-07-18T07:21:36Z</time>
      </trkpt>
      <trkpt lat="45.5661" lon="5.93419">
        <ele>280</ele>
        <time>2016-07-18T07:23:36Z</time>
      </trkpt>
      <trkpt lat="45.5661" lon="5.93421">
        <ele>280</ele>
        <time>2016-07-18T07:25:36Z</time>
      </trkpt>
      <trkpt lat="45.5661" lon="5.93423">
        <ele>280</ele>
        <time>2016-07-18T07:27:36Z</time>
      </trkpt>
      <trkpt lat="45.5661" lon="5.93425">
        <ele>280</ele>
        <time>2016-07-18T07:29:36Z</time>
      </trkpt>
      <trkpt lat="45.56611" lon="5.93427">
        <ele>280</ele>
        <time>2016-07-18T07:31:36Z</time>
      </trkpt>
      <trkpt lat="45.56612" lon="5.93428">
        <ele>280</ele>
        <time>2016-07-18T07:33:36Z</time>
      </trkpt>
      <trkpt lat="45.56532" lon="5.93613">
        <ele>281</ele>
        <time>2016-07-18T07:35:36Z</time>
      </trkpt>
      <trkpt lat="45.56527" lon="5.9363">
        <ele>282</ele>
        <time>2016-07-18T07:37:36Z</time>
      </trkpt>
      <trkpt lat="45.56514" lon="5.93674">
        <ele>284</ele>
        <time>2016-07-18T07:39:36Z</time>
      </trkpt>
      <trkpt lat="45.56499" lon="5.93717">
        <ele>285</ele>
        <time>2016-07-18T07:41:36Z</time>
      </trkpt>
      <trkpt lat="45.56495" lon="5.93728">
        <ele>286</ele>
        <time>2016-07-18T07:43:36Z</time>
      </trkpt>
      <trkpt lat="45.56485" lon="5.9377">
        <ele>287</ele>
        <time>2016-07-18T07:45:36Z</time>
      </trkpt>
      <trkpt lat="45.56476" lon="5.93786">
        <ele>288</ele>
        <time>2016-07-18T07:47:36Z</time>
      </trkpt>
      <trkpt lat="45.5647" lon="5.93794">
        <ele>288</ele>
        <time>2016-07-18T07:49:36Z</time>
      </trkpt>
      <trkpt lat="45.56463" lon="5.93804">
        <ele>288</ele>
        <time>2016-07-18T07:51:36Z</time>
      </trkpt>
      <trkpt lat="45.56438" lon="5.93842">
        <ele>287</ele>
        <time>2016-07-18T07:53:36Z</time>
      </trkpt>
      <trkpt lat="45.56415" lon="5.93872">
        <ele>285</ele>
        <time>2016-07-18T07:55:36Z</time>
      </trkpt>
      <trkpt lat="45.56365" lon="5.93942">
        <ele>284</ele>
        <time>2016-07-18T07:57:36Z</time>
      </trkpt>
      <trkpt lat="45.56353" lon="5.93954">
        <ele>284</ele>
        <time>2016-07-18T07:59:36Z</time>
      </trkpt>
      <trkpt lat="45.56342" lon="5.93961">
        <ele>284</ele>
        <time>2016-07-18T08:01:36Z</time>
      </trkpt>
      <trkpt lat="45.56332" lon="5.93968">
        <ele>284</ele>
        <time>2016-07-18T08:03:36Z</time>
      </trkpt>
      <trkpt lat="45.5631" lon="5.93979">
        <ele>285</ele>
        <time>2016-07-18T08:05:36Z</time>
      </trkpt>
      <trkpt lat="45.56291" lon="5.93987">
        <ele>286</ele>
        <time>2016-07-18T08:07:36Z</time>
      </trkpt>
      <trkpt lat="45.56284" lon="5.9399">
        <ele>286</ele>
        <time>2016-07-18T08:09:36Z</time>
      </trkpt>
      <trkpt lat="45.56262" lon="5.9401">
        <ele>286</ele>
        <time>2016-07-18T08:11:36Z</time>
      </trkpt>
      <trkpt lat="45.56248" lon="5.94019">
        <ele>287</ele>
        <time>2016-07-18T08:13:36Z</time>
      </trkpt>
      <trkpt lat="45.5624" lon="5.94022">
        <ele>287</ele>
        <time>2016-07-18T08:15:36Z</time>
      </trkpt>
      <trkpt lat="45.56217" lon="5.94029">
        <ele>286</ele>
        <time>2016-07-18T08:17:36Z</time>
      </trkpt>
      <trkpt lat="45.5621" lon="5.94032">
        <ele>286</ele>
        <time>2016-07-18T08:19:36Z</time>
      </trkpt>
      <trkpt lat="45.56195" lon="5.94042">
        <ele>286</ele>
        <time>2016-07-18T08:21:36Z</time>
      </trkpt>
      <trkpt lat="45.56188" lon="5.94048">
        <ele>285</ele>
        <time>2016-07-18T08:23:36Z</time>
      </trkpt>
      <trkpt lat="45.56182" lon="5.94054">
        <ele>285</ele>
        <time>2016-07-18T08:25:36Z</time>
      </trkpt>
      <trkpt lat="45.56174" lon="5.94067">
        <ele>284</ele>
        <time>2016-07-18T08:27:36Z</time>
      </trkpt>
      <trkpt lat="45.56169" lon="5.94077">
        <ele>283</ele>
        <time>2016-07-18T08:29:36Z</time>
      </trkpt>
      <trkpt lat="45.56156" lon="5.9409">
        <ele>283</ele>
        <time>2016-07-18T08:31:36Z</time>
      </trkpt>
      <trkpt lat="45.56152" lon="5.94096">
        <ele>283</ele>
        <time>2016-07-18T08:33:36Z</time>
      </trkpt>
      <trkpt lat="45.5613" lon="5.94124">
        <ele>283</ele>
        <time>2016-07-18T08:35:36Z</time>
      </trkpt>
      <trkpt lat="45.56125" lon="5.94135">
        <ele>283</ele>
        <time>2016-07-18T08:37:36Z</time>
      </trkpt>
      <trkpt lat="45.56125" lon="5.94141">
        <ele>283</ele>
        <time>2016-07-18T08:39:36Z</time>
      </trkpt>
      <trkpt lat="45.56123" lon="5.94177">
        <ele>283</ele>
        <time>2016-07-18T08:41:36Z</time>
      </trkpt>
      <trkpt lat="45.56121" lon="5.94186">
        <ele>283</ele>
        <time>2016-07-18T08:43:36Z</time>
      </trkpt>
      <trkpt lat="45.56121" lon="5.94194">
        <ele>282</ele>
        <time>2016-07-18T08:45:36Z</time>
      </trkpt>
      <trkpt lat="45.56118" lon="5.94207">
        <ele>282</ele>
        <time>2016-07-18T08:47:36Z</time>
      </trkpt>
      <trkpt lat="45.56116" lon="5.94213">
        <ele>282</ele>
        <time>2016-07-18T08:49:36Z</time>
      </trkpt>
      <trkpt lat="45.5611" lon="5.94224">
        <ele>281</ele>
        <time>2016-07-18T08:51:36Z</time>
      </trkpt>
      <trkpt lat="45.56109" lon="5.94229">
        <ele>281</ele>
        <time>2016-07-18T08:53:36Z</time>
      </trkpt>
      <trkpt lat="45.5611" lon="5.94235">
        <ele>281</ele>
        <time>2016-07-18T08:55:36Z</time>
      </trkpt>
      <trkpt lat="45.56114" lon="5.9425">
        <ele>280</ele>
        <time>2016-07-18T08:57:36Z</time>
      </trkpt>
      <trkpt lat="45.56116" lon="5.94257">
        <ele>280</ele>
        <time>2016-07-18T08:59:36Z</time>
      </trkpt>
      <trkpt lat="45.56116" lon="5.94265">
        <ele>280</ele>
        <time>2016-07-18T09:01:36Z</time>
      </trkpt>
      <trkpt lat="45.56115" lon="5.94274">
        <ele>280</ele>
        <time>2016-07-18T09:03:36Z</time>
      </trkpt>
      <trkpt lat="45.56111" lon="5.94296">
        <ele>280</ele>
        <time>2016-07-18T09:05:36Z</time>
      </trkpt>
      <trkpt lat="45.56106" lon="5.94341">
        <ele>280</ele>
        <time>2016-07-18T09:07:36Z</time>
      </trkpt>
      <trkpt lat="45.56106" lon="5.94347">
        <ele>280</ele>
        <time>2016-07-18T09:09:36Z</time>
      </trkpt>
      <trkpt lat="45.56105" lon="5.94382">
        <ele>280</ele>
        <time>2016-07-18T09:11:36Z</time>
      </trkpt>
      <trkpt lat="45.56103" lon="5.9439">
        <ele>280</ele>
        <time>2016-07-18T09:13:36Z</time>
      </trkpt>
      <trkpt lat="45.56095" lon="5.94432">
        <ele>280</ele>
        <time>2016-07-18T09:15:36Z</time>
      </trkpt>
      <trkpt lat="45.56084" lon="5.94482">
        <ele>282</ele>
        <time>2016-07-18T09:17:36Z</time>
      </trkpt>
      <trkpt lat="45.56078" lon="5.94501">
        <ele>283</ele>
        <time>2016-07-18T09:19:36Z</time>
      </trkpt>
      <trkpt lat="45.5607" lon="5.94521">
        <ele>283</ele>
        <time>2016-07-18T09:21:36Z</time>
      </trkpt>
      <trkpt lat="45.56065" lon="5.94529">
        <ele>283</ele>
        <time>2016-07-18T09:23:36Z</time>
      </trkpt>
      <trkpt lat="45.5606" lon="5.94534">
        <ele>283</ele>
        <time>2016-07-18T09:25:36Z</time>
      </trkpt>
      <trkpt lat="45.56054" lon="5.94537">
        <ele>283</ele>
        <time>2016-07-18T09:27:36Z</time>
      </trkpt>
      <trkpt lat="45.5604" lon="5.94541">
        <ele>283</ele>
        <time>2016-07-18T09:29:36Z</time>
      </trkpt>
      <trkpt lat="45.55972" lon="5.94557">
        <ele>282</ele>
        <time>2016-07-18T09:31:36Z</time>
      </trkpt>
      <trkpt lat="45.55965" lon="5.94559">
        <ele>282</ele>
        <time>2016-07-18T09:33:36Z</time>
      </trkpt>
      <trkpt lat="45.55959" lon="5.94563">
        <ele>282</ele>
        <time>2016-07-18T09:35:36Z</time>
      </trkpt>
      <trkpt lat="45.55948" lon="5.94575">
        <ele>282</ele>
        <time>2016-07-18T09:37:36Z</time>
      </trkpt>
      <trkpt lat="45.55937" lon="5.94593">
        <ele>282</ele>
        <time>2016-07-18T09:39:36Z</time>
      </trkpt>
      <trkpt lat="45.55928" lon="5.94614">
        <ele>283</ele>
        <time>2016-07-18T09:41:36Z</time>
      </trkpt>
      <trkpt lat="45.55905" lon="5.94656">
        <ele>284</ele>
        <time>2016-07-18T09:43:36Z</time>
      </trkpt>
      <trkpt lat="45.55892" lon="5.94685">
        <ele>284</ele>
        <time>2016-07-18T09:45:36Z</time>
      </trkpt>
      <trkpt lat="45.55884" lon="5.94706">
        <ele>284</ele>
        <time>2016-07-18T09:47:36Z</time>
      </trkpt>
      <trkpt lat="45.55877" lon="5.94734">
        <ele>284</ele>
        <time>2016-07-18T09:49:36Z</time>
      </trkpt>
      <trkpt lat="45.55872" lon="5.94761">
        <ele>284</ele>
        <time>2016-07-18T09:51:36Z</time>
      </trkpt>
      <trkpt lat="45.5587" lon="5.94777">
        <ele>284</ele>
        <time>2016-07-18T09:53:36Z</time>
      </trkpt>
      <trkpt lat="45.55868" lon="5.94786">
        <ele>284</ele>
        <time>2016-07-18T09:55:36Z</time>
      </trkpt>
      <trkpt lat="45.55865" lon="5.9479">
        <ele>284</ele>
        <time>2016-07-18T09:57:36Z</time>
      </trkpt>
      <trkpt lat="45.55858" lon="5.94793">
        <ele>284</ele>
        <time>2016-07-18T09:59:36Z</time>
      </trkpt>
      <trkpt lat="45.55843" lon="5.94801">
        <ele>284</ele>
        <time>2016-07-18T10:01:36Z</time>
      </trkpt>
      <trkpt lat="45.55832" lon="5.94808">
        <ele>283</ele>
        <time>2016-07-18T10:03:36Z</time>
      </trkpt>
      <trkpt lat="45.55826" lon="5.9481">
        <ele>283</ele>
        <time>2016-07-18T10:05:36Z</time>
      </trkpt>
      <trkpt lat="45.5581" lon="5.94817">
        <ele>284</ele>
        <time>2016-07-18T10:07:36Z</time>
      </trkpt>
      <trkpt lat="45.55796" lon="5.94824">
        <ele>284</ele>
        <time>2016-07-18T10:09:36Z</time>
      </trkpt>
      <trkpt lat="45.55786" lon="5.9483">
        <ele>284</ele>
        <time>2016-07-18T10:11:36Z</time>
      </trkpt>
      <trkpt lat="45.55773" lon="5.94839">
        <ele>284</ele>
        <time>2016-07-18T10:13:36Z</time>
      </trkpt>
      <trkpt lat="45.55764" lon="5.94845">
        <ele>284</ele>
        <time>2016-07-18T10:15:36Z</time>
      </trkpt>
      <trkpt lat="45.55763" lon="5.94846">
        <ele>284</ele>
        <time>2016-07-18T10:17:36Z</time>
      </trkpt>
      <trkpt lat="45.55762" lon="5.94848">
        <ele>284</ele>
        <time>2016-07-18T10:19:36Z</time>
      </trkpt>
      <trkpt lat="45.55761" lon="5.94851">
        <ele>284</ele>
        <time>2016-07-18T10:21:36Z</time>
      </trkpt>
      <trkpt lat="45.55761" lon="5.94853">
        <ele>284</ele>
        <time>2016-07-18T10:23:36Z</time>
      </trkpt>
      <trkpt lat="45.55762" lon="5.94858">
        <ele>284</ele>
        <time>2016-07-18T10:25:36Z</time>
      </trkpt>
      <trkpt lat="45.55762" lon="5.94858">
        <ele>284</ele>
        <time>2016-07-18T10:27:36Z</time>
      </trkpt>
      <trkpt lat="45.55765" lon="5.94865">
        <ele>284</ele>
        <time>2016-07-18T10:29:36Z</time>
      </trkpt>
      <trkpt lat="45.55768" lon="5.94873">
        <ele>284</ele>
        <time>2016-07-18T10:31:36Z</time>
      </trkpt>
      <trkpt lat="45.55768" lon="5.94876">
        <ele>284</ele>
        <time>2016-07-18T10:33:36Z</time>
      </trkpt>
      <trkpt lat="45.55768" lon="5.94879">
        <ele>284</ele>
        <time>2016-07-18T10:35:36Z</time>
      </trkpt>
      <trkpt lat="45.55767" lon="5.94881">
        <ele>284</ele>
        <time>2016-07-18T10:37:36Z</time>
      </trkpt>
      <trkpt lat="45.55765" lon="5.94884">
        <ele>284</ele>
        <time>2016-07-18T10:39:36Z</time>
      </trkpt>
      <trkpt lat="45.55761" lon="5.94889">
        <ele>284</ele>
        <time>2016-07-18T10:41:36Z</time>
      </trkpt>
      <trkpt lat="45.55743" lon="5.94904">
        <ele>285</ele>
        <time>2016-07-18T10:43:36Z</time>
      </trkpt>
      <trkpt lat="45.55733" lon="5.94913">
        <ele>285</ele>
        <time>2016-07-18T10:45:36Z</time>
      </trkpt>
      <trkpt lat="45.55722" lon="5.94927">
        <ele>285</ele>
        <time>2016-07-18T10:47:36Z</time>
      </trkpt>
      <trkpt lat="45.55714" lon="5.94938">
        <ele>285</ele>
        <time>2016-07-18T10:49:36Z</time>
      </trkpt>
      <trkpt lat="45.55705" lon="5.9495">
        <ele>285</ele>
        <time>2016-07-18T10:51:36Z</time>
      </trkpt>
      <trkpt lat="45.55688" lon="5.94974">
        <ele>286</ele>
        <time>2016-07-18T10:53:36Z</time>
      </trkpt>
      <trkpt lat="45.55674" lon="5.94993">
        <ele>286</ele>
        <time>2016-07-18T10:55:36Z</time>
      </trkpt>
      <trkpt lat="45.55658" lon="5.95012">
        <ele>286</ele>
        <time>2016-07-18T10:57:36Z</time>
      </trkpt>
      <trkpt lat="45.55632" lon="5.95045">
        <ele>286</ele>
        <time>2016-07-18T10:59:36Z</time>
      </trkpt>
      <trkpt lat="45.55607" lon="5.95075">
        <ele>285</ele>
        <time>2016-07-18T11:01:36Z</time>
      </trkpt>
      <trkpt lat="45.55578" lon="5.95112">
        <ele>285</ele>
        <time>2016-07-18T11:03:36Z</time>
      </trkpt>
      <trkpt lat="45.55549" lon="5.95147">
        <ele>285</ele>
        <time>2016-07-18T11:05:36Z</time>
      </trkpt>
      <trkpt lat="45.55502" lon="5.95207">
        <ele>285</ele>
        <time>2016-07-18T11:07:36Z</time>
      </trkpt>
      <trkpt lat="45.55459" lon="5.95262">
        <ele>285</ele>
        <time>2016-07-18T11:09:36Z</time>
      </trkpt>
      <trkpt lat="45.5542" lon="5.95309">
        <ele>283</ele>
        <time>2016-07-18T11:11:36Z</time>
      </trkpt>
      <trkpt lat="45.55396" lon="5.95338">
        <ele>284</ele>
        <time>2016-07-18T11:13:36Z</time>
      </trkpt>
      <trkpt lat="45.55374" lon="5.9536">
        <ele>286</ele>
        <time>2016-07-18T11:15:36Z</time>
      </trkpt>
      <trkpt lat="45.55357" lon="5.9538">
        <ele>286</ele>
        <time>2016-07-18T11:17:36Z</time>
      </trkpt>
      <trkpt lat="45.55355" lon="5.95383">
        <ele>286</ele>
        <time>2016-07-18T11:19:36Z</time>
      </trkpt>
      <trkpt lat="45.55353" lon="5.95386">
        <ele>286</ele>
        <time>2016-07-18T11:21:36Z</time>
      </trkpt>
      <trkpt lat="45.55352" lon="5.95388">
        <ele>286</ele>
        <time>2016-07-18T11:23:36Z</time>
      </trkpt>
      <trkpt lat="45.55351" lon="5.95391">
        <ele>286</ele>
        <time>2016-07-18T11:25:36Z</time>
      </trkpt>
      <trkpt lat="45.5535" lon="5.95394">
        <ele>286</ele>
        <time>2016-07-18T11:27:36Z</time>
      </trkpt>
      <trkpt lat="45.5535" lon="5.95397">
        <ele>286</ele>
        <time>2016-07-18T11:29:36Z</time>
      </trkpt>
      <trkpt lat="45.55349" lon="5.95399">
        <ele>286</ele>
        <time>2016-07-18T11:31:36Z</time>
      </trkpt>
      <trkpt lat="45.55349" lon="5.95407">
        <ele>286</ele>
        <time>2016-07-18T11:33:36Z</time>
      </trkpt>
      <trkpt lat="45.55349" lon="5.95407">
        <ele>286</ele>
        <time>2016-07-18T11:35:36Z</time>
      </trkpt>
      <trkpt lat="45.55361" lon="5.95418">
        <ele>286</ele>
        <time>2016-07-18T11:37:36Z</time>
      </trkpt>
      <trkpt lat="45.55365" lon="5.95423">
        <ele>286</ele>
        <time>2016-07-18T11:39:36Z</time>
      </trkpt>
      <trkpt lat="45.55365" lon="5.95424">
        <ele>286</ele>
        <time>2016-07-18T11:41:36Z</time>
      </trkpt>
      <trkpt lat="45.55369" lon="5.95427">
        <ele>286</ele>
        <time>2016-07-18T11:43:36Z</time>
      </trkpt>
      <trkpt lat="45.55374" lon="5.95428">
        <ele>286</ele>
        <time>2016-07-18T11:45:36Z</time>
      </trkpt>
      <trkpt lat="45.55378" lon="5.95425">
        <ele>286</ele>
        <time>2016-07-18T11:47:36Z</time>
      </trkpt>
      <trkpt lat="45.55385" lon="5.95412">
        <ele>287</ele>
        <time>2016-07-18T11:49:36Z</time>
      </trkpt>
      <trkpt lat="45.55386" lon="5.9541">
        <ele>286</ele>
        <time>2016-07-18T11:51:36Z</time>
      </trkpt>
      <trkpt lat="45.5539" lon="5.95408">
        <ele>286</ele>
        <time>2016-07-18T11:53:36Z</time>
      </trkpt>
      <trkpt lat="45.55395" lon="5.9541">
        <ele>287</ele>
        <time>2016-07-18T11:55:36Z</time>
      </trkpt>
      <trkpt lat="45.554" lon="5.95412">
        <ele>287</ele>
        <time>2016-07-18T11:57:36Z</time>
      </trkpt>
      <trkpt lat="45.55411" lon="5.95418">
        <ele>287</ele>
        <time>2016-07-18T11:59:36Z</time>
      </trkpt>
      <trkpt lat="45.55425" lon="5.95422">
        <ele>287</ele>
        <time>2016-07-18T12:01:36Z</time>
      </trkpt>
      <trkpt lat="45.55425" lon="5.95422">
        <ele>287</ele>
        <time>2016-07-18T12:03:36Z</time>
      </trkpt>
      <trkpt lat="45.55394" lon="5.9545">
        <ele>286</ele>
        <time>2016-07-18T12:05:36Z</time>
      </trkpt>
      <trkpt lat="45.55366" lon="5.95484">
        <ele>286</ele>
        <time>2016-07-18T12:07:36Z</time>
      </trkpt>
      <trkpt lat="45.55329" lon="5.95518">
        <ele>286</ele>
        <time>2016-07-18T12:09:36Z</time>
      </trkpt>
      <trkpt lat="45.55292" lon="5.95552">
        <ele>287</ele>
        <time>2016-07-18T12:11:36Z</time>
      </trkpt>
      <trkpt lat="45.55263" lon="5.95583">
        <ele>288</ele>
        <time>2016-07-18T12:13:36Z</time>
      </trkpt>
      <trkpt lat="45.55237" lon="5.95611">
        <ele>288</ele>
        <time>2016-07-18T12:15:36Z</time>
      </trkpt>
      <trkpt lat="45.55203" lon="5.95649">
        <ele>288</ele>
        <time>2016-07-18T12:17:36Z</time>
      </trkpt>
      <trkpt lat="45.55177" lon="5.95688">
        <ele>286</ele>
        <time>2016-07-18T12:19:36Z</time>
      </trkpt>
      <trkpt lat="45.5516" lon="5.95714">
        <ele>286</ele>
        <time>2016-07-18T12:21:36Z</time>
      </trkpt>
      <trkpt lat="45.5515" lon="5.95728">
        <ele>286</ele>
        <time>2016-07-18T12:23:36Z</time>
      </trkpt>
      <trkpt lat="45.55138" lon="5.95745">
        <ele>287</ele>
        <time>2016-07-18T12:25:36Z</time>
      </trkpt>
      <trkpt lat="45.5512" lon="5.95766">
        <ele>288</ele>
        <time>2016-07-18T12:27:36Z</time>
      </trkpt>
      <trkpt lat="45.551" lon="5.95783">
        <ele>289</ele>
        <time>2016-07-18T12:29:36Z</time>
      </trkpt>
      <trkpt lat="45.55086" lon="5.95794">
        <ele>290</ele>
        <time>2016-07-18T12:31:36Z</time>
      </trkpt>
      <trkpt lat="45.55064" lon="5.95808">
        <ele>290</ele>
        <time>2016-07-18T12:33:36Z</time>
      </trkpt>
      <trkpt lat="45.55034" lon="5.95822">
        <ele>289</ele>
        <time>2016-07-18T12:35:36Z</time>
      </trkpt>
      <trkpt lat="45.55016" lon="5.95826">
        <ele>289</ele>
        <time>2016-07-18T12:37:36Z</time>
      </trkpt>
      <trkpt lat="45.55002" lon="5.95831">
        <ele>288</ele>
        <time>2016-07-18T12:39:36Z</time>
      </trkpt>
      <trkpt lat="45.54982" lon="5.9584">
        <ele>289</ele>
        <time>2016-07-18T12:41:36Z</time>
      </trkpt>
      <trkpt lat="45.5495" lon="5.95854">
        <ele>290</ele>
        <time>2016-07-18T12:43:36Z</time>
      </trkpt>
      <trkpt lat="45.54931" lon="5.9586">
        <ele>291</ele>
        <time>2016-07-18T12:45:36Z</time>
      </trkpt>
      <trkpt lat="45.5492" lon="5.95864">
        <ele>292</ele>
        <time>2016-07-18T12:47:36Z</time>
      </trkpt>
      <trkpt lat="45.54905" lon="5.95869">
        <ele>291</ele>
        <time>2016-07-18T12:49:36Z</time>
      </trkpt>
      <trkpt lat="45.54902" lon="5.95871">
        <ele>291</ele>
        <time>2016-07-18T12:51:36Z</time>
      </trkpt>
      <trkpt lat="45.54901" lon="5.95871">
        <ele>291</ele>
        <time>2016-07-18T12:53:36Z</time>
      </trkpt>
      <trkpt lat="45.54881" lon="5.9588">
        <ele>291</ele>
        <time>2016-07-18T12:55:36Z</time>
      </trkpt>
      <trkpt lat="45.54858" lon="5.95891">
        <ele>290</ele>
        <time>2016-07-18T12:57:36Z</time>
      </trkpt>
      <trkpt lat="45.54851" lon="5.95893">
        <ele>290</ele>
        <time>2016-07-18T12:59:36Z</time>
      </trkpt>
      <trkpt lat="45.54844" lon="5.95892">
        <ele>289</ele>
        <time>2016-07-18T13:01:36Z</time>
      </trkpt>
      <trkpt lat="45.54839" lon="5.95888">
        <ele>289</ele>
        <time>2016-07-18T13:03:36Z</time>
      </trkpt>
      <trkpt lat="45.54835" lon="5.95891">
        <ele>289</ele>
        <time>2016-07-18T13:05:36Z</time>
      </trkpt>
      <trkpt lat="45.54806" lon="5.95906">
        <ele>289</ele>
        <time>2016-07-18T13:07:36Z</time>
      </trkpt>
      <trkpt lat="45.54777" lon="5.95924">
        <ele>289</ele>
        <time>2016-07-18T13:09:36Z</time>
      </trkpt>
      <trkpt lat="45.54712" lon="5.95962">
        <ele>291</ele>
        <time>2016-07-18T13:11:36Z</time>
      </trkpt>
      <trkpt lat="45.54641" lon="5.96004">
        <ele>292</ele>
        <time>2016-07-18T13:13:36Z</time>
      </trkpt>
      <trkpt lat="45.5455" lon="5.96055">
        <ele>293</ele>
        <time>2016-07-18T13:15:36Z</time>
      </trkpt>
      <trkpt lat="45.54511" lon="5.96081">
        <ele>293</ele>
        <time>2016-07-18T13:17:36Z</time>
      </trkpt>
      <trkpt lat="45.54471" lon="5.96111">
        <ele>295</ele>
        <time>2016-07-18T13:19:36Z</time>
      </trkpt>
      <trkpt lat="45.54458" lon="5.96118">
        <ele>295</ele>
        <time>2016-07-18T13:21:36Z</time>
      </trkpt>
      <trkpt lat="45.5442" lon="5.96129">
        <ele>294</ele>
        <time>2016-07-18T13:23:36Z</time>
      </trkpt>
      <trkpt lat="45.5439" lon="5.96142">
        <ele>294</ele>
        <time>2016-07-18T13:25:36Z</time>
      </trkpt>
      <trkpt lat="45.54358" lon="5.96149">
        <ele>294</ele>
        <time>2016-07-18T13:27:36Z</time>
      </trkpt>
      <trkpt lat="45.5432" lon="5.96159">
        <ele>294</ele>
        <time>2016-07-18T13:29:36Z</time>
      </trkpt>
      <trkpt lat="45.54296" lon="5.96166">
        <ele>294</ele>
        <time>2016-07-18T13:31:36Z</time>
      </trkpt>
      <trkpt lat="45.54286" lon="5.96171">
        <ele>295</ele>
        <time>2016-07-18T13:33:36Z</time>
      </trkpt>
      <trkpt lat="45.54277" lon="5.96175">
        <ele>295</ele>
        <time>2016-07-18T13:35:36Z</time>
      </trkpt>
      <trkpt lat="45.5425" lon="5.96191">
        <ele>295</ele>
        <time>2016-07-18T13:37:36Z</time>
      </trkpt>
      <trkpt lat="45.54215" lon="5.96211">
        <ele>296</ele>
        <time>2016-07-18T13:39:36Z</time>
      </trkpt>
      <trkpt lat="45.5416" lon="5.96247">
        <ele>298</ele>
        <time>2016-07-18T13:41:36Z</time>
      </trkpt>
      <trkpt lat="45.54066" lon="5.963">
        <ele>296</ele>
        <time>2016-07-18T13:43:36Z</time>
      </trkpt>
      <trkpt lat="45.54039" lon="5.96329">
        <ele>297</ele>
        <time>2016-07-18T13:45:36Z</time>
      </trkpt>
      <trkpt lat="45.54014" lon="5.96352">
        <ele>298</ele>
        <time>2016-07-18T13:47:36Z</time>
      </trkpt>
      <trkpt lat="45.53998" lon="5.96364">
        <ele>298</ele>
        <time>2016-07-18T13:49:36Z</time>
      </trkpt>
      <trkpt lat="45.53961" lon="5.96387">
        <ele>298</ele>
        <time>2016-07-18T13:51:36Z</time>
      </trkpt>
      <trkpt lat="45.5393" lon="5.96404">
        <ele>297</ele>
        <time>2016-07-18T13:53:36Z</time>
      </trkpt>
      <trkpt lat="45.53903" lon="5.96419">
        <ele>297</ele>
        <time>2016-07-18T13:55:36Z</time>
      </trkpt>
      <trkpt lat="45.53889" lon="5.96429">
        <ele>297</ele>
        <time>2016-07-18T13:57:36Z</time>
      </trkpt>
      <trkpt lat="45.53874" lon="5.96439">
        <ele>297</ele>
        <time>2016-07-18T13:59:36Z</time>
      </trkpt>
      <trkpt lat="45.53858" lon="5.96451">
        <ele>296</ele>
        <time>2016-07-18T14:01:36Z</time>
      </trkpt>
      <trkpt lat="45.5383" lon="5.96468">
        <ele>296</ele>
        <time>2016-07-18T14:03:36Z</time>
      </trkpt>
      <trkpt lat="45.53817" lon="5.96474">
        <ele>297</ele>
        <time>2016-07-18T14:05:36Z</time>
      </trkpt>
      <trkpt lat="45.53799" lon="5.9648">
        <ele>297</ele>
        <time>2016-07-18T14:07:36Z</time>
      </trkpt>
      <trkpt lat="45.53761" lon="5.96491">
        <ele>298</ele>
        <time>2016-07-18T14:09:36Z</time>
      </trkpt>
      <trkpt lat="45.53732" lon="5.96501">
        <ele>298</ele>
        <time>2016-07-18T14:11:36Z</time>
      </trkpt>
      <trkpt lat="45.53726" lon="5.96504">
        <ele>299</ele>
        <time>2016-07-18T14:13:36Z</time>
      </trkpt>
      <trkpt lat="45.53723" lon="5.96505">
        <ele>299</ele>
        <time>2016-07-18T14:15:36Z</time>
      </trkpt>
      <trkpt lat="45.53723" lon="5.96505">
        <ele>299</ele>
        <time>2016-07-18T14:17:36Z</time>
      </trkpt>
      <trkpt lat="45.53685" lon="5.96544">
        <ele>301</ele>
        <time>2016-07-18T14:19:36Z</time>
      </trkpt>
      <trkpt lat="45.53678" lon="5.96551">
        <ele>301</ele>
        <time>2016-07-18T14:21:36Z</time>
      </trkpt>
      <trkpt lat="45.53676" lon="5.96553">
        <ele>301</ele>
        <time>2016-07-18T14:23:36Z</time>
      </trkpt>
      <trkpt lat="45.53675" lon="5.96555">
        <ele>302</ele>
        <time>2016-07-18T14:25:36Z</time>
      </trkpt>
      <trkpt lat="45.53673" lon="5.96557">
        <ele>302</ele>
        <time>2016-07-18T14:27:36Z</time>
      </trkpt>
      <trkpt lat="45.53672" lon="5.96559">
        <ele>302</ele>
        <time>2016-07-18T14:29:36Z</time>
      </trkpt>
      <trkpt lat="45.53671" lon="5.9656">
        <ele>302</ele>
        <time>2016-07-18T14:31:36Z</time>
      </trkpt>
      <trkpt lat="45.5367" lon="5.96563">
        <ele>302</ele>
        <time>2016-07-18T14:33:36Z</time>
      </trkpt>
      <trkpt lat="45.5367" lon="5.96566">
        <ele>302</ele>
        <time>2016-07-18T14:35:36Z</time>
      </trkpt>
      <trkpt lat="45.5367" lon="5.9657">
        <ele>302</ele>
        <time>2016-07-18T14:37:36Z</time>
      </trkpt>
      <trkpt lat="45.53673" lon="5.96589">
        <ele>302</ele>
        <time>2016-07-18T14:39:36Z</time>
      </trkpt>
      <trkpt lat="45.53674" lon="5.96594">
        <ele>302</ele>
        <time>2016-07-18T14:41:36Z</time>
      </trkpt>
      <trkpt lat="45.53675" lon="5.96598">
        <ele>302</ele>
        <time>2016-07-18T14:43:36Z</time>
      </trkpt>
      <trkpt lat="45.53678" lon="5.96603">
        <ele>302</ele>
        <time>2016-07-18T14:45:36Z</time>
      </trkpt>
      <trkpt lat="45.53683" lon="5.96613">
        <ele>302</ele>
        <time>2016-07-18T14:47:36Z</time>
      </trkpt>
      <trkpt lat="45.53689" lon="5.96619">
        <ele>301</ele>
        <time>2016-07-18T14:49:36Z</time>
      </trkpt>
      <trkpt lat="45.53691" lon="5.96625">
        <ele>301</ele>
        <time>2016-07-18T14:51:36Z</time>
      </trkpt>
      <trkpt lat="45.53691" lon="5.96632">
        <ele>301</ele>
        <time>2016-07-18T14:53:36Z</time>
      </trkpt>
      <trkpt lat="45.53691" lon="5.96635">
        <ele>301</ele>
        <time>2016-07-18T14:55:36Z</time>
      </trkpt>
      <trkpt lat="45.5369" lon="5.96637">
        <ele>301</ele>
        <time>2016-07-18T14:57:36Z</time>
      </trkpt>
      <trkpt lat="45.53689" lon="5.96639">
        <ele>301</ele>
        <time>2016-07-18T14:59:36Z</time>
      </trkpt>
      <trkpt lat="45.53684" lon="5.96644">
        <ele>301</ele>
        <time>2016-07-18T15:01:36Z</time>
      </trkpt>
      <trkpt lat="45.53676" lon="5.96651">
        <ele>301</ele>
        <time>2016-07-18T15:03:36Z</time>
      </trkpt>
      <trkpt lat="45.53675" lon="5.96652">
        <ele>301</ele>
        <time>2016-07-18T15:05:36Z</time>
      </trkpt>
      <trkpt lat="45.53672" lon="5.96655">
        <ele>301</ele>
        <time>2016-07-18T15:07:36Z</time>
      </trkpt>
      <trkpt lat="45.53672" lon="5.96656">
        <ele>301</ele>
        <time>2016-07-18T15:09:36Z</time>
      </trkpt>
      <trkpt lat="45.53663" lon="5.96663">
        <ele>301</ele>
        <time>2016-07-18T15:11:36Z</time>
      </trkpt>
      <trkpt lat="45.53659" lon="5.96668">
        <ele>301</ele>
        <time>2016-07-18T15:13:36Z</time>
      </trkpt>
      <trkpt lat="45.53651" lon="5.96676">
        <ele>301</ele>
        <time>2016-07-18T15:15:36Z</time>
      </trkpt>
      <trkpt lat="45.5365" lon="5.9668">
        <ele>301</ele>
        <time>2016-07-18T15:17:36Z</time>
      </trkpt>
      <trkpt lat="45.5365" lon="5.96686">
        <ele>301</ele>
        <time>2016-07-18T15:19:36Z</time>
      </trkpt>
      <trkpt lat="45.53652" lon="5.96693">
        <ele>302</ele>
        <time>2016-07-18T15:21:36Z</time>
      </trkpt>
      <trkpt lat="45.53656" lon="5.96697">
        <ele>302</ele>
        <time>2016-07-18T15:23:36Z</time>
      </trkpt>
      <trkpt lat="45.53661" lon="5.96699">
        <ele>301</ele>
        <time>2016-07-18T15:25:36Z</time>
      </trkpt>
      <trkpt lat="45.53676" lon="5.96702">
        <ele>302</ele>
        <time>2016-07-18T15:27:36Z</time>
      </trkpt>
      <trkpt lat="45.53687" lon="5.96708">
        <ele>302</ele>
        <time>2016-07-18T15:29:36Z</time>
      </trkpt>
      <trkpt lat="45.53698" lon="5.96719">
        <ele>303</ele>
        <time>2016-07-18T15:31:36Z</time>
      </trkpt>
      <trkpt lat="45.5371" lon="5.96739">
        <ele>304</ele>
        <time>2016-07-18T15:33:36Z</time>
      </trkpt>
      <trkpt lat="45.53714" lon="5.96747">
        <ele>305</ele>
        <time>2016-07-18T15:35:36Z</time>
      </trkpt>
      <trkpt lat="45.53717" lon="5.96753">
        <ele>306</ele>
        <time>2016-07-18T15:37:36Z</time>
      </trkpt>
      <trkpt lat="45.53721" lon="5.96761">
        <ele>306</ele>
        <time>2016-07-18T15:39:36Z</time>
      </trkpt>
      <trkpt lat="45.53724" lon="5.96766">
        <ele>306</ele>
        <time>2016-07-18T15:41:36Z</time>
      </trkpt>
      <trkpt lat="45.53732" lon="5.96782">
        <ele>307</ele>
        <time>2016-07-18T15:43:36Z</time>
      </trkpt>
      <trkpt lat="45.53734" lon="5.9679">
        <ele>308</ele>
        <time>2016-07-18T15:45:36Z</time>
      </trkpt>
      <trkpt lat="45.53734" lon="5.96792">
        <ele>308</ele>
        <time>2016-07-18T15:47:36Z</time>
      </trkpt>
      <trkpt lat="45.53732" lon="5.96805">
        <ele>308</ele>
        <time>2016-07-18T15:49:36Z</time>
      </trkpt>
      <trkpt lat="45.53732" lon="5.96807">
        <ele>308</ele>
        <time>2016-07-18T15:51:36Z</time>
      </trkpt>
      <trkpt lat="45.53728" lon="5.96814">
        <ele>308</ele>
        <time>2016-07-18T15:53:36Z</time>
      </trkpt>
      <trkpt lat="45.53727" lon="5.96815">
        <ele>307</ele>
        <time>2016-07-18T15:55:36Z</time>
      </trkpt>
      <trkpt lat="45.53721" lon="5.9682">
        <ele>307</ele>
        <time>2016-07-18T15:57:36Z</time>
      </trkpt>
      <trkpt lat="45.5372" lon="5.96821">
        <ele>307</ele>
        <time>2016-07-18T15:59:36Z</time>
      </trkpt>
      <trkpt lat="45.53684" lon="5.96835">
        <ele>304</ele>
        <time>2016-07-18T16:01:36Z</time>
      </trkpt>
      <trkpt lat="45.53669" lon="5.96841">
        <ele>303</ele>
        <time>2016-07-18T16:03:36Z</time>
      </trkpt>
      <trkpt lat="45.53664" lon="5.96844">
        <ele>303</ele>
        <time>2016-07-18T16:05:36Z</time>
      </trkpt>
      <trkpt lat="45.53663" lon="5.96845">
        <ele>303</ele>
        <time>2016-07-18T16:07:36Z</time>
      </trkpt>
      <trkpt lat="45.53662" lon="5.96849">
        <ele>303</ele>
        <time>2016-07-18T16:09:36Z</time>
      </trkpt>
      <trkpt lat="45.53661" lon="5.9685">
        <ele>303</ele>
        <time>2016-07-18T16:11:36Z</time>
      </trkpt>
      <trkpt lat="45.53661" lon="5.96854">
        <ele>303</ele>
        <time>2016-07-18T16:13:36Z</time>
      </trkpt>
      <trkpt lat="45.53663" lon="5.96864">
        <ele>304</ele>
        <time>2016-07-18T16:15:36Z</time>
      </trkpt>
      <trkpt lat="45.53663" lon="5.96868">
        <ele>304</ele>
        <time>2016-07-18T16:17:36Z</time>
      </trkpt>
      <trkpt lat="45.53665" lon="5.96877">
        <ele>305</ele>
        <time>2016-07-18T16:19:36Z</time>
      </trkpt>
      <trkpt lat="45.53665" lon="5.96877">
        <ele>305</ele>
        <time>2016-07-18T16:21:36Z</time>
      </trkpt>
      <trkpt lat="45.53651" lon="5.96882">
        <ele>305</ele>
        <time>2016-07-18T16:23:36Z</time>
      </trkpt>
      <trkpt lat="45.53644" lon="5.96885">
        <ele>306</ele>
        <time>2016-07-18T16:25:36Z</time>
      </trkpt>
      <trkpt lat="45.53636" lon="5.96888">
        <ele>306</ele>
        <time>2016-07-18T16:27:36Z</time>
      </trkpt>
      <trkpt lat="45.53627" lon="5.96891">
        <ele>306</ele>
        <time>2016-07-18T16:29:36Z</time>
      </trkpt>
      <trkpt lat="45.53618" lon="5.96895">
        <ele>307</ele>
        <time>2016-07-18T16:31:36Z</time>
      </trkpt>
      <trkpt lat="45.53609" lon="5.969">
        <ele>307</ele>
        <time>2016-07-18T16:33:36Z</time>
      </trkpt>
      <trkpt lat="45.5359" lon="5.96914">
        <ele>308</ele>
        <time>2016-07-18T16:35:36Z</time>
      </trkpt>
      <trkpt lat="45.53488" lon="5.96991">
        <ele>309</ele>
        <time>2016-07-18T16:37:36Z</time>
      </trkpt>
      <trkpt lat="45.53457" lon="5.9701">
        <ele>308</ele>
        <time>2016-07-18T16:39:36Z</time>
      </trkpt>
      <trkpt lat="45.53429" lon="5.97026">
        <ele>308</ele>
        <time>2016-07-18T16:41:36Z</time>
      </trkpt>
      <trkpt lat="45.53354" lon="5.97072">
        <ele>308</ele>
        <time>2016-07-18T16:43:36Z</time>
      </trkpt>
      <trkpt lat="45.53264" lon="5.9713">
        <ele>308</ele>
        <time>2016-07-18T16:45:36Z</time>
      </trkpt>
      <trkpt lat="45.53167" lon="5.97196">
        <ele>310</ele>
        <time>2016-07-18T16:47:36Z</time>
      </trkpt>
      <trkpt lat="45.53165" lon="5.97197">
        <ele>310</ele>
        <time>2016-07-18T16:49:36Z</time>
      </trkpt>
      <trkpt lat="45.53154" lon="5.97199">
        <ele>310</ele>
        <time>2016-07-18T16:51:36Z</time>
      </trkpt>
      <trkpt lat="45.53153" lon="5.97199">
        <ele>310</ele>
        <time>2016-07-18T16:53:36Z</time>
      </trkpt>
      <trkpt lat="45.53144" lon="5.97204">
        <ele>309</ele>
        <time>2016-07-18T16:55:36Z</time>
      </trkpt>
      <trkpt lat="45.53131" lon="5.97211">
        <ele>308</ele>
        <time>2016-07-18T16:57:36Z</time>
      </trkpt>
      <trkpt lat="45.53114" lon="5.97224">
        <ele>308</ele>
        <time>2016-07-18T16:59:36Z</time>
      </trkpt>
      <trkpt lat="45.53083" lon="5.97246">
        <ele>306</ele>
        <time>2016-07-18T17:01:36Z</time>
      </trkpt>
      <trkpt lat="45.53069" lon="5.97261">
        <ele>307</ele>
        <time>2016-07-18T17:03:36Z</time>
      </trkpt>
      <trkpt lat="45.53058" lon="5.97274">
        <ele>307</ele>
        <time>2016-07-18T17:05:36Z</time>
      </trkpt>
      <trkpt lat="45.53037" lon="5.973">
        <ele>308</ele>
        <time>2016-07-18T17:07:36Z</time>
      </trkpt>
      <trkpt lat="45.53002" lon="5.97329">
        <ele>309</ele>
        <time>2016-07-18T17:09:36Z</time>
      </trkpt>
      <trkpt lat="45.52984" lon="5.97352">
        <ele>310</ele>
        <time>2016-07-18T17:11:36Z</time>
      </trkpt>
      <trkpt lat="45.52968" lon="5.97375">
        <ele>310</ele>
        <time>2016-07-18T17:13:36Z</time>
      </trkpt>
      <trkpt lat="45.52958" lon="5.97395">
        <ele>310</ele>
        <time>2016-07-18T17:15:36Z</time>
      </trkpt>
      <trkpt lat="45.52948" lon="5.97416">
        <ele>310</ele>
        <time>2016-07-18T17:17:36Z</time>
      </trkpt>
      <trkpt lat="45.5294" lon="5.97429">
        <ele>310</ele>
        <time>2016-07-18T17:19:36Z</time>
      </trkpt>
      <trkpt lat="45.5294" lon="5.9743">
        <ele>310</ele>
        <time>2016-07-18T17:21:36Z</time>
      </trkpt>
      <trkpt lat="45.52926" lon="5.97453">
        <ele>309</ele>
        <time>2016-07-18T17:23:36Z</time>
      </trkpt>
      <trkpt lat="45.52919" lon="5.97462">
        <ele>309</ele>
        <time>2016-07-18T17:25:36Z</time>
      </trkpt>
      <trkpt lat="45.52909" lon="5.97473">
        <ele>309</ele>
        <time>2016-07-18T17:27:36Z</time>
      </trkpt>
      <trkpt lat="45.52891" lon="5.97489">
        <ele>309</ele>
        <time>2016-07-18T17:29:36Z</time>
      </trkpt>
      <trkpt lat="45.5287" lon="5.97506">
        <ele>310</ele>
        <time>2016-07-18T17:31:36Z</time>
      </trkpt>
      <trkpt lat="45.52852" lon="5.97519">
        <ele>310</ele>
        <time>2016-07-18T17:33:36Z</time>
      </trkpt>
      <trkpt lat="45.5283" lon="5.97536">
        <ele>310</ele>
        <time>2016-07-18T17:35:36Z</time>
      </trkpt>
      <trkpt lat="45.52809" lon="5.97551">
        <ele>311</ele>
        <time>2016-07-18T17:37:36Z</time>
      </trkpt>
      <trkpt lat="45.5279" lon="5.97567">
        <ele>311</ele>
        <time>2016-07-18T17:39:36Z</time>
      </trkpt>
      <trkpt lat="45.52731" lon="5.97631">
        <ele>314</ele>
        <time>2016-07-18T17:41:36Z</time>
      </trkpt>
      <trkpt lat="45.52671" lon="5.97708">
        <ele>316</ele>
        <time>2016-07-18T17:43:36Z</time>
      </trkpt>
      <trkpt lat="45.52652" lon="5.97735">
        <ele>316</ele>
        <time>2016-07-18T17:45:36Z</time>
      </trkpt>
      <trkpt lat="45.52632" lon="5.97759">
        <ele>316</ele>
        <time>2016-07-18T17:47:36Z</time>
      </trkpt>
      <trkpt lat="45.52612" lon="5.97782">
        <ele>316</ele>
        <time>2016-07-18T17:49:36Z</time>
      </trkpt>
      <trkpt lat="45.52587" lon="5.97805">
        <ele>316</ele>
        <time>2016-07-18T17:51:36Z</time>
      </trkpt>
      <trkpt lat="45.52572" lon="5.97821">
        <ele>316</ele>
        <time>2016-07-18T17:53:36Z</time>
      </trkpt>
      <trkpt lat="45.52559" lon="5.97836">
        <ele>316</ele>
        <time>2016-07-18T17:55:36Z</time>
      </trkpt>
      <trkpt lat="45.52557" lon="5.9784">
        <ele>316</ele>
        <time>2016-07-18T17:57:36Z</time>
      </trkpt>
      <trkpt lat="45.52551" lon="5.9785">
        <ele>316</ele>
        <time>2016-07-18T17:59:36Z</time>
      </trkpt>
      <trkpt lat="45.52541" lon="5.97866">
        <ele>316</ele>
        <time>2016-07-18T18:01:36Z</time>
      </trkpt>
      <trkpt lat="45.52541" lon="5.97866">
        <ele>316</ele>
        <time>2016-07-18T18:03:36Z</time>
      </trkpt>
      <trkpt lat="45.52527" lon="5.97879">
        <ele>316</ele>
        <time>2016-07-18T18:05:36Z</time>
      </trkpt>
      <trkpt lat="45.52515" lon="5.97889">
        <ele>315</ele>
        <time>2016-07-18T18:07:36Z</time>
      </trkpt>
      <trkpt lat="45.52506" lon="5.97899">
        <ele>314</ele>
        <time>2016-07-18T18:09:36Z</time>
      </trkpt>
      <trkpt lat="45.52488" lon="5.97919">
        <ele>315</ele>
        <time>2016-07-18T18:11:36Z</time>
      </trkpt>
      <trkpt lat="45.52479" lon="5.97929">
        <ele>315</ele>
        <time>2016-07-18T18:13:36Z</time>
      </trkpt>
      <trkpt lat="45.5247" lon="5.97938">
        <ele>316</ele>
        <time>2016-07-18T18:15:36Z</time>
      </trkpt>
      <trkpt lat="45.52461" lon="5.97945">
        <ele>316</ele>
        <time>2016-07-18T18:17:36Z</time>
      </trkpt>
      <trkpt lat="45.5245" lon="5.97953">
        <ele>316</ele>
        <time>2016-07-18T18:19:36Z</time>
      </trkpt>
      <trkpt lat="45.5243" lon="5.97962">
        <ele>316</ele>
        <time>2016-07-18T18:21:36Z</time>
      </trkpt>
      <trkpt lat="45.52418" lon="5.97967">
        <ele>316</ele>
        <time>2016-07-18T18:23:36Z</time>
      </trkpt>
      <trkpt lat="45.52407" lon="5.97973">
        <ele>316</ele>
        <time>2016-07-18T18:25:36Z</time>
      </trkpt>
      <trkpt lat="45.52399" lon="5.97979">
        <ele>316</ele>
        <time>2016-07-18T18:27:36Z</time>
      </trkpt>
      <trkpt lat="45.52393" lon="5.97984">
        <ele>316</ele>
        <time>2016-07-18T18:29:36Z</time>
      </trkpt>
      <trkpt lat="45.52388" lon="5.9799">
        <ele>315</ele>
        <time>2016-07-18T18:31:36Z</time>
      </trkpt>
      <trkpt lat="45.52383" lon="5.97996">
        <ele>315</ele>
        <time>2016-07-18T18:33:36Z</time>
      </trkpt>
      <trkpt lat="45.52378" lon="5.98004">
        <ele>315</ele>
        <time>2016-07-18T18:35:36Z</time>
      </trkpt>
      <trkpt lat="45.52361" lon="5.98031">
        <ele>315</ele>
        <time>2016-07-18T18:37:36Z</time>
      </trkpt>
      <trkpt lat="45.52346" lon="5.98051">
        <ele>314</ele>
        <time>2016-07-18T18:39:36Z</time>
      </trkpt>
      <trkpt lat="45.52309" lon="5.98095">
        <ele>314</ele>
        <time>2016-07-18T18:41:36Z</time>
      </trkpt>
      <trkpt lat="45.52303" lon="5.98102">
        <ele>314</ele>
        <time>2016-07-18T18:43:36Z</time>
      </trkpt>
      <trkpt lat="45.52292" lon="5.98114">
        <ele>313</ele>
        <time>2016-07-18T18:45:36Z</time>
      </trkpt>
      <trkpt lat="45.52282" lon="5.98124">
        <ele>313</ele>
        <time>2016-07-18T18:47:36Z</time>
      </trkpt>
      <trkpt lat="45.52274" lon="5.98131">
        <ele>313</ele>
        <time>2016-07-18T18:49:36Z</time>
      </trkpt>
      <trkpt lat="45.52258" lon="5.98139">
        <ele>312</ele>
        <time>2016-07-18T18:51:36Z</time>
      </trkpt>
      <trkpt lat="45.52253" lon="5.9814">
        <ele>312</ele>
        <time>2016-07-18T18:53:36Z</time>
      </trkpt>
      <trkpt lat="45.52245" lon="5.98142">
        <ele>311</ele>
        <time>2016-07-18T18:55:36Z</time>
      </trkpt>
      <trkpt lat="45.52238" lon="5.98142">
        <ele>311</ele>
        <time>2016-07-18T18:57:36Z</time>
      </trkpt>
      <trkpt lat="45.5223" lon="5.98139">
        <ele>311</ele>
        <time>2016-07-18T18:59:36Z</time>
      </trkpt>
      <trkpt lat="45.52227" lon="5.98139">
        <ele>311</ele>
        <time>2016-07-18T19:01:36Z</time>
      </trkpt>
      <trkpt lat="45.52226" lon="5.98138">
        <ele>311</ele>
        <time>2016-07-18T19:03:36Z</time>
      </trkpt>
      <trkpt lat="45.52224" lon="5.98137">
        <ele>311</ele>
        <time>2016-07-18T19:05:36Z</time>
      </trkpt>
      <trkpt lat="45.52223" lon="5.98135">
        <ele>311</ele>
        <time>2016-07-18T19:07:36Z</time>
      </trkpt>
      <trkpt lat="45.52205" lon="5.98104">
        <ele>311</ele>
        <time>2016-07-18T19:09:36Z</time>
      </trkpt>
      <trkpt lat="45.52181" lon="5.98062">
        <ele>311</ele>
        <time>2016-07-18T19:11:36Z</time>
      </trkpt>
      <trkpt lat="45.52173" lon="5.98049">
        <ele>311</ele>
        <time>2016-07-18T19:13:36Z</time>
      </trkpt>
      <trkpt lat="45.52173" lon="5.98049">
        <ele>311</ele>
        <time>2016-07-18T19:15:36Z</time>
      </trkpt>
      <trkpt lat="45.52169" lon="5.98046">
        <ele>311</ele>
        <time>2016-07-18T19:17:36Z</time>
      </trkpt>
      <trkpt lat="45.52163" lon="5.98042">
        <ele>311</ele>
        <time>2016-07-18T19:19:36Z</time>
      </trkpt>
      <trkpt lat="45.52155" lon="5.98036">
        <ele>311</ele>
        <time>2016-07-18T19:21:36Z</time>
      </trkpt>
      <trkpt lat="45.52146" lon="5.98031">
        <ele>311</ele>
        <time>2016-07-18T19:23:36Z</time>
      </trkpt>
      <trkpt lat="45.5214" lon="5.98029">
        <ele>311</ele>
        <time>2016-07-18T19:25:36Z</time>
      </trkpt>
      <trkpt lat="45.52139" lon="5.98029">
        <ele>311</ele>
        <time>2016-07-18T19:27:36Z</time>
      </trkpt>
      <trkpt lat="45.52137" lon="5.98029">
        <ele>311</ele>
        <time>2016-07-18T19:29:36Z</time>
      </trkpt>
      <trkpt lat="45.52132" lon="5.9803">
        <ele>311</ele>
        <time>2016-07-18T19:31:36Z</time>
      </trkpt>
      <trkpt lat="45.52131" lon="5.98031">
        <ele>311</ele>
        <time>2016-07-18T19:33:36Z</time>
      </trkpt>
      <trkpt lat="45.52128" lon="5.98034">
        <ele>312</ele>
        <time>2016-07-18T19:35:36Z</time>
      </trkpt>
      <trkpt lat="45.52125" lon="5.98038">
        <ele>312</ele>
        <time>2016-07-18T19:37:36Z</time>
      </trkpt>
      <trkpt lat="45.52124" lon="5.98039">
        <ele>312</ele>
        <time>2016-07-18T19:39:36Z</time>
      </trkpt>
      <trkpt lat="45.52121" lon="5.98048">
        <ele>312</ele>
        <time>2016-07-18T19:41:36Z</time>
      </trkpt>
      <trkpt lat="45.52121" lon="5.9805">
        <ele>311</ele>
        <time>2016-07-18T19:43:36Z</time>
      </trkpt>
      <trkpt lat="45.52109" lon="5.98124">
        <ele>310</ele>
        <time>2016-07-18T19:45:36Z</time>
      </trkpt>
      <trkpt lat="45.52108" lon="5.98126">
        <ele>309</ele>
        <time>2016-07-18T19:47:36Z</time>
      </trkpt>
      <trkpt lat="45.52107" lon="5.98128">
        <ele>309</ele>
        <time>2016-07-18T19:49:36Z</time>
      </trkpt>
      <trkpt lat="45.52103" lon="5.9814">
        <ele>309</ele>
        <time>2016-07-18T19:51:36Z</time>
      </trkpt>
      <trkpt lat="45.52102" lon="5.98163">
        <ele>308</ele>
        <time>2016-07-18T19:53:36Z</time>
      </trkpt>
      <trkpt lat="45.521" lon="5.98191">
        <ele>307</ele>
        <time>2016-07-18T19:55:36Z</time>
      </trkpt>
      <trkpt lat="45.52099" lon="5.98209">
        <ele>306</ele>
        <time>2016-07-18T19:57:36Z</time>
      </trkpt>
      <trkpt lat="45.52095" lon="5.98233">
        <ele>306</ele>
        <time>2016-07-18T19:59:36Z</time>
      </trkpt>
      <trkpt lat="45.52085" lon="5.98281">
        <ele>304</ele>
        <time>2016-07-18T20:01:36Z</time>
      </trkpt>
      <trkpt lat="45.52079" lon="5.983">
        <ele>304</ele>
        <time>2016-07-18T20:03:36Z</time>
      </trkpt>
      <trkpt lat="45.52075" lon="5.9831">
        <ele>304</ele>
        <time>2016-07-18T20:05:36Z</time>
      </trkpt>
      <trkpt lat="45.52071" lon="5.98316">
        <ele>303</ele>
        <time>2016-07-18T20:07:36Z</time>
      </trkpt>
      <trkpt lat="45.52055" lon="5.98329">
        <ele>303</ele>
        <time>2016-07-18T20:09:36Z</time>
      </trkpt>
      <trkpt lat="45.52035" lon="5.98342">
        <ele>303</ele>
        <time>2016-07-18T20:11:36Z</time>
      </trkpt>
      <trkpt lat="45.52027" lon="5.98348">
        <ele>303</ele>
        <time>2016-07-18T20:13:36Z</time>
      </trkpt>
      <trkpt lat="45.52007" lon="5.98362">
        <ele>303</ele>
        <time>2016-07-18T20:15:36Z</time>
      </trkpt>
      <trkpt lat="45.51969" lon="5.98383">
        <ele>304</ele>
        <time>2016-07-18T20:17:36Z</time>
      </trkpt>
      <trkpt lat="45.51961" lon="5.98387">
        <ele>304</ele>
        <time>2016-07-18T20:19:36Z</time>
      </trkpt>
      <trkpt lat="45.51952" lon="5.98399">
        <ele>304</ele>
        <time>2016-07-18T20:21:36Z</time>
      </trkpt>
      <trkpt lat="45.51949" lon="5.98405">
        <ele>303</ele>
        <time>2016-07-18T20:23:36Z</time>
      </trkpt>
      <trkpt lat="45.51938" lon="5.98429">
        <ele>303</ele>
        <time>2016-07-18T20:25:36Z</time>
      </trkpt>
      <trkpt lat="45.51883" lon="5.98552">
        <ele>304</ele>
        <time>2016-07-18T20:27:36Z</time>
      </trkpt>
      <trkpt lat="45.51857" lon="5.98613">
        <ele>302</ele>
        <time>2016-07-18T20:29:36Z</time>
      </trkpt>
      <trkpt lat="45.51845" lon="5.98642">
        <ele>301</ele>
        <time>2016-07-18T20:31:36Z</time>
      </trkpt>
      <trkpt lat="45.51835" lon="5.98665">
        <ele>300</ele>
        <time>2016-07-18T20:33:36Z</time>
      </trkpt>
      <trkpt lat="45.51818" lon="5.9871">
        <ele>303</ele>
        <time>2016-07-18T20:35:36Z</time>
      </trkpt>
      <trkpt lat="45.51787" lon="5.98797">
        <ele>304</ele>
        <time>2016-07-18T20:37:36Z</time>
      </trkpt>
      <trkpt lat="45.51775" lon="5.98836">
        <ele>303</ele>
        <time>2016-07-18T20:39:36Z</time>
      </trkpt>
      <trkpt lat="45.5176" lon="5.98879">
        <ele>303</ele>
        <time>2016-07-18T20:41:36Z</time>
      </trkpt>
      <trkpt lat="45.5175" lon="5.98908">
        <ele>302</ele>
        <time>2016-07-18T20:43:36Z</time>
      </trkpt>
      <trkpt lat="45.51742" lon="5.98933">
        <ele>303</ele>
        <time>2016-07-18T20:45:36Z</time>
      </trkpt>
      <trkpt lat="45.51738" lon="5.98951">
        <ele>303</ele>
        <time>2016-07-18T20:47:36Z</time>
      </trkpt>
      <trkpt lat="45.51736" lon="5.9896">
        <ele>304</ele>
        <time>2016-07-18T20:49:36Z</time>
      </trkpt>
      <trkpt lat="45.51736" lon="5.9896">
        <ele>304</ele>
        <time>2016-07-18T20:51:36Z</time>
      </trkpt>
      <trkpt lat="45.5174" lon="5.98969">
        <ele>303</ele>
        <time>2016-07-18T20:53:36Z</time>
      </trkpt>
      <trkpt lat="45.51754" lon="5.98991">
        <ele>303</ele>
        <time>2016-07-18T20:55:36Z</time>
      </trkpt>
      <trkpt lat="45.51774" lon="5.99016">
        <ele>302</ele>
        <time>2016-07-18T20:57:36Z</time>
      </trkpt>
      <trkpt lat="45.518" lon="5.99048">
        <ele>301</ele>
        <time>2016-07-18T20:59:36Z</time>
      </trkpt>
      <trkpt lat="45.51816" lon="5.99066">
        <ele>300</ele>
        <time>2016-07-18T21:01:36Z</time>
      </trkpt>
      <trkpt lat="45.51831" lon="5.99079">
        <ele>299</ele>
        <time>2016-07-18T21:03:36Z</time>
      </trkpt>
      <trkpt lat="45.5185" lon="5.99096">
        <ele>299</ele>
        <time>2016-07-18T21:05:36Z</time>
      </trkpt>
      <trkpt lat="45.51863" lon="5.99109">
        <ele>299</ele>
        <time>2016-07-18T21:07:36Z</time>
      </trkpt>
      <trkpt lat="45.51872" lon="5.99119">
        <ele>299</ele>
        <time>2016-07-18T21:09:36Z</time>
      </trkpt>
      <trkpt lat="45.51874" lon="5.99122">
        <ele>299</ele>
        <time>2016-07-18T21:11:36Z</time>
      </trkpt>
      <trkpt lat="45.51875" lon="5.99124">
        <ele>299</ele>
        <time>2016-07-18T21:13:36Z</time>
      </trkpt>
      <trkpt lat="45.51875" lon="5.99126">
        <ele>299</ele>
        <time>2016-07-18T21:15:36Z</time>
      </trkpt>
      <trkpt lat="45.51876" lon="5.99129">
        <ele>299</ele>
        <time>2016-07-18T21:17:36Z</time>
      </trkpt>
      <trkpt lat="45.51875" lon="5.99131">
        <ele>299</ele>
        <time>2016-07-18T21:19:36Z</time>
      </trkpt>
      <trkpt lat="45.51875" lon="5.99134">
        <ele>299</ele>
        <time>2016-07-18T21:21:36Z</time>
      </trkpt>
      <trkpt lat="45.51874" lon="5.99137">
        <ele>299</ele>
        <time>2016-07-18T21:23:36Z</time>
      </trkpt>
      <trkpt lat="45.51874" lon="5.99137">
        <ele>299</ele>
        <time>2016-07-18T21:25:36Z</time>
      </trkpt>
      <trkpt lat="45.5187" lon="5.99142">
        <ele>299</ele>
        <time>2016-07-18T21:27:36Z</time>
      </trkpt>
      <trkpt lat="45.51868" lon="5.99143">
        <ele>299</ele>
        <time>2016-07-18T21:29:36Z</time>
      </trkpt>
      <trkpt lat="45.51867" lon="5.99144">
        <ele>299</ele>
        <time>2016-07-18T21:31:36Z</time>
      </trkpt>
      <trkpt lat="45.51866" lon="5.99145">
        <ele>299</ele>
        <time>2016-07-18T21:33:36Z</time>
      </trkpt>
      <trkpt lat="45.51864" lon="5.99145">
        <ele>299</ele>
        <time>2016-07-18T21:35:36Z</time>
      </trkpt>
      <trkpt lat="45.51861" lon="5.99144">
        <ele>299</ele>
        <time>2016-07-18T21:37:36Z</time>
      </trkpt>
      <trkpt lat="45.51856" lon="5.99143">
        <ele>299</ele>
        <time>2016-07-18T21:39:36Z</time>
      </trkpt>
      <trkpt lat="45.51853" lon="5.99142">
        <ele>299</ele>
        <time>2016-07-18T21:41:36Z</time>
      </trkpt>
      <trkpt lat="45.5185" lon="5.99141">
        <ele>299</ele>
        <time>2016-07-18T21:43:36Z</time>
      </trkpt>
      <trkpt lat="45.51848" lon="5.9914">
        <ele>299</ele>
        <time>2016-07-18T21:45:36Z</time>
      </trkpt>
      <trkpt lat="45.51846" lon="5.9914">
        <ele>299</ele>
        <time>2016-07-18T21:47:36Z</time>
      </trkpt>
      <trkpt lat="45.51842" lon="5.9914">
        <ele>299</ele>
        <time>2016-07-18T21:49:36Z</time>
      </trkpt>
      <trkpt lat="45.51834" lon="5.99138">
        <ele>299</ele>
        <time>2016-07-18T21:51:36Z</time>
      </trkpt>
      <trkpt lat="45.51825" lon="5.99133">
        <ele>299</ele>
        <time>2016-07-18T21:53:36Z</time>
      </trkpt>
      <trkpt lat="45.51817" lon="5.99127">
        <ele>300</ele>
        <time>2016-07-18T21:55:36Z</time>
      </trkpt>
      <trkpt lat="45.51811" lon="5.99123">
        <ele>300</ele>
        <time>2016-07-18T21:57:36Z</time>
      </trkpt>
      <trkpt lat="45.51805" lon="5.9912">
        <ele>300</ele>
        <time>2016-07-18T21:59:36Z</time>
      </trkpt>
      <trkpt lat="45.51799" lon="5.99117">
        <ele>300</ele>
        <time>2016-07-18T22:01:36Z</time>
      </trkpt>
      <trkpt lat="45.51793" lon="5.99114">
        <ele>300</ele>
        <time>2016-07-18T22:03:36Z</time>
      </trkpt>
      <trkpt lat="45.51787" lon="5.99112">
        <ele>301</ele>
        <time>2016-07-18T22:05:36Z</time>
      </trkpt>
      <trkpt lat="45.51782" lon="5.99111">
        <ele>301</ele>
        <time>2016-07-18T22:07:36Z</time>
      </trkpt>
      <trkpt lat="45.51776" lon="5.99112">
        <ele>301</ele>
        <time>2016-07-18T22:09:36Z</time>
      </trkpt>
      <trkpt lat="45.51768" lon="5.99117">
        <ele>301</ele>
        <time>2016-07-18T22:11:36Z</time>
      </trkpt>
      <trkpt lat="45.51762" lon="5.99122">
        <ele>302</ele>
        <time>2016-07-18T22:13:36Z</time>
      </trkpt>
      <trkpt lat="45.51759" lon="5.99125">
        <ele>302</ele>
        <time>2016-07-18T22:15:36Z</time>
      </trkpt>
      <trkpt lat="45.51754" lon="5.99128">
        <ele>302</ele>
        <time>2016-07-18T22:17:36Z</time>
      </trkpt>
      <trkpt lat="45.5175" lon="5.9913">
        <ele>302</ele>
        <time>2016-07-18T22:19:36Z</time>
      </trkpt>
      <trkpt lat="45.51746" lon="5.99131">
        <ele>302</ele>
        <time>2016-07-18T22:21:36Z</time>
      </trkpt>
      <trkpt lat="45.51736" lon="5.99133">
        <ele>302</ele>
        <time>2016-07-18T22:23:36Z</time>
      </trkpt>
      <trkpt lat="45.51724" lon="5.99133">
        <ele>302</ele>
        <time>2016-07-18T22:25:36Z</time>
      </trkpt>
      <trkpt lat="45.51716" lon="5.99134">
        <ele>302</ele>
        <time>2016-07-18T22:27:36Z</time>
      </trkpt>
      <trkpt lat="45.51711" lon="5.99135">
        <ele>302</ele>
        <time>2016-07-18T22:29:36Z</time>
      </trkpt>
      <trkpt lat="45.51708" lon="5.99136">
        <ele>302</ele>
        <time>2016-07-18T22:31:36Z</time>
      </trkpt>
      <trkpt lat="45.51699" lon="5.99141">
        <ele>302</ele>
        <time>2016-07-18T22:33:36Z</time>
      </trkpt>
      <trkpt lat="45.5169" lon="5.99147">
        <ele>302</ele>
        <time>2016-07-18T22:35:36Z</time>
      </trkpt>
      <trkpt lat="45.51683" lon="5.99166">
        <ele>301</ele>
        <time>2016-07-18T22:37:36Z</time>
      </trkpt>
      <trkpt lat="45.51671" lon="5.99206">
        <ele>301</ele>
        <time>2016-07-18T22:39:36Z</time>
      </trkpt>
      <trkpt lat="45.51668" lon="5.99216">
        <ele>301</ele>
        <time>2016-07-18T22:41:36Z</time>
      </trkpt>
      <trkpt lat="45.51657" lon="5.9926">
        <ele>301</ele>
        <time>2016-07-18T22:43:36Z</time>
      </trkpt>
      <trkpt lat="45.51638" lon="5.99327">
        <ele>301</ele>
        <time>2016-07-18T22:45:36Z</time>
      </trkpt>
      <trkpt lat="45.51622" lon="5.99394">
        <ele>301</ele>
        <time>2016-07-18T22:47:36Z</time>
      </trkpt>
      <trkpt lat="45.51606" lon="5.99461">
        <ele>300</ele>
        <time>2016-07-18T22:49:36Z</time>
      </trkpt>
      <trkpt lat="45.51577" lon="5.99567">
        <ele>299</ele>
        <time>2016-07-18T22:51:36Z</time>
      </trkpt>
      <trkpt lat="45.51551" lon="5.99656">
        <ele>298</ele>
        <time>2016-07-18T22:53:36Z</time>
      </trkpt>
      <trkpt lat="45.51518" lon="5.99761">
        <ele>298</ele>
        <time>2016-07-18T22:55:36Z</time>
      </trkpt>
      <trkpt lat="45.51488" lon="5.99856">
        <ele>298</ele>
        <time>2016-07-18T22:57:36Z</time>
      </trkpt>
      <trkpt lat="45.51472" lon="5.99901">
        <ele>297</ele>
        <time>2016-07-18T22:59:36Z</time>
      </trkpt>
      <trkpt lat="45.51465" lon="5.99926">
        <ele>295</ele>
        <time>2016-07-18T23:01:36Z</time>
      </trkpt>
      <trkpt lat="45.5146" lon="5.99959">
        <ele>295</ele>
        <time>2016-07-18T23:03:36Z</time>
      </trkpt>
      <trkpt lat="45.5146" lon="6.00003">
        <ele>296</ele>
        <time>2016-07-18T23:05:36Z</time>
      </trkpt>
      <trkpt lat="45.51458" lon="6.00017">
        <ele>296</ele>
        <time>2016-07-18T23:07:36Z</time>
      </trkpt>
      <trkpt lat="45.51455" lon="6.00047">
        <ele>296</ele>
        <time>2016-07-18T23:09:36Z</time>
      </trkpt>
      <trkpt lat="45.51446" lon="6.00089">
        <ele>297</ele>
        <time>2016-07-18T23:11:36Z</time>
      </trkpt>
      <trkpt lat="45.5144" lon="6.00122">
        <ele>296</ele>
        <time>2016-07-18T23:13:36Z</time>
      </trkpt>
      <trkpt lat="45.51441" lon="6.00138">
        <ele>296</ele>
        <time>2016-07-18T23:15:36Z</time>
      </trkpt>
      <trkpt lat="45.51443" lon="6.00152">
        <ele>296</ele>
        <time>2016-07-18T23:17:36Z</time>
      </trkpt>
      <trkpt lat="45.51447" lon="6.0017">
        <ele>296</ele>
        <time>2016-07-18T23:19:36Z</time>
      </trkpt>
      <trkpt lat="45.51447" lon="6.0017">
        <ele>296</ele>
        <time>2016-07-18T23:21:36Z</time>
      </trkpt>
      <trkpt lat="45.51453" lon="6.00171">
        <ele>296</ele>
        <time>2016-07-18T23:23:36Z</time>
      </trkpt>
      <trkpt lat="45.51457" lon="6.00173">
        <ele>296</ele>
        <time>2016-07-18T23:25:36Z</time>
      </trkpt>
      <trkpt lat="45.51459" lon="6.00175">
        <ele>296</ele>
        <time>2016-07-18T23:27:36Z</time>
      </trkpt>
      <trkpt lat="45.5147" lon="6.00183">
        <ele>296</ele>
        <time>2016-07-18T23:29:36Z</time>
      </trkpt>
      <trkpt lat="45.51488" lon="6.00192">
        <ele>296</ele>
        <time>2016-07-18T23:31:36Z</time>
      </trkpt>
      <trkpt lat="45.51502" lon="6.00202">
        <ele>297</ele>
        <time>2016-07-18T23:33:36Z</time>
      </trkpt>
      <trkpt lat="45.51518" lon="6.0021">
        <ele>296</ele>
        <time>2016-07-18T23:35:36Z</time>
      </trkpt>
      <trkpt lat="45.51531" lon="6.00222">
        <ele>296</ele>
        <time>2016-07-18T23:37:36Z</time>
      </trkpt>
      <trkpt lat="45.51538" lon="6.00228">
        <ele>296</ele>
        <time>2016-07-18T23:39:36Z</time>
      </trkpt>
      <trkpt lat="45.51551" lon="6.00239">
        <ele>296</ele>
        <time>2016-07-18T23:41:36Z</time>
      </trkpt>
      <trkpt lat="45.51566" lon="6.00253">
        <ele>296</ele>
        <time>2016-07-18T23:43:36Z</time>
      </trkpt>
      <trkpt lat="45.51575" lon="6.00261">
        <ele>296</ele>
        <time>2016-07-18T23:45:36Z</time>
      </trkpt>
      <trkpt lat="45.51579" lon="6.00268">
        <ele>297</ele>
        <time>2016-07-18T23:47:36Z</time>
      </trkpt>
      <trkpt lat="45.5158" lon="6.00274">
        <ele>297</ele>
        <time>2016-07-18T23:49:36Z</time>
      </trkpt>
      <trkpt lat="45.5158" lon="6.0028">
        <ele>297</ele>
        <time>2016-07-18T23:51:36Z</time>
      </trkpt>
      <trkpt lat="45.51579" lon="6.00284">
        <ele>297</ele>
        <time>2016-07-18T23:53:36Z</time>
      </trkpt>
      <trkpt lat="45.51572" lon="6.00305">
        <ele>298</ele>
        <time>2016-07-18T23:55:36Z</time>
      </trkpt>
      <trkpt lat="45.5155" lon="6.00368">
        <ele>298</ele>
        <time>2016-07-18T23:57:36Z</time>
      </trkpt>
      <trkpt lat="45.51493" lon="6.00536">
        <ele>296</ele>
        <time>2016-07-18T23:59:36Z</time>
      </trkpt>
      <trkpt lat="45.51493" lon="6.00536">
        <ele>296</ele>
        <time>2016-07-19T00:01:36Z</time>
      </trkpt>
      <trkpt lat="45.51505" lon="6.0054">
        <ele>297</ele>
        <time>2016-07-19T00:03:36Z</time>
      </trkpt>
      <trkpt lat="45.51511" lon="6.00544">
        <ele>297</ele>
        <time>2016-07-19T00:05:36Z</time>
      </trkpt>
      <trkpt lat="45.51516" lon="6.00552">
        <ele>297</ele>
        <time>2016-07-19T00:07:36Z</time>
      </trkpt>
      <trkpt lat="45.51517" lon="6.00559">
        <ele>297</ele>
        <time>2016-07-19T00:09:36Z</time>
      </trkpt>
      <trkpt lat="45.51516" lon="6.00566">
        <ele>297</ele>
        <time>2016-07-19T00:11:36Z</time>
      </trkpt>
      <trkpt lat="45.51514" lon="6.00571">
        <ele>297</ele>
        <time>2016-07-19T00:13:36Z</time>
      </trkpt>
      <trkpt lat="45.51506" lon="6.00584">
        <ele>297</ele>
        <time>2016-07-19T00:15:36Z</time>
      </trkpt>
      <trkpt lat="45.51488" lon="6.00605">
        <ele>298</ele>
        <time>2016-07-19T00:17:36Z</time>
      </trkpt>
      <trkpt lat="45.5147" lon="6.00628">
        <ele>298</ele>
        <time>2016-07-19T00:19:36Z</time>
      </trkpt>
      <trkpt lat="45.51461" lon="6.00641">
        <ele>298</ele>
        <time>2016-07-19T00:21:36Z</time>
      </trkpt>
      <trkpt lat="45.51459" lon="6.00646">
        <ele>298</ele>
        <time>2016-07-19T00:23:36Z</time>
      </trkpt>
      <trkpt lat="45.51459" lon="6.00652">
        <ele>299</ele>
        <time>2016-07-19T00:25:36Z</time>
      </trkpt>
      <trkpt lat="45.5146" lon="6.00656">
        <ele>299</ele>
        <time>2016-07-19T00:27:36Z</time>
      </trkpt>
      <trkpt lat="45.51466" lon="6.00677">
        <ele>300</ele>
        <time>2016-07-19T00:29:36Z</time>
      </trkpt>
      <trkpt lat="45.51466" lon="6.00677">
        <ele>300</ele>
        <time>2016-07-19T00:31:36Z</time>
      </trkpt>
      <trkpt lat="45.51514" lon="6.00626">
        <ele>300</ele>
        <time>2016-07-19T00:33:36Z</time>
      </trkpt>
      <trkpt lat="45.51525" lon="6.00614">
        <ele>300</ele>
        <time>2016-07-19T00:35:36Z</time>
      </trkpt>
      <trkpt lat="45.51535" lon="6.00601">
        <ele>299</ele>
        <time>2016-07-19T00:37:36Z</time>
      </trkpt>
      <trkpt lat="45.51543" lon="6.00589">
        <ele>299</ele>
        <time>2016-07-19T00:39:36Z</time>
      </trkpt>
      <trkpt lat="45.51552" lon="6.00575">
        <ele>299</ele>
        <time>2016-07-19T00:41:36Z</time>
      </trkpt>
      <trkpt lat="45.51552" lon="6.00575">
        <ele>299</ele>
        <time>2016-07-19T00:43:36Z</time>
      </trkpt>
      <trkpt lat="45.51558" lon="6.00584">
        <ele>299</ele>
        <time>2016-07-19T00:45:36Z</time>
      </trkpt>
      <trkpt lat="45.51558" lon="6.00586">
        <ele>299</ele>
        <time>2016-07-19T00:47:36Z</time>
      </trkpt>
      <trkpt lat="45.51586" lon="6.00634">
        <ele>304</ele>
        <time>2016-07-19T00:49:36Z</time>
      </trkpt>
      <trkpt lat="45.51586" lon="6.00634">
        <ele>304</ele>
        <time>2016-07-19T00:51:36Z</time>
      </trkpt>
      <trkpt lat="45.51574" lon="6.0065">
        <ele>304</ele>
        <time>2016-07-19T00:53:36Z</time>
      </trkpt>
      <trkpt lat="45.51541" lon="6.00686">
        <ele>305</ele>
        <time>2016-07-19T00:55:36Z</time>
      </trkpt>
      <trkpt lat="45.51525" lon="6.00708">
        <ele>305</ele>
        <time>2016-07-19T00:57:36Z</time>
      </trkpt>
      <trkpt lat="45.51513" lon="6.00725">
        <ele>305</ele>
        <time>2016-07-19T00:59:36Z</time>
      </trkpt>
      <trkpt lat="45.51491" lon="6.00764">
        <ele>305</ele>
        <time>2016-07-19T01:01:36Z</time>
      </trkpt>
      <trkpt lat="45.51478" lon="6.00787">
        <ele>306</ele>
        <time>2016-07-19T01:03:36Z</time>
      </trkpt>
      <trkpt lat="45.51462" lon="6.00817">
        <ele>306</ele>
        <time>2016-07-19T01:05:36Z</time>
      </trkpt>
      <trkpt lat="45.51442" lon="6.0085">
        <ele>305</ele>
        <time>2016-07-19T01:07:36Z</time>
      </trkpt>
      <trkpt lat="45.51437" lon="6.00858">
        <ele>305</ele>
        <time>2016-07-19T01:09:36Z</time>
      </trkpt>
      <trkpt lat="45.51426" lon="6.00878">
        <ele>305</ele>
        <time>2016-07-19T01:11:36Z</time>
      </trkpt>
      <trkpt lat="45.51405" lon="6.00916">
        <ele>306</ele>
        <time>2016-07-19T01:13:36Z</time>
      </trkpt>
      <trkpt lat="45.51394" lon="6.00935">
        <ele>305</ele>
        <time>2016-07-19T01:15:36Z</time>
      </trkpt>
      <trkpt lat="45.51381" lon="6.0096">
        <ele>305</ele>
        <time>2016-07-19T01:17:36Z</time>
      </trkpt>
      <trkpt lat="45.51371" lon="6.00984">
        <ele>304</ele>
        <time>2016-07-19T01:19:36Z</time>
      </trkpt>
      <trkpt lat="45.51364" lon="6.01012">
        <ele>303</ele>
        <time>2016-07-19T01:21:36Z</time>
      </trkpt>
      <trkpt lat="45.51358" lon="6.0104">
        <ele>303</ele>
        <time>2016-07-19T01:23:36Z</time>
      </trkpt>
      <trkpt lat="45.51352" lon="6.01069">
        <ele>303</ele>
        <time>2016-07-19T01:25:36Z</time>
      </trkpt>
      <trkpt lat="45.51348" lon="6.01086">
        <ele>302</ele>
        <time>2016-07-19T01:27:36Z</time>
      </trkpt>
      <trkpt lat="45.51335" lon="6.01123">
        <ele>301</ele>
        <time>2016-07-19T01:29:36Z</time>
      </trkpt>
      <trkpt lat="45.51314" lon="6.01175">
        <ele>302</ele>
        <time>2016-07-19T01:31:36Z</time>
      </trkpt>
      <trkpt lat="45.51306" lon="6.01198">
        <ele>303</ele>
        <time>2016-07-19T01:33:36Z</time>
      </trkpt>
      <trkpt lat="45.51302" lon="6.0121">
        <ele>303</ele>
        <time>2016-07-19T01:35:36Z</time>
      </trkpt>
      <trkpt lat="45.513" lon="6.01215">
        <ele>303</ele>
        <time>2016-07-19T01:37:36Z</time>
      </trkpt>
      <trkpt lat="45.51287" lon="6.01251">
        <ele>304</ele>
        <time>2016-07-19T01:39:36Z</time>
      </trkpt>
      <trkpt lat="45.5127" lon="6.01288">
        <ele>304</ele>
        <time>2016-07-19T01:41:36Z</time>
      </trkpt>
      <trkpt lat="45.51253" lon="6.01315">
        <ele>303</ele>
        <time>2016-07-19T01:43:36Z</time>
      </trkpt>
      <trkpt lat="45.51229" lon="6.01358">
        <ele>303</ele>
        <time>2016-07-19T01:45:36Z</time>
      </trkpt>
      <trkpt lat="45.51218" lon="6.01386">
        <ele>302</ele>
        <time>2016-07-19T01:47:36Z</time>
      </trkpt>
      <trkpt lat="45.51212" lon="6.01405">
        <ele>302</ele>
        <time>2016-07-19T01:49:36Z</time>
      </trkpt>
      <trkpt lat="45.51204" lon="6.01426">
        <ele>301</ele>
        <time>2016-07-19T01:51:36Z</time>
      </trkpt>
      <trkpt lat="45.51198" lon="6.01443">
        <ele>299</ele>
        <time>2016-07-19T01:53:36Z</time>
      </trkpt>
      <trkpt lat="45.51193" lon="6.01457">
        <ele>298</ele>
        <time>2016-07-19T01:55:36Z</time>
      </trkpt>
      <trkpt lat="45.51189" lon="6.01475">
        <ele>297</ele>
        <time>2016-07-19T01:57:36Z</time>
      </trkpt>
      <trkpt lat="45.51179" lon="6.01513">
        <ele>296</ele>
        <time>2016-07-19T01:59:36Z</time>
      </trkpt>
      <trkpt lat="45.51169" lon="6.01538">
        <ele>295</ele>
        <time>2016-07-19T02:01:36Z</time>
      </trkpt>
      <trkpt lat="45.51158" lon="6.01559">
        <ele>294</ele>
        <time>2016-07-19T02:03:36Z</time>
      </trkpt>
      <trkpt lat="45.51126" lon="6.01623">
        <ele>293</ele>
        <time>2016-07-19T02:05:36Z</time>
      </trkpt>
      <trkpt lat="45.5112" lon="6.01633">
        <ele>293</ele>
        <time>2016-07-19T02:07:36Z</time>
      </trkpt>
      <trkpt lat="45.5111" lon="6.01654">
        <ele>292</ele>
        <time>2016-07-19T02:09:36Z</time>
      </trkpt>
      <trkpt lat="45.51108" lon="6.01671">
        <ele>292</ele>
        <time>2016-07-19T02:11:36Z</time>
      </trkpt>
      <trkpt lat="45.51109" lon="6.0168">
        <ele>292</ele>
        <time>2016-07-19T02:13:36Z</time>
      </trkpt>
      <trkpt lat="45.51114" lon="6.01692">
        <ele>292</ele>
        <time>2016-07-19T02:15:36Z</time>
      </trkpt>
      <trkpt lat="45.51129" lon="6.01714">
        <ele>293</ele>
        <time>2016-07-19T02:17:36Z</time>
      </trkpt>
      <trkpt lat="45.51139" lon="6.01727">
        <ele>294</ele>
        <time>2016-07-19T02:19:36Z</time>
      </trkpt>
      <trkpt lat="45.5115" lon="6.01748">
        <ele>294</ele>
        <time>2016-07-19T02:21:36Z</time>
      </trkpt>
      <trkpt lat="45.51156" lon="6.01767">
        <ele>295</ele>
        <time>2016-07-19T02:23:36Z</time>
      </trkpt>
      <trkpt lat="45.51159" lon="6.01788">
        <ele>296</ele>
        <time>2016-07-19T02:25:36Z</time>
      </trkpt>
      <trkpt lat="45.5116" lon="6.01811">
        <ele>297</ele>
        <time>2016-07-19T02:27:36Z</time>
      </trkpt>
      <trkpt lat="45.5116" lon="6.01811">
        <ele>297</ele>
        <time>2016-07-19T02:29:36Z</time>
      </trkpt>
      <trkpt lat="45.51152" lon="6.01817">
        <ele>297</ele>
        <time>2016-07-19T02:31:36Z</time>
      </trkpt>
      <trkpt lat="45.51141" lon="6.01827">
        <ele>296</ele>
        <time>2016-07-19T02:33:36Z</time>
      </trkpt>
      <trkpt lat="45.51126" lon="6.01844">
        <ele>295</ele>
        <time>2016-07-19T02:35:36Z</time>
      </trkpt>
      <trkpt lat="45.51097" lon="6.01882">
        <ele>293</ele>
        <time>2016-07-19T02:37:36Z</time>
      </trkpt>
      <trkpt lat="45.51084" lon="6.01896">
        <ele>293</ele>
        <time>2016-07-19T02:39:36Z</time>
      </trkpt>
      <trkpt lat="45.51066" lon="6.01914">
        <ele>293</ele>
        <time>2016-07-19T02:41:36Z</time>
      </trkpt>
      <trkpt lat="45.51051" lon="6.01933">
        <ele>294</ele>
        <time>2016-07-19T02:43:36Z</time>
      </trkpt>
      <trkpt lat="45.51008" lon="6.01996">
        <ele>296</ele>
        <time>2016-07-19T02:45:36Z</time>
      </trkpt>
      <trkpt lat="45.50994" lon="6.02014">
        <ele>295</ele>
        <time>2016-07-19T02:47:36Z</time>
      </trkpt>
      <trkpt lat="45.50986" lon="6.02021">
        <ele>295</ele>
        <time>2016-07-19T02:49:36Z</time>
      </trkpt>
      <trkpt lat="45.50986" lon="6.02021">
        <ele>295</ele>
        <time>2016-07-19T02:51:36Z</time>
      </trkpt>
      <trkpt lat="45.50985" lon="6.02034">
        <ele>294</ele>
        <time>2016-07-19T02:53:36Z</time>
      </trkpt>
      <trkpt lat="45.50978" lon="6.02077">
        <ele>293</ele>
        <time>2016-07-19T02:55:36Z</time>
      </trkpt>
      <trkpt lat="45.50975" lon="6.02101">
        <ele>292</ele>
        <time>2016-07-19T02:57:36Z</time>
      </trkpt>
      <trkpt lat="45.50974" lon="6.02131">
        <ele>291</ele>
        <time>2016-07-19T02:59:36Z</time>
      </trkpt>
      <trkpt lat="45.50976" lon="6.02158">
        <ele>289</ele>
        <time>2016-07-19T03:01:36Z</time>
      </trkpt>
      <trkpt lat="45.50981" lon="6.02216">
        <ele>287</ele>
        <time>2016-07-19T03:03:36Z</time>
      </trkpt>
      <trkpt lat="45.50984" lon="6.02244">
        <ele>285</ele>
        <time>2016-07-19T03:05:36Z</time>
      </trkpt>
      <trkpt lat="45.50985" lon="6.02268">
        <ele>285</ele>
        <time>2016-07-19T03:07:36Z</time>
      </trkpt>
      <trkpt lat="45.50983" lon="6.02323">
        <ele>285</ele>
        <time>2016-07-19T03:09:36Z</time>
      </trkpt>
      <trkpt lat="45.5098" lon="6.02351">
        <ele>287</ele>
        <time>2016-07-19T03:11:36Z</time>
      </trkpt>
      <trkpt lat="45.50976" lon="6.02369">
        <ele>288</ele>
        <time>2016-07-19T03:13:36Z</time>
      </trkpt>
      <trkpt lat="45.50971" lon="6.02385">
        <ele>289</ele>
        <time>2016-07-19T03:15:36Z</time>
      </trkpt>
      <trkpt lat="45.50964" lon="6.02408">
        <ele>290</ele>
        <time>2016-07-19T03:17:36Z</time>
      </trkpt>
      <trkpt lat="45.50954" lon="6.02432">
        <ele>291</ele>
        <time>2016-07-19T03:19:36Z</time>
      </trkpt>
      <trkpt lat="45.50941" lon="6.02459">
        <ele>292</ele>
        <time>2016-07-19T03:21:36Z</time>
      </trkpt>
      <trkpt lat="45.50926" lon="6.02489">
        <ele>292</ele>
        <time>2016-07-19T03:23:36Z</time>
      </trkpt>
      <trkpt lat="45.50917" lon="6.02513">
        <ele>292</ele>
        <time>2016-07-19T03:25:36Z</time>
      </trkpt>
      <trkpt lat="45.50903" lon="6.02548">
        <ele>293</ele>
        <time>2016-07-19T03:27:36Z</time>
      </trkpt>
      <trkpt lat="45.50894" lon="6.02571">
        <ele>293</ele>
        <time>2016-07-19T03:29:36Z</time>
      </trkpt>
      <trkpt lat="45.50886" lon="6.02591">
        <ele>292</ele>
        <time>2016-07-19T03:31:36Z</time>
      </trkpt>
      <trkpt lat="45.50876" lon="6.02608">
        <ele>291</ele>
        <time>2016-07-19T03:33:36Z</time>
      </trkpt>
      <trkpt lat="45.50865" lon="6.02628">
        <ele>290</ele>
        <time>2016-07-19T03:35:36Z</time>
      </trkpt>
      <trkpt lat="45.50854" lon="6.02654">
        <ele>288</ele>
        <time>2016-07-19T03:37:36Z</time>
      </trkpt>
      <trkpt lat="45.50845" lon="6.02679">
        <ele>288</ele>
        <time>2016-07-19T03:39:36Z</time>
      </trkpt>
      <trkpt lat="45.5084" lon="6.02702">
        <ele>290</ele>
        <time>2016-07-19T03:41:36Z</time>
      </trkpt>
      <trkpt lat="45.50831" lon="6.02726">
        <ele>291</ele>
        <time>2016-07-19T03:43:36Z</time>
      </trkpt>
      <trkpt lat="45.50822" lon="6.0275">
        <ele>294</ele>
        <time>2016-07-19T03:45:36Z</time>
      </trkpt>
      <trkpt lat="45.50813" lon="6.02775">
        <ele>295</ele>
        <time>2016-07-19T03:47:36Z</time>
      </trkpt>
      <trkpt lat="45.50803" lon="6.02803">
        <ele>296</ele>
        <time>2016-07-19T03:49:36Z</time>
      </trkpt>
      <trkpt lat="45.50794" lon="6.02826">
        <ele>296</ele>
        <time>2016-07-19T03:51:36Z</time>
      </trkpt>
      <trkpt lat="45.50787" lon="6.0284">
        <ele>296</ele>
        <time>2016-07-19T03:53:36Z</time>
      </trkpt>
      <trkpt lat="45.50778" lon="6.02855">
        <ele>295</ele>
        <time>2016-07-19T03:55:36Z</time>
      </trkpt>
      <trkpt lat="45.50729" lon="6.02928">
        <ele>292</ele>
        <time>2016-07-19T03:57:36Z</time>
      </trkpt>
      <trkpt lat="45.50719" lon="6.02949">
        <ele>293</ele>
        <time>2016-07-19T03:59:36Z</time>
      </trkpt>
      <trkpt lat="45.50711" lon="6.02962">
        <ele>293</ele>
        <time>2016-07-19T04:01:36Z</time>
      </trkpt>
      <trkpt lat="45.50702" lon="6.02976">
        <ele>293</ele>
        <time>2016-07-19T04:03:36Z</time>
      </trkpt>
      <trkpt lat="45.50658" lon="6.03051">
        <ele>290</ele>
        <time>2016-07-19T04:05:36Z</time>
      </trkpt>
      <trkpt lat="45.5065" lon="6.03065">
        <ele>290</ele>
        <time>2016-07-19T04:07:36Z</time>
      </trkpt>
      <trkpt lat="45.50643" lon="6.03078">
        <ele>290</ele>
        <time>2016-07-19T04:09:36Z</time>
      </trkpt>
      <trkpt lat="45.50636" lon="6.03094">
        <ele>290</ele>
        <time>2016-07-19T04:11:36Z</time>
      </trkpt>
      <trkpt lat="45.5063" lon="6.03117">
        <ele>290</ele>
        <time>2016-07-19T04:13:36Z</time>
      </trkpt>
      <trkpt lat="45.50627" lon="6.03133">
        <ele>291</ele>
        <time>2016-07-19T04:15:36Z</time>
      </trkpt>
      <trkpt lat="45.50624" lon="6.03174">
        <ele>292</ele>
        <time>2016-07-19T04:17:36Z</time>
      </trkpt>
      <trkpt lat="45.50621" lon="6.03225">
        <ele>291</ele>
        <time>2016-07-19T04:19:36Z</time>
      </trkpt>
      <trkpt lat="45.5062" lon="6.03253">
        <ele>291</ele>
        <time>2016-07-19T04:21:36Z</time>
      </trkpt>
      <trkpt lat="45.50617" lon="6.03304">
        <ele>291</ele>
        <time>2016-07-19T04:23:36Z</time>
      </trkpt>
      <trkpt lat="45.50617" lon="6.03337">
        <ele>292</ele>
        <time>2016-07-19T04:25:36Z</time>
      </trkpt>
      <trkpt lat="45.5062" lon="6.03381">
        <ele>291</ele>
        <time>2016-07-19T04:27:36Z</time>
      </trkpt>
      <trkpt lat="45.50621" lon="6.0339">
        <ele>291</ele>
        <time>2016-07-19T04:29:36Z</time>
      </trkpt>
      <trkpt lat="45.50621" lon="6.0342">
        <ele>290</ele>
        <time>2016-07-19T04:31:36Z</time>
      </trkpt>
      <trkpt lat="45.5062" lon="6.03443">
        <ele>292</ele>
        <time>2016-07-19T04:33:36Z</time>
      </trkpt>
      <trkpt lat="45.50619" lon="6.03448">
        <ele>292</ele>
        <time>2016-07-19T04:35:36Z</time>
      </trkpt>
      <trkpt lat="45.50615" lon="6.03471">
        <ele>293</ele>
        <time>2016-07-19T04:37:36Z</time>
      </trkpt>
      <trkpt lat="45.50607" lon="6.03493">
        <ele>292</ele>
        <time>2016-07-19T04:39:36Z</time>
      </trkpt>
      <trkpt lat="45.50596" lon="6.03514">
        <ele>292</ele>
        <time>2016-07-19T04:41:36Z</time>
      </trkpt>
      <trkpt lat="45.50587" lon="6.03537">
        <ele>294</ele>
        <time>2016-07-19T04:43:36Z</time>
      </trkpt>
      <trkpt lat="45.50578" lon="6.03563">
        <ele>297</ele>
        <time>2016-07-19T04:45:36Z</time>
      </trkpt>
      <trkpt lat="45.5057" lon="6.03587">
        <ele>299</ele>
        <time>2016-07-19T04:47:36Z</time>
      </trkpt>
      <trkpt lat="45.50561" lon="6.03618">
        <ele>298</ele>
        <time>2016-07-19T04:49:36Z</time>
      </trkpt>
      <trkpt lat="45.50545" lon="6.03688">
        <ele>298</ele>
        <time>2016-07-19T04:51:36Z</time>
      </trkpt>
      <trkpt lat="45.50541" lon="6.03704">
        <ele>298</ele>
        <time>2016-07-19T04:53:36Z</time>
      </trkpt>
      <trkpt lat="45.50539" lon="6.03719">
        <ele>298</ele>
        <time>2016-07-19T04:55:36Z</time>
      </trkpt>
      <trkpt lat="45.50537" lon="6.03731">
        <ele>298</ele>
        <time>2016-07-19T04:57:36Z</time>
      </trkpt>
      <trkpt lat="45.50527" lon="6.03775">
        <ele>297</ele>
        <time>2016-07-19T04:59:36Z</time>
      </trkpt>
      <trkpt lat="45.50517" lon="6.03825">
        <ele>296</ele>
        <time>2016-07-19T05:01:36Z</time>
      </trkpt>
      <trkpt lat="45.50508" lon="6.03861">
        <ele>294</ele>
        <time>2016-07-19T05:03:36Z</time>
      </trkpt>
      <trkpt lat="45.50506" lon="6.03868">
        <ele>294</ele>
        <time>2016-07-19T05:05:36Z</time>
      </trkpt>
      <trkpt lat="45.50497" lon="6.03903">
        <ele>292</ele>
        <time>2016-07-19T05:07:36Z</time>
      </trkpt>
      <trkpt lat="45.50491" lon="6.03921">
        <ele>292</ele>
        <time>2016-07-19T05:09:36Z</time>
      </trkpt>
      <trkpt lat="45.50482" lon="6.03938">
        <ele>289</ele>
        <time>2016-07-19T05:11:36Z</time>
      </trkpt>
      <trkpt lat="45.50474" lon="6.03949">
        <ele>288</ele>
        <time>2016-07-19T05:13:36Z</time>
      </trkpt>
      <trkpt lat="45.50466" lon="6.03962">
        <ele>287</ele>
        <time>2016-07-19T05:15:36Z</time>
      </trkpt>
      <trkpt lat="45.50458" lon="6.03977">
        <ele>285</ele>
        <time>2016-07-19T05:17:36Z</time>
      </trkpt>
      <trkpt lat="45.50455" lon="6.03985">
        <ele>285</ele>
        <time>2016-07-19T05:19:36Z</time>
      </trkpt>
      <trkpt lat="45.50453" lon="6.0399">
        <ele>285</ele>
        <time>2016-07-19T05:21:36Z</time>
      </trkpt>
      <trkpt lat="45.50453" lon="6.0399">
        <ele>285</ele>
        <time>2016-07-19T05:23:36Z</time>
      </trkpt>
      <trkpt lat="45.5045" lon="6.04">
        <ele>284</ele>
        <time>2016-07-19T05:25:36Z</time>
      </trkpt>
      <trkpt lat="45.50435" lon="6.04044">
        <ele>283</ele>
        <time>2016-07-19T05:27:36Z</time>
      </trkpt>
      <trkpt lat="45.50416" lon="6.04095">
        <ele>283</ele>
        <time>2016-07-19T05:29:36Z</time>
      </trkpt>
      <trkpt lat="45.50395" lon="6.0416">
        <ele>287</ele>
        <time>2016-07-19T05:31:36Z</time>
      </trkpt>
      <trkpt lat="45.50379" lon="6.04208">
        <ele>288</ele>
        <time>2016-07-19T05:33:36Z</time>
      </trkpt>
      <trkpt lat="45.50346" lon="6.04312">
        <ele>288</ele>
        <time>2016-07-19T05:35:36Z</time>
      </trkpt>
      <trkpt lat="45.50332" lon="6.04359">
        <ele>289</ele>
        <time>2016-07-19T05:37:36Z</time>
      </trkpt>
      <trkpt lat="45.50326" lon="6.04383">
        <ele>291</ele>
        <time>2016-07-19T05:39:36Z</time>
      </trkpt>
      <trkpt lat="45.50321" lon="6.04411">
        <ele>293</ele>
        <time>2016-07-19T05:41:36Z</time>
      </trkpt>
      <trkpt lat="45.50317" lon="6.04435">
        <ele>293</ele>
        <time>2016-07-19T05:43:36Z</time>
      </trkpt>
      <trkpt lat="45.50312" lon="6.04466">
        <ele>292</ele>
        <time>2016-07-19T05:45:36Z</time>
      </trkpt>
      <trkpt lat="45.50308" lon="6.04509">
        <ele>291</ele>
        <time>2016-07-19T05:47:36Z</time>
      </trkpt>
      <trkpt lat="45.50306" lon="6.04536">
        <ele>291</ele>
        <time>2016-07-19T05:49:36Z</time>
      </trkpt>
      <trkpt lat="45.50305" lon="6.04568">
        <ele>291</ele>
        <time>2016-07-19T05:51:36Z</time>
      </trkpt>
      <trkpt lat="45.50304" lon="6.04611">
        <ele>290</ele>
        <time>2016-07-19T05:53:36Z</time>
      </trkpt>
      <trkpt lat="45.50304" lon="6.04631">
        <ele>290</ele>
        <time>2016-07-19T05:55:36Z</time>
      </trkpt>
      <trkpt lat="45.50305" lon="6.04663">
        <ele>289</ele>
        <time>2016-07-19T05:57:36Z</time>
      </trkpt>
      <trkpt lat="45.50308" lon="6.04728">
        <ele>293</ele>
        <time>2016-07-19T05:59:36Z</time>
      </trkpt>
      <trkpt lat="45.50311" lon="6.04762">
        <ele>294</ele>
        <time>2016-07-19T06:01:36Z</time>
      </trkpt>
      <trkpt lat="45.50315" lon="6.04794">
        <ele>294</ele>
        <time>2016-07-19T06:03:36Z</time>
      </trkpt>
      <trkpt lat="45.50319" lon="6.04823">
        <ele>293</ele>
        <time>2016-07-19T06:05:36Z</time>
      </trkpt>
      <trkpt lat="45.50326" lon="6.04862">
        <ele>291</ele>
        <time>2016-07-19T06:07:36Z</time>
      </trkpt>
      <trkpt lat="45.50331" lon="6.04891">
        <ele>289</ele>
        <time>2016-07-19T06:09:36Z</time>
      </trkpt>
      <trkpt lat="45.50339" lon="6.04923">
        <ele>288</ele>
        <time>2016-07-19T06:11:36Z</time>
      </trkpt>
      <trkpt lat="45.50348" lon="6.04959">
        <ele>289</ele>
        <time>2016-07-19T06:13:36Z</time>
      </trkpt>
      <trkpt lat="45.50362" lon="6.05009">
        <ele>289</ele>
        <time>2016-07-19T06:15:36Z</time>
      </trkpt>
      <trkpt lat="45.50365" lon="6.05021">
        <ele>289</ele>
        <time>2016-07-19T06:17:36Z</time>
      </trkpt>
      <trkpt lat="45.5037" lon="6.05036">
        <ele>289</ele>
        <time>2016-07-19T06:19:36Z</time>
      </trkpt>
      <trkpt lat="45.5038" lon="6.05067">
        <ele>288</ele>
        <time>2016-07-19T06:21:36Z</time>
      </trkpt>
      <trkpt lat="45.50396" lon="6.05113">
        <ele>289</ele>
        <time>2016-07-19T06:23:36Z</time>
      </trkpt>
      <trkpt lat="45.50408" lon="6.05147">
        <ele>288</ele>
        <time>2016-07-19T06:25:36Z</time>
      </trkpt>
      <trkpt lat="45.50408" lon="6.05147">
        <ele>288</ele>
        <time>2016-07-19T06:27:36Z</time>
      </trkpt>
      <trkpt lat="45.50403" lon="6.0515">
        <ele>288</ele>
        <time>2016-07-19T06:29:36Z</time>
      </trkpt>
      <trkpt lat="45.50385" lon="6.05167">
        <ele>289</ele>
        <time>2016-07-19T06:31:36Z</time>
      </trkpt>
      <trkpt lat="45.5038" lon="6.05172">
        <ele>289</ele>
        <time>2016-07-19T06:33:36Z</time>
      </trkpt>
      <trkpt lat="45.50368" lon="6.05175">
        <ele>290</ele>
        <time>2016-07-19T06:35:36Z</time>
      </trkpt>
      <trkpt lat="45.50363" lon="6.05174">
        <ele>291</ele>
        <time>2016-07-19T06:37:36Z</time>
      </trkpt>
      <trkpt lat="45.50353" lon="6.05173">
        <ele>291</ele>
        <time>2016-07-19T06:39:36Z</time>
      </trkpt>
      <trkpt lat="45.50338" lon="6.05173">
        <ele>292</ele>
        <time>2016-07-19T06:41:36Z</time>
      </trkpt>
      <trkpt lat="45.50326" lon="6.05175">
        <ele>293</ele>
        <time>2016-07-19T06:43:36Z</time>
      </trkpt>
      <trkpt lat="45.50307" lon="6.05178">
        <ele>294</ele>
        <time>2016-07-19T06:45:36Z</time>
      </trkpt>
      <trkpt lat="45.50287" lon="6.05185">
        <ele>295</ele>
        <time>2016-07-19T06:47:36Z</time>
      </trkpt>
      <trkpt lat="45.50267" lon="6.05192">
        <ele>296</ele>
        <time>2016-07-19T06:49:36Z</time>
      </trkpt>
      <trkpt lat="45.50265" lon="6.05195">
        <ele>296</ele>
        <time>2016-07-19T06:51:36Z</time>
      </trkpt>
      <trkpt lat="45.50263" lon="6.05198">
        <ele>296</ele>
        <time>2016-07-19T06:53:36Z</time>
      </trkpt>
      <trkpt lat="45.50256" lon="6.05208">
        <ele>297</ele>
        <time>2016-07-19T06:55:36Z</time>
      </trkpt>
      <trkpt lat="45.50254" lon="6.0521">
        <ele>297</ele>
        <time>2016-07-19T06:57:36Z</time>
      </trkpt>
      <trkpt lat="45.50247" lon="6.05217">
        <ele>297</ele>
        <time>2016-07-19T06:59:36Z</time>
      </trkpt>
      <trkpt lat="45.50247" lon="6.05217">
        <ele>297</ele>
        <time>2016-07-19T07:01:36Z</time>
      </trkpt>
      <trkpt lat="45.50244" lon="6.05216">
        <ele>297</ele>
        <time>2016-07-19T07:03:36Z</time>
      </trkpt>
      <trkpt lat="45.50241" lon="6.05216">
        <ele>297</ele>
        <time>2016-07-19T07:05:36Z</time>
      </trkpt>
      <trkpt lat="45.5024" lon="6.05217">
        <ele>297</ele>
        <time>2016-07-19T07:07:36Z</time>
      </trkpt>
      <trkpt lat="45.50237" lon="6.05219">
        <ele>298</ele>
        <time>2016-07-19T07:09:36Z</time>
      </trkpt>
      <trkpt lat="45.50235" lon="6.0522">
        <ele>298</ele>
        <time>2016-07-19T07:11:36Z</time>
      </trkpt>
      <trkpt lat="45.50234" lon="6.05221">
        <ele>298</ele>
        <time>2016-07-19T07:13:36Z</time>
      </trkpt>
      <trkpt lat="45.50232" lon="6.05224">
        <ele>298</ele>
        <time>2016-07-19T07:15:36Z</time>
      </trkpt>
      <trkpt lat="45.50231" lon="6.05225">
        <ele>298</ele>
        <time>2016-07-19T07:17:36Z</time>
      </trkpt>
      <trkpt lat="45.50231" lon="6.05227">
        <ele>298</ele>
        <time>2016-07-19T07:19:36Z</time>
      </trkpt>
      <trkpt lat="45.5023" lon="6.05229">
        <ele>298</ele>
        <time>2016-07-19T07:21:36Z</time>
      </trkpt>
      <trkpt lat="45.50229" lon="6.05232">
        <ele>298</ele>
        <time>2016-07-19T07:23:36Z</time>
      </trkpt>
      <trkpt lat="45.50229" lon="6.05236">
        <ele>299</ele>
        <time>2016-07-19T07:25:36Z</time>
      </trkpt>
      <trkpt lat="45.50229" lon="6.05238">
        <ele>299</ele>
        <time>2016-07-19T07:27:36Z</time>
      </trkpt>
      <trkpt lat="45.50229" lon="6.05241">
        <ele>299</ele>
        <time>2016-07-19T07:29:36Z</time>
      </trkpt>
      <trkpt lat="45.50229" lon="6.05244">
        <ele>299</ele>
        <time>2016-07-19T07:31:36Z</time>
      </trkpt>
      <trkpt lat="45.5023" lon="6.05248">
        <ele>299</ele>
        <time>2016-07-19T07:33:36Z</time>
      </trkpt>
      <trkpt lat="45.50232" lon="6.0525">
        <ele>299</ele>
        <time>2016-07-19T07:35:36Z</time>
      </trkpt>
      <trkpt lat="45.50233" lon="6.05252">
        <ele>299</ele>
        <time>2016-07-19T07:37:36Z</time>
      </trkpt>
      <trkpt lat="45.50235" lon="6.05255">
        <ele>299</ele>
        <time>2016-07-19T07:39:36Z</time>
      </trkpt>
      <trkpt lat="45.50237" lon="6.05256">
        <ele>299</ele>
        <time>2016-07-19T07:41:36Z</time>
      </trkpt>
      <trkpt lat="45.50239" lon="6.05258">
        <ele>299</ele>
        <time>2016-07-19T07:43:36Z</time>
      </trkpt>
      <trkpt lat="45.50242" lon="6.05259">
        <ele>299</ele>
        <time>2016-07-19T07:45:36Z</time>
      </trkpt>
      <trkpt lat="45.50243" lon="6.05259">
        <ele>299</ele>
        <time>2016-07-19T07:47:36Z</time>
      </trkpt>
      <trkpt lat="45.50245" lon="6.05259">
        <ele>299</ele>
        <time>2016-07-19T07:49:36Z</time>
      </trkpt>
      <trkpt lat="45.50248" lon="6.05258">
        <ele>299</ele>
        <time>2016-07-19T07:51:36Z</time>
      </trkpt>
      <trkpt lat="45.50249" lon="6.05257">
        <ele>298</ele>
        <time>2016-07-19T07:53:36Z</time>
      </trkpt>
      <trkpt lat="45.50252" lon="6.05255">
        <ele>298</ele>
        <time>2016-07-19T07:55:36Z</time>
      </trkpt>
      <trkpt lat="45.50266" lon="6.0526">
        <ele>298</ele>
        <time>2016-07-19T07:57:36Z</time>
      </trkpt>
      <trkpt lat="45.5028" lon="6.05269">
        <ele>298</ele>
        <time>2016-07-19T07:59:36Z</time>
      </trkpt>
      <trkpt lat="45.5029" lon="6.05281">
        <ele>298</ele>
        <time>2016-07-19T08:01:36Z</time>
      </trkpt>
      <trkpt lat="45.5031" lon="6.05302">
        <ele>297</ele>
        <time>2016-07-19T08:03:36Z</time>
      </trkpt>
      <trkpt lat="45.50328" lon="6.05325">
        <ele>295</ele>
        <time>2016-07-19T08:05:36Z</time>
      </trkpt>
      <trkpt lat="45.50339" lon="6.05347">
        <ele>293</ele>
        <time>2016-07-19T08:07:36Z</time>
      </trkpt>
      <trkpt lat="45.50346" lon="6.05366">
        <ele>291</ele>
        <time>2016-07-19T08:09:36Z</time>
      </trkpt>
      <trkpt lat="45.50348" lon="6.05376">
        <ele>290</ele>
        <time>2016-07-19T08:11:36Z</time>
      </trkpt>
      <trkpt lat="45.50346" lon="6.0538">
        <ele>290</ele>
        <time>2016-07-19T08:13:36Z</time>
      </trkpt>
      <trkpt lat="45.50344" lon="6.05385">
        <ele>290</ele>
        <time>2016-07-19T08:15:36Z</time>
      </trkpt>
      <trkpt lat="45.50344" lon="6.05391">
        <ele>290</ele>
        <time>2016-07-19T08:17:36Z</time>
      </trkpt>
      <trkpt lat="45.50344" lon="6.05396">
        <ele>290</ele>
        <time>2016-07-19T08:19:36Z</time>
      </trkpt>
      <trkpt lat="45.50347" lon="6.05401">
        <ele>290</ele>
        <time>2016-07-19T08:21:36Z</time>
      </trkpt>
      <trkpt lat="45.50351" lon="6.05405">
        <ele>289</ele>
        <time>2016-07-19T08:23:36Z</time>
      </trkpt>
      <trkpt lat="45.50354" lon="6.05418">
        <ele>288</ele>
        <time>2016-07-19T08:25:36Z</time>
      </trkpt>
      <trkpt lat="45.50354" lon="6.05418">
        <ele>288</ele>
        <time>2016-07-19T08:27:36Z</time>
      </trkpt>
      <trkpt lat="45.50384" lon="6.05934">
        <ele>276</ele>
        <time>2016-07-19T08:29:36Z</time>
      </trkpt>
      <trkpt lat="45.50388" lon="6.05982">
        <ele>276</ele>
        <time>2016-07-19T08:31:36Z</time>
      </trkpt>
      <trkpt lat="45.50393" lon="6.06037">
        <ele>276</ele>
        <time>2016-07-19T08:33:36Z</time>
      </trkpt>
      <trkpt lat="45.50399" lon="6.06089">
        <ele>276</ele>
        <time>2016-07-19T08:35:36Z</time>
      </trkpt>
      <trkpt lat="45.50406" lon="6.06145">
        <ele>275</ele>
        <time>2016-07-19T08:37:36Z</time>
      </trkpt>
      <trkpt lat="45.50412" lon="6.06198">
        <ele>275</ele>
        <time>2016-07-19T08:39:36Z</time>
      </trkpt>
      <trkpt lat="45.50417" lon="6.0624">
        <ele>275</ele>
        <time>2016-07-19T08:41:36Z</time>
      </trkpt>
      <trkpt lat="45.50417" lon="6.0624">
        <ele>275</ele>
        <time>2016-07-19T08:43:36Z</time>
      </trkpt>
      <trkpt lat="45.50415" lon="6.06244">
        <ele>275</ele>
        <time>2016-07-19T08:45:36Z</time>
      </trkpt>
      <trkpt lat="45.50414" lon="6.06247">
        <ele>275</ele>
        <time>2016-07-19T08:47:36Z</time>
      </trkpt>
      <trkpt lat="45.50414" lon="6.06252">
        <ele>275</ele>
        <time>2016-07-19T08:49:36Z</time>
      </trkpt>
      <trkpt lat="45.50414" lon="6.06256">
        <ele>275</ele>
        <time>2016-07-19T08:51:36Z</time>
      </trkpt>
      <trkpt lat="45.50415" lon="6.0626">
        <ele>275</ele>
        <time>2016-07-19T08:53:36Z</time>
      </trkpt>
      <trkpt lat="45.50416" lon="6.06264">
        <ele>275</ele>
        <time>2016-07-19T08:55:36Z</time>
      </trkpt>
      <trkpt lat="45.50419" lon="6.06268">
        <ele>275</ele>
        <time>2016-07-19T08:57:36Z</time>
      </trkpt>
      <trkpt lat="45.50422" lon="6.06271">
        <ele>275</ele>
        <time>2016-07-19T08:59:36Z</time>
      </trkpt>
      <trkpt lat="45.50425" lon="6.06272">
        <ele>275</ele>
        <time>2016-07-19T09:01:36Z</time>
      </trkpt>
      <trkpt lat="45.5043" lon="6.06272">
        <ele>274</ele>
        <time>2016-07-19T09:03:36Z</time>
      </trkpt>
      <trkpt lat="45.50432" lon="6.06283">
        <ele>274</ele>
        <time>2016-07-19T09:05:36Z</time>
      </trkpt>
      <trkpt lat="45.50444" lon="6.06346">
        <ele>275</ele>
        <time>2016-07-19T09:07:36Z</time>
      </trkpt>
      <trkpt lat="45.5046" lon="6.06426">
        <ele>274</ele>
        <time>2016-07-19T09:09:36Z</time>
      </trkpt>
      <trkpt lat="45.50472" lon="6.06483">
        <ele>272</ele>
        <time>2016-07-19T09:11:36Z</time>
      </trkpt>
      <trkpt lat="45.50472" lon="6.06483">
        <ele>272</ele>
        <time>2016-07-19T09:13:36Z</time>
      </trkpt>
      <trkpt lat="45.50469" lon="6.06484">
        <ele>272</ele>
        <time>2016-07-19T09:15:36Z</time>
      </trkpt>
      <trkpt lat="45.50466" lon="6.06488">
        <ele>272</ele>
        <time>2016-07-19T09:17:36Z</time>
      </trkpt>
      <trkpt lat="45.50463" lon="6.06495">
        <ele>272</ele>
        <time>2016-07-19T09:19:36Z</time>
      </trkpt>
      <trkpt lat="45.50461" lon="6.06501">
        <ele>272</ele>
        <time>2016-07-19T09:21:36Z</time>
      </trkpt>
      <trkpt lat="45.50461" lon="6.06507">
        <ele>272</ele>
        <time>2016-07-19T09:23:36Z</time>
      </trkpt>
      <trkpt lat="45.50461" lon="6.06513">
        <ele>271</ele>
        <time>2016-07-19T09:25:36Z</time>
      </trkpt>
      <trkpt lat="45.50462" lon="6.06517">
        <ele>271</ele>
        <time>2016-07-19T09:27:36Z</time>
      </trkpt>
      <trkpt lat="45.50464" lon="6.06523">
        <ele>271</ele>
        <time>2016-07-19T09:29:36Z</time>
      </trkpt>
      <trkpt lat="45.50466" lon="6.06526">
        <ele>271</ele>
        <time>2016-07-19T09:31:36Z</time>
      </trkpt>
      <trkpt lat="45.50469" lon="6.06528">
        <ele>271</ele>
        <time>2016-07-19T09:33:36Z</time>
      </trkpt>
      <trkpt lat="45.50473" lon="6.06531">
        <ele>271</ele>
        <time>2016-07-19T09:35:36Z</time>
      </trkpt>
      <trkpt lat="45.50476" lon="6.06532">
        <ele>270</ele>
        <time>2016-07-19T09:37:36Z</time>
      </trkpt>
      <trkpt lat="45.5048" lon="6.06532">
        <ele>270</ele>
        <time>2016-07-19T09:39:36Z</time>
      </trkpt>
      <trkpt lat="45.50483" lon="6.06532">
        <ele>270</ele>
        <time>2016-07-19T09:41:36Z</time>
      </trkpt>
      <trkpt lat="45.50497" lon="6.06581">
        <ele>270</ele>
        <time>2016-07-19T09:43:36Z</time>
      </trkpt>
      <trkpt lat="45.505" lon="6.06592">
        <ele>270</ele>
        <time>2016-07-19T09:45:36Z</time>
      </trkpt>
      <trkpt lat="45.50524" lon="6.06671">
        <ele>269</ele>
        <time>2016-07-19T09:47:36Z</time>
      </trkpt>
      <trkpt lat="45.50574" lon="6.06845">
        <ele>268</ele>
        <time>2016-07-19T09:49:36Z</time>
      </trkpt>
      <trkpt lat="45.50602" lon="6.06952">
        <ele>270</ele>
        <time>2016-07-19T09:51:36Z</time>
      </trkpt>
      <trkpt lat="45.50613" lon="6.06996">
        <ele>270</ele>
        <time>2016-07-19T09:53:36Z</time>
      </trkpt>
      <trkpt lat="45.50617" lon="6.07011">
        <ele>270</ele>
        <time>2016-07-19T09:55:36Z</time>
      </trkpt>
      <trkpt lat="45.5064" lon="6.07094">
        <ele>267</ele>
        <time>2016-07-19T09:57:36Z</time>
      </trkpt>
      <trkpt lat="45.50653" lon="6.07144">
        <ele>267</ele>
        <time>2016-07-19T09:59:36Z</time>
      </trkpt>
      <trkpt lat="45.5068" lon="6.07243">
        <ele>270</ele>
        <time>2016-07-19T10:01:36Z</time>
      </trkpt>
      <trkpt lat="45.50705" lon="6.07335">
        <ele>268</ele>
        <time>2016-07-19T10:03:36Z</time>
      </trkpt>
      <trkpt lat="45.50705" lon="6.07335">
        <ele>268</ele>
        <time>2016-07-19T10:05:36Z</time>
      </trkpt>
      <trkpt lat="45.50704" lon="6.0734">
        <ele>268</ele>
        <time>2016-07-19T10:07:36Z</time>
      </trkpt>
      <trkpt lat="45.50704" lon="6.07346">
        <ele>268</ele>
        <time>2016-07-19T10:09:36Z</time>
      </trkpt>
      <trkpt lat="45.50705" lon="6.07353">
        <ele>268</ele>
        <time>2016-07-19T10:11:36Z</time>
      </trkpt>
      <trkpt lat="45.5071" lon="6.07363">
        <ele>268</ele>
        <time>2016-07-19T10:13:36Z</time>
      </trkpt>
      <trkpt lat="45.50717" lon="6.07379">
        <ele>268</ele>
        <time>2016-07-19T10:15:36Z</time>
      </trkpt>
      <trkpt lat="45.50725" lon="6.07397">
        <ele>267</ele>
        <time>2016-07-19T10:17:36Z</time>
      </trkpt>
      <trkpt lat="45.50735" lon="6.07417">
        <ele>267</ele>
        <time>2016-07-19T10:19:36Z</time>
      </trkpt>
      <trkpt lat="45.50743" lon="6.07435">
        <ele>267</ele>
        <time>2016-07-19T10:21:36Z</time>
      </trkpt>
      <trkpt lat="45.50753" lon="6.07456">
        <ele>267</ele>
        <time>2016-07-19T10:23:36Z</time>
      </trkpt>
      <trkpt lat="45.50762" lon="6.07476">
        <ele>267</ele>
        <time>2016-07-19T10:25:36Z</time>
      </trkpt>
      <trkpt lat="45.50776" lon="6.07507">
        <ele>267</ele>
        <time>2016-07-19T10:27:36Z</time>
      </trkpt>
      <trkpt lat="45.50787" lon="6.07529">
        <ele>268</ele>
        <time>2016-07-19T10:29:36Z</time>
      </trkpt>
      <trkpt lat="45.50797" lon="6.0755">
        <ele>268</ele>
        <time>2016-07-19T10:31:36Z</time>
      </trkpt>
      <trkpt lat="45.50806" lon="6.07571">
        <ele>269</ele>
        <time>2016-07-19T10:33:36Z</time>
      </trkpt>
      <trkpt lat="45.50815" lon="6.07589">
        <ele>269</ele>
        <time>2016-07-19T10:35:36Z</time>
      </trkpt>
      <trkpt lat="45.50822" lon="6.07604">
        <ele>269</ele>
        <time>2016-07-19T10:37:36Z</time>
      </trkpt>
      <trkpt lat="45.50827" lon="6.07615">
        <ele>269</ele>
        <time>2016-07-19T10:39:36Z</time>
      </trkpt>
      <trkpt lat="45.50831" lon="6.07623">
        <ele>268</ele>
        <time>2016-07-19T10:41:36Z</time>
      </trkpt>
      <trkpt lat="45.50831" lon="6.07623">
        <ele>268</ele>
        <time>2016-07-19T10:43:36Z</time>
      </trkpt>
      <trkpt lat="45.50829" lon="6.07625">
        <ele>268</ele>
        <time>2016-07-19T10:45:36Z</time>
      </trkpt>
      <trkpt lat="45.50828" lon="6.07629">
        <ele>268</ele>
        <time>2016-07-19T10:47:36Z</time>
      </trkpt>
      <trkpt lat="45.50828" lon="6.07633">
        <ele>268</ele>
        <time>2016-07-19T10:49:36Z</time>
      </trkpt>
      <trkpt lat="45.50828" lon="6.07638">
        <ele>268</ele>
        <time>2016-07-19T10:51:36Z</time>
      </trkpt>
      <trkpt lat="45.50829" lon="6.07641">
        <ele>268</ele>
        <time>2016-07-19T10:53:36Z</time>
      </trkpt>
      <trkpt lat="45.5083" lon="6.07643">
        <ele>268</ele>
        <time>2016-07-19T10:55:36Z</time>
      </trkpt>
      <trkpt lat="45.50832" lon="6.07645">
        <ele>268</ele>
        <time>2016-07-19T10:57:36Z</time>
      </trkpt>
      <trkpt lat="45.50834" lon="6.07646">
        <ele>268</ele>
        <time>2016-07-19T10:59:36Z</time>
      </trkpt>
      <trkpt lat="45.50837" lon="6.07646">
        <ele>268</ele>
        <time>2016-07-19T11:01:36Z</time>
      </trkpt>
      <trkpt lat="45.50839" lon="6.07646">
        <ele>268</ele>
        <time>2016-07-19T11:03:36Z</time>
      </trkpt>
      <trkpt lat="45.50846" lon="6.0766">
        <ele>268</ele>
        <time>2016-07-19T11:05:36Z</time>
      </trkpt>
      <trkpt lat="45.50861" lon="6.07689">
        <ele>268</ele>
        <time>2016-07-19T11:07:36Z</time>
      </trkpt>
      <trkpt lat="45.50881" lon="6.0773">
        <ele>268</ele>
        <time>2016-07-19T11:09:36Z</time>
      </trkpt>
      <trkpt lat="45.50902" lon="6.07764">
        <ele>267</ele>
        <time>2016-07-19T11:11:36Z</time>
      </trkpt>
      <trkpt lat="45.5091" lon="6.07774">
        <ele>267</ele>
        <time>2016-07-19T11:13:36Z</time>
      </trkpt>
      <trkpt lat="45.50926" lon="6.07792">
        <ele>267</ele>
        <time>2016-07-19T11:15:36Z</time>
      </trkpt>
      <trkpt lat="45.50956" lon="6.07829">
        <ele>268</ele>
        <time>2016-07-19T11:17:36Z</time>
      </trkpt>
      <trkpt lat="45.50974" lon="6.07852">
        <ele>269</ele>
        <time>2016-07-19T11:19:36Z</time>
      </trkpt>
      <trkpt lat="45.50989" lon="6.07872">
        <ele>270</ele>
        <time>2016-07-19T11:21:36Z</time>
      </trkpt>
      <trkpt lat="45.51016" lon="6.07906">
        <ele>270</ele>
        <time>2016-07-19T11:23:36Z</time>
      </trkpt>
      <trkpt lat="45.51068" lon="6.07969">
        <ele>272</ele>
        <time>2016-07-19T11:25:36Z</time>
      </trkpt>
      <trkpt lat="45.51074" lon="6.07977">
        <ele>272</ele>
        <time>2016-07-19T11:27:36Z</time>
      </trkpt>
      <trkpt lat="45.51082" lon="6.07987">
        <ele>272</ele>
        <time>2016-07-19T11:29:36Z</time>
      </trkpt>
      <trkpt lat="45.51084" lon="6.07989">
        <ele>272</ele>
        <time>2016-07-19T11:31:36Z</time>
      </trkpt>
      <trkpt lat="45.51122" lon="6.08038">
        <ele>270</ele>
        <time>2016-07-19T11:33:36Z</time>
      </trkpt>
      <trkpt lat="45.51158" lon="6.08082">
        <ele>268</ele>
        <time>2016-07-19T11:35:36Z</time>
      </trkpt>
      <trkpt lat="45.51167" lon="6.08092">
        <ele>268</ele>
        <time>2016-07-19T11:37:36Z</time>
      </trkpt>
      <trkpt lat="45.51213" lon="6.08147">
        <ele>269</ele>
        <time>2016-07-19T11:39:36Z</time>
      </trkpt>
      <trkpt lat="45.51226" lon="6.08164">
        <ele>270</ele>
        <time>2016-07-19T11:41:36Z</time>
      </trkpt>
      <trkpt lat="45.5124" lon="6.08179">
        <ele>270</ele>
        <time>2016-07-19T11:43:36Z</time>
      </trkpt>
      <trkpt lat="45.51255" lon="6.08196">
        <ele>270</ele>
        <time>2016-07-19T11:45:36Z</time>
      </trkpt>
      <trkpt lat="45.51269" lon="6.08216">
        <ele>269</ele>
        <time>2016-07-19T11:47:36Z</time>
      </trkpt>
      <trkpt lat="45.51281" lon="6.08231">
        <ele>268</ele>
        <time>2016-07-19T11:49:36Z</time>
      </trkpt>
      <trkpt lat="45.51281" lon="6.08231">
        <ele>268</ele>
        <time>2016-07-19T11:51:36Z</time>
      </trkpt>
      <trkpt lat="45.51208" lon="6.08316">
        <ele>267</ele>
        <time>2016-07-19T11:53:36Z</time>
      </trkpt>
      <trkpt lat="45.51205" lon="6.08318">
        <ele>267</ele>
        <time>2016-07-19T11:55:36Z</time>
      </trkpt>
      <trkpt lat="45.51205" lon="6.08318">
        <ele>267</ele>
        <time>2016-07-19T11:57:36Z</time>
      </trkpt>
      <trkpt lat="45.51212" lon="6.08337">
        <ele>267</ele>
        <time>2016-07-19T11:59:36Z</time>
      </trkpt>
      <trkpt lat="45.51221" lon="6.08356">
        <ele>267</ele>
        <time>2016-07-19T12:01:36Z</time>
      </trkpt>
      <trkpt lat="45.51234" lon="6.08387">
        <ele>268</ele>
        <time>2016-07-19T12:03:36Z</time>
      </trkpt>
      <trkpt lat="45.51245" lon="6.08416">
        <ele>269</ele>
        <time>2016-07-19T12:05:36Z</time>
      </trkpt>
      <trkpt lat="45.51279" lon="6.08497">
        <ele>269</ele>
        <time>2016-07-19T12:07:36Z</time>
      </trkpt>
      <trkpt lat="45.51296" lon="6.08538">
        <ele>270</ele>
        <time>2016-07-19T12:09:36Z</time>
      </trkpt>
      <trkpt lat="45.51304" lon="6.08558">
        <ele>270</ele>
        <time>2016-07-19T12:11:36Z</time>
      </trkpt>
      <trkpt lat="45.51314" lon="6.08583">
        <ele>270</ele>
        <time>2016-07-19T12:13:36Z</time>
      </trkpt>
      <trkpt lat="45.51318" lon="6.08593">
        <ele>270</ele>
        <time>2016-07-19T12:15:36Z</time>
      </trkpt>
      <trkpt lat="45.51322" lon="6.08602">
        <ele>270</ele>
        <time>2016-07-19T12:17:36Z</time>
      </trkpt>
      <trkpt lat="45.5133" lon="6.08623">
        <ele>269</ele>
        <time>2016-07-19T12:19:36Z</time>
      </trkpt>
      <trkpt lat="45.51349" lon="6.08668">
        <ele>267</ele>
        <time>2016-07-19T12:21:36Z</time>
      </trkpt>
      <trkpt lat="45.51363" lon="6.08702">
        <ele>267</ele>
        <time>2016-07-19T12:23:36Z</time>
      </trkpt>
      <trkpt lat="45.51369" lon="6.08715">
        <ele>267</ele>
        <time>2016-07-19T12:25:36Z</time>
      </trkpt>
      <trkpt lat="45.51401" lon="6.08796">
        <ele>267</ele>
        <time>2016-07-19T12:27:36Z</time>
      </trkpt>
      <trkpt lat="45.51409" lon="6.08814">
        <ele>268</ele>
        <time>2016-07-19T12:29:36Z</time>
      </trkpt>
      <trkpt lat="45.51409" lon="6.08814">
        <ele>268</ele>
        <time>2016-07-19T12:31:36Z</time>
      </trkpt>
      <trkpt lat="45.51288" lon="6.08954">
        <ele>269</ele>
        <time>2016-07-19T12:33:36Z</time>
      </trkpt>
      <trkpt lat="45.51277" lon="6.08966">
        <ele>269</ele>
        <time>2016-07-19T12:35:36Z</time>
      </trkpt>
      <trkpt lat="45.51274" lon="6.0897">
        <ele>269</ele>
        <time>2016-07-19T12:37:36Z</time>
      </trkpt>
      <trkpt lat="45.51267" lon="6.08978">
        <ele>270</ele>
        <time>2016-07-19T12:39:36Z</time>
      </trkpt>
      <trkpt lat="45.51267" lon="6.08978">
        <ele>270</ele>
        <time>2016-07-19T12:41:36Z</time>
      </trkpt>
      <trkpt lat="45.51291" lon="6.09015">
        <ele>269</ele>
        <time>2016-07-19T12:43:36Z</time>
      </trkpt>
      <trkpt lat="45.51295" lon="6.09027">
        <ele>268</ele>
        <time>2016-07-19T12:45:36Z</time>
      </trkpt>
      <trkpt lat="45.51304" lon="6.0904">
        <ele>268</ele>
        <time>2016-07-19T12:47:36Z</time>
      </trkpt>
      <trkpt lat="45.51314" lon="6.09056">
        <ele>269</ele>
        <time>2016-07-19T12:49:36Z</time>
      </trkpt>
      <trkpt lat="45.51328" lon="6.09078">
        <ele>270</ele>
        <time>2016-07-19T12:51:36Z</time>
      </trkpt>
      <trkpt lat="45.51342" lon="6.09101">
        <ele>270</ele>
        <time>2016-07-19T12:53:36Z</time>
      </trkpt>
      <trkpt lat="45.51356" lon="6.09123">
        <ele>271</ele>
        <time>2016-07-19T12:55:36Z</time>
      </trkpt>
      <trkpt lat="45.51357" lon="6.09126">
        <ele>271</ele>
        <time>2016-07-19T12:57:36Z</time>
      </trkpt>
      <trkpt lat="45.51383" lon="6.09167">
        <ele>271</ele>
        <time>2016-07-19T12:59:36Z</time>
      </trkpt>
      <trkpt lat="45.51386" lon="6.09173">
        <ele>270</ele>
        <time>2016-07-19T13:01:36Z</time>
      </trkpt>
      <trkpt lat="45.51391" lon="6.09181">
        <ele>270</ele>
        <time>2016-07-19T13:03:36Z</time>
      </trkpt>
      <trkpt lat="45.51474" lon="6.09316">
        <ele>270</ele>
        <time>2016-07-19T13:05:36Z</time>
      </trkpt>
      <trkpt lat="45.5148" lon="6.09322">
        <ele>270</ele>
        <time>2016-07-19T13:07:36Z</time>
      </trkpt>
      <trkpt lat="45.5168" lon="6.09652">
        <ele>273</ele>
        <time>2016-07-19T13:09:36Z</time>
      </trkpt>
      <trkpt lat="45.51758" lon="6.09774">
        <ele>273</ele>
        <time>2016-07-19T13:11:36Z</time>
      </trkpt>
      <trkpt lat="45.52144" lon="6.10405">
        <ele>272</ele>
        <time>2016-07-19T13:13:36Z</time>
      </trkpt>
      <trkpt lat="45.52223" lon="6.10528">
        <ele>273</ele>
        <time>2016-07-19T13:15:36Z</time>
      </trkpt>
      <trkpt lat="45.52262" lon="6.10594">
        <ele>276</ele>
        <time>2016-07-19T13:17:36Z</time>
      </trkpt>
      <trkpt lat="45.52343" lon="6.10728">
        <ele>279</ele>
        <time>2016-07-19T13:19:36Z</time>
      </trkpt>
      <trkpt lat="45.52345" lon="6.10733">
        <ele>279</ele>
        <time>2016-07-19T13:21:36Z</time>
      </trkpt>
      <trkpt lat="45.52545" lon="6.1106">
        <ele>272</ele>
        <time>2016-07-19T13:23:36Z</time>
      </trkpt>
      <trkpt lat="45.52576" lon="6.1111">
        <ele>272</ele>
        <time>2016-07-19T13:25:36Z</time>
      </trkpt>
      <trkpt lat="45.52615" lon="6.11173">
        <ele>272</ele>
        <time>2016-07-19T13:27:36Z</time>
      </trkpt>
      <trkpt lat="45.52632" lon="6.11201">
        <ele>273</ele>
        <time>2016-07-19T13:29:36Z</time>
      </trkpt>
      <trkpt lat="45.52691" lon="6.11299">
        <ele>274</ele>
        <time>2016-07-19T13:31:36Z</time>
      </trkpt>
      <trkpt lat="45.52767" lon="6.11423">
        <ele>277</ele>
        <time>2016-07-19T13:33:36Z</time>
      </trkpt>
      <trkpt lat="45.52838" lon="6.11536">
        <ele>274</ele>
        <time>2016-07-19T13:35:36Z</time>
      </trkpt>
      <trkpt lat="45.52844" lon="6.1155">
        <ele>275</ele>
        <time>2016-07-19T13:37:36Z</time>
      </trkpt>
      <trkpt lat="45.52864" lon="6.11581">
        <ele>275</ele>
        <time>2016-07-19T13:39:36Z</time>
      </trkpt>
      <trkpt lat="45.52888" lon="6.11619">
        <ele>274</ele>
        <time>2016-07-19T13:41:36Z</time>
      </trkpt>
      <trkpt lat="45.52896" lon="6.11632">
        <ele>274</ele>
        <time>2016-07-19T13:43:36Z</time>
      </trkpt>
      <trkpt lat="45.52901" lon="6.11639">
        <ele>274</ele>
        <time>2016-07-19T13:45:36Z</time>
      </trkpt>
      <trkpt lat="45.52912" lon="6.11657">
        <ele>274</ele>
        <time>2016-07-19T13:47:36Z</time>
      </trkpt>
      <trkpt lat="45.52924" lon="6.11676">
        <ele>274</ele>
        <time>2016-07-19T13:49:36Z</time>
      </trkpt>
      <trkpt lat="45.52937" lon="6.11698">
        <ele>275</ele>
        <time>2016-07-19T13:51:36Z</time>
      </trkpt>
      <trkpt lat="45.52951" lon="6.11721">
        <ele>275</ele>
        <time>2016-07-19T13:53:36Z</time>
      </trkpt>
      <trkpt lat="45.52962" lon="6.11738">
        <ele>276</ele>
        <time>2016-07-19T13:55:36Z</time>
      </trkpt>
      <trkpt lat="45.5298" lon="6.1177">
        <ele>276</ele>
        <time>2016-07-19T13:57:36Z</time>
      </trkpt>
      <trkpt lat="45.52982" lon="6.11772">
        <ele>276</ele>
        <time>2016-07-19T13:59:36Z</time>
      </trkpt>
      <trkpt lat="45.53007" lon="6.11813">
        <ele>277</ele>
        <time>2016-07-19T14:01:36Z</time>
      </trkpt>
      <trkpt lat="45.5303" lon="6.1185">
        <ele>277</ele>
        <time>2016-07-19T14:03:36Z</time>
      </trkpt>
      <trkpt lat="45.53052" lon="6.11886">
        <ele>276</ele>
        <time>2016-07-19T14:05:36Z</time>
      </trkpt>
      <trkpt lat="45.53076" lon="6.11927">
        <ele>276</ele>
        <time>2016-07-19T14:07:36Z</time>
      </trkpt>
      <trkpt lat="45.53113" lon="6.11986">
        <ele>276</ele>
        <time>2016-07-19T14:09:36Z</time>
      </trkpt>
      <trkpt lat="45.53136" lon="6.12024">
        <ele>275</ele>
        <time>2016-07-19T14:11:36Z</time>
      </trkpt>
      <trkpt lat="45.53161" lon="6.12065">
        <ele>274</ele>
        <time>2016-07-19T14:13:36Z</time>
      </trkpt>
      <trkpt lat="45.53178" lon="6.12093">
        <ele>274</ele>
        <time>2016-07-19T14:15:36Z</time>
      </trkpt>
      <trkpt lat="45.53187" lon="6.12103">
        <ele>274</ele>
        <time>2016-07-19T14:17:36Z</time>
      </trkpt>
      <trkpt lat="45.532" lon="6.12127">
        <ele>275</ele>
        <time>2016-07-19T14:19:36Z</time>
      </trkpt>
      <trkpt lat="45.5323" lon="6.12177">
        <ele>276</ele>
        <time>2016-07-19T14:21:36Z</time>
      </trkpt>
      <trkpt lat="45.53275" lon="6.12249">
        <ele>277</ele>
        <time>2016-07-19T14:23:36Z</time>
      </trkpt>
      <trkpt lat="45.5331" lon="6.12305">
        <ele>274</ele>
        <time>2016-07-19T14:25:36Z</time>
      </trkpt>
      <trkpt lat="45.53714" lon="6.12966">
        <ele>278</ele>
        <time>2016-07-19T14:27:36Z</time>
      </trkpt>
      <trkpt lat="45.53827" lon="6.13151">
        <ele>277</ele>
        <time>2016-07-19T14:29:36Z</time>
      </trkpt>
      <trkpt lat="45.53858" lon="6.132">
        <ele>277</ele>
        <time>2016-07-19T14:31:36Z</time>
      </trkpt>
      <trkpt lat="45.53914" lon="6.13291">
        <ele>278</ele>
        <time>2016-07-19T14:33:36Z</time>
      </trkpt>
      <trkpt lat="45.53996" lon="6.13425">
        <ele>280</ele>
        <time>2016-07-19T14:35:36Z</time>
      </trkpt>
      <trkpt lat="45.54019" lon="6.13461">
        <ele>278</ele>
        <time>2016-07-19T14:37:36Z</time>
      </trkpt>
      <trkpt lat="45.54022" lon="6.13471">
        <ele>278</ele>
        <time>2016-07-19T14:39:36Z</time>
      </trkpt>
      <trkpt lat="45.54054" lon="6.13524">
        <ele>276</ele>
        <time>2016-07-19T14:41:36Z</time>
      </trkpt>
      <trkpt lat="45.54097" lon="6.13592">
        <ele>278</ele>
        <time>2016-07-19T14:43:36Z</time>
      </trkpt>
      <trkpt lat="45.54126" lon="6.13639">
        <ele>278</ele>
        <time>2016-07-19T14:45:36Z</time>
      </trkpt>
      <trkpt lat="45.54133" lon="6.1365">
        <ele>279</ele>
        <time>2016-07-19T14:47:36Z</time>
      </trkpt>
      <trkpt lat="45.54209" lon="6.13777">
        <ele>278</ele>
        <time>2016-07-19T14:49:36Z</time>
      </trkpt>
      <trkpt lat="45.54215" lon="6.13783">
        <ele>278</ele>
        <time>2016-07-19T14:51:36Z</time>
      </trkpt>
      <trkpt lat="45.54473" lon="6.14205">
        <ele>279</ele>
        <time>2016-07-19T14:53:36Z</time>
      </trkpt>
      <trkpt lat="45.54521" lon="6.14284">
        <ele>279</ele>
        <time>2016-07-19T14:55:36Z</time>
      </trkpt>
      <trkpt lat="45.5459" lon="6.14401">
        <ele>278</ele>
        <time>2016-07-19T14:57:36Z</time>
      </trkpt>
      <trkpt lat="45.54606" lon="6.14433">
        <ele>279</ele>
        <time>2016-07-19T14:59:36Z</time>
      </trkpt>
      <trkpt lat="45.54622" lon="6.14464">
        <ele>279</ele>
        <time>2016-07-19T15:01:36Z</time>
      </trkpt>
      <trkpt lat="45.54647" lon="6.14515">
        <ele>280</ele>
        <time>2016-07-19T15:03:36Z</time>
      </trkpt>
      <trkpt lat="45.54675" lon="6.14569">
        <ele>282</ele>
        <time>2016-07-19T15:05:36Z</time>
      </trkpt>
      <trkpt lat="45.54728" lon="6.14677">
        <ele>279</ele>
        <time>2016-07-19T15:07:36Z</time>
      </trkpt>
      <trkpt lat="45.54734" lon="6.1469">
        <ele>279</ele>
        <time>2016-07-19T15:09:36Z</time>
      </trkpt>
      <trkpt lat="45.54792" lon="6.14816">
        <ele>280</ele>
        <time>2016-07-19T15:11:36Z</time>
      </trkpt>
      <trkpt lat="45.54822" lon="6.14887">
        <ele>281</ele>
        <time>2016-07-19T15:13:36Z</time>
      </trkpt>
      <trkpt lat="45.54846" lon="6.14944">
        <ele>282</ele>
        <time>2016-07-19T15:15:36Z</time>
      </trkpt>
      <trkpt lat="45.54881" lon="6.15029">
        <ele>283</ele>
        <time>2016-07-19T15:17:36Z</time>
      </trkpt>
      <trkpt lat="45.54904" lon="6.15088">
        <ele>282</ele>
        <time>2016-07-19T15:19:36Z</time>
      </trkpt>
      <trkpt lat="45.54945" lon="6.15201">
        <ele>284</ele>
        <time>2016-07-19T15:21:36Z</time>
      </trkpt>
      <trkpt lat="45.54962" lon="6.15252">
        <ele>285</ele>
        <time>2016-07-19T15:23:36Z</time>
      </trkpt>
      <trkpt lat="45.54984" lon="6.15318">
        <ele>287</ele>
        <time>2016-07-19T15:25:36Z</time>
      </trkpt>
      <trkpt lat="45.55009" lon="6.15395">
        <ele>285</ele>
        <time>2016-07-19T15:27:36Z</time>
      </trkpt>
      <trkpt lat="45.55049" lon="6.15527">
        <ele>284</ele>
        <time>2016-07-19T15:29:36Z</time>
      </trkpt>
      <trkpt lat="45.55074" lon="6.15607">
        <ele>285</ele>
        <time>2016-07-19T15:31:36Z</time>
      </trkpt>
      <trkpt lat="45.55094" lon="6.15675">
        <ele>283</ele>
        <time>2016-07-19T15:33:36Z</time>
      </trkpt>
      <trkpt lat="45.55107" lon="6.15718">
        <ele>282</ele>
        <time>2016-07-19T15:35:36Z</time>
      </trkpt>
      <trkpt lat="45.55113" lon="6.15745">
        <ele>282</ele>
        <time>2016-07-19T15:37:36Z</time>
      </trkpt>
      <trkpt lat="45.55118" lon="6.15765">
        <ele>282</ele>
        <time>2016-07-19T15:39:36Z</time>
      </trkpt>
      <trkpt lat="45.55137" lon="6.15832">
        <ele>283</ele>
        <time>2016-07-19T15:41:36Z</time>
      </trkpt>
      <trkpt lat="45.55165" lon="6.15929">
        <ele>284</ele>
        <time>2016-07-19T15:43:36Z</time>
      </trkpt>
      <trkpt lat="45.55183" lon="6.15989">
        <ele>282</ele>
        <time>2016-07-19T15:45:36Z</time>
      </trkpt>
      <trkpt lat="45.55193" lon="6.16028">
        <ele>282</ele>
        <time>2016-07-19T15:47:36Z</time>
      </trkpt>
      <trkpt lat="45.55197" lon="6.16038">
        <ele>282</ele>
        <time>2016-07-19T15:49:36Z</time>
      </trkpt>
      <trkpt lat="45.55217" lon="6.16106">
        <ele>284</ele>
        <time>2016-07-19T15:51:36Z</time>
      </trkpt>
      <trkpt lat="45.55282" lon="6.16328">
        <ele>285</ele>
        <time>2016-07-19T15:53:36Z</time>
      </trkpt>
      <trkpt lat="45.55334" lon="6.16511">
        <ele>285</ele>
        <time>2016-07-19T15:55:36Z</time>
      </trkpt>
      <trkpt lat="45.55357" lon="6.16591">
        <ele>285</ele>
        <time>2016-07-19T15:57:36Z</time>
      </trkpt>
      <trkpt lat="45.55384" lon="6.16686">
        <ele>285</ele>
        <time>2016-07-19T15:59:36Z</time>
      </trkpt>
      <trkpt lat="45.55439" lon="6.16878">
        <ele>285</ele>
        <time>2016-07-19T16:01:36Z</time>
      </trkpt>
      <trkpt lat="45.55463" lon="6.16972">
        <ele>283</ele>
        <time>2016-07-19T16:03:36Z</time>
      </trkpt>
      <trkpt lat="45.55484" lon="6.1705">
        <ele>285</ele>
        <time>2016-07-19T16:05:36Z</time>
      </trkpt>
      <trkpt lat="45.55487" lon="6.17058">
        <ele>285</ele>
        <time>2016-07-19T16:07:36Z</time>
      </trkpt>
      <trkpt lat="45.55493" lon="6.17071">
        <ele>286</ele>
        <time>2016-07-19T16:09:36Z</time>
      </trkpt>
      <trkpt lat="45.55538" lon="6.17234">
        <ele>287</ele>
        <time>2016-07-19T16:11:36Z</time>
      </trkpt>
      <trkpt lat="45.55587" lon="6.17402">
        <ele>293</ele>
        <time>2016-07-19T16:13:36Z</time>
      </trkpt>
      <trkpt lat="45.55655" lon="6.17632">
        <ele>286</ele>
        <time>2016-07-19T16:15:36Z</time>
      </trkpt>
      <trkpt lat="45.55664" lon="6.17662">
        <ele>285</ele>
        <time>2016-07-19T16:17:36Z</time>
      </trkpt>
      <trkpt lat="45.55667" lon="6.17674">
        <ele>285</ele>
        <time>2016-07-19T16:19:36Z</time>
      </trkpt>
      <trkpt lat="45.55717" lon="6.17852">
        <ele>289</ele>
        <time>2016-07-19T16:21:36Z</time>
      </trkpt>
      <trkpt lat="45.55782" lon="6.18091">
        <ele>291</ele>
        <time>2016-07-19T16:23:36Z</time>
      </trkpt>
      <trkpt lat="45.55788" lon="6.18114">
        <ele>291</ele>
        <time>2016-07-19T16:25:36Z</time>
      </trkpt>
      <trkpt lat="45.55804" lon="6.18166">
        <ele>290</ele>
        <time>2016-07-19T16:27:36Z</time>
      </trkpt>
      <trkpt lat="45.55818" lon="6.18213">
        <ele>291</ele>
        <time>2016-07-19T16:29:36Z</time>
      </trkpt>
      <trkpt lat="45.55836" lon="6.18274">
        <ele>291</ele>
        <time>2016-07-19T16:31:36Z</time>
      </trkpt>
      <trkpt lat="45.55847" lon="6.18315">
        <ele>291</ele>
        <time>2016-07-19T16:33:36Z</time>
      </trkpt>
      <trkpt lat="45.55861" lon="6.1836">
        <ele>291</ele>
        <time>2016-07-19T16:35:36Z</time>
      </trkpt>
      <trkpt lat="45.55873" lon="6.18402">
        <ele>290</ele>
        <time>2016-07-19T16:37:36Z</time>
      </trkpt>
      <trkpt lat="45.55886" lon="6.18449">
        <ele>290</ele>
        <time>2016-07-19T16:39:36Z</time>
      </trkpt>
      <trkpt lat="45.55896" lon="6.18487">
        <ele>290</ele>
        <time>2016-07-19T16:41:36Z</time>
      </trkpt>
      <trkpt lat="45.55907" lon="6.18521">
        <ele>291</ele>
        <time>2016-07-19T16:43:36Z</time>
      </trkpt>
      <trkpt lat="45.55917" lon="6.18561">
        <ele>292</ele>
        <time>2016-07-19T16:45:36Z</time>
      </trkpt>
      <trkpt lat="45.55933" lon="6.18615">
        <ele>290</ele>
        <time>2016-07-19T16:47:36Z</time>
      </trkpt>
      <trkpt lat="45.55939" lon="6.18636">
        <ele>289</ele>
        <time>2016-07-19T16:49:36Z</time>
      </trkpt>
      <trkpt lat="45.55962" lon="6.1871">
        <ele>289</ele>
        <time>2016-07-19T16:51:36Z</time>
      </trkpt>
      <trkpt lat="45.56072" lon="6.19088">
        <ele>289</ele>
        <time>2016-07-19T16:53:36Z</time>
      </trkpt>
      <trkpt lat="45.56101" lon="6.19184">
        <ele>290</ele>
        <time>2016-07-19T16:55:36Z</time>
      </trkpt>
      <trkpt lat="45.56128" lon="6.19282">
        <ele>290</ele>
        <time>2016-07-19T16:57:36Z</time>
      </trkpt>
      <trkpt lat="45.56205" lon="6.1955">
        <ele>291</ele>
        <time>2016-07-19T16:59:36Z</time>
      </trkpt>
      <trkpt lat="45.5621" lon="6.19567">
        <ele>291</ele>
        <time>2016-07-19T17:01:36Z</time>
      </trkpt>
      <trkpt lat="45.56215" lon="6.19584">
        <ele>290</ele>
        <time>2016-07-19T17:03:36Z</time>
      </trkpt>
      <trkpt lat="45.56217" lon="6.19598">
        <ele>291</ele>
        <time>2016-07-19T17:05:36Z</time>
      </trkpt>
      <trkpt lat="45.56227" lon="6.1963">
        <ele>292</ele>
        <time>2016-07-19T17:07:36Z</time>
      </trkpt>
      <trkpt lat="45.56264" lon="6.19754">
        <ele>292</ele>
        <time>2016-07-19T17:09:36Z</time>
      </trkpt>
      <trkpt lat="45.56269" lon="6.19774">
        <ele>292</ele>
        <time>2016-07-19T17:11:36Z</time>
      </trkpt>
      <trkpt lat="45.56269" lon="6.19774">
        <ele>292</ele>
        <time>2016-07-19T17:13:36Z</time>
      </trkpt>
      <trkpt lat="45.56268" lon="6.19796">
        <ele>291</ele>
        <time>2016-07-19T17:15:36Z</time>
      </trkpt>
      <trkpt lat="45.56268" lon="6.19805">
        <ele>291</ele>
        <time>2016-07-19T17:17:36Z</time>
      </trkpt>
      <trkpt lat="45.56267" lon="6.19822">
        <ele>290</ele>
        <time>2016-07-19T17:19:36Z</time>
      </trkpt>
      <trkpt lat="45.56256" lon="6.19838">
        <ele>289</ele>
        <time>2016-07-19T17:21:36Z</time>
      </trkpt>
      <trkpt lat="45.56197" lon="6.19871">
        <ele>288</ele>
        <time>2016-07-19T17:23:36Z</time>
      </trkpt>
      <trkpt lat="45.5614" lon="6.19904">
        <ele>288</ele>
        <time>2016-07-19T17:25:36Z</time>
      </trkpt>
      <trkpt lat="45.56133" lon="6.19912">
        <ele>288</ele>
        <time>2016-07-19T17:27:36Z</time>
      </trkpt>
      <trkpt lat="45.5613" lon="6.19916">
        <ele>288</ele>
        <time>2016-07-19T17:29:36Z</time>
      </trkpt>
      <trkpt lat="45.56127" lon="6.19921">
        <ele>289</ele>
        <time>2016-07-19T17:31:36Z</time>
      </trkpt>
      <trkpt lat="45.56125" lon="6.19924">
        <ele>289</ele>
        <time>2016-07-19T17:33:36Z</time>
      </trkpt>
      <trkpt lat="45.56124" lon="6.19929">
        <ele>289</ele>
        <time>2016-07-19T17:35:36Z</time>
      </trkpt>
      <trkpt lat="45.56121" lon="6.1994">
        <ele>290</ele>
        <time>2016-07-19T17:37:36Z</time>
      </trkpt>
      <trkpt lat="45.5612" lon="6.19946">
        <ele>291</ele>
        <time>2016-07-19T17:39:36Z</time>
      </trkpt>
      <trkpt lat="45.5612" lon="6.19955">
        <ele>291</ele>
        <time>2016-07-19T17:41:36Z</time>
      </trkpt>
      <trkpt lat="45.5612" lon="6.19968">
        <ele>292</ele>
        <time>2016-07-19T17:43:36Z</time>
      </trkpt>
      <trkpt lat="45.56121" lon="6.19977">
        <ele>293</ele>
        <time>2016-07-19T17:45:36Z</time>
      </trkpt>
      <trkpt lat="45.56125" lon="6.19989">
        <ele>293</ele>
        <time>2016-07-19T17:47:36Z</time>
      </trkpt>
      <trkpt lat="45.56129" lon="6.19997">
        <ele>294</ele>
        <time>2016-07-19T17:49:36Z</time>
      </trkpt>
      <trkpt lat="45.56136" lon="6.20011">
        <ele>294</ele>
        <time>2016-07-19T17:51:36Z</time>
      </trkpt>
      <trkpt lat="45.56142" lon="6.20022">
        <ele>294</ele>
        <time>2016-07-19T17:53:36Z</time>
      </trkpt>
      <trkpt lat="45.56143" lon="6.20024">
        <ele>294</ele>
        <time>2016-07-19T17:55:36Z</time>
      </trkpt>
      <trkpt lat="45.56151" lon="6.20038">
        <ele>295</ele>
        <time>2016-07-19T17:57:36Z</time>
      </trkpt>
      <trkpt lat="45.56168" lon="6.20072">
        <ele>297</ele>
        <time>2016-07-19T17:59:36Z</time>
      </trkpt>
      <trkpt lat="45.56174" lon="6.20083">
        <ele>297</ele>
        <time>2016-07-19T18:01:36Z</time>
      </trkpt>
      <trkpt lat="45.5618" lon="6.20099">
        <ele>297</ele>
        <time>2016-07-19T18:03:36Z</time>
      </trkpt>
      <trkpt lat="45.56188" lon="6.2012">
        <ele>297</ele>
        <time>2016-07-19T18:05:36Z</time>
      </trkpt>
      <trkpt lat="45.562" lon="6.20162">
        <ele>296</ele>
        <time>2016-07-19T18:07:36Z</time>
      </trkpt>
      <trkpt lat="45.56216" lon="6.20218">
        <ele>294</ele>
        <time>2016-07-19T18:09:36Z</time>
      </trkpt>
      <trkpt lat="45.5623" lon="6.20272">
        <ele>293</ele>
        <time>2016-07-19T18:11:36Z</time>
      </trkpt>
      <trkpt lat="45.56233" lon="6.20287">
        <ele>294</ele>
        <time>2016-07-19T18:13:36Z</time>
      </trkpt>
      <trkpt lat="45.56235" lon="6.20298">
        <ele>294</ele>
        <time>2016-07-19T18:15:36Z</time>
      </trkpt>
      <trkpt lat="45.56239" lon="6.20322">
        <ele>294</ele>
        <time>2016-07-19T18:17:36Z</time>
      </trkpt>
      <trkpt lat="45.56241" lon="6.20343">
        <ele>295</ele>
        <time>2016-07-19T18:19:36Z</time>
      </trkpt>
      <trkpt lat="45.56244" lon="6.20374">
        <ele>295</ele>
        <time>2016-07-19T18:21:36Z</time>
      </trkpt>
      <trkpt lat="45.56242" lon="6.20387">
        <ele>296</ele>
        <time>2016-07-19T18:23:36Z</time>
      </trkpt>
      <trkpt lat="45.56241" lon="6.20411">
        <ele>298</ele>
        <time>2016-07-19T18:25:36Z</time>
      </trkpt>
      <trkpt lat="45.56239" lon="6.20433">
        <ele>299</ele>
        <time>2016-07-19T18:27:36Z</time>
      </trkpt>
      <trkpt lat="45.56236" lon="6.20453">
        <ele>299</ele>
        <time>2016-07-19T18:29:36Z</time>
      </trkpt>
      <trkpt lat="45.56221" lon="6.20545">
        <ele>299</ele>
        <time>2016-07-19T18:31:36Z</time>
      </trkpt>
      <trkpt lat="45.56211" lon="6.20588">
        <ele>297</ele>
        <time>2016-07-19T18:33:36Z</time>
      </trkpt>
      <trkpt lat="45.56207" lon="6.20608">
        <ele>297</ele>
        <time>2016-07-19T18:35:36Z</time>
      </trkpt>
      <trkpt lat="45.56194" lon="6.2068">
        <ele>294</ele>
        <time>2016-07-19T18:37:36Z</time>
      </trkpt>
      <trkpt lat="45.56172" lon="6.2081">
        <ele>293</ele>
        <time>2016-07-19T18:39:36Z</time>
      </trkpt>
      <trkpt lat="45.56162" lon="6.20868">
        <ele>293</ele>
        <time>2016-07-19T18:41:36Z</time>
      </trkpt>
      <trkpt lat="45.5616" lon="6.20889">
        <ele>292</ele>
        <time>2016-07-19T18:43:36Z</time>
      </trkpt>
      <trkpt lat="45.56146" lon="6.20965">
        <ele>291</ele>
        <time>2016-07-19T18:45:36Z</time>
      </trkpt>
      <trkpt lat="45.5614" lon="6.20997">
        <ele>292</ele>
        <time>2016-07-19T18:47:36Z</time>
      </trkpt>
      <trkpt lat="45.56129" lon="6.21056">
        <ele>295</ele>
        <time>2016-07-19T18:49:36Z</time>
      </trkpt>
      <trkpt lat="45.56099" lon="6.21211">
        <ele>297</ele>
        <time>2016-07-19T18:51:36Z</time>
      </trkpt>
      <trkpt lat="45.56094" lon="6.21237">
        <ele>297</ele>
        <time>2016-07-19T18:53:36Z</time>
      </trkpt>
      <trkpt lat="45.5607" lon="6.21364">
        <ele>295</ele>
        <time>2016-07-19T18:55:36Z</time>
      </trkpt>
      <trkpt lat="45.56068" lon="6.21375">
        <ele>295</ele>
        <time>2016-07-19T18:57:36Z</time>
      </trkpt>
      <trkpt lat="45.56001" lon="6.21726">
        <ele>291</ele>
        <time>2016-07-19T18:59:36Z</time>
      </trkpt>
      <trkpt lat="45.5599" lon="6.21788">
        <ele>293</ele>
        <time>2016-07-19T19:01:36Z</time>
      </trkpt>
      <trkpt lat="45.55984" lon="6.21824">
        <ele>295</ele>
        <time>2016-07-19T19:03:36Z</time>
      </trkpt>
      <trkpt lat="45.55976" lon="6.21872">
        <ele>295</ele>
        <time>2016-07-19T19:05:36Z</time>
      </trkpt>
      <trkpt lat="45.55967" lon="6.21915">
        <ele>294</ele>
        <time>2016-07-19T19:07:36Z</time>
      </trkpt>
      <trkpt lat="45.55959" lon="6.21956">
        <ele>295</ele>
        <time>2016-07-19T19:09:36Z</time>
      </trkpt>
      <trkpt lat="45.55949" lon="6.22006">
        <ele>297</ele>
        <time>2016-07-19T19:11:36Z</time>
      </trkpt>
      <trkpt lat="45.55943" lon="6.22039">
        <ele>298</ele>
        <time>2016-07-19T19:13:36Z</time>
      </trkpt>
      <trkpt lat="45.55941" lon="6.22051">
        <ele>299</ele>
        <time>2016-07-19T19:15:36Z</time>
      </trkpt>
      <trkpt lat="45.55931" lon="6.22099">
        <ele>300</ele>
        <time>2016-07-19T19:17:36Z</time>
      </trkpt>
      <trkpt lat="45.55893" lon="6.22306">
        <ele>296</ele>
        <time>2016-07-19T19:19:36Z</time>
      </trkpt>
      <trkpt lat="45.5588" lon="6.22374">
        <ele>295</ele>
        <time>2016-07-19T19:21:36Z</time>
      </trkpt>
      <trkpt lat="45.55862" lon="6.22465">
        <ele>295</ele>
        <time>2016-07-19T19:23:36Z</time>
      </trkpt>
      <trkpt lat="45.55848" lon="6.2254">
        <ele>297</ele>
        <time>2016-07-19T19:25:36Z</time>
      </trkpt>
      <trkpt lat="45.55832" lon="6.22629">
        <ele>297</ele>
        <time>2016-07-19T19:27:36Z</time>
      </trkpt>
      <trkpt lat="45.55814" lon="6.22726">
        <ele>295</ele>
        <time>2016-07-19T19:29:36Z</time>
      </trkpt>
      <trkpt lat="45.55801" lon="6.22792">
        <ele>295</ele>
        <time>2016-07-19T19:31:36Z</time>
      </trkpt>
      <trkpt lat="45.55786" lon="6.22872">
        <ele>295</ele>
        <time>2016-07-19T19:33:36Z</time>
      </trkpt>
      <trkpt lat="45.55773" lon="6.22943">
        <ele>298</ele>
        <time>2016-07-19T19:35:36Z</time>
      </trkpt>
      <trkpt lat="45.55758" lon="6.23022">
        <ele>299</ele>
        <time>2016-07-19T19:37:36Z</time>
      </trkpt>
      <trkpt lat="45.55733" lon="6.23151">
        <ele>302</ele>
        <time>2016-07-19T19:39:36Z</time>
      </trkpt>
      <trkpt lat="45.55717" lon="6.23234">
        <ele>302</ele>
        <time>2016-07-19T19:41:36Z</time>
      </trkpt>
      <trkpt lat="45.55702" lon="6.23315">
        <ele>300</ele>
        <time>2016-07-19T19:43:36Z</time>
      </trkpt>
      <trkpt lat="45.55694" lon="6.23354">
        <ele>299</ele>
        <time>2016-07-19T19:45:36Z</time>
      </trkpt>
      <trkpt lat="45.55674" lon="6.23462">
        <ele>300</ele>
        <time>2016-07-19T19:47:36Z</time>
      </trkpt>
      <trkpt lat="45.55642" lon="6.23637">
        <ele>301</ele>
        <time>2016-07-19T19:49:36Z</time>
      </trkpt>
      <trkpt lat="45.55624" lon="6.23722">
        <ele>301</ele>
        <time>2016-07-19T19:51:36Z</time>
      </trkpt>
      <trkpt lat="45.55593" lon="6.2389">
        <ele>301</ele>
        <time>2016-07-19T19:53:36Z</time>
      </trkpt>
      <trkpt lat="45.55587" lon="6.23922">
        <ele>301</ele>
        <time>2016-07-19T19:55:36Z</time>
      </trkpt>
      <trkpt lat="45.55575" lon="6.23981">
        <ele>299</ele>
        <time>2016-07-19T19:57:36Z</time>
      </trkpt>
      <trkpt lat="45.55537" lon="6.24182">
        <ele>297</ele>
        <time>2016-07-19T19:59:36Z</time>
      </trkpt>
      <trkpt lat="45.55504" lon="6.24358">
        <ele>301</ele>
        <time>2016-07-19T20:01:36Z</time>
      </trkpt>
      <trkpt lat="45.5549" lon="6.24434">
        <ele>301</ele>
        <time>2016-07-19T20:03:36Z</time>
      </trkpt>
      <trkpt lat="45.55476" lon="6.24506">
        <ele>300</ele>
        <time>2016-07-19T20:05:36Z</time>
      </trkpt>
      <trkpt lat="45.55466" lon="6.24559">
        <ele>300</ele>
        <time>2016-07-19T20:07:36Z</time>
      </trkpt>
      <trkpt lat="45.55444" lon="6.24675">
        <ele>303</ele>
        <time>2016-07-19T20:09:36Z</time>
      </trkpt>
      <trkpt lat="45.55423" lon="6.24796">
        <ele>304</ele>
        <time>2016-07-19T20:11:36Z</time>
      </trkpt>
      <trkpt lat="45.55411" lon="6.24856">
        <ele>302</ele>
        <time>2016-07-19T20:13:36Z</time>
      </trkpt>
      <trkpt lat="45.55403" lon="6.24905">
        <ele>303</ele>
        <time>2016-07-19T20:15:36Z</time>
      </trkpt>
      <trkpt lat="45.55397" lon="6.2495">
        <ele>303</ele>
        <time>2016-07-19T20:17:36Z</time>
      </trkpt>
      <trkpt lat="45.55395" lon="6.24969">
        <ele>303</ele>
        <time>2016-07-19T20:19:36Z</time>
      </trkpt>
      <trkpt lat="45.55394" lon="6.24984">
        <ele>303</ele>
        <time>2016-07-19T20:21:36Z</time>
      </trkpt>
      <trkpt lat="45.55393" lon="6.2502">
        <ele>303</ele>
        <time>2016-07-19T20:23:36Z</time>
      </trkpt>
      <trkpt lat="45.55393" lon="6.25054">
        <ele>303</ele>
        <time>2016-07-19T20:25:36Z</time>
      </trkpt>
      <trkpt lat="45.55394" lon="6.25065">
        <ele>303</ele>
        <time>2016-07-19T20:27:36Z</time>
      </trkpt>
      <trkpt lat="45.55394" lon="6.25077">
        <ele>303</ele>
        <time>2016-07-19T20:29:36Z</time>
      </trkpt>
      <trkpt lat="45.55396" lon="6.25105">
        <ele>303</ele>
        <time>2016-07-19T20:31:36Z</time>
      </trkpt>
      <trkpt lat="45.55399" lon="6.25134">
        <ele>303</ele>
        <time>2016-07-19T20:33:36Z</time>
      </trkpt>
      <trkpt lat="45.55402" lon="6.25161">
        <ele>304</ele>
        <time>2016-07-19T20:35:36Z</time>
      </trkpt>
      <trkpt lat="45.55407" lon="6.25188">
        <ele>305</ele>
        <time>2016-07-19T20:37:36Z</time>
      </trkpt>
      <trkpt lat="45.55414" lon="6.25225">
        <ele>306</ele>
        <time>2016-07-19T20:39:36Z</time>
      </trkpt>
      <trkpt lat="45.55422" lon="6.25262">
        <ele>306</ele>
        <time>2016-07-19T20:41:36Z</time>
      </trkpt>
      <trkpt lat="45.55431" lon="6.25292">
        <ele>305</ele>
        <time>2016-07-19T20:43:36Z</time>
      </trkpt>
      <trkpt lat="45.55439" lon="6.25317">
        <ele>304</ele>
        <time>2016-07-19T20:45:36Z</time>
      </trkpt>
      <trkpt lat="45.55449" lon="6.25343">
        <ele>304</ele>
        <time>2016-07-19T20:47:36Z</time>
      </trkpt>
      <trkpt lat="45.55473" lon="6.25396">
        <ele>305</ele>
        <time>2016-07-19T20:49:36Z</time>
      </trkpt>
      <trkpt lat="45.55491" lon="6.25434">
        <ele>306</ele>
        <time>2016-07-19T20:51:36Z</time>
      </trkpt>
      <trkpt lat="45.55508" lon="6.2547">
        <ele>307</ele>
        <time>2016-07-19T20:53:36Z</time>
      </trkpt>
      <trkpt lat="45.5552" lon="6.25502">
        <ele>307</ele>
        <time>2016-07-19T20:55:36Z</time>
      </trkpt>
      <trkpt lat="45.55524" lon="6.2551">
        <ele>306</ele>
        <time>2016-07-19T20:57:36Z</time>
      </trkpt>
      <trkpt lat="45.55528" lon="6.25525">
        <ele>306</ele>
        <time>2016-07-19T20:59:36Z</time>
      </trkpt>
      <trkpt lat="45.55529" lon="6.25528">
        <ele>306</ele>
        <time>2016-07-19T21:01:36Z</time>
      </trkpt>
      <trkpt lat="45.55529" lon="6.2553">
        <ele>306</ele>
        <time>2016-07-19T21:03:36Z</time>
      </trkpt>
      <trkpt lat="45.5553" lon="6.25532">
        <ele>306</ele>
        <time>2016-07-19T21:05:36Z</time>
      </trkpt>
      <trkpt lat="45.5553" lon="6.25535">
        <ele>306</ele>
        <time>2016-07-19T21:07:36Z</time>
      </trkpt>
      <trkpt lat="45.55531" lon="6.25538">
        <ele>306</ele>
        <time>2016-07-19T21:09:36Z</time>
      </trkpt>
      <trkpt lat="45.55532" lon="6.25542">
        <ele>306</ele>
        <time>2016-07-19T21:11:36Z</time>
      </trkpt>
      <trkpt lat="45.55533" lon="6.25546">
        <ele>306</ele>
        <time>2016-07-19T21:13:36Z</time>
      </trkpt>
      <trkpt lat="45.55534" lon="6.25549">
        <ele>306</ele>
        <time>2016-07-19T21:15:36Z</time>
      </trkpt>
      <trkpt lat="45.55535" lon="6.25555">
        <ele>306</ele>
        <time>2016-07-19T21:17:36Z</time>
      </trkpt>
      <trkpt lat="45.55536" lon="6.25558">
        <ele>306</ele>
        <time>2016-07-19T21:19:36Z</time>
      </trkpt>
      <trkpt lat="45.55536" lon="6.25561">
        <ele>306</ele>
        <time>2016-07-19T21:21:36Z</time>
      </trkpt>
      <trkpt lat="45.55537" lon="6.25564">
        <ele>306</ele>
        <time>2016-07-19T21:23:36Z</time>
      </trkpt>
      <trkpt lat="45.55537" lon="6.25567">
        <ele>306</ele>
        <time>2016-07-19T21:25:36Z</time>
      </trkpt>
      <trkpt lat="45.55537" lon="6.2557">
        <ele>306</ele>
        <time>2016-07-19T21:27:36Z</time>
      </trkpt>
      <trkpt lat="45.55537" lon="6.25572">
        <ele>306</ele>
        <time>2016-07-19T21:29:36Z</time>
      </trkpt>
      <trkpt lat="45.55536" lon="6.25577">
        <ele>306</ele>
        <time>2016-07-19T21:31:36Z</time>
      </trkpt>
      <trkpt lat="45.55536" lon="6.25582">
        <ele>306</ele>
        <time>2016-07-19T21:33:36Z</time>
      </trkpt>
      <trkpt lat="45.55535" lon="6.25587">
        <ele>306</ele>
        <time>2016-07-19T21:35:36Z</time>
      </trkpt>
      <trkpt lat="45.55535" lon="6.25588">
        <ele>306</ele>
        <time>2016-07-19T21:37:36Z</time>
      </trkpt>
      <trkpt lat="45.55534" lon="6.25589">
        <ele>306</ele>
        <time>2016-07-19T21:39:36Z</time>
      </trkpt>
      <trkpt lat="45.55533" lon="6.25591">
        <ele>306</ele>
        <time>2016-07-19T21:41:36Z</time>
      </trkpt>
      <trkpt lat="45.55533" lon="6.25592">
        <ele>306</ele>
        <time>2016-07-19T21:43:36Z</time>
      </trkpt>
      <trkpt lat="45.55532" lon="6.25593">
        <ele>306</ele>
        <time>2016-07-19T21:45:36Z</time>
      </trkpt>
      <trkpt lat="45.55531" lon="6.25595">
        <ele>306</ele>
        <time>2016-07-19T21:47:36Z</time>
      </trkpt>
      <trkpt lat="45.55531" lon="6.25596">
        <ele>306</ele>
        <time>2016-07-19T21:49:36Z</time>
      </trkpt>
      <trkpt lat="45.5553" lon="6.25597">
        <ele>306</ele>
        <time>2016-07-19T21:51:36Z</time>
      </trkpt>
      <trkpt lat="45.5553" lon="6.256">
        <ele>306</ele>
        <time>2016-07-19T21:53:36Z</time>
      </trkpt>
      <trkpt lat="45.55529" lon="6.25603">
        <ele>306</ele>
        <time>2016-07-19T21:55:36Z</time>
      </trkpt>
      <trkpt lat="45.55529" lon="6.25605">
        <ele>306</ele>
        <time>2016-07-19T21:57:36Z</time>
      </trkpt>
      <trkpt lat="45.55529" lon="6.25608">
        <ele>306</ele>
        <time>2016-07-19T21:59:36Z</time>
      </trkpt>
      <trkpt lat="45.55529" lon="6.2561">
        <ele>306</ele>
        <time>2016-07-19T22:01:36Z</time>
      </trkpt>
      <trkpt lat="45.55529" lon="6.25613">
        <ele>306</ele>
        <time>2016-07-19T22:03:36Z</time>
      </trkpt>
      <trkpt lat="45.55529" lon="6.25616">
        <ele>306</ele>
        <time>2016-07-19T22:05:36Z</time>
      </trkpt>
      <trkpt lat="45.5553" lon="6.25618">
        <ele>306</ele>
        <time>2016-07-19T22:07:36Z</time>
      </trkpt>
      <trkpt lat="45.55531" lon="6.25624">
        <ele>307</ele>
        <time>2016-07-19T22:09:36Z</time>
      </trkpt>
      <trkpt lat="45.55532" lon="6.25626">
        <ele>307</ele>
        <time>2016-07-19T22:11:36Z</time>
      </trkpt>
      <trkpt lat="45.55533" lon="6.25629">
        <ele>307</ele>
        <time>2016-07-19T22:13:36Z</time>
      </trkpt>
      <trkpt lat="45.55535" lon="6.25631">
        <ele>307</ele>
        <time>2016-07-19T22:15:36Z</time>
      </trkpt>
      <trkpt lat="45.55536" lon="6.25633">
        <ele>307</ele>
        <time>2016-07-19T22:17:36Z</time>
      </trkpt>
      <trkpt lat="45.55538" lon="6.25635">
        <ele>307</ele>
        <time>2016-07-19T22:19:36Z</time>
      </trkpt>
      <trkpt lat="45.5554" lon="6.25637">
        <ele>307</ele>
        <time>2016-07-19T22:21:36Z</time>
      </trkpt>
      <trkpt lat="45.55542" lon="6.25638">
        <ele>307</ele>
        <time>2016-07-19T22:23:36Z</time>
      </trkpt>
      <trkpt lat="45.55544" lon="6.25639">
        <ele>307</ele>
        <time>2016-07-19T22:25:36Z</time>
      </trkpt>
      <trkpt lat="45.55546" lon="6.2564">
        <ele>307</ele>
        <time>2016-07-19T22:27:36Z</time>
      </trkpt>
      <trkpt lat="45.55548" lon="6.25641">
        <ele>307</ele>
        <time>2016-07-19T22:29:36Z</time>
      </trkpt>
      <trkpt lat="45.5555" lon="6.25641">
        <ele>307</ele>
        <time>2016-07-19T22:31:36Z</time>
      </trkpt>
      <trkpt lat="45.55552" lon="6.25641">
        <ele>308</ele>
        <time>2016-07-19T22:33:36Z</time>
      </trkpt>
      <trkpt lat="45.5556" lon="6.25649">
        <ele>308</ele>
        <time>2016-07-19T22:35:36Z</time>
      </trkpt>
      <trkpt lat="45.55568" lon="6.2566">
        <ele>308</ele>
        <time>2016-07-19T22:37:36Z</time>
      </trkpt>
      <trkpt lat="45.55575" lon="6.25678">
        <ele>309</ele>
        <time>2016-07-19T22:39:36Z</time>
      </trkpt>
      <trkpt lat="45.55584" lon="6.25699">
        <ele>309</ele>
        <time>2016-07-19T22:41:36Z</time>
      </trkpt>
      <trkpt lat="45.55591" lon="6.25714">
        <ele>309</ele>
        <time>2016-07-19T22:43:36Z</time>
      </trkpt>
      <trkpt lat="45.55598" lon="6.25723">
        <ele>309</ele>
        <time>2016-07-19T22:45:36Z</time>
      </trkpt>
      <trkpt lat="45.55616" lon="6.25769">
        <ele>308</ele>
        <time>2016-07-19T22:47:36Z</time>
      </trkpt>
      <trkpt lat="45.55637" lon="6.25819">
        <ele>308</ele>
        <time>2016-07-19T22:49:36Z</time>
      </trkpt>
      <trkpt lat="45.55648" lon="6.25846">
        <ele>308</ele>
        <time>2016-07-19T22:51:36Z</time>
      </trkpt>
      <trkpt lat="45.55665" lon="6.25889">
        <ele>307</ele>
        <time>2016-07-19T22:53:36Z</time>
      </trkpt>
      <trkpt lat="45.55671" lon="6.25903">
        <ele>307</ele>
        <time>2016-07-19T22:55:36Z</time>
      </trkpt>
      <trkpt lat="45.55682" lon="6.25932">
        <ele>307</ele>
        <time>2016-07-19T22:57:36Z</time>
      </trkpt>
      <trkpt lat="45.55704" lon="6.25985">
        <ele>307</ele>
        <time>2016-07-19T22:59:36Z</time>
      </trkpt>
      <trkpt lat="45.55733" lon="6.26058">
        <ele>308</ele>
        <time>2016-07-19T23:01:36Z</time>
      </trkpt>
      <trkpt lat="45.55762" lon="6.26138">
        <ele>307</ele>
        <time>2016-07-19T23:03:36Z</time>
      </trkpt>
      <trkpt lat="45.55787" lon="6.26216">
        <ele>307</ele>
        <time>2016-07-19T23:05:36Z</time>
      </trkpt>
      <trkpt lat="45.55799" lon="6.26257">
        <ele>307</ele>
        <time>2016-07-19T23:07:36Z</time>
      </trkpt>
      <trkpt lat="45.55812" lon="6.26307">
        <ele>307</ele>
        <time>2016-07-19T23:09:36Z</time>
      </trkpt>
      <trkpt lat="45.55823" lon="6.26354">
        <ele>307</ele>
        <time>2016-07-19T23:11:36Z</time>
      </trkpt>
      <trkpt lat="45.55835" lon="6.2641">
        <ele>308</ele>
        <time>2016-07-19T23:13:36Z</time>
      </trkpt>
      <trkpt lat="45.55848" lon="6.26484">
        <ele>310</ele>
        <time>2016-07-19T23:15:36Z</time>
      </trkpt>
      <trkpt lat="45.55853" lon="6.26523">
        <ele>310</ele>
        <time>2016-07-19T23:17:36Z</time>
      </trkpt>
      <trkpt lat="45.5586" lon="6.26585">
        <ele>310</ele>
        <time>2016-07-19T23:19:36Z</time>
      </trkpt>
      <trkpt lat="45.55865" lon="6.26682">
        <ele>311</ele>
        <time>2016-07-19T23:21:36Z</time>
      </trkpt>
      <trkpt lat="45.55866" lon="6.26715">
        <ele>310</ele>
        <time>2016-07-19T23:23:36Z</time>
      </trkpt>
      <trkpt lat="45.55869" lon="6.26756">
        <ele>309</ele>
        <time>2016-07-19T23:25:36Z</time>
      </trkpt>
      <trkpt lat="45.5587" lon="6.26767">
        <ele>310</ele>
        <time>2016-07-19T23:27:36Z</time>
      </trkpt>
      <trkpt lat="45.55883" lon="6.2693">
        <ele>311</ele>
        <time>2016-07-19T23:29:36Z</time>
      </trkpt>
      <trkpt lat="45.55886" lon="6.26944">
        <ele>311</ele>
        <time>2016-07-19T23:31:36Z</time>
      </trkpt>
      <trkpt lat="45.55901" lon="6.27163">
        <ele>311</ele>
        <time>2016-07-19T23:33:36Z</time>
      </trkpt>
      <trkpt lat="45.55909" lon="6.27296">
        <ele>310</ele>
        <time>2016-07-19T23:35:36Z</time>
      </trkpt>
      <trkpt lat="45.5591" lon="6.27326">
        <ele>311</ele>
        <time>2016-07-19T23:37:36Z</time>
      </trkpt>
      <trkpt lat="45.55911" lon="6.2734">
        <ele>312</ele>
        <time>2016-07-19T23:39:36Z</time>
      </trkpt>
      <trkpt lat="45.55911" lon="6.27356">
        <ele>312</ele>
        <time>2016-07-19T23:41:36Z</time>
      </trkpt>
      <trkpt lat="45.55911" lon="6.27372">
        <ele>312</ele>
        <time>2016-07-19T23:43:36Z</time>
      </trkpt>
      <trkpt lat="45.5591" lon="6.27387">
        <ele>312</ele>
        <time>2016-07-19T23:45:36Z</time>
      </trkpt>
      <trkpt lat="45.55909" lon="6.27415">
        <ele>311</ele>
        <time>2016-07-19T23:47:36Z</time>
      </trkpt>
      <trkpt lat="45.55907" lon="6.27448">
        <ele>312</ele>
        <time>2016-07-19T23:49:36Z</time>
      </trkpt>
      <trkpt lat="45.55904" lon="6.27496">
        <ele>312</ele>
        <time>2016-07-19T23:51:36Z</time>
      </trkpt>
      <trkpt lat="45.55903" lon="6.27516">
        <ele>312</ele>
        <time>2016-07-19T23:53:36Z</time>
      </trkpt>
      <trkpt lat="45.55902" lon="6.27532">
        <ele>312</ele>
        <time>2016-07-19T23:55:36Z</time>
      </trkpt>
      <trkpt lat="45.55901" lon="6.27547">
        <ele>313</ele>
        <time>2016-07-19T23:57:36Z</time>
      </trkpt>
      <trkpt lat="45.55901" lon="6.27569">
        <ele>313</ele>
        <time>2016-07-19T23:59:36Z</time>
      </trkpt>
      <trkpt lat="45.55902" lon="6.27593">
        <ele>313</ele>
        <time>2016-07-20T00:01:36Z</time>
      </trkpt>
      <trkpt lat="45.55903" lon="6.27616">
        <ele>314</ele>
        <time>2016-07-20T00:03:36Z</time>
      </trkpt>
      <trkpt lat="45.55906" lon="6.27639">
        <ele>314</ele>
        <time>2016-07-20T00:05:36Z</time>
      </trkpt>
      <trkpt lat="45.55909" lon="6.27658">
        <ele>315</ele>
        <time>2016-07-20T00:07:36Z</time>
      </trkpt>
      <trkpt lat="45.55915" lon="6.27687">
        <ele>315</ele>
        <time>2016-07-20T00:09:36Z</time>
      </trkpt>
      <trkpt lat="45.55929" lon="6.27757">
        <ele>315</ele>
        <time>2016-07-20T00:11:36Z</time>
      </trkpt>
      <trkpt lat="45.55944" lon="6.27826">
        <ele>314</ele>
        <time>2016-07-20T00:13:36Z</time>
      </trkpt>
      <trkpt lat="45.55947" lon="6.27848">
        <ele>315</ele>
        <time>2016-07-20T00:15:36Z</time>
      </trkpt>
      <trkpt lat="45.55949" lon="6.27862">
        <ele>315</ele>
        <time>2016-07-20T00:17:36Z</time>
      </trkpt>
      <trkpt lat="45.55952" lon="6.27882">
        <ele>315</ele>
        <time>2016-07-20T00:19:36Z</time>
      </trkpt>
      <trkpt lat="45.55953" lon="6.27898">
        <ele>315</ele>
        <time>2016-07-20T00:21:36Z</time>
      </trkpt>
      <trkpt lat="45.55953" lon="6.27913">
        <ele>316</ele>
        <time>2016-07-20T00:23:36Z</time>
      </trkpt>
      <trkpt lat="45.55953" lon="6.27931">
        <ele>315</ele>
        <time>2016-07-20T00:25:36Z</time>
      </trkpt>
      <trkpt lat="45.55953" lon="6.27946">
        <ele>315</ele>
        <time>2016-07-20T00:27:36Z</time>
      </trkpt>
      <trkpt lat="45.55951" lon="6.27967">
        <ele>314</ele>
        <time>2016-07-20T00:29:36Z</time>
      </trkpt>
      <trkpt lat="45.55948" lon="6.27995">
        <ele>313</ele>
        <time>2016-07-20T00:31:36Z</time>
      </trkpt>
      <trkpt lat="45.55945" lon="6.28014">
        <ele>313</ele>
        <time>2016-07-20T00:33:36Z</time>
      </trkpt>
      <trkpt lat="45.55941" lon="6.28031">
        <ele>314</ele>
        <time>2016-07-20T00:35:36Z</time>
      </trkpt>
      <trkpt lat="45.55937" lon="6.28051">
        <ele>314</ele>
        <time>2016-07-20T00:37:36Z</time>
      </trkpt>
      <trkpt lat="45.55931" lon="6.2807">
        <ele>315</ele>
        <time>2016-07-20T00:39:36Z</time>
      </trkpt>
      <trkpt lat="45.55924" lon="6.28092">
        <ele>315</ele>
        <time>2016-07-20T00:41:36Z</time>
      </trkpt>
      <trkpt lat="45.55913" lon="6.28118">
        <ele>316</ele>
        <time>2016-07-20T00:43:36Z</time>
      </trkpt>
      <trkpt lat="45.55901" lon="6.28147">
        <ele>315</ele>
        <time>2016-07-20T00:45:36Z</time>
      </trkpt>
      <trkpt lat="45.55884" lon="6.28188">
        <ele>315</ele>
        <time>2016-07-20T00:47:36Z</time>
      </trkpt>
      <trkpt lat="45.55807" lon="6.28362">
        <ele>314</ele>
        <time>2016-07-20T00:49:36Z</time>
      </trkpt>
      <trkpt lat="45.55751" lon="6.28482">
        <ele>316</ele>
        <time>2016-07-20T00:51:36Z</time>
      </trkpt>
      <trkpt lat="45.556" lon="6.28799">
        <ele>318</ele>
        <time>2016-07-20T00:53:36Z</time>
      </trkpt>
      <trkpt lat="45.55589" lon="6.28823">
        <ele>318</ele>
        <time>2016-07-20T00:55:36Z</time>
      </trkpt>
      <trkpt lat="45.55579" lon="6.28841">
        <ele>319</ele>
        <time>2016-07-20T00:57:36Z</time>
      </trkpt>
      <trkpt lat="45.55567" lon="6.28862">
        <ele>318</ele>
        <time>2016-07-20T00:59:36Z</time>
      </trkpt>
      <trkpt lat="45.55557" lon="6.28879">
        <ele>318</ele>
        <time>2016-07-20T01:01:36Z</time>
      </trkpt>
      <trkpt lat="45.55549" lon="6.28892">
        <ele>318</ele>
        <time>2016-07-20T01:03:36Z</time>
      </trkpt>
      <trkpt lat="45.55534" lon="6.28914">
        <ele>319</ele>
        <time>2016-07-20T01:05:36Z</time>
      </trkpt>
      <trkpt lat="45.55529" lon="6.28918">
        <ele>319</ele>
        <time>2016-07-20T01:07:36Z</time>
      </trkpt>
      <trkpt lat="45.55454" lon="6.29015">
        <ele>318</ele>
        <time>2016-07-20T01:09:36Z</time>
      </trkpt>
      <trkpt lat="45.55431" lon="6.29048">
        <ele>319</ele>
        <time>2016-07-20T01:11:36Z</time>
      </trkpt>
      <trkpt lat="45.554" lon="6.29091">
        <ele>318</ele>
        <time>2016-07-20T01:13:36Z</time>
      </trkpt>
      <trkpt lat="45.55373" lon="6.29132">
        <ele>316</ele>
        <time>2016-07-20T01:15:36Z</time>
      </trkpt>
      <trkpt lat="45.55353" lon="6.29163">
        <ele>317</ele>
        <time>2016-07-20T01:17:36Z</time>
      </trkpt>
      <trkpt lat="45.55348" lon="6.29176">
        <ele>317</ele>
        <time>2016-07-20T01:19:36Z</time>
      </trkpt>
      <trkpt lat="45.55252" lon="6.29311">
        <ele>319</ele>
        <time>2016-07-20T01:21:36Z</time>
      </trkpt>
      <trkpt lat="45.55209" lon="6.29372">
        <ele>319</ele>
        <time>2016-07-20T01:23:36Z</time>
      </trkpt>
      <trkpt lat="45.55205" lon="6.29378">
        <ele>320</ele>
        <time>2016-07-20T01:25:36Z</time>
      </trkpt>
      <trkpt lat="45.552" lon="6.29384">
        <ele>320</ele>
        <time>2016-07-20T01:27:36Z</time>
      </trkpt>
      <trkpt lat="45.55191" lon="6.29397">
        <ele>321</ele>
        <time>2016-07-20T01:29:36Z</time>
      </trkpt>
      <trkpt lat="45.55183" lon="6.29406">
        <ele>322</ele>
        <time>2016-07-20T01:31:36Z</time>
      </trkpt>
      <trkpt lat="45.55176" lon="6.29414">
        <ele>323</ele>
        <time>2016-07-20T01:33:36Z</time>
      </trkpt>
      <trkpt lat="45.5515" lon="6.29443">
        <ele>321</ele>
        <time>2016-07-20T01:35:36Z</time>
      </trkpt>
      <trkpt lat="45.55139" lon="6.29452">
        <ele>321</ele>
        <time>2016-07-20T01:37:36Z</time>
      </trkpt>
      <trkpt lat="45.55126" lon="6.29462">
        <ele>321</ele>
        <time>2016-07-20T01:39:36Z</time>
      </trkpt>
      <trkpt lat="45.55111" lon="6.29473">
        <ele>321</ele>
        <time>2016-07-20T01:41:36Z</time>
      </trkpt>
      <trkpt lat="45.55094" lon="6.29485">
        <ele>322</ele>
        <time>2016-07-20T01:43:36Z</time>
      </trkpt>
      <trkpt lat="45.55077" lon="6.29495">
        <ele>323</ele>
        <time>2016-07-20T01:45:36Z</time>
      </trkpt>
      <trkpt lat="45.55059" lon="6.29504">
        <ele>322</ele>
        <time>2016-07-20T01:47:36Z</time>
      </trkpt>
      <trkpt lat="45.55042" lon="6.29512">
        <ele>321</ele>
        <time>2016-07-20T01:49:36Z</time>
      </trkpt>
      <trkpt lat="45.55023" lon="6.29518">
        <ele>320</ele>
        <time>2016-07-20T01:51:36Z</time>
      </trkpt>
      <trkpt lat="45.55005" lon="6.29525">
        <ele>320</ele>
        <time>2016-07-20T01:53:36Z</time>
      </trkpt>
      <trkpt lat="45.5487" lon="6.29578">
        <ele>325</ele>
        <time>2016-07-20T01:55:36Z</time>
      </trkpt>
      <trkpt lat="45.54864" lon="6.29581">
        <ele>325</ele>
        <time>2016-07-20T01:57:36Z</time>
      </trkpt>
      <trkpt lat="45.54858" lon="6.29583">
        <ele>326</ele>
        <time>2016-07-20T01:59:36Z</time>
      </trkpt>
      <trkpt lat="45.5472" lon="6.29638">
        <ele>321</ele>
        <time>2016-07-20T02:01:36Z</time>
      </trkpt>
      <trkpt lat="45.54703" lon="6.29646">
        <ele>321</ele>
        <time>2016-07-20T02:03:36Z</time>
      </trkpt>
      <trkpt lat="45.54688" lon="6.29653">
        <ele>321</ele>
        <time>2016-07-20T02:05:36Z</time>
      </trkpt>
      <trkpt lat="45.54674" lon="6.2966">
        <ele>321</ele>
        <time>2016-07-20T02:07:36Z</time>
      </trkpt>
      <trkpt lat="45.54661" lon="6.29667">
        <ele>321</ele>
        <time>2016-07-20T02:09:36Z</time>
      </trkpt>
      <trkpt lat="45.5465" lon="6.29674">
        <ele>320</ele>
        <time>2016-07-20T02:11:36Z</time>
      </trkpt>
      <trkpt lat="45.54644" lon="6.29678">
        <ele>320</ele>
        <time>2016-07-20T02:13:36Z</time>
      </trkpt>
      <trkpt lat="45.54634" lon="6.29685">
        <ele>320</ele>
        <time>2016-07-20T02:15:36Z</time>
      </trkpt>
      <trkpt lat="45.54623" lon="6.29694">
        <ele>320</ele>
        <time>2016-07-20T02:17:36Z</time>
      </trkpt>
      <trkpt lat="45.54612" lon="6.29702">
        <ele>320</ele>
        <time>2016-07-20T02:19:36Z</time>
      </trkpt>
      <trkpt lat="45.54604" lon="6.29707">
        <ele>319</ele>
        <time>2016-07-20T02:21:36Z</time>
      </trkpt>
      <trkpt lat="45.5458" lon="6.29726">
        <ele>320</ele>
        <time>2016-07-20T02:23:36Z</time>
      </trkpt>
      <trkpt lat="45.54556" lon="6.29749">
        <ele>319</ele>
        <time>2016-07-20T02:25:36Z</time>
      </trkpt>
      <trkpt lat="45.54548" lon="6.29758">
        <ele>319</ele>
        <time>2016-07-20T02:27:36Z</time>
      </trkpt>
      <trkpt lat="45.54542" lon="6.29764">
        <ele>319</ele>
        <time>2016-07-20T02:29:36Z</time>
      </trkpt>
      <trkpt lat="45.54534" lon="6.29774">
        <ele>319</ele>
        <time>2016-07-20T02:31:36Z</time>
      </trkpt>
      <trkpt lat="45.54527" lon="6.29782">
        <ele>319</ele>
        <time>2016-07-20T02:33:36Z</time>
      </trkpt>
      <trkpt lat="45.54516" lon="6.29797">
        <ele>319</ele>
        <time>2016-07-20T02:35:36Z</time>
      </trkpt>
      <trkpt lat="45.54509" lon="6.29807">
        <ele>319</ele>
        <time>2016-07-20T02:37:36Z</time>
      </trkpt>
      <trkpt lat="45.54499" lon="6.29821">
        <ele>319</ele>
        <time>2016-07-20T02:39:36Z</time>
      </trkpt>
      <trkpt lat="45.54487" lon="6.29841">
        <ele>319</ele>
        <time>2016-07-20T02:41:36Z</time>
      </trkpt>
      <trkpt lat="45.54476" lon="6.2986">
        <ele>320</ele>
        <time>2016-07-20T02:43:36Z</time>
      </trkpt>
      <trkpt lat="45.54444" lon="6.29922">
        <ele>320</ele>
        <time>2016-07-20T02:45:36Z</time>
      </trkpt>
      <trkpt lat="45.5444" lon="6.29939">
        <ele>320</ele>
        <time>2016-07-20T02:47:36Z</time>
      </trkpt>
      <trkpt lat="45.54406" lon="6.30023">
        <ele>320</ele>
        <time>2016-07-20T02:49:36Z</time>
      </trkpt>
      <trkpt lat="45.54401" lon="6.30036">
        <ele>321</ele>
        <time>2016-07-20T02:51:36Z</time>
      </trkpt>
      <trkpt lat="45.54396" lon="6.3005">
        <ele>321</ele>
        <time>2016-07-20T02:53:36Z</time>
      </trkpt>
      <trkpt lat="45.54377" lon="6.30098">
        <ele>321</ele>
        <time>2016-07-20T02:55:36Z</time>
      </trkpt>
      <trkpt lat="45.54361" lon="6.30138">
        <ele>321</ele>
        <time>2016-07-20T02:57:36Z</time>
      </trkpt>
      <trkpt lat="45.54353" lon="6.30158">
        <ele>321</ele>
        <time>2016-07-20T02:59:36Z</time>
      </trkpt>
      <trkpt lat="45.54342" lon="6.30186">
        <ele>321</ele>
        <time>2016-07-20T03:01:36Z</time>
      </trkpt>
      <trkpt lat="45.54333" lon="6.30207">
        <ele>321</ele>
        <time>2016-07-20T03:03:36Z</time>
      </trkpt>
      <trkpt lat="45.54308" lon="6.30263">
        <ele>322</ele>
        <time>2016-07-20T03:05:36Z</time>
      </trkpt>
      <trkpt lat="45.54253" lon="6.30387">
        <ele>323</ele>
        <time>2016-07-20T03:07:36Z</time>
      </trkpt>
      <trkpt lat="45.54227" lon="6.30451">
        <ele>323</ele>
        <time>2016-07-20T03:09:36Z</time>
      </trkpt>
      <trkpt lat="45.54214" lon="6.30482">
        <ele>323</ele>
        <time>2016-07-20T03:11:36Z</time>
      </trkpt>
      <trkpt lat="45.54203" lon="6.30505">
        <ele>324</ele>
        <time>2016-07-20T03:13:36Z</time>
      </trkpt>
      <trkpt lat="45.54198" lon="6.30516">
        <ele>324</ele>
        <time>2016-07-20T03:15:36Z</time>
      </trkpt>
      <trkpt lat="45.5419" lon="6.30531">
        <ele>325</ele>
        <time>2016-07-20T03:17:36Z</time>
      </trkpt>
      <trkpt lat="45.54173" lon="6.30566">
        <ele>326</ele>
        <time>2016-07-20T03:19:36Z</time>
      </trkpt>
      <trkpt lat="45.54167" lon="6.30579">
        <ele>326</ele>
        <time>2016-07-20T03:21:36Z</time>
      </trkpt>
      <trkpt lat="45.54163" lon="6.30586">
        <ele>326</ele>
        <time>2016-07-20T03:23:36Z</time>
      </trkpt>
      <trkpt lat="45.54149" lon="6.30613">
        <ele>326</ele>
        <time>2016-07-20T03:25:36Z</time>
      </trkpt>
      <trkpt lat="45.54143" lon="6.30624">
        <ele>326</ele>
        <time>2016-07-20T03:27:36Z</time>
      </trkpt>
      <trkpt lat="45.54138" lon="6.30636">
        <ele>326</ele>
        <time>2016-07-20T03:29:36Z</time>
      </trkpt>
      <trkpt lat="45.54133" lon="6.30648">
        <ele>326</ele>
        <time>2016-07-20T03:31:36Z</time>
      </trkpt>
      <trkpt lat="45.54131" lon="6.30656">
        <ele>326</ele>
        <time>2016-07-20T03:33:36Z</time>
      </trkpt>
      <trkpt lat="45.54127" lon="6.30669">
        <ele>326</ele>
        <time>2016-07-20T03:35:36Z</time>
      </trkpt>
      <trkpt lat="45.54124" lon="6.30686">
        <ele>326</ele>
        <time>2016-07-20T03:37:36Z</time>
      </trkpt>
      <trkpt lat="45.54124" lon="6.307">
        <ele>326</ele>
        <time>2016-07-20T03:39:36Z</time>
      </trkpt>
      <trkpt lat="45.54123" lon="6.30727">
        <ele>326</ele>
        <time>2016-07-20T03:41:36Z</time>
      </trkpt>
      <trkpt lat="45.54124" lon="6.30757">
        <ele>327</ele>
        <time>2016-07-20T03:43:36Z</time>
      </trkpt>
      <trkpt lat="45.54124" lon="6.30772">
        <ele>329</ele>
        <time>2016-07-20T03:45:36Z</time>
      </trkpt>
      <trkpt lat="45.54124" lon="6.30788">
        <ele>332</ele>
        <time>2016-07-20T03:47:36Z</time>
      </trkpt>
      <trkpt lat="45.54125" lon="6.30819">
        <ele>338</ele>
        <time>2016-07-20T03:49:36Z</time>
      </trkpt>
      <trkpt lat="45.54125" lon="6.30832">
        <ele>340</ele>
        <time>2016-07-20T03:51:36Z</time>
      </trkpt>
      <trkpt lat="45.54125" lon="6.30835">
        <ele>340</ele>
        <time>2016-07-20T03:53:36Z</time>
      </trkpt>
      <trkpt lat="45.54126" lon="6.30853">
        <ele>341</ele>
        <time>2016-07-20T03:55:36Z</time>
      </trkpt>
      <trkpt lat="45.54126" lon="6.30862">
        <ele>341</ele>
        <time>2016-07-20T03:57:36Z</time>
      </trkpt>
      <trkpt lat="45.54126" lon="6.30867">
        <ele>341</ele>
        <time>2016-07-20T03:59:36Z</time>
      </trkpt>
      <trkpt lat="45.54126" lon="6.3088">
        <ele>342</ele>
        <time>2016-07-20T04:01:36Z</time>
      </trkpt>
      <trkpt lat="45.54126" lon="6.30898">
        <ele>343</ele>
        <time>2016-07-20T04:03:36Z</time>
      </trkpt>
      <trkpt lat="45.54126" lon="6.30903">
        <ele>343</ele>
        <time>2016-07-20T04:05:36Z</time>
      </trkpt>
      <trkpt lat="45.54127" lon="6.30916">
        <ele>343</ele>
        <time>2016-07-20T04:07:36Z</time>
      </trkpt>
      <trkpt lat="45.54126" lon="6.30935">
        <ele>343</ele>
        <time>2016-07-20T04:09:36Z</time>
      </trkpt>
      <trkpt lat="45.54125" lon="6.3095">
        <ele>343</ele>
        <time>2016-07-20T04:11:36Z</time>
      </trkpt>
      <trkpt lat="45.54123" lon="6.3097">
        <ele>343</ele>
        <time>2016-07-20T04:13:36Z</time>
      </trkpt>
      <trkpt lat="45.5412" lon="6.30986">
        <ele>343</ele>
        <time>2016-07-20T04:15:36Z</time>
      </trkpt>
      <trkpt lat="45.54117" lon="6.31001">
        <ele>343</ele>
        <time>2016-07-20T04:17:36Z</time>
      </trkpt>
      <trkpt lat="45.54111" lon="6.3103">
        <ele>339</ele>
        <time>2016-07-20T04:19:36Z</time>
      </trkpt>
      <trkpt lat="45.54101" lon="6.31056">
        <ele>335</ele>
        <time>2016-07-20T04:21:36Z</time>
      </trkpt>
      <trkpt lat="45.54088" lon="6.31084">
        <ele>329</ele>
        <time>2016-07-20T04:23:36Z</time>
      </trkpt>
      <trkpt lat="45.54075" lon="6.31107">
        <ele>331</ele>
        <time>2016-07-20T04:25:36Z</time>
      </trkpt>
      <trkpt lat="45.5406" lon="6.31127">
        <ele>333</ele>
        <time>2016-07-20T04:27:36Z</time>
      </trkpt>
      <trkpt lat="45.54045" lon="6.31143">
        <ele>334</ele>
        <time>2016-07-20T04:29:36Z</time>
      </trkpt>
      <trkpt lat="45.54028" lon="6.31159">
        <ele>333</ele>
        <time>2016-07-20T04:31:36Z</time>
      </trkpt>
      <trkpt lat="45.54016" lon="6.3117">
        <ele>332</ele>
        <time>2016-07-20T04:33:36Z</time>
      </trkpt>
      <trkpt lat="45.54008" lon="6.31177">
        <ele>332</ele>
        <time>2016-07-20T04:35:36Z</time>
      </trkpt>
      <trkpt lat="45.53999" lon="6.31184">
        <ele>332</ele>
        <time>2016-07-20T04:37:36Z</time>
      </trkpt>
      <trkpt lat="45.53987" lon="6.31193">
        <ele>335</ele>
        <time>2016-07-20T04:39:36Z</time>
      </trkpt>
      <trkpt lat="45.5397" lon="6.31206">
        <ele>336</ele>
        <time>2016-07-20T04:41:36Z</time>
      </trkpt>
      <trkpt lat="45.53948" lon="6.3122">
        <ele>336</ele>
        <time>2016-07-20T04:43:36Z</time>
      </trkpt>
      <trkpt lat="45.5392" lon="6.31236">
        <ele>333</ele>
        <time>2016-07-20T04:45:36Z</time>
      </trkpt>
      <trkpt lat="45.53887" lon="6.31252">
        <ele>331</ele>
        <time>2016-07-20T04:47:36Z</time>
      </trkpt>
      <trkpt lat="45.53853" lon="6.31265">
        <ele>335</ele>
        <time>2016-07-20T04:49:36Z</time>
      </trkpt>
      <trkpt lat="45.53824" lon="6.31273">
        <ele>337</ele>
        <time>2016-07-20T04:51:36Z</time>
      </trkpt>
      <trkpt lat="45.53789" lon="6.31279">
        <ele>337</ele>
        <time>2016-07-20T04:53:36Z</time>
      </trkpt>
      <trkpt lat="45.53748" lon="6.31285">
        <ele>337</ele>
        <time>2016-07-20T04:55:36Z</time>
      </trkpt>
      <trkpt lat="45.53709" lon="6.31288">
        <ele>339</ele>
        <time>2016-07-20T04:57:36Z</time>
      </trkpt>
      <trkpt lat="45.53669" lon="6.31288">
        <ele>342</ele>
        <time>2016-07-20T04:59:36Z</time>
      </trkpt>
      <trkpt lat="45.53624" lon="6.31287">
        <ele>346</ele>
        <time>2016-07-20T05:01:36Z</time>
      </trkpt>
      <trkpt lat="45.53571" lon="6.31286">
        <ele>349</ele>
        <time>2016-07-20T05:03:36Z</time>
      </trkpt>
      <trkpt lat="45.53512" lon="6.31284">
        <ele>344</ele>
        <time>2016-07-20T05:05:36Z</time>
      </trkpt>
      <trkpt lat="45.53468" lon="6.31284">
        <ele>340</ele>
        <time>2016-07-20T05:07:36Z</time>
      </trkpt>
      <trkpt lat="45.53428" lon="6.31283">
        <ele>335</ele>
        <time>2016-07-20T05:09:36Z</time>
      </trkpt>
      <trkpt lat="45.53386" lon="6.31282">
        <ele>332</ele>
        <time>2016-07-20T05:11:36Z</time>
      </trkpt>
      <trkpt lat="45.53357" lon="6.3128">
        <ele>331</ele>
        <time>2016-07-20T05:13:36Z</time>
      </trkpt>
      <trkpt lat="45.53337" lon="6.31278">
        <ele>330</ele>
        <time>2016-07-20T05:15:36Z</time>
      </trkpt>
      <trkpt lat="45.53305" lon="6.31275">
        <ele>328</ele>
        <time>2016-07-20T05:17:36Z</time>
      </trkpt>
      <trkpt lat="45.5327" lon="6.3127">
        <ele>327</ele>
        <time>2016-07-20T05:19:36Z</time>
      </trkpt>
      <trkpt lat="45.53235" lon="6.31265">
        <ele>326</ele>
        <time>2016-07-20T05:21:36Z</time>
      </trkpt>
      <trkpt lat="45.5323" lon="6.31261">
        <ele>326</ele>
        <time>2016-07-20T05:23:36Z</time>
      </trkpt>
      <trkpt lat="45.53228" lon="6.31261">
        <ele>326</ele>
        <time>2016-07-20T05:25:36Z</time>
      </trkpt>
      <trkpt lat="45.53215" lon="6.31258">
        <ele>327</ele>
        <time>2016-07-20T05:27:36Z</time>
      </trkpt>
      <trkpt lat="45.53148" lon="6.31244">
        <ele>328</ele>
        <time>2016-07-20T05:29:36Z</time>
      </trkpt>
      <trkpt lat="45.53144" lon="6.31244">
        <ele>328</ele>
        <time>2016-07-20T05:31:36Z</time>
      </trkpt>
      <trkpt lat="45.5314" lon="6.31244">
        <ele>328</ele>
        <time>2016-07-20T05:33:36Z</time>
      </trkpt>
      <trkpt lat="45.53084" lon="6.31237">
        <ele>328</ele>
        <time>2016-07-20T05:35:36Z</time>
      </trkpt>
      <trkpt lat="45.53058" lon="6.31234">
        <ele>328</ele>
        <time>2016-07-20T05:37:36Z</time>
      </trkpt>
      <trkpt lat="45.53046" lon="6.31236">
        <ele>328</ele>
        <time>2016-07-20T05:39:36Z</time>
      </trkpt>
      <trkpt lat="45.52987" lon="6.31226">
        <ele>329</ele>
        <time>2016-07-20T05:41:36Z</time>
      </trkpt>
      <trkpt lat="45.52931" lon="6.31219">
        <ele>329</ele>
        <time>2016-07-20T05:43:36Z</time>
      </trkpt>
      <trkpt lat="45.52868" lon="6.31209">
        <ele>330</ele>
        <time>2016-07-20T05:45:36Z</time>
      </trkpt>
      <trkpt lat="45.528" lon="6.31198">
        <ele>330</ele>
        <time>2016-07-20T05:47:36Z</time>
      </trkpt>
      <trkpt lat="45.52741" lon="6.3119">
        <ele>329</ele>
        <time>2016-07-20T05:49:36Z</time>
      </trkpt>
      <trkpt lat="45.52665" lon="6.31179">
        <ele>331</ele>
        <time>2016-07-20T05:51:36Z</time>
      </trkpt>
      <trkpt lat="45.52648" lon="6.31176">
        <ele>331</ele>
        <time>2016-07-20T05:53:36Z</time>
      </trkpt>
      <trkpt lat="45.52604" lon="6.3117">
        <ele>331</ele>
        <time>2016-07-20T05:55:36Z</time>
      </trkpt>
      <trkpt lat="45.52549" lon="6.31161">
        <ele>330</ele>
        <time>2016-07-20T05:57:36Z</time>
      </trkpt>
      <trkpt lat="45.52498" lon="6.31153">
        <ele>329</ele>
        <time>2016-07-20T05:59:36Z</time>
      </trkpt>
      <trkpt lat="45.52471" lon="6.3115">
        <ele>329</ele>
        <time>2016-07-20T06:01:36Z</time>
      </trkpt>
      <trkpt lat="45.52448" lon="6.31148">
        <ele>330</ele>
        <time>2016-07-20T06:03:36Z</time>
      </trkpt>
      <trkpt lat="45.52432" lon="6.31148">
        <ele>331</ele>
        <time>2016-07-20T06:05:36Z</time>
      </trkpt>
      <trkpt lat="45.52425" lon="6.31148">
        <ele>331</ele>
        <time>2016-07-20T06:07:36Z</time>
      </trkpt>
      <trkpt lat="45.52416" lon="6.31148">
        <ele>331</ele>
        <time>2016-07-20T06:09:36Z</time>
      </trkpt>
      <trkpt lat="45.52401" lon="6.3115">
        <ele>331</ele>
        <time>2016-07-20T06:11:36Z</time>
      </trkpt>
      <trkpt lat="45.52388" lon="6.31153">
        <ele>332</ele>
        <time>2016-07-20T06:13:36Z</time>
      </trkpt>
      <trkpt lat="45.52377" lon="6.31154">
        <ele>332</ele>
        <time>2016-07-20T06:15:36Z</time>
      </trkpt>
      <trkpt lat="45.5236" lon="6.31157">
        <ele>333</ele>
        <time>2016-07-20T06:17:36Z</time>
      </trkpt>
      <trkpt lat="45.52341" lon="6.31161">
        <ele>334</ele>
        <time>2016-07-20T06:19:36Z</time>
      </trkpt>
      <trkpt lat="45.52315" lon="6.31166">
        <ele>334</ele>
        <time>2016-07-20T06:21:36Z</time>
      </trkpt>
      <trkpt lat="45.52233" lon="6.3118">
        <ele>334</ele>
        <time>2016-07-20T06:23:36Z</time>
      </trkpt>
      <trkpt lat="45.52187" lon="6.31191">
        <ele>333</ele>
        <time>2016-07-20T06:25:36Z</time>
      </trkpt>
      <trkpt lat="45.52144" lon="6.312">
        <ele>332</ele>
        <time>2016-07-20T06:27:36Z</time>
      </trkpt>
      <trkpt lat="45.52102" lon="6.31211">
        <ele>333</ele>
        <time>2016-07-20T06:29:36Z</time>
      </trkpt>
      <trkpt lat="45.52086" lon="6.31216">
        <ele>333</ele>
        <time>2016-07-20T06:31:36Z</time>
      </trkpt>
      <trkpt lat="45.52058" lon="6.31225">
        <ele>333</ele>
        <time>2016-07-20T06:33:36Z</time>
      </trkpt>
      <trkpt lat="45.52015" lon="6.31243">
        <ele>334</ele>
        <time>2016-07-20T06:35:36Z</time>
      </trkpt>
      <trkpt lat="45.51999" lon="6.3125">
        <ele>334</ele>
        <time>2016-07-20T06:37:36Z</time>
      </trkpt>
      <trkpt lat="45.51984" lon="6.31257">
        <ele>334</ele>
        <time>2016-07-20T06:39:36Z</time>
      </trkpt>
      <trkpt lat="45.51934" lon="6.31283">
        <ele>335</ele>
        <time>2016-07-20T06:41:36Z</time>
      </trkpt>
      <trkpt lat="45.51817" lon="6.31353">
        <ele>334</ele>
        <time>2016-07-20T06:43:36Z</time>
      </trkpt>
      <trkpt lat="45.51801" lon="6.31362">
        <ele>334</ele>
        <time>2016-07-20T06:45:36Z</time>
      </trkpt>
      <trkpt lat="45.51779" lon="6.31373">
        <ele>334</ele>
        <time>2016-07-20T06:47:36Z</time>
      </trkpt>
      <trkpt lat="45.51763" lon="6.3138">
        <ele>334</ele>
        <time>2016-07-20T06:49:36Z</time>
      </trkpt>
      <trkpt lat="45.51751" lon="6.31384">
        <ele>334</ele>
        <time>2016-07-20T06:51:36Z</time>
      </trkpt>
      <trkpt lat="45.5174" lon="6.31387">
        <ele>335</ele>
        <time>2016-07-20T06:53:36Z</time>
      </trkpt>
      <trkpt lat="45.51728" lon="6.3139">
        <ele>335</ele>
        <time>2016-07-20T06:55:36Z</time>
      </trkpt>
      <trkpt lat="45.51712" lon="6.31393">
        <ele>336</ele>
        <time>2016-07-20T06:57:36Z</time>
      </trkpt>
      <trkpt lat="45.51697" lon="6.31395">
        <ele>337</ele>
        <time>2016-07-20T06:59:36Z</time>
      </trkpt>
      <trkpt lat="45.51685" lon="6.31396">
        <ele>337</ele>
        <time>2016-07-20T07:01:36Z</time>
      </trkpt>
      <trkpt lat="45.51676" lon="6.31396">
        <ele>337</ele>
        <time>2016-07-20T07:03:36Z</time>
      </trkpt>
      <trkpt lat="45.51667" lon="6.31395">
        <ele>337</ele>
        <time>2016-07-20T07:05:36Z</time>
      </trkpt>
      <trkpt lat="45.51651" lon="6.31394">
        <ele>338</ele>
        <time>2016-07-20T07:07:36Z</time>
      </trkpt>
      <trkpt lat="45.51633" lon="6.31391">
        <ele>338</ele>
        <time>2016-07-20T07:09:36Z</time>
      </trkpt>
      <trkpt lat="45.51612" lon="6.31387">
        <ele>339</ele>
        <time>2016-07-20T07:11:36Z</time>
      </trkpt>
      <trkpt lat="45.51477" lon="6.31358">
        <ele>337</ele>
        <time>2016-07-20T07:13:36Z</time>
      </trkpt>
      <trkpt lat="45.51445" lon="6.31351">
        <ele>335</ele>
        <time>2016-07-20T07:15:36Z</time>
      </trkpt>
      <trkpt lat="45.51413" lon="6.31343">
        <ele>332</ele>
        <time>2016-07-20T07:17:36Z</time>
      </trkpt>
      <trkpt lat="45.51388" lon="6.31336">
        <ele>332</ele>
        <time>2016-07-20T07:19:36Z</time>
      </trkpt>
      <trkpt lat="45.51368" lon="6.31329">
        <ele>332</ele>
        <time>2016-07-20T07:21:36Z</time>
      </trkpt>
      <trkpt lat="45.51348" lon="6.3132">
        <ele>332</ele>
        <time>2016-07-20T07:23:36Z</time>
      </trkpt>
      <trkpt lat="45.51328" lon="6.3131">
        <ele>332</ele>
        <time>2016-07-20T07:25:36Z</time>
      </trkpt>
      <trkpt lat="45.51314" lon="6.31301">
        <ele>332</ele>
        <time>2016-07-20T07:27:36Z</time>
      </trkpt>
      <trkpt lat="45.51279" lon="6.31278">
        <ele>334</ele>
        <time>2016-07-20T07:29:36Z</time>
      </trkpt>
      <trkpt lat="45.51264" lon="6.31268">
        <ele>334</ele>
        <time>2016-07-20T07:31:36Z</time>
      </trkpt>
      <trkpt lat="45.5125" lon="6.31258">
        <ele>335</ele>
        <time>2016-07-20T07:33:36Z</time>
      </trkpt>
      <trkpt lat="45.51238" lon="6.31249">
        <ele>335</ele>
        <time>2016-07-20T07:35:36Z</time>
      </trkpt>
      <trkpt lat="45.51233" lon="6.31242">
        <ele>334</ele>
        <time>2016-07-20T07:37:36Z</time>
      </trkpt>
      <trkpt lat="45.51233" lon="6.31241">
        <ele>334</ele>
        <time>2016-07-20T07:39:36Z</time>
      </trkpt>
      <trkpt lat="45.51202" lon="6.31218">
        <ele>334</ele>
        <time>2016-07-20T07:41:36Z</time>
      </trkpt>
      <trkpt lat="45.51169" lon="6.31192">
        <ele>336</ele>
        <time>2016-07-20T07:43:36Z</time>
      </trkpt>
      <trkpt lat="45.51168" lon="6.31192">
        <ele>336</ele>
        <time>2016-07-20T07:45:36Z</time>
      </trkpt>
      <trkpt lat="45.51162" lon="6.31187">
        <ele>336</ele>
        <time>2016-07-20T07:47:36Z</time>
      </trkpt>
      <trkpt lat="45.51156" lon="6.31182">
        <ele>336</ele>
        <time>2016-07-20T07:49:36Z</time>
      </trkpt>
      <trkpt lat="45.51108" lon="6.31147">
        <ele>336</ele>
        <time>2016-07-20T07:51:36Z</time>
      </trkpt>
      <trkpt lat="45.51103" lon="6.31145">
        <ele>336</ele>
        <time>2016-07-20T07:53:36Z</time>
      </trkpt>
      <trkpt lat="45.51095" lon="6.31142">
        <ele>336</ele>
        <time>2016-07-20T07:55:36Z</time>
      </trkpt>
      <trkpt lat="45.50907" lon="6.31005">
        <ele>338</ele>
        <time>2016-07-20T07:57:36Z</time>
      </trkpt>
      <trkpt lat="45.50868" lon="6.30974">
        <ele>338</ele>
        <time>2016-07-20T07:59:36Z</time>
      </trkpt>
      <trkpt lat="45.50752" lon="6.30885">
        <ele>340</ele>
        <time>2016-07-20T08:01:36Z</time>
      </trkpt>
      <trkpt lat="45.50611" lon="6.30779">
        <ele>339</ele>
        <time>2016-07-20T08:03:36Z</time>
      </trkpt>
      <trkpt lat="45.50557" lon="6.30738">
        <ele>339</ele>
        <time>2016-07-20T08:05:36Z</time>
      </trkpt>
      <trkpt lat="45.50504" lon="6.30697">
        <ele>339</ele>
        <time>2016-07-20T08:07:36Z</time>
      </trkpt>
      <trkpt lat="45.50468" lon="6.3067">
        <ele>339</ele>
        <time>2016-07-20T08:09:36Z</time>
      </trkpt>
      <trkpt lat="45.50404" lon="6.30624">
        <ele>339</ele>
        <time>2016-07-20T08:11:36Z</time>
      </trkpt>
      <trkpt lat="45.50328" lon="6.30565">
        <ele>340</ele>
        <time>2016-07-20T08:13:36Z</time>
      </trkpt>
      <trkpt lat="45.50261" lon="6.30515">
        <ele>341</ele>
        <time>2016-07-20T08:15:36Z</time>
      </trkpt>
      <trkpt lat="45.50167" lon="6.30444">
        <ele>338</ele>
        <time>2016-07-20T08:17:36Z</time>
      </trkpt>
      <trkpt lat="45.50126" lon="6.30414">
        <ele>339</ele>
        <time>2016-07-20T08:19:36Z</time>
      </trkpt>
      <trkpt lat="45.50045" lon="6.30354">
        <ele>342</ele>
        <time>2016-07-20T08:21:36Z</time>
      </trkpt>
      <trkpt lat="45.49977" lon="6.30303">
        <ele>343</ele>
        <time>2016-07-20T08:23:36Z</time>
      </trkpt>
      <trkpt lat="45.49845" lon="6.30204">
        <ele>343</ele>
        <time>2016-07-20T08:25:36Z</time>
      </trkpt>
      <trkpt lat="45.49788" lon="6.30162">
        <ele>343</ele>
        <time>2016-07-20T08:27:36Z</time>
      </trkpt>
      <trkpt lat="45.49749" lon="6.30133">
        <ele>343</ele>
        <time>2016-07-20T08:29:36Z</time>
      </trkpt>
      <trkpt lat="45.49706" lon="6.301">
        <ele>343</ele>
        <time>2016-07-20T08:31:36Z</time>
      </trkpt>
      <trkpt lat="45.49677" lon="6.30078">
        <ele>344</ele>
        <time>2016-07-20T08:33:36Z</time>
      </trkpt>
      <trkpt lat="45.49639" lon="6.3005">
        <ele>345</ele>
        <time>2016-07-20T08:35:36Z</time>
      </trkpt>
      <trkpt lat="45.49602" lon="6.30025">
        <ele>345</ele>
        <time>2016-07-20T08:37:36Z</time>
      </trkpt>
      <trkpt lat="45.49571" lon="6.30004">
        <ele>346</ele>
        <time>2016-07-20T08:39:36Z</time>
      </trkpt>
      <trkpt lat="45.49558" lon="6.29996">
        <ele>346</ele>
        <time>2016-07-20T08:41:36Z</time>
      </trkpt>
      <trkpt lat="45.49541" lon="6.29986">
        <ele>345</ele>
        <time>2016-07-20T08:43:36Z</time>
      </trkpt>
      <trkpt lat="45.49523" lon="6.29976">
        <ele>345</ele>
        <time>2016-07-20T08:45:36Z</time>
      </trkpt>
      <trkpt lat="45.49467" lon="6.29945">
        <ele>345</ele>
        <time>2016-07-20T08:47:36Z</time>
      </trkpt>
      <trkpt lat="45.49426" lon="6.29925">
        <ele>347</ele>
        <time>2016-07-20T08:49:36Z</time>
      </trkpt>
      <trkpt lat="45.49365" lon="6.29892">
        <ele>347</ele>
        <time>2016-07-20T08:51:36Z</time>
      </trkpt>
      <trkpt lat="45.49271" lon="6.29843">
        <ele>347</ele>
        <time>2016-07-20T08:53:36Z</time>
      </trkpt>
      <trkpt lat="45.49184" lon="6.29797">
        <ele>348</ele>
        <time>2016-07-20T08:55:36Z</time>
      </trkpt>
      <trkpt lat="45.4909" lon="6.29748">
        <ele>349</ele>
        <time>2016-07-20T08:57:36Z</time>
      </trkpt>
      <trkpt lat="45.49006" lon="6.29703">
        <ele>348</ele>
        <time>2016-07-20T08:59:36Z</time>
      </trkpt>
      <trkpt lat="45.48902" lon="6.29648">
        <ele>348</ele>
        <time>2016-07-20T09:01:36Z</time>
      </trkpt>
      <trkpt lat="45.48826" lon="6.29609">
        <ele>348</ele>
        <time>2016-07-20T09:03:36Z</time>
      </trkpt>
      <trkpt lat="45.48723" lon="6.29554">
        <ele>348</ele>
        <time>2016-07-20T09:05:36Z</time>
      </trkpt>
      <trkpt lat="45.48655" lon="6.29519">
        <ele>349</ele>
        <time>2016-07-20T09:07:36Z</time>
      </trkpt>
      <trkpt lat="45.48554" lon="6.29466">
        <ele>349</ele>
        <time>2016-07-20T09:09:36Z</time>
      </trkpt>
      <trkpt lat="45.4855" lon="6.29464">
        <ele>349</ele>
        <time>2016-07-20T09:11:36Z</time>
      </trkpt>
      <trkpt lat="45.48464" lon="6.29418">
        <ele>349</ele>
        <time>2016-07-20T09:13:36Z</time>
      </trkpt>
      <trkpt lat="45.48393" lon="6.29381">
        <ele>350</ele>
        <time>2016-07-20T09:15:36Z</time>
      </trkpt>
      <trkpt lat="45.48329" lon="6.29348">
        <ele>349</ele>
        <time>2016-07-20T09:17:36Z</time>
      </trkpt>
      <trkpt lat="45.48292" lon="6.29328">
        <ele>349</ele>
        <time>2016-07-20T09:19:36Z</time>
      </trkpt>
      <trkpt lat="45.48265" lon="6.29314">
        <ele>349</ele>
        <time>2016-07-20T09:21:36Z</time>
      </trkpt>
      <trkpt lat="45.4822" lon="6.2929">
        <ele>350</ele>
        <time>2016-07-20T09:23:36Z</time>
      </trkpt>
      <trkpt lat="45.482" lon="6.29279">
        <ele>350</ele>
        <time>2016-07-20T09:25:36Z</time>
      </trkpt>
      <trkpt lat="45.48153" lon="6.29255">
        <ele>350</ele>
        <time>2016-07-20T09:27:36Z</time>
      </trkpt>
      <trkpt lat="45.4809" lon="6.29219">
        <ele>351</ele>
        <time>2016-07-20T09:29:36Z</time>
      </trkpt>
      <trkpt lat="45.48043" lon="6.29195">
        <ele>353</ele>
        <time>2016-07-20T09:31:36Z</time>
      </trkpt>
      <trkpt lat="45.47995" lon="6.29169">
        <ele>355</ele>
        <time>2016-07-20T09:33:36Z</time>
      </trkpt>
      <trkpt lat="45.47957" lon="6.2915">
        <ele>355</ele>
        <time>2016-07-20T09:35:36Z</time>
      </trkpt>
      <trkpt lat="45.47906" lon="6.29123">
        <ele>354</ele>
        <time>2016-07-20T09:37:36Z</time>
      </trkpt>
      <trkpt lat="45.47849" lon="6.29093">
        <ele>355</ele>
        <time>2016-07-20T09:39:36Z</time>
      </trkpt>
      <trkpt lat="45.47772" lon="6.29053">
        <ele>355</ele>
        <time>2016-07-20T09:41:36Z</time>
      </trkpt>
      <trkpt lat="45.47739" lon="6.29037">
        <ele>355</ele>
        <time>2016-07-20T09:43:36Z</time>
      </trkpt>
      <trkpt lat="45.47723" lon="6.29031">
        <ele>355</ele>
        <time>2016-07-20T09:45:36Z</time>
      </trkpt>
      <trkpt lat="45.47708" lon="6.29025">
        <ele>356</ele>
        <time>2016-07-20T09:47:36Z</time>
      </trkpt>
      <trkpt lat="45.47688" lon="6.29019">
        <ele>356</ele>
        <time>2016-07-20T09:49:36Z</time>
      </trkpt>
      <trkpt lat="45.47665" lon="6.29013">
        <ele>356</ele>
        <time>2016-07-20T09:51:36Z</time>
      </trkpt>
      <trkpt lat="45.47641" lon="6.29007">
        <ele>355</ele>
        <time>2016-07-20T09:53:36Z</time>
      </trkpt>
      <trkpt lat="45.47612" lon="6.29004">
        <ele>353</ele>
        <time>2016-07-20T09:55:36Z</time>
      </trkpt>
      <trkpt lat="45.47576" lon="6.29002">
        <ele>351</ele>
        <time>2016-07-20T09:57:36Z</time>
      </trkpt>
      <trkpt lat="45.47553" lon="6.29003">
        <ele>352</ele>
        <time>2016-07-20T09:59:36Z</time>
      </trkpt>
      <trkpt lat="45.47528" lon="6.29005">
        <ele>353</ele>
        <time>2016-07-20T10:01:36Z</time>
      </trkpt>
      <trkpt lat="45.47497" lon="6.29009">
        <ele>354</ele>
        <time>2016-07-20T10:03:36Z</time>
      </trkpt>
      <trkpt lat="45.47427" lon="6.29021">
        <ele>354</ele>
        <time>2016-07-20T10:05:36Z</time>
      </trkpt>
      <trkpt lat="45.47341" lon="6.29037">
        <ele>353</ele>
        <time>2016-07-20T10:07:36Z</time>
      </trkpt>
      <trkpt lat="45.4723" lon="6.29058">
        <ele>356</ele>
        <time>2016-07-20T10:09:36Z</time>
      </trkpt>
      <trkpt lat="45.47215" lon="6.29058">
        <ele>356</ele>
        <time>2016-07-20T10:11:36Z</time>
      </trkpt>
      <trkpt lat="45.47166" lon="6.29067">
        <ele>356</ele>
        <time>2016-07-20T10:13:36Z</time>
      </trkpt>
      <trkpt lat="45.47123" lon="6.29075">
        <ele>356</ele>
        <time>2016-07-20T10:15:36Z</time>
      </trkpt>
      <trkpt lat="45.47087" lon="6.2908">
        <ele>357</ele>
        <time>2016-07-20T10:17:36Z</time>
      </trkpt>
      <trkpt lat="45.47036" lon="6.29091">
        <ele>358</ele>
        <time>2016-07-20T10:19:36Z</time>
      </trkpt>
      <trkpt lat="45.47003" lon="6.29097">
        <ele>359</ele>
        <time>2016-07-20T10:21:36Z</time>
      </trkpt>
      <trkpt lat="45.46991" lon="6.29098">
        <ele>359</ele>
        <time>2016-07-20T10:23:36Z</time>
      </trkpt>
      <trkpt lat="45.46981" lon="6.291">
        <ele>359</ele>
        <time>2016-07-20T10:25:36Z</time>
      </trkpt>
      <trkpt lat="45.46968" lon="6.29102">
        <ele>359</ele>
        <time>2016-07-20T10:27:36Z</time>
      </trkpt>
      <trkpt lat="45.46956" lon="6.29108">
        <ele>360</ele>
        <time>2016-07-20T10:29:36Z</time>
      </trkpt>
      <trkpt lat="45.46885" lon="6.2912">
        <ele>361</ele>
        <time>2016-07-20T10:31:36Z</time>
      </trkpt>
      <trkpt lat="45.46844" lon="6.29127">
        <ele>361</ele>
        <time>2016-07-20T10:33:36Z</time>
      </trkpt>
      <trkpt lat="45.46819" lon="6.29131">
        <ele>362</ele>
        <time>2016-07-20T10:35:36Z</time>
      </trkpt>
      <trkpt lat="45.4677" lon="6.2914">
        <ele>366</ele>
        <time>2016-07-20T10:37:36Z</time>
      </trkpt>
      <trkpt lat="45.4673" lon="6.29146">
        <ele>370</ele>
        <time>2016-07-20T10:39:36Z</time>
      </trkpt>
      <trkpt lat="45.46694" lon="6.29153">
        <ele>374</ele>
        <time>2016-07-20T10:41:36Z</time>
      </trkpt>
      <trkpt lat="45.46634" lon="6.29163">
        <ele>374</ele>
        <time>2016-07-20T10:43:36Z</time>
      </trkpt>
      <trkpt lat="45.46595" lon="6.29169">
        <ele>369</ele>
        <time>2016-07-20T10:45:36Z</time>
      </trkpt>
      <trkpt lat="45.46542" lon="6.29179">
        <ele>367</ele>
        <time>2016-07-20T10:47:36Z</time>
      </trkpt>
      <trkpt lat="45.46511" lon="6.29185">
        <ele>364</ele>
        <time>2016-07-20T10:49:36Z</time>
      </trkpt>
      <trkpt lat="45.46443" lon="6.29196">
        <ele>364</ele>
        <time>2016-07-20T10:51:36Z</time>
      </trkpt>
      <trkpt lat="45.46396" lon="6.29205">
        <ele>364</ele>
        <time>2016-07-20T10:53:36Z</time>
      </trkpt>
      <trkpt lat="45.46294" lon="6.29222">
        <ele>363</ele>
        <time>2016-07-20T10:55:36Z</time>
      </trkpt>
      <trkpt lat="45.46201" lon="6.29238">
        <ele>364</ele>
        <time>2016-07-20T10:57:36Z</time>
      </trkpt>
      <trkpt lat="45.46169" lon="6.29244">
        <ele>364</ele>
        <time>2016-07-20T10:59:36Z</time>
      </trkpt>
      <trkpt lat="45.4615" lon="6.29247">
        <ele>364</ele>
        <time>2016-07-20T11:01:36Z</time>
      </trkpt>
      <trkpt lat="45.4613" lon="6.29252">
        <ele>364</ele>
        <time>2016-07-20T11:03:36Z</time>
      </trkpt>
      <trkpt lat="45.46121" lon="6.29255">
        <ele>365</ele>
        <time>2016-07-20T11:05:36Z</time>
      </trkpt>
      <trkpt lat="45.46114" lon="6.29257">
        <ele>365</ele>
        <time>2016-07-20T11:07:36Z</time>
      </trkpt>
      <trkpt lat="45.46093" lon="6.29263">
        <ele>365</ele>
        <time>2016-07-20T11:09:36Z</time>
      </trkpt>
      <trkpt lat="45.46069" lon="6.29271">
        <ele>365</ele>
        <time>2016-07-20T11:11:36Z</time>
      </trkpt>
      <trkpt lat="45.46049" lon="6.29277">
        <ele>364</ele>
        <time>2016-07-20T11:13:36Z</time>
      </trkpt>
      <trkpt lat="45.46027" lon="6.29282">
        <ele>364</ele>
        <time>2016-07-20T11:15:36Z</time>
      </trkpt>
      <trkpt lat="45.46011" lon="6.29285">
        <ele>363</ele>
        <time>2016-07-20T11:17:36Z</time>
      </trkpt>
      <trkpt lat="45.45988" lon="6.29287">
        <ele>363</ele>
        <time>2016-07-20T11:19:36Z</time>
      </trkpt>
      <trkpt lat="45.45968" lon="6.29288">
        <ele>364</ele>
        <time>2016-07-20T11:21:36Z</time>
      </trkpt>
      <trkpt lat="45.45946" lon="6.29287">
        <ele>365</ele>
        <time>2016-07-20T11:23:36Z</time>
      </trkpt>
      <trkpt lat="45.45927" lon="6.29286">
        <ele>365</ele>
        <time>2016-07-20T11:25:36Z</time>
      </trkpt>
      <trkpt lat="45.45894" lon="6.2928">
        <ele>366</ele>
        <time>2016-07-20T11:27:36Z</time>
      </trkpt>
      <trkpt lat="45.4588" lon="6.29277">
        <ele>366</ele>
        <time>2016-07-20T11:29:36Z</time>
      </trkpt>
      <trkpt lat="45.45866" lon="6.29273">
        <ele>366</ele>
        <time>2016-07-20T11:31:36Z</time>
      </trkpt>
      <trkpt lat="45.45844" lon="6.29267">
        <ele>366</ele>
        <time>2016-07-20T11:33:36Z</time>
      </trkpt>
      <trkpt lat="45.45825" lon="6.29261">
        <ele>366</ele>
        <time>2016-07-20T11:35:36Z</time>
      </trkpt>
      <trkpt lat="45.45769" lon="6.29244">
        <ele>365</ele>
        <time>2016-07-20T11:37:36Z</time>
      </trkpt>
      <trkpt lat="45.45761" lon="6.29241">
        <ele>365</ele>
        <time>2016-07-20T11:39:36Z</time>
      </trkpt>
      <trkpt lat="45.45733" lon="6.29231">
        <ele>365</ele>
        <time>2016-07-20T11:41:36Z</time>
      </trkpt>
      <trkpt lat="45.45688" lon="6.29213">
        <ele>365</ele>
        <time>2016-07-20T11:43:36Z</time>
      </trkpt>
      <trkpt lat="45.45646" lon="6.29197">
        <ele>365</ele>
        <time>2016-07-20T11:45:36Z</time>
      </trkpt>
      <trkpt lat="45.45641" lon="6.29195">
        <ele>365</ele>
        <time>2016-07-20T11:47:36Z</time>
      </trkpt>
      <trkpt lat="45.45608" lon="6.29183">
        <ele>366</ele>
        <time>2016-07-20T11:49:36Z</time>
      </trkpt>
      <trkpt lat="45.45571" lon="6.29168">
        <ele>367</ele>
        <time>2016-07-20T11:51:36Z</time>
      </trkpt>
      <trkpt lat="45.45533" lon="6.29153">
        <ele>365</ele>
        <time>2016-07-20T11:53:36Z</time>
      </trkpt>
      <trkpt lat="45.4549" lon="6.29135">
        <ele>364</ele>
        <time>2016-07-20T11:55:36Z</time>
      </trkpt>
      <trkpt lat="45.4544" lon="6.29116">
        <ele>365</ele>
        <time>2016-07-20T11:57:36Z</time>
      </trkpt>
      <trkpt lat="45.45401" lon="6.291">
        <ele>366</ele>
        <time>2016-07-20T11:59:36Z</time>
      </trkpt>
      <trkpt lat="45.45362" lon="6.29085">
        <ele>366</ele>
        <time>2016-07-20T12:01:36Z</time>
      </trkpt>
      <trkpt lat="45.45314" lon="6.29066">
        <ele>367</ele>
        <time>2016-07-20T12:03:36Z</time>
      </trkpt>
      <trkpt lat="45.45271" lon="6.29049">
        <ele>368</ele>
        <time>2016-07-20T12:05:36Z</time>
      </trkpt>
      <trkpt lat="45.45222" lon="6.29029">
        <ele>369</ele>
        <time>2016-07-20T12:07:36Z</time>
      </trkpt>
      <trkpt lat="45.45176" lon="6.29011">
        <ele>368</ele>
        <time>2016-07-20T12:09:36Z</time>
      </trkpt>
      <trkpt lat="45.45118" lon="6.28987">
        <ele>366</ele>
        <time>2016-07-20T12:11:36Z</time>
      </trkpt>
      <trkpt lat="45.45063" lon="6.28966">
        <ele>365</ele>
        <time>2016-07-20T12:13:36Z</time>
      </trkpt>
      <trkpt lat="45.45019" lon="6.28948">
        <ele>366</ele>
        <time>2016-07-20T12:15:36Z</time>
      </trkpt>
      <trkpt lat="45.44967" lon="6.28928">
        <ele>367</ele>
        <time>2016-07-20T12:17:36Z</time>
      </trkpt>
      <trkpt lat="45.4492" lon="6.28909">
        <ele>368</ele>
        <time>2016-07-20T12:19:36Z</time>
      </trkpt>
      <trkpt lat="45.44871" lon="6.2889">
        <ele>368</ele>
        <time>2016-07-20T12:21:36Z</time>
      </trkpt>
      <trkpt lat="45.4484" lon="6.28878">
        <ele>368</ele>
        <time>2016-07-20T12:23:36Z</time>
      </trkpt>
      <trkpt lat="45.44812" lon="6.28866">
        <ele>368</ele>
        <time>2016-07-20T12:25:36Z</time>
      </trkpt>
      <trkpt lat="45.44748" lon="6.28841">
        <ele>370</ele>
        <time>2016-07-20T12:27:36Z</time>
      </trkpt>
      <trkpt lat="45.44716" lon="6.28828">
        <ele>370</ele>
        <time>2016-07-20T12:29:36Z</time>
      </trkpt>
      <trkpt lat="45.44687" lon="6.28817">
        <ele>369</ele>
        <time>2016-07-20T12:31:36Z</time>
      </trkpt>
      <trkpt lat="45.44652" lon="6.28803">
        <ele>370</ele>
        <time>2016-07-20T12:33:36Z</time>
      </trkpt>
      <trkpt lat="45.44603" lon="6.28783">
        <ele>370</ele>
        <time>2016-07-20T12:35:36Z</time>
      </trkpt>
      <trkpt lat="45.44562" lon="6.28767">
        <ele>370</ele>
        <time>2016-07-20T12:37:36Z</time>
      </trkpt>
      <trkpt lat="45.44517" lon="6.28749">
        <ele>371</ele>
        <time>2016-07-20T12:39:36Z</time>
      </trkpt>
      <trkpt lat="45.44477" lon="6.28733">
        <ele>371</ele>
        <time>2016-07-20T12:41:36Z</time>
      </trkpt>
      <trkpt lat="45.44455" lon="6.28723">
        <ele>372</ele>
        <time>2016-07-20T12:43:36Z</time>
      </trkpt>
      <trkpt lat="45.44382" lon="6.28695">
        <ele>372</ele>
        <time>2016-07-20T12:45:36Z</time>
      </trkpt>
      <trkpt lat="45.4432" lon="6.28671">
        <ele>371</ele>
        <time>2016-07-20T12:47:36Z</time>
      </trkpt>
      <trkpt lat="45.44283" lon="6.28656">
        <ele>372</ele>
        <time>2016-07-20T12:49:36Z</time>
      </trkpt>
      <trkpt lat="45.44244" lon="6.2864">
        <ele>372</ele>
        <time>2016-07-20T12:51:36Z</time>
      </trkpt>
      <trkpt lat="45.44143" lon="6.286">
        <ele>374</ele>
        <time>2016-07-20T12:53:36Z</time>
      </trkpt>
      <trkpt lat="45.44133" lon="6.28594">
        <ele>374</ele>
        <time>2016-07-20T12:55:36Z</time>
      </trkpt>
      <trkpt lat="45.44011" lon="6.28546">
        <ele>374</ele>
        <time>2016-07-20T12:57:36Z</time>
      </trkpt>
      <trkpt lat="45.4395" lon="6.28522">
        <ele>375</ele>
        <time>2016-07-20T12:59:36Z</time>
      </trkpt>
      <trkpt lat="45.43944" lon="6.2852">
        <ele>375</ele>
        <time>2016-07-20T13:01:36Z</time>
      </trkpt>
      <trkpt lat="45.43892" lon="6.28498">
        <ele>376</ele>
        <time>2016-07-20T13:03:36Z</time>
      </trkpt>
      <trkpt lat="45.43865" lon="6.28487">
        <ele>376</ele>
        <time>2016-07-20T13:05:36Z</time>
      </trkpt>
      <trkpt lat="45.43844" lon="6.28479">
        <ele>377</ele>
        <time>2016-07-20T13:07:36Z</time>
      </trkpt>
      <trkpt lat="45.43808" lon="6.28465">
        <ele>377</ele>
        <time>2016-07-20T13:09:36Z</time>
      </trkpt>
      <trkpt lat="45.43796" lon="6.28461">
        <ele>377</ele>
        <time>2016-07-20T13:11:36Z</time>
      </trkpt>
      <trkpt lat="45.43785" lon="6.28459">
        <ele>377</ele>
        <time>2016-07-20T13:13:36Z</time>
      </trkpt>
      <trkpt lat="45.43765" lon="6.28451">
        <ele>377</ele>
        <time>2016-07-20T13:15:36Z</time>
      </trkpt>
      <trkpt lat="45.43734" lon="6.28439">
        <ele>378</ele>
        <time>2016-07-20T13:17:36Z</time>
      </trkpt>
      <trkpt lat="45.43721" lon="6.28433">
        <ele>378</ele>
        <time>2016-07-20T13:19:36Z</time>
      </trkpt>
      <trkpt lat="45.43709" lon="6.28428">
        <ele>378</ele>
        <time>2016-07-20T13:21:36Z</time>
      </trkpt>
      <trkpt lat="45.43695" lon="6.28421">
        <ele>378</ele>
        <time>2016-07-20T13:23:36Z</time>
      </trkpt>
      <trkpt lat="45.43683" lon="6.28415">
        <ele>378</ele>
        <time>2016-07-20T13:25:36Z</time>
      </trkpt>
      <trkpt lat="45.43669" lon="6.28406">
        <ele>378</ele>
        <time>2016-07-20T13:27:36Z</time>
      </trkpt>
      <trkpt lat="45.43657" lon="6.28398">
        <ele>378</ele>
        <time>2016-07-20T13:29:36Z</time>
      </trkpt>
      <trkpt lat="45.43642" lon="6.28388">
        <ele>379</ele>
        <time>2016-07-20T13:31:36Z</time>
      </trkpt>
      <trkpt lat="45.43625" lon="6.28374">
        <ele>381</ele>
        <time>2016-07-20T13:33:36Z</time>
      </trkpt>
      <trkpt lat="45.43606" lon="6.28357">
        <ele>382</ele>
        <time>2016-07-20T13:35:36Z</time>
      </trkpt>
      <trkpt lat="45.4359" lon="6.2834">
        <ele>384</ele>
        <time>2016-07-20T13:37:36Z</time>
      </trkpt>
      <trkpt lat="45.43569" lon="6.28315">
        <ele>384</ele>
        <time>2016-07-20T13:39:36Z</time>
      </trkpt>
      <trkpt lat="45.4355" lon="6.2829">
        <ele>382</ele>
        <time>2016-07-20T13:41:36Z</time>
      </trkpt>
      <trkpt lat="45.43526" lon="6.28255">
        <ele>379</ele>
        <time>2016-07-20T13:43:36Z</time>
      </trkpt>
      <trkpt lat="45.43508" lon="6.28231">
        <ele>378</ele>
        <time>2016-07-20T13:45:36Z</time>
      </trkpt>
      <trkpt lat="45.43487" lon="6.28197">
        <ele>379</ele>
        <time>2016-07-20T13:47:36Z</time>
      </trkpt>
      <trkpt lat="45.43475" lon="6.28176">
        <ele>380</ele>
        <time>2016-07-20T13:49:36Z</time>
      </trkpt>
      <trkpt lat="45.43458" lon="6.28148">
        <ele>381</ele>
        <time>2016-07-20T13:51:36Z</time>
      </trkpt>
      <trkpt lat="45.4344" lon="6.28115">
        <ele>380</ele>
        <time>2016-07-20T13:53:36Z</time>
      </trkpt>
      <trkpt lat="45.43434" lon="6.28106">
        <ele>380</ele>
        <time>2016-07-20T13:55:36Z</time>
      </trkpt>
      <trkpt lat="45.43429" lon="6.28098">
        <ele>379</ele>
        <time>2016-07-20T13:57:36Z</time>
      </trkpt>
      <trkpt lat="45.43409" lon="6.28066">
        <ele>379</ele>
        <time>2016-07-20T13:59:36Z</time>
      </trkpt>
      <trkpt lat="45.43396" lon="6.28047">
        <ele>380</ele>
        <time>2016-07-20T14:01:36Z</time>
      </trkpt>
      <trkpt lat="45.4338" lon="6.28027">
        <ele>380</ele>
        <time>2016-07-20T14:03:36Z</time>
      </trkpt>
      <trkpt lat="45.43367" lon="6.28012">
        <ele>381</ele>
        <time>2016-07-20T14:05:36Z</time>
      </trkpt>
      <trkpt lat="45.43353" lon="6.28">
        <ele>381</ele>
        <time>2016-07-20T14:07:36Z</time>
      </trkpt>
      <trkpt lat="45.43339" lon="6.27988">
        <ele>382</ele>
        <time>2016-07-20T14:09:36Z</time>
      </trkpt>
      <trkpt lat="45.43327" lon="6.2798">
        <ele>382</ele>
        <time>2016-07-20T14:11:36Z</time>
      </trkpt>
      <trkpt lat="45.43315" lon="6.27971">
        <ele>382</ele>
        <time>2016-07-20T14:13:36Z</time>
      </trkpt>
      <trkpt lat="45.43295" lon="6.2796">
        <ele>382</ele>
        <time>2016-07-20T14:15:36Z</time>
      </trkpt>
      <trkpt lat="45.43278" lon="6.27952">
        <ele>382</ele>
        <time>2016-07-20T14:17:36Z</time>
      </trkpt>
      <trkpt lat="45.43263" lon="6.27946">
        <ele>382</ele>
        <time>2016-07-20T14:19:36Z</time>
      </trkpt>
      <trkpt lat="45.43251" lon="6.27942">
        <ele>381</ele>
        <time>2016-07-20T14:21:36Z</time>
      </trkpt>
      <trkpt lat="45.4324" lon="6.27939">
        <ele>381</ele>
        <time>2016-07-20T14:23:36Z</time>
      </trkpt>
      <trkpt lat="45.43216" lon="6.27935">
        <ele>383</ele>
        <time>2016-07-20T14:25:36Z</time>
      </trkpt>
      <trkpt lat="45.43199" lon="6.27934">
        <ele>383</ele>
        <time>2016-07-20T14:27:36Z</time>
      </trkpt>
      <trkpt lat="45.43174" lon="6.27935">
        <ele>385</ele>
        <time>2016-07-20T14:29:36Z</time>
      </trkpt>
      <trkpt lat="45.43151" lon="6.27936">
        <ele>386</ele>
        <time>2016-07-20T14:31:36Z</time>
      </trkpt>
      <trkpt lat="45.43136" lon="6.27937">
        <ele>387</ele>
        <time>2016-07-20T14:33:36Z</time>
      </trkpt>
      <trkpt lat="45.43126" lon="6.27939">
        <ele>387</ele>
        <time>2016-07-20T14:35:36Z</time>
      </trkpt>
      <trkpt lat="45.43095" lon="6.27943">
        <ele>389</ele>
        <time>2016-07-20T14:37:36Z</time>
      </trkpt>
      <trkpt lat="45.43068" lon="6.27947">
        <ele>391</ele>
        <time>2016-07-20T14:39:36Z</time>
      </trkpt>
      <trkpt lat="45.43048" lon="6.27948">
        <ele>392</ele>
        <time>2016-07-20T14:41:36Z</time>
      </trkpt>
      <trkpt lat="45.43025" lon="6.27948">
        <ele>393</ele>
        <time>2016-07-20T14:43:36Z</time>
      </trkpt>
      <trkpt lat="45.43007" lon="6.27946">
        <ele>394</ele>
        <time>2016-07-20T14:45:36Z</time>
      </trkpt>
      <trkpt lat="45.4299" lon="6.27944">
        <ele>394</ele>
        <time>2016-07-20T14:47:36Z</time>
      </trkpt>
      <trkpt lat="45.42971" lon="6.2794">
        <ele>395</ele>
        <time>2016-07-20T14:49:36Z</time>
      </trkpt>
      <trkpt lat="45.42951" lon="6.27933">
        <ele>395</ele>
        <time>2016-07-20T14:51:36Z</time>
      </trkpt>
      <trkpt lat="45.42931" lon="6.27926">
        <ele>395</ele>
        <time>2016-07-20T14:53:36Z</time>
      </trkpt>
      <trkpt lat="45.42907" lon="6.27915">
        <ele>394</ele>
        <time>2016-07-20T14:55:36Z</time>
      </trkpt>
      <trkpt lat="45.42883" lon="6.27903">
        <ele>392</ele>
        <time>2016-07-20T14:57:36Z</time>
      </trkpt>
      <trkpt lat="45.42859" lon="6.27889">
        <ele>391</ele>
        <time>2016-07-20T14:59:36Z</time>
      </trkpt>
      <trkpt lat="45.42838" lon="6.27876">
        <ele>390</ele>
        <time>2016-07-20T15:01:36Z</time>
      </trkpt>
      <trkpt lat="45.42816" lon="6.27858">
        <ele>390</ele>
        <time>2016-07-20T15:03:36Z</time>
      </trkpt>
      <trkpt lat="45.42793" lon="6.27839">
        <ele>390</ele>
        <time>2016-07-20T15:05:36Z</time>
      </trkpt>
      <trkpt lat="45.42774" lon="6.27823">
        <ele>391</ele>
        <time>2016-07-20T15:07:36Z</time>
      </trkpt>
      <trkpt lat="45.42757" lon="6.27806">
        <ele>391</ele>
        <time>2016-07-20T15:09:36Z</time>
      </trkpt>
      <trkpt lat="45.42742" lon="6.27788">
        <ele>393</ele>
        <time>2016-07-20T15:11:36Z</time>
      </trkpt>
      <trkpt lat="45.42725" lon="6.27766">
        <ele>395</ele>
        <time>2016-07-20T15:13:36Z</time>
      </trkpt>
      <trkpt lat="45.42711" lon="6.27744">
        <ele>396</ele>
        <time>2016-07-20T15:15:36Z</time>
      </trkpt>
      <trkpt lat="45.4269" lon="6.27709">
        <ele>397</ele>
        <time>2016-07-20T15:17:36Z</time>
      </trkpt>
      <trkpt lat="45.42655" lon="6.27642">
        <ele>398</ele>
        <time>2016-07-20T15:19:36Z</time>
      </trkpt>
      <trkpt lat="45.42609" lon="6.2755">
        <ele>398</ele>
        <time>2016-07-20T15:21:36Z</time>
      </trkpt>
      <trkpt lat="45.42585" lon="6.27506">
        <ele>397</ele>
        <time>2016-07-20T15:23:36Z</time>
      </trkpt>
      <trkpt lat="45.42574" lon="6.27484">
        <ele>399</ele>
        <time>2016-07-20T15:25:36Z</time>
      </trkpt>
      <trkpt lat="45.42562" lon="6.2746">
        <ele>399</ele>
        <time>2016-07-20T15:27:36Z</time>
      </trkpt>
      <trkpt lat="45.4255" lon="6.2744">
        <ele>400</ele>
        <time>2016-07-20T15:29:36Z</time>
      </trkpt>
      <trkpt lat="45.42528" lon="6.27405">
        <ele>399</ele>
        <time>2016-07-20T15:31:36Z</time>
      </trkpt>
      <trkpt lat="45.42505" lon="6.27372">
        <ele>397</ele>
        <time>2016-07-20T15:33:36Z</time>
      </trkpt>
      <trkpt lat="45.42484" lon="6.27348">
        <ele>396</ele>
        <time>2016-07-20T15:35:36Z</time>
      </trkpt>
      <trkpt lat="45.42456" lon="6.2732">
        <ele>397</ele>
        <time>2016-07-20T15:37:36Z</time>
      </trkpt>
      <trkpt lat="45.42424" lon="6.27295">
        <ele>397</ele>
        <time>2016-07-20T15:39:36Z</time>
      </trkpt>
      <trkpt lat="45.42393" lon="6.27276">
        <ele>397</ele>
        <time>2016-07-20T15:41:36Z</time>
      </trkpt>
      <trkpt lat="45.42364" lon="6.27262">
        <ele>397</ele>
        <time>2016-07-20T15:43:36Z</time>
      </trkpt>
      <trkpt lat="45.42338" lon="6.27253">
        <ele>398</ele>
        <time>2016-07-20T15:45:36Z</time>
      </trkpt>
      <trkpt lat="45.42315" lon="6.27247">
        <ele>398</ele>
        <time>2016-07-20T15:47:36Z</time>
      </trkpt>
      <trkpt lat="45.42291" lon="6.27244">
        <ele>398</ele>
        <time>2016-07-20T15:49:36Z</time>
      </trkpt>
      <trkpt lat="45.4227" lon="6.27242">
        <ele>399</ele>
        <time>2016-07-20T15:51:36Z</time>
      </trkpt>
      <trkpt lat="45.4225" lon="6.27242">
        <ele>399</ele>
        <time>2016-07-20T15:53:36Z</time>
      </trkpt>
      <trkpt lat="45.42228" lon="6.27244">
        <ele>399</ele>
        <time>2016-07-20T15:55:36Z</time>
      </trkpt>
      <trkpt lat="45.42207" lon="6.27247">
        <ele>399</ele>
        <time>2016-07-20T15:57:36Z</time>
      </trkpt>
      <trkpt lat="45.42186" lon="6.27252">
        <ele>399</ele>
        <time>2016-07-20T15:59:36Z</time>
      </trkpt>
      <trkpt lat="45.42167" lon="6.27259">
        <ele>400</ele>
        <time>2016-07-20T16:01:36Z</time>
      </trkpt>
      <trkpt lat="45.42143" lon="6.27269">
        <ele>401</ele>
        <time>2016-07-20T16:03:36Z</time>
      </trkpt>
      <trkpt lat="45.42127" lon="6.27277">
        <ele>401</ele>
        <time>2016-07-20T16:05:36Z</time>
      </trkpt>
      <trkpt lat="45.42115" lon="6.27285">
        <ele>401</ele>
        <time>2016-07-20T16:07:36Z</time>
      </trkpt>
      <trkpt lat="45.42097" lon="6.27296">
        <ele>402</ele>
        <time>2016-07-20T16:09:36Z</time>
      </trkpt>
      <trkpt lat="45.42082" lon="6.27307">
        <ele>403</ele>
        <time>2016-07-20T16:11:36Z</time>
      </trkpt>
      <trkpt lat="45.42045" lon="6.27333">
        <ele>403</ele>
        <time>2016-07-20T16:13:36Z</time>
      </trkpt>
      <trkpt lat="45.4202" lon="6.27351">
        <ele>406</ele>
        <time>2016-07-20T16:15:36Z</time>
      </trkpt>
      <trkpt lat="45.42004" lon="6.27361">
        <ele>407</ele>
        <time>2016-07-20T16:17:36Z</time>
      </trkpt>
      <trkpt lat="45.4199" lon="6.27368">
        <ele>408</ele>
        <time>2016-07-20T16:19:36Z</time>
      </trkpt>
      <trkpt lat="45.41975" lon="6.27375">
        <ele>409</ele>
        <time>2016-07-20T16:21:36Z</time>
      </trkpt>
      <trkpt lat="45.41959" lon="6.2738">
        <ele>409</ele>
        <time>2016-07-20T16:23:36Z</time>
      </trkpt>
      <trkpt lat="45.41938" lon="6.27385">
        <ele>409</ele>
        <time>2016-07-20T16:25:36Z</time>
      </trkpt>
      <trkpt lat="45.41911" lon="6.27392">
        <ele>410</ele>
        <time>2016-07-20T16:27:36Z</time>
      </trkpt>
      <trkpt lat="45.41832" lon="6.27411">
        <ele>412</ele>
        <time>2016-07-20T16:29:36Z</time>
      </trkpt>
      <trkpt lat="45.41798" lon="6.27418">
        <ele>411</ele>
        <time>2016-07-20T16:31:36Z</time>
      </trkpt>
      <trkpt lat="45.41769" lon="6.27422">
        <ele>410</ele>
        <time>2016-07-20T16:33:36Z</time>
      </trkpt>
      <trkpt lat="45.41749" lon="6.27423">
        <ele>409</ele>
        <time>2016-07-20T16:35:36Z</time>
      </trkpt>
      <trkpt lat="45.41731" lon="6.27423">
        <ele>409</ele>
        <time>2016-07-20T16:37:36Z</time>
      </trkpt>
      <trkpt lat="45.41713" lon="6.27421">
        <ele>409</ele>
        <time>2016-07-20T16:39:36Z</time>
      </trkpt>
      <trkpt lat="45.41682" lon="6.27415">
        <ele>409</ele>
        <time>2016-07-20T16:41:36Z</time>
      </trkpt>
      <trkpt lat="45.41653" lon="6.27409">
        <ele>409</ele>
        <time>2016-07-20T16:43:36Z</time>
      </trkpt>
      <trkpt lat="45.41634" lon="6.27407">
        <ele>409</ele>
        <time>2016-07-20T16:45:36Z</time>
      </trkpt>
      <trkpt lat="45.41615" lon="6.27405">
        <ele>410</ele>
        <time>2016-07-20T16:47:36Z</time>
      </trkpt>
      <trkpt lat="45.41596" lon="6.27405">
        <ele>410</ele>
        <time>2016-07-20T16:49:36Z</time>
      </trkpt>
      <trkpt lat="45.41576" lon="6.27406">
        <ele>410</ele>
        <time>2016-07-20T16:51:36Z</time>
      </trkpt>
      <trkpt lat="45.41554" lon="6.2741">
        <ele>409</ele>
        <time>2016-07-20T16:53:36Z</time>
      </trkpt>
      <trkpt lat="45.41521" lon="6.27417">
        <ele>407</ele>
        <time>2016-07-20T16:55:36Z</time>
      </trkpt>
      <trkpt lat="45.41444" lon="6.27438">
        <ele>405</ele>
        <time>2016-07-20T16:57:36Z</time>
      </trkpt>
      <trkpt lat="45.4137" lon="6.2746">
        <ele>403</ele>
        <time>2016-07-20T16:59:36Z</time>
      </trkpt>
      <trkpt lat="45.41328" lon="6.27472">
        <ele>402</ele>
        <time>2016-07-20T17:01:36Z</time>
      </trkpt>
      <trkpt lat="45.41288" lon="6.2748">
        <ele>402</ele>
        <time>2016-07-20T17:03:36Z</time>
      </trkpt>
      <trkpt lat="45.41252" lon="6.27485">
        <ele>402</ele>
        <time>2016-07-20T17:05:36Z</time>
      </trkpt>
      <trkpt lat="45.41214" lon="6.27488">
        <ele>401</ele>
        <time>2016-07-20T17:07:36Z</time>
      </trkpt>
      <trkpt lat="45.41157" lon="6.27489">
        <ele>400</ele>
        <time>2016-07-20T17:09:36Z</time>
      </trkpt>
      <trkpt lat="45.41073" lon="6.2749">
        <ele>401</ele>
        <time>2016-07-20T17:11:36Z</time>
      </trkpt>
      <trkpt lat="45.40922" lon="6.27492">
        <ele>404</ele>
        <time>2016-07-20T17:13:36Z</time>
      </trkpt>
      <trkpt lat="45.40759" lon="6.27495">
        <ele>403</ele>
        <time>2016-07-20T17:15:36Z</time>
      </trkpt>
      <trkpt lat="45.40579" lon="6.27498">
        <ele>406</ele>
        <time>2016-07-20T17:17:36Z</time>
      </trkpt>
      <trkpt lat="45.4039" lon="6.275">
        <ele>405</ele>
        <time>2016-07-20T17:19:36Z</time>
      </trkpt>
      <trkpt lat="45.40237" lon="6.27502">
        <ele>405</ele>
        <time>2016-07-20T17:21:36Z</time>
      </trkpt>
      <trkpt lat="45.40123" lon="6.27504">
        <ele>408</ele>
        <time>2016-07-20T17:23:36Z</time>
      </trkpt>
      <trkpt lat="45.40073" lon="6.27505">
        <ele>409</ele>
        <time>2016-07-20T17:25:36Z</time>
      </trkpt>
      <trkpt lat="45.40003" lon="6.27506">
        <ele>406</ele>
        <time>2016-07-20T17:27:36Z</time>
      </trkpt>
      <trkpt lat="45.39947" lon="6.27506">
        <ele>407</ele>
        <time>2016-07-20T17:29:36Z</time>
      </trkpt>
      <trkpt lat="45.39941" lon="6.27506">
        <ele>408</ele>
        <time>2016-07-20T17:31:36Z</time>
      </trkpt>
      <trkpt lat="45.39904" lon="6.27506">
        <ele>408</ele>
        <time>2016-07-20T17:33:36Z</time>
      </trkpt>
      <trkpt lat="45.39852" lon="6.27507">
        <ele>410</ele>
        <time>2016-07-20T17:35:36Z</time>
      </trkpt>
      <trkpt lat="45.39612" lon="6.27512">
        <ele>412</ele>
        <time>2016-07-20T17:37:36Z</time>
      </trkpt>
      <trkpt lat="45.39518" lon="6.27513">
        <ele>410</ele>
        <time>2016-07-20T17:39:36Z</time>
      </trkpt>
      <trkpt lat="45.3951" lon="6.27513">
        <ele>410</ele>
        <time>2016-07-20T17:41:36Z</time>
      </trkpt>
      <trkpt lat="45.39492" lon="6.27514">
        <ele>410</ele>
        <time>2016-07-20T17:43:36Z</time>
      </trkpt>
      <trkpt lat="45.39473" lon="6.27514">
        <ele>410</ele>
        <time>2016-07-20T17:45:36Z</time>
      </trkpt>
      <trkpt lat="45.39445" lon="6.27514">
        <ele>411</ele>
        <time>2016-07-20T17:47:36Z</time>
      </trkpt>
      <trkpt lat="45.39423" lon="6.27515">
        <ele>411</ele>
        <time>2016-07-20T17:49:36Z</time>
      </trkpt>
      <trkpt lat="45.39402" lon="6.27516">
        <ele>411</ele>
        <time>2016-07-20T17:51:36Z</time>
      </trkpt>
      <trkpt lat="45.39382" lon="6.27516">
        <ele>412</ele>
        <time>2016-07-20T17:53:36Z</time>
      </trkpt>
      <trkpt lat="45.39361" lon="6.27517">
        <ele>412</ele>
        <time>2016-07-20T17:55:36Z</time>
      </trkpt>
      <trkpt lat="45.3934" lon="6.27517">
        <ele>413</ele>
        <time>2016-07-20T17:57:36Z</time>
      </trkpt>
      <trkpt lat="45.39315" lon="6.27518">
        <ele>413</ele>
        <time>2016-07-20T17:59:36Z</time>
      </trkpt>
      <trkpt lat="45.3929" lon="6.27518">
        <ele>412</ele>
        <time>2016-07-20T18:01:36Z</time>
      </trkpt>
      <trkpt lat="45.39241" lon="6.2752">
        <ele>412</ele>
        <time>2016-07-20T18:03:36Z</time>
      </trkpt>
      <trkpt lat="45.39228" lon="6.2752">
        <ele>412</ele>
        <time>2016-07-20T18:05:36Z</time>
      </trkpt>
      <trkpt lat="45.39215" lon="6.27521">
        <ele>412</ele>
        <time>2016-07-20T18:07:36Z</time>
      </trkpt>
      <trkpt lat="45.39186" lon="6.27521">
        <ele>413</ele>
        <time>2016-07-20T18:09:36Z</time>
      </trkpt>
      <trkpt lat="45.39161" lon="6.27522">
        <ele>414</ele>
        <time>2016-07-20T18:11:36Z</time>
      </trkpt>
      <trkpt lat="45.39133" lon="6.27523">
        <ele>414</ele>
        <time>2016-07-20T18:13:36Z</time>
      </trkpt>
      <trkpt lat="45.39107" lon="6.27524">
        <ele>414</ele>
        <time>2016-07-20T18:15:36Z</time>
      </trkpt>
      <trkpt lat="45.39089" lon="6.27524">
        <ele>414</ele>
        <time>2016-07-20T18:17:36Z</time>
      </trkpt>
      <trkpt lat="45.39076" lon="6.27524">
        <ele>414</ele>
        <time>2016-07-20T18:19:36Z</time>
      </trkpt>
      <trkpt lat="45.39019" lon="6.27525">
        <ele>413</ele>
        <time>2016-07-20T18:21:36Z</time>
      </trkpt>
      <trkpt lat="45.39009" lon="6.27525">
        <ele>413</ele>
        <time>2016-07-20T18:23:36Z</time>
      </trkpt>
      <trkpt lat="45.38996" lon="6.27525">
        <ele>413</ele>
        <time>2016-07-20T18:25:36Z</time>
      </trkpt>
      <trkpt lat="45.38982" lon="6.27525">
        <ele>413</ele>
        <time>2016-07-20T18:27:36Z</time>
      </trkpt>
      <trkpt lat="45.38969" lon="6.27526">
        <ele>414</ele>
        <time>2016-07-20T18:29:36Z</time>
      </trkpt>
      <trkpt lat="45.38953" lon="6.27526">
        <ele>414</ele>
        <time>2016-07-20T18:31:36Z</time>
      </trkpt>
      <trkpt lat="45.38945" lon="6.27527">
        <ele>414</ele>
        <time>2016-07-20T18:33:36Z</time>
      </trkpt>
      <trkpt lat="45.38938" lon="6.27528">
        <ele>414</ele>
        <time>2016-07-20T18:35:36Z</time>
      </trkpt>
      <trkpt lat="45.38866" lon="6.2754">
        <ele>416</ele>
        <time>2016-07-20T18:37:36Z</time>
      </trkpt>
      <trkpt lat="45.38849" lon="6.27544">
        <ele>417</ele>
        <time>2016-07-20T18:39:36Z</time>
      </trkpt>
      <trkpt lat="45.38829" lon="6.27549">
        <ele>418</ele>
        <time>2016-07-20T18:41:36Z</time>
      </trkpt>
      <trkpt lat="45.38697" lon="6.27591">
        <ele>421</ele>
        <time>2016-07-20T18:43:36Z</time>
      </trkpt>
      <trkpt lat="45.3867" lon="6.27601">
        <ele>421</ele>
        <time>2016-07-20T18:45:36Z</time>
      </trkpt>
      <trkpt lat="45.3865" lon="6.27609">
        <ele>421</ele>
        <time>2016-07-20T18:47:36Z</time>
      </trkpt>
      <trkpt lat="45.38627" lon="6.27619">
        <ele>420</ele>
        <time>2016-07-20T18:49:36Z</time>
      </trkpt>
      <trkpt lat="45.38576" lon="6.27646">
        <ele>420</ele>
        <time>2016-07-20T18:51:36Z</time>
      </trkpt>
      <trkpt lat="45.3857" lon="6.2765">
        <ele>420</ele>
        <time>2016-07-20T18:53:36Z</time>
      </trkpt>
      <trkpt lat="45.38565" lon="6.27652">
        <ele>420</ele>
        <time>2016-07-20T18:55:36Z</time>
      </trkpt>
      <trkpt lat="45.38524" lon="6.27674">
        <ele>417</ele>
        <time>2016-07-20T18:57:36Z</time>
      </trkpt>
      <trkpt lat="45.38521" lon="6.27675">
        <ele>417</ele>
        <time>2016-07-20T18:59:36Z</time>
      </trkpt>
      <trkpt lat="45.385" lon="6.27688">
        <ele>417</ele>
        <time>2016-07-20T19:01:36Z</time>
      </trkpt>
      <trkpt lat="45.38478" lon="6.27702">
        <ele>417</ele>
        <time>2016-07-20T19:03:36Z</time>
      </trkpt>
      <trkpt lat="45.38462" lon="6.27711">
        <ele>418</ele>
        <time>2016-07-20T19:05:36Z</time>
      </trkpt>
      <trkpt lat="45.38454" lon="6.27717">
        <ele>418</ele>
        <time>2016-07-20T19:07:36Z</time>
      </trkpt>
      <trkpt lat="45.38419" lon="6.27738">
        <ele>419</ele>
        <time>2016-07-20T19:09:36Z</time>
      </trkpt>
      <trkpt lat="45.38376" lon="6.27767">
        <ele>420</ele>
        <time>2016-07-20T19:11:36Z</time>
      </trkpt>
      <trkpt lat="45.38332" lon="6.27798">
        <ele>420</ele>
        <time>2016-07-20T19:13:36Z</time>
      </trkpt>
      <trkpt lat="45.38265" lon="6.27845">
        <ele>419</ele>
        <time>2016-07-20T19:15:36Z</time>
      </trkpt>
      <trkpt lat="45.38183" lon="6.27903">
        <ele>422</ele>
        <time>2016-07-20T19:17:36Z</time>
      </trkpt>
      <trkpt lat="45.38143" lon="6.27931">
        <ele>422</ele>
        <time>2016-07-20T19:19:36Z</time>
      </trkpt>
      <trkpt lat="45.38102" lon="6.2796">
        <ele>422</ele>
        <time>2016-07-20T19:21:36Z</time>
      </trkpt>
      <trkpt lat="45.38028" lon="6.28011">
        <ele>423</ele>
        <time>2016-07-20T19:23:36Z</time>
      </trkpt>
      <trkpt lat="45.37933" lon="6.28077">
        <ele>422</ele>
        <time>2016-07-20T19:25:36Z</time>
      </trkpt>
      <trkpt lat="45.3786" lon="6.28128">
        <ele>423</ele>
        <time>2016-07-20T19:27:36Z</time>
      </trkpt>
      <trkpt lat="45.37832" lon="6.28148">
        <ele>422</ele>
        <time>2016-07-20T19:29:36Z</time>
      </trkpt>
      <trkpt lat="45.37811" lon="6.28161">
        <ele>423</ele>
        <time>2016-07-20T19:31:36Z</time>
      </trkpt>
      <trkpt lat="45.37789" lon="6.28178">
        <ele>425</ele>
        <time>2016-07-20T19:33:36Z</time>
      </trkpt>
      <trkpt lat="45.37765" lon="6.28194">
        <ele>425</ele>
        <time>2016-07-20T19:35:36Z</time>
      </trkpt>
      <trkpt lat="45.37743" lon="6.2821">
        <ele>425</ele>
        <time>2016-07-20T19:37:36Z</time>
      </trkpt>
      <trkpt lat="45.37721" lon="6.28225">
        <ele>425</ele>
        <time>2016-07-20T19:39:36Z</time>
      </trkpt>
      <trkpt lat="45.37683" lon="6.28251">
        <ele>426</ele>
        <time>2016-07-20T19:41:36Z</time>
      </trkpt>
      <trkpt lat="45.37642" lon="6.2828">
        <ele>427</ele>
        <time>2016-07-20T19:43:36Z</time>
      </trkpt>
      <trkpt lat="45.3761" lon="6.28303">
        <ele>427</ele>
        <time>2016-07-20T19:45:36Z</time>
      </trkpt>
      <trkpt lat="45.37579" lon="6.28323">
        <ele>427</ele>
        <time>2016-07-20T19:47:36Z</time>
      </trkpt>
      <trkpt lat="45.37539" lon="6.28351">
        <ele>428</ele>
        <time>2016-07-20T19:49:36Z</time>
      </trkpt>
      <trkpt lat="45.37154" lon="6.28621">
        <ele>431</ele>
        <time>2016-07-20T19:51:36Z</time>
      </trkpt>
      <trkpt lat="45.3708" lon="6.28672">
        <ele>427</ele>
        <time>2016-07-20T19:53:36Z</time>
      </trkpt>
      <trkpt lat="45.37036" lon="6.28702">
        <ele>430</ele>
        <time>2016-07-20T19:55:36Z</time>
      </trkpt>
      <trkpt lat="45.36987" lon="6.28737">
        <ele>430</ele>
        <time>2016-07-20T19:57:36Z</time>
      </trkpt>
      <trkpt lat="45.36969" lon="6.28749">
        <ele>430</ele>
        <time>2016-07-20T19:59:36Z</time>
      </trkpt>
      <trkpt lat="45.36947" lon="6.28763">
        <ele>430</ele>
        <time>2016-07-20T20:01:36Z</time>
      </trkpt>
      <trkpt lat="45.36925" lon="6.28774">
        <ele>429</ele>
        <time>2016-07-20T20:03:36Z</time>
      </trkpt>
      <trkpt lat="45.36909" lon="6.28782">
        <ele>429</ele>
        <time>2016-07-20T20:05:36Z</time>
      </trkpt>
      <trkpt lat="45.36889" lon="6.28791">
        <ele>430</ele>
        <time>2016-07-20T20:07:36Z</time>
      </trkpt>
      <trkpt lat="45.36877" lon="6.28796">
        <ele>430</ele>
        <time>2016-07-20T20:09:36Z</time>
      </trkpt>
      <trkpt lat="45.36866" lon="6.288">
        <ele>430</ele>
        <time>2016-07-20T20:11:36Z</time>
      </trkpt>
      <trkpt lat="45.36855" lon="6.28804">
        <ele>431</ele>
        <time>2016-07-20T20:13:36Z</time>
      </trkpt>
      <trkpt lat="45.36843" lon="6.28807">
        <ele>431</ele>
        <time>2016-07-20T20:15:36Z</time>
      </trkpt>
      <trkpt lat="45.36833" lon="6.28809">
        <ele>432</ele>
        <time>2016-07-20T20:17:36Z</time>
      </trkpt>
      <trkpt lat="45.36818" lon="6.28812">
        <ele>432</ele>
        <time>2016-07-20T20:19:36Z</time>
      </trkpt>
      <trkpt lat="45.36806" lon="6.28814">
        <ele>432</ele>
        <time>2016-07-20T20:21:36Z</time>
      </trkpt>
      <trkpt lat="45.36792" lon="6.28816">
        <ele>432</ele>
        <time>2016-07-20T20:23:36Z</time>
      </trkpt>
      <trkpt lat="45.36778" lon="6.28818">
        <ele>432</ele>
        <time>2016-07-20T20:25:36Z</time>
      </trkpt>
      <trkpt lat="45.36767" lon="6.28819">
        <ele>432</ele>
        <time>2016-07-20T20:27:36Z</time>
      </trkpt>
      <trkpt lat="45.36755" lon="6.28819">
        <ele>432</ele>
        <time>2016-07-20T20:29:36Z</time>
      </trkpt>
      <trkpt lat="45.36743" lon="6.28819">
        <ele>432</ele>
        <time>2016-07-20T20:31:36Z</time>
      </trkpt>
      <trkpt lat="45.36718" lon="6.28818">
        <ele>433</ele>
        <time>2016-07-20T20:33:36Z</time>
      </trkpt>
      <trkpt lat="45.36707" lon="6.28817">
        <ele>433</ele>
        <time>2016-07-20T20:35:36Z</time>
      </trkpt>
      <trkpt lat="45.36695" lon="6.28816">
        <ele>434</ele>
        <time>2016-07-20T20:37:36Z</time>
      </trkpt>
      <trkpt lat="45.3668" lon="6.28814">
        <ele>434</ele>
        <time>2016-07-20T20:39:36Z</time>
      </trkpt>
      <trkpt lat="45.36653" lon="6.2881">
        <ele>435</ele>
        <time>2016-07-20T20:41:36Z</time>
      </trkpt>
      <trkpt lat="45.36641" lon="6.28808">
        <ele>435</ele>
        <time>2016-07-20T20:43:36Z</time>
      </trkpt>
      <trkpt lat="45.36628" lon="6.28805">
        <ele>435</ele>
        <time>2016-07-20T20:45:36Z</time>
      </trkpt>
      <trkpt lat="45.36615" lon="6.28801">
        <ele>436</ele>
        <time>2016-07-20T20:47:36Z</time>
      </trkpt>
      <trkpt lat="45.36603" lon="6.28797">
        <ele>436</ele>
        <time>2016-07-20T20:49:36Z</time>
      </trkpt>
      <trkpt lat="45.36545" lon="6.28776">
        <ele>435</ele>
        <time>2016-07-20T20:51:36Z</time>
      </trkpt>
      <trkpt lat="45.3651" lon="6.28766">
        <ele>436</ele>
        <time>2016-07-20T20:53:36Z</time>
      </trkpt>
      <trkpt lat="45.36495" lon="6.28761">
        <ele>436</ele>
        <time>2016-07-20T20:55:36Z</time>
      </trkpt>
      <trkpt lat="45.36478" lon="6.28756">
        <ele>435</ele>
        <time>2016-07-20T20:57:36Z</time>
      </trkpt>
      <trkpt lat="45.36449" lon="6.28749">
        <ele>435</ele>
        <time>2016-07-20T20:59:36Z</time>
      </trkpt>
      <trkpt lat="45.36436" lon="6.28746">
        <ele>435</ele>
        <time>2016-07-20T21:01:36Z</time>
      </trkpt>
      <trkpt lat="45.3642" lon="6.28743">
        <ele>435</ele>
        <time>2016-07-20T21:03:36Z</time>
      </trkpt>
      <trkpt lat="45.3639" lon="6.28738">
        <ele>436</ele>
        <time>2016-07-20T21:05:36Z</time>
      </trkpt>
      <trkpt lat="45.36372" lon="6.28735">
        <ele>437</ele>
        <time>2016-07-20T21:07:36Z</time>
      </trkpt>
      <trkpt lat="45.36341" lon="6.28732">
        <ele>438</ele>
        <time>2016-07-20T21:09:36Z</time>
      </trkpt>
      <trkpt lat="45.36326" lon="6.2873">
        <ele>439</ele>
        <time>2016-07-20T21:11:36Z</time>
      </trkpt>
      <trkpt lat="45.36305" lon="6.2873">
        <ele>439</ele>
        <time>2016-07-20T21:13:36Z</time>
      </trkpt>
      <trkpt lat="45.36293" lon="6.2873">
        <ele>439</ele>
        <time>2016-07-20T21:15:36Z</time>
      </trkpt>
      <trkpt lat="45.3628" lon="6.28731">
        <ele>439</ele>
        <time>2016-07-20T21:17:36Z</time>
      </trkpt>
      <trkpt lat="45.3627" lon="6.28732">
        <ele>439</ele>
        <time>2016-07-20T21:19:36Z</time>
      </trkpt>
      <trkpt lat="45.36241" lon="6.28737">
        <ele>440</ele>
        <time>2016-07-20T21:21:36Z</time>
      </trkpt>
      <trkpt lat="45.36223" lon="6.28741">
        <ele>440</ele>
        <time>2016-07-20T21:23:36Z</time>
      </trkpt>
      <trkpt lat="45.36209" lon="6.28744">
        <ele>440</ele>
        <time>2016-07-20T21:25:36Z</time>
      </trkpt>
      <trkpt lat="45.36191" lon="6.28749">
        <ele>440</ele>
        <time>2016-07-20T21:27:36Z</time>
      </trkpt>
      <trkpt lat="45.36175" lon="6.28755">
        <ele>440</ele>
        <time>2016-07-20T21:29:36Z</time>
      </trkpt>
      <trkpt lat="45.36163" lon="6.28759">
        <ele>440</ele>
        <time>2016-07-20T21:31:36Z</time>
      </trkpt>
      <trkpt lat="45.36152" lon="6.28764">
        <ele>440</ele>
        <time>2016-07-20T21:33:36Z</time>
      </trkpt>
      <trkpt lat="45.3614" lon="6.2877">
        <ele>440</ele>
        <time>2016-07-20T21:35:36Z</time>
      </trkpt>
      <trkpt lat="45.36128" lon="6.28776">
        <ele>440</ele>
        <time>2016-07-20T21:37:36Z</time>
      </trkpt>
      <trkpt lat="45.36115" lon="6.28782">
        <ele>440</ele>
        <time>2016-07-20T21:39:36Z</time>
      </trkpt>
      <trkpt lat="45.36105" lon="6.28788">
        <ele>440</ele>
        <time>2016-07-20T21:41:36Z</time>
      </trkpt>
      <trkpt lat="45.36101" lon="6.2879">
        <ele>440</ele>
        <time>2016-07-20T21:43:36Z</time>
      </trkpt>
      <trkpt lat="45.3609" lon="6.28798">
        <ele>441</ele>
        <time>2016-07-20T21:45:36Z</time>
      </trkpt>
      <trkpt lat="45.36079" lon="6.28805">
        <ele>441</ele>
        <time>2016-07-20T21:47:36Z</time>
      </trkpt>
      <trkpt lat="45.36065" lon="6.28814">
        <ele>441</ele>
        <time>2016-07-20T21:49:36Z</time>
      </trkpt>
      <trkpt lat="45.36063" lon="6.28815">
        <ele>441</ele>
        <time>2016-07-20T21:51:36Z</time>
      </trkpt>
      <trkpt lat="45.36059" lon="6.28818">
        <ele>441</ele>
        <time>2016-07-20T21:53:36Z</time>
      </trkpt>
      <trkpt lat="45.36042" lon="6.2883">
        <ele>440</ele>
        <time>2016-07-20T21:55:36Z</time>
      </trkpt>
      <trkpt lat="45.36033" lon="6.28838">
        <ele>440</ele>
        <time>2016-07-20T21:57:36Z</time>
      </trkpt>
      <trkpt lat="45.36001" lon="6.28866">
        <ele>441</ele>
        <time>2016-07-20T21:59:36Z</time>
      </trkpt>
      <trkpt lat="45.35998" lon="6.28869">
        <ele>441</ele>
        <time>2016-07-20T22:01:36Z</time>
      </trkpt>
      <trkpt lat="45.35967" lon="6.28903">
        <ele>441</ele>
        <time>2016-07-20T22:03:36Z</time>
      </trkpt>
      <trkpt lat="45.35934" lon="6.28945">
        <ele>441</ele>
        <time>2016-07-20T22:05:36Z</time>
      </trkpt>
      <trkpt lat="45.35902" lon="6.28992">
        <ele>441</ele>
        <time>2016-07-20T22:07:36Z</time>
      </trkpt>
      <trkpt lat="45.359" lon="6.28996">
        <ele>441</ele>
        <time>2016-07-20T22:09:36Z</time>
      </trkpt>
      <trkpt lat="45.3589" lon="6.29013">
        <ele>442</ele>
        <time>2016-07-20T22:11:36Z</time>
      </trkpt>
      <trkpt lat="45.35883" lon="6.29025">
        <ele>442</ele>
        <time>2016-07-20T22:13:36Z</time>
      </trkpt>
      <trkpt lat="45.3587" lon="6.2905">
        <ele>442</ele>
        <time>2016-07-20T22:15:36Z</time>
      </trkpt>
      <trkpt lat="45.35829" lon="6.29135">
        <ele>441</ele>
        <time>2016-07-20T22:17:36Z</time>
      </trkpt>
      <trkpt lat="45.35823" lon="6.29149">
        <ele>441</ele>
        <time>2016-07-20T22:19:36Z</time>
      </trkpt>
      <trkpt lat="45.35767" lon="6.29265">
        <ele>442</ele>
        <time>2016-07-20T22:21:36Z</time>
      </trkpt>
      <trkpt lat="45.35721" lon="6.29363">
        <ele>444</ele>
        <time>2016-07-20T22:23:36Z</time>
      </trkpt>
      <trkpt lat="45.35687" lon="6.29433">
        <ele>444</ele>
        <time>2016-07-20T22:25:36Z</time>
      </trkpt>
      <trkpt lat="45.3565" lon="6.29511">
        <ele>444</ele>
        <time>2016-07-20T22:27:36Z</time>
      </trkpt>
      <trkpt lat="45.35635" lon="6.29542">
        <ele>444</ele>
        <time>2016-07-20T22:29:36Z</time>
      </trkpt>
      <trkpt lat="45.35607" lon="6.29603">
        <ele>445</ele>
        <time>2016-07-20T22:31:36Z</time>
      </trkpt>
      <trkpt lat="45.35572" lon="6.29677">
        <ele>444</ele>
        <time>2016-07-20T22:33:36Z</time>
      </trkpt>
      <trkpt lat="45.35515" lon="6.29802">
        <ele>443</ele>
        <time>2016-07-20T22:35:36Z</time>
      </trkpt>
      <trkpt lat="45.35451" lon="6.29937">
        <ele>447</ele>
        <time>2016-07-20T22:37:36Z</time>
      </trkpt>
      <trkpt lat="45.35437" lon="6.29966">
        <ele>447</ele>
        <time>2016-07-20T22:39:36Z</time>
      </trkpt>
      <trkpt lat="45.35383" lon="6.30082">
        <ele>445</ele>
        <time>2016-07-20T22:41:36Z</time>
      </trkpt>
      <trkpt lat="45.35358" lon="6.30133">
        <ele>446</ele>
        <time>2016-07-20T22:43:36Z</time>
      </trkpt>
      <trkpt lat="45.3534" lon="6.30171">
        <ele>447</ele>
        <time>2016-07-20T22:45:36Z</time>
      </trkpt>
      <trkpt lat="45.35335" lon="6.30182">
        <ele>446</ele>
        <time>2016-07-20T22:47:36Z</time>
      </trkpt>
      <trkpt lat="45.35325" lon="6.30203">
        <ele>447</ele>
        <time>2016-07-20T22:49:36Z</time>
      </trkpt>
      <trkpt lat="45.3531" lon="6.30232">
        <ele>447</ele>
        <time>2016-07-20T22:51:36Z</time>
      </trkpt>
      <trkpt lat="45.35293" lon="6.30267">
        <ele>447</ele>
        <time>2016-07-20T22:53:36Z</time>
      </trkpt>
      <trkpt lat="45.35283" lon="6.30284">
        <ele>447</ele>
        <time>2016-07-20T22:55:36Z</time>
      </trkpt>
      <trkpt lat="45.35277" lon="6.30294">
        <ele>447</ele>
        <time>2016-07-20T22:57:36Z</time>
      </trkpt>
      <trkpt lat="45.35256" lon="6.30327">
        <ele>446</ele>
        <time>2016-07-20T22:59:36Z</time>
      </trkpt>
      <trkpt lat="45.35244" lon="6.30341">
        <ele>446</ele>
        <time>2016-07-20T23:01:36Z</time>
      </trkpt>
      <trkpt lat="45.35234" lon="6.30353">
        <ele>447</ele>
        <time>2016-07-20T23:03:36Z</time>
      </trkpt>
      <trkpt lat="45.35233" lon="6.30355">
        <ele>447</ele>
        <time>2016-07-20T23:05:36Z</time>
      </trkpt>
      <trkpt lat="45.35214" lon="6.30373">
        <ele>447</ele>
        <time>2016-07-20T23:07:36Z</time>
      </trkpt>
      <trkpt lat="45.35193" lon="6.30392">
        <ele>447</ele>
        <time>2016-07-20T23:09:36Z</time>
      </trkpt>
      <trkpt lat="45.35167" lon="6.30413">
        <ele>448</ele>
        <time>2016-07-20T23:11:36Z</time>
      </trkpt>
      <trkpt lat="45.3515" lon="6.30424">
        <ele>448</ele>
        <time>2016-07-20T23:13:36Z</time>
      </trkpt>
      <trkpt lat="45.3514" lon="6.3043">
        <ele>447</ele>
        <time>2016-07-20T23:15:36Z</time>
      </trkpt>
      <trkpt lat="45.35112" lon="6.30447">
        <ele>447</ele>
        <time>2016-07-20T23:17:36Z</time>
      </trkpt>
      <trkpt lat="45.3508" lon="6.30466">
        <ele>447</ele>
        <time>2016-07-20T23:19:36Z</time>
      </trkpt>
      <trkpt lat="45.35041" lon="6.30489">
        <ele>448</ele>
        <time>2016-07-20T23:21:36Z</time>
      </trkpt>
      <trkpt lat="45.35003" lon="6.3051">
        <ele>449</ele>
        <time>2016-07-20T23:23:36Z</time>
      </trkpt>
      <trkpt lat="45.34994" lon="6.30512">
        <ele>449</ele>
        <time>2016-07-20T23:25:36Z</time>
      </trkpt>
      <trkpt lat="45.34978" lon="6.3052">
        <ele>449</ele>
        <time>2016-07-20T23:27:36Z</time>
      </trkpt>
      <trkpt lat="45.34973" lon="6.30522">
        <ele>449</ele>
        <time>2016-07-20T23:29:36Z</time>
      </trkpt>
      <trkpt lat="45.34959" lon="6.30529">
        <ele>449</ele>
        <time>2016-07-20T23:31:36Z</time>
      </trkpt>
      <trkpt lat="45.3494" lon="6.30539">
        <ele>450</ele>
        <time>2016-07-20T23:33:36Z</time>
      </trkpt>
      <trkpt lat="45.3491" lon="6.30553">
        <ele>450</ele>
        <time>2016-07-20T23:35:36Z</time>
      </trkpt>
      <trkpt lat="45.3486" lon="6.30576">
        <ele>449</ele>
        <time>2016-07-20T23:37:36Z</time>
      </trkpt>
      <trkpt lat="45.34854" lon="6.30579">
        <ele>448</ele>
        <time>2016-07-20T23:39:36Z</time>
      </trkpt>
      <trkpt lat="45.34848" lon="6.30582">
        <ele>448</ele>
        <time>2016-07-20T23:41:36Z</time>
      </trkpt>
      <trkpt lat="45.34844" lon="6.30584">
        <ele>448</ele>
        <time>2016-07-20T23:43:36Z</time>
      </trkpt>
      <trkpt lat="45.3484" lon="6.30587">
        <ele>448</ele>
        <time>2016-07-20T23:45:36Z</time>
      </trkpt>
      <trkpt lat="45.34835" lon="6.30592">
        <ele>448</ele>
        <time>2016-07-20T23:47:36Z</time>
      </trkpt>
      <trkpt lat="45.34831" lon="6.30596">
        <ele>448</ele>
        <time>2016-07-20T23:49:36Z</time>
      </trkpt>
      <trkpt lat="45.34828" lon="6.306">
        <ele>448</ele>
        <time>2016-07-20T23:51:36Z</time>
      </trkpt>
      <trkpt lat="45.34825" lon="6.30603">
        <ele>448</ele>
        <time>2016-07-20T23:53:36Z</time>
      </trkpt>
      <trkpt lat="45.34823" lon="6.30605">
        <ele>448</ele>
        <time>2016-07-20T23:55:36Z</time>
      </trkpt>
      <trkpt lat="45.34822" lon="6.30607">
        <ele>448</ele>
        <time>2016-07-20T23:57:36Z</time>
      </trkpt>
      <trkpt lat="45.3482" lon="6.30608">
        <ele>449</ele>
        <time>2016-07-20T23:59:36Z</time>
      </trkpt>
      <trkpt lat="45.34817" lon="6.3061">
        <ele>449</ele>
        <time>2016-07-21T00:01:36Z</time>
      </trkpt>
      <trkpt lat="45.34814" lon="6.30611">
        <ele>449</ele>
        <time>2016-07-21T00:03:36Z</time>
      </trkpt>
      <trkpt lat="45.34808" lon="6.30613">
        <ele>449</ele>
        <time>2016-07-21T00:05:36Z</time>
      </trkpt>
      <trkpt lat="45.34807" lon="6.30612">
        <ele>449</ele>
        <time>2016-07-21T00:07:36Z</time>
      </trkpt>
      <trkpt lat="45.34806" lon="6.30612">
        <ele>449</ele>
        <time>2016-07-21T00:09:36Z</time>
      </trkpt>
      <trkpt lat="45.34805" lon="6.30612">
        <ele>449</ele>
        <time>2016-07-21T00:11:36Z</time>
      </trkpt>
      <trkpt lat="45.34804" lon="6.30611">
        <ele>449</ele>
        <time>2016-07-21T00:13:36Z</time>
      </trkpt>
      <trkpt lat="45.34803" lon="6.30611">
        <ele>449</ele>
        <time>2016-07-21T00:15:36Z</time>
      </trkpt>
      <trkpt lat="45.34802" lon="6.30611">
        <ele>449</ele>
        <time>2016-07-21T00:17:36Z</time>
      </trkpt>
      <trkpt lat="45.34801" lon="6.30611">
        <ele>449</ele>
        <time>2016-07-21T00:19:36Z</time>
      </trkpt>
      <trkpt lat="45.348" lon="6.30611">
        <ele>449</ele>
        <time>2016-07-21T00:21:36Z</time>
      </trkpt>
      <trkpt lat="45.34798" lon="6.30612">
        <ele>449</ele>
        <time>2016-07-21T00:23:36Z</time>
      </trkpt>
      <trkpt lat="45.34797" lon="6.30612">
        <ele>449</ele>
        <time>2016-07-21T00:25:36Z</time>
      </trkpt>
      <trkpt lat="45.34795" lon="6.30613">
        <ele>449</ele>
        <time>2016-07-21T00:27:36Z</time>
      </trkpt>
      <trkpt lat="45.34794" lon="6.30614">
        <ele>449</ele>
        <time>2016-07-21T00:29:36Z</time>
      </trkpt>
      <trkpt lat="45.34793" lon="6.30615">
        <ele>449</ele>
        <time>2016-07-21T00:31:36Z</time>
      </trkpt>
      <trkpt lat="45.34792" lon="6.30616">
        <ele>449</ele>
        <time>2016-07-21T00:33:36Z</time>
      </trkpt>
      <trkpt lat="45.3479" lon="6.30617">
        <ele>449</ele>
        <time>2016-07-21T00:35:36Z</time>
      </trkpt>
      <trkpt lat="45.34789" lon="6.30619">
        <ele>449</ele>
        <time>2016-07-21T00:37:36Z</time>
      </trkpt>
      <trkpt lat="45.34788" lon="6.3062">
        <ele>449</ele>
        <time>2016-07-21T00:39:36Z</time>
      </trkpt>
      <trkpt lat="45.34788" lon="6.30621">
        <ele>449</ele>
        <time>2016-07-21T00:41:36Z</time>
      </trkpt>
      <trkpt lat="45.34787" lon="6.30623">
        <ele>449</ele>
        <time>2016-07-21T00:43:36Z</time>
      </trkpt>
      <trkpt lat="45.34786" lon="6.30624">
        <ele>449</ele>
        <time>2016-07-21T00:45:36Z</time>
      </trkpt>
      <trkpt lat="45.34786" lon="6.30626">
        <ele>449</ele>
        <time>2016-07-21T00:47:36Z</time>
      </trkpt>
      <trkpt lat="45.34785" lon="6.30627">
        <ele>449</ele>
        <time>2016-07-21T00:49:36Z</time>
      </trkpt>
      <trkpt lat="45.34785" lon="6.30629">
        <ele>449</ele>
        <time>2016-07-21T00:51:36Z</time>
      </trkpt>
      <trkpt lat="45.34784" lon="6.30631">
        <ele>449</ele>
        <time>2016-07-21T00:53:36Z</time>
      </trkpt>
      <trkpt lat="45.34781" lon="6.30634">
        <ele>449</ele>
        <time>2016-07-21T00:55:36Z</time>
      </trkpt>
      <trkpt lat="45.34779" lon="6.30636">
        <ele>449</ele>
        <time>2016-07-21T00:57:36Z</time>
      </trkpt>
      <trkpt lat="45.34776" lon="6.30638">
        <ele>449</ele>
        <time>2016-07-21T00:59:36Z</time>
      </trkpt>
      <trkpt lat="45.34772" lon="6.30641">
        <ele>449</ele>
        <time>2016-07-21T01:01:36Z</time>
      </trkpt>
      <trkpt lat="45.34761" lon="6.30648">
        <ele>449</ele>
        <time>2016-07-21T01:03:36Z</time>
      </trkpt>
      <trkpt lat="45.34738" lon="6.30661">
        <ele>449</ele>
        <time>2016-07-21T01:05:36Z</time>
      </trkpt>
      <trkpt lat="45.34714" lon="6.30677">
        <ele>449</ele>
        <time>2016-07-21T01:07:36Z</time>
      </trkpt>
      <trkpt lat="45.34673" lon="6.30701">
        <ele>450</ele>
        <time>2016-07-21T01:09:36Z</time>
      </trkpt>
      <trkpt lat="45.34666" lon="6.30705">
        <ele>450</ele>
        <time>2016-07-21T01:11:36Z</time>
      </trkpt>
      <trkpt lat="45.34662" lon="6.3071">
        <ele>451</ele>
        <time>2016-07-21T01:13:36Z</time>
      </trkpt>
      <trkpt lat="45.34604" lon="6.30744">
        <ele>452</ele>
        <time>2016-07-21T01:15:36Z</time>
      </trkpt>
      <trkpt lat="45.34571" lon="6.30764">
        <ele>452</ele>
        <time>2016-07-21T01:17:36Z</time>
      </trkpt>
      <trkpt lat="45.34528" lon="6.30789">
        <ele>452</ele>
        <time>2016-07-21T01:19:36Z</time>
      </trkpt>
      <trkpt lat="45.34494" lon="6.30809">
        <ele>452</ele>
        <time>2016-07-21T01:21:36Z</time>
      </trkpt>
      <trkpt lat="45.34421" lon="6.30853">
        <ele>452</ele>
        <time>2016-07-21T01:23:36Z</time>
      </trkpt>
      <trkpt lat="45.34327" lon="6.30908">
        <ele>454</ele>
        <time>2016-07-21T01:25:36Z</time>
      </trkpt>
      <trkpt lat="45.34263" lon="6.30945">
        <ele>453</ele>
        <time>2016-07-21T01:27:36Z</time>
      </trkpt>
      <trkpt lat="45.34242" lon="6.30958">
        <ele>453</ele>
        <time>2016-07-21T01:29:36Z</time>
      </trkpt>
      <trkpt lat="45.34186" lon="6.3099">
        <ele>456</ele>
        <time>2016-07-21T01:31:36Z</time>
      </trkpt>
      <trkpt lat="45.34166" lon="6.31002">
        <ele>457</ele>
        <time>2016-07-21T01:33:36Z</time>
      </trkpt>
      <trkpt lat="45.34134" lon="6.3102">
        <ele>456</ele>
        <time>2016-07-21T01:35:36Z</time>
      </trkpt>
      <trkpt lat="45.34121" lon="6.31028">
        <ele>456</ele>
        <time>2016-07-21T01:37:36Z</time>
      </trkpt>
      <trkpt lat="45.34106" lon="6.31036">
        <ele>455</ele>
        <time>2016-07-21T01:39:36Z</time>
      </trkpt>
      <trkpt lat="45.34067" lon="6.31059">
        <ele>455</ele>
        <time>2016-07-21T01:41:36Z</time>
      </trkpt>
      <trkpt lat="45.34018" lon="6.31088">
        <ele>455</ele>
        <time>2016-07-21T01:43:36Z</time>
      </trkpt>
      <trkpt lat="45.33933" lon="6.31138">
        <ele>458</ele>
        <time>2016-07-21T01:45:36Z</time>
      </trkpt>
      <trkpt lat="45.3388" lon="6.31168">
        <ele>459</ele>
        <time>2016-07-21T01:47:36Z</time>
      </trkpt>
      <trkpt lat="45.33797" lon="6.31218">
        <ele>459</ele>
        <time>2016-07-21T01:49:36Z</time>
      </trkpt>
      <trkpt lat="45.33768" lon="6.31235">
        <ele>459</ele>
        <time>2016-07-21T01:51:36Z</time>
      </trkpt>
      <trkpt lat="45.33737" lon="6.31253">
        <ele>459</ele>
        <time>2016-07-21T01:53:36Z</time>
      </trkpt>
      <trkpt lat="45.33689" lon="6.31281">
        <ele>458</ele>
        <time>2016-07-21T01:55:36Z</time>
      </trkpt>
      <trkpt lat="45.33645" lon="6.31307">
        <ele>459</ele>
        <time>2016-07-21T01:57:36Z</time>
      </trkpt>
      <trkpt lat="45.33612" lon="6.31326">
        <ele>459</ele>
        <time>2016-07-21T01:59:36Z</time>
      </trkpt>
      <trkpt lat="45.33543" lon="6.31366">
        <ele>461</ele>
        <time>2016-07-21T02:01:36Z</time>
      </trkpt>
      <trkpt lat="45.33477" lon="6.31404">
        <ele>465</ele>
        <time>2016-07-21T02:03:36Z</time>
      </trkpt>
      <trkpt lat="45.33431" lon="6.31431">
        <ele>464</ele>
        <time>2016-07-21T02:05:36Z</time>
      </trkpt>
      <trkpt lat="45.33381" lon="6.3146">
        <ele>465</ele>
        <time>2016-07-21T02:07:36Z</time>
      </trkpt>
      <trkpt lat="45.33336" lon="6.31487">
        <ele>463</ele>
        <time>2016-07-21T02:09:36Z</time>
      </trkpt>
      <trkpt lat="45.33321" lon="6.31497">
        <ele>463</ele>
        <time>2016-07-21T02:11:36Z</time>
      </trkpt>
      <trkpt lat="45.333" lon="6.31512">
        <ele>465</ele>
        <time>2016-07-21T02:13:36Z</time>
      </trkpt>
      <trkpt lat="45.3327" lon="6.31533">
        <ele>466</ele>
        <time>2016-07-21T02:15:36Z</time>
      </trkpt>
      <trkpt lat="45.33234" lon="6.3156">
        <ele>466</ele>
        <time>2016-07-21T02:17:36Z</time>
      </trkpt>
      <trkpt lat="45.33197" lon="6.31589">
        <ele>469</ele>
        <time>2016-07-21T02:19:36Z</time>
      </trkpt>
      <trkpt lat="45.33159" lon="6.31617">
        <ele>470</ele>
        <time>2016-07-21T02:21:36Z</time>
      </trkpt>
      <trkpt lat="45.33096" lon="6.31665">
        <ele>469</ele>
        <time>2016-07-21T02:23:36Z</time>
      </trkpt>
      <trkpt lat="45.33065" lon="6.31688">
        <ele>469</ele>
        <time>2016-07-21T02:25:36Z</time>
      </trkpt>
      <trkpt lat="45.33021" lon="6.3172">
        <ele>468</ele>
        <time>2016-07-21T02:27:36Z</time>
      </trkpt>
      <trkpt lat="45.32992" lon="6.31742">
        <ele>467</ele>
        <time>2016-07-21T02:29:36Z</time>
      </trkpt>
      <trkpt lat="45.32954" lon="6.3177">
        <ele>466</ele>
        <time>2016-07-21T02:31:36Z</time>
      </trkpt>
      <trkpt lat="45.32905" lon="6.31806">
        <ele>466</ele>
        <time>2016-07-21T02:33:36Z</time>
      </trkpt>
      <trkpt lat="45.32867" lon="6.31831">
        <ele>468</ele>
        <time>2016-07-21T02:35:36Z</time>
      </trkpt>
      <trkpt lat="45.32836" lon="6.3185">
        <ele>473</ele>
        <time>2016-07-21T02:37:36Z</time>
      </trkpt>
      <trkpt lat="45.32781" lon="6.31883">
        <ele>472</ele>
        <time>2016-07-21T02:39:36Z</time>
      </trkpt>
      <trkpt lat="45.32745" lon="6.31904">
        <ele>470</ele>
        <time>2016-07-21T02:41:36Z</time>
      </trkpt>
      <trkpt lat="45.32714" lon="6.3192">
        <ele>471</ele>
        <time>2016-07-21T02:43:36Z</time>
      </trkpt>
      <trkpt lat="45.32706" lon="6.31924">
        <ele>472</ele>
        <time>2016-07-21T02:45:36Z</time>
      </trkpt>
      <trkpt lat="45.32695" lon="6.31928">
        <ele>473</ele>
        <time>2016-07-21T02:47:36Z</time>
      </trkpt>
      <trkpt lat="45.3265" lon="6.31944">
        <ele>473</ele>
        <time>2016-07-21T02:49:36Z</time>
      </trkpt>
      <trkpt lat="45.32585" lon="6.31965">
        <ele>473</ele>
        <time>2016-07-21T02:51:36Z</time>
      </trkpt>
      <trkpt lat="45.32544" lon="6.31979">
        <ele>474</ele>
        <time>2016-07-21T02:53:36Z</time>
      </trkpt>
      <trkpt lat="45.32512" lon="6.31989">
        <ele>475</ele>
        <time>2016-07-21T02:55:36Z</time>
      </trkpt>
      <trkpt lat="45.32474" lon="6.32001">
        <ele>475</ele>
        <time>2016-07-21T02:57:36Z</time>
      </trkpt>
      <trkpt lat="45.32437" lon="6.32013">
        <ele>475</ele>
        <time>2016-07-21T02:59:36Z</time>
      </trkpt>
      <trkpt lat="45.32405" lon="6.32023">
        <ele>475</ele>
        <time>2016-07-21T03:01:36Z</time>
      </trkpt>
      <trkpt lat="45.32381" lon="6.32031">
        <ele>476</ele>
        <time>2016-07-21T03:03:36Z</time>
      </trkpt>
      <trkpt lat="45.32363" lon="6.32036">
        <ele>476</ele>
        <time>2016-07-21T03:05:36Z</time>
      </trkpt>
      <trkpt lat="45.32349" lon="6.3204">
        <ele>477</ele>
        <time>2016-07-21T03:07:36Z</time>
      </trkpt>
      <trkpt lat="45.32325" lon="6.32048">
        <ele>478</ele>
        <time>2016-07-21T03:09:36Z</time>
      </trkpt>
      <trkpt lat="45.32299" lon="6.32056">
        <ele>480</ele>
        <time>2016-07-21T03:11:36Z</time>
      </trkpt>
      <trkpt lat="45.32271" lon="6.32065">
        <ele>482</ele>
        <time>2016-07-21T03:13:36Z</time>
      </trkpt>
      <trkpt lat="45.32244" lon="6.32075">
        <ele>484</ele>
        <time>2016-07-21T03:15:36Z</time>
      </trkpt>
      <trkpt lat="45.32238" lon="6.32077">
        <ele>484</ele>
        <time>2016-07-21T03:17:36Z</time>
      </trkpt>
      <trkpt lat="45.32229" lon="6.32081">
        <ele>485</ele>
        <time>2016-07-21T03:19:36Z</time>
      </trkpt>
      <trkpt lat="45.32223" lon="6.32083">
        <ele>485</ele>
        <time>2016-07-21T03:21:36Z</time>
      </trkpt>
      <trkpt lat="45.32215" lon="6.32084">
        <ele>486</ele>
        <time>2016-07-21T03:23:36Z</time>
      </trkpt>
      <trkpt lat="45.32199" lon="6.32086">
        <ele>486</ele>
        <time>2016-07-21T03:25:36Z</time>
      </trkpt>
      <trkpt lat="45.32175" lon="6.32087">
        <ele>486</ele>
        <time>2016-07-21T03:27:36Z</time>
      </trkpt>
      <trkpt lat="45.32147" lon="6.32089">
        <ele>485</ele>
        <time>2016-07-21T03:29:36Z</time>
      </trkpt>
      <trkpt lat="45.32119" lon="6.3209">
        <ele>482</ele>
        <time>2016-07-21T03:31:36Z</time>
      </trkpt>
      <trkpt lat="45.32111" lon="6.32091">
        <ele>482</ele>
        <time>2016-07-21T03:33:36Z</time>
      </trkpt>
      <trkpt lat="45.321" lon="6.32092">
        <ele>481</ele>
        <time>2016-07-21T03:35:36Z</time>
      </trkpt>
      <trkpt lat="45.32093" lon="6.32092">
        <ele>480</ele>
        <time>2016-07-21T03:37:36Z</time>
      </trkpt>
      <trkpt lat="45.32088" lon="6.32093">
        <ele>480</ele>
        <time>2016-07-21T03:39:36Z</time>
      </trkpt>
      <trkpt lat="45.32083" lon="6.32094">
        <ele>479</ele>
        <time>2016-07-21T03:41:36Z</time>
      </trkpt>
      <trkpt lat="45.32079" lon="6.32096">
        <ele>480</ele>
        <time>2016-07-21T03:43:36Z</time>
      </trkpt>
      <trkpt lat="45.32075" lon="6.32097">
        <ele>480</ele>
        <time>2016-07-21T03:45:36Z</time>
      </trkpt>
      <trkpt lat="45.3207" lon="6.32099">
        <ele>481</ele>
        <time>2016-07-21T03:47:36Z</time>
      </trkpt>
      <trkpt lat="45.32064" lon="6.32102">
        <ele>481</ele>
        <time>2016-07-21T03:49:36Z</time>
      </trkpt>
      <trkpt lat="45.3206" lon="6.32105">
        <ele>482</ele>
        <time>2016-07-21T03:51:36Z</time>
      </trkpt>
      <trkpt lat="45.32056" lon="6.32109">
        <ele>482</ele>
        <time>2016-07-21T03:53:36Z</time>
      </trkpt>
      <trkpt lat="45.32053" lon="6.32112">
        <ele>483</ele>
        <time>2016-07-21T03:55:36Z</time>
      </trkpt>
      <trkpt lat="45.3205" lon="6.32115">
        <ele>483</ele>
        <time>2016-07-21T03:57:36Z</time>
      </trkpt>
      <trkpt lat="45.32047" lon="6.32119">
        <ele>483</ele>
        <time>2016-07-21T03:59:36Z</time>
      </trkpt>
      <trkpt lat="45.32043" lon="6.32123">
        <ele>483</ele>
        <time>2016-07-21T04:01:36Z</time>
      </trkpt>
      <trkpt lat="45.3204" lon="6.32129">
        <ele>483</ele>
        <time>2016-07-21T04:03:36Z</time>
      </trkpt>
      <trkpt lat="45.32035" lon="6.32137">
        <ele>483</ele>
        <time>2016-07-21T04:05:36Z</time>
      </trkpt>
      <trkpt lat="45.3203" lon="6.32148">
        <ele>483</ele>
        <time>2016-07-21T04:07:36Z</time>
      </trkpt>
      <trkpt lat="45.32024" lon="6.32165">
        <ele>482</ele>
        <time>2016-07-21T04:09:36Z</time>
      </trkpt>
      <trkpt lat="45.32017" lon="6.32189">
        <ele>484</ele>
        <time>2016-07-21T04:11:36Z</time>
      </trkpt>
      <trkpt lat="45.32011" lon="6.3221">
        <ele>485</ele>
        <time>2016-07-21T04:13:36Z</time>
      </trkpt>
      <trkpt lat="45.32005" lon="6.32233">
        <ele>487</ele>
        <time>2016-07-21T04:15:36Z</time>
      </trkpt>
      <trkpt lat="45.32003" lon="6.32243">
        <ele>487</ele>
        <time>2016-07-21T04:17:36Z</time>
      </trkpt>
      <trkpt lat="45.32001" lon="6.32252">
        <ele>487</ele>
        <time>2016-07-21T04:19:36Z</time>
      </trkpt>
      <trkpt lat="45.32001" lon="6.32259">
        <ele>487</ele>
        <time>2016-07-21T04:21:36Z</time>
      </trkpt>
      <trkpt lat="45.32" lon="6.32274">
        <ele>486</ele>
        <time>2016-07-21T04:23:36Z</time>
      </trkpt>
      <trkpt lat="45.31998" lon="6.32291">
        <ele>486</ele>
        <time>2016-07-21T04:25:36Z</time>
      </trkpt>
      <trkpt lat="45.31998" lon="6.32299">
        <ele>486</ele>
        <time>2016-07-21T04:27:36Z</time>
      </trkpt>
      <trkpt lat="45.31997" lon="6.32307">
        <ele>486</ele>
        <time>2016-07-21T04:29:36Z</time>
      </trkpt>
      <trkpt lat="45.31994" lon="6.3233">
        <ele>485</ele>
        <time>2016-07-21T04:31:36Z</time>
      </trkpt>
      <trkpt lat="45.31992" lon="6.32342">
        <ele>485</ele>
        <time>2016-07-21T04:33:36Z</time>
      </trkpt>
      <trkpt lat="45.31989" lon="6.32355">
        <ele>485</ele>
        <time>2016-07-21T04:35:36Z</time>
      </trkpt>
      <trkpt lat="45.31984" lon="6.32371">
        <ele>486</ele>
        <time>2016-07-21T04:37:36Z</time>
      </trkpt>
      <trkpt lat="45.31979" lon="6.32388">
        <ele>486</ele>
        <time>2016-07-21T04:39:36Z</time>
      </trkpt>
      <trkpt lat="45.31973" lon="6.32404">
        <ele>485</ele>
        <time>2016-07-21T04:41:36Z</time>
      </trkpt>
      <trkpt lat="45.31955" lon="6.32449">
        <ele>487</ele>
        <time>2016-07-21T04:43:36Z</time>
      </trkpt>
      <trkpt lat="45.31937" lon="6.32497">
        <ele>487</ele>
        <time>2016-07-21T04:45:36Z</time>
      </trkpt>
      <trkpt lat="45.31929" lon="6.3252">
        <ele>485</ele>
        <time>2016-07-21T04:47:36Z</time>
      </trkpt>
      <trkpt lat="45.3191" lon="6.3257">
        <ele>481</ele>
        <time>2016-07-21T04:49:36Z</time>
      </trkpt>
      <trkpt lat="45.31903" lon="6.32585">
        <ele>481</ele>
        <time>2016-07-21T04:51:36Z</time>
      </trkpt>
      <trkpt lat="45.31898" lon="6.32598">
        <ele>482</ele>
        <time>2016-07-21T04:53:36Z</time>
      </trkpt>
      <trkpt lat="45.31889" lon="6.32616">
        <ele>483</ele>
        <time>2016-07-21T04:55:36Z</time>
      </trkpt>
      <trkpt lat="45.31882" lon="6.32631">
        <ele>483</ele>
        <time>2016-07-21T04:57:36Z</time>
      </trkpt>
      <trkpt lat="45.3186" lon="6.32674">
        <ele>482</ele>
        <time>2016-07-21T04:59:36Z</time>
      </trkpt>
      <trkpt lat="45.31835" lon="6.3272">
        <ele>481</ele>
        <time>2016-07-21T05:01:36Z</time>
      </trkpt>
      <trkpt lat="45.31808" lon="6.32771">
        <ele>481</ele>
        <time>2016-07-21T05:03:36Z</time>
      </trkpt>
      <trkpt lat="45.31756" lon="6.32867">
        <ele>479</ele>
        <time>2016-07-21T05:05:36Z</time>
      </trkpt>
      <trkpt lat="45.31728" lon="6.32921">
        <ele>483</ele>
        <time>2016-07-21T05:07:36Z</time>
      </trkpt>
      <trkpt lat="45.31713" lon="6.32952">
        <ele>482</ele>
        <time>2016-07-21T05:09:36Z</time>
      </trkpt>
      <trkpt lat="45.31705" lon="6.32968">
        <ele>482</ele>
        <time>2016-07-21T05:11:36Z</time>
      </trkpt>
      <trkpt lat="45.31688" lon="6.33006">
        <ele>482</ele>
        <time>2016-07-21T05:13:36Z</time>
      </trkpt>
      <trkpt lat="45.31671" lon="6.33046">
        <ele>481</ele>
        <time>2016-07-21T05:15:36Z</time>
      </trkpt>
      <trkpt lat="45.31635" lon="6.33137">
        <ele>481</ele>
        <time>2016-07-21T05:17:36Z</time>
      </trkpt>
      <trkpt lat="45.31617" lon="6.33183">
        <ele>481</ele>
        <time>2016-07-21T05:19:36Z</time>
      </trkpt>
      <trkpt lat="45.31611" lon="6.33197">
        <ele>482</ele>
        <time>2016-07-21T05:21:36Z</time>
      </trkpt>
      <trkpt lat="45.31596" lon="6.33235">
        <ele>484</ele>
        <time>2016-07-21T05:23:36Z</time>
      </trkpt>
      <trkpt lat="45.31581" lon="6.33271">
        <ele>487</ele>
        <time>2016-07-21T05:25:36Z</time>
      </trkpt>
      <trkpt lat="45.3157" lon="6.33299">
        <ele>488</ele>
        <time>2016-07-21T05:27:36Z</time>
      </trkpt>
      <trkpt lat="45.31556" lon="6.33336">
        <ele>490</ele>
        <time>2016-07-21T05:29:36Z</time>
      </trkpt>
      <trkpt lat="45.3154" lon="6.33374">
        <ele>488</ele>
        <time>2016-07-21T05:31:36Z</time>
      </trkpt>
      <trkpt lat="45.31484" lon="6.33513">
        <ele>489</ele>
        <time>2016-07-21T05:33:36Z</time>
      </trkpt>
      <trkpt lat="45.31477" lon="6.33524">
        <ele>489</ele>
        <time>2016-07-21T05:35:36Z</time>
      </trkpt>
      <trkpt lat="45.31469" lon="6.33543">
        <ele>489</ele>
        <time>2016-07-21T05:37:36Z</time>
      </trkpt>
      <trkpt lat="45.31457" lon="6.33568">
        <ele>489</ele>
        <time>2016-07-21T05:39:36Z</time>
      </trkpt>
      <trkpt lat="45.31457" lon="6.3357">
        <ele>489</ele>
        <time>2016-07-21T05:41:36Z</time>
      </trkpt>
      <trkpt lat="45.31425" lon="6.33638">
        <ele>489</ele>
        <time>2016-07-21T05:43:36Z</time>
      </trkpt>
      <trkpt lat="45.3142" lon="6.33649">
        <ele>490</ele>
        <time>2016-07-21T05:45:36Z</time>
      </trkpt>
      <trkpt lat="45.31415" lon="6.3366">
        <ele>490</ele>
        <time>2016-07-21T05:47:36Z</time>
      </trkpt>
      <trkpt lat="45.31402" lon="6.33687">
        <ele>490</ele>
        <time>2016-07-21T05:49:36Z</time>
      </trkpt>
      <trkpt lat="45.31393" lon="6.33706">
        <ele>490</ele>
        <time>2016-07-21T05:51:36Z</time>
      </trkpt>
      <trkpt lat="45.31382" lon="6.33726">
        <ele>490</ele>
        <time>2016-07-21T05:53:36Z</time>
      </trkpt>
      <trkpt lat="45.31375" lon="6.3374">
        <ele>491</ele>
        <time>2016-07-21T05:55:36Z</time>
      </trkpt>
      <trkpt lat="45.31365" lon="6.33759">
        <ele>492</ele>
        <time>2016-07-21T05:57:36Z</time>
      </trkpt>
      <trkpt lat="45.3135" lon="6.33786">
        <ele>494</ele>
        <time>2016-07-21T05:59:36Z</time>
      </trkpt>
      <trkpt lat="45.31329" lon="6.33825">
        <ele>498</ele>
        <time>2016-07-21T06:01:36Z</time>
      </trkpt>
      <trkpt lat="45.31319" lon="6.33843">
        <ele>497</ele>
        <time>2016-07-21T06:03:36Z</time>
      </trkpt>
      <trkpt lat="45.31312" lon="6.3386">
        <ele>496</ele>
        <time>2016-07-21T06:05:36Z</time>
      </trkpt>
      <trkpt lat="45.31296" lon="6.33885">
        <ele>494</ele>
        <time>2016-07-21T06:07:36Z</time>
      </trkpt>
      <trkpt lat="45.31292" lon="6.33891">
        <ele>494</ele>
        <time>2016-07-21T06:09:36Z</time>
      </trkpt>
      <trkpt lat="45.31288" lon="6.33898">
        <ele>493</ele>
        <time>2016-07-21T06:11:36Z</time>
      </trkpt>
      <trkpt lat="45.31273" lon="6.33921">
        <ele>493</ele>
        <time>2016-07-21T06:13:36Z</time>
      </trkpt>
      <trkpt lat="45.31269" lon="6.33927">
        <ele>493</ele>
        <time>2016-07-21T06:15:36Z</time>
      </trkpt>
      <trkpt lat="45.31253" lon="6.33951">
        <ele>494</ele>
        <time>2016-07-21T06:17:36Z</time>
      </trkpt>
      <trkpt lat="45.3124" lon="6.33968">
        <ele>494</ele>
        <time>2016-07-21T06:19:36Z</time>
      </trkpt>
      <trkpt lat="45.31229" lon="6.33984">
        <ele>495</ele>
        <time>2016-07-21T06:21:36Z</time>
      </trkpt>
      <trkpt lat="45.31212" lon="6.34005">
        <ele>495</ele>
        <time>2016-07-21T06:23:36Z</time>
      </trkpt>
      <trkpt lat="45.31201" lon="6.34019">
        <ele>495</ele>
        <time>2016-07-21T06:25:36Z</time>
      </trkpt>
      <trkpt lat="45.31188" lon="6.34035">
        <ele>496</ele>
        <time>2016-07-21T06:27:36Z</time>
      </trkpt>
      <trkpt lat="45.31183" lon="6.3404">
        <ele>496</ele>
        <time>2016-07-21T06:29:36Z</time>
      </trkpt>
      <trkpt lat="45.31168" lon="6.34057">
        <ele>497</ele>
        <time>2016-07-21T06:31:36Z</time>
      </trkpt>
      <trkpt lat="45.31165" lon="6.3406">
        <ele>497</ele>
        <time>2016-07-21T06:33:36Z</time>
      </trkpt>
      <trkpt lat="45.31143" lon="6.34084">
        <ele>497</ele>
        <time>2016-07-21T06:35:36Z</time>
      </trkpt>
      <trkpt lat="45.31127" lon="6.34103">
        <ele>497</ele>
        <time>2016-07-21T06:37:36Z</time>
      </trkpt>
      <trkpt lat="45.3109" lon="6.34144">
        <ele>496</ele>
        <time>2016-07-21T06:39:36Z</time>
      </trkpt>
      <trkpt lat="45.31073" lon="6.34164">
        <ele>496</ele>
        <time>2016-07-21T06:41:36Z</time>
      </trkpt>
      <trkpt lat="45.31053" lon="6.34186">
        <ele>497</ele>
        <time>2016-07-21T06:43:36Z</time>
      </trkpt>
      <trkpt lat="45.30995" lon="6.34252">
        <ele>498</ele>
        <time>2016-07-21T06:45:36Z</time>
      </trkpt>
      <trkpt lat="45.30953" lon="6.34299">
        <ele>499</ele>
        <time>2016-07-21T06:47:36Z</time>
      </trkpt>
      <trkpt lat="45.30769" lon="6.34507">
        <ele>498</ele>
        <time>2016-07-21T06:49:36Z</time>
      </trkpt>
      <trkpt lat="45.3074" lon="6.34539">
        <ele>498</ele>
        <time>2016-07-21T06:51:36Z</time>
      </trkpt>
      <trkpt lat="45.30676" lon="6.34613">
        <ele>497</ele>
        <time>2016-07-21T06:53:36Z</time>
      </trkpt>
      <trkpt lat="45.30593" lon="6.34707">
        <ele>500</ele>
        <time>2016-07-21T06:55:36Z</time>
      </trkpt>
      <trkpt lat="45.30538" lon="6.34769">
        <ele>500</ele>
        <time>2016-07-21T06:57:36Z</time>
      </trkpt>
      <trkpt lat="45.3049" lon="6.34824">
        <ele>502</ele>
        <time>2016-07-21T06:59:36Z</time>
      </trkpt>
      <trkpt lat="45.30442" lon="6.34878">
        <ele>503</ele>
        <time>2016-07-21T07:01:36Z</time>
      </trkpt>
      <trkpt lat="45.30399" lon="6.34925">
        <ele>504</ele>
        <time>2016-07-21T07:03:36Z</time>
      </trkpt>
      <trkpt lat="45.30274" lon="6.35066">
        <ele>501</ele>
        <time>2016-07-21T07:05:36Z</time>
      </trkpt>
      <trkpt lat="45.30199" lon="6.35149">
        <ele>506</ele>
        <time>2016-07-21T07:07:36Z</time>
      </trkpt>
      <trkpt lat="45.30181" lon="6.35169">
        <ele>504</ele>
        <time>2016-07-21T07:09:36Z</time>
      </trkpt>
      <trkpt lat="45.3017" lon="6.3518">
        <ele>505</ele>
        <time>2016-07-21T07:11:36Z</time>
      </trkpt>
      <trkpt lat="45.30158" lon="6.35192">
        <ele>506</ele>
        <time>2016-07-21T07:13:36Z</time>
      </trkpt>
      <trkpt lat="45.30146" lon="6.35203">
        <ele>507</ele>
        <time>2016-07-21T07:15:36Z</time>
      </trkpt>
      <trkpt lat="45.30128" lon="6.35218">
        <ele>508</ele>
        <time>2016-07-21T07:17:36Z</time>
      </trkpt>
      <trkpt lat="45.30113" lon="6.3523">
        <ele>508</ele>
        <time>2016-07-21T07:19:36Z</time>
      </trkpt>
      <trkpt lat="45.30098" lon="6.35243">
        <ele>508</ele>
        <time>2016-07-21T07:21:36Z</time>
      </trkpt>
      <trkpt lat="45.30072" lon="6.35263">
        <ele>509</ele>
        <time>2016-07-21T07:23:36Z</time>
      </trkpt>
      <trkpt lat="45.30057" lon="6.35275">
        <ele>509</ele>
        <time>2016-07-21T07:25:36Z</time>
      </trkpt>
      <trkpt lat="45.30038" lon="6.35289">
        <ele>509</ele>
        <time>2016-07-21T07:27:36Z</time>
      </trkpt>
      <trkpt lat="45.3002" lon="6.35302">
        <ele>509</ele>
        <time>2016-07-21T07:29:36Z</time>
      </trkpt>
      <trkpt lat="45.30012" lon="6.35308">
        <ele>508</ele>
        <time>2016-07-21T07:31:36Z</time>
      </trkpt>
      <trkpt lat="45.3" lon="6.35316">
        <ele>508</ele>
        <time>2016-07-21T07:33:36Z</time>
      </trkpt>
      <trkpt lat="45.29989" lon="6.35322">
        <ele>508</ele>
        <time>2016-07-21T07:35:36Z</time>
      </trkpt>
      <trkpt lat="45.29969" lon="6.35335">
        <ele>508</ele>
        <time>2016-07-21T07:37:36Z</time>
      </trkpt>
      <trkpt lat="45.29923" lon="6.35362">
        <ele>510</ele>
        <time>2016-07-21T07:39:36Z</time>
      </trkpt>
      <trkpt lat="45.29867" lon="6.35394">
        <ele>513</ele>
        <time>2016-07-21T07:41:36Z</time>
      </trkpt>
      <trkpt lat="45.29829" lon="6.35415">
        <ele>514</ele>
        <time>2016-07-21T07:43:36Z</time>
      </trkpt>
      <trkpt lat="45.29809" lon="6.35424">
        <ele>514</ele>
        <time>2016-07-21T07:45:36Z</time>
      </trkpt>
      <trkpt lat="45.29784" lon="6.35436">
        <ele>514</ele>
        <time>2016-07-21T07:47:36Z</time>
      </trkpt>
      <trkpt lat="45.29778" lon="6.35439">
        <ele>514</ele>
        <time>2016-07-21T07:49:36Z</time>
      </trkpt>
      <trkpt lat="45.29742" lon="6.35454">
        <ele>514</ele>
        <time>2016-07-21T07:51:36Z</time>
      </trkpt>
      <trkpt lat="45.29722" lon="6.35462">
        <ele>514</ele>
        <time>2016-07-21T07:53:36Z</time>
      </trkpt>
      <trkpt lat="45.2972" lon="6.35462">
        <ele>514</ele>
        <time>2016-07-21T07:55:36Z</time>
      </trkpt>
      <trkpt lat="45.29659" lon="6.35483">
        <ele>516</ele>
        <time>2016-07-21T07:57:36Z</time>
      </trkpt>
      <trkpt lat="45.29648" lon="6.35486">
        <ele>516</ele>
        <time>2016-07-21T07:59:36Z</time>
      </trkpt>
      <trkpt lat="45.29638" lon="6.35489">
        <ele>517</ele>
        <time>2016-07-21T08:01:36Z</time>
      </trkpt>
      <trkpt lat="45.29618" lon="6.35494">
        <ele>517</ele>
        <time>2016-07-21T08:03:36Z</time>
      </trkpt>
      <trkpt lat="45.29606" lon="6.35497">
        <ele>518</ele>
        <time>2016-07-21T08:05:36Z</time>
      </trkpt>
      <trkpt lat="45.29591" lon="6.355">
        <ele>518</ele>
        <time>2016-07-21T08:07:36Z</time>
      </trkpt>
      <trkpt lat="45.29577" lon="6.35503">
        <ele>518</ele>
        <time>2016-07-21T08:09:36Z</time>
      </trkpt>
      <trkpt lat="45.29563" lon="6.35506">
        <ele>518</ele>
        <time>2016-07-21T08:11:36Z</time>
      </trkpt>
      <trkpt lat="45.29552" lon="6.35507">
        <ele>518</ele>
        <time>2016-07-21T08:13:36Z</time>
      </trkpt>
      <trkpt lat="45.29537" lon="6.35509">
        <ele>518</ele>
        <time>2016-07-21T08:15:36Z</time>
      </trkpt>
      <trkpt lat="45.29519" lon="6.3551">
        <ele>517</ele>
        <time>2016-07-21T08:17:36Z</time>
      </trkpt>
      <trkpt lat="45.29501" lon="6.35512">
        <ele>517</ele>
        <time>2016-07-21T08:19:36Z</time>
      </trkpt>
      <trkpt lat="45.29476" lon="6.35513">
        <ele>517</ele>
        <time>2016-07-21T08:21:36Z</time>
      </trkpt>
      <trkpt lat="45.29455" lon="6.35513">
        <ele>518</ele>
        <time>2016-07-21T08:23:36Z</time>
      </trkpt>
      <trkpt lat="45.29439" lon="6.35513">
        <ele>518</ele>
        <time>2016-07-21T08:25:36Z</time>
      </trkpt>
      <trkpt lat="45.29421" lon="6.35513">
        <ele>518</ele>
        <time>2016-07-21T08:27:36Z</time>
      </trkpt>
      <trkpt lat="45.29407" lon="6.35512">
        <ele>518</ele>
        <time>2016-07-21T08:29:36Z</time>
      </trkpt>
      <trkpt lat="45.29385" lon="6.35511">
        <ele>519</ele>
        <time>2016-07-21T08:31:36Z</time>
      </trkpt>
      <trkpt lat="45.29361" lon="6.35508">
        <ele>519</ele>
        <time>2016-07-21T08:33:36Z</time>
      </trkpt>
      <trkpt lat="45.29281" lon="6.35498">
        <ele>521</ele>
        <time>2016-07-21T08:35:36Z</time>
      </trkpt>
      <trkpt lat="45.29239" lon="6.35493">
        <ele>523</ele>
        <time>2016-07-21T08:37:36Z</time>
      </trkpt>
      <trkpt lat="45.29225" lon="6.35491">
        <ele>523</ele>
        <time>2016-07-21T08:39:36Z</time>
      </trkpt>
      <trkpt lat="45.29211" lon="6.3549">
        <ele>524</ele>
        <time>2016-07-21T08:41:36Z</time>
      </trkpt>
      <trkpt lat="45.29072" lon="6.35474">
        <ele>521</ele>
        <time>2016-07-21T08:43:36Z</time>
      </trkpt>
      <trkpt lat="45.29023" lon="6.35469">
        <ele>520</ele>
        <time>2016-07-21T08:45:36Z</time>
      </trkpt>
      <trkpt lat="45.28996" lon="6.35465">
        <ele>520</ele>
        <time>2016-07-21T08:47:36Z</time>
      </trkpt>
      <trkpt lat="45.28961" lon="6.3546">
        <ele>519</ele>
        <time>2016-07-21T08:49:36Z</time>
      </trkpt>
      <trkpt lat="45.28939" lon="6.35456">
        <ele>519</ele>
        <time>2016-07-21T08:51:36Z</time>
      </trkpt>
      <trkpt lat="45.28918" lon="6.35452">
        <ele>518</ele>
        <time>2016-07-21T08:53:36Z</time>
      </trkpt>
      <trkpt lat="45.28899" lon="6.35448">
        <ele>519</ele>
        <time>2016-07-21T08:55:36Z</time>
      </trkpt>
      <trkpt lat="45.2887" lon="6.3544">
        <ele>519</ele>
        <time>2016-07-21T08:57:36Z</time>
      </trkpt>
      <trkpt lat="45.28838" lon="6.3543">
        <ele>520</ele>
        <time>2016-07-21T08:59:36Z</time>
      </trkpt>
      <trkpt lat="45.2882" lon="6.35424">
        <ele>520</ele>
        <time>2016-07-21T09:01:36Z</time>
      </trkpt>
      <trkpt lat="45.28799" lon="6.35418">
        <ele>520</ele>
        <time>2016-07-21T09:03:36Z</time>
      </trkpt>
      <trkpt lat="45.2879" lon="6.35415">
        <ele>520</ele>
        <time>2016-07-21T09:05:36Z</time>
      </trkpt>
      <trkpt lat="45.28778" lon="6.35412">
        <ele>520</ele>
        <time>2016-07-21T09:07:36Z</time>
      </trkpt>
      <trkpt lat="45.28768" lon="6.35409">
        <ele>520</ele>
        <time>2016-07-21T09:09:36Z</time>
      </trkpt>
      <trkpt lat="45.28758" lon="6.35408">
        <ele>520</ele>
        <time>2016-07-21T09:11:36Z</time>
      </trkpt>
      <trkpt lat="45.28747" lon="6.35406">
        <ele>520</ele>
        <time>2016-07-21T09:13:36Z</time>
      </trkpt>
      <trkpt lat="45.28736" lon="6.35405">
        <ele>520</ele>
        <time>2016-07-21T09:15:36Z</time>
      </trkpt>
      <trkpt lat="45.28724" lon="6.35405">
        <ele>520</ele>
        <time>2016-07-21T09:17:36Z</time>
      </trkpt>
      <trkpt lat="45.28706" lon="6.35406">
        <ele>521</ele>
        <time>2016-07-21T09:19:36Z</time>
      </trkpt>
      <trkpt lat="45.28693" lon="6.35408">
        <ele>521</ele>
        <time>2016-07-21T09:21:36Z</time>
      </trkpt>
      <trkpt lat="45.28685" lon="6.35409">
        <ele>521</ele>
        <time>2016-07-21T09:23:36Z</time>
      </trkpt>
      <trkpt lat="45.28675" lon="6.35411">
        <ele>522</ele>
        <time>2016-07-21T09:25:36Z</time>
      </trkpt>
      <trkpt lat="45.28665" lon="6.35414">
        <ele>522</ele>
        <time>2016-07-21T09:27:36Z</time>
      </trkpt>
      <trkpt lat="45.28654" lon="6.35418">
        <ele>522</ele>
        <time>2016-07-21T09:29:36Z</time>
      </trkpt>
      <trkpt lat="45.28636" lon="6.35426">
        <ele>522</ele>
        <time>2016-07-21T09:31:36Z</time>
      </trkpt>
      <trkpt lat="45.28624" lon="6.35432">
        <ele>523</ele>
        <time>2016-07-21T09:33:36Z</time>
      </trkpt>
      <trkpt lat="45.28597" lon="6.35446">
        <ele>523</ele>
        <time>2016-07-21T09:35:36Z</time>
      </trkpt>
      <trkpt lat="45.28577" lon="6.35456">
        <ele>523</ele>
        <time>2016-07-21T09:37:36Z</time>
      </trkpt>
      <trkpt lat="45.2855" lon="6.3547">
        <ele>523</ele>
        <time>2016-07-21T09:39:36Z</time>
      </trkpt>
      <trkpt lat="45.28521" lon="6.35485">
        <ele>523</ele>
        <time>2016-07-21T09:41:36Z</time>
      </trkpt>
      <trkpt lat="45.28493" lon="6.355">
        <ele>523</ele>
        <time>2016-07-21T09:43:36Z</time>
      </trkpt>
      <trkpt lat="45.28467" lon="6.35514">
        <ele>522</ele>
        <time>2016-07-21T09:45:36Z</time>
      </trkpt>
      <trkpt lat="45.2843" lon="6.35533">
        <ele>522</ele>
        <time>2016-07-21T09:47:36Z</time>
      </trkpt>
      <trkpt lat="45.28411" lon="6.35543">
        <ele>522</ele>
        <time>2016-07-21T09:49:36Z</time>
      </trkpt>
      <trkpt lat="45.28389" lon="6.35555">
        <ele>523</ele>
        <time>2016-07-21T09:51:36Z</time>
      </trkpt>
      <trkpt lat="45.28367" lon="6.35567">
        <ele>524</ele>
        <time>2016-07-21T09:53:36Z</time>
      </trkpt>
      <trkpt lat="45.28341" lon="6.3558">
        <ele>526</ele>
        <time>2016-07-21T09:55:36Z</time>
      </trkpt>
      <trkpt lat="45.28315" lon="6.35594">
        <ele>525</ele>
        <time>2016-07-21T09:57:36Z</time>
      </trkpt>
      <trkpt lat="45.28284" lon="6.3561">
        <ele>525</ele>
        <time>2016-07-21T09:59:36Z</time>
      </trkpt>
      <trkpt lat="45.28261" lon="6.35623">
        <ele>524</ele>
        <time>2016-07-21T10:01:36Z</time>
      </trkpt>
      <trkpt lat="45.28247" lon="6.3563">
        <ele>524</ele>
        <time>2016-07-21T10:03:36Z</time>
      </trkpt>
      <trkpt lat="45.28222" lon="6.35642">
        <ele>525</ele>
        <time>2016-07-21T10:05:36Z</time>
      </trkpt>
      <trkpt lat="45.28205" lon="6.35648">
        <ele>526</ele>
        <time>2016-07-21T10:07:36Z</time>
      </trkpt>
      <trkpt lat="45.28192" lon="6.35653">
        <ele>527</ele>
        <time>2016-07-21T10:09:36Z</time>
      </trkpt>
      <trkpt lat="45.28179" lon="6.35658">
        <ele>528</ele>
        <time>2016-07-21T10:11:36Z</time>
      </trkpt>
      <trkpt lat="45.28165" lon="6.35662">
        <ele>529</ele>
        <time>2016-07-21T10:13:36Z</time>
      </trkpt>
      <trkpt lat="45.28153" lon="6.35665">
        <ele>529</ele>
        <time>2016-07-21T10:15:36Z</time>
      </trkpt>
      <trkpt lat="45.28139" lon="6.35669">
        <ele>529</ele>
        <time>2016-07-21T10:17:36Z</time>
      </trkpt>
      <trkpt lat="45.28127" lon="6.35671">
        <ele>529</ele>
        <time>2016-07-21T10:19:36Z</time>
      </trkpt>
      <trkpt lat="45.28117" lon="6.35672">
        <ele>529</ele>
        <time>2016-07-21T10:21:36Z</time>
      </trkpt>
      <trkpt lat="45.28106" lon="6.35672">
        <ele>529</ele>
        <time>2016-07-21T10:23:36Z</time>
      </trkpt>
      <trkpt lat="45.281" lon="6.35671">
        <ele>529</ele>
        <time>2016-07-21T10:25:36Z</time>
      </trkpt>
      <trkpt lat="45.28092" lon="6.3567">
        <ele>528</ele>
        <time>2016-07-21T10:27:36Z</time>
      </trkpt>
      <trkpt lat="45.28085" lon="6.35668">
        <ele>528</ele>
        <time>2016-07-21T10:29:36Z</time>
      </trkpt>
      <trkpt lat="45.28076" lon="6.35666">
        <ele>528</ele>
        <time>2016-07-21T10:31:36Z</time>
      </trkpt>
      <trkpt lat="45.28066" lon="6.35663">
        <ele>528</ele>
        <time>2016-07-21T10:33:36Z</time>
      </trkpt>
      <trkpt lat="45.28054" lon="6.3566">
        <ele>528</ele>
        <time>2016-07-21T10:35:36Z</time>
      </trkpt>
      <trkpt lat="45.28045" lon="6.35657">
        <ele>528</ele>
        <time>2016-07-21T10:37:36Z</time>
      </trkpt>
      <trkpt lat="45.2804" lon="6.35656">
        <ele>528</ele>
        <time>2016-07-21T10:39:36Z</time>
      </trkpt>
      <trkpt lat="45.28033" lon="6.35655">
        <ele>528</ele>
        <time>2016-07-21T10:41:36Z</time>
      </trkpt>
      <trkpt lat="45.28024" lon="6.35655">
        <ele>528</ele>
        <time>2016-07-21T10:43:36Z</time>
      </trkpt>
      <trkpt lat="45.28017" lon="6.35655">
        <ele>528</ele>
        <time>2016-07-21T10:45:36Z</time>
      </trkpt>
      <trkpt lat="45.28011" lon="6.35655">
        <ele>528</ele>
        <time>2016-07-21T10:47:36Z</time>
      </trkpt>
      <trkpt lat="45.28004" lon="6.35657">
        <ele>528</ele>
        <time>2016-07-21T10:49:36Z</time>
      </trkpt>
      <trkpt lat="45.27996" lon="6.35659">
        <ele>528</ele>
        <time>2016-07-21T10:51:36Z</time>
      </trkpt>
      <trkpt lat="45.27985" lon="6.35664">
        <ele>529</ele>
        <time>2016-07-21T10:53:36Z</time>
      </trkpt>
      <trkpt lat="45.27975" lon="6.35668">
        <ele>529</ele>
        <time>2016-07-21T10:55:36Z</time>
      </trkpt>
      <trkpt lat="45.27966" lon="6.35674">
        <ele>529</ele>
        <time>2016-07-21T10:57:36Z</time>
      </trkpt>
      <trkpt lat="45.27957" lon="6.35679">
        <ele>530</ele>
        <time>2016-07-21T10:59:36Z</time>
      </trkpt>
      <trkpt lat="45.27951" lon="6.35683">
        <ele>530</ele>
        <time>2016-07-21T11:01:36Z</time>
      </trkpt>
      <trkpt lat="45.27944" lon="6.35688">
        <ele>530</ele>
        <time>2016-07-21T11:03:36Z</time>
      </trkpt>
      <trkpt lat="45.27929" lon="6.357">
        <ele>531</ele>
        <time>2016-07-21T11:05:36Z</time>
      </trkpt>
      <trkpt lat="45.27919" lon="6.3571">
        <ele>532</ele>
        <time>2016-07-21T11:07:36Z</time>
      </trkpt>
      <trkpt lat="45.27909" lon="6.3572">
        <ele>533</ele>
        <time>2016-07-21T11:09:36Z</time>
      </trkpt>
      <trkpt lat="45.279" lon="6.3573">
        <ele>534</ele>
        <time>2016-07-21T11:11:36Z</time>
      </trkpt>
      <trkpt lat="45.27833" lon="6.35797">
        <ele>539</ele>
        <time>2016-07-21T11:13:36Z</time>
      </trkpt>
      <trkpt lat="45.27777" lon="6.35853">
        <ele>539</ele>
        <time>2016-07-21T11:15:36Z</time>
      </trkpt>
      <trkpt lat="45.27734" lon="6.35896">
        <ele>540</ele>
        <time>2016-07-21T11:17:36Z</time>
      </trkpt>
      <trkpt lat="45.27725" lon="6.35903">
        <ele>540</ele>
        <time>2016-07-21T11:19:36Z</time>
      </trkpt>
      <trkpt lat="45.2772" lon="6.35908">
        <ele>539</ele>
        <time>2016-07-21T11:21:36Z</time>
      </trkpt>
      <trkpt lat="45.27714" lon="6.35913">
        <ele>539</ele>
        <time>2016-07-21T11:23:36Z</time>
      </trkpt>
      <trkpt lat="45.27709" lon="6.35916">
        <ele>539</ele>
        <time>2016-07-21T11:25:36Z</time>
      </trkpt>
      <trkpt lat="45.27702" lon="6.35921">
        <ele>538</ele>
        <time>2016-07-21T11:27:36Z</time>
      </trkpt>
      <trkpt lat="45.27697" lon="6.35924">
        <ele>537</ele>
        <time>2016-07-21T11:29:36Z</time>
      </trkpt>
      <trkpt lat="45.27693" lon="6.35926">
        <ele>537</ele>
        <time>2016-07-21T11:31:36Z</time>
      </trkpt>
      <trkpt lat="45.27688" lon="6.35928">
        <ele>537</ele>
        <time>2016-07-21T11:33:36Z</time>
      </trkpt>
      <trkpt lat="45.2768" lon="6.35928">
        <ele>536</ele>
        <time>2016-07-21T11:35:36Z</time>
      </trkpt>
      <trkpt lat="45.27673" lon="6.3593">
        <ele>535</ele>
        <time>2016-07-21T11:37:36Z</time>
      </trkpt>
      <trkpt lat="45.27669" lon="6.35931">
        <ele>535</ele>
        <time>2016-07-21T11:39:36Z</time>
      </trkpt>
      <trkpt lat="45.27664" lon="6.35932">
        <ele>535</ele>
        <time>2016-07-21T11:41:36Z</time>
      </trkpt>
      <trkpt lat="45.27648" lon="6.35933">
        <ele>535</ele>
        <time>2016-07-21T11:43:36Z</time>
      </trkpt>
      <trkpt lat="45.2763" lon="6.35936">
        <ele>535</ele>
        <time>2016-07-21T11:45:36Z</time>
      </trkpt>
      <trkpt lat="45.27628" lon="6.35936">
        <ele>535</ele>
        <time>2016-07-21T11:47:36Z</time>
      </trkpt>
      <trkpt lat="45.27605" lon="6.35941">
        <ele>535</ele>
        <time>2016-07-21T11:49:36Z</time>
      </trkpt>
      <trkpt lat="45.27589" lon="6.35944">
        <ele>535</ele>
        <time>2016-07-21T11:51:36Z</time>
      </trkpt>
      <trkpt lat="45.27578" lon="6.35947">
        <ele>535</ele>
        <time>2016-07-21T11:53:36Z</time>
      </trkpt>
      <trkpt lat="45.27571" lon="6.35951">
        <ele>535</ele>
        <time>2016-07-21T11:55:36Z</time>
      </trkpt>
      <trkpt lat="45.27564" lon="6.35956">
        <ele>535</ele>
        <time>2016-07-21T11:57:36Z</time>
      </trkpt>
      <trkpt lat="45.27558" lon="6.3596">
        <ele>536</ele>
        <time>2016-07-21T11:59:36Z</time>
      </trkpt>
      <trkpt lat="45.27555" lon="6.35963">
        <ele>536</ele>
        <time>2016-07-21T12:01:36Z</time>
      </trkpt>
      <trkpt lat="45.27551" lon="6.35967">
        <ele>536</ele>
        <time>2016-07-21T12:03:36Z</time>
      </trkpt>
      <trkpt lat="45.27548" lon="6.35972">
        <ele>536</ele>
        <time>2016-07-21T12:05:36Z</time>
      </trkpt>
      <trkpt lat="45.27543" lon="6.35979">
        <ele>536</ele>
        <time>2016-07-21T12:07:36Z</time>
      </trkpt>
      <trkpt lat="45.27537" lon="6.35991">
        <ele>536</ele>
        <time>2016-07-21T12:09:36Z</time>
      </trkpt>
      <trkpt lat="45.27531" lon="6.36">
        <ele>536</ele>
        <time>2016-07-21T12:11:36Z</time>
      </trkpt>
      <trkpt lat="45.27531" lon="6.36006">
        <ele>536</ele>
        <time>2016-07-21T12:13:36Z</time>
      </trkpt>
      <trkpt lat="45.27527" lon="6.36015">
        <ele>537</ele>
        <time>2016-07-21T12:15:36Z</time>
      </trkpt>
      <trkpt lat="45.27505" lon="6.36061">
        <ele>537</ele>
        <time>2016-07-21T12:17:36Z</time>
      </trkpt>
      <trkpt lat="45.27472" lon="6.36129">
        <ele>536</ele>
        <time>2016-07-21T12:19:36Z</time>
      </trkpt>
      <trkpt lat="45.27461" lon="6.36152">
        <ele>536</ele>
        <time>2016-07-21T12:21:36Z</time>
      </trkpt>
      <trkpt lat="45.2743" lon="6.36218">
        <ele>538</ele>
        <time>2016-07-21T12:23:36Z</time>
      </trkpt>
      <trkpt lat="45.27385" lon="6.3631">
        <ele>538</ele>
        <time>2016-07-21T12:25:36Z</time>
      </trkpt>
      <trkpt lat="45.27347" lon="6.36391">
        <ele>538</ele>
        <time>2016-07-21T12:27:36Z</time>
      </trkpt>
      <trkpt lat="45.27328" lon="6.36428">
        <ele>539</ele>
        <time>2016-07-21T12:29:36Z</time>
      </trkpt>
      <trkpt lat="45.27258" lon="6.36573">
        <ele>538</ele>
        <time>2016-07-21T12:31:36Z</time>
      </trkpt>
      <trkpt lat="45.27222" lon="6.36645">
        <ele>538</ele>
        <time>2016-07-21T12:33:36Z</time>
      </trkpt>
      <trkpt lat="45.27183" lon="6.36729">
        <ele>539</ele>
        <time>2016-07-21T12:35:36Z</time>
      </trkpt>
      <trkpt lat="45.27144" lon="6.3681">
        <ele>539</ele>
        <time>2016-07-21T12:37:36Z</time>
      </trkpt>
      <trkpt lat="45.27109" lon="6.36885">
        <ele>539</ele>
        <time>2016-07-21T12:39:36Z</time>
      </trkpt>
      <trkpt lat="45.27091" lon="6.36926">
        <ele>539</ele>
        <time>2016-07-21T12:41:36Z</time>
      </trkpt>
      <trkpt lat="45.27049" lon="6.37023">
        <ele>541</ele>
        <time>2016-07-21T12:43:36Z</time>
      </trkpt>
      <trkpt lat="45.27028" lon="6.37062">
        <ele>542</ele>
        <time>2016-07-21T12:45:36Z</time>
      </trkpt>
      <trkpt lat="45.26966" lon="6.37184">
        <ele>545</ele>
        <time>2016-07-21T12:47:36Z</time>
      </trkpt>
      <trkpt lat="45.26927" lon="6.37267">
        <ele>545</ele>
        <time>2016-07-21T12:49:36Z</time>
      </trkpt>
      <trkpt lat="45.26886" lon="6.37351">
        <ele>544</ele>
        <time>2016-07-21T12:51:36Z</time>
      </trkpt>
      <trkpt lat="45.26846" lon="6.37436">
        <ele>546</ele>
        <time>2016-07-21T12:53:36Z</time>
      </trkpt>
      <trkpt lat="45.26804" lon="6.37524">
        <ele>550</ele>
        <time>2016-07-21T12:55:36Z</time>
      </trkpt>
      <trkpt lat="45.26785" lon="6.37565">
        <ele>550</ele>
        <time>2016-07-21T12:57:36Z</time>
      </trkpt>
      <trkpt lat="45.26773" lon="6.37591">
        <ele>550</ele>
        <time>2016-07-21T12:59:36Z</time>
      </trkpt>
      <trkpt lat="45.26767" lon="6.37606">
        <ele>550</ele>
        <time>2016-07-21T13:01:36Z</time>
      </trkpt>
      <trkpt lat="45.26761" lon="6.37621">
        <ele>550</ele>
        <time>2016-07-21T13:03:36Z</time>
      </trkpt>
      <trkpt lat="45.26755" lon="6.37642">
        <ele>550</ele>
        <time>2016-07-21T13:05:36Z</time>
      </trkpt>
      <trkpt lat="45.26752" lon="6.37659">
        <ele>550</ele>
        <time>2016-07-21T13:07:36Z</time>
      </trkpt>
      <trkpt lat="45.2675" lon="6.37678">
        <ele>550</ele>
        <time>2016-07-21T13:09:36Z</time>
      </trkpt>
      <trkpt lat="45.26747" lon="6.37707">
        <ele>550</ele>
        <time>2016-07-21T13:11:36Z</time>
      </trkpt>
      <trkpt lat="45.26742" lon="6.37763">
        <ele>551</ele>
        <time>2016-07-21T13:13:36Z</time>
      </trkpt>
      <trkpt lat="45.2674" lon="6.37785">
        <ele>552</ele>
        <time>2016-07-21T13:15:36Z</time>
      </trkpt>
      <trkpt lat="45.26737" lon="6.37808">
        <ele>553</ele>
        <time>2016-07-21T13:17:36Z</time>
      </trkpt>
      <trkpt lat="45.26734" lon="6.37828">
        <ele>553</ele>
        <time>2016-07-21T13:19:36Z</time>
      </trkpt>
      <trkpt lat="45.26728" lon="6.37856">
        <ele>553</ele>
        <time>2016-07-21T13:21:36Z</time>
      </trkpt>
      <trkpt lat="45.26715" lon="6.3791">
        <ele>550</ele>
        <time>2016-07-21T13:23:36Z</time>
      </trkpt>
      <trkpt lat="45.26701" lon="6.3797">
        <ele>552</ele>
        <time>2016-07-21T13:25:36Z</time>
      </trkpt>
      <trkpt lat="45.26678" lon="6.38062">
        <ele>558</ele>
        <time>2016-07-21T13:27:36Z</time>
      </trkpt>
      <trkpt lat="45.26674" lon="6.38079">
        <ele>559</ele>
        <time>2016-07-21T13:29:36Z</time>
      </trkpt>
      <trkpt lat="45.26672" lon="6.38088">
        <ele>560</ele>
        <time>2016-07-21T13:31:36Z</time>
      </trkpt>
      <trkpt lat="45.26667" lon="6.38093">
        <ele>560</ele>
        <time>2016-07-21T13:33:36Z</time>
      </trkpt>
      <trkpt lat="45.26666" lon="6.38095">
        <ele>560</ele>
        <time>2016-07-21T13:35:36Z</time>
      </trkpt>
      <trkpt lat="45.26657" lon="6.38116">
        <ele>559</ele>
        <time>2016-07-21T13:37:36Z</time>
      </trkpt>
      <trkpt lat="45.26651" lon="6.38127">
        <ele>559</ele>
        <time>2016-07-21T13:39:36Z</time>
      </trkpt>
      <trkpt lat="45.26648" lon="6.38137">
        <ele>558</ele>
        <time>2016-07-21T13:41:36Z</time>
      </trkpt>
      <trkpt lat="45.26645" lon="6.38145">
        <ele>558</ele>
        <time>2016-07-21T13:43:36Z</time>
      </trkpt>
      <trkpt lat="45.26642" lon="6.38159">
        <ele>558</ele>
        <time>2016-07-21T13:45:36Z</time>
      </trkpt>
      <trkpt lat="45.26641" lon="6.38165">
        <ele>558</ele>
        <time>2016-07-21T13:47:36Z</time>
      </trkpt>
      <trkpt lat="45.2664" lon="6.38175">
        <ele>558</ele>
        <time>2016-07-21T13:49:36Z</time>
      </trkpt>
      <trkpt lat="45.26639" lon="6.38191">
        <ele>558</ele>
        <time>2016-07-21T13:51:36Z</time>
      </trkpt>
      <trkpt lat="45.26638" lon="6.38206">
        <ele>558</ele>
        <time>2016-07-21T13:53:36Z</time>
      </trkpt>
      <trkpt lat="45.26638" lon="6.3822">
        <ele>558</ele>
        <time>2016-07-21T13:55:36Z</time>
      </trkpt>
      <trkpt lat="45.2664" lon="6.38229">
        <ele>558</ele>
        <time>2016-07-21T13:57:36Z</time>
      </trkpt>
      <trkpt lat="45.2664" lon="6.38244">
        <ele>558</ele>
        <time>2016-07-21T13:59:36Z</time>
      </trkpt>
      <trkpt lat="45.26638" lon="6.38323">
        <ele>561</ele>
        <time>2016-07-21T14:01:36Z</time>
      </trkpt>
      <trkpt lat="45.26638" lon="6.38333">
        <ele>562</ele>
        <time>2016-07-21T14:03:36Z</time>
      </trkpt>
      <trkpt lat="45.26637" lon="6.38343">
        <ele>563</ele>
        <time>2016-07-21T14:05:36Z</time>
      </trkpt>
      <trkpt lat="45.26634" lon="6.38358">
        <ele>565</ele>
        <time>2016-07-21T14:07:36Z</time>
      </trkpt>
      <trkpt lat="45.26632" lon="6.38365">
        <ele>565</ele>
        <time>2016-07-21T14:09:36Z</time>
      </trkpt>
      <trkpt lat="45.2663" lon="6.38373">
        <ele>566</ele>
        <time>2016-07-21T14:11:36Z</time>
      </trkpt>
      <trkpt lat="45.26624" lon="6.3839">
        <ele>568</ele>
        <time>2016-07-21T14:13:36Z</time>
      </trkpt>
      <trkpt lat="45.26621" lon="6.38397">
        <ele>568</ele>
        <time>2016-07-21T14:15:36Z</time>
      </trkpt>
      <trkpt lat="45.26617" lon="6.38404">
        <ele>568</ele>
        <time>2016-07-21T14:17:36Z</time>
      </trkpt>
      <trkpt lat="45.26611" lon="6.38414">
        <ele>569</ele>
        <time>2016-07-21T14:19:36Z</time>
      </trkpt>
      <trkpt lat="45.26605" lon="6.38425">
        <ele>569</ele>
        <time>2016-07-21T14:21:36Z</time>
      </trkpt>
      <trkpt lat="45.26598" lon="6.38433">
        <ele>569</ele>
        <time>2016-07-21T14:23:36Z</time>
      </trkpt>
      <trkpt lat="45.26593" lon="6.38439">
        <ele>569</ele>
        <time>2016-07-21T14:25:36Z</time>
      </trkpt>
      <trkpt lat="45.26588" lon="6.38444">
        <ele>569</ele>
        <time>2016-07-21T14:27:36Z</time>
      </trkpt>
      <trkpt lat="45.26584" lon="6.38448">
        <ele>568</ele>
        <time>2016-07-21T14:29:36Z</time>
      </trkpt>
      <trkpt lat="45.26578" lon="6.38452">
        <ele>568</ele>
        <time>2016-07-21T14:31:36Z</time>
      </trkpt>
      <trkpt lat="45.26566" lon="6.3846">
        <ele>568</ele>
        <time>2016-07-21T14:33:36Z</time>
      </trkpt>
      <trkpt lat="45.26552" lon="6.38469">
        <ele>567</ele>
        <time>2016-07-21T14:35:36Z</time>
      </trkpt>
      <trkpt lat="45.26514" lon="6.38491">
        <ele>566</ele>
        <time>2016-07-21T14:37:36Z</time>
      </trkpt>
      <trkpt lat="45.26474" lon="6.38514">
        <ele>567</ele>
        <time>2016-07-21T14:39:36Z</time>
      </trkpt>
      <trkpt lat="45.26437" lon="6.38537">
        <ele>570</ele>
        <time>2016-07-21T14:41:36Z</time>
      </trkpt>
      <trkpt lat="45.26359" lon="6.38582">
        <ele>572</ele>
        <time>2016-07-21T14:43:36Z</time>
      </trkpt>
      <trkpt lat="45.26315" lon="6.38606">
        <ele>576</ele>
        <time>2016-07-21T14:45:36Z</time>
      </trkpt>
      <trkpt lat="45.26282" lon="6.3862">
        <ele>578</ele>
        <time>2016-07-21T14:47:36Z</time>
      </trkpt>
      <trkpt lat="45.26256" lon="6.38628">
        <ele>578</ele>
        <time>2016-07-21T14:49:36Z</time>
      </trkpt>
      <trkpt lat="45.26229" lon="6.38636">
        <ele>578</ele>
        <time>2016-07-21T14:51:36Z</time>
      </trkpt>
      <trkpt lat="45.26213" lon="6.3864">
        <ele>578</ele>
        <time>2016-07-21T14:53:36Z</time>
      </trkpt>
      <trkpt lat="45.26201" lon="6.38642">
        <ele>578</ele>
        <time>2016-07-21T14:55:36Z</time>
      </trkpt>
      <trkpt lat="45.26174" lon="6.38646">
        <ele>577</ele>
        <time>2016-07-21T14:57:36Z</time>
      </trkpt>
      <trkpt lat="45.26108" lon="6.3865">
        <ele>580</ele>
        <time>2016-07-21T14:59:36Z</time>
      </trkpt>
      <trkpt lat="45.26096" lon="6.38651">
        <ele>580</ele>
        <time>2016-07-21T15:01:36Z</time>
      </trkpt>
      <trkpt lat="45.26072" lon="6.38652">
        <ele>581</ele>
        <time>2016-07-21T15:03:36Z</time>
      </trkpt>
      <trkpt lat="45.26049" lon="6.38654">
        <ele>582</ele>
        <time>2016-07-21T15:05:36Z</time>
      </trkpt>
      <trkpt lat="45.26032" lon="6.38656">
        <ele>583</ele>
        <time>2016-07-21T15:07:36Z</time>
      </trkpt>
      <trkpt lat="45.26021" lon="6.38658">
        <ele>583</ele>
        <time>2016-07-21T15:09:36Z</time>
      </trkpt>
      <trkpt lat="45.26011" lon="6.38661">
        <ele>584</ele>
        <time>2016-07-21T15:11:36Z</time>
      </trkpt>
      <trkpt lat="45.25998" lon="6.38664">
        <ele>584</ele>
        <time>2016-07-21T15:13:36Z</time>
      </trkpt>
      <trkpt lat="45.25987" lon="6.38667">
        <ele>584</ele>
        <time>2016-07-21T15:15:36Z</time>
      </trkpt>
      <trkpt lat="45.25976" lon="6.38671">
        <ele>584</ele>
        <time>2016-07-21T15:17:36Z</time>
      </trkpt>
      <trkpt lat="45.25951" lon="6.38681">
        <ele>584</ele>
        <time>2016-07-21T15:19:36Z</time>
      </trkpt>
      <trkpt lat="45.2593" lon="6.38691">
        <ele>584</ele>
        <time>2016-07-21T15:21:36Z</time>
      </trkpt>
      <trkpt lat="45.25905" lon="6.38706">
        <ele>584</ele>
        <time>2016-07-21T15:23:36Z</time>
      </trkpt>
      <trkpt lat="45.25884" lon="6.38721">
        <ele>585</ele>
        <time>2016-07-21T15:25:36Z</time>
      </trkpt>
      <trkpt lat="45.25866" lon="6.38736">
        <ele>586</ele>
        <time>2016-07-21T15:27:36Z</time>
      </trkpt>
      <trkpt lat="45.2584" lon="6.3876">
        <ele>588</ele>
        <time>2016-07-21T15:29:36Z</time>
      </trkpt>
      <trkpt lat="45.25823" lon="6.38777">
        <ele>589</ele>
        <time>2016-07-21T15:31:36Z</time>
      </trkpt>
      <trkpt lat="45.2579" lon="6.38811">
        <ele>589</ele>
        <time>2016-07-21T15:33:36Z</time>
      </trkpt>
      <trkpt lat="45.25744" lon="6.38858">
        <ele>591</ele>
        <time>2016-07-21T15:35:36Z</time>
      </trkpt>
      <trkpt lat="45.25723" lon="6.38879">
        <ele>592</ele>
        <time>2016-07-21T15:37:36Z</time>
      </trkpt>
      <trkpt lat="45.2571" lon="6.38893">
        <ele>592</ele>
        <time>2016-07-21T15:39:36Z</time>
      </trkpt>
      <trkpt lat="45.25694" lon="6.38909">
        <ele>592</ele>
        <time>2016-07-21T15:41:36Z</time>
      </trkpt>
      <trkpt lat="45.25661" lon="6.38942">
        <ele>592</ele>
        <time>2016-07-21T15:43:36Z</time>
      </trkpt>
      <trkpt lat="45.25617" lon="6.38987">
        <ele>596</ele>
        <time>2016-07-21T15:45:36Z</time>
      </trkpt>
      <trkpt lat="45.25592" lon="6.39012">
        <ele>598</ele>
        <time>2016-07-21T15:47:36Z</time>
      </trkpt>
      <trkpt lat="45.2558" lon="6.39026">
        <ele>598</ele>
        <time>2016-07-21T15:49:36Z</time>
      </trkpt>
      <trkpt lat="45.25559" lon="6.39049">
        <ele>598</ele>
        <time>2016-07-21T15:51:36Z</time>
      </trkpt>
      <trkpt lat="45.25551" lon="6.39059">
        <ele>598</ele>
        <time>2016-07-21T15:53:36Z</time>
      </trkpt>
      <trkpt lat="45.25545" lon="6.39067">
        <ele>599</ele>
        <time>2016-07-21T15:55:36Z</time>
      </trkpt>
      <trkpt lat="45.25537" lon="6.39077">
        <ele>600</ele>
        <time>2016-07-21T15:57:36Z</time>
      </trkpt>
      <trkpt lat="45.2553" lon="6.39089">
        <ele>600</ele>
        <time>2016-07-21T15:59:36Z</time>
      </trkpt>
      <trkpt lat="45.25521" lon="6.39103">
        <ele>601</ele>
        <time>2016-07-21T16:01:36Z</time>
      </trkpt>
      <trkpt lat="45.25511" lon="6.39123">
        <ele>601</ele>
        <time>2016-07-21T16:03:36Z</time>
      </trkpt>
      <trkpt lat="45.25503" lon="6.3914">
        <ele>602</ele>
        <time>2016-07-21T16:05:36Z</time>
      </trkpt>
      <trkpt lat="45.25493" lon="6.39163">
        <ele>603</ele>
        <time>2016-07-21T16:07:36Z</time>
      </trkpt>
      <trkpt lat="45.25486" lon="6.39183">
        <ele>603</ele>
        <time>2016-07-21T16:09:36Z</time>
      </trkpt>
      <trkpt lat="45.25481" lon="6.39199">
        <ele>603</ele>
        <time>2016-07-21T16:11:36Z</time>
      </trkpt>
      <trkpt lat="45.25478" lon="6.39207">
        <ele>603</ele>
        <time>2016-07-21T16:13:36Z</time>
      </trkpt>
      <trkpt lat="45.25468" lon="6.39249">
        <ele>605</ele>
        <time>2016-07-21T16:15:36Z</time>
      </trkpt>
      <trkpt lat="45.25462" lon="6.39279">
        <ele>607</ele>
        <time>2016-07-21T16:17:36Z</time>
      </trkpt>
      <trkpt lat="45.25451" lon="6.39329">
        <ele>610</ele>
        <time>2016-07-21T16:19:36Z</time>
      </trkpt>
      <trkpt lat="45.2545" lon="6.39335">
        <ele>611</ele>
        <time>2016-07-21T16:21:36Z</time>
      </trkpt>
      <trkpt lat="45.25443" lon="6.3937">
        <ele>614</ele>
        <time>2016-07-21T16:23:36Z</time>
      </trkpt>
      <trkpt lat="45.2544" lon="6.39374">
        <ele>614</ele>
        <time>2016-07-21T16:25:36Z</time>
      </trkpt>
      <trkpt lat="45.25439" lon="6.39376">
        <ele>614</ele>
        <time>2016-07-21T16:27:36Z</time>
      </trkpt>
      <trkpt lat="45.25434" lon="6.39396">
        <ele>616</ele>
        <time>2016-07-21T16:29:36Z</time>
      </trkpt>
      <trkpt lat="45.25431" lon="6.39405">
        <ele>617</ele>
        <time>2016-07-21T16:31:36Z</time>
      </trkpt>
      <trkpt lat="45.25429" lon="6.39412">
        <ele>617</ele>
        <time>2016-07-21T16:33:36Z</time>
      </trkpt>
      <trkpt lat="45.25422" lon="6.39428">
        <ele>618</ele>
        <time>2016-07-21T16:35:36Z</time>
      </trkpt>
      <trkpt lat="45.25421" lon="6.39429">
        <ele>618</ele>
        <time>2016-07-21T16:37:36Z</time>
      </trkpt>
      <trkpt lat="45.2542" lon="6.39429">
        <ele>618</ele>
        <time>2016-07-21T16:39:36Z</time>
      </trkpt>
      <trkpt lat="45.25418" lon="6.3943">
        <ele>618</ele>
        <time>2016-07-21T16:41:36Z</time>
      </trkpt>
      <trkpt lat="45.25417" lon="6.39431">
        <ele>618</ele>
        <time>2016-07-21T16:43:36Z</time>
      </trkpt>
      <trkpt lat="45.25416" lon="6.39431">
        <ele>618</ele>
        <time>2016-07-21T16:45:36Z</time>
      </trkpt>
      <trkpt lat="45.25415" lon="6.39432">
        <ele>618</ele>
        <time>2016-07-21T16:47:36Z</time>
      </trkpt>
      <trkpt lat="45.25414" lon="6.39433">
        <ele>617</ele>
        <time>2016-07-21T16:49:36Z</time>
      </trkpt>
      <trkpt lat="45.25413" lon="6.39434">
        <ele>617</ele>
        <time>2016-07-21T16:51:36Z</time>
      </trkpt>
      <trkpt lat="45.25412" lon="6.39436">
        <ele>617</ele>
        <time>2016-07-21T16:53:36Z</time>
      </trkpt>
      <trkpt lat="45.25412" lon="6.39437">
        <ele>618</ele>
        <time>2016-07-21T16:55:36Z</time>
      </trkpt>
      <trkpt lat="45.25411" lon="6.39438">
        <ele>617</ele>
        <time>2016-07-21T16:57:36Z</time>
      </trkpt>
      <trkpt lat="45.2541" lon="6.3944">
        <ele>617</ele>
        <time>2016-07-21T16:59:36Z</time>
      </trkpt>
      <trkpt lat="45.2541" lon="6.39441">
        <ele>618</ele>
        <time>2016-07-21T17:01:36Z</time>
      </trkpt>
      <trkpt lat="45.25409" lon="6.39443">
        <ele>618</ele>
        <time>2016-07-21T17:03:36Z</time>
      </trkpt>
      <trkpt lat="45.25409" lon="6.39444">
        <ele>618</ele>
        <time>2016-07-21T17:05:36Z</time>
      </trkpt>
      <trkpt lat="45.25408" lon="6.39446">
        <ele>618</ele>
        <time>2016-07-21T17:07:36Z</time>
      </trkpt>
      <trkpt lat="45.25408" lon="6.39448">
        <ele>618</ele>
        <time>2016-07-21T17:09:36Z</time>
      </trkpt>
      <trkpt lat="45.25408" lon="6.39449">
        <ele>618</ele>
        <time>2016-07-21T17:11:36Z</time>
      </trkpt>
      <trkpt lat="45.25408" lon="6.39451">
        <ele>618</ele>
        <time>2016-07-21T17:13:36Z</time>
      </trkpt>
      <trkpt lat="45.25408" lon="6.39453">
        <ele>619</ele>
        <time>2016-07-21T17:15:36Z</time>
      </trkpt>
      <trkpt lat="45.25408" lon="6.39454">
        <ele>619</ele>
        <time>2016-07-21T17:17:36Z</time>
      </trkpt>
      <trkpt lat="45.25408" lon="6.39456">
        <ele>619</ele>
        <time>2016-07-21T17:19:36Z</time>
      </trkpt>
      <trkpt lat="45.25408" lon="6.39458">
        <ele>619</ele>
        <time>2016-07-21T17:21:36Z</time>
      </trkpt>
      <trkpt lat="45.25409" lon="6.3946">
        <ele>620</ele>
        <time>2016-07-21T17:23:36Z</time>
      </trkpt>
      <trkpt lat="45.25409" lon="6.39461">
        <ele>620</ele>
        <time>2016-07-21T17:25:36Z</time>
      </trkpt>
      <trkpt lat="45.25409" lon="6.39462">
        <ele>620</ele>
        <time>2016-07-21T17:27:36Z</time>
      </trkpt>
      <trkpt lat="45.2541" lon="6.39463">
        <ele>620</ele>
        <time>2016-07-21T17:29:36Z</time>
      </trkpt>
      <trkpt lat="45.2541" lon="6.39464">
        <ele>620</ele>
        <time>2016-07-21T17:31:36Z</time>
      </trkpt>
      <trkpt lat="45.25411" lon="6.39465">
        <ele>621</ele>
        <time>2016-07-21T17:33:36Z</time>
      </trkpt>
      <trkpt lat="45.25411" lon="6.39466">
        <ele>621</ele>
        <time>2016-07-21T17:35:36Z</time>
      </trkpt>
      <trkpt lat="45.25412" lon="6.39467">
        <ele>621</ele>
        <time>2016-07-21T17:37:36Z</time>
      </trkpt>
      <trkpt lat="45.25412" lon="6.39468">
        <ele>621</ele>
        <time>2016-07-21T17:39:36Z</time>
      </trkpt>
      <trkpt lat="45.25411" lon="6.39481">
        <ele>623</ele>
        <time>2016-07-21T17:41:36Z</time>
      </trkpt>
      <trkpt lat="45.25411" lon="6.39485">
        <ele>623</ele>
        <time>2016-07-21T17:43:36Z</time>
      </trkpt>
      <trkpt lat="45.25401" lon="6.39526">
        <ele>623</ele>
        <time>2016-07-21T17:45:36Z</time>
      </trkpt>
      <trkpt lat="45.25401" lon="6.3953">
        <ele>623</ele>
        <time>2016-07-21T17:47:36Z</time>
      </trkpt>
      <trkpt lat="45.254" lon="6.39533">
        <ele>623</ele>
        <time>2016-07-21T17:49:36Z</time>
      </trkpt>
      <trkpt lat="45.254" lon="6.39538">
        <ele>623</ele>
        <time>2016-07-21T17:51:36Z</time>
      </trkpt>
      <trkpt lat="45.2537" lon="6.39645">
        <ele>624</ele>
        <time>2016-07-21T17:53:36Z</time>
      </trkpt>
      <trkpt lat="45.25343" lon="6.39737">
        <ele>629</ele>
        <time>2016-07-21T17:55:36Z</time>
      </trkpt>
      <trkpt lat="45.25322" lon="6.39811">
        <ele>630</ele>
        <time>2016-07-21T17:57:36Z</time>
      </trkpt>
      <trkpt lat="45.253" lon="6.39893">
        <ele>631</ele>
        <time>2016-07-21T17:59:36Z</time>
      </trkpt>
      <trkpt lat="45.25298" lon="6.39902">
        <ele>631</ele>
        <time>2016-07-21T18:01:36Z</time>
      </trkpt>
      <trkpt lat="45.25287" lon="6.39947">
        <ele>632</ele>
        <time>2016-07-21T18:03:36Z</time>
      </trkpt>
      <trkpt lat="45.25284" lon="6.39964">
        <ele>633</ele>
        <time>2016-07-21T18:05:36Z</time>
      </trkpt>
      <trkpt lat="45.25279" lon="6.39989">
        <ele>634</ele>
        <time>2016-07-21T18:07:36Z</time>
      </trkpt>
      <trkpt lat="45.25275" lon="6.40014">
        <ele>635</ele>
        <time>2016-07-21T18:09:36Z</time>
      </trkpt>
      <trkpt lat="45.25269" lon="6.40056">
        <ele>635</ele>
        <time>2016-07-21T18:11:36Z</time>
      </trkpt>
      <trkpt lat="45.25266" lon="6.40083">
        <ele>636</ele>
        <time>2016-07-21T18:13:36Z</time>
      </trkpt>
      <trkpt lat="45.25261" lon="6.40138">
        <ele>635</ele>
        <time>2016-07-21T18:15:36Z</time>
      </trkpt>
      <trkpt lat="45.2526" lon="6.40149">
        <ele>635</ele>
        <time>2016-07-21T18:17:36Z</time>
      </trkpt>
      <trkpt lat="45.2526" lon="6.40161">
        <ele>635</ele>
        <time>2016-07-21T18:19:36Z</time>
      </trkpt>
      <trkpt lat="45.25258" lon="6.40224">
        <ele>635</ele>
        <time>2016-07-21T18:21:36Z</time>
      </trkpt>
      <trkpt lat="45.25257" lon="6.40247">
        <ele>635</ele>
        <time>2016-07-21T18:23:36Z</time>
      </trkpt>
      <trkpt lat="45.25257" lon="6.40271">
        <ele>635</ele>
        <time>2016-07-21T18:25:36Z</time>
      </trkpt>
      <trkpt lat="45.25257" lon="6.40353">
        <ele>634</ele>
        <time>2016-07-21T18:27:36Z</time>
      </trkpt>
      <trkpt lat="45.25257" lon="6.40451">
        <ele>635</ele>
        <time>2016-07-21T18:29:36Z</time>
      </trkpt>
      <trkpt lat="45.25256" lon="6.40602">
        <ele>637</ele>
        <time>2016-07-21T18:31:36Z</time>
      </trkpt>
      <trkpt lat="45.25253" lon="6.40612">
        <ele>636</ele>
        <time>2016-07-21T18:33:36Z</time>
      </trkpt>
      <trkpt lat="45.25252" lon="6.40615">
        <ele>636</ele>
        <time>2016-07-21T18:35:36Z</time>
      </trkpt>
      <trkpt lat="45.25252" lon="6.40638">
        <ele>636</ele>
        <time>2016-07-21T18:37:36Z</time>
      </trkpt>
      <trkpt lat="45.25252" lon="6.40652">
        <ele>636</ele>
        <time>2016-07-21T18:39:36Z</time>
      </trkpt>
      <trkpt lat="45.25252" lon="6.40662">
        <ele>635</ele>
        <time>2016-07-21T18:41:36Z</time>
      </trkpt>
      <trkpt lat="45.25252" lon="6.4067">
        <ele>635</ele>
        <time>2016-07-21T18:43:36Z</time>
      </trkpt>
      <trkpt lat="45.25251" lon="6.40751">
        <ele>638</ele>
        <time>2016-07-21T18:45:36Z</time>
      </trkpt>
      <trkpt lat="45.25249" lon="6.4079">
        <ele>641</ele>
        <time>2016-07-21T18:47:36Z</time>
      </trkpt>
      <trkpt lat="45.25246" lon="6.40816">
        <ele>643</ele>
        <time>2016-07-21T18:49:36Z</time>
      </trkpt>
      <trkpt lat="45.25244" lon="6.4084">
        <ele>645</ele>
        <time>2016-07-21T18:51:36Z</time>
      </trkpt>
      <trkpt lat="45.25243" lon="6.40847">
        <ele>645</ele>
        <time>2016-07-21T18:53:36Z</time>
      </trkpt>
      <trkpt lat="45.25239" lon="6.40873">
        <ele>646</ele>
        <time>2016-07-21T18:55:36Z</time>
      </trkpt>
      <trkpt lat="45.25227" lon="6.40936">
        <ele>649</ele>
        <time>2016-07-21T18:57:36Z</time>
      </trkpt>
      <trkpt lat="45.25226" lon="6.40945">
        <ele>649</ele>
        <time>2016-07-21T18:59:36Z</time>
      </trkpt>
      <trkpt lat="45.25225" lon="6.4095">
        <ele>649</ele>
        <time>2016-07-21T19:01:36Z</time>
      </trkpt>
      <trkpt lat="45.25221" lon="6.40964">
        <ele>650</ele>
        <time>2016-07-21T19:03:36Z</time>
      </trkpt>
      <trkpt lat="45.25216" lon="6.40982">
        <ele>651</ele>
        <time>2016-07-21T19:05:36Z</time>
      </trkpt>
      <trkpt lat="45.25205" lon="6.41021">
        <ele>653</ele>
        <time>2016-07-21T19:07:36Z</time>
      </trkpt>
      <trkpt lat="45.25187" lon="6.41071">
        <ele>655</ele>
        <time>2016-07-21T19:09:36Z</time>
      </trkpt>
      <trkpt lat="45.25168" lon="6.41119">
        <ele>657</ele>
        <time>2016-07-21T19:11:36Z</time>
      </trkpt>
      <trkpt lat="45.25152" lon="6.41152">
        <ele>658</ele>
        <time>2016-07-21T19:13:36Z</time>
      </trkpt>
      <trkpt lat="45.25141" lon="6.41175">
        <ele>659</ele>
        <time>2016-07-21T19:15:36Z</time>
      </trkpt>
      <trkpt lat="45.25124" lon="6.41209">
        <ele>662</ele>
        <time>2016-07-21T19:17:36Z</time>
      </trkpt>
      <trkpt lat="45.25124" lon="6.41211">
        <ele>662</ele>
        <time>2016-07-21T19:19:36Z</time>
      </trkpt>
      <trkpt lat="45.25089" lon="6.41281">
        <ele>665</ele>
        <time>2016-07-21T19:21:36Z</time>
      </trkpt>
      <trkpt lat="45.25065" lon="6.41331">
        <ele>667</ele>
        <time>2016-07-21T19:23:36Z</time>
      </trkpt>
      <trkpt lat="45.25009" lon="6.41449">
        <ele>670</ele>
        <time>2016-07-21T19:25:36Z</time>
      </trkpt>
      <trkpt lat="45.25006" lon="6.41454">
        <ele>670</ele>
        <time>2016-07-21T19:27:36Z</time>
      </trkpt>
      <trkpt lat="45.25004" lon="6.4146">
        <ele>670</ele>
        <time>2016-07-21T19:29:36Z</time>
      </trkpt>
      <trkpt lat="45.24981" lon="6.41508">
        <ele>672</ele>
        <time>2016-07-21T19:31:36Z</time>
      </trkpt>
      <trkpt lat="45.24975" lon="6.41523">
        <ele>672</ele>
        <time>2016-07-21T19:33:36Z</time>
      </trkpt>
      <trkpt lat="45.2497" lon="6.41541">
        <ele>673</ele>
        <time>2016-07-21T19:35:36Z</time>
      </trkpt>
      <trkpt lat="45.24931" lon="6.41619">
        <ele>671</ele>
        <time>2016-07-21T19:37:36Z</time>
      </trkpt>
      <trkpt lat="45.24892" lon="6.417">
        <ele>671</ele>
        <time>2016-07-21T19:39:36Z</time>
      </trkpt>
      <trkpt lat="45.24882" lon="6.41723">
        <ele>672</ele>
        <time>2016-07-21T19:41:36Z</time>
      </trkpt>
      <trkpt lat="45.24872" lon="6.41743">
        <ele>674</ele>
        <time>2016-07-21T19:43:36Z</time>
      </trkpt>
      <trkpt lat="45.24857" lon="6.41781">
        <ele>675</ele>
        <time>2016-07-21T19:45:36Z</time>
      </trkpt>
      <trkpt lat="45.24836" lon="6.41835">
        <ele>675</ele>
        <time>2016-07-21T19:47:36Z</time>
      </trkpt>
      <trkpt lat="45.24799" lon="6.41956">
        <ele>677</ele>
        <time>2016-07-21T19:49:36Z</time>
      </trkpt>
      <trkpt lat="45.24756" lon="6.42104">
        <ele>676</ele>
        <time>2016-07-21T19:51:36Z</time>
      </trkpt>
      <trkpt lat="45.24715" lon="6.42247">
        <ele>670</ele>
        <time>2016-07-21T19:53:36Z</time>
      </trkpt>
      <trkpt lat="45.24683" lon="6.42358">
        <ele>673</ele>
        <time>2016-07-21T19:55:36Z</time>
      </trkpt>
      <trkpt lat="45.24681" lon="6.42365">
        <ele>672</ele>
        <time>2016-07-21T19:57:36Z</time>
      </trkpt>
      <trkpt lat="45.24678" lon="6.42377">
        <ele>672</ele>
        <time>2016-07-21T19:59:36Z</time>
      </trkpt>
      <trkpt lat="45.24661" lon="6.42433">
        <ele>672</ele>
        <time>2016-07-21T20:01:36Z</time>
      </trkpt>
      <trkpt lat="45.24658" lon="6.42442">
        <ele>672</ele>
        <time>2016-07-21T20:03:36Z</time>
      </trkpt>
      <trkpt lat="45.24612" lon="6.42603">
        <ele>673</ele>
        <time>2016-07-21T20:05:36Z</time>
      </trkpt>
      <trkpt lat="45.2457" lon="6.42747">
        <ele>673</ele>
        <time>2016-07-21T20:07:36Z</time>
      </trkpt>
      <trkpt lat="45.24556" lon="6.42796">
        <ele>674</ele>
        <time>2016-07-21T20:09:36Z</time>
      </trkpt>
      <trkpt lat="45.24527" lon="6.42887">
        <ele>676</ele>
        <time>2016-07-21T20:11:36Z</time>
      </trkpt>
      <trkpt lat="45.24509" lon="6.42937">
        <ele>677</ele>
        <time>2016-07-21T20:13:36Z</time>
      </trkpt>
      <trkpt lat="45.24492" lon="6.42982">
        <ele>677</ele>
        <time>2016-07-21T20:15:36Z</time>
      </trkpt>
      <trkpt lat="45.24474" lon="6.43018">
        <ele>677</ele>
        <time>2016-07-21T20:17:36Z</time>
      </trkpt>
      <trkpt lat="45.24445" lon="6.43073">
        <ele>677</ele>
        <time>2016-07-21T20:19:36Z</time>
      </trkpt>
      <trkpt lat="45.24429" lon="6.43101">
        <ele>676</ele>
        <time>2016-07-21T20:21:36Z</time>
      </trkpt>
      <trkpt lat="45.24424" lon="6.43109">
        <ele>676</ele>
        <time>2016-07-21T20:23:36Z</time>
      </trkpt>
      <trkpt lat="45.2441" lon="6.43129">
        <ele>675</ele>
        <time>2016-07-21T20:25:36Z</time>
      </trkpt>
      <trkpt lat="45.24395" lon="6.4315">
        <ele>676</ele>
        <time>2016-07-21T20:27:36Z</time>
      </trkpt>
      <trkpt lat="45.24377" lon="6.43175">
        <ele>677</ele>
        <time>2016-07-21T20:29:36Z</time>
      </trkpt>
      <trkpt lat="45.24371" lon="6.43179">
        <ele>677</ele>
        <time>2016-07-21T20:31:36Z</time>
      </trkpt>
      <trkpt lat="45.24346" lon="6.43209">
        <ele>678</ele>
        <time>2016-07-21T20:33:36Z</time>
      </trkpt>
      <trkpt lat="45.243" lon="6.43255">
        <ele>678</ele>
        <time>2016-07-21T20:35:36Z</time>
      </trkpt>
      <trkpt lat="45.24276" lon="6.43277">
        <ele>677</ele>
        <time>2016-07-21T20:37:36Z</time>
      </trkpt>
      <trkpt lat="45.24261" lon="6.43292">
        <ele>677</ele>
        <time>2016-07-21T20:39:36Z</time>
      </trkpt>
      <trkpt lat="45.2422" lon="6.43331">
        <ele>676</ele>
        <time>2016-07-21T20:41:36Z</time>
      </trkpt>
      <trkpt lat="45.24174" lon="6.43369">
        <ele>676</ele>
        <time>2016-07-21T20:43:36Z</time>
      </trkpt>
      <trkpt lat="45.24091" lon="6.43447">
        <ele>678</ele>
        <time>2016-07-21T20:45:36Z</time>
      </trkpt>
      <trkpt lat="45.24042" lon="6.43493">
        <ele>681</ele>
        <time>2016-07-21T20:47:36Z</time>
      </trkpt>
      <trkpt lat="45.23992" lon="6.4354">
        <ele>684</ele>
        <time>2016-07-21T20:49:36Z</time>
      </trkpt>
      <trkpt lat="45.23982" lon="6.43551">
        <ele>684</ele>
        <time>2016-07-21T20:51:36Z</time>
      </trkpt>
      <trkpt lat="45.23967" lon="6.43565">
        <ele>685</ele>
        <time>2016-07-21T20:53:36Z</time>
      </trkpt>
      <trkpt lat="45.23953" lon="6.43577">
        <ele>685</ele>
        <time>2016-07-21T20:55:36Z</time>
      </trkpt>
      <trkpt lat="45.23937" lon="6.43591">
        <ele>685</ele>
        <time>2016-07-21T20:57:36Z</time>
      </trkpt>
      <trkpt lat="45.23923" lon="6.436">
        <ele>686</ele>
        <time>2016-07-21T20:59:36Z</time>
      </trkpt>
      <trkpt lat="45.23914" lon="6.43606">
        <ele>686</ele>
        <time>2016-07-21T21:01:36Z</time>
      </trkpt>
      <trkpt lat="45.23891" lon="6.43617">
        <ele>687</ele>
        <time>2016-07-21T21:03:36Z</time>
      </trkpt>
      <trkpt lat="45.23881" lon="6.43621">
        <ele>687</ele>
        <time>2016-07-21T21:05:36Z</time>
      </trkpt>
      <trkpt lat="45.23867" lon="6.43626">
        <ele>687</ele>
        <time>2016-07-21T21:07:36Z</time>
      </trkpt>
      <trkpt lat="45.23853" lon="6.43632">
        <ele>686</ele>
        <time>2016-07-21T21:09:36Z</time>
      </trkpt>
      <trkpt lat="45.23836" lon="6.43639">
        <ele>686</ele>
        <time>2016-07-21T21:11:36Z</time>
      </trkpt>
      <trkpt lat="45.23819" lon="6.43646">
        <ele>685</ele>
        <time>2016-07-21T21:13:36Z</time>
      </trkpt>
      <trkpt lat="45.23803" lon="6.43653">
        <ele>684</ele>
        <time>2016-07-21T21:15:36Z</time>
      </trkpt>
      <trkpt lat="45.23785" lon="6.43663">
        <ele>683</ele>
        <time>2016-07-21T21:17:36Z</time>
      </trkpt>
      <trkpt lat="45.23768" lon="6.43675">
        <ele>683</ele>
        <time>2016-07-21T21:19:36Z</time>
      </trkpt>
      <trkpt lat="45.23762" lon="6.4368">
        <ele>683</ele>
        <time>2016-07-21T21:21:36Z</time>
      </trkpt>
      <trkpt lat="45.23743" lon="6.43698">
        <ele>684</ele>
        <time>2016-07-21T21:23:36Z</time>
      </trkpt>
      <trkpt lat="45.23733" lon="6.4371">
        <ele>685</ele>
        <time>2016-07-21T21:25:36Z</time>
      </trkpt>
      <trkpt lat="45.23723" lon="6.43722">
        <ele>686</ele>
        <time>2016-07-21T21:27:36Z</time>
      </trkpt>
      <trkpt lat="45.23717" lon="6.43732">
        <ele>686</ele>
        <time>2016-07-21T21:29:36Z</time>
      </trkpt>
      <trkpt lat="45.23701" lon="6.43757">
        <ele>687</ele>
        <time>2016-07-21T21:31:36Z</time>
      </trkpt>
      <trkpt lat="45.23689" lon="6.43785">
        <ele>687</ele>
        <time>2016-07-21T21:33:36Z</time>
      </trkpt>
      <trkpt lat="45.23683" lon="6.438">
        <ele>687</ele>
        <time>2016-07-21T21:35:36Z</time>
      </trkpt>
      <trkpt lat="45.23677" lon="6.43819">
        <ele>688</ele>
        <time>2016-07-21T21:37:36Z</time>
      </trkpt>
      <trkpt lat="45.23674" lon="6.4383">
        <ele>688</ele>
        <time>2016-07-21T21:39:36Z</time>
      </trkpt>
      <trkpt lat="45.2367" lon="6.43846">
        <ele>688</ele>
        <time>2016-07-21T21:41:36Z</time>
      </trkpt>
      <trkpt lat="45.23663" lon="6.43879">
        <ele>688</ele>
        <time>2016-07-21T21:43:36Z</time>
      </trkpt>
      <trkpt lat="45.23658" lon="6.43904">
        <ele>687</ele>
        <time>2016-07-21T21:45:36Z</time>
      </trkpt>
      <trkpt lat="45.23654" lon="6.43931">
        <ele>686</ele>
        <time>2016-07-21T21:47:36Z</time>
      </trkpt>
      <trkpt lat="45.23651" lon="6.4396">
        <ele>685</ele>
        <time>2016-07-21T21:49:36Z</time>
      </trkpt>
      <trkpt lat="45.2365" lon="6.43963">
        <ele>685</ele>
        <time>2016-07-21T21:51:36Z</time>
      </trkpt>
      <trkpt lat="45.23648" lon="6.43977">
        <ele>685</ele>
        <time>2016-07-21T21:53:36Z</time>
      </trkpt>
      <trkpt lat="45.23646" lon="6.43993">
        <ele>684</ele>
        <time>2016-07-21T21:55:36Z</time>
      </trkpt>
      <trkpt lat="45.23636" lon="6.44061">
        <ele>682</ele>
        <time>2016-07-21T21:57:36Z</time>
      </trkpt>
      <trkpt lat="45.23631" lon="6.44086">
        <ele>682</ele>
        <time>2016-07-21T21:59:36Z</time>
      </trkpt>
      <trkpt lat="45.23625" lon="6.4411">
        <ele>683</ele>
        <time>2016-07-21T22:01:36Z</time>
      </trkpt>
      <trkpt lat="45.23618" lon="6.44135">
        <ele>684</ele>
        <time>2016-07-21T22:03:36Z</time>
      </trkpt>
      <trkpt lat="45.23609" lon="6.44161">
        <ele>685</ele>
        <time>2016-07-21T22:05:36Z</time>
      </trkpt>
      <trkpt lat="45.23605" lon="6.44168">
        <ele>685</ele>
        <time>2016-07-21T22:07:36Z</time>
      </trkpt>
      <trkpt lat="45.23596" lon="6.44189">
        <ele>685</ele>
        <time>2016-07-21T22:09:36Z</time>
      </trkpt>
      <trkpt lat="45.23588" lon="6.44208">
        <ele>685</ele>
        <time>2016-07-21T22:11:36Z</time>
      </trkpt>
      <trkpt lat="45.23577" lon="6.44226">
        <ele>685</ele>
        <time>2016-07-21T22:13:36Z</time>
      </trkpt>
      <trkpt lat="45.23566" lon="6.44245">
        <ele>686</ele>
        <time>2016-07-21T22:15:36Z</time>
      </trkpt>
      <trkpt lat="45.23551" lon="6.44265">
        <ele>687</ele>
        <time>2016-07-21T22:17:36Z</time>
      </trkpt>
      <trkpt lat="45.23538" lon="6.44282">
        <ele>687</ele>
        <time>2016-07-21T22:19:36Z</time>
      </trkpt>
      <trkpt lat="45.23499" lon="6.44325">
        <ele>687</ele>
        <time>2016-07-21T22:21:36Z</time>
      </trkpt>
      <trkpt lat="45.23437" lon="6.4438">
        <ele>689</ele>
        <time>2016-07-21T22:23:36Z</time>
      </trkpt>
      <trkpt lat="45.23374" lon="6.44436">
        <ele>691</ele>
        <time>2016-07-21T22:25:36Z</time>
      </trkpt>
      <trkpt lat="45.23317" lon="6.44494">
        <ele>689</ele>
        <time>2016-07-21T22:27:36Z</time>
      </trkpt>
      <trkpt lat="45.23271" lon="6.44541">
        <ele>690</ele>
        <time>2016-07-21T22:29:36Z</time>
      </trkpt>
      <trkpt lat="45.23264" lon="6.44546">
        <ele>689</ele>
        <time>2016-07-21T22:31:36Z</time>
      </trkpt>
      <trkpt lat="45.23241" lon="6.44571">
        <ele>686</ele>
        <time>2016-07-21T22:33:36Z</time>
      </trkpt>
      <trkpt lat="45.23219" lon="6.44597">
        <ele>686</ele>
        <time>2016-07-21T22:35:36Z</time>
      </trkpt>
      <trkpt lat="45.23206" lon="6.44615">
        <ele>687</ele>
        <time>2016-07-21T22:37:36Z</time>
      </trkpt>
      <trkpt lat="45.23179" lon="6.44655">
        <ele>687</ele>
        <time>2016-07-21T22:39:36Z</time>
      </trkpt>
      <trkpt lat="45.23162" lon="6.4468">
        <ele>687</ele>
        <time>2016-07-21T22:41:36Z</time>
      </trkpt>
      <trkpt lat="45.23155" lon="6.44696">
        <ele>687</ele>
        <time>2016-07-21T22:43:36Z</time>
      </trkpt>
      <trkpt lat="45.2315" lon="6.44705">
        <ele>688</ele>
        <time>2016-07-21T22:45:36Z</time>
      </trkpt>
      <trkpt lat="45.23138" lon="6.44725">
        <ele>688</ele>
        <time>2016-07-21T22:47:36Z</time>
      </trkpt>
      <trkpt lat="45.23126" lon="6.44744">
        <ele>689</ele>
        <time>2016-07-21T22:49:36Z</time>
      </trkpt>
      <trkpt lat="45.23104" lon="6.4478">
        <ele>690</ele>
        <time>2016-07-21T22:51:36Z</time>
      </trkpt>
      <trkpt lat="45.23091" lon="6.44799">
        <ele>690</ele>
        <time>2016-07-21T22:53:36Z</time>
      </trkpt>
      <trkpt lat="45.23067" lon="6.4483">
        <ele>688</ele>
        <time>2016-07-21T22:55:36Z</time>
      </trkpt>
      <trkpt lat="45.23064" lon="6.44835">
        <ele>688</ele>
        <time>2016-07-21T22:57:36Z</time>
      </trkpt>
      <trkpt lat="45.23054" lon="6.44845">
        <ele>688</ele>
        <time>2016-07-21T22:59:36Z</time>
      </trkpt>
      <trkpt lat="45.23026" lon="6.44878">
        <ele>689</ele>
        <time>2016-07-21T23:01:36Z</time>
      </trkpt>
      <trkpt lat="45.22988" lon="6.4491">
        <ele>688</ele>
        <time>2016-07-21T23:03:36Z</time>
      </trkpt>
      <trkpt lat="45.22966" lon="6.44926">
        <ele>688</ele>
        <time>2016-07-21T23:05:36Z</time>
      </trkpt>
      <trkpt lat="45.22944" lon="6.44941">
        <ele>688</ele>
        <time>2016-07-21T23:07:36Z</time>
      </trkpt>
      <trkpt lat="45.22922" lon="6.44954">
        <ele>688</ele>
        <time>2016-07-21T23:09:36Z</time>
      </trkpt>
      <trkpt lat="45.22903" lon="6.44966">
        <ele>688</ele>
        <time>2016-07-21T23:11:36Z</time>
      </trkpt>
      <trkpt lat="45.22859" lon="6.44986">
        <ele>688</ele>
        <time>2016-07-21T23:13:36Z</time>
      </trkpt>
      <trkpt lat="45.22823" lon="6.45">
        <ele>687</ele>
        <time>2016-07-21T23:15:36Z</time>
      </trkpt>
      <trkpt lat="45.22798" lon="6.45007">
        <ele>688</ele>
        <time>2016-07-21T23:17:36Z</time>
      </trkpt>
      <trkpt lat="45.22773" lon="6.45016">
        <ele>689</ele>
        <time>2016-07-21T23:19:36Z</time>
      </trkpt>
      <trkpt lat="45.22731" lon="6.45023">
        <ele>690</ele>
        <time>2016-07-21T23:21:36Z</time>
      </trkpt>
      <trkpt lat="45.22635" lon="6.45033">
        <ele>690</ele>
        <time>2016-07-21T23:23:36Z</time>
      </trkpt>
      <trkpt lat="45.22478" lon="6.45047">
        <ele>695</ele>
        <time>2016-07-21T23:25:36Z</time>
      </trkpt>
      <trkpt lat="45.22453" lon="6.45051">
        <ele>695</ele>
        <time>2016-07-21T23:27:36Z</time>
      </trkpt>
      <trkpt lat="45.22428" lon="6.45056">
        <ele>694</ele>
        <time>2016-07-21T23:29:36Z</time>
      </trkpt>
      <trkpt lat="45.22418" lon="6.45059">
        <ele>694</ele>
        <time>2016-07-21T23:31:36Z</time>
      </trkpt>
      <trkpt lat="45.22387" lon="6.45071">
        <ele>692</ele>
        <time>2016-07-21T23:33:36Z</time>
      </trkpt>
      <trkpt lat="45.22361" lon="6.45083">
        <ele>689</ele>
        <time>2016-07-21T23:35:36Z</time>
      </trkpt>
      <trkpt lat="45.22341" lon="6.45093">
        <ele>690</ele>
        <time>2016-07-21T23:37:36Z</time>
      </trkpt>
      <trkpt lat="45.22328" lon="6.45101">
        <ele>691</ele>
        <time>2016-07-21T23:39:36Z</time>
      </trkpt>
      <trkpt lat="45.2231" lon="6.45117">
        <ele>695</ele>
        <time>2016-07-21T23:41:36Z</time>
      </trkpt>
      <trkpt lat="45.22297" lon="6.45134">
        <ele>698</ele>
        <time>2016-07-21T23:43:36Z</time>
      </trkpt>
      <trkpt lat="45.22288" lon="6.45151">
        <ele>700</ele>
        <time>2016-07-21T23:45:36Z</time>
      </trkpt>
      <trkpt lat="45.2228" lon="6.45169">
        <ele>701</ele>
        <time>2016-07-21T23:47:36Z</time>
      </trkpt>
      <trkpt lat="45.22277" lon="6.45177">
        <ele>703</ele>
        <time>2016-07-21T23:49:36Z</time>
      </trkpt>
      <trkpt lat="45.22269" lon="6.45199">
        <ele>704</ele>
        <time>2016-07-21T23:51:36Z</time>
      </trkpt>
      <trkpt lat="45.22261" lon="6.4522">
        <ele>705</ele>
        <time>2016-07-21T23:53:36Z</time>
      </trkpt>
      <trkpt lat="45.22254" lon="6.45239">
        <ele>703</ele>
        <time>2016-07-21T23:55:36Z</time>
      </trkpt>
      <trkpt lat="45.22248" lon="6.45255">
        <ele>702</ele>
        <time>2016-07-21T23:57:36Z</time>
      </trkpt>
      <trkpt lat="45.22241" lon="6.45271">
        <ele>702</ele>
        <time>2016-07-21T23:59:36Z</time>
      </trkpt>
      <trkpt lat="45.22236" lon="6.45281">
        <ele>701</ele>
        <time>2016-07-22T00:01:36Z</time>
      </trkpt>
      <trkpt lat="45.22204" lon="6.45334">
        <ele>701</ele>
        <time>2016-07-22T00:03:36Z</time>
      </trkpt>
      <trkpt lat="45.22144" lon="6.45431">
        <ele>699</ele>
        <time>2016-07-22T00:05:36Z</time>
      </trkpt>
      <trkpt lat="45.22131" lon="6.45456">
        <ele>706</ele>
        <time>2016-07-22T00:07:36Z</time>
      </trkpt>
      <trkpt lat="45.22122" lon="6.45477">
        <ele>711</ele>
        <time>2016-07-22T00:09:36Z</time>
      </trkpt>
      <trkpt lat="45.22111" lon="6.45505">
        <ele>714</ele>
        <time>2016-07-22T00:11:36Z</time>
      </trkpt>
      <trkpt lat="45.221" lon="6.45532">
        <ele>714</ele>
        <time>2016-07-22T00:13:36Z</time>
      </trkpt>
      <trkpt lat="45.22091" lon="6.45565">
        <ele>714</ele>
        <time>2016-07-22T00:15:36Z</time>
      </trkpt>
      <trkpt lat="45.22087" lon="6.45586">
        <ele>713</ele>
        <time>2016-07-22T00:17:36Z</time>
      </trkpt>
      <trkpt lat="45.22086" lon="6.45595">
        <ele>711</ele>
        <time>2016-07-22T00:19:36Z</time>
      </trkpt>
      <trkpt lat="45.22074" lon="6.4569">
        <ele>697</ele>
        <time>2016-07-22T00:21:36Z</time>
      </trkpt>
      <trkpt lat="45.22057" lon="6.45869">
        <ele>698</ele>
        <time>2016-07-22T00:23:36Z</time>
      </trkpt>
      <trkpt lat="45.22049" lon="6.45965">
        <ele>699</ele>
        <time>2016-07-22T00:25:36Z</time>
      </trkpt>
      <trkpt lat="45.22048" lon="6.45995">
        <ele>698</ele>
        <time>2016-07-22T00:27:36Z</time>
      </trkpt>
      <trkpt lat="45.22048" lon="6.4602">
        <ele>698</ele>
        <time>2016-07-22T00:29:36Z</time>
      </trkpt>
      <trkpt lat="45.2205" lon="6.46047">
        <ele>698</ele>
        <time>2016-07-22T00:31:36Z</time>
      </trkpt>
      <trkpt lat="45.22049" lon="6.46047">
        <ele>698</ele>
        <time>2016-07-22T00:33:36Z</time>
      </trkpt>
      <trkpt lat="45.22048" lon="6.46047">
        <ele>698</ele>
        <time>2016-07-22T00:35:36Z</time>
      </trkpt>
      <trkpt lat="45.22047" lon="6.46048">
        <ele>698</ele>
        <time>2016-07-22T00:37:36Z</time>
      </trkpt>
      <trkpt lat="45.22046" lon="6.46048">
        <ele>698</ele>
        <time>2016-07-22T00:39:36Z</time>
      </trkpt>
      <trkpt lat="45.22045" lon="6.46049">
        <ele>698</ele>
        <time>2016-07-22T00:41:36Z</time>
      </trkpt>
      <trkpt lat="45.22044" lon="6.4605">
        <ele>698</ele>
        <time>2016-07-22T00:43:36Z</time>
      </trkpt>
      <trkpt lat="45.22043" lon="6.46051">
        <ele>698</ele>
        <time>2016-07-22T00:45:36Z</time>
      </trkpt>
      <trkpt lat="45.22043" lon="6.46052">
        <ele>698</ele>
        <time>2016-07-22T00:47:36Z</time>
      </trkpt>
      <trkpt lat="45.22042" lon="6.46052">
        <ele>698</ele>
        <time>2016-07-22T00:49:36Z</time>
      </trkpt>
      <trkpt lat="45.22042" lon="6.46053">
        <ele>698</ele>
        <time>2016-07-22T00:51:36Z</time>
      </trkpt>
      <trkpt lat="45.22041" lon="6.46054">
        <ele>699</ele>
        <time>2016-07-22T00:53:36Z</time>
      </trkpt>
      <trkpt lat="45.22041" lon="6.46055">
        <ele>699</ele>
        <time>2016-07-22T00:55:36Z</time>
      </trkpt>
      <trkpt lat="45.2204" lon="6.46056">
        <ele>699</ele>
        <time>2016-07-22T00:57:36Z</time>
      </trkpt>
      <trkpt lat="45.2204" lon="6.46057">
        <ele>699</ele>
        <time>2016-07-22T00:59:36Z</time>
      </trkpt>
      <trkpt lat="45.2204" lon="6.46058">
        <ele>699</ele>
        <time>2016-07-22T01:01:36Z</time>
      </trkpt>
      <trkpt lat="45.2204" lon="6.46059">
        <ele>699</ele>
        <time>2016-07-22T01:03:36Z</time>
      </trkpt>
      <trkpt lat="45.22039" lon="6.4606">
        <ele>699</ele>
        <time>2016-07-22T01:05:36Z</time>
      </trkpt>
      <trkpt lat="45.22039" lon="6.46061">
        <ele>699</ele>
        <time>2016-07-22T01:07:36Z</time>
      </trkpt>
      <trkpt lat="45.22039" lon="6.46062">
        <ele>699</ele>
        <time>2016-07-22T01:09:36Z</time>
      </trkpt>
      <trkpt lat="45.22039" lon="6.46063">
        <ele>699</ele>
        <time>2016-07-22T01:11:36Z</time>
      </trkpt>
      <trkpt lat="45.22039" lon="6.46064">
        <ele>699</ele>
        <time>2016-07-22T01:13:36Z</time>
      </trkpt>
      <trkpt lat="45.22039" lon="6.46065">
        <ele>699</ele>
        <time>2016-07-22T01:15:36Z</time>
      </trkpt>
      <trkpt lat="45.22039" lon="6.46066">
        <ele>699</ele>
        <time>2016-07-22T01:17:36Z</time>
      </trkpt>
      <trkpt lat="45.2204" lon="6.46067">
        <ele>699</ele>
        <time>2016-07-22T01:19:36Z</time>
      </trkpt>
      <trkpt lat="45.2204" lon="6.46068">
        <ele>699</ele>
        <time>2016-07-22T01:21:36Z</time>
      </trkpt>
      <trkpt lat="45.2204" lon="6.46069">
        <ele>699</ele>
        <time>2016-07-22T01:23:36Z</time>
      </trkpt>
      <trkpt lat="45.2204" lon="6.4607">
        <ele>699</ele>
        <time>2016-07-22T01:25:36Z</time>
      </trkpt>
      <trkpt lat="45.22041" lon="6.46071">
        <ele>699</ele>
        <time>2016-07-22T01:27:36Z</time>
      </trkpt>
      <trkpt lat="45.22041" lon="6.46072">
        <ele>699</ele>
        <time>2016-07-22T01:29:36Z</time>
      </trkpt>
      <trkpt lat="45.22041" lon="6.46073">
        <ele>699</ele>
        <time>2016-07-22T01:31:36Z</time>
      </trkpt>
      <trkpt lat="45.22042" lon="6.46073">
        <ele>698</ele>
        <time>2016-07-22T01:33:36Z</time>
      </trkpt>
      <trkpt lat="45.22042" lon="6.46074">
        <ele>698</ele>
        <time>2016-07-22T01:35:36Z</time>
      </trkpt>
      <trkpt lat="45.22042" lon="6.46075">
        <ele>698</ele>
        <time>2016-07-22T01:37:36Z</time>
      </trkpt>
      <trkpt lat="45.22043" lon="6.46076">
        <ele>698</ele>
        <time>2016-07-22T01:39:36Z</time>
      </trkpt>
      <trkpt lat="45.22039" lon="6.46087">
        <ele>699</ele>
        <time>2016-07-22T01:41:36Z</time>
      </trkpt>
      <trkpt lat="45.22034" lon="6.46104">
        <ele>699</ele>
        <time>2016-07-22T01:43:36Z</time>
      </trkpt>
      <trkpt lat="45.22025" lon="6.46158">
        <ele>701</ele>
        <time>2016-07-22T01:45:36Z</time>
      </trkpt>
      <trkpt lat="45.22017" lon="6.46204">
        <ele>702</ele>
        <time>2016-07-22T01:47:36Z</time>
      </trkpt>
      <trkpt lat="45.22015" lon="6.46216">
        <ele>702</ele>
        <time>2016-07-22T01:49:36Z</time>
      </trkpt>
      <trkpt lat="45.22015" lon="6.46217">
        <ele>702</ele>
        <time>2016-07-22T01:51:36Z</time>
      </trkpt>
      <trkpt lat="45.22012" lon="6.46234">
        <ele>702</ele>
        <time>2016-07-22T01:53:36Z</time>
      </trkpt>
      <trkpt lat="45.2201" lon="6.46251">
        <ele>702</ele>
        <time>2016-07-22T01:55:36Z</time>
      </trkpt>
      <trkpt lat="45.22008" lon="6.46264">
        <ele>703</ele>
        <time>2016-07-22T01:57:36Z</time>
      </trkpt>
      <trkpt lat="45.22007" lon="6.46276">
        <ele>704</ele>
        <time>2016-07-22T01:59:36Z</time>
      </trkpt>
      <trkpt lat="45.22002" lon="6.46319">
        <ele>706</ele>
        <time>2016-07-22T02:01:36Z</time>
      </trkpt>
      <trkpt lat="45.21995" lon="6.46381">
        <ele>705</ele>
        <time>2016-07-22T02:03:36Z</time>
      </trkpt>
      <trkpt lat="45.21983" lon="6.46472">
        <ele>704</ele>
        <time>2016-07-22T02:05:36Z</time>
      </trkpt>
      <trkpt lat="45.21983" lon="6.46472">
        <ele>704</ele>
        <time>2016-07-22T02:07:36Z</time>
      </trkpt>
      <trkpt lat="45.21982" lon="6.46472">
        <ele>704</ele>
        <time>2016-07-22T02:09:36Z</time>
      </trkpt>
      <trkpt lat="45.21981" lon="6.46472">
        <ele>704</ele>
        <time>2016-07-22T02:11:36Z</time>
      </trkpt>
      <trkpt lat="45.2198" lon="6.46472">
        <ele>704</ele>
        <time>2016-07-22T02:13:36Z</time>
      </trkpt>
      <trkpt lat="45.21979" lon="6.46473">
        <ele>704</ele>
        <time>2016-07-22T02:15:36Z</time>
      </trkpt>
      <trkpt lat="45.21978" lon="6.46473">
        <ele>704</ele>
        <time>2016-07-22T02:17:36Z</time>
      </trkpt>
      <trkpt lat="45.21977" lon="6.46473">
        <ele>704</ele>
        <time>2016-07-22T02:19:36Z</time>
      </trkpt>
      <trkpt lat="45.21977" lon="6.46474">
        <ele>704</ele>
        <time>2016-07-22T02:21:36Z</time>
      </trkpt>
      <trkpt lat="45.21976" lon="6.46474">
        <ele>704</ele>
        <time>2016-07-22T02:23:36Z</time>
      </trkpt>
      <trkpt lat="45.21976" lon="6.46475">
        <ele>704</ele>
        <time>2016-07-22T02:25:36Z</time>
      </trkpt>
      <trkpt lat="45.21975" lon="6.46475">
        <ele>704</ele>
        <time>2016-07-22T02:27:36Z</time>
      </trkpt>
      <trkpt lat="45.21975" lon="6.46476">
        <ele>704</ele>
        <time>2016-07-22T02:29:36Z</time>
      </trkpt>
      <trkpt lat="45.21974" lon="6.46476">
        <ele>704</ele>
        <time>2016-07-22T02:31:36Z</time>
      </trkpt>
      <trkpt lat="45.21974" lon="6.46477">
        <ele>704</ele>
        <time>2016-07-22T02:33:36Z</time>
      </trkpt>
      <trkpt lat="45.21973" lon="6.46478">
        <ele>704</ele>
        <time>2016-07-22T02:35:36Z</time>
      </trkpt>
      <trkpt lat="45.21973" lon="6.46479">
        <ele>704</ele>
        <time>2016-07-22T02:37:36Z</time>
      </trkpt>
      <trkpt lat="45.21972" lon="6.4648">
        <ele>704</ele>
        <time>2016-07-22T02:39:36Z</time>
      </trkpt>
      <trkpt lat="45.21972" lon="6.46481">
        <ele>704</ele>
        <time>2016-07-22T02:41:36Z</time>
      </trkpt>
      <trkpt lat="45.21971" lon="6.46482">
        <ele>704</ele>
        <time>2016-07-22T02:43:36Z</time>
      </trkpt>
      <trkpt lat="45.21971" lon="6.46483">
        <ele>704</ele>
        <time>2016-07-22T02:45:36Z</time>
      </trkpt>
      <trkpt lat="45.21971" lon="6.46484">
        <ele>704</ele>
        <time>2016-07-22T02:47:36Z</time>
      </trkpt>
      <trkpt lat="45.21971" lon="6.46485">
        <ele>704</ele>
        <time>2016-07-22T02:49:36Z</time>
      </trkpt>
      <trkpt lat="45.2197" lon="6.46486">
        <ele>704</ele>
        <time>2016-07-22T02:51:36Z</time>
      </trkpt>
      <trkpt lat="45.2197" lon="6.46487">
        <ele>704</ele>
        <time>2016-07-22T02:53:36Z</time>
      </trkpt>
      <trkpt lat="45.2197" lon="6.46488">
        <ele>704</ele>
        <time>2016-07-22T02:55:36Z</time>
      </trkpt>
      <trkpt lat="45.2197" lon="6.46489">
        <ele>704</ele>
        <time>2016-07-22T02:57:36Z</time>
      </trkpt>
      <trkpt lat="45.2197" lon="6.4649">
        <ele>704</ele>
        <time>2016-07-22T02:59:36Z</time>
      </trkpt>
      <trkpt lat="45.2197" lon="6.46491">
        <ele>704</ele>
        <time>2016-07-22T03:01:36Z</time>
      </trkpt>
      <trkpt lat="45.21971" lon="6.46492">
        <ele>705</ele>
        <time>2016-07-22T03:03:36Z</time>
      </trkpt>
      <trkpt lat="45.21971" lon="6.46493">
        <ele>705</ele>
        <time>2016-07-22T03:05:36Z</time>
      </trkpt>
      <trkpt lat="45.21971" lon="6.46494">
        <ele>705</ele>
        <time>2016-07-22T03:07:36Z</time>
      </trkpt>
      <trkpt lat="45.21971" lon="6.46495">
        <ele>705</ele>
        <time>2016-07-22T03:09:36Z</time>
      </trkpt>
      <trkpt lat="45.21971" lon="6.46496">
        <ele>705</ele>
        <time>2016-07-22T03:11:36Z</time>
      </trkpt>
      <trkpt lat="45.21972" lon="6.46496">
        <ele>705</ele>
        <time>2016-07-22T03:13:36Z</time>
      </trkpt>
      <trkpt lat="45.21972" lon="6.46497">
        <ele>705</ele>
        <time>2016-07-22T03:15:36Z</time>
      </trkpt>
      <trkpt lat="45.21972" lon="6.46498">
        <ele>705</ele>
        <time>2016-07-22T03:17:36Z</time>
      </trkpt>
      <trkpt lat="45.21973" lon="6.46499">
        <ele>705</ele>
        <time>2016-07-22T03:19:36Z</time>
      </trkpt>
      <trkpt lat="45.21974" lon="6.465">
        <ele>705</ele>
        <time>2016-07-22T03:21:36Z</time>
      </trkpt>
      <trkpt lat="45.21974" lon="6.46501">
        <ele>705</ele>
        <time>2016-07-22T03:23:36Z</time>
      </trkpt>
      <trkpt lat="45.21975" lon="6.46502">
        <ele>705</ele>
        <time>2016-07-22T03:25:36Z</time>
      </trkpt>
      <trkpt lat="45.21976" lon="6.46503">
        <ele>705</ele>
        <time>2016-07-22T03:27:36Z</time>
      </trkpt>
      <trkpt lat="45.21977" lon="6.46504">
        <ele>705</ele>
        <time>2016-07-22T03:29:36Z</time>
      </trkpt>
      <trkpt lat="45.21978" lon="6.46504">
        <ele>705</ele>
        <time>2016-07-22T03:31:36Z</time>
      </trkpt>
      <trkpt lat="45.21979" lon="6.46505">
        <ele>705</ele>
        <time>2016-07-22T03:33:36Z</time>
      </trkpt>
      <trkpt lat="45.2198" lon="6.46505">
        <ele>705</ele>
        <time>2016-07-22T03:35:36Z</time>
      </trkpt>
      <trkpt lat="45.21981" lon="6.46505">
        <ele>705</ele>
        <time>2016-07-22T03:37:36Z</time>
      </trkpt>
      <trkpt lat="45.21982" lon="6.46505">
        <ele>705</ele>
        <time>2016-07-22T03:39:36Z</time>
      </trkpt>
      <trkpt lat="45.21982" lon="6.46505">
        <ele>705</ele>
        <time>2016-07-22T03:41:36Z</time>
      </trkpt>
      <trkpt lat="45.21978" lon="6.46545">
        <ele>705</ele>
        <time>2016-07-22T03:43:36Z</time>
      </trkpt>
      <trkpt lat="45.21976" lon="6.46569">
        <ele>705</ele>
        <time>2016-07-22T03:45:36Z</time>
      </trkpt>
      <trkpt lat="45.21963" lon="6.46693">
        <ele>705</ele>
        <time>2016-07-22T03:47:36Z</time>
      </trkpt>
      <trkpt lat="45.21954" lon="6.4678">
        <ele>706</ele>
        <time>2016-07-22T03:49:36Z</time>
      </trkpt>
      <trkpt lat="45.21952" lon="6.46798">
        <ele>706</ele>
        <time>2016-07-22T03:51:36Z</time>
      </trkpt>
      <trkpt lat="45.21945" lon="6.46862">
        <ele>708</ele>
        <time>2016-07-22T03:53:36Z</time>
      </trkpt>
      <trkpt lat="45.21943" lon="6.46886">
        <ele>709</ele>
        <time>2016-07-22T03:55:36Z</time>
      </trkpt>
      <trkpt lat="45.21939" lon="6.46901">
        <ele>710</ele>
        <time>2016-07-22T03:57:36Z</time>
      </trkpt>
      <trkpt lat="45.21935" lon="6.46912">
        <ele>710</ele>
        <time>2016-07-22T03:59:36Z</time>
      </trkpt>
      <trkpt lat="45.21915" lon="6.46944">
        <ele>708</ele>
        <time>2016-07-22T04:01:36Z</time>
      </trkpt>
      <trkpt lat="45.21884" lon="6.4699">
        <ele>709</ele>
        <time>2016-07-22T04:03:36Z</time>
      </trkpt>
      <trkpt lat="45.21856" lon="6.47031">
        <ele>710</ele>
        <time>2016-07-22T04:05:36Z</time>
      </trkpt>
      <trkpt lat="45.21825" lon="6.47077">
        <ele>711</ele>
        <time>2016-07-22T04:07:36Z</time>
      </trkpt>
      <trkpt lat="45.21809" lon="6.47101">
        <ele>711</ele>
        <time>2016-07-22T04:09:36Z</time>
      </trkpt>
      <trkpt lat="45.21801" lon="6.47111">
        <ele>711</ele>
        <time>2016-07-22T04:11:36Z</time>
      </trkpt>
      <trkpt lat="45.21797" lon="6.47115">
        <ele>711</ele>
        <time>2016-07-22T04:13:36Z</time>
      </trkpt>
      <trkpt lat="45.21788" lon="6.47125">
        <ele>711</ele>
        <time>2016-07-22T04:15:36Z</time>
      </trkpt>
      <trkpt lat="45.2178" lon="6.47132">
        <ele>711</ele>
        <time>2016-07-22T04:17:36Z</time>
      </trkpt>
      <trkpt lat="45.21773" lon="6.47138">
        <ele>711</ele>
        <time>2016-07-22T04:19:36Z</time>
      </trkpt>
      <trkpt lat="45.21758" lon="6.47158">
        <ele>711</ele>
        <time>2016-07-22T04:21:36Z</time>
      </trkpt>
      <trkpt lat="45.21751" lon="6.47172">
        <ele>711</ele>
        <time>2016-07-22T04:23:36Z</time>
      </trkpt>
      <trkpt lat="45.21722" lon="6.47228">
        <ele>713</ele>
        <time>2016-07-22T04:25:36Z</time>
      </trkpt>
      <trkpt lat="45.21712" lon="6.47244">
        <ele>713</ele>
        <time>2016-07-22T04:27:36Z</time>
      </trkpt>
      <trkpt lat="45.217" lon="6.47262">
        <ele>714</ele>
        <time>2016-07-22T04:29:36Z</time>
      </trkpt>
      <trkpt lat="45.21679" lon="6.47297">
        <ele>714</ele>
        <time>2016-07-22T04:31:36Z</time>
      </trkpt>
      <trkpt lat="45.21645" lon="6.47355">
        <ele>714</ele>
        <time>2016-07-22T04:33:36Z</time>
      </trkpt>
      <trkpt lat="45.21627" lon="6.47386">
        <ele>714</ele>
        <time>2016-07-22T04:35:36Z</time>
      </trkpt>
      <trkpt lat="45.216" lon="6.47437">
        <ele>715</ele>
        <time>2016-07-22T04:37:36Z</time>
      </trkpt>
      <trkpt lat="45.21584" lon="6.47468">
        <ele>716</ele>
        <time>2016-07-22T04:39:36Z</time>
      </trkpt>
      <trkpt lat="45.21571" lon="6.47491">
        <ele>717</ele>
        <time>2016-07-22T04:41:36Z</time>
      </trkpt>
      <trkpt lat="45.21531" lon="6.47541">
        <ele>721</ele>
        <time>2016-07-22T04:43:36Z</time>
      </trkpt>
      <trkpt lat="45.215" lon="6.47578">
        <ele>721</ele>
        <time>2016-07-22T04:45:36Z</time>
      </trkpt>
      <trkpt lat="45.21493" lon="6.47587">
        <ele>722</ele>
        <time>2016-07-22T04:47:36Z</time>
      </trkpt>
      <trkpt lat="45.21461" lon="6.47626">
        <ele>727</ele>
        <time>2016-07-22T04:49:36Z</time>
      </trkpt>
      <trkpt lat="45.21445" lon="6.47643">
        <ele>727</ele>
        <time>2016-07-22T04:51:36Z</time>
      </trkpt>
      <trkpt lat="45.21429" lon="6.47657">
        <ele>726</ele>
        <time>2016-07-22T04:53:36Z</time>
      </trkpt>
      <trkpt lat="45.21412" lon="6.4767">
        <ele>724</ele>
        <time>2016-07-22T04:55:36Z</time>
      </trkpt>
      <trkpt lat="45.21384" lon="6.47692">
        <ele>727</ele>
        <time>2016-07-22T04:57:36Z</time>
      </trkpt>
      <trkpt lat="45.21373" lon="6.47702">
        <ele>727</ele>
        <time>2016-07-22T04:59:36Z</time>
      </trkpt>
      <trkpt lat="45.21363" lon="6.4771">
        <ele>727</ele>
        <time>2016-07-22T05:01:36Z</time>
      </trkpt>
      <trkpt lat="45.21317" lon="6.47743">
        <ele>725</ele>
        <time>2016-07-22T05:03:36Z</time>
      </trkpt>
      <trkpt lat="45.21278" lon="6.47768">
        <ele>725</ele>
        <time>2016-07-22T05:05:36Z</time>
      </trkpt>
      <trkpt lat="45.21249" lon="6.47788">
        <ele>726</ele>
        <time>2016-07-22T05:07:36Z</time>
      </trkpt>
      <trkpt lat="45.21231" lon="6.478">
        <ele>727</ele>
        <time>2016-07-22T05:09:36Z</time>
      </trkpt>
      <trkpt lat="45.21214" lon="6.47811">
        <ele>727</ele>
        <time>2016-07-22T05:11:36Z</time>
      </trkpt>
      <trkpt lat="45.21203" lon="6.47819">
        <ele>728</ele>
        <time>2016-07-22T05:13:36Z</time>
      </trkpt>
      <trkpt lat="45.21193" lon="6.47825">
        <ele>728</ele>
        <time>2016-07-22T05:15:36Z</time>
      </trkpt>
      <trkpt lat="45.21177" lon="6.47836">
        <ele>728</ele>
        <time>2016-07-22T05:17:36Z</time>
      </trkpt>
      <trkpt lat="45.2115" lon="6.47854">
        <ele>729</ele>
        <time>2016-07-22T05:19:36Z</time>
      </trkpt>
      <trkpt lat="45.21113" lon="6.47879">
        <ele>729</ele>
        <time>2016-07-22T05:21:36Z</time>
      </trkpt>
      <trkpt lat="45.21086" lon="6.47897">
        <ele>729</ele>
        <time>2016-07-22T05:23:36Z</time>
      </trkpt>
      <trkpt lat="45.21067" lon="6.47912">
        <ele>730</ele>
        <time>2016-07-22T05:25:36Z</time>
      </trkpt>
      <trkpt lat="45.21053" lon="6.47924">
        <ele>729</ele>
        <time>2016-07-22T05:27:36Z</time>
      </trkpt>
      <trkpt lat="45.21047" lon="6.47929">
        <ele>729</ele>
        <time>2016-07-22T05:29:36Z</time>
      </trkpt>
      <trkpt lat="45.21046" lon="6.47929">
        <ele>729</ele>
        <time>2016-07-22T05:31:36Z</time>
      </trkpt>
      <trkpt lat="45.21045" lon="6.47931">
        <ele>729</ele>
        <time>2016-07-22T05:33:36Z</time>
      </trkpt>
      <trkpt lat="45.21037" lon="6.47941">
        <ele>729</ele>
        <time>2016-07-22T05:35:36Z</time>
      </trkpt>
      <trkpt lat="45.21031" lon="6.47952">
        <ele>729</ele>
        <time>2016-07-22T05:37:36Z</time>
      </trkpt>
      <trkpt lat="45.21029" lon="6.47957">
        <ele>730</ele>
        <time>2016-07-22T05:39:36Z</time>
      </trkpt>
      <trkpt lat="45.21027" lon="6.47964">
        <ele>730</ele>
        <time>2016-07-22T05:41:36Z</time>
      </trkpt>
      <trkpt lat="45.21026" lon="6.47971">
        <ele>730</ele>
        <time>2016-07-22T05:43:36Z</time>
      </trkpt>
      <trkpt lat="45.21024" lon="6.47978">
        <ele>730</ele>
        <time>2016-07-22T05:45:36Z</time>
      </trkpt>
      <trkpt lat="45.21023" lon="6.47985">
        <ele>730</ele>
        <time>2016-07-22T05:47:36Z</time>
      </trkpt>
      <trkpt lat="45.21022" lon="6.47991">
        <ele>730</ele>
        <time>2016-07-22T05:49:36Z</time>
      </trkpt>
      <trkpt lat="45.21022" lon="6.47999">
        <ele>730</ele>
        <time>2016-07-22T05:51:36Z</time>
      </trkpt>
      <trkpt lat="45.21022" lon="6.48005">
        <ele>730</ele>
        <time>2016-07-22T05:53:36Z</time>
      </trkpt>
      <trkpt lat="45.21022" lon="6.48016">
        <ele>731</ele>
        <time>2016-07-22T05:55:36Z</time>
      </trkpt>
      <trkpt lat="45.21023" lon="6.48026">
        <ele>731</ele>
        <time>2016-07-22T05:57:36Z</time>
      </trkpt>
      <trkpt lat="45.21025" lon="6.48038">
        <ele>732</ele>
        <time>2016-07-22T05:59:36Z</time>
      </trkpt>
      <trkpt lat="45.21029" lon="6.48055">
        <ele>733</ele>
        <time>2016-07-22T06:01:36Z</time>
      </trkpt>
      <trkpt lat="45.21032" lon="6.48066">
        <ele>734</ele>
        <time>2016-07-22T06:03:36Z</time>
      </trkpt>
      <trkpt lat="45.21036" lon="6.48076">
        <ele>734</ele>
        <time>2016-07-22T06:05:36Z</time>
      </trkpt>
      <trkpt lat="45.21046" lon="6.48118">
        <ele>736</ele>
        <time>2016-07-22T06:07:36Z</time>
      </trkpt>
      <trkpt lat="45.21063" lon="6.48194">
        <ele>738</ele>
        <time>2016-07-22T06:09:36Z</time>
      </trkpt>
      <trkpt lat="45.21068" lon="6.48223">
        <ele>738</ele>
        <time>2016-07-22T06:11:36Z</time>
      </trkpt>
      <trkpt lat="45.21071" lon="6.48243">
        <ele>738</ele>
        <time>2016-07-22T06:13:36Z</time>
      </trkpt>
      <trkpt lat="45.21073" lon="6.48266">
        <ele>739</ele>
        <time>2016-07-22T06:15:36Z</time>
      </trkpt>
      <trkpt lat="45.21074" lon="6.48285">
        <ele>741</ele>
        <time>2016-07-22T06:17:36Z</time>
      </trkpt>
      <trkpt lat="45.21076" lon="6.4833">
        <ele>744</ele>
        <time>2016-07-22T06:19:36Z</time>
      </trkpt>
      <trkpt lat="45.21076" lon="6.4836">
        <ele>747</ele>
        <time>2016-07-22T06:21:36Z</time>
      </trkpt>
      <trkpt lat="45.21077" lon="6.48398">
        <ele>751</ele>
        <time>2016-07-22T06:23:36Z</time>
      </trkpt>
      <trkpt lat="45.21077" lon="6.48424">
        <ele>753</ele>
        <time>2016-07-22T06:25:36Z</time>
      </trkpt>
      <trkpt lat="45.21078" lon="6.48431">
        <ele>753</ele>
        <time>2016-07-22T06:27:36Z</time>
      </trkpt>
      <trkpt lat="45.21076" lon="6.48464">
        <ele>753</ele>
        <time>2016-07-22T06:29:36Z</time>
      </trkpt>
      <trkpt lat="45.21073" lon="6.48485">
        <ele>753</ele>
        <time>2016-07-22T06:31:36Z</time>
      </trkpt>
      <trkpt lat="45.2107" lon="6.485">
        <ele>753</ele>
        <time>2016-07-22T06:33:36Z</time>
      </trkpt>
      <trkpt lat="45.21066" lon="6.48514">
        <ele>752</ele>
        <time>2016-07-22T06:35:36Z</time>
      </trkpt>
      <trkpt lat="45.21058" lon="6.48538">
        <ele>751</ele>
        <time>2016-07-22T06:37:36Z</time>
      </trkpt>
      <trkpt lat="45.21046" lon="6.48572">
        <ele>750</ele>
        <time>2016-07-22T06:39:36Z</time>
      </trkpt>
      <trkpt lat="45.21033" lon="6.48606">
        <ele>752</ele>
        <time>2016-07-22T06:41:36Z</time>
      </trkpt>
      <trkpt lat="45.2103" lon="6.48612">
        <ele>753</ele>
        <time>2016-07-22T06:43:36Z</time>
      </trkpt>
      <trkpt lat="45.21023" lon="6.48633">
        <ele>754</ele>
        <time>2016-07-22T06:45:36Z</time>
      </trkpt>
      <trkpt lat="45.2102" lon="6.48645">
        <ele>755</ele>
        <time>2016-07-22T06:47:36Z</time>
      </trkpt>
      <trkpt lat="45.21016" lon="6.48668">
        <ele>756</ele>
        <time>2016-07-22T06:49:36Z</time>
      </trkpt>
      <trkpt lat="45.21014" lon="6.48691">
        <ele>756</ele>
        <time>2016-07-22T06:51:36Z</time>
      </trkpt>
      <trkpt lat="45.21013" lon="6.48707">
        <ele>756</ele>
        <time>2016-07-22T06:53:36Z</time>
      </trkpt>
      <trkpt lat="45.21013" lon="6.48711">
        <ele>756</ele>
        <time>2016-07-22T06:55:36Z</time>
      </trkpt>
      <trkpt lat="45.21014" lon="6.48735">
        <ele>755</ele>
        <time>2016-07-22T06:57:36Z</time>
      </trkpt>
      <trkpt lat="45.21017" lon="6.48796">
        <ele>754</ele>
        <time>2016-07-22T06:59:36Z</time>
      </trkpt>
      <trkpt lat="45.21028" lon="6.48884">
        <ele>757</ele>
        <time>2016-07-22T07:01:36Z</time>
      </trkpt>
      <trkpt lat="45.21032" lon="6.48895">
        <ele>758</ele>
        <time>2016-07-22T07:03:36Z</time>
      </trkpt>
      <trkpt lat="45.21035" lon="6.48916">
        <ele>759</ele>
        <time>2016-07-22T07:05:36Z</time>
      </trkpt>
      <trkpt lat="45.21037" lon="6.48928">
        <ele>759</ele>
        <time>2016-07-22T07:07:36Z</time>
      </trkpt>
      <trkpt lat="45.21044" lon="6.48962">
        <ele>760</ele>
        <time>2016-07-22T07:09:36Z</time>
      </trkpt>
      <trkpt lat="45.21053" lon="6.49004">
        <ele>760</ele>
        <time>2016-07-22T07:11:36Z</time>
      </trkpt>
      <trkpt lat="45.21056" lon="6.49019">
        <ele>760</ele>
        <time>2016-07-22T07:13:36Z</time>
      </trkpt>
      <trkpt lat="45.21058" lon="6.49028">
        <ele>760</ele>
        <time>2016-07-22T07:15:36Z</time>
      </trkpt>
      <trkpt lat="45.21063" lon="6.49053">
        <ele>760</ele>
        <time>2016-07-22T07:17:36Z</time>
      </trkpt>
      <trkpt lat="45.21066" lon="6.49066">
        <ele>760</ele>
        <time>2016-07-22T07:19:36Z</time>
      </trkpt>
      <trkpt lat="45.2107" lon="6.49091">
        <ele>760</ele>
        <time>2016-07-22T07:21:36Z</time>
      </trkpt>
      <trkpt lat="45.21072" lon="6.49105">
        <ele>759</ele>
        <time>2016-07-22T07:23:36Z</time>
      </trkpt>
      <trkpt lat="45.21074" lon="6.49139">
        <ele>758</ele>
        <time>2016-07-22T07:25:36Z</time>
      </trkpt>
      <trkpt lat="45.21077" lon="6.4923">
        <ele>755</ele>
        <time>2016-07-22T07:27:36Z</time>
      </trkpt>
      <trkpt lat="45.2108" lon="6.49375">
        <ele>761</ele>
        <time>2016-07-22T07:29:36Z</time>
      </trkpt>
      <trkpt lat="45.21084" lon="6.49589">
        <ele>767</ele>
        <time>2016-07-22T07:31:36Z</time>
      </trkpt>
      <trkpt lat="45.21085" lon="6.49635">
        <ele>769</ele>
        <time>2016-07-22T07:33:36Z</time>
      </trkpt>
      <trkpt lat="45.21088" lon="6.49716">
        <ele>773</ele>
        <time>2016-07-22T07:35:36Z</time>
      </trkpt>
      <trkpt lat="45.2109" lon="6.49773">
        <ele>774</ele>
        <time>2016-07-22T07:37:36Z</time>
      </trkpt>
      <trkpt lat="45.21092" lon="6.49828">
        <ele>774</ele>
        <time>2016-07-22T07:39:36Z</time>
      </trkpt>
      <trkpt lat="45.21093" lon="6.49875">
        <ele>775</ele>
        <time>2016-07-22T07:41:36Z</time>
      </trkpt>
      <trkpt lat="45.21095" lon="6.49909">
        <ele>775</ele>
        <time>2016-07-22T07:43:36Z</time>
      </trkpt>
      <trkpt lat="45.21097" lon="6.49976">
        <ele>777</ele>
        <time>2016-07-22T07:45:36Z</time>
      </trkpt>
      <trkpt lat="45.211" lon="6.50029">
        <ele>777</ele>
        <time>2016-07-22T07:47:36Z</time>
      </trkpt>
      <trkpt lat="45.21104" lon="6.50104">
        <ele>779</ele>
        <time>2016-07-22T07:49:36Z</time>
      </trkpt>
      <trkpt lat="45.21109" lon="6.50214">
        <ele>786</ele>
        <time>2016-07-22T07:51:36Z</time>
      </trkpt>
      <trkpt lat="45.21112" lon="6.50277">
        <ele>788</ele>
        <time>2016-07-22T07:53:36Z</time>
      </trkpt>
      <trkpt lat="45.21117" lon="6.50369">
        <ele>788</ele>
        <time>2016-07-22T07:55:36Z</time>
      </trkpt>
      <trkpt lat="45.21121" lon="6.50459">
        <ele>790</ele>
        <time>2016-07-22T07:57:36Z</time>
      </trkpt>
      <trkpt lat="45.21123" lon="6.50504">
        <ele>792</ele>
        <time>2016-07-22T07:59:36Z</time>
      </trkpt>
      <trkpt lat="45.21123" lon="6.50566">
        <ele>793</ele>
        <time>2016-07-22T08:01:36Z</time>
      </trkpt>
      <trkpt lat="45.21123" lon="6.50639">
        <ele>797</ele>
        <time>2016-07-22T08:03:36Z</time>
      </trkpt>
      <trkpt lat="45.21121" lon="6.50702">
        <ele>801</ele>
        <time>2016-07-22T08:05:36Z</time>
      </trkpt>
      <trkpt lat="45.21119" lon="6.5079">
        <ele>808</ele>
        <time>2016-07-22T08:07:36Z</time>
      </trkpt>
      <trkpt lat="45.21116" lon="6.5086">
        <ele>816</ele>
        <time>2016-07-22T08:09:36Z</time>
      </trkpt>
      <trkpt lat="45.21114" lon="6.50909">
        <ele>819</ele>
        <time>2016-07-22T08:11:36Z</time>
      </trkpt>
      <trkpt lat="45.21111" lon="6.50932">
        <ele>819</ele>
        <time>2016-07-22T08:13:36Z</time>
      </trkpt>
      <trkpt lat="45.21108" lon="6.50951">
        <ele>819</ele>
        <time>2016-07-22T08:15:36Z</time>
      </trkpt>
      <trkpt lat="45.21102" lon="6.50987">
        <ele>818</ele>
        <time>2016-07-22T08:17:36Z</time>
      </trkpt>
      <trkpt lat="45.21094" lon="6.51016">
        <ele>817</ele>
        <time>2016-07-22T08:19:36Z</time>
      </trkpt>
      <trkpt lat="45.21087" lon="6.5104">
        <ele>817</ele>
        <time>2016-07-22T08:21:36Z</time>
      </trkpt>
      <trkpt lat="45.21077" lon="6.5107">
        <ele>820</ele>
        <time>2016-07-22T08:23:36Z</time>
      </trkpt>
      <trkpt lat="45.2107" lon="6.51091">
        <ele>824</ele>
        <time>2016-07-22T08:25:36Z</time>
      </trkpt>
      <trkpt lat="45.21043" lon="6.51176">
        <ele>837</ele>
        <time>2016-07-22T08:27:36Z</time>
      </trkpt>
      <trkpt lat="45.21032" lon="6.51205">
        <ele>841</ele>
        <time>2016-07-22T08:29:36Z</time>
      </trkpt>
      <trkpt lat="45.21025" lon="6.51229">
        <ele>842</ele>
        <time>2016-07-22T08:31:36Z</time>
      </trkpt>
      <trkpt lat="45.21021" lon="6.51244">
        <ele>841</ele>
        <time>2016-07-22T08:33:36Z</time>
      </trkpt>
      <trkpt lat="45.21018" lon="6.51256">
        <ele>840</ele>
        <time>2016-07-22T08:35:36Z</time>
      </trkpt>
      <trkpt lat="45.21015" lon="6.51269">
        <ele>839</ele>
        <time>2016-07-22T08:37:36Z</time>
      </trkpt>
      <trkpt lat="45.21012" lon="6.51285">
        <ele>836</ele>
        <time>2016-07-22T08:39:36Z</time>
      </trkpt>
      <trkpt lat="45.21006" lon="6.51328">
        <ele>827</ele>
        <time>2016-07-22T08:41:36Z</time>
      </trkpt>
      <trkpt lat="45.20994" lon="6.51429">
        <ele>832</ele>
        <time>2016-07-22T08:43:36Z</time>
      </trkpt>
      <trkpt lat="45.20992" lon="6.51446">
        <ele>832</ele>
        <time>2016-07-22T08:45:36Z</time>
      </trkpt>
      <trkpt lat="45.20982" lon="6.51508">
        <ele>835</ele>
        <time>2016-07-22T08:47:36Z</time>
      </trkpt>
      <trkpt lat="45.2098" lon="6.51524">
        <ele>835</ele>
        <time>2016-07-22T08:49:36Z</time>
      </trkpt>
      <trkpt lat="45.20977" lon="6.51538">
        <ele>836</ele>
        <time>2016-07-22T08:51:36Z</time>
      </trkpt>
      <trkpt lat="45.20975" lon="6.5155">
        <ele>837</ele>
        <time>2016-07-22T08:53:36Z</time>
      </trkpt>
      <trkpt lat="45.20972" lon="6.51562">
        <ele>838</ele>
        <time>2016-07-22T08:55:36Z</time>
      </trkpt>
      <trkpt lat="45.20966" lon="6.51583">
        <ele>839</ele>
        <time>2016-07-22T08:57:36Z</time>
      </trkpt>
      <trkpt lat="45.20938" lon="6.5167">
        <ele>837</ele>
        <time>2016-07-22T08:59:36Z</time>
      </trkpt>
      <trkpt lat="45.20934" lon="6.51677">
        <ele>837</ele>
        <time>2016-07-22T09:01:36Z</time>
      </trkpt>
      <trkpt lat="45.20931" lon="6.51684">
        <ele>837</ele>
        <time>2016-07-22T09:03:36Z</time>
      </trkpt>
      <trkpt lat="45.20928" lon="6.51692">
        <ele>836</ele>
        <time>2016-07-22T09:05:36Z</time>
      </trkpt>
      <trkpt lat="45.20926" lon="6.51699">
        <ele>834</ele>
        <time>2016-07-22T09:07:36Z</time>
      </trkpt>
      <trkpt lat="45.20924" lon="6.51706">
        <ele>833</ele>
        <time>2016-07-22T09:09:36Z</time>
      </trkpt>
      <trkpt lat="45.20923" lon="6.51714">
        <ele>832</ele>
        <time>2016-07-22T09:11:36Z</time>
      </trkpt>
      <trkpt lat="45.20924" lon="6.51746">
        <ele>826</ele>
        <time>2016-07-22T09:13:36Z</time>
      </trkpt>
      <trkpt lat="45.20925" lon="6.51778">
        <ele>828</ele>
        <time>2016-07-22T09:15:36Z</time>
      </trkpt>
      <trkpt lat="45.20925" lon="6.51804">
        <ele>830</ele>
        <time>2016-07-22T09:17:36Z</time>
      </trkpt>
      <trkpt lat="45.20925" lon="6.51823">
        <ele>831</ele>
        <time>2016-07-22T09:19:36Z</time>
      </trkpt>
      <trkpt lat="45.20924" lon="6.51841">
        <ele>833</ele>
        <time>2016-07-22T09:21:36Z</time>
      </trkpt>
      <trkpt lat="45.20922" lon="6.5185">
        <ele>834</ele>
        <time>2016-07-22T09:23:36Z</time>
      </trkpt>
      <trkpt lat="45.20919" lon="6.51865">
        <ele>836</ele>
        <time>2016-07-22T09:25:36Z</time>
      </trkpt>
      <trkpt lat="45.20914" lon="6.51882">
        <ele>839</ele>
        <time>2016-07-22T09:27:36Z</time>
      </trkpt>
      <trkpt lat="45.20909" lon="6.51897">
        <ele>842</ele>
        <time>2016-07-22T09:29:36Z</time>
      </trkpt>
      <trkpt lat="45.20906" lon="6.51906">
        <ele>843</ele>
        <time>2016-07-22T09:31:36Z</time>
      </trkpt>
      <trkpt lat="45.20903" lon="6.51914">
        <ele>844</ele>
        <time>2016-07-22T09:33:36Z</time>
      </trkpt>
      <trkpt lat="45.20901" lon="6.51923">
        <ele>845</ele>
        <time>2016-07-22T09:35:36Z</time>
      </trkpt>
      <trkpt lat="45.20894" lon="6.51937">
        <ele>846</ele>
        <time>2016-07-22T09:37:36Z</time>
      </trkpt>
      <trkpt lat="45.20847" lon="6.52038">
        <ele>840</ele>
        <time>2016-07-22T09:39:36Z</time>
      </trkpt>
      <trkpt lat="45.20836" lon="6.52061">
        <ele>839</ele>
        <time>2016-07-22T09:41:36Z</time>
      </trkpt>
      <trkpt lat="45.2083" lon="6.52074">
        <ele>840</ele>
        <time>2016-07-22T09:43:36Z</time>
      </trkpt>
      <trkpt lat="45.20825" lon="6.52088">
        <ele>842</ele>
        <time>2016-07-22T09:45:36Z</time>
      </trkpt>
      <trkpt lat="45.20822" lon="6.52099">
        <ele>842</ele>
        <time>2016-07-22T09:47:36Z</time>
      </trkpt>
      <trkpt lat="45.2082" lon="6.5211">
        <ele>843</ele>
        <time>2016-07-22T09:49:36Z</time>
      </trkpt>
      <trkpt lat="45.20818" lon="6.5212">
        <ele>843</ele>
        <time>2016-07-22T09:51:36Z</time>
      </trkpt>
      <trkpt lat="45.20816" lon="6.52131">
        <ele>844</ele>
        <time>2016-07-22T09:53:36Z</time>
      </trkpt>
      <trkpt lat="45.20812" lon="6.52163">
        <ele>845</ele>
        <time>2016-07-22T09:55:36Z</time>
      </trkpt>
      <trkpt lat="45.20799" lon="6.52255">
        <ele>851</ele>
        <time>2016-07-22T09:57:36Z</time>
      </trkpt>
      <trkpt lat="45.20785" lon="6.52359">
        <ele>849</ele>
        <time>2016-07-22T09:59:36Z</time>
      </trkpt>
      <trkpt lat="45.20779" lon="6.52411">
        <ele>847</ele>
        <time>2016-07-22T10:01:36Z</time>
      </trkpt>
      <trkpt lat="45.20767" lon="6.52494">
        <ele>844</ele>
        <time>2016-07-22T10:03:36Z</time>
      </trkpt>
      <trkpt lat="45.20763" lon="6.52527">
        <ele>842</ele>
        <time>2016-07-22T10:05:36Z</time>
      </trkpt>
      <trkpt lat="45.20761" lon="6.52542">
        <ele>841</ele>
        <time>2016-07-22T10:07:36Z</time>
      </trkpt>
      <trkpt lat="45.2076" lon="6.52555">
        <ele>841</ele>
        <time>2016-07-22T10:09:36Z</time>
      </trkpt>
      <trkpt lat="45.20759" lon="6.52575">
        <ele>840</ele>
        <time>2016-07-22T10:11:36Z</time>
      </trkpt>
      <trkpt lat="45.2076" lon="6.52598">
        <ele>840</ele>
        <time>2016-07-22T10:13:36Z</time>
      </trkpt>
      <trkpt lat="45.20761" lon="6.52617">
        <ele>840</ele>
        <time>2016-07-22T10:15:36Z</time>
      </trkpt>
      <trkpt lat="45.20765" lon="6.52676">
        <ele>840</ele>
        <time>2016-07-22T10:17:36Z</time>
      </trkpt>
      <trkpt lat="45.20771" lon="6.52769">
        <ele>842</ele>
        <time>2016-07-22T10:19:36Z</time>
      </trkpt>
      <trkpt lat="45.20774" lon="6.52849">
        <ele>843</ele>
        <time>2016-07-22T10:21:36Z</time>
      </trkpt>
      <trkpt lat="45.20783" lon="6.52994">
        <ele>844</ele>
        <time>2016-07-22T10:23:36Z</time>
      </trkpt>
      <trkpt lat="45.20783" lon="6.53027">
        <ele>845</ele>
        <time>2016-07-22T10:25:36Z</time>
      </trkpt>
      <trkpt lat="45.2078" lon="6.53064">
        <ele>847</ele>
        <time>2016-07-22T10:27:36Z</time>
      </trkpt>
      <trkpt lat="45.20778" lon="6.5308">
        <ele>847</ele>
        <time>2016-07-22T10:29:36Z</time>
      </trkpt>
      <trkpt lat="45.20773" lon="6.53107">
        <ele>848</ele>
        <time>2016-07-22T10:31:36Z</time>
      </trkpt>
      <trkpt lat="45.20766" lon="6.53135">
        <ele>848</ele>
        <time>2016-07-22T10:33:36Z</time>
      </trkpt>
      <trkpt lat="45.2076" lon="6.53164">
        <ele>848</ele>
        <time>2016-07-22T10:35:36Z</time>
      </trkpt>
      <trkpt lat="45.20753" lon="6.53194">
        <ele>846</ele>
        <time>2016-07-22T10:37:36Z</time>
      </trkpt>
      <trkpt lat="45.20752" lon="6.53201">
        <ele>846</ele>
        <time>2016-07-22T10:39:36Z</time>
      </trkpt>
      <trkpt lat="45.20752" lon="6.53209">
        <ele>846</ele>
        <time>2016-07-22T10:41:36Z</time>
      </trkpt>
      <trkpt lat="45.20751" lon="6.53216">
        <ele>846</ele>
        <time>2016-07-22T10:43:36Z</time>
      </trkpt>
      <trkpt lat="45.20751" lon="6.53224">
        <ele>847</ele>
        <time>2016-07-22T10:45:36Z</time>
      </trkpt>
      <trkpt lat="45.20753" lon="6.5325">
        <ele>849</ele>
        <time>2016-07-22T10:47:36Z</time>
      </trkpt>
      <trkpt lat="45.20752" lon="6.53263">
        <ele>849</ele>
        <time>2016-07-22T10:49:36Z</time>
      </trkpt>
      <trkpt lat="45.20755" lon="6.53334">
        <ele>855</ele>
        <time>2016-07-22T10:51:36Z</time>
      </trkpt>
      <trkpt lat="45.20759" lon="6.53392">
        <ele>856</ele>
        <time>2016-07-22T10:53:36Z</time>
      </trkpt>
      <trkpt lat="45.20764" lon="6.53477">
        <ele>859</ele>
        <time>2016-07-22T10:55:36Z</time>
      </trkpt>
      <trkpt lat="45.20766" lon="6.53513">
        <ele>861</ele>
        <time>2016-07-22T10:57:36Z</time>
      </trkpt>
      <trkpt lat="45.20767" lon="6.53525">
        <ele>862</ele>
        <time>2016-07-22T10:59:36Z</time>
      </trkpt>
      <trkpt lat="45.20767" lon="6.5354">
        <ele>863</ele>
        <time>2016-07-22T11:01:36Z</time>
      </trkpt>
      <trkpt lat="45.20767" lon="6.5355">
        <ele>863</ele>
        <time>2016-07-22T11:03:36Z</time>
      </trkpt>
      <trkpt lat="45.20766" lon="6.53566">
        <ele>863</ele>
        <time>2016-07-22T11:05:36Z</time>
      </trkpt>
      <trkpt lat="45.20765" lon="6.53579">
        <ele>863</ele>
        <time>2016-07-22T11:07:36Z</time>
      </trkpt>
      <trkpt lat="45.20766" lon="6.53588">
        <ele>865</ele>
        <time>2016-07-22T11:09:36Z</time>
      </trkpt>
      <trkpt lat="45.20763" lon="6.53613">
        <ele>867</ele>
        <time>2016-07-22T11:11:36Z</time>
      </trkpt>
      <trkpt lat="45.20756" lon="6.53654">
        <ele>868</ele>
        <time>2016-07-22T11:13:36Z</time>
      </trkpt>
      <trkpt lat="45.20743" lon="6.53731">
        <ele>876</ele>
        <time>2016-07-22T11:15:36Z</time>
      </trkpt>
      <trkpt lat="45.20731" lon="6.53801">
        <ele>885</ele>
        <time>2016-07-22T11:17:36Z</time>
      </trkpt>
      <trkpt lat="45.20718" lon="6.53861">
        <ele>892</ele>
        <time>2016-07-22T11:19:36Z</time>
      </trkpt>
      <trkpt lat="45.20715" lon="6.53873">
        <ele>893</ele>
        <time>2016-07-22T11:21:36Z</time>
      </trkpt>
      <trkpt lat="45.20712" lon="6.53885">
        <ele>894</ele>
        <time>2016-07-22T11:23:36Z</time>
      </trkpt>
      <trkpt lat="45.2071" lon="6.53897">
        <ele>894</ele>
        <time>2016-07-22T11:25:36Z</time>
      </trkpt>
      <trkpt lat="45.20708" lon="6.53909">
        <ele>895</ele>
        <time>2016-07-22T11:27:36Z</time>
      </trkpt>
      <trkpt lat="45.20707" lon="6.5392">
        <ele>895</ele>
        <time>2016-07-22T11:29:36Z</time>
      </trkpt>
      <trkpt lat="45.20706" lon="6.53932">
        <ele>895</ele>
        <time>2016-07-22T11:31:36Z</time>
      </trkpt>
      <trkpt lat="45.20706" lon="6.53956">
        <ele>894</ele>
        <time>2016-07-22T11:33:36Z</time>
      </trkpt>
      <trkpt lat="45.20707" lon="6.53968">
        <ele>894</ele>
        <time>2016-07-22T11:35:36Z</time>
      </trkpt>
      <trkpt lat="45.20708" lon="6.53992">
        <ele>893</ele>
        <time>2016-07-22T11:37:36Z</time>
      </trkpt>
      <trkpt lat="45.20711" lon="6.54034">
        <ele>893</ele>
        <time>2016-07-22T11:39:36Z</time>
      </trkpt>
      <trkpt lat="45.20712" lon="6.54065">
        <ele>893</ele>
        <time>2016-07-22T11:41:36Z</time>
      </trkpt>
      <trkpt lat="45.20712" lon="6.5408">
        <ele>893</ele>
        <time>2016-07-22T11:43:36Z</time>
      </trkpt>
      <trkpt lat="45.2071" lon="6.54097">
        <ele>891</ele>
        <time>2016-07-22T11:45:36Z</time>
      </trkpt>
      <trkpt lat="45.20708" lon="6.54119">
        <ele>888</ele>
        <time>2016-07-22T11:47:36Z</time>
      </trkpt>
      <trkpt lat="45.20706" lon="6.54137">
        <ele>886</ele>
        <time>2016-07-22T11:49:36Z</time>
      </trkpt>
      <trkpt lat="45.20703" lon="6.54163">
        <ele>882</ele>
        <time>2016-07-22T11:51:36Z</time>
      </trkpt>
      <trkpt lat="45.207" lon="6.54191">
        <ele>880</ele>
        <time>2016-07-22T11:53:36Z</time>
      </trkpt>
      <trkpt lat="45.207" lon="6.54202">
        <ele>880</ele>
        <time>2016-07-22T11:55:36Z</time>
      </trkpt>
      <trkpt lat="45.207" lon="6.54221">
        <ele>880</ele>
        <time>2016-07-22T11:57:36Z</time>
      </trkpt>
      <trkpt lat="45.207" lon="6.54232">
        <ele>879</ele>
        <time>2016-07-22T11:59:36Z</time>
      </trkpt>
      <trkpt lat="45.20701" lon="6.54242">
        <ele>879</ele>
        <time>2016-07-22T12:01:36Z</time>
      </trkpt>
      <trkpt lat="45.20703" lon="6.5425">
        <ele>880</ele>
        <time>2016-07-22T12:03:36Z</time>
      </trkpt>
      <trkpt lat="45.20705" lon="6.54259">
        <ele>880</ele>
        <time>2016-07-22T12:05:36Z</time>
      </trkpt>
      <trkpt lat="45.20705" lon="6.54268">
        <ele>880</ele>
        <time>2016-07-22T12:07:36Z</time>
      </trkpt>
      <trkpt lat="45.20715" lon="6.5432">
        <ele>880</ele>
        <time>2016-07-22T12:09:36Z</time>
      </trkpt>
      <trkpt lat="45.20718" lon="6.54341">
        <ele>880</ele>
        <time>2016-07-22T12:11:36Z</time>
      </trkpt>
      <trkpt lat="45.20723" lon="6.54363">
        <ele>879</ele>
        <time>2016-07-22T12:13:36Z</time>
      </trkpt>
      <trkpt lat="45.20735" lon="6.54423">
        <ele>875</ele>
        <time>2016-07-22T12:15:36Z</time>
      </trkpt>
      <trkpt lat="45.20742" lon="6.54459">
        <ele>876</ele>
        <time>2016-07-22T12:17:36Z</time>
      </trkpt>
      <trkpt lat="45.20745" lon="6.54479">
        <ele>876</ele>
        <time>2016-07-22T12:19:36Z</time>
      </trkpt>
      <trkpt lat="45.20747" lon="6.54512">
        <ele>876</ele>
        <time>2016-07-22T12:21:36Z</time>
      </trkpt>
      <trkpt lat="45.20748" lon="6.54534">
        <ele>877</ele>
        <time>2016-07-22T12:23:36Z</time>
      </trkpt>
      <trkpt lat="45.20749" lon="6.54556">
        <ele>879</ele>
        <time>2016-07-22T12:25:36Z</time>
      </trkpt>
      <trkpt lat="45.20748" lon="6.54568">
        <ele>879</ele>
        <time>2016-07-22T12:27:36Z</time>
      </trkpt>
      <trkpt lat="45.20748" lon="6.54571">
        <ele>879</ele>
        <time>2016-07-22T12:29:36Z</time>
      </trkpt>
      <trkpt lat="45.20746" lon="6.5462">
        <ele>879</ele>
        <time>2016-07-22T12:31:36Z</time>
      </trkpt>
      <trkpt lat="45.20746" lon="6.54624">
        <ele>879</ele>
        <time>2016-07-22T12:33:36Z</time>
      </trkpt>
      <trkpt lat="45.20743" lon="6.54656">
        <ele>878</ele>
        <time>2016-07-22T12:35:36Z</time>
      </trkpt>
      <trkpt lat="45.20744" lon="6.5466">
        <ele>878</ele>
        <time>2016-07-22T12:37:36Z</time>
      </trkpt>
      <trkpt lat="45.20744" lon="6.54668">
        <ele>878</ele>
        <time>2016-07-22T12:39:36Z</time>
      </trkpt>
      <trkpt lat="45.20744" lon="6.54682">
        <ele>879</ele>
        <time>2016-07-22T12:41:36Z</time>
      </trkpt>
      <trkpt lat="45.20743" lon="6.54706">
        <ele>880</ele>
        <time>2016-07-22T12:43:36Z</time>
      </trkpt>
      <trkpt lat="45.20742" lon="6.54721">
        <ele>880</ele>
        <time>2016-07-22T12:45:36Z</time>
      </trkpt>
      <trkpt lat="45.20741" lon="6.54735">
        <ele>881</ele>
        <time>2016-07-22T12:47:36Z</time>
      </trkpt>
      <trkpt lat="45.20732" lon="6.54885">
        <ele>885</ele>
        <time>2016-07-22T12:49:36Z</time>
      </trkpt>
      <trkpt lat="45.20731" lon="6.5489">
        <ele>885</ele>
        <time>2016-07-22T12:51:36Z</time>
      </trkpt>
      <trkpt lat="45.20731" lon="6.54903">
        <ele>885</ele>
        <time>2016-07-22T12:53:36Z</time>
      </trkpt>
      <trkpt lat="45.20725" lon="6.54983">
        <ele>892</ele>
        <time>2016-07-22T12:55:36Z</time>
      </trkpt>
      <trkpt lat="45.2072" lon="6.55043">
        <ele>898</ele>
        <time>2016-07-22T12:57:36Z</time>
      </trkpt>
      <trkpt lat="45.20719" lon="6.55043">
        <ele>898</ele>
        <time>2016-07-22T12:59:36Z</time>
      </trkpt>
      <trkpt lat="45.20718" lon="6.55043">
        <ele>898</ele>
        <time>2016-07-22T13:01:36Z</time>
      </trkpt>
      <trkpt lat="45.20717" lon="6.55043">
        <ele>898</ele>
        <time>2016-07-22T13:03:36Z</time>
      </trkpt>
      <trkpt lat="45.20716" lon="6.55043">
        <ele>897</ele>
        <time>2016-07-22T13:05:36Z</time>
      </trkpt>
      <trkpt lat="45.20715" lon="6.55043">
        <ele>897</ele>
        <time>2016-07-22T13:07:36Z</time>
      </trkpt>
      <trkpt lat="45.20714" lon="6.55043">
        <ele>897</ele>
        <time>2016-07-22T13:09:36Z</time>
      </trkpt>
      <trkpt lat="45.20714" lon="6.55044">
        <ele>897</ele>
        <time>2016-07-22T13:11:36Z</time>
      </trkpt>
      <trkpt lat="45.20713" lon="6.55044">
        <ele>897</ele>
        <time>2016-07-22T13:13:36Z</time>
      </trkpt>
      <trkpt lat="45.20712" lon="6.55044">
        <ele>897</ele>
        <time>2016-07-22T13:15:36Z</time>
      </trkpt>
      <trkpt lat="45.20712" lon="6.55045">
        <ele>897</ele>
        <time>2016-07-22T13:17:36Z</time>
      </trkpt>
      <trkpt lat="45.20711" lon="6.55045">
        <ele>897</ele>
        <time>2016-07-22T13:19:36Z</time>
      </trkpt>
      <trkpt lat="45.20711" lon="6.55046">
        <ele>897</ele>
        <time>2016-07-22T13:21:36Z</time>
      </trkpt>
      <trkpt lat="45.2071" lon="6.55047">
        <ele>897</ele>
        <time>2016-07-22T13:23:36Z</time>
      </trkpt>
      <trkpt lat="45.20709" lon="6.55048">
        <ele>896</ele>
        <time>2016-07-22T13:25:36Z</time>
      </trkpt>
      <trkpt lat="45.20709" lon="6.55049">
        <ele>897</ele>
        <time>2016-07-22T13:27:36Z</time>
      </trkpt>
      <trkpt lat="45.20709" lon="6.5505">
        <ele>897</ele>
        <time>2016-07-22T13:29:36Z</time>
      </trkpt>
      <trkpt lat="45.20708" lon="6.55051">
        <ele>897</ele>
        <time>2016-07-22T13:31:36Z</time>
      </trkpt>
      <trkpt lat="45.20708" lon="6.55052">
        <ele>897</ele>
        <time>2016-07-22T13:33:36Z</time>
      </trkpt>
      <trkpt lat="45.20708" lon="6.55053">
        <ele>897</ele>
        <time>2016-07-22T13:35:36Z</time>
      </trkpt>
      <trkpt lat="45.20707" lon="6.55054">
        <ele>897</ele>
        <time>2016-07-22T13:37:36Z</time>
      </trkpt>
      <trkpt lat="45.20707" lon="6.55055">
        <ele>897</ele>
        <time>2016-07-22T13:39:36Z</time>
      </trkpt>
      <trkpt lat="45.20707" lon="6.55056">
        <ele>897</ele>
        <time>2016-07-22T13:41:36Z</time>
      </trkpt>
      <trkpt lat="45.20707" lon="6.55057">
        <ele>897</ele>
        <time>2016-07-22T13:43:36Z</time>
      </trkpt>
      <trkpt lat="45.20707" lon="6.55058">
        <ele>897</ele>
        <time>2016-07-22T13:45:36Z</time>
      </trkpt>
      <trkpt lat="45.20707" lon="6.55059">
        <ele>897</ele>
        <time>2016-07-22T13:47:36Z</time>
      </trkpt>
      <trkpt lat="45.20707" lon="6.5506">
        <ele>897</ele>
        <time>2016-07-22T13:49:36Z</time>
      </trkpt>
      <trkpt lat="45.20708" lon="6.55061">
        <ele>897</ele>
        <time>2016-07-22T13:51:36Z</time>
      </trkpt>
      <trkpt lat="45.20708" lon="6.55062">
        <ele>897</ele>
        <time>2016-07-22T13:53:36Z</time>
      </trkpt>
      <trkpt lat="45.20708" lon="6.55063">
        <ele>898</ele>
        <time>2016-07-22T13:55:36Z</time>
      </trkpt>
      <trkpt lat="45.20708" lon="6.55064">
        <ele>898</ele>
        <time>2016-07-22T13:57:36Z</time>
      </trkpt>
      <trkpt lat="45.20709" lon="6.55065">
        <ele>898</ele>
        <time>2016-07-22T13:59:36Z</time>
      </trkpt>
      <trkpt lat="45.20709" lon="6.55066">
        <ele>898</ele>
        <time>2016-07-22T14:01:36Z</time>
      </trkpt>
      <trkpt lat="45.2071" lon="6.55067">
        <ele>898</ele>
        <time>2016-07-22T14:03:36Z</time>
      </trkpt>
      <trkpt lat="45.2071" lon="6.55068">
        <ele>899</ele>
        <time>2016-07-22T14:05:36Z</time>
      </trkpt>
      <trkpt lat="45.20711" lon="6.55068">
        <ele>899</ele>
        <time>2016-07-22T14:07:36Z</time>
      </trkpt>
      <trkpt lat="45.20711" lon="6.55069">
        <ele>899</ele>
        <time>2016-07-22T14:09:36Z</time>
      </trkpt>
      <trkpt lat="45.20712" lon="6.55069">
        <ele>899</ele>
        <time>2016-07-22T14:11:36Z</time>
      </trkpt>
      <trkpt lat="45.20712" lon="6.5507">
        <ele>899</ele>
        <time>2016-07-22T14:13:36Z</time>
      </trkpt>
      <trkpt lat="45.20713" lon="6.5507">
        <ele>899</ele>
        <time>2016-07-22T14:15:36Z</time>
      </trkpt>
      <trkpt lat="45.20714" lon="6.55071">
        <ele>900</ele>
        <time>2016-07-22T14:17:36Z</time>
      </trkpt>
      <trkpt lat="45.20715" lon="6.55071">
        <ele>900</ele>
        <time>2016-07-22T14:19:36Z</time>
      </trkpt>
      <trkpt lat="45.20716" lon="6.55072">
        <ele>900</ele>
        <time>2016-07-22T14:21:36Z</time>
      </trkpt>
      <trkpt lat="45.20706" lon="6.55172">
        <ele>904</ele>
        <time>2016-07-22T14:23:36Z</time>
      </trkpt>
      <trkpt lat="45.20695" lon="6.55254">
        <ele>910</ele>
        <time>2016-07-22T14:25:36Z</time>
      </trkpt>
      <trkpt lat="45.2069" lon="6.55293">
        <ele>911</ele>
        <time>2016-07-22T14:27:36Z</time>
      </trkpt>
      <trkpt lat="45.20682" lon="6.55355">
        <ele>912</ele>
        <time>2016-07-22T14:29:36Z</time>
      </trkpt>
      <trkpt lat="45.20672" lon="6.55429">
        <ele>912</ele>
        <time>2016-07-22T14:31:36Z</time>
      </trkpt>
      <trkpt lat="45.20668" lon="6.55462">
        <ele>915</ele>
        <time>2016-07-22T14:33:36Z</time>
      </trkpt>
      <trkpt lat="45.20665" lon="6.55492">
        <ele>919</ele>
        <time>2016-07-22T14:35:36Z</time>
      </trkpt>
      <trkpt lat="45.20664" lon="6.55511">
        <ele>919</ele>
        <time>2016-07-22T14:37:36Z</time>
      </trkpt>
      <trkpt lat="45.20664" lon="6.55538">
        <ele>917</ele>
        <time>2016-07-22T14:39:36Z</time>
      </trkpt>
      <trkpt lat="45.20666" lon="6.55558">
        <ele>914</ele>
        <time>2016-07-22T14:41:36Z</time>
      </trkpt>
      <trkpt lat="45.20669" lon="6.55586">
        <ele>913</ele>
        <time>2016-07-22T14:43:36Z</time>
      </trkpt>
      <trkpt lat="45.20678" lon="6.55631">
        <ele>915</ele>
        <time>2016-07-22T14:45:36Z</time>
      </trkpt>
      <trkpt lat="45.20692" lon="6.55698">
        <ele>920</ele>
        <time>2016-07-22T14:47:36Z</time>
      </trkpt>
      <trkpt lat="45.20699" lon="6.55737">
        <ele>923</ele>
        <time>2016-07-22T14:49:36Z</time>
      </trkpt>
      <trkpt lat="45.20705" lon="6.55767">
        <ele>927</ele>
        <time>2016-07-22T14:51:36Z</time>
      </trkpt>
      <trkpt lat="45.20707" lon="6.5579">
        <ele>930</ele>
        <time>2016-07-22T14:53:36Z</time>
      </trkpt>
      <trkpt lat="45.20707" lon="6.55812">
        <ele>932</ele>
        <time>2016-07-22T14:55:36Z</time>
      </trkpt>
      <trkpt lat="45.20705" lon="6.55834">
        <ele>933</ele>
        <time>2016-07-22T14:57:36Z</time>
      </trkpt>
      <trkpt lat="45.207" lon="6.55868">
        <ele>934</ele>
        <time>2016-07-22T14:59:36Z</time>
      </trkpt>
      <trkpt lat="45.20699" lon="6.55869">
        <ele>934</ele>
        <time>2016-07-22T15:01:36Z</time>
      </trkpt>
      <trkpt lat="45.20694" lon="6.55901">
        <ele>936</ele>
        <time>2016-07-22T15:03:36Z</time>
      </trkpt>
      <trkpt lat="45.20692" lon="6.55917">
        <ele>937</ele>
        <time>2016-07-22T15:05:36Z</time>
      </trkpt>
      <trkpt lat="45.20687" lon="6.55951">
        <ele>934</ele>
        <time>2016-07-22T15:07:36Z</time>
      </trkpt>
      <trkpt lat="45.20685" lon="6.55966">
        <ele>933</ele>
        <time>2016-07-22T15:09:36Z</time>
      </trkpt>
      <trkpt lat="45.20683" lon="6.55981">
        <ele>932</ele>
        <time>2016-07-22T15:11:36Z</time>
      </trkpt>
      <trkpt lat="45.20683" lon="6.55994">
        <ele>932</ele>
        <time>2016-07-22T15:13:36Z</time>
      </trkpt>
      <trkpt lat="45.20683" lon="6.56007">
        <ele>932</ele>
        <time>2016-07-22T15:15:36Z</time>
      </trkpt>
      <trkpt lat="45.20684" lon="6.56016">
        <ele>933</ele>
        <time>2016-07-22T15:17:36Z</time>
      </trkpt>
      <trkpt lat="45.20685" lon="6.56032">
        <ele>933</ele>
        <time>2016-07-22T15:19:36Z</time>
      </trkpt>
      <trkpt lat="45.20688" lon="6.56046">
        <ele>935</ele>
        <time>2016-07-22T15:21:36Z</time>
      </trkpt>
      <trkpt lat="45.2069" lon="6.56055">
        <ele>936</ele>
        <time>2016-07-22T15:23:36Z</time>
      </trkpt>
      <trkpt lat="45.20693" lon="6.56064">
        <ele>937</ele>
        <time>2016-07-22T15:25:36Z</time>
      </trkpt>
      <trkpt lat="45.20701" lon="6.56088">
        <ele>939</ele>
        <time>2016-07-22T15:27:36Z</time>
      </trkpt>
      <trkpt lat="45.20704" lon="6.561">
        <ele>939</ele>
        <time>2016-07-22T15:29:36Z</time>
      </trkpt>
      <trkpt lat="45.20708" lon="6.56112">
        <ele>939</ele>
        <time>2016-07-22T15:31:36Z</time>
      </trkpt>
      <trkpt lat="45.20711" lon="6.56124">
        <ele>939</ele>
        <time>2016-07-22T15:33:36Z</time>
      </trkpt>
      <trkpt lat="45.20713" lon="6.56142">
        <ele>938</ele>
        <time>2016-07-22T15:35:36Z</time>
      </trkpt>
      <trkpt lat="45.20715" lon="6.56176">
        <ele>936</ele>
        <time>2016-07-22T15:37:36Z</time>
      </trkpt>
      <trkpt lat="45.20715" lon="6.56189">
        <ele>936</ele>
        <time>2016-07-22T15:39:36Z</time>
      </trkpt>
      <trkpt lat="45.20716" lon="6.56205">
        <ele>935</ele>
        <time>2016-07-22T15:41:36Z</time>
      </trkpt>
      <trkpt lat="45.20717" lon="6.56216">
        <ele>935</ele>
        <time>2016-07-22T15:43:36Z</time>
      </trkpt>
      <trkpt lat="45.20718" lon="6.56223">
        <ele>934</ele>
        <time>2016-07-22T15:45:36Z</time>
      </trkpt>
      <trkpt lat="45.2072" lon="6.56229">
        <ele>934</ele>
        <time>2016-07-22T15:47:36Z</time>
      </trkpt>
      <trkpt lat="45.20728" lon="6.56264">
        <ele>933</ele>
        <time>2016-07-22T15:49:36Z</time>
      </trkpt>
      <trkpt lat="45.20737" lon="6.56304">
        <ele>932</ele>
        <time>2016-07-22T15:51:36Z</time>
      </trkpt>
      <trkpt lat="45.20741" lon="6.56323">
        <ele>931</ele>
        <time>2016-07-22T15:53:36Z</time>
      </trkpt>
      <trkpt lat="45.20743" lon="6.56338">
        <ele>930</ele>
        <time>2016-07-22T15:55:36Z</time>
      </trkpt>
      <trkpt lat="45.20745" lon="6.56356">
        <ele>928</ele>
        <time>2016-07-22T15:57:36Z</time>
      </trkpt>
      <trkpt lat="45.20746" lon="6.56371">
        <ele>925</ele>
        <time>2016-07-22T15:59:36Z</time>
      </trkpt>
      <trkpt lat="45.20745" lon="6.56394">
        <ele>922</ele>
        <time>2016-07-22T16:01:36Z</time>
      </trkpt>
      <trkpt lat="45.20744" lon="6.56403">
        <ele>921</ele>
        <time>2016-07-22T16:03:36Z</time>
      </trkpt>
      <trkpt lat="45.20741" lon="6.56422">
        <ele>919</ele>
        <time>2016-07-22T16:05:36Z</time>
      </trkpt>
      <trkpt lat="45.20738" lon="6.56434">
        <ele>919</ele>
        <time>2016-07-22T16:07:36Z</time>
      </trkpt>
      <trkpt lat="45.20735" lon="6.56447">
        <ele>919</ele>
        <time>2016-07-22T16:09:36Z</time>
      </trkpt>
      <trkpt lat="45.20723" lon="6.56484">
        <ele>921</ele>
        <time>2016-07-22T16:11:36Z</time>
      </trkpt>
      <trkpt lat="45.20716" lon="6.56509">
        <ele>923</ele>
        <time>2016-07-22T16:13:36Z</time>
      </trkpt>
      <trkpt lat="45.20713" lon="6.56519">
        <ele>923</ele>
        <time>2016-07-22T16:15:36Z</time>
      </trkpt>
      <trkpt lat="45.20711" lon="6.56529">
        <ele>924</ele>
        <time>2016-07-22T16:17:36Z</time>
      </trkpt>
      <trkpt lat="45.20709" lon="6.56539">
        <ele>924</ele>
        <time>2016-07-22T16:19:36Z</time>
      </trkpt>
      <trkpt lat="45.20708" lon="6.56545">
        <ele>924</ele>
        <time>2016-07-22T16:21:36Z</time>
      </trkpt>
      <trkpt lat="45.20707" lon="6.56551">
        <ele>924</ele>
        <time>2016-07-22T16:23:36Z</time>
      </trkpt>
      <trkpt lat="45.20705" lon="6.5656">
        <ele>924</ele>
        <time>2016-07-22T16:25:36Z</time>
      </trkpt>
      <trkpt lat="45.20705" lon="6.56566">
        <ele>924</ele>
        <time>2016-07-22T16:27:36Z</time>
      </trkpt>
      <trkpt lat="45.20705" lon="6.56568">
        <ele>924</ele>
        <time>2016-07-22T16:29:36Z</time>
      </trkpt>
      <trkpt lat="45.20704" lon="6.56576">
        <ele>924</ele>
        <time>2016-07-22T16:31:36Z</time>
      </trkpt>
      <trkpt lat="45.20704" lon="6.56584">
        <ele>924</ele>
        <time>2016-07-22T16:33:36Z</time>
      </trkpt>
      <trkpt lat="45.20704" lon="6.56596">
        <ele>924</ele>
        <time>2016-07-22T16:35:36Z</time>
      </trkpt>
      <trkpt lat="45.20703" lon="6.56602">
        <ele>925</ele>
        <time>2016-07-22T16:37:36Z</time>
      </trkpt>
      <trkpt lat="45.20703" lon="6.56603">
        <ele>925</ele>
        <time>2016-07-22T16:39:36Z</time>
      </trkpt>
      <trkpt lat="45.20703" lon="6.56607">
        <ele>925</ele>
        <time>2016-07-22T16:41:36Z</time>
      </trkpt>
      <trkpt lat="45.20703" lon="6.56622">
        <ele>925</ele>
        <time>2016-07-22T16:43:36Z</time>
      </trkpt>
      <trkpt lat="45.20703" lon="6.56666">
        <ele>926</ele>
        <time>2016-07-22T16:45:36Z</time>
      </trkpt>
      <trkpt lat="45.20702" lon="6.56717">
        <ele>924</ele>
        <time>2016-07-22T16:47:36Z</time>
      </trkpt>
      <trkpt lat="45.20699" lon="6.56759">
        <ele>923</ele>
        <time>2016-07-22T16:49:36Z</time>
      </trkpt>
      <trkpt lat="45.20696" lon="6.56802">
        <ele>923</ele>
        <time>2016-07-22T16:51:36Z</time>
      </trkpt>
      <trkpt lat="45.20692" lon="6.5684">
        <ele>923</ele>
        <time>2016-07-22T16:53:36Z</time>
      </trkpt>
      <trkpt lat="45.20686" lon="6.56879">
        <ele>923</ele>
        <time>2016-07-22T16:55:36Z</time>
      </trkpt>
      <trkpt lat="45.20679" lon="6.56928">
        <ele>923</ele>
        <time>2016-07-22T16:57:36Z</time>
      </trkpt>
      <trkpt lat="45.20669" lon="6.56988">
        <ele>923</ele>
        <time>2016-07-22T16:59:36Z</time>
      </trkpt>
      <trkpt lat="45.20651" lon="6.57094">
        <ele>923</ele>
        <time>2016-07-22T17:01:36Z</time>
      </trkpt>
      <trkpt lat="45.20615" lon="6.57302">
        <ele>923</ele>
        <time>2016-07-22T17:03:36Z</time>
      </trkpt>
      <trkpt lat="45.20594" lon="6.5743">
        <ele>923</ele>
        <time>2016-07-22T17:05:36Z</time>
      </trkpt>
      <trkpt lat="45.2057" lon="6.57571">
        <ele>923</ele>
        <time>2016-07-22T17:07:36Z</time>
      </trkpt>
      <trkpt lat="45.2055" lon="6.57694">
        <ele>923</ele>
        <time>2016-07-22T17:09:36Z</time>
      </trkpt>
      <trkpt lat="45.20536" lon="6.57772">
        <ele>923</ele>
        <time>2016-07-22T17:11:36Z</time>
      </trkpt>
      <trkpt lat="45.20526" lon="6.57832">
        <ele>923</ele>
        <time>2016-07-22T17:13:36Z</time>
      </trkpt>
      <trkpt lat="45.2052" lon="6.57853">
        <ele>923</ele>
        <time>2016-07-22T17:15:36Z</time>
      </trkpt>
      <trkpt lat="45.20515" lon="6.57877">
        <ele>923</ele>
        <time>2016-07-22T17:17:36Z</time>
      </trkpt>
      <trkpt lat="45.20511" lon="6.57896">
        <ele>923</ele>
        <time>2016-07-22T17:19:36Z</time>
      </trkpt>
      <trkpt lat="45.20505" lon="6.57917">
        <ele>923</ele>
        <time>2016-07-22T17:21:36Z</time>
      </trkpt>
      <trkpt lat="45.20498" lon="6.57943">
        <ele>924</ele>
        <time>2016-07-22T17:23:36Z</time>
      </trkpt>
      <trkpt lat="45.2049" lon="6.57973">
        <ele>926</ele>
        <time>2016-07-22T17:25:36Z</time>
      </trkpt>
      <trkpt lat="45.20481" lon="6.57999">
        <ele>927</ele>
        <time>2016-07-22T17:27:36Z</time>
      </trkpt>
      <trkpt lat="45.20445" lon="6.58092">
        <ele>932</ele>
        <time>2016-07-22T17:29:36Z</time>
      </trkpt>
      <trkpt lat="45.20423" lon="6.58148">
        <ele>931</ele>
        <time>2016-07-22T17:31:36Z</time>
      </trkpt>
      <trkpt lat="45.20414" lon="6.58177">
        <ele>930</ele>
        <time>2016-07-22T17:33:36Z</time>
      </trkpt>
      <trkpt lat="45.20397" lon="6.58216">
        <ele>929</ele>
        <time>2016-07-22T17:35:36Z</time>
      </trkpt>
      <trkpt lat="45.20381" lon="6.58256">
        <ele>928</ele>
        <time>2016-07-22T17:37:36Z</time>
      </trkpt>
      <trkpt lat="45.20365" lon="6.58296">
        <ele>932</ele>
        <time>2016-07-22T17:39:36Z</time>
      </trkpt>
      <trkpt lat="45.20354" lon="6.58328">
        <ele>936</ele>
        <time>2016-07-22T17:41:36Z</time>
      </trkpt>
      <trkpt lat="45.20341" lon="6.58367">
        <ele>939</ele>
        <time>2016-07-22T17:43:36Z</time>
      </trkpt>
      <trkpt lat="45.20327" lon="6.58415">
        <ele>938</ele>
        <time>2016-07-22T17:45:36Z</time>
      </trkpt>
      <trkpt lat="45.20291" lon="6.5856">
        <ele>936</ele>
        <time>2016-07-22T17:47:36Z</time>
      </trkpt>
      <trkpt lat="45.20267" lon="6.58654">
        <ele>941</ele>
        <time>2016-07-22T17:49:36Z</time>
      </trkpt>
      <trkpt lat="45.20255" lon="6.58689">
        <ele>942</ele>
        <time>2016-07-22T17:51:36Z</time>
      </trkpt>
      <trkpt lat="45.20243" lon="6.58721">
        <ele>943</ele>
        <time>2016-07-22T17:53:36Z</time>
      </trkpt>
      <trkpt lat="45.20238" lon="6.58734">
        <ele>944</ele>
        <time>2016-07-22T17:55:36Z</time>
      </trkpt>
      <trkpt lat="45.20228" lon="6.58755">
        <ele>945</ele>
        <time>2016-07-22T17:57:36Z</time>
      </trkpt>
      <trkpt lat="45.20216" lon="6.5878">
        <ele>946</ele>
        <time>2016-07-22T17:59:36Z</time>
      </trkpt>
      <trkpt lat="45.20206" lon="6.58804">
        <ele>947</ele>
        <time>2016-07-22T18:01:36Z</time>
      </trkpt>
      <trkpt lat="45.20195" lon="6.5883">
        <ele>948</ele>
        <time>2016-07-22T18:03:36Z</time>
      </trkpt>
      <trkpt lat="45.20192" lon="6.58838">
        <ele>948</ele>
        <time>2016-07-22T18:05:36Z</time>
      </trkpt>
      <trkpt lat="45.20188" lon="6.58847">
        <ele>948</ele>
        <time>2016-07-22T18:07:36Z</time>
      </trkpt>
      <trkpt lat="45.20184" lon="6.58861">
        <ele>948</ele>
        <time>2016-07-22T18:09:36Z</time>
      </trkpt>
      <trkpt lat="45.2018" lon="6.58876">
        <ele>947</ele>
        <time>2016-07-22T18:11:36Z</time>
      </trkpt>
      <trkpt lat="45.20177" lon="6.58888">
        <ele>947</ele>
        <time>2016-07-22T18:13:36Z</time>
      </trkpt>
      <trkpt lat="45.20174" lon="6.58902">
        <ele>946</ele>
        <time>2016-07-22T18:15:36Z</time>
      </trkpt>
      <trkpt lat="45.20171" lon="6.58919">
        <ele>945</ele>
        <time>2016-07-22T18:17:36Z</time>
      </trkpt>
      <trkpt lat="45.20169" lon="6.58934">
        <ele>945</ele>
        <time>2016-07-22T18:19:36Z</time>
      </trkpt>
      <trkpt lat="45.20168" lon="6.58943">
        <ele>946</ele>
        <time>2016-07-22T18:21:36Z</time>
      </trkpt>
      <trkpt lat="45.20155" lon="6.5908">
        <ele>953</ele>
        <time>2016-07-22T18:23:36Z</time>
      </trkpt>
      <trkpt lat="45.20151" lon="6.59091">
        <ele>954</ele>
        <time>2016-07-22T18:25:36Z</time>
      </trkpt>
      <trkpt lat="45.20142" lon="6.59154">
        <ele>956</ele>
        <time>2016-07-22T18:27:36Z</time>
      </trkpt>
      <trkpt lat="45.2014" lon="6.59169">
        <ele>957</ele>
        <time>2016-07-22T18:29:36Z</time>
      </trkpt>
      <trkpt lat="45.20138" lon="6.59179">
        <ele>957</ele>
        <time>2016-07-22T18:31:36Z</time>
      </trkpt>
      <trkpt lat="45.20133" lon="6.592">
        <ele>958</ele>
        <time>2016-07-22T18:33:36Z</time>
      </trkpt>
      <trkpt lat="45.20133" lon="6.59202">
        <ele>957</ele>
        <time>2016-07-22T18:35:36Z</time>
      </trkpt>
      <trkpt lat="45.20127" lon="6.59228">
        <ele>958</ele>
        <time>2016-07-22T18:37:36Z</time>
      </trkpt>
      <trkpt lat="45.20116" lon="6.59266">
        <ele>958</ele>
        <time>2016-07-22T18:39:36Z</time>
      </trkpt>
      <trkpt lat="45.2011" lon="6.59286">
        <ele>957</ele>
        <time>2016-07-22T18:41:36Z</time>
      </trkpt>
      <trkpt lat="45.20109" lon="6.5929">
        <ele>957</ele>
        <time>2016-07-22T18:43:36Z</time>
      </trkpt>
      <trkpt lat="45.20105" lon="6.59301">
        <ele>957</ele>
        <time>2016-07-22T18:45:36Z</time>
      </trkpt>
      <trkpt lat="45.20075" lon="6.59382">
        <ele>961</ele>
        <time>2016-07-22T18:47:36Z</time>
      </trkpt>
      <trkpt lat="45.2007" lon="6.59404">
        <ele>963</ele>
        <time>2016-07-22T18:49:36Z</time>
      </trkpt>
      <trkpt lat="45.20045" lon="6.59474">
        <ele>975</ele>
        <time>2016-07-22T18:51:36Z</time>
      </trkpt>
      <trkpt lat="45.20043" lon="6.59482">
        <ele>976</ele>
        <time>2016-07-22T18:53:36Z</time>
      </trkpt>
      <trkpt lat="45.20027" lon="6.59535">
        <ele>978</ele>
        <time>2016-07-22T18:55:36Z</time>
      </trkpt>
      <trkpt lat="45.20022" lon="6.59559">
        <ele>976</ele>
        <time>2016-07-22T18:57:36Z</time>
      </trkpt>
      <trkpt lat="45.20018" lon="6.59584">
        <ele>973</ele>
        <time>2016-07-22T18:59:36Z</time>
      </trkpt>
      <trkpt lat="45.20016" lon="6.59606">
        <ele>973</ele>
        <time>2016-07-22T19:01:36Z</time>
      </trkpt>
      <trkpt lat="45.20015" lon="6.59615">
        <ele>973</ele>
        <time>2016-07-22T19:03:36Z</time>
      </trkpt>
      <trkpt lat="45.20013" lon="6.59635">
        <ele>972</ele>
        <time>2016-07-22T19:05:36Z</time>
      </trkpt>
      <trkpt lat="45.20012" lon="6.59662">
        <ele>971</ele>
        <time>2016-07-22T19:07:36Z</time>
      </trkpt>
      <trkpt lat="45.20012" lon="6.59679">
        <ele>971</ele>
        <time>2016-07-22T19:09:36Z</time>
      </trkpt>
      <trkpt lat="45.20012" lon="6.59692">
        <ele>971</ele>
        <time>2016-07-22T19:11:36Z</time>
      </trkpt>
      <trkpt lat="45.20012" lon="6.59701">
        <ele>971</ele>
        <time>2016-07-22T19:13:36Z</time>
      </trkpt>
      <trkpt lat="45.20013" lon="6.5971">
        <ele>970</ele>
        <time>2016-07-22T19:15:36Z</time>
      </trkpt>
      <trkpt lat="45.2002" lon="6.59774">
        <ele>968</ele>
        <time>2016-07-22T19:17:36Z</time>
      </trkpt>
      <trkpt lat="45.20022" lon="6.59786">
        <ele>967</ele>
        <time>2016-07-22T19:19:36Z</time>
      </trkpt>
      <trkpt lat="45.20022" lon="6.59802">
        <ele>967</ele>
        <time>2016-07-22T19:21:36Z</time>
      </trkpt>
      <trkpt lat="45.20022" lon="6.59817">
        <ele>966</ele>
        <time>2016-07-22T19:23:36Z</time>
      </trkpt>
      <trkpt lat="45.20021" lon="6.59832">
        <ele>966</ele>
        <time>2016-07-22T19:25:36Z</time>
      </trkpt>
      <trkpt lat="45.2002" lon="6.59848">
        <ele>966</ele>
        <time>2016-07-22T19:27:36Z</time>
      </trkpt>
      <trkpt lat="45.20018" lon="6.59862">
        <ele>965</ele>
        <time>2016-07-22T19:29:36Z</time>
      </trkpt>
      <trkpt lat="45.20015" lon="6.59878">
        <ele>965</ele>
        <time>2016-07-22T19:31:36Z</time>
      </trkpt>
      <trkpt lat="45.20007" lon="6.59909">
        <ele>964</ele>
        <time>2016-07-22T19:33:36Z</time>
      </trkpt>
      <trkpt lat="45.20001" lon="6.59924">
        <ele>964</ele>
        <time>2016-07-22T19:35:36Z</time>
      </trkpt>
      <trkpt lat="45.19994" lon="6.59941">
        <ele>966</ele>
        <time>2016-07-22T19:37:36Z</time>
      </trkpt>
      <trkpt lat="45.19984" lon="6.59962">
        <ele>968</ele>
        <time>2016-07-22T19:39:36Z</time>
      </trkpt>
      <trkpt lat="45.1997" lon="6.5999">
        <ele>971</ele>
        <time>2016-07-22T19:41:36Z</time>
      </trkpt>
      <trkpt lat="45.19937" lon="6.60045">
        <ele>974</ele>
        <time>2016-07-22T19:43:36Z</time>
      </trkpt>
      <trkpt lat="45.19919" lon="6.60074">
        <ele>971</ele>
        <time>2016-07-22T19:45:36Z</time>
      </trkpt>
      <trkpt lat="45.19893" lon="6.60117">
        <ele>994</ele>
        <time>2016-07-22T19:47:36Z</time>
      </trkpt>
      <trkpt lat="45.19886" lon="6.60136">
        <ele>997</ele>
        <time>2016-07-22T19:49:36Z</time>
      </trkpt>
      <trkpt lat="45.19881" lon="6.60152">
        <ele>997</ele>
        <time>2016-07-22T19:51:36Z</time>
      </trkpt>
      <trkpt lat="45.19877" lon="6.6017">
        <ele>994</ele>
        <time>2016-07-22T19:53:36Z</time>
      </trkpt>
      <trkpt lat="45.19874" lon="6.60188">
        <ele>995</ele>
        <time>2016-07-22T19:55:36Z</time>
      </trkpt>
      <trkpt lat="45.19873" lon="6.60207">
        <ele>993</ele>
        <time>2016-07-22T19:57:36Z</time>
      </trkpt>
      <trkpt lat="45.19874" lon="6.60229">
        <ele>991</ele>
        <time>2016-07-22T19:59:36Z</time>
      </trkpt>
      <trkpt lat="45.19876" lon="6.60247">
        <ele>988</ele>
        <time>2016-07-22T20:01:36Z</time>
      </trkpt>
      <trkpt lat="45.19879" lon="6.60269">
        <ele>986</ele>
        <time>2016-07-22T20:03:36Z</time>
      </trkpt>
      <trkpt lat="45.19885" lon="6.60299">
        <ele>983</ele>
        <time>2016-07-22T20:05:36Z</time>
      </trkpt>
      <trkpt lat="45.19892" lon="6.60328">
        <ele>979</ele>
        <time>2016-07-22T20:07:36Z</time>
      </trkpt>
      <trkpt lat="45.19895" lon="6.60343">
        <ele>978</ele>
        <time>2016-07-22T20:09:36Z</time>
      </trkpt>
      <trkpt lat="45.19897" lon="6.60361">
        <ele>979</ele>
        <time>2016-07-22T20:11:36Z</time>
      </trkpt>
      <trkpt lat="45.19899" lon="6.60382">
        <ele>979</ele>
        <time>2016-07-22T20:13:36Z</time>
      </trkpt>
      <trkpt lat="45.199" lon="6.60409">
        <ele>981</ele>
        <time>2016-07-22T20:15:36Z</time>
      </trkpt>
      <trkpt lat="45.19903" lon="6.60524">
        <ele>992</ele>
        <time>2016-07-22T20:17:36Z</time>
      </trkpt>
      <trkpt lat="45.19905" lon="6.60621">
        <ele>988</ele>
        <time>2016-07-22T20:19:36Z</time>
      </trkpt>
      <trkpt lat="45.19905" lon="6.60649">
        <ele>989</ele>
        <time>2016-07-22T20:21:36Z</time>
      </trkpt>
      <trkpt lat="45.19905" lon="6.60668">
        <ele>990</ele>
        <time>2016-07-22T20:23:36Z</time>
      </trkpt>
      <trkpt lat="45.19904" lon="6.60683">
        <ele>990</ele>
        <time>2016-07-22T20:25:36Z</time>
      </trkpt>
      <trkpt lat="45.19901" lon="6.60715">
        <ele>990</ele>
        <time>2016-07-22T20:27:36Z</time>
      </trkpt>
      <trkpt lat="45.19893" lon="6.60792">
        <ele>991</ele>
        <time>2016-07-22T20:29:36Z</time>
      </trkpt>
      <trkpt lat="45.19888" lon="6.60827">
        <ele>992</ele>
        <time>2016-07-22T20:31:36Z</time>
      </trkpt>
      <trkpt lat="45.19874" lon="6.60975">
        <ele>1000</ele>
        <time>2016-07-22T20:33:36Z</time>
      </trkpt>
      <trkpt lat="45.19869" lon="6.61061">
        <ele>1008</ele>
        <time>2016-07-22T20:35:36Z</time>
      </trkpt>
      <trkpt lat="45.19869" lon="6.6113">
        <ele>1013</ele>
        <time>2016-07-22T20:37:36Z</time>
      </trkpt>
      <trkpt lat="45.19868" lon="6.61177">
        <ele>1015</ele>
        <time>2016-07-22T20:39:36Z</time>
      </trkpt>
      <trkpt lat="45.19864" lon="6.61213">
        <ele>1016</ele>
        <time>2016-07-22T20:41:36Z</time>
      </trkpt>
      <trkpt lat="45.19859" lon="6.61239">
        <ele>1016</ele>
        <time>2016-07-22T20:43:36Z</time>
      </trkpt>
      <trkpt lat="45.19856" lon="6.61253">
        <ele>1016</ele>
        <time>2016-07-22T20:45:36Z</time>
      </trkpt>
      <trkpt lat="45.19852" lon="6.61266">
        <ele>1015</ele>
        <time>2016-07-22T20:47:36Z</time>
      </trkpt>
      <trkpt lat="45.19847" lon="6.61282">
        <ele>1014</ele>
        <time>2016-07-22T20:49:36Z</time>
      </trkpt>
      <trkpt lat="45.19842" lon="6.61297">
        <ele>1012</ele>
        <time>2016-07-22T20:51:36Z</time>
      </trkpt>
      <trkpt lat="45.19837" lon="6.6131">
        <ele>1010</ele>
        <time>2016-07-22T20:53:36Z</time>
      </trkpt>
      <trkpt lat="45.19831" lon="6.61323">
        <ele>1010</ele>
        <time>2016-07-22T20:55:36Z</time>
      </trkpt>
      <trkpt lat="45.19812" lon="6.61367">
        <ele>1019</ele>
        <time>2016-07-22T20:57:36Z</time>
      </trkpt>
      <trkpt lat="45.19803" lon="6.61387">
        <ele>1022</ele>
        <time>2016-07-22T20:59:36Z</time>
      </trkpt>
      <trkpt lat="45.19798" lon="6.61402">
        <ele>1023</ele>
        <time>2016-07-22T21:01:36Z</time>
      </trkpt>
      <trkpt lat="45.19788" lon="6.61429">
        <ele>1026</ele>
        <time>2016-07-22T21:03:36Z</time>
      </trkpt>
      <trkpt lat="45.19784" lon="6.61444">
        <ele>1028</ele>
        <time>2016-07-22T21:05:36Z</time>
      </trkpt>
      <trkpt lat="45.1978" lon="6.61459">
        <ele>1029</ele>
        <time>2016-07-22T21:07:36Z</time>
      </trkpt>
      <trkpt lat="45.19776" lon="6.61474">
        <ele>1029</ele>
        <time>2016-07-22T21:09:36Z</time>
      </trkpt>
      <trkpt lat="45.19758" lon="6.61547">
        <ele>1024</ele>
        <time>2016-07-22T21:11:36Z</time>
      </trkpt>
      <trkpt lat="45.19754" lon="6.61561">
        <ele>1021</ele>
        <time>2016-07-22T21:13:36Z</time>
      </trkpt>
      <trkpt lat="45.1975" lon="6.61576">
        <ele>1017</ele>
        <time>2016-07-22T21:15:36Z</time>
      </trkpt>
      <trkpt lat="45.19745" lon="6.61589">
        <ele>1020</ele>
        <time>2016-07-22T21:17:36Z</time>
      </trkpt>
      <trkpt lat="45.1974" lon="6.61603">
        <ele>1023</ele>
        <time>2016-07-22T21:19:36Z</time>
      </trkpt>
      <trkpt lat="45.19727" lon="6.61628">
        <ele>1029</ele>
        <time>2016-07-22T21:21:36Z</time>
      </trkpt>
      <trkpt lat="45.1972" lon="6.6164">
        <ele>1030</ele>
        <time>2016-07-22T21:23:36Z</time>
      </trkpt>
      <trkpt lat="45.19712" lon="6.61653">
        <ele>1031</ele>
        <time>2016-07-22T21:25:36Z</time>
      </trkpt>
      <trkpt lat="45.19698" lon="6.61677">
        <ele>1030</ele>
        <time>2016-07-22T21:27:36Z</time>
      </trkpt>
      <trkpt lat="45.19683" lon="6.61701">
        <ele>1029</ele>
        <time>2016-07-22T21:29:36Z</time>
      </trkpt>
      <trkpt lat="45.19636" lon="6.61769">
        <ele>1031</ele>
        <time>2016-07-22T21:31:36Z</time>
      </trkpt>
      <trkpt lat="45.19635" lon="6.6177">
        <ele>1031</ele>
        <time>2016-07-22T21:33:36Z</time>
      </trkpt>
      <trkpt lat="45.19632" lon="6.61775">
        <ele>1032</ele>
        <time>2016-07-22T21:35:36Z</time>
      </trkpt>
      <trkpt lat="45.19628" lon="6.61781">
        <ele>1033</ele>
        <time>2016-07-22T21:37:36Z</time>
      </trkpt>
      <trkpt lat="45.19626" lon="6.61787">
        <ele>1033</ele>
        <time>2016-07-22T21:39:36Z</time>
      </trkpt>
      <trkpt lat="45.19624" lon="6.61794">
        <ele>1033</ele>
        <time>2016-07-22T21:41:36Z</time>
      </trkpt>
      <trkpt lat="45.19622" lon="6.618">
        <ele>1033</ele>
        <time>2016-07-22T21:43:36Z</time>
      </trkpt>
      <trkpt lat="45.19621" lon="6.61806">
        <ele>1033</ele>
        <time>2016-07-22T21:45:36Z</time>
      </trkpt>
      <trkpt lat="45.19618" lon="6.61822">
        <ele>1032</ele>
        <time>2016-07-22T21:47:36Z</time>
      </trkpt>
      <trkpt lat="45.19615" lon="6.61843">
        <ele>1032</ele>
        <time>2016-07-22T21:49:36Z</time>
      </trkpt>
      <trkpt lat="45.1961" lon="6.61885">
        <ele>1031</ele>
        <time>2016-07-22T21:51:36Z</time>
      </trkpt>
      <trkpt lat="45.19605" lon="6.61923">
        <ele>1030</ele>
        <time>2016-07-22T21:53:36Z</time>
      </trkpt>
      <trkpt lat="45.19604" lon="6.61938">
        <ele>1029</ele>
        <time>2016-07-22T21:55:36Z</time>
      </trkpt>
      <trkpt lat="45.19604" lon="6.61945">
        <ele>1029</ele>
        <time>2016-07-22T21:57:36Z</time>
      </trkpt>
      <trkpt lat="45.19604" lon="6.61953">
        <ele>1028</ele>
        <time>2016-07-22T21:59:36Z</time>
      </trkpt>
      <trkpt lat="45.19604" lon="6.61963">
        <ele>1027</ele>
        <time>2016-07-22T22:01:36Z</time>
      </trkpt>
      <trkpt lat="45.19605" lon="6.6197">
        <ele>1027</ele>
        <time>2016-07-22T22:03:36Z</time>
      </trkpt>
      <trkpt lat="45.19606" lon="6.6198">
        <ele>1026</ele>
        <time>2016-07-22T22:05:36Z</time>
      </trkpt>
      <trkpt lat="45.19607" lon="6.61989">
        <ele>1025</ele>
        <time>2016-07-22T22:07:36Z</time>
      </trkpt>
      <trkpt lat="45.19608" lon="6.62">
        <ele>1024</ele>
        <time>2016-07-22T22:09:36Z</time>
      </trkpt>
      <trkpt lat="45.1961" lon="6.62011">
        <ele>1024</ele>
        <time>2016-07-22T22:11:36Z</time>
      </trkpt>
      <trkpt lat="45.19613" lon="6.62024">
        <ele>1024</ele>
        <time>2016-07-22T22:13:36Z</time>
      </trkpt>
      <trkpt lat="45.19616" lon="6.62039">
        <ele>1024</ele>
        <time>2016-07-22T22:15:36Z</time>
      </trkpt>
      <trkpt lat="45.19618" lon="6.62054">
        <ele>1024</ele>
        <time>2016-07-22T22:17:36Z</time>
      </trkpt>
      <trkpt lat="45.19624" lon="6.62096">
        <ele>1025</ele>
        <time>2016-07-22T22:19:36Z</time>
      </trkpt>
      <trkpt lat="45.19622" lon="6.62097">
        <ele>1025</ele>
        <time>2016-07-22T22:21:36Z</time>
      </trkpt>
      <trkpt lat="45.19621" lon="6.62099">
        <ele>1025</ele>
        <time>2016-07-22T22:23:36Z</time>
      </trkpt>
      <trkpt lat="45.1962" lon="6.621">
        <ele>1025</ele>
        <time>2016-07-22T22:25:36Z</time>
      </trkpt>
      <trkpt lat="45.19619" lon="6.62102">
        <ele>1025</ele>
        <time>2016-07-22T22:27:36Z</time>
      </trkpt>
      <trkpt lat="45.19619" lon="6.62103">
        <ele>1025</ele>
        <time>2016-07-22T22:29:36Z</time>
      </trkpt>
      <trkpt lat="45.19618" lon="6.62105">
        <ele>1025</ele>
        <time>2016-07-22T22:31:36Z</time>
      </trkpt>
      <trkpt lat="45.19617" lon="6.62107">
        <ele>1026</ele>
        <time>2016-07-22T22:33:36Z</time>
      </trkpt>
      <trkpt lat="45.19617" lon="6.62109">
        <ele>1026</ele>
        <time>2016-07-22T22:35:36Z</time>
      </trkpt>
      <trkpt lat="45.19616" lon="6.62111">
        <ele>1026</ele>
        <time>2016-07-22T22:37:36Z</time>
      </trkpt>
      <trkpt lat="45.19613" lon="6.6211">
        <ele>1026</ele>
        <time>2016-07-22T22:39:36Z</time>
      </trkpt>
      <trkpt lat="45.19612" lon="6.62111">
        <ele>1026</ele>
        <time>2016-07-22T22:41:36Z</time>
      </trkpt>
      <trkpt lat="45.19609" lon="6.62112">
        <ele>1026</ele>
        <time>2016-07-22T22:43:36Z</time>
      </trkpt>
      <trkpt lat="45.19608" lon="6.62113">
        <ele>1026</ele>
        <time>2016-07-22T22:45:36Z</time>
      </trkpt>
      <trkpt lat="45.19602" lon="6.62119">
        <ele>1027</ele>
        <time>2016-07-22T22:47:36Z</time>
      </trkpt>
      <trkpt lat="45.19597" lon="6.62126">
        <ele>1027</ele>
        <time>2016-07-22T22:49:36Z</time>
      </trkpt>
      <trkpt lat="45.19596" lon="6.62128">
        <ele>1027</ele>
        <time>2016-07-22T22:51:36Z</time>
      </trkpt>
      <trkpt lat="45.19594" lon="6.62133">
        <ele>1027</ele>
        <time>2016-07-22T22:53:36Z</time>
      </trkpt>
      <trkpt lat="45.19591" lon="6.62141">
        <ele>1027</ele>
        <time>2016-07-22T22:55:36Z</time>
      </trkpt>
      <trkpt lat="45.19587" lon="6.62156">
        <ele>1027</ele>
        <time>2016-07-22T22:57:36Z</time>
      </trkpt>
      <trkpt lat="45.19577" lon="6.62192">
        <ele>1030</ele>
        <time>2016-07-22T22:59:36Z</time>
      </trkpt>
      <trkpt lat="45.19569" lon="6.62222">
        <ele>1031</ele>
        <time>2016-07-22T23:01:36Z</time>
      </trkpt>
      <trkpt lat="45.19563" lon="6.62245">
        <ele>1031</ele>
        <time>2016-07-22T23:03:36Z</time>
      </trkpt>
      <trkpt lat="45.19553" lon="6.62286">
        <ele>1031</ele>
        <time>2016-07-22T23:05:36Z</time>
      </trkpt>
      <trkpt lat="45.19547" lon="6.62319">
        <ele>1031</ele>
        <time>2016-07-22T23:07:36Z</time>
      </trkpt>
      <trkpt lat="45.19543" lon="6.62339">
        <ele>1031</ele>
        <time>2016-07-22T23:09:36Z</time>
      </trkpt>
      <trkpt lat="45.19538" lon="6.62388">
        <ele>1029</ele>
        <time>2016-07-22T23:11:36Z</time>
      </trkpt>
      <trkpt lat="45.19532" lon="6.62437">
        <ele>1029</ele>
        <time>2016-07-22T23:13:36Z</time>
      </trkpt>
      <trkpt lat="45.19526" lon="6.62494">
        <ele>1030</ele>
        <time>2016-07-22T23:15:36Z</time>
      </trkpt>
      <trkpt lat="45.19513" lon="6.62589">
        <ele>1032</ele>
        <time>2016-07-22T23:17:36Z</time>
      </trkpt>
      <trkpt lat="45.19508" lon="6.62617">
        <ele>1032</ele>
        <time>2016-07-22T23:19:36Z</time>
      </trkpt>
      <trkpt lat="45.19501" lon="6.62653">
        <ele>1033</ele>
        <time>2016-07-22T23:21:36Z</time>
      </trkpt>
      <trkpt lat="45.19501" lon="6.62665">
        <ele>1033</ele>
        <time>2016-07-22T23:23:36Z</time>
      </trkpt>
      <trkpt lat="45.19492" lon="6.62704">
        <ele>1033</ele>
        <time>2016-07-22T23:25:36Z</time>
      </trkpt>
      <trkpt lat="45.19473" lon="6.62783">
        <ele>1033</ele>
        <time>2016-07-22T23:27:36Z</time>
      </trkpt>
      <trkpt lat="45.19447" lon="6.62893">
        <ele>1033</ele>
        <time>2016-07-22T23:29:36Z</time>
      </trkpt>
      <trkpt lat="45.19445" lon="6.62897">
        <ele>1034</ele>
        <time>2016-07-22T23:31:36Z</time>
      </trkpt>
      <trkpt lat="45.19437" lon="6.62909">
        <ele>1034</ele>
        <time>2016-07-22T23:33:36Z</time>
      </trkpt>
      <trkpt lat="45.19433" lon="6.62915">
        <ele>1035</ele>
        <time>2016-07-22T23:35:36Z</time>
      </trkpt>
      <trkpt lat="45.19432" lon="6.62915">
        <ele>1035</ele>
        <time>2016-07-22T23:37:36Z</time>
      </trkpt>
      <trkpt lat="45.19431" lon="6.62915">
        <ele>1035</ele>
        <time>2016-07-22T23:39:36Z</time>
      </trkpt>
      <trkpt lat="45.19431" lon="6.62916">
        <ele>1035</ele>
        <time>2016-07-22T23:41:36Z</time>
      </trkpt>
      <trkpt lat="45.1943" lon="6.62916">
        <ele>1035</ele>
        <time>2016-07-22T23:43:36Z</time>
      </trkpt>
      <trkpt lat="45.1943" lon="6.62917">
        <ele>1035</ele>
        <time>2016-07-22T23:45:36Z</time>
      </trkpt>
      <trkpt lat="45.19429" lon="6.62917">
        <ele>1035</ele>
        <time>2016-07-22T23:47:36Z</time>
      </trkpt>
      <trkpt lat="45.19429" lon="6.62918">
        <ele>1035</ele>
        <time>2016-07-22T23:49:36Z</time>
      </trkpt>
      <trkpt lat="45.19428" lon="6.62918">
        <ele>1035</ele>
        <time>2016-07-22T23:51:36Z</time>
      </trkpt>
      <trkpt lat="45.19428" lon="6.62919">
        <ele>1035</ele>
        <time>2016-07-22T23:53:36Z</time>
      </trkpt>
      <trkpt lat="45.19427" lon="6.6292">
        <ele>1035</ele>
        <time>2016-07-22T23:55:36Z</time>
      </trkpt>
      <trkpt lat="45.19427" lon="6.62921">
        <ele>1035</ele>
        <time>2016-07-22T23:57:36Z</time>
      </trkpt>
      <trkpt lat="45.19427" lon="6.62922">
        <ele>1035</ele>
        <time>2016-07-22T23:59:36Z</time>
      </trkpt>
      <trkpt lat="45.19426" lon="6.62923">
        <ele>1035</ele>
        <time>2016-07-23T00:01:36Z</time>
      </trkpt>
      <trkpt lat="45.19426" lon="6.62924">
        <ele>1035</ele>
        <time>2016-07-23T00:03:36Z</time>
      </trkpt>
      <trkpt lat="45.19426" lon="6.62925">
        <ele>1035</ele>
        <time>2016-07-23T00:05:36Z</time>
      </trkpt>
      <trkpt lat="45.19426" lon="6.62926">
        <ele>1035</ele>
        <time>2016-07-23T00:07:36Z</time>
      </trkpt>
      <trkpt lat="45.19426" lon="6.62927">
        <ele>1035</ele>
        <time>2016-07-23T00:09:36Z</time>
      </trkpt>
      <trkpt lat="45.19426" lon="6.62928">
        <ele>1035</ele>
        <time>2016-07-23T00:11:36Z</time>
      </trkpt>
      <trkpt lat="45.19426" lon="6.62929">
        <ele>1035</ele>
        <time>2016-07-23T00:13:36Z</time>
      </trkpt>
      <trkpt lat="45.19426" lon="6.6293">
        <ele>1035</ele>
        <time>2016-07-23T00:15:36Z</time>
      </trkpt>
      <trkpt lat="45.19426" lon="6.62931">
        <ele>1035</ele>
        <time>2016-07-23T00:17:36Z</time>
      </trkpt>
      <trkpt lat="45.19426" lon="6.62932">
        <ele>1035</ele>
        <time>2016-07-23T00:19:36Z</time>
      </trkpt>
      <trkpt lat="45.19421" lon="6.62963">
        <ele>1036</ele>
        <time>2016-07-23T00:21:36Z</time>
      </trkpt>
      <trkpt lat="45.19398" lon="6.63071">
        <ele>1041</ele>
        <time>2016-07-23T00:23:36Z</time>
      </trkpt>
      <trkpt lat="45.19393" lon="6.63092">
        <ele>1043</ele>
        <time>2016-07-23T00:25:36Z</time>
      </trkpt>
      <trkpt lat="45.1939" lon="6.63106">
        <ele>1043</ele>
        <time>2016-07-23T00:27:36Z</time>
      </trkpt>
      <trkpt lat="45.19384" lon="6.63128">
        <ele>1045</ele>
        <time>2016-07-23T00:29:36Z</time>
      </trkpt>
      <trkpt lat="45.19357" lon="6.63226">
        <ele>1052</ele>
        <time>2016-07-23T00:31:36Z</time>
      </trkpt>
      <trkpt lat="45.1935" lon="6.63256">
        <ele>1052</ele>
        <time>2016-07-23T00:33:36Z</time>
      </trkpt>
      <trkpt lat="45.19345" lon="6.63278">
        <ele>1053</ele>
        <time>2016-07-23T00:35:36Z</time>
      </trkpt>
      <trkpt lat="45.19341" lon="6.63298">
        <ele>1053</ele>
        <time>2016-07-23T00:37:36Z</time>
      </trkpt>
      <trkpt lat="45.19337" lon="6.6332">
        <ele>1053</ele>
        <time>2016-07-23T00:39:36Z</time>
      </trkpt>
      <trkpt lat="45.19333" lon="6.63345">
        <ele>1052</ele>
        <time>2016-07-23T00:41:36Z</time>
      </trkpt>
      <trkpt lat="45.19292" lon="6.63592">
        <ele>1060</ele>
        <time>2016-07-23T00:43:36Z</time>
      </trkpt>
      <trkpt lat="45.1928" lon="6.63662">
        <ele>1063</ele>
        <time>2016-07-23T00:45:36Z</time>
      </trkpt>
      <trkpt lat="45.19276" lon="6.63681">
        <ele>1062</ele>
        <time>2016-07-23T00:47:36Z</time>
      </trkpt>
      <trkpt lat="45.19269" lon="6.6371">
        <ele>1060</ele>
        <time>2016-07-23T00:49:36Z</time>
      </trkpt>
      <trkpt lat="45.19263" lon="6.63729">
        <ele>1058</ele>
        <time>2016-07-23T00:51:36Z</time>
      </trkpt>
      <trkpt lat="45.19249" lon="6.63769">
        <ele>1054</ele>
        <time>2016-07-23T00:53:36Z</time>
      </trkpt>
      <trkpt lat="45.19238" lon="6.63794">
        <ele>1053</ele>
        <time>2016-07-23T00:55:36Z</time>
      </trkpt>
      <trkpt lat="45.19221" lon="6.63827">
        <ele>1052</ele>
        <time>2016-07-23T00:57:36Z</time>
      </trkpt>
      <trkpt lat="45.19185" lon="6.63878">
        <ele>1052</ele>
        <time>2016-07-23T00:59:36Z</time>
      </trkpt>
      <trkpt lat="45.19169" lon="6.63899">
        <ele>1050</ele>
        <time>2016-07-23T01:01:36Z</time>
      </trkpt>
      <trkpt lat="45.19132" lon="6.63948">
        <ele>1051</ele>
        <time>2016-07-23T01:03:36Z</time>
      </trkpt>
      <trkpt lat="45.19119" lon="6.63965">
        <ele>1051</ele>
        <time>2016-07-23T01:05:36Z</time>
      </trkpt>
      <trkpt lat="45.19108" lon="6.63982">
        <ele>1052</ele>
        <time>2016-07-23T01:07:36Z</time>
      </trkpt>
      <trkpt lat="45.19097" lon="6.64002">
        <ele>1052</ele>
        <time>2016-07-23T01:09:36Z</time>
      </trkpt>
      <trkpt lat="45.1909" lon="6.64017">
        <ele>1052</ele>
        <time>2016-07-23T01:11:36Z</time>
      </trkpt>
      <trkpt lat="45.19086" lon="6.64029">
        <ele>1052</ele>
        <time>2016-07-23T01:13:36Z</time>
      </trkpt>
      <trkpt lat="45.19081" lon="6.64044">
        <ele>1052</ele>
        <time>2016-07-23T01:15:36Z</time>
      </trkpt>
      <trkpt lat="45.19078" lon="6.64053">
        <ele>1052</ele>
        <time>2016-07-23T01:17:36Z</time>
      </trkpt>
      <trkpt lat="45.19074" lon="6.64071">
        <ele>1051</ele>
        <time>2016-07-23T01:19:36Z</time>
      </trkpt>
      <trkpt lat="45.19071" lon="6.64084">
        <ele>1051</ele>
        <time>2016-07-23T01:21:36Z</time>
      </trkpt>
      <trkpt lat="45.19069" lon="6.64097">
        <ele>1051</ele>
        <time>2016-07-23T01:23:36Z</time>
      </trkpt>
      <trkpt lat="45.19068" lon="6.64105">
        <ele>1051</ele>
        <time>2016-07-23T01:25:36Z</time>
      </trkpt>
      <trkpt lat="45.19067" lon="6.64115">
        <ele>1051</ele>
        <time>2016-07-23T01:27:36Z</time>
      </trkpt>
      <trkpt lat="45.19066" lon="6.64127">
        <ele>1051</ele>
        <time>2016-07-23T01:29:36Z</time>
      </trkpt>
      <trkpt lat="45.19065" lon="6.6414">
        <ele>1050</ele>
        <time>2016-07-23T01:31:36Z</time>
      </trkpt>
      <trkpt lat="45.19063" lon="6.64154">
        <ele>1050</ele>
        <time>2016-07-23T01:33:36Z</time>
      </trkpt>
      <trkpt lat="45.19061" lon="6.64229">
        <ele>1051</ele>
        <time>2016-07-23T01:35:36Z</time>
      </trkpt>
      <trkpt lat="45.1906" lon="6.64281">
        <ele>1052</ele>
        <time>2016-07-23T01:37:36Z</time>
      </trkpt>
      <trkpt lat="45.19059" lon="6.64294">
        <ele>1052</ele>
        <time>2016-07-23T01:39:36Z</time>
      </trkpt>
      <trkpt lat="45.19056" lon="6.64394">
        <ele>1051</ele>
        <time>2016-07-23T01:41:36Z</time>
      </trkpt>
      <trkpt lat="45.19057" lon="6.64416">
        <ele>1051</ele>
        <time>2016-07-23T01:43:36Z</time>
      </trkpt>
      <trkpt lat="45.19058" lon="6.64434">
        <ele>1051</ele>
        <time>2016-07-23T01:45:36Z</time>
      </trkpt>
      <trkpt lat="45.1906" lon="6.64443">
        <ele>1050</ele>
        <time>2016-07-23T01:47:36Z</time>
      </trkpt>
      <trkpt lat="45.19065" lon="6.6446">
        <ele>1050</ele>
        <time>2016-07-23T01:49:36Z</time>
      </trkpt>
      <trkpt lat="45.19082" lon="6.64549">
        <ele>1054</ele>
        <time>2016-07-23T01:51:36Z</time>
      </trkpt>
      <trkpt lat="45.19098" lon="6.64629">
        <ele>1057</ele>
        <time>2016-07-23T01:53:36Z</time>
      </trkpt>
      <trkpt lat="45.19114" lon="6.64703">
        <ele>1056</ele>
        <time>2016-07-23T01:55:36Z</time>
      </trkpt>
      <trkpt lat="45.19114" lon="6.64704">
        <ele>1056</ele>
        <time>2016-07-23T01:57:36Z</time>
      </trkpt>
      <trkpt lat="45.19113" lon="6.64704">
        <ele>1056</ele>
        <time>2016-07-23T01:59:36Z</time>
      </trkpt>
      <trkpt lat="45.19113" lon="6.64705">
        <ele>1056</ele>
        <time>2016-07-23T02:01:36Z</time>
      </trkpt>
      <trkpt lat="45.19112" lon="6.64705">
        <ele>1056</ele>
        <time>2016-07-23T02:03:36Z</time>
      </trkpt>
      <trkpt lat="45.19112" lon="6.64706">
        <ele>1056</ele>
        <time>2016-07-23T02:05:36Z</time>
      </trkpt>
      <trkpt lat="45.19112" lon="6.64707">
        <ele>1056</ele>
        <time>2016-07-23T02:07:36Z</time>
      </trkpt>
      <trkpt lat="45.19111" lon="6.64708">
        <ele>1056</ele>
        <time>2016-07-23T02:09:36Z</time>
      </trkpt>
      <trkpt lat="45.19111" lon="6.64709">
        <ele>1056</ele>
        <time>2016-07-23T02:11:36Z</time>
      </trkpt>
      <trkpt lat="45.19111" lon="6.6471">
        <ele>1056</ele>
        <time>2016-07-23T02:13:36Z</time>
      </trkpt>
      <trkpt lat="45.19111" lon="6.64711">
        <ele>1056</ele>
        <time>2016-07-23T02:15:36Z</time>
      </trkpt>
      <trkpt lat="45.1911" lon="6.64711">
        <ele>1056</ele>
        <time>2016-07-23T02:17:36Z</time>
      </trkpt>
      <trkpt lat="45.1911" lon="6.64712">
        <ele>1056</ele>
        <time>2016-07-23T02:19:36Z</time>
      </trkpt>
      <trkpt lat="45.1911" lon="6.64713">
        <ele>1056</ele>
        <time>2016-07-23T02:21:36Z</time>
      </trkpt>
      <trkpt lat="45.1911" lon="6.64714">
        <ele>1056</ele>
        <time>2016-07-23T02:23:36Z</time>
      </trkpt>
      <trkpt lat="45.1911" lon="6.64715">
        <ele>1056</ele>
        <time>2016-07-23T02:25:36Z</time>
      </trkpt>
      <trkpt lat="45.1911" lon="6.64716">
        <ele>1056</ele>
        <time>2016-07-23T02:27:36Z</time>
      </trkpt>
      <trkpt lat="45.1911" lon="6.64717">
        <ele>1056</ele>
        <time>2016-07-23T02:29:36Z</time>
      </trkpt>
      <trkpt lat="45.19111" lon="6.64717">
        <ele>1056</ele>
        <time>2016-07-23T02:31:36Z</time>
      </trkpt>
      <trkpt lat="45.19111" lon="6.64718">
        <ele>1056</ele>
        <time>2016-07-23T02:33:36Z</time>
      </trkpt>
      <trkpt lat="45.19111" lon="6.64719">
        <ele>1056</ele>
        <time>2016-07-23T02:35:36Z</time>
      </trkpt>
      <trkpt lat="45.19111" lon="6.6472">
        <ele>1056</ele>
        <time>2016-07-23T02:37:36Z</time>
      </trkpt>
      <trkpt lat="45.19111" lon="6.64721">
        <ele>1056</ele>
        <time>2016-07-23T02:39:36Z</time>
      </trkpt>
      <trkpt lat="45.19112" lon="6.64722">
        <ele>1056</ele>
        <time>2016-07-23T02:41:36Z</time>
      </trkpt>
      <trkpt lat="45.19112" lon="6.64723">
        <ele>1056</ele>
        <time>2016-07-23T02:43:36Z</time>
      </trkpt>
      <trkpt lat="45.19112" lon="6.64724">
        <ele>1056</ele>
        <time>2016-07-23T02:45:36Z</time>
      </trkpt>
      <trkpt lat="45.19113" lon="6.64724">
        <ele>1056</ele>
        <time>2016-07-23T02:47:36Z</time>
      </trkpt>
      <trkpt lat="45.19113" lon="6.64725">
        <ele>1056</ele>
        <time>2016-07-23T02:49:36Z</time>
      </trkpt>
      <trkpt lat="45.19114" lon="6.64725">
        <ele>1056</ele>
        <time>2016-07-23T02:51:36Z</time>
      </trkpt>
      <trkpt lat="45.19114" lon="6.64726">
        <ele>1056</ele>
        <time>2016-07-23T02:53:36Z</time>
      </trkpt>
      <trkpt lat="45.19115" lon="6.64727">
        <ele>1055</ele>
        <time>2016-07-23T02:55:36Z</time>
      </trkpt>
      <trkpt lat="45.19116" lon="6.64727">
        <ele>1055</ele>
        <time>2016-07-23T02:57:36Z</time>
      </trkpt>
      <trkpt lat="45.19116" lon="6.64728">
        <ele>1055</ele>
        <time>2016-07-23T02:59:36Z</time>
      </trkpt>
      <trkpt lat="45.19117" lon="6.64728">
        <ele>1055</ele>
        <time>2016-07-23T03:01:36Z</time>
      </trkpt>
      <trkpt lat="45.19118" lon="6.64728">
        <ele>1055</ele>
        <time>2016-07-23T03:03:36Z</time>
      </trkpt>
      <trkpt lat="45.19127" lon="6.64796">
        <ele>1055</ele>
        <time>2016-07-23T03:05:36Z</time>
      </trkpt>
      <trkpt lat="45.19131" lon="6.64819">
        <ele>1055</ele>
        <time>2016-07-23T03:07:36Z</time>
      </trkpt>
      <trkpt lat="45.19158" lon="6.64967">
        <ele>1056</ele>
        <time>2016-07-23T03:09:36Z</time>
      </trkpt>
      <trkpt lat="45.1917" lon="6.65039">
        <ele>1057</ele>
        <time>2016-07-23T03:11:36Z</time>
      </trkpt>
      <trkpt lat="45.19197" lon="6.65179">
        <ele>1058</ele>
        <time>2016-07-23T03:13:36Z</time>
      </trkpt>
      <trkpt lat="45.19211" lon="6.65265">
        <ele>1057</ele>
        <time>2016-07-23T03:15:36Z</time>
      </trkpt>
      <trkpt lat="45.19213" lon="6.65274">
        <ele>1057</ele>
        <time>2016-07-23T03:17:36Z</time>
      </trkpt>
      <trkpt lat="45.19214" lon="6.65279">
        <ele>1057</ele>
        <time>2016-07-23T03:19:36Z</time>
      </trkpt>
      <trkpt lat="45.19215" lon="6.65286">
        <ele>1057</ele>
        <time>2016-07-23T03:21:36Z</time>
      </trkpt>
      <trkpt lat="45.19229" lon="6.65365">
        <ele>1057</ele>
        <time>2016-07-23T03:23:36Z</time>
      </trkpt>
      <trkpt lat="45.19243" lon="6.65444">
        <ele>1059</ele>
        <time>2016-07-23T03:25:36Z</time>
      </trkpt>
      <trkpt lat="45.19244" lon="6.65448">
        <ele>1059</ele>
        <time>2016-07-23T03:27:36Z</time>
      </trkpt>
      <trkpt lat="45.19267" lon="6.65568">
        <ele>1057</ele>
        <time>2016-07-23T03:29:36Z</time>
      </trkpt>
      <trkpt lat="45.1927" lon="6.65583">
        <ele>1057</ele>
        <time>2016-07-23T03:31:36Z</time>
      </trkpt>
      <trkpt lat="45.19272" lon="6.65591">
        <ele>1057</ele>
        <time>2016-07-23T03:33:36Z</time>
      </trkpt>
      <trkpt lat="45.19274" lon="6.65599">
        <ele>1058</ele>
        <time>2016-07-23T03:35:36Z</time>
      </trkpt>
      <trkpt lat="45.19281" lon="6.65621">
        <ele>1058</ele>
        <time>2016-07-23T03:37:36Z</time>
      </trkpt>
      <trkpt lat="45.19324" lon="6.65751">
        <ele>1059</ele>
        <time>2016-07-23T03:39:36Z</time>
      </trkpt>
      <trkpt lat="45.19357" lon="6.65843">
        <ele>1060</ele>
        <time>2016-07-23T03:41:36Z</time>
      </trkpt>
      <trkpt lat="45.19361" lon="6.65853">
        <ele>1060</ele>
        <time>2016-07-23T03:43:36Z</time>
      </trkpt>
      <trkpt lat="45.19402" lon="6.65943">
        <ele>1060</ele>
        <time>2016-07-23T03:45:36Z</time>
      </trkpt>
      <trkpt lat="45.19409" lon="6.65958">
        <ele>1060</ele>
        <time>2016-07-23T03:47:36Z</time>
      </trkpt>
      <trkpt lat="45.19417" lon="6.65973">
        <ele>1060</ele>
        <time>2016-07-23T03:49:36Z</time>
      </trkpt>
      <trkpt lat="45.19419" lon="6.65976">
        <ele>1060</ele>
        <time>2016-07-23T03:51:36Z</time>
      </trkpt>
      <trkpt lat="45.19607" lon="6.66237">
        <ele>1058</ele>
        <time>2016-07-23T03:53:36Z</time>
      </trkpt>
      <trkpt lat="45.19623" lon="6.66259">
        <ele>1058</ele>
        <time>2016-07-23T03:55:36Z</time>
      </trkpt>
      <trkpt lat="45.19633" lon="6.66274">
        <ele>1058</ele>
        <time>2016-07-23T03:57:36Z</time>
      </trkpt>
      <trkpt lat="45.19665" lon="6.66317">
        <ele>1057</ele>
        <time>2016-07-23T03:59:36Z</time>
      </trkpt>
      <trkpt lat="45.19699" lon="6.66365">
        <ele>1059</ele>
        <time>2016-07-23T04:01:36Z</time>
      </trkpt>
      <trkpt lat="45.19713" lon="6.66383">
        <ele>1059</ele>
        <time>2016-07-23T04:03:36Z</time>
      </trkpt>
      <trkpt lat="45.19748" lon="6.66428">
        <ele>1060</ele>
        <time>2016-07-23T04:05:36Z</time>
      </trkpt>
      <trkpt lat="45.19769" lon="6.66453">
        <ele>1060</ele>
        <time>2016-07-23T04:07:36Z</time>
      </trkpt>
      <trkpt lat="45.19777" lon="6.66464">
        <ele>1060</ele>
        <time>2016-07-23T04:09:36Z</time>
      </trkpt>
      <trkpt lat="45.19788" lon="6.66479">
        <ele>1060</ele>
        <time>2016-07-23T04:11:36Z</time>
      </trkpt>
      <trkpt lat="45.1979" lon="6.66482">
        <ele>1060</ele>
        <time>2016-07-23T04:13:36Z</time>
      </trkpt>
      <trkpt lat="45.19797" lon="6.66494">
        <ele>1060</ele>
        <time>2016-07-23T04:15:36Z</time>
      </trkpt>
      <trkpt lat="45.19805" lon="6.66511">
        <ele>1061</ele>
        <time>2016-07-23T04:17:36Z</time>
      </trkpt>
      <trkpt lat="45.19808" lon="6.66517">
        <ele>1061</ele>
        <time>2016-07-23T04:19:36Z</time>
      </trkpt>
      <trkpt lat="45.19809" lon="6.66522">
        <ele>1062</ele>
        <time>2016-07-23T04:21:36Z</time>
      </trkpt>
      <trkpt lat="45.19811" lon="6.66526">
        <ele>1062</ele>
        <time>2016-07-23T04:23:36Z</time>
      </trkpt>
      <trkpt lat="45.19853" lon="6.66655">
        <ele>1065</ele>
        <time>2016-07-23T04:25:36Z</time>
      </trkpt>
      <trkpt lat="45.19858" lon="6.66677">
        <ele>1067</ele>
        <time>2016-07-23T04:27:36Z</time>
      </trkpt>
      <trkpt lat="45.19863" lon="6.66693">
        <ele>1068</ele>
        <time>2016-07-23T04:29:36Z</time>
      </trkpt>
      <trkpt lat="45.1987" lon="6.66709">
        <ele>1069</ele>
        <time>2016-07-23T04:31:36Z</time>
      </trkpt>
      <trkpt lat="45.19879" lon="6.66723">
        <ele>1069</ele>
        <time>2016-07-23T04:33:36Z</time>
      </trkpt>
      <trkpt lat="45.19931" lon="6.6678">
        <ele>1065</ele>
        <time>2016-07-23T04:35:36Z</time>
      </trkpt>
      <trkpt lat="45.19987" lon="6.66838">
        <ele>1064</ele>
        <time>2016-07-23T04:37:36Z</time>
      </trkpt>
      <trkpt lat="45.19987" lon="6.66839">
        <ele>1064</ele>
        <time>2016-07-23T04:39:36Z</time>
      </trkpt>
      <trkpt lat="45.19986" lon="6.66839">
        <ele>1064</ele>
        <time>2016-07-23T04:41:36Z</time>
      </trkpt>
      <trkpt lat="45.19986" lon="6.6684">
        <ele>1064</ele>
        <time>2016-07-23T04:43:36Z</time>
      </trkpt>
      <trkpt lat="45.19986" lon="6.66841">
        <ele>1064</ele>
        <time>2016-07-23T04:45:36Z</time>
      </trkpt>
      <trkpt lat="45.19985" lon="6.66841">
        <ele>1064</ele>
        <time>2016-07-23T04:47:36Z</time>
      </trkpt>
      <trkpt lat="45.19985" lon="6.66842">
        <ele>1064</ele>
        <time>2016-07-23T04:49:36Z</time>
      </trkpt>
      <trkpt lat="45.19985" lon="6.66843">
        <ele>1064</ele>
        <time>2016-07-23T04:51:36Z</time>
      </trkpt>
      <trkpt lat="45.19985" lon="6.66844">
        <ele>1064</ele>
        <time>2016-07-23T04:53:36Z</time>
      </trkpt>
      <trkpt lat="45.19985" lon="6.66845">
        <ele>1064</ele>
        <time>2016-07-23T04:55:36Z</time>
      </trkpt>
      <trkpt lat="45.19985" lon="6.66846">
        <ele>1064</ele>
        <time>2016-07-23T04:57:36Z</time>
      </trkpt>
      <trkpt lat="45.19985" lon="6.66847">
        <ele>1064</ele>
        <time>2016-07-23T04:59:36Z</time>
      </trkpt>
      <trkpt lat="45.19985" lon="6.66848">
        <ele>1064</ele>
        <time>2016-07-23T05:01:36Z</time>
      </trkpt>
      <trkpt lat="45.19985" lon="6.66849">
        <ele>1064</ele>
        <time>2016-07-23T05:03:36Z</time>
      </trkpt>
      <trkpt lat="45.19985" lon="6.6685">
        <ele>1064</ele>
        <time>2016-07-23T05:05:36Z</time>
      </trkpt>
      <trkpt lat="45.19986" lon="6.6685">
        <ele>1064</ele>
        <time>2016-07-23T05:07:36Z</time>
      </trkpt>
      <trkpt lat="45.19986" lon="6.66851">
        <ele>1064</ele>
        <time>2016-07-23T05:09:36Z</time>
      </trkpt>
      <trkpt lat="45.19986" lon="6.66852">
        <ele>1064</ele>
        <time>2016-07-23T05:11:36Z</time>
      </trkpt>
      <trkpt lat="45.19987" lon="6.66852">
        <ele>1064</ele>
        <time>2016-07-23T05:13:36Z</time>
      </trkpt>
      <trkpt lat="45.19987" lon="6.66853">
        <ele>1064</ele>
        <time>2016-07-23T05:15:36Z</time>
      </trkpt>
      <trkpt lat="45.19987" lon="6.66854">
        <ele>1064</ele>
        <time>2016-07-23T05:17:36Z</time>
      </trkpt>
      <trkpt lat="45.19988" lon="6.66854">
        <ele>1064</ele>
        <time>2016-07-23T05:19:36Z</time>
      </trkpt>
      <trkpt lat="45.19988" lon="6.66855">
        <ele>1064</ele>
        <time>2016-07-23T05:21:36Z</time>
      </trkpt>
      <trkpt lat="45.19989" lon="6.66855">
        <ele>1064</ele>
        <time>2016-07-23T05:23:36Z</time>
      </trkpt>
      <trkpt lat="45.1999" lon="6.66855">
        <ele>1064</ele>
        <time>2016-07-23T05:25:36Z</time>
      </trkpt>
      <trkpt lat="45.1999" lon="6.66856">
        <ele>1064</ele>
        <time>2016-07-23T05:27:36Z</time>
      </trkpt>
      <trkpt lat="45.19991" lon="6.66856">
        <ele>1064</ele>
        <time>2016-07-23T05:29:36Z</time>
      </trkpt>
      <trkpt lat="45.19992" lon="6.66856">
        <ele>1064</ele>
        <time>2016-07-23T05:31:36Z</time>
      </trkpt>
      <trkpt lat="45.19993" lon="6.66856">
        <ele>1064</ele>
        <time>2016-07-23T05:33:36Z</time>
      </trkpt>
      <trkpt lat="45.19994" lon="6.66856">
        <ele>1063</ele>
        <time>2016-07-23T05:35:36Z</time>
      </trkpt>
      <trkpt lat="45.19995" lon="6.66856">
        <ele>1063</ele>
        <time>2016-07-23T05:37:36Z</time>
      </trkpt>
      <trkpt lat="45.19996" lon="6.66856">
        <ele>1063</ele>
        <time>2016-07-23T05:39:36Z</time>
      </trkpt>
      <trkpt lat="45.19996" lon="6.66855">
        <ele>1063</ele>
        <time>2016-07-23T05:41:36Z</time>
      </trkpt>
      <trkpt lat="45.19997" lon="6.66855">
        <ele>1063</ele>
        <time>2016-07-23T05:43:36Z</time>
      </trkpt>
      <trkpt lat="45.19997" lon="6.66854">
        <ele>1063</ele>
        <time>2016-07-23T05:45:36Z</time>
      </trkpt>
      <trkpt lat="45.19998" lon="6.66854">
        <ele>1063</ele>
        <time>2016-07-23T05:47:36Z</time>
      </trkpt>
      <trkpt lat="45.19998" lon="6.66853">
        <ele>1063</ele>
        <time>2016-07-23T05:49:36Z</time>
      </trkpt>
      <trkpt lat="45.19999" lon="6.66853">
        <ele>1063</ele>
        <time>2016-07-23T05:51:36Z</time>
      </trkpt>
      <trkpt lat="45.19999" lon="6.66852">
        <ele>1063</ele>
        <time>2016-07-23T05:53:36Z</time>
      </trkpt>
      <trkpt lat="45.2" lon="6.66851">
        <ele>1062</ele>
        <time>2016-07-23T05:55:36Z</time>
      </trkpt>
      <trkpt lat="45.20054" lon="6.66901">
        <ele>1064</ele>
        <time>2016-07-23T05:57:36Z</time>
      </trkpt>
      <trkpt lat="45.20067" lon="6.66912">
        <ele>1064</ele>
        <time>2016-07-23T05:59:36Z</time>
      </trkpt>
      <trkpt lat="45.20098" lon="6.66944">
        <ele>1064</ele>
        <time>2016-07-23T06:01:36Z</time>
      </trkpt>
      <trkpt lat="45.20135" lon="6.66985">
        <ele>1064</ele>
        <time>2016-07-23T06:03:36Z</time>
      </trkpt>
      <trkpt lat="45.20158" lon="6.67011">
        <ele>1064</ele>
        <time>2016-07-23T06:05:36Z</time>
      </trkpt>
      <trkpt lat="45.2018" lon="6.67039">
        <ele>1065</ele>
        <time>2016-07-23T06:07:36Z</time>
      </trkpt>
      <trkpt lat="45.20201" lon="6.67068">
        <ele>1065</ele>
        <time>2016-07-23T06:09:36Z</time>
      </trkpt>
      <trkpt lat="45.20216" lon="6.6709">
        <ele>1064</ele>
        <time>2016-07-23T06:11:36Z</time>
      </trkpt>
      <trkpt lat="45.20226" lon="6.67106">
        <ele>1064</ele>
        <time>2016-07-23T06:13:36Z</time>
      </trkpt>
      <trkpt lat="45.20226" lon="6.67107">
        <ele>1064</ele>
        <time>2016-07-23T06:15:36Z</time>
      </trkpt>
      <trkpt lat="45.20225" lon="6.67107">
        <ele>1064</ele>
        <time>2016-07-23T06:17:36Z</time>
      </trkpt>
      <trkpt lat="45.20225" lon="6.67108">
        <ele>1064</ele>
        <time>2016-07-23T06:19:36Z</time>
      </trkpt>
      <trkpt lat="45.20225" lon="6.67109">
        <ele>1065</ele>
        <time>2016-07-23T06:21:36Z</time>
      </trkpt>
      <trkpt lat="45.20224" lon="6.67109">
        <ele>1065</ele>
        <time>2016-07-23T06:23:36Z</time>
      </trkpt>
      <trkpt lat="45.20224" lon="6.6711">
        <ele>1065</ele>
        <time>2016-07-23T06:25:36Z</time>
      </trkpt>
      <trkpt lat="45.20224" lon="6.67111">
        <ele>1065</ele>
        <time>2016-07-23T06:27:36Z</time>
      </trkpt>
      <trkpt lat="45.20224" lon="6.67112">
        <ele>1065</ele>
        <time>2016-07-23T06:29:36Z</time>
      </trkpt>
      <trkpt lat="45.20224" lon="6.67113">
        <ele>1065</ele>
        <time>2016-07-23T06:31:36Z</time>
      </trkpt>
      <trkpt lat="45.20224" lon="6.67114">
        <ele>1065</ele>
        <time>2016-07-23T06:33:36Z</time>
      </trkpt>
      <trkpt lat="45.20224" lon="6.67115">
        <ele>1065</ele>
        <time>2016-07-23T06:35:36Z</time>
      </trkpt>
      <trkpt lat="45.20224" lon="6.67116">
        <ele>1065</ele>
        <time>2016-07-23T06:37:36Z</time>
      </trkpt>
      <trkpt lat="45.20224" lon="6.67117">
        <ele>1065</ele>
        <time>2016-07-23T06:39:36Z</time>
      </trkpt>
      <trkpt lat="45.20224" lon="6.67118">
        <ele>1065</ele>
        <time>2016-07-23T06:41:36Z</time>
      </trkpt>
      <trkpt lat="45.20225" lon="6.67118">
        <ele>1065</ele>
        <time>2016-07-23T06:43:36Z</time>
      </trkpt>
      <trkpt lat="45.20225" lon="6.67119">
        <ele>1065</ele>
        <time>2016-07-23T06:45:36Z</time>
      </trkpt>
      <trkpt lat="45.20225" lon="6.6712">
        <ele>1065</ele>
        <time>2016-07-23T06:47:36Z</time>
      </trkpt>
      <trkpt lat="45.20226" lon="6.6712">
        <ele>1065</ele>
        <time>2016-07-23T06:49:36Z</time>
      </trkpt>
      <trkpt lat="45.20226" lon="6.67121">
        <ele>1065</ele>
        <time>2016-07-23T06:51:36Z</time>
      </trkpt>
      <trkpt lat="45.20227" lon="6.67121">
        <ele>1065</ele>
        <time>2016-07-23T06:53:36Z</time>
      </trkpt>
      <trkpt lat="45.20227" lon="6.67122">
        <ele>1065</ele>
        <time>2016-07-23T06:55:36Z</time>
      </trkpt>
      <trkpt lat="45.20228" lon="6.67122">
        <ele>1065</ele>
        <time>2016-07-23T06:57:36Z</time>
      </trkpt>
      <trkpt lat="45.20229" lon="6.67122">
        <ele>1065</ele>
        <time>2016-07-23T06:59:36Z</time>
      </trkpt>
      <trkpt lat="45.2023" lon="6.67122">
        <ele>1065</ele>
        <time>2016-07-23T07:01:36Z</time>
      </trkpt>
      <trkpt lat="45.20261" lon="6.6717">
        <ele>1065</ele>
        <time>2016-07-23T07:03:36Z</time>
      </trkpt>
      <trkpt lat="45.2027" lon="6.67183">
        <ele>1066</ele>
        <time>2016-07-23T07:05:36Z</time>
      </trkpt>
      <trkpt lat="45.20289" lon="6.67219">
        <ele>1067</ele>
        <time>2016-07-23T07:07:36Z</time>
      </trkpt>
      <trkpt lat="45.203" lon="6.67238">
        <ele>1067</ele>
        <time>2016-07-23T07:09:36Z</time>
      </trkpt>
      <trkpt lat="45.20311" lon="6.6726">
        <ele>1067</ele>
        <time>2016-07-23T07:11:36Z</time>
      </trkpt>
      <trkpt lat="45.20325" lon="6.67288">
        <ele>1067</ele>
        <time>2016-07-23T07:13:36Z</time>
      </trkpt>
      <trkpt lat="45.20329" lon="6.67298">
        <ele>1067</ele>
        <time>2016-07-23T07:15:36Z</time>
      </trkpt>
      <trkpt lat="45.20337" lon="6.67318">
        <ele>1068</ele>
        <time>2016-07-23T07:17:36Z</time>
      </trkpt>
      <trkpt lat="45.20352" lon="6.67357">
        <ele>1068</ele>
        <time>2016-07-23T07:19:36Z</time>
      </trkpt>
      <trkpt lat="45.20366" lon="6.67395">
        <ele>1069</ele>
        <time>2016-07-23T07:21:36Z</time>
      </trkpt>
      <trkpt lat="45.2037" lon="6.67407">
        <ele>1069</ele>
        <time>2016-07-23T07:23:36Z</time>
      </trkpt>
      <trkpt lat="45.20387" lon="6.67461">
        <ele>1073</ele>
        <time>2016-07-23T07:25:36Z</time>
      </trkpt>
      <trkpt lat="45.20387" lon="6.67461">
        <ele>1073</ele>
        <time>2016-07-23T07:27:36Z</time>
      </trkpt>
      <trkpt lat="45.20392" lon="6.67457">
        <ele>1072</ele>
        <time>2016-07-23T07:29:36Z</time>
      </trkpt>
      <trkpt lat="45.20403" lon="6.67456">
        <ele>1072</ele>
        <time>2016-07-23T07:31:36Z</time>
      </trkpt>
      <trkpt lat="45.2041" lon="6.67459">
        <ele>1072</ele>
        <time>2016-07-23T07:33:36Z</time>
      </trkpt>
      <trkpt lat="45.2042" lon="6.67465">
        <ele>1072</ele>
        <time>2016-07-23T07:35:36Z</time>
      </trkpt>
      <trkpt lat="45.20428" lon="6.67476">
        <ele>1072</ele>
        <time>2016-07-23T07:37:36Z</time>
      </trkpt>
      <trkpt lat="45.20438" lon="6.67493">
        <ele>1073</ele>
        <time>2016-07-23T07:39:36Z</time>
      </trkpt>
      <trkpt lat="45.20452" lon="6.67524">
        <ele>1074</ele>
        <time>2016-07-23T07:41:36Z</time>
      </trkpt>
      <trkpt lat="45.20488" lon="6.67606">
        <ele>1079</ele>
        <time>2016-07-23T07:43:36Z</time>
      </trkpt>
      <trkpt lat="45.20524" lon="6.67694">
        <ele>1082</ele>
        <time>2016-07-23T07:45:36Z</time>
      </trkpt>
      <trkpt lat="45.20534" lon="6.67705">
        <ele>1082</ele>
        <time>2016-07-23T07:47:36Z</time>
      </trkpt>
      <trkpt lat="45.20562" lon="6.67727">
        <ele>1082</ele>
        <time>2016-07-23T07:49:36Z</time>
      </trkpt>
      <trkpt lat="45.20567" lon="6.67732">
        <ele>1081</ele>
        <time>2016-07-23T07:51:36Z</time>
      </trkpt>
      <trkpt lat="45.20572" lon="6.67737">
        <ele>1081</ele>
        <time>2016-07-23T07:53:36Z</time>
      </trkpt>
      <trkpt lat="45.20582" lon="6.67753">
        <ele>1081</ele>
        <time>2016-07-23T07:55:36Z</time>
      </trkpt>
      <trkpt lat="45.20582" lon="6.67753">
        <ele>1081</ele>
        <time>2016-07-23T07:57:36Z</time>
      </trkpt>
      <trkpt lat="45.2056" lon="6.67781">
        <ele>1083</ele>
        <time>2016-07-23T07:59:36Z</time>
      </trkpt>
      <trkpt lat="45.20558" lon="6.67787">
        <ele>1083</ele>
        <time>2016-07-23T08:01:36Z</time>
      </trkpt>
      <trkpt lat="45.20556" lon="6.67792">
        <ele>1084</ele>
        <time>2016-07-23T08:03:36Z</time>
      </trkpt>
      <trkpt lat="45.20555" lon="6.67797">
        <ele>1084</ele>
        <time>2016-07-23T08:05:36Z</time>
      </trkpt>
      <trkpt lat="45.20556" lon="6.67802">
        <ele>1084</ele>
        <time>2016-07-23T08:07:36Z</time>
      </trkpt>
      <trkpt lat="45.20556" lon="6.67807">
        <ele>1084</ele>
        <time>2016-07-23T08:09:36Z</time>
      </trkpt>
      <trkpt lat="45.2057" lon="6.67849">
        <ele>1083</ele>
        <time>2016-07-23T08:11:36Z</time>
      </trkpt>
      <trkpt lat="45.20581" lon="6.67877">
        <ele>1082</ele>
        <time>2016-07-23T08:13:36Z</time>
      </trkpt>
      <trkpt lat="45.20583" lon="6.67881">
        <ele>1082</ele>
        <time>2016-07-23T08:15:36Z</time>
      </trkpt>
      <trkpt lat="45.20586" lon="6.67885">
        <ele>1082</ele>
        <time>2016-07-23T08:17:36Z</time>
      </trkpt>
      <trkpt lat="45.20589" lon="6.67888">
        <ele>1082</ele>
        <time>2016-07-23T08:19:36Z</time>
      </trkpt>
      <trkpt lat="45.20608" lon="6.67893">
        <ele>1082</ele>
        <time>2016-07-23T08:21:36Z</time>
      </trkpt>
      <trkpt lat="45.20608" lon="6.67893">
        <ele>1082</ele>
        <time>2016-07-23T08:23:36Z</time>
      </trkpt>
      <trkpt lat="45.20646" lon="6.68">
        <ele>1084</ele>
        <time>2016-07-23T08:25:36Z</time>
      </trkpt>
      <trkpt lat="45.20657" lon="6.6803">
        <ele>1084</ele>
        <time>2016-07-23T08:27:36Z</time>
      </trkpt>
      <trkpt lat="45.20657" lon="6.68035">
        <ele>1084</ele>
        <time>2016-07-23T08:29:36Z</time>
      </trkpt>
      <trkpt lat="45.20657" lon="6.6804">
        <ele>1084</ele>
        <time>2016-07-23T08:31:36Z</time>
      </trkpt>
      <trkpt lat="45.20657" lon="6.68049">
        <ele>1085</ele>
        <time>2016-07-23T08:33:36Z</time>
      </trkpt>
      <trkpt lat="45.20655" lon="6.68056">
        <ele>1085</ele>
        <time>2016-07-23T08:35:36Z</time>
      </trkpt>
      <trkpt lat="45.20652" lon="6.68064">
        <ele>1085</ele>
        <time>2016-07-23T08:37:36Z</time>
      </trkpt>
      <trkpt lat="45.2064" lon="6.68082">
        <ele>1087</ele>
        <time>2016-07-23T08:39:36Z</time>
      </trkpt>
      <trkpt lat="45.2064" lon="6.68082">
        <ele>1087</ele>
        <time>2016-07-23T08:41:36Z</time>
      </trkpt>
      <trkpt lat="45.20664" lon="6.68154">
        <ele>1084</ele>
        <time>2016-07-23T08:43:36Z</time>
      </trkpt>
      <trkpt lat="45.20666" lon="6.68164">
        <ele>1083</ele>
        <time>2016-07-23T08:45:36Z</time>
      </trkpt>
      <trkpt lat="45.20673" lon="6.6821">
        <ele>1082</ele>
        <time>2016-07-23T08:47:36Z</time>
      </trkpt>
      <trkpt lat="45.20684" lon="6.68231">
        <ele>1082</ele>
        <time>2016-07-23T08:49:36Z</time>
      </trkpt>
      <trkpt lat="45.20695" lon="6.68253">
        <ele>1082</ele>
        <time>2016-07-23T08:51:36Z</time>
      </trkpt>
      <trkpt lat="45.20717" lon="6.68291">
        <ele>1080</ele>
        <time>2016-07-23T08:53:36Z</time>
      </trkpt>
      <trkpt lat="45.20738" lon="6.6833">
        <ele>1078</ele>
        <time>2016-07-23T08:55:36Z</time>
      </trkpt>
      <trkpt lat="45.20741" lon="6.68336">
        <ele>1078</ele>
        <time>2016-07-23T08:57:36Z</time>
      </trkpt>
      <trkpt lat="45.20747" lon="6.68346">
        <ele>1078</ele>
        <time>2016-07-23T08:59:36Z</time>
      </trkpt>
      <trkpt lat="45.20747" lon="6.68346">
        <ele>1078</ele>
        <time>2016-07-23T09:01:36Z</time>
      </trkpt>
      <trkpt lat="45.20753" lon="6.68394">
        <ele>1079</ele>
        <time>2016-07-23T09:03:36Z</time>
      </trkpt>
      <trkpt lat="45.20761" lon="6.68467">
        <ele>1078</ele>
        <time>2016-07-23T09:05:36Z</time>
      </trkpt>
      <trkpt lat="45.20767" lon="6.68548">
        <ele>1077</ele>
        <time>2016-07-23T09:07:36Z</time>
      </trkpt>
      <trkpt lat="45.20772" lon="6.6861">
        <ele>1079</ele>
        <time>2016-07-23T09:09:36Z</time>
      </trkpt>
      <trkpt lat="45.20772" lon="6.6862">
        <ele>1079</ele>
        <time>2016-07-23T09:11:36Z</time>
      </trkpt>
      <trkpt lat="45.20771" lon="6.68627">
        <ele>1079</ele>
        <time>2016-07-23T09:13:36Z</time>
      </trkpt>
      <trkpt lat="45.20769" lon="6.68637">
        <ele>1079</ele>
        <time>2016-07-23T09:15:36Z</time>
      </trkpt>
      <trkpt lat="45.20766" lon="6.68653">
        <ele>1079</ele>
        <time>2016-07-23T09:17:36Z</time>
      </trkpt>
      <trkpt lat="45.20764" lon="6.68661">
        <ele>1079</ele>
        <time>2016-07-23T09:19:36Z</time>
      </trkpt>
      <trkpt lat="45.20763" lon="6.68668">
        <ele>1079</ele>
        <time>2016-07-23T09:21:36Z</time>
      </trkpt>
      <trkpt lat="45.20762" lon="6.68674">
        <ele>1079</ele>
        <time>2016-07-23T09:23:36Z</time>
      </trkpt>
      <trkpt lat="45.20762" lon="6.6868">
        <ele>1079</ele>
        <time>2016-07-23T09:25:36Z</time>
      </trkpt>
      <trkpt lat="45.20762" lon="6.68686">
        <ele>1079</ele>
        <time>2016-07-23T09:27:36Z</time>
      </trkpt>
      <trkpt lat="45.20762" lon="6.68695">
        <ele>1079</ele>
        <time>2016-07-23T09:29:36Z</time>
      </trkpt>
      <trkpt lat="45.20766" lon="6.68721">
        <ele>1080</ele>
        <time>2016-07-23T09:31:36Z</time>
      </trkpt>
      <trkpt lat="45.20804" lon="6.68998">
        <ele>1076</ele>
        <time>2016-07-23T09:33:36Z</time>
      </trkpt>
      <trkpt lat="45.20805" lon="6.69003">
        <ele>1077</ele>
        <time>2016-07-23T09:35:36Z</time>
      </trkpt>
      <trkpt lat="45.20806" lon="6.69006">
        <ele>1077</ele>
        <time>2016-07-23T09:37:36Z</time>
      </trkpt>
      <trkpt lat="45.20808" lon="6.69009">
        <ele>1077</ele>
        <time>2016-07-23T09:39:36Z</time>
      </trkpt>
      <trkpt lat="45.2081" lon="6.69012">
        <ele>1077</ele>
        <time>2016-07-23T09:41:36Z</time>
      </trkpt>
      <trkpt lat="45.20814" lon="6.69015">
        <ele>1077</ele>
        <time>2016-07-23T09:43:36Z</time>
      </trkpt>
      <trkpt lat="45.2082" lon="6.69018">
        <ele>1077</ele>
        <time>2016-07-23T09:45:36Z</time>
      </trkpt>
      <trkpt lat="45.20845" lon="6.69022">
        <ele>1078</ele>
        <time>2016-07-23T09:47:36Z</time>
      </trkpt>
      <trkpt lat="45.20879" lon="6.6902">
        <ele>1086</ele>
        <time>2016-07-23T09:49:36Z</time>
      </trkpt>
      <trkpt lat="45.2089" lon="6.69035">
        <ele>1087</ele>
        <time>2016-07-23T09:51:36Z</time>
      </trkpt>
      <trkpt lat="45.20894" lon="6.69044">
        <ele>1086</ele>
        <time>2016-07-23T09:53:36Z</time>
      </trkpt>
      <trkpt lat="45.20898" lon="6.69053">
        <ele>1086</ele>
        <time>2016-07-23T09:55:36Z</time>
      </trkpt>
      <trkpt lat="45.20905" lon="6.69063">
        <ele>1085</ele>
        <time>2016-07-23T09:57:36Z</time>
      </trkpt>
      <trkpt lat="45.20926" lon="6.69092">
        <ele>1086</ele>
        <time>2016-07-23T09:59:36Z</time>
      </trkpt>
      <trkpt lat="45.20958" lon="6.69128">
        <ele>1090</ele>
        <time>2016-07-23T10:01:36Z</time>
      </trkpt>
      <trkpt lat="45.20976" lon="6.69152">
        <ele>1087</ele>
        <time>2016-07-23T10:03:36Z</time>
      </trkpt>
      <trkpt lat="45.21005" lon="6.69194">
        <ele>1083</ele>
        <time>2016-07-23T10:05:36Z</time>
      </trkpt>
      <trkpt lat="45.21015" lon="6.69211">
        <ele>1084</ele>
        <time>2016-07-23T10:07:36Z</time>
      </trkpt>
      <trkpt lat="45.21022" lon="6.69227">
        <ele>1084</ele>
        <time>2016-07-23T10:09:36Z</time>
      </trkpt>
      <trkpt lat="45.21028" lon="6.69241">
        <ele>1084</ele>
        <time>2016-07-23T10:11:36Z</time>
      </trkpt>
      <trkpt lat="45.21041" lon="6.69278">
        <ele>1084</ele>
        <time>2016-07-23T10:13:36Z</time>
      </trkpt>
      <trkpt lat="45.2105" lon="6.69302">
        <ele>1084</ele>
        <time>2016-07-23T10:15:36Z</time>
      </trkpt>
      <trkpt lat="45.2106" lon="6.69328">
        <ele>1083</ele>
        <time>2016-07-23T10:17:36Z</time>
      </trkpt>
      <trkpt lat="45.21071" lon="6.6937">
        <ele>1082</ele>
        <time>2016-07-23T10:19:36Z</time>
      </trkpt>
      <trkpt lat="45.21081" lon="6.69422">
        <ele>1079</ele>
        <time>2016-07-23T10:21:36Z</time>
      </trkpt>
      <trkpt lat="45.21084" lon="6.69468">
        <ele>1079</ele>
        <time>2016-07-23T10:23:36Z</time>
      </trkpt>
      <trkpt lat="45.21085" lon="6.69488">
        <ele>1079</ele>
        <time>2016-07-23T10:25:36Z</time>
      </trkpt>
      <trkpt lat="45.21086" lon="6.69509">
        <ele>1079</ele>
        <time>2016-07-23T10:27:36Z</time>
      </trkpt>
      <trkpt lat="45.2109" lon="6.69554">
        <ele>1079</ele>
        <time>2016-07-23T10:29:36Z</time>
      </trkpt>
      <trkpt lat="45.21092" lon="6.69571">
        <ele>1079</ele>
        <time>2016-07-23T10:31:36Z</time>
      </trkpt>
      <trkpt lat="45.21096" lon="6.69596">
        <ele>1081</ele>
        <time>2016-07-23T10:33:36Z</time>
      </trkpt>
      <trkpt lat="45.21099" lon="6.69612">
        <ele>1082</ele>
        <time>2016-07-23T10:35:36Z</time>
      </trkpt>
      <trkpt lat="45.21105" lon="6.6963">
        <ele>1084</ele>
        <time>2016-07-23T10:37:36Z</time>
      </trkpt>
      <trkpt lat="45.21093" lon="6.69823">
        <ele>1085</ele>
        <time>2016-07-23T10:39:36Z</time>
      </trkpt>
      <trkpt lat="45.21092" lon="6.69837">
        <ele>1084</ele>
        <time>2016-07-23T10:41:36Z</time>
      </trkpt>
      <trkpt lat="45.21089" lon="6.69878">
        <ele>1084</ele>
        <time>2016-07-23T10:43:36Z</time>
      </trkpt>
      <trkpt lat="45.21079" lon="6.70026">
        <ele>1082</ele>
        <time>2016-07-23T10:45:36Z</time>
      </trkpt>
      <trkpt lat="45.21078" lon="6.70031">
        <ele>1082</ele>
        <time>2016-07-23T10:47:36Z</time>
      </trkpt>
      <trkpt lat="45.21078" lon="6.70035">
        <ele>1082</ele>
        <time>2016-07-23T10:49:36Z</time>
      </trkpt>
      <trkpt lat="45.21077" lon="6.70092">
        <ele>1083</ele>
        <time>2016-07-23T10:51:36Z</time>
      </trkpt>
      <trkpt lat="45.21078" lon="6.70142">
        <ele>1087</ele>
        <time>2016-07-23T10:53:36Z</time>
      </trkpt>
      <trkpt lat="45.2108" lon="6.70155">
        <ele>1088</ele>
        <time>2016-07-23T10:55:36Z</time>
      </trkpt>
      <trkpt lat="45.21082" lon="6.70175">
        <ele>1088</ele>
        <time>2016-07-23T10:57:36Z</time>
      </trkpt>
      <trkpt lat="45.21084" lon="6.70195">
        <ele>1088</ele>
        <time>2016-07-23T10:59:36Z</time>
      </trkpt>
      <trkpt lat="45.2109" lon="6.70223">
        <ele>1088</ele>
        <time>2016-07-23T11:01:36Z</time>
      </trkpt>
      <trkpt lat="45.21098" lon="6.70242">
        <ele>1090</ele>
        <time>2016-07-23T11:03:36Z</time>
      </trkpt>
      <trkpt lat="45.21119" lon="6.703">
        <ele>1094</ele>
        <time>2016-07-23T11:05:36Z</time>
      </trkpt>
      <trkpt lat="45.21127" lon="6.70321">
        <ele>1095</ele>
        <time>2016-07-23T11:07:36Z</time>
      </trkpt>
      <trkpt lat="45.21136" lon="6.70337">
        <ele>1095</ele>
        <time>2016-07-23T11:09:36Z</time>
      </trkpt>
      <trkpt lat="45.21142" lon="6.70348">
        <ele>1095</ele>
        <time>2016-07-23T11:11:36Z</time>
      </trkpt>
      <trkpt lat="45.21168" lon="6.70384">
        <ele>1093</ele>
        <time>2016-07-23T11:13:36Z</time>
      </trkpt>
      <trkpt lat="45.21196" lon="6.70426">
        <ele>1095</ele>
        <time>2016-07-23T11:15:36Z</time>
      </trkpt>
      <trkpt lat="45.21204" lon="6.7044">
        <ele>1096</ele>
        <time>2016-07-23T11:17:36Z</time>
      </trkpt>
      <trkpt lat="45.21212" lon="6.70457">
        <ele>1097</ele>
        <time>2016-07-23T11:19:36Z</time>
      </trkpt>
      <trkpt lat="45.21219" lon="6.70474">
        <ele>1097</ele>
        <time>2016-07-23T11:21:36Z</time>
      </trkpt>
      <trkpt lat="45.2124" lon="6.70525">
        <ele>1095</ele>
        <time>2016-07-23T11:23:36Z</time>
      </trkpt>
      <trkpt lat="45.21256" lon="6.70559">
        <ele>1092</ele>
        <time>2016-07-23T11:25:36Z</time>
      </trkpt>
      <trkpt lat="45.21261" lon="6.70564">
        <ele>1093</ele>
        <time>2016-07-23T11:27:36Z</time>
      </trkpt>
      <trkpt lat="45.21267" lon="6.70575">
        <ele>1092</ele>
        <time>2016-07-23T11:29:36Z</time>
      </trkpt>
      <trkpt lat="45.21275" lon="6.70585">
        <ele>1093</ele>
        <time>2016-07-23T11:31:36Z</time>
      </trkpt>
      <trkpt lat="45.21284" lon="6.70596">
        <ele>1095</ele>
        <time>2016-07-23T11:33:36Z</time>
      </trkpt>
      <trkpt lat="45.21307" lon="6.7062">
        <ele>1096</ele>
        <time>2016-07-23T11:35:36Z</time>
      </trkpt>
      <trkpt lat="45.21312" lon="6.70625">
        <ele>1096</ele>
        <time>2016-07-23T11:37:36Z</time>
      </trkpt>
      <trkpt lat="45.21333" lon="6.70649">
        <ele>1095</ele>
        <time>2016-07-23T11:39:36Z</time>
      </trkpt>
      <trkpt lat="45.21346" lon="6.7067">
        <ele>1097</ele>
        <time>2016-07-23T11:41:36Z</time>
      </trkpt>
      <trkpt lat="45.21358" lon="6.70693">
        <ele>1103</ele>
        <time>2016-07-23T11:43:36Z</time>
      </trkpt>
      <trkpt lat="45.21364" lon="6.70711">
        <ele>1107</ele>
        <time>2016-07-23T11:45:36Z</time>
      </trkpt>
      <trkpt lat="45.2137" lon="6.7073">
        <ele>1109</ele>
        <time>2016-07-23T11:47:36Z</time>
      </trkpt>
      <trkpt lat="45.21382" lon="6.70785">
        <ele>1110</ele>
        <time>2016-07-23T11:49:36Z</time>
      </trkpt>
      <trkpt lat="45.21387" lon="6.70801">
        <ele>1109</ele>
        <time>2016-07-23T11:51:36Z</time>
      </trkpt>
      <trkpt lat="45.21391" lon="6.70812">
        <ele>1109</ele>
        <time>2016-07-23T11:53:36Z</time>
      </trkpt>
      <trkpt lat="45.21401" lon="6.70837">
        <ele>1107</ele>
        <time>2016-07-23T11:55:36Z</time>
      </trkpt>
      <trkpt lat="45.21427" lon="6.70885">
        <ele>1107</ele>
        <time>2016-07-23T11:57:36Z</time>
      </trkpt>
      <trkpt lat="45.21434" lon="6.70901">
        <ele>1108</ele>
        <time>2016-07-23T11:59:36Z</time>
      </trkpt>
      <trkpt lat="45.2144" lon="6.7092">
        <ele>1108</ele>
        <time>2016-07-23T12:01:36Z</time>
      </trkpt>
      <trkpt lat="45.21445" lon="6.70941">
        <ele>1110</ele>
        <time>2016-07-23T12:03:36Z</time>
      </trkpt>
      <trkpt lat="45.21447" lon="6.70958">
        <ele>1110</ele>
        <time>2016-07-23T12:05:36Z</time>
      </trkpt>
      <trkpt lat="45.21452" lon="6.71001">
        <ele>1110</ele>
        <time>2016-07-23T12:07:36Z</time>
      </trkpt>
      <trkpt lat="45.21457" lon="6.71043">
        <ele>1104</ele>
        <time>2016-07-23T12:09:36Z</time>
      </trkpt>
      <trkpt lat="45.21459" lon="6.71065">
        <ele>1101</ele>
        <time>2016-07-23T12:11:36Z</time>
      </trkpt>
      <trkpt lat="45.2146" lon="6.71072">
        <ele>1100</ele>
        <time>2016-07-23T12:13:36Z</time>
      </trkpt>
      <trkpt lat="45.21461" lon="6.71078">
        <ele>1099</ele>
        <time>2016-07-23T12:15:36Z</time>
      </trkpt>
      <trkpt lat="45.21466" lon="6.71089">
        <ele>1098</ele>
        <time>2016-07-23T12:17:36Z</time>
      </trkpt>
      <trkpt lat="45.21472" lon="6.71107">
        <ele>1097</ele>
        <time>2016-07-23T12:19:36Z</time>
      </trkpt>
      <trkpt lat="45.21475" lon="6.71116">
        <ele>1096</ele>
        <time>2016-07-23T12:21:36Z</time>
      </trkpt>
      <trkpt lat="45.21496" lon="6.71178">
        <ele>1094</ele>
        <time>2016-07-23T12:23:36Z</time>
      </trkpt>
      <trkpt lat="45.21499" lon="6.71188">
        <ele>1094</ele>
        <time>2016-07-23T12:25:36Z</time>
      </trkpt>
      <trkpt lat="45.21509" lon="6.71232">
        <ele>1095</ele>
        <time>2016-07-23T12:27:36Z</time>
      </trkpt>
      <trkpt lat="45.21511" lon="6.71238">
        <ele>1096</ele>
        <time>2016-07-23T12:29:36Z</time>
      </trkpt>
      <trkpt lat="45.21514" lon="6.71247">
        <ele>1096</ele>
        <time>2016-07-23T12:31:36Z</time>
      </trkpt>
      <trkpt lat="45.21518" lon="6.71258">
        <ele>1097</ele>
        <time>2016-07-23T12:33:36Z</time>
      </trkpt>
      <trkpt lat="45.21528" lon="6.71285">
        <ele>1097</ele>
        <time>2016-07-23T12:35:36Z</time>
      </trkpt>
      <trkpt lat="45.21529" lon="6.71288">
        <ele>1097</ele>
        <time>2016-07-23T12:37:36Z</time>
      </trkpt>
      <trkpt lat="45.2155" lon="6.71369">
        <ele>1093</ele>
        <time>2016-07-23T12:39:36Z</time>
      </trkpt>
      <trkpt lat="45.21555" lon="6.71386">
        <ele>1092</ele>
        <time>2016-07-23T12:41:36Z</time>
      </trkpt>
      <trkpt lat="45.21559" lon="6.71403">
        <ele>1091</ele>
        <time>2016-07-23T12:43:36Z</time>
      </trkpt>
      <trkpt lat="45.21568" lon="6.7144">
        <ele>1091</ele>
        <time>2016-07-23T12:45:36Z</time>
      </trkpt>
      <trkpt lat="45.21572" lon="6.71454">
        <ele>1091</ele>
        <time>2016-07-23T12:47:36Z</time>
      </trkpt>
      <trkpt lat="45.21578" lon="6.71496">
        <ele>1092</ele>
        <time>2016-07-23T12:49:36Z</time>
      </trkpt>
      <trkpt lat="45.21578" lon="6.71508">
        <ele>1092</ele>
        <time>2016-07-23T12:51:36Z</time>
      </trkpt>
      <trkpt lat="45.21578" lon="6.71523">
        <ele>1093</ele>
        <time>2016-07-23T12:53:36Z</time>
      </trkpt>
      <trkpt lat="45.21577" lon="6.71538">
        <ele>1094</ele>
        <time>2016-07-23T12:55:36Z</time>
      </trkpt>
      <trkpt lat="45.21575" lon="6.71551">
        <ele>1095</ele>
        <time>2016-07-23T12:57:36Z</time>
      </trkpt>
      <trkpt lat="45.21571" lon="6.71566">
        <ele>1095</ele>
        <time>2016-07-23T12:59:36Z</time>
      </trkpt>
      <trkpt lat="45.21565" lon="6.71585">
        <ele>1096</ele>
        <time>2016-07-23T13:01:36Z</time>
      </trkpt>
      <trkpt lat="45.21559" lon="6.71602">
        <ele>1095</ele>
        <time>2016-07-23T13:03:36Z</time>
      </trkpt>
      <trkpt lat="45.2154" lon="6.71643">
        <ele>1093</ele>
        <time>2016-07-23T13:05:36Z</time>
      </trkpt>
      <trkpt lat="45.2152" lon="6.71689">
        <ele>1093</ele>
        <time>2016-07-23T13:07:36Z</time>
      </trkpt>
      <trkpt lat="45.21512" lon="6.71708">
        <ele>1093</ele>
        <time>2016-07-23T13:09:36Z</time>
      </trkpt>
      <trkpt lat="45.21507" lon="6.71721">
        <ele>1094</ele>
        <time>2016-07-23T13:11:36Z</time>
      </trkpt>
      <trkpt lat="45.21481" lon="6.71766">
        <ele>1097</ele>
        <time>2016-07-23T13:13:36Z</time>
      </trkpt>
      <trkpt lat="45.21471" lon="6.71783">
        <ele>1098</ele>
        <time>2016-07-23T13:15:36Z</time>
      </trkpt>
      <trkpt lat="45.21461" lon="6.71796">
        <ele>1098</ele>
        <time>2016-07-23T13:17:36Z</time>
      </trkpt>
      <trkpt lat="45.21436" lon="6.71827">
        <ele>1100</ele>
        <time>2016-07-23T13:19:36Z</time>
      </trkpt>
      <trkpt lat="45.21415" lon="6.71856">
        <ele>1100</ele>
        <time>2016-07-23T13:21:36Z</time>
      </trkpt>
      <trkpt lat="45.214" lon="6.71881">
        <ele>1100</ele>
        <time>2016-07-23T13:23:36Z</time>
      </trkpt>
      <trkpt lat="45.21371" lon="6.71934">
        <ele>1102</ele>
        <time>2016-07-23T13:25:36Z</time>
      </trkpt>
      <trkpt lat="45.21365" lon="6.71949">
        <ele>1102</ele>
        <time>2016-07-23T13:27:36Z</time>
      </trkpt>
      <trkpt lat="45.2136" lon="6.71956">
        <ele>1103</ele>
        <time>2016-07-23T13:29:36Z</time>
      </trkpt>
      <trkpt lat="45.2136" lon="6.71958">
        <ele>1103</ele>
        <time>2016-07-23T13:31:36Z</time>
      </trkpt>
      <trkpt lat="45.21354" lon="6.71969">
        <ele>1103</ele>
        <time>2016-07-23T13:33:36Z</time>
      </trkpt>
      <trkpt lat="45.21333" lon="6.72025">
        <ele>1102</ele>
        <time>2016-07-23T13:35:36Z</time>
      </trkpt>
      <trkpt lat="45.2133" lon="6.72044">
        <ele>1102</ele>
        <time>2016-07-23T13:37:36Z</time>
      </trkpt>
      <trkpt lat="45.21329" lon="6.72052">
        <ele>1102</ele>
        <time>2016-07-23T13:39:36Z</time>
      </trkpt>
      <trkpt lat="45.21329" lon="6.72062">
        <ele>1101</ele>
        <time>2016-07-23T13:41:36Z</time>
      </trkpt>
      <trkpt lat="45.2133" lon="6.72083">
        <ele>1100</ele>
        <time>2016-07-23T13:43:36Z</time>
      </trkpt>
      <trkpt lat="45.21326" lon="6.72105">
        <ele>1101</ele>
        <time>2016-07-23T13:45:36Z</time>
      </trkpt>
      <trkpt lat="45.21322" lon="6.72115">
        <ele>1103</ele>
        <time>2016-07-23T13:47:36Z</time>
      </trkpt>
      <trkpt lat="45.21322" lon="6.72115">
        <ele>1103</ele>
        <time>2016-07-23T13:49:36Z</time>
      </trkpt>
      <trkpt lat="45.21308" lon="6.72143">
        <ele>1109</ele>
        <time>2016-07-23T13:51:36Z</time>
      </trkpt>
      <trkpt lat="45.21302" lon="6.72153">
        <ele>1111</ele>
        <time>2016-07-23T13:53:36Z</time>
      </trkpt>
      <trkpt lat="45.21297" lon="6.72165">
        <ele>1113</ele>
        <time>2016-07-23T13:55:36Z</time>
      </trkpt>
      <trkpt lat="45.2129" lon="6.72192">
        <ele>1116</ele>
        <time>2016-07-23T13:57:36Z</time>
      </trkpt>
      <trkpt lat="45.21283" lon="6.72205">
        <ele>1120</ele>
        <time>2016-07-23T13:59:36Z</time>
      </trkpt>
      <trkpt lat="45.21278" lon="6.7221">
        <ele>1122</ele>
        <time>2016-07-23T14:01:36Z</time>
      </trkpt>
      <trkpt lat="45.21278" lon="6.7221">
        <ele>1122</ele>
        <time>2016-07-23T14:03:36Z</time>
      </trkpt>
      <trkpt lat="45.21276" lon="6.72214">
        <ele>1123</ele>
        <time>2016-07-23T14:05:36Z</time>
      </trkpt>
      <trkpt lat="45.21274" lon="6.72226">
        <ele>1124</ele>
        <time>2016-07-23T14:07:36Z</time>
      </trkpt>
      <trkpt lat="45.21273" lon="6.72232">
        <ele>1124</ele>
        <time>2016-07-23T14:09:36Z</time>
      </trkpt>
      <trkpt lat="45.21261" lon="6.7227">
        <ele>1128</ele>
        <time>2016-07-23T14:11:36Z</time>
      </trkpt>
      <trkpt lat="45.21256" lon="6.7228">
        <ele>1129</ele>
        <time>2016-07-23T14:13:36Z</time>
      </trkpt>
      <trkpt lat="45.21251" lon="6.72292">
        <ele>1131</ele>
        <time>2016-07-23T14:15:36Z</time>
      </trkpt>
      <trkpt lat="45.21246" lon="6.7231">
        <ele>1132</ele>
        <time>2016-07-23T14:17:36Z</time>
      </trkpt>
      <trkpt lat="45.21244" lon="6.72322">
        <ele>1132</ele>
        <time>2016-07-23T14:19:36Z</time>
      </trkpt>
      <trkpt lat="45.21241" lon="6.72329">
        <ele>1133</ele>
        <time>2016-07-23T14:21:36Z</time>
      </trkpt>
      <trkpt lat="45.21239" lon="6.72341">
        <ele>1134</ele>
        <time>2016-07-23T14:23:36Z</time>
      </trkpt>
      <trkpt lat="45.21237" lon="6.72355">
        <ele>1136</ele>
        <time>2016-07-23T14:25:36Z</time>
      </trkpt>
      <trkpt lat="45.21233" lon="6.72369">
        <ele>1140</ele>
        <time>2016-07-23T14:27:36Z</time>
      </trkpt>
      <trkpt lat="45.21234" lon="6.72398">
        <ele>1141</ele>
        <time>2016-07-23T14:29:36Z</time>
      </trkpt>
      <trkpt lat="45.21232" lon="6.7241">
        <ele>1143</ele>
        <time>2016-07-23T14:31:36Z</time>
      </trkpt>
      <trkpt lat="45.21229" lon="6.7242">
        <ele>1145</ele>
        <time>2016-07-23T14:33:36Z</time>
      </trkpt>
      <trkpt lat="45.21225" lon="6.7243">
        <ele>1148</ele>
        <time>2016-07-23T14:35:36Z</time>
      </trkpt>
      <trkpt lat="45.21219" lon="6.7244">
        <ele>1152</ele>
        <time>2016-07-23T14:37:36Z</time>
      </trkpt>
      <trkpt lat="45.21213" lon="6.72449">
        <ele>1155</ele>
        <time>2016-07-23T14:39:36Z</time>
      </trkpt>
      <trkpt lat="45.21203" lon="6.72466">
        <ele>1161</ele>
        <time>2016-07-23T14:41:36Z</time>
      </trkpt>
      <trkpt lat="45.21196" lon="6.72475">
        <ele>1164</ele>
        <time>2016-07-23T14:43:36Z</time>
      </trkpt>
      <trkpt lat="45.21192" lon="6.72479">
        <ele>1166</ele>
        <time>2016-07-23T14:45:36Z</time>
      </trkpt>
      <trkpt lat="45.2118" lon="6.72488">
        <ele>1171</ele>
        <time>2016-07-23T14:47:36Z</time>
      </trkpt>
      <trkpt lat="45.21175" lon="6.72492">
        <ele>1173</ele>
        <time>2016-07-23T14:49:36Z</time>
      </trkpt>
      <trkpt lat="45.2117" lon="6.72494">
        <ele>1175</ele>
        <time>2016-07-23T14:51:36Z</time>
      </trkpt>
      <trkpt lat="45.21168" lon="6.72502">
        <ele>1176</ele>
        <time>2016-07-23T14:53:36Z</time>
      </trkpt>
      <trkpt lat="45.21169" lon="6.72527">
        <ele>1179</ele>
        <time>2016-07-23T14:55:36Z</time>
      </trkpt>
      <trkpt lat="45.21175" lon="6.72547">
        <ele>1180</ele>
        <time>2016-07-23T14:57:36Z</time>
      </trkpt>
      <trkpt lat="45.21209" lon="6.72656">
        <ele>1183</ele>
        <time>2016-07-23T14:59:36Z</time>
      </trkpt>
      <trkpt lat="45.21215" lon="6.7268">
        <ele>1183</ele>
        <time>2016-07-23T15:01:36Z</time>
      </trkpt>
      <trkpt lat="45.21221" lon="6.72708">
        <ele>1183</ele>
        <time>2016-07-23T15:03:36Z</time>
      </trkpt>
      <trkpt lat="45.21222" lon="6.72714">
        <ele>1183</ele>
        <time>2016-07-23T15:05:36Z</time>
      </trkpt>
      <trkpt lat="45.2122" lon="6.72718">
        <ele>1185</ele>
        <time>2016-07-23T15:07:36Z</time>
      </trkpt>
      <trkpt lat="45.21217" lon="6.7272">
        <ele>1186</ele>
        <time>2016-07-23T15:09:36Z</time>
      </trkpt>
      <trkpt lat="45.2121" lon="6.72719">
        <ele>1190</ele>
        <time>2016-07-23T15:11:36Z</time>
      </trkpt>
      <trkpt lat="45.21207" lon="6.72715">
        <ele>1191</ele>
        <time>2016-07-23T15:13:36Z</time>
      </trkpt>
      <trkpt lat="45.21198" lon="6.72673">
        <ele>1190</ele>
        <time>2016-07-23T15:15:36Z</time>
      </trkpt>
      <trkpt lat="45.21195" lon="6.72668">
        <ele>1191</ele>
        <time>2016-07-23T15:17:36Z</time>
      </trkpt>
      <trkpt lat="45.21191" lon="6.72665">
        <ele>1192</ele>
        <time>2016-07-23T15:19:36Z</time>
      </trkpt>
      <trkpt lat="45.2118" lon="6.72658">
        <ele>1196</ele>
        <time>2016-07-23T15:21:36Z</time>
      </trkpt>
      <trkpt lat="45.21173" lon="6.72654">
        <ele>1199</ele>
        <time>2016-07-23T15:23:36Z</time>
      </trkpt>
      <trkpt lat="45.21168" lon="6.72649">
        <ele>1200</ele>
        <time>2016-07-23T15:25:36Z</time>
      </trkpt>
      <trkpt lat="45.21164" lon="6.72645">
        <ele>1201</ele>
        <time>2016-07-23T15:27:36Z</time>
      </trkpt>
      <trkpt lat="45.2116" lon="6.72639">
        <ele>1201</ele>
        <time>2016-07-23T15:29:36Z</time>
      </trkpt>
      <trkpt lat="45.21157" lon="6.72632">
        <ele>1200</ele>
        <time>2016-07-23T15:31:36Z</time>
      </trkpt>
      <trkpt lat="45.2115" lon="6.72609">
        <ele>1198</ele>
        <time>2016-07-23T15:33:36Z</time>
      </trkpt>
      <trkpt lat="45.21147" lon="6.72602">
        <ele>1198</ele>
        <time>2016-07-23T15:35:36Z</time>
      </trkpt>
      <trkpt lat="45.21143" lon="6.72599">
        <ele>1199</ele>
        <time>2016-07-23T15:37:36Z</time>
      </trkpt>
      <trkpt lat="45.21137" lon="6.72596">
        <ele>1200</ele>
        <time>2016-07-23T15:39:36Z</time>
      </trkpt>
      <trkpt lat="45.21125" lon="6.72594">
        <ele>1203</ele>
        <time>2016-07-23T15:41:36Z</time>
      </trkpt>
      <trkpt lat="45.21121" lon="6.72592">
        <ele>1204</ele>
        <time>2016-07-23T15:43:36Z</time>
      </trkpt>
      <trkpt lat="45.21116" lon="6.72586">
        <ele>1205</ele>
        <time>2016-07-23T15:45:36Z</time>
      </trkpt>
      <trkpt lat="45.21112" lon="6.72579">
        <ele>1206</ele>
        <time>2016-07-23T15:47:36Z</time>
      </trkpt>
      <trkpt lat="45.21109" lon="6.72571">
        <ele>1207</ele>
        <time>2016-07-23T15:49:36Z</time>
      </trkpt>
      <trkpt lat="45.21106" lon="6.72563">
        <ele>1208</ele>
        <time>2016-07-23T15:51:36Z</time>
      </trkpt>
      <trkpt lat="45.21103" lon="6.72556">
        <ele>1209</ele>
        <time>2016-07-23T15:53:36Z</time>
      </trkpt>
      <trkpt lat="45.21098" lon="6.72554">
        <ele>1211</ele>
        <time>2016-07-23T15:55:36Z</time>
      </trkpt>
      <trkpt lat="45.21092" lon="6.72554">
        <ele>1213</ele>
        <time>2016-07-23T15:57:36Z</time>
      </trkpt>
      <trkpt lat="45.21086" lon="6.72556">
        <ele>1216</ele>
        <time>2016-07-23T15:59:36Z</time>
      </trkpt>
      <trkpt lat="45.2108" lon="6.7256">
        <ele>1217</ele>
        <time>2016-07-23T16:01:36Z</time>
      </trkpt>
      <trkpt lat="45.21076" lon="6.72567">
        <ele>1218</ele>
        <time>2016-07-23T16:03:36Z</time>
      </trkpt>
      <trkpt lat="45.21067" lon="6.72588">
        <ele>1220</ele>
        <time>2016-07-23T16:05:36Z</time>
      </trkpt>
      <trkpt lat="45.21042" lon="6.72653">
        <ele>1224</ele>
        <time>2016-07-23T16:07:36Z</time>
      </trkpt>
      <trkpt lat="45.21036" lon="6.72666">
        <ele>1224</ele>
        <time>2016-07-23T16:09:36Z</time>
      </trkpt>
      <trkpt lat="45.21035" lon="6.72668">
        <ele>1224</ele>
        <time>2016-07-23T16:11:36Z</time>
      </trkpt>
      <trkpt lat="45.21031" lon="6.72674">
        <ele>1225</ele>
        <time>2016-07-23T16:13:36Z</time>
      </trkpt>
      <trkpt lat="45.21028" lon="6.72678">
        <ele>1225</ele>
        <time>2016-07-23T16:15:36Z</time>
      </trkpt>
      <trkpt lat="45.21016" lon="6.72689">
        <ele>1225</ele>
        <time>2016-07-23T16:17:36Z</time>
      </trkpt>
      <trkpt lat="45.2098" lon="6.72726">
        <ele>1231</ele>
        <time>2016-07-23T16:19:36Z</time>
      </trkpt>
      <trkpt lat="45.20972" lon="6.72738">
        <ele>1233</ele>
        <time>2016-07-23T16:21:36Z</time>
      </trkpt>
      <trkpt lat="45.2097" lon="6.72743">
        <ele>1233</ele>
        <time>2016-07-23T16:23:36Z</time>
      </trkpt>
      <trkpt lat="45.20968" lon="6.72766">
        <ele>1234</ele>
        <time>2016-07-23T16:25:36Z</time>
      </trkpt>
      <trkpt lat="45.20966" lon="6.7277">
        <ele>1234</ele>
        <time>2016-07-23T16:27:36Z</time>
      </trkpt>
      <trkpt lat="45.20963" lon="6.72772">
        <ele>1235</ele>
        <time>2016-07-23T16:29:36Z</time>
      </trkpt>
      <trkpt lat="45.2096" lon="6.72771">
        <ele>1236</ele>
        <time>2016-07-23T16:31:36Z</time>
      </trkpt>
      <trkpt lat="45.20957" lon="6.72771">
        <ele>1237</ele>
        <time>2016-07-23T16:33:36Z</time>
      </trkpt>
      <trkpt lat="45.20956" lon="6.72769">
        <ele>1237</ele>
        <time>2016-07-23T16:35:36Z</time>
      </trkpt>
      <trkpt lat="45.20955" lon="6.72762">
        <ele>1238</ele>
        <time>2016-07-23T16:37:36Z</time>
      </trkpt>
      <trkpt lat="45.20956" lon="6.7274">
        <ele>1238</ele>
        <time>2016-07-23T16:39:36Z</time>
      </trkpt>
      <trkpt lat="45.2096" lon="6.72727">
        <ele>1237</ele>
        <time>2016-07-23T16:41:36Z</time>
      </trkpt>
      <trkpt lat="45.20962" lon="6.72717">
        <ele>1237</ele>
        <time>2016-07-23T16:43:36Z</time>
      </trkpt>
      <trkpt lat="45.20961" lon="6.72708">
        <ele>1238</ele>
        <time>2016-07-23T16:45:36Z</time>
      </trkpt>
      <trkpt lat="45.20959" lon="6.72701">
        <ele>1239</ele>
        <time>2016-07-23T16:47:36Z</time>
      </trkpt>
      <trkpt lat="45.20956" lon="6.72693">
        <ele>1240</ele>
        <time>2016-07-23T16:49:36Z</time>
      </trkpt>
      <trkpt lat="45.20948" lon="6.72677">
        <ele>1244</ele>
        <time>2016-07-23T16:51:36Z</time>
      </trkpt>
      <trkpt lat="45.20942" lon="6.72673">
        <ele>1246</ele>
        <time>2016-07-23T16:53:36Z</time>
      </trkpt>
      <trkpt lat="45.20938" lon="6.72673">
        <ele>1247</ele>
        <time>2016-07-23T16:55:36Z</time>
      </trkpt>
      <trkpt lat="45.20935" lon="6.72675">
        <ele>1248</ele>
        <time>2016-07-23T16:57:36Z</time>
      </trkpt>
      <trkpt lat="45.20933" lon="6.7268">
        <ele>1249</ele>
        <time>2016-07-23T16:59:36Z</time>
      </trkpt>
      <trkpt lat="45.20933" lon="6.72686">
        <ele>1248</ele>
        <time>2016-07-23T17:01:36Z</time>
      </trkpt>
      <trkpt lat="45.20936" lon="6.72706">
        <ele>1246</ele>
        <time>2016-07-23T17:03:36Z</time>
      </trkpt>
      <trkpt lat="45.20939" lon="6.72729">
        <ele>1244</ele>
        <time>2016-07-23T17:05:36Z</time>
      </trkpt>
      <trkpt lat="45.20936" lon="6.72753">
        <ele>1243</ele>
        <time>2016-07-23T17:07:36Z</time>
      </trkpt>
      <trkpt lat="45.20932" lon="6.72774">
        <ele>1245</ele>
        <time>2016-07-23T17:09:36Z</time>
      </trkpt>
      <trkpt lat="45.20926" lon="6.72791">
        <ele>1246</ele>
        <time>2016-07-23T17:11:36Z</time>
      </trkpt>
      <trkpt lat="45.20922" lon="6.72798">
        <ele>1247</ele>
        <time>2016-07-23T17:13:36Z</time>
      </trkpt>
      <trkpt lat="45.20912" lon="6.72808">
        <ele>1252</ele>
        <time>2016-07-23T17:15:36Z</time>
      </trkpt>
      <trkpt lat="45.20912" lon="6.72808">
        <ele>1252</ele>
        <time>2016-07-23T17:17:36Z</time>
      </trkpt>
      <trkpt lat="45.20909" lon="6.72822">
        <ele>1254</ele>
        <time>2016-07-23T17:19:36Z</time>
      </trkpt>
      <trkpt lat="45.20907" lon="6.72836">
        <ele>1255</ele>
        <time>2016-07-23T17:21:36Z</time>
      </trkpt>
      <trkpt lat="45.20904" lon="6.72851">
        <ele>1256</ele>
        <time>2016-07-23T17:23:36Z</time>
      </trkpt>
      <trkpt lat="45.20903" lon="6.72863">
        <ele>1256</ele>
        <time>2016-07-23T17:25:36Z</time>
      </trkpt>
      <trkpt lat="45.20901" lon="6.72879">
        <ele>1256</ele>
        <time>2016-07-23T17:27:36Z</time>
      </trkpt>
      <trkpt lat="45.209" lon="6.72894">
        <ele>1256</ele>
        <time>2016-07-23T17:29:36Z</time>
      </trkpt>
      <trkpt lat="45.20899" lon="6.7291">
        <ele>1256</ele>
        <time>2016-07-23T17:31:36Z</time>
      </trkpt>
      <trkpt lat="45.20894" lon="6.73116">
        <ele>1259</ele>
        <time>2016-07-23T17:33:36Z</time>
      </trkpt>
      <trkpt lat="45.20892" lon="6.73139">
        <ele>1258</ele>
        <time>2016-07-23T17:35:36Z</time>
      </trkpt>
      <trkpt lat="45.20889" lon="6.73155">
        <ele>1259</ele>
        <time>2016-07-23T17:37:36Z</time>
      </trkpt>
      <trkpt lat="45.20886" lon="6.73166">
        <ele>1259</ele>
        <time>2016-07-23T17:39:36Z</time>
      </trkpt>
      <trkpt lat="45.2088" lon="6.73185">
        <ele>1259</ele>
        <time>2016-07-23T17:41:36Z</time>
      </trkpt>
      <trkpt lat="45.20873" lon="6.73206">
        <ele>1259</ele>
        <time>2016-07-23T17:43:36Z</time>
      </trkpt>
      <trkpt lat="45.20867" lon="6.73224">
        <ele>1259</ele>
        <time>2016-07-23T17:45:36Z</time>
      </trkpt>
      <trkpt lat="45.20863" lon="6.73243">
        <ele>1257</ele>
        <time>2016-07-23T17:47:36Z</time>
      </trkpt>
      <trkpt lat="45.20857" lon="6.7326">
        <ele>1255</ele>
        <time>2016-07-23T17:49:36Z</time>
      </trkpt>
      <trkpt lat="45.20843" lon="6.7329">
        <ele>1252</ele>
        <time>2016-07-23T17:51:36Z</time>
      </trkpt>
      <trkpt lat="45.20837" lon="6.73301">
        <ele>1251</ele>
        <time>2016-07-23T17:53:36Z</time>
      </trkpt>
      <trkpt lat="45.20831" lon="6.7331">
        <ele>1252</ele>
        <time>2016-07-23T17:55:36Z</time>
      </trkpt>
      <trkpt lat="45.20823" lon="6.73319">
        <ele>1252</ele>
        <time>2016-07-23T17:57:36Z</time>
      </trkpt>
      <trkpt lat="45.20808" lon="6.7333">
        <ele>1255</ele>
        <time>2016-07-23T17:59:36Z</time>
      </trkpt>
      <trkpt lat="45.20795" lon="6.7334">
        <ele>1258</ele>
        <time>2016-07-23T18:01:36Z</time>
      </trkpt>
      <trkpt lat="45.2078" lon="6.73351">
        <ele>1260</ele>
        <time>2016-07-23T18:03:36Z</time>
      </trkpt>
      <trkpt lat="45.20762" lon="6.73364">
        <ele>1262</ele>
        <time>2016-07-23T18:05:36Z</time>
      </trkpt>
      <trkpt lat="45.20753" lon="6.73372">
        <ele>1263</ele>
        <time>2016-07-23T18:07:36Z</time>
      </trkpt>
      <trkpt lat="45.20748" lon="6.73378">
        <ele>1262</ele>
        <time>2016-07-23T18:09:36Z</time>
      </trkpt>
      <trkpt lat="45.20741" lon="6.7339">
        <ele>1260</ele>
        <time>2016-07-23T18:11:36Z</time>
      </trkpt>
      <trkpt lat="45.20736" lon="6.734">
        <ele>1257</ele>
        <time>2016-07-23T18:13:36Z</time>
      </trkpt>
      <trkpt lat="45.20729" lon="6.7341">
        <ele>1255</ele>
        <time>2016-07-23T18:15:36Z</time>
      </trkpt>
      <trkpt lat="45.20722" lon="6.73418">
        <ele>1255</ele>
        <time>2016-07-23T18:17:36Z</time>
      </trkpt>
      <trkpt lat="45.20716" lon="6.73422">
        <ele>1257</ele>
        <time>2016-07-23T18:19:36Z</time>
      </trkpt>
      <trkpt lat="45.20706" lon="6.73425">
        <ele>1260</ele>
        <time>2016-07-23T18:21:36Z</time>
      </trkpt>
      <trkpt lat="45.2069" lon="6.73429">
        <ele>1264</ele>
        <time>2016-07-23T18:23:36Z</time>
      </trkpt>
      <trkpt lat="45.2068" lon="6.73432">
        <ele>1267</ele>
        <time>2016-07-23T18:25:36Z</time>
      </trkpt>
      <trkpt lat="45.20671" lon="6.73436">
        <ele>1269</ele>
        <time>2016-07-23T18:27:36Z</time>
      </trkpt>
      <trkpt lat="45.20663" lon="6.73441">
        <ele>1270</ele>
        <time>2016-07-23T18:29:36Z</time>
      </trkpt>
      <trkpt lat="45.20658" lon="6.73446">
        <ele>1270</ele>
        <time>2016-07-23T18:31:36Z</time>
      </trkpt>
      <trkpt lat="45.20652" lon="6.73453">
        <ele>1270</ele>
        <time>2016-07-23T18:33:36Z</time>
      </trkpt>
      <trkpt lat="45.20648" lon="6.73458">
        <ele>1270</ele>
        <time>2016-07-23T18:35:36Z</time>
      </trkpt>
      <trkpt lat="45.20643" lon="6.73468">
        <ele>1269</ele>
        <time>2016-07-23T18:37:36Z</time>
      </trkpt>
      <trkpt lat="45.2064" lon="6.73481">
        <ele>1266</ele>
        <time>2016-07-23T18:39:36Z</time>
      </trkpt>
      <trkpt lat="45.20638" lon="6.73491">
        <ele>1263</ele>
        <time>2016-07-23T18:41:36Z</time>
      </trkpt>
      <trkpt lat="45.20638" lon="6.735">
        <ele>1261</ele>
        <time>2016-07-23T18:43:36Z</time>
      </trkpt>
      <trkpt lat="45.20638" lon="6.73511">
        <ele>1264</ele>
        <time>2016-07-23T18:45:36Z</time>
      </trkpt>
      <trkpt lat="45.2064" lon="6.7352">
        <ele>1265</ele>
        <time>2016-07-23T18:47:36Z</time>
      </trkpt>
      <trkpt lat="45.20642" lon="6.73529">
        <ele>1267</ele>
        <time>2016-07-23T18:49:36Z</time>
      </trkpt>
      <trkpt lat="45.20645" lon="6.73538">
        <ele>1269</ele>
        <time>2016-07-23T18:51:36Z</time>
      </trkpt>
      <trkpt lat="45.20648" lon="6.73546">
        <ele>1270</ele>
        <time>2016-07-23T18:53:36Z</time>
      </trkpt>
      <trkpt lat="45.20652" lon="6.73556">
        <ele>1272</ele>
        <time>2016-07-23T18:55:36Z</time>
      </trkpt>
      <trkpt lat="45.20661" lon="6.73563">
        <ele>1271</ele>
        <time>2016-07-23T18:57:36Z</time>
      </trkpt>
      <trkpt lat="45.20668" lon="6.73568">
        <ele>1270</ele>
        <time>2016-07-23T18:59:36Z</time>
      </trkpt>
      <trkpt lat="45.20675" lon="6.73572">
        <ele>1270</ele>
        <time>2016-07-23T19:01:36Z</time>
      </trkpt>
      <trkpt lat="45.20681" lon="6.73574">
        <ele>1269</ele>
        <time>2016-07-23T19:03:36Z</time>
      </trkpt>
      <trkpt lat="45.2069" lon="6.73578">
        <ele>1268</ele>
        <time>2016-07-23T19:05:36Z</time>
      </trkpt>
      <trkpt lat="45.20725" lon="6.73593">
        <ele>1264</ele>
        <time>2016-07-23T19:07:36Z</time>
      </trkpt>
      <trkpt lat="45.20734" lon="6.73601">
        <ele>1264</ele>
        <time>2016-07-23T19:09:36Z</time>
      </trkpt>
      <trkpt lat="45.20742" lon="6.73614">
        <ele>1264</ele>
        <time>2016-07-23T19:11:36Z</time>
      </trkpt>
      <trkpt lat="45.20774" lon="6.73685">
        <ele>1268</ele>
        <time>2016-07-23T19:13:36Z</time>
      </trkpt>
      <trkpt lat="45.20816" lon="6.73791">
        <ele>1269</ele>
        <time>2016-07-23T19:15:36Z</time>
      </trkpt>
      <trkpt lat="45.20825" lon="6.73814">
        <ele>1269</ele>
        <time>2016-07-23T19:17:36Z</time>
      </trkpt>
      <trkpt lat="45.20834" lon="6.7384">
        <ele>1269</ele>
        <time>2016-07-23T19:19:36Z</time>
      </trkpt>
      <trkpt lat="45.20843" lon="6.73868">
        <ele>1269</ele>
        <time>2016-07-23T19:21:36Z</time>
      </trkpt>
      <trkpt lat="45.20855" lon="6.73908">
        <ele>1269</ele>
        <time>2016-07-23T19:23:36Z</time>
      </trkpt>
      <trkpt lat="45.20867" lon="6.73952">
        <ele>1271</ele>
        <time>2016-07-23T19:25:36Z</time>
      </trkpt>
      <trkpt lat="45.20875" lon="6.73991">
        <ele>1272</ele>
        <time>2016-07-23T19:27:36Z</time>
      </trkpt>
      <trkpt lat="45.20882" lon="6.74025">
        <ele>1276</ele>
        <time>2016-07-23T19:29:36Z</time>
      </trkpt>
      <trkpt lat="45.20886" lon="6.74034">
        <ele>1276</ele>
        <time>2016-07-23T19:31:36Z</time>
      </trkpt>
      <trkpt lat="45.20889" lon="6.74039">
        <ele>1276</ele>
        <time>2016-07-23T19:33:36Z</time>
      </trkpt>
      <trkpt lat="45.20894" lon="6.74046">
        <ele>1276</ele>
        <time>2016-07-23T19:35:36Z</time>
      </trkpt>
      <trkpt lat="45.20901" lon="6.74054">
        <ele>1275</ele>
        <time>2016-07-23T19:37:36Z</time>
      </trkpt>
      <trkpt lat="45.20908" lon="6.74061">
        <ele>1275</ele>
        <time>2016-07-23T19:39:36Z</time>
      </trkpt>
      <trkpt lat="45.20917" lon="6.74067">
        <ele>1273</ele>
        <time>2016-07-23T19:41:36Z</time>
      </trkpt>
      <trkpt lat="45.20926" lon="6.7407">
        <ele>1270</ele>
        <time>2016-07-23T19:43:36Z</time>
      </trkpt>
      <trkpt lat="45.20938" lon="6.74074">
        <ele>1266</ele>
        <time>2016-07-23T19:45:36Z</time>
      </trkpt>
      <trkpt lat="45.20951" lon="6.74077">
        <ele>1262</ele>
        <time>2016-07-23T19:47:36Z</time>
      </trkpt>
      <trkpt lat="45.20963" lon="6.74082">
        <ele>1259</ele>
        <time>2016-07-23T19:49:36Z</time>
      </trkpt>
      <trkpt lat="45.20974" lon="6.7409">
        <ele>1257</ele>
        <time>2016-07-23T19:51:36Z</time>
      </trkpt>
      <trkpt lat="45.20984" lon="6.74104">
        <ele>1259</ele>
        <time>2016-07-23T19:53:36Z</time>
      </trkpt>
      <trkpt lat="45.20995" lon="6.74123">
        <ele>1263</ele>
        <time>2016-07-23T19:55:36Z</time>
      </trkpt>
      <trkpt lat="45.21006" lon="6.74143">
        <ele>1263</ele>
        <time>2016-07-23T19:57:36Z</time>
      </trkpt>
      <trkpt lat="45.21013" lon="6.74162">
        <ele>1265</ele>
        <time>2016-07-23T19:59:36Z</time>
      </trkpt>
      <trkpt lat="45.21017" lon="6.74178">
        <ele>1267</ele>
        <time>2016-07-23T20:01:36Z</time>
      </trkpt>
      <trkpt lat="45.21023" lon="6.74194">
        <ele>1265</ele>
        <time>2016-07-23T20:03:36Z</time>
      </trkpt>
      <trkpt lat="45.21027" lon="6.74206">
        <ele>1264</ele>
        <time>2016-07-23T20:05:36Z</time>
      </trkpt>
      <trkpt lat="45.21033" lon="6.74217">
        <ele>1260</ele>
        <time>2016-07-23T20:07:36Z</time>
      </trkpt>
      <trkpt lat="45.21043" lon="6.74229">
        <ele>1251</ele>
        <time>2016-07-23T20:09:36Z</time>
      </trkpt>
      <trkpt lat="45.21049" lon="6.74237">
        <ele>1246</ele>
        <time>2016-07-23T20:11:36Z</time>
      </trkpt>
      <trkpt lat="45.21053" lon="6.74244">
        <ele>1242</ele>
        <time>2016-07-23T20:13:36Z</time>
      </trkpt>
      <trkpt lat="45.21058" lon="6.74255">
        <ele>1239</ele>
        <time>2016-07-23T20:15:36Z</time>
      </trkpt>
      <trkpt lat="45.21064" lon="6.74283">
        <ele>1244</ele>
        <time>2016-07-23T20:17:36Z</time>
      </trkpt>
      <trkpt lat="45.2108" lon="6.74343">
        <ele>1249</ele>
        <time>2016-07-23T20:19:36Z</time>
      </trkpt>
      <trkpt lat="45.21083" lon="6.74361">
        <ele>1246</ele>
        <time>2016-07-23T20:21:36Z</time>
      </trkpt>
      <trkpt lat="45.21087" lon="6.74385">
        <ele>1242</ele>
        <time>2016-07-23T20:23:36Z</time>
      </trkpt>
      <trkpt lat="45.21088" lon="6.74405">
        <ele>1241</ele>
        <time>2016-07-23T20:25:36Z</time>
      </trkpt>
      <trkpt lat="45.21089" lon="6.74422">
        <ele>1243</ele>
        <time>2016-07-23T20:27:36Z</time>
      </trkpt>
      <trkpt lat="45.21091" lon="6.74439">
        <ele>1250</ele>
        <time>2016-07-23T20:29:36Z</time>
      </trkpt>
      <trkpt lat="45.21094" lon="6.74456">
        <ele>1256</ele>
        <time>2016-07-23T20:31:36Z</time>
      </trkpt>
      <trkpt lat="45.21099" lon="6.74467">
        <ele>1258</ele>
        <time>2016-07-23T20:33:36Z</time>
      </trkpt>
      <trkpt lat="45.21103" lon="6.74476">
        <ele>1259</ele>
        <time>2016-07-23T20:35:36Z</time>
      </trkpt>
      <trkpt lat="45.2111" lon="6.74484">
        <ele>1257</ele>
        <time>2016-07-23T20:37:36Z</time>
      </trkpt>
      <trkpt lat="45.21117" lon="6.74493">
        <ele>1255</ele>
        <time>2016-07-23T20:39:36Z</time>
      </trkpt>
      <trkpt lat="45.21122" lon="6.74504">
        <ele>1254</ele>
        <time>2016-07-23T20:41:36Z</time>
      </trkpt>
      <trkpt lat="45.21125" lon="6.74516">
        <ele>1254</ele>
        <time>2016-07-23T20:43:36Z</time>
      </trkpt>
      <trkpt lat="45.21128" lon="6.7453">
        <ele>1255</ele>
        <time>2016-07-23T20:45:36Z</time>
      </trkpt>
      <trkpt lat="45.21133" lon="6.74548">
        <ele>1255</ele>
        <time>2016-07-23T20:47:36Z</time>
      </trkpt>
      <trkpt lat="45.2114" lon="6.74569">
        <ele>1254</ele>
        <time>2016-07-23T20:49:36Z</time>
      </trkpt>
      <trkpt lat="45.21147" lon="6.74584">
        <ele>1252</ele>
        <time>2016-07-23T20:51:36Z</time>
      </trkpt>
      <trkpt lat="45.21154" lon="6.74596">
        <ele>1251</ele>
        <time>2016-07-23T20:53:36Z</time>
      </trkpt>
      <trkpt lat="45.21163" lon="6.74609">
        <ele>1250</ele>
        <time>2016-07-23T20:55:36Z</time>
      </trkpt>
      <trkpt lat="45.21178" lon="6.74626">
        <ele>1253</ele>
        <time>2016-07-23T20:57:36Z</time>
      </trkpt>
      <trkpt lat="45.21184" lon="6.74629">
        <ele>1253</ele>
        <time>2016-07-23T20:59:36Z</time>
      </trkpt>
      <trkpt lat="45.21191" lon="6.7463">
        <ele>1252</ele>
        <time>2016-07-23T21:01:36Z</time>
      </trkpt>
      <trkpt lat="45.21199" lon="6.74631">
        <ele>1250</ele>
        <time>2016-07-23T21:03:36Z</time>
      </trkpt>
      <trkpt lat="45.21211" lon="6.7463">
        <ele>1246</ele>
        <time>2016-07-23T21:05:36Z</time>
      </trkpt>
      <trkpt lat="45.2122" lon="6.74631">
        <ele>1244</ele>
        <time>2016-07-23T21:07:36Z</time>
      </trkpt>
      <trkpt lat="45.21229" lon="6.74632">
        <ele>1242</ele>
        <time>2016-07-23T21:09:36Z</time>
      </trkpt>
      <trkpt lat="45.21239" lon="6.74635">
        <ele>1240</ele>
        <time>2016-07-23T21:11:36Z</time>
      </trkpt>
      <trkpt lat="45.21249" lon="6.74643">
        <ele>1241</ele>
        <time>2016-07-23T21:13:36Z</time>
      </trkpt>
      <trkpt lat="45.21265" lon="6.74659">
        <ele>1240</ele>
        <time>2016-07-23T21:15:36Z</time>
      </trkpt>
      <trkpt lat="45.21277" lon="6.74672">
        <ele>1239</ele>
        <time>2016-07-23T21:17:36Z</time>
      </trkpt>
      <trkpt lat="45.2129" lon="6.74687">
        <ele>1237</ele>
        <time>2016-07-23T21:19:36Z</time>
      </trkpt>
      <trkpt lat="45.21302" lon="6.74703">
        <ele>1235</ele>
        <time>2016-07-23T21:21:36Z</time>
      </trkpt>
      <trkpt lat="45.21312" lon="6.74719">
        <ele>1234</ele>
        <time>2016-07-23T21:23:36Z</time>
      </trkpt>
      <trkpt lat="45.21321" lon="6.7474">
        <ele>1235</ele>
        <time>2016-07-23T21:25:36Z</time>
      </trkpt>
      <trkpt lat="45.21328" lon="6.74756">
        <ele>1235</ele>
        <time>2016-07-23T21:27:36Z</time>
      </trkpt>
      <trkpt lat="45.21335" lon="6.74778">
        <ele>1235</ele>
        <time>2016-07-23T21:29:36Z</time>
      </trkpt>
      <trkpt lat="45.21341" lon="6.74799">
        <ele>1237</ele>
        <time>2016-07-23T21:31:36Z</time>
      </trkpt>
      <trkpt lat="45.21346" lon="6.74814">
        <ele>1238</ele>
        <time>2016-07-23T21:33:36Z</time>
      </trkpt>
      <trkpt lat="45.21353" lon="6.74834">
        <ele>1239</ele>
        <time>2016-07-23T21:35:36Z</time>
      </trkpt>
      <trkpt lat="45.21364" lon="6.74851">
        <ele>1240</ele>
        <time>2016-07-23T21:37:36Z</time>
      </trkpt>
      <trkpt lat="45.21376" lon="6.74864">
        <ele>1240</ele>
        <time>2016-07-23T21:39:36Z</time>
      </trkpt>
      <trkpt lat="45.21387" lon="6.74873">
        <ele>1238</ele>
        <time>2016-07-23T21:41:36Z</time>
      </trkpt>
      <trkpt lat="45.21399" lon="6.74881">
        <ele>1237</ele>
        <time>2016-07-23T21:43:36Z</time>
      </trkpt>
      <trkpt lat="45.2141" lon="6.74888">
        <ele>1235</ele>
        <time>2016-07-23T21:45:36Z</time>
      </trkpt>
      <trkpt lat="45.21423" lon="6.74894">
        <ele>1233</ele>
        <time>2016-07-23T21:47:36Z</time>
      </trkpt>
      <trkpt lat="45.21431" lon="6.74899">
        <ele>1232</ele>
        <time>2016-07-23T21:49:36Z</time>
      </trkpt>
      <trkpt lat="45.21438" lon="6.74905">
        <ele>1232</ele>
        <time>2016-07-23T21:51:36Z</time>
      </trkpt>
      <trkpt lat="45.21441" lon="6.7491">
        <ele>1234</ele>
        <time>2016-07-23T21:53:36Z</time>
      </trkpt>
      <trkpt lat="45.21444" lon="6.74916">
        <ele>1236</ele>
        <time>2016-07-23T21:55:36Z</time>
      </trkpt>
      <trkpt lat="45.21452" lon="6.74934">
        <ele>1236</ele>
        <time>2016-07-23T21:57:36Z</time>
      </trkpt>
      <trkpt lat="45.21461" lon="6.74959">
        <ele>1237</ele>
        <time>2016-07-23T21:59:36Z</time>
      </trkpt>
      <trkpt lat="45.21469" lon="6.74982">
        <ele>1237</ele>
        <time>2016-07-23T22:01:36Z</time>
      </trkpt>
      <trkpt lat="45.21478" lon="6.75015">
        <ele>1236</ele>
        <time>2016-07-23T22:03:36Z</time>
      </trkpt>
      <trkpt lat="45.21482" lon="6.75039">
        <ele>1235</ele>
        <time>2016-07-23T22:05:36Z</time>
      </trkpt>
      <trkpt lat="45.21483" lon="6.75068">
        <ele>1235</ele>
        <time>2016-07-23T22:07:36Z</time>
      </trkpt>
      <trkpt lat="45.21481" lon="6.75102">
        <ele>1238</ele>
        <time>2016-07-23T22:09:36Z</time>
      </trkpt>
      <trkpt lat="45.21479" lon="6.75125">
        <ele>1240</ele>
        <time>2016-07-23T22:11:36Z</time>
      </trkpt>
      <trkpt lat="45.21479" lon="6.75142">
        <ele>1240</ele>
        <time>2016-07-23T22:13:36Z</time>
      </trkpt>
      <trkpt lat="45.21479" lon="6.75156">
        <ele>1241</ele>
        <time>2016-07-23T22:15:36Z</time>
      </trkpt>
      <trkpt lat="45.2148" lon="6.75167">
        <ele>1240</ele>
        <time>2016-07-23T22:17:36Z</time>
      </trkpt>
      <trkpt lat="45.21482" lon="6.75175">
        <ele>1241</ele>
        <time>2016-07-23T22:19:36Z</time>
      </trkpt>
      <trkpt lat="45.21488" lon="6.75196">
        <ele>1241</ele>
        <time>2016-07-23T22:21:36Z</time>
      </trkpt>
      <trkpt lat="45.21495" lon="6.75219">
        <ele>1242</ele>
        <time>2016-07-23T22:23:36Z</time>
      </trkpt>
      <trkpt lat="45.21502" lon="6.75234">
        <ele>1242</ele>
        <time>2016-07-23T22:25:36Z</time>
      </trkpt>
      <trkpt lat="45.21509" lon="6.75249">
        <ele>1241</ele>
        <time>2016-07-23T22:27:36Z</time>
      </trkpt>
      <trkpt lat="45.21518" lon="6.75263">
        <ele>1239</ele>
        <time>2016-07-23T22:29:36Z</time>
      </trkpt>
      <trkpt lat="45.21536" lon="6.75282">
        <ele>1235</ele>
        <time>2016-07-23T22:31:36Z</time>
      </trkpt>
      <trkpt lat="45.21556" lon="6.753">
        <ele>1232</ele>
        <time>2016-07-23T22:33:36Z</time>
      </trkpt>
      <trkpt lat="45.21568" lon="6.7531">
        <ele>1231</ele>
        <time>2016-07-23T22:35:36Z</time>
      </trkpt>
      <trkpt lat="45.21588" lon="6.75325">
        <ele>1230</ele>
        <time>2016-07-23T22:37:36Z</time>
      </trkpt>
      <trkpt lat="45.21593" lon="6.75327">
        <ele>1230</ele>
        <time>2016-07-23T22:39:36Z</time>
      </trkpt>
      <trkpt lat="45.21598" lon="6.75328">
        <ele>1229</ele>
        <time>2016-07-23T22:41:36Z</time>
      </trkpt>
      <trkpt lat="45.21621" lon="6.75332">
        <ele>1225</ele>
        <time>2016-07-23T22:43:36Z</time>
      </trkpt>
      <trkpt lat="45.21643" lon="6.75343">
        <ele>1222</ele>
        <time>2016-07-23T22:45:36Z</time>
      </trkpt>
      <trkpt lat="45.21657" lon="6.75359">
        <ele>1224</ele>
        <time>2016-07-23T22:47:36Z</time>
      </trkpt>
      <trkpt lat="45.21667" lon="6.75373">
        <ele>1225</ele>
        <time>2016-07-23T22:49:36Z</time>
      </trkpt>
      <trkpt lat="45.21672" lon="6.75384">
        <ele>1228</ele>
        <time>2016-07-23T22:51:36Z</time>
      </trkpt>
      <trkpt lat="45.21678" lon="6.75401">
        <ele>1231</ele>
        <time>2016-07-23T22:53:36Z</time>
      </trkpt>
      <trkpt lat="45.21685" lon="6.75422">
        <ele>1234</ele>
        <time>2016-07-23T22:55:36Z</time>
      </trkpt>
      <trkpt lat="45.21693" lon="6.75447">
        <ele>1234</ele>
        <time>2016-07-23T22:57:36Z</time>
      </trkpt>
      <trkpt lat="45.21704" lon="6.75468">
        <ele>1233</ele>
        <time>2016-07-23T22:59:36Z</time>
      </trkpt>
      <trkpt lat="45.21719" lon="6.75492">
        <ele>1231</ele>
        <time>2016-07-23T23:01:36Z</time>
      </trkpt>
      <trkpt lat="45.21746" lon="6.75517">
        <ele>1225</ele>
        <time>2016-07-23T23:03:36Z</time>
      </trkpt>
      <trkpt lat="45.21768" lon="6.75538">
        <ele>1225</ele>
        <time>2016-07-23T23:05:36Z</time>
      </trkpt>
      <trkpt lat="45.21787" lon="6.75557">
        <ele>1223</ele>
        <time>2016-07-23T23:07:36Z</time>
      </trkpt>
      <trkpt lat="45.21797" lon="6.75572">
        <ele>1222</ele>
        <time>2016-07-23T23:09:36Z</time>
      </trkpt>
      <trkpt lat="45.21807" lon="6.75586">
        <ele>1220</ele>
        <time>2016-07-23T23:11:36Z</time>
      </trkpt>
      <trkpt lat="45.21833" lon="6.75629">
        <ele>1218</ele>
        <time>2016-07-23T23:13:36Z</time>
      </trkpt>
      <trkpt lat="45.21848" lon="6.75656">
        <ele>1218</ele>
        <time>2016-07-23T23:15:36Z</time>
      </trkpt>
      <trkpt lat="45.21862" lon="6.75685">
        <ele>1218</ele>
        <time>2016-07-23T23:17:36Z</time>
      </trkpt>
      <trkpt lat="45.21873" lon="6.75708">
        <ele>1218</ele>
        <time>2016-07-23T23:19:36Z</time>
      </trkpt>
      <trkpt lat="45.21884" lon="6.75735">
        <ele>1219</ele>
        <time>2016-07-23T23:21:36Z</time>
      </trkpt>
      <trkpt lat="45.21894" lon="6.75771">
        <ele>1220</ele>
        <time>2016-07-23T23:23:36Z</time>
      </trkpt>
      <trkpt lat="45.219" lon="6.75801">
        <ele>1220</ele>
        <time>2016-07-23T23:25:36Z</time>
      </trkpt>
      <trkpt lat="45.21906" lon="6.75844">
        <ele>1221</ele>
        <time>2016-07-23T23:27:36Z</time>
      </trkpt>
      <trkpt lat="45.2191" lon="6.75897">
        <ele>1221</ele>
        <time>2016-07-23T23:29:36Z</time>
      </trkpt>
      <trkpt lat="45.21912" lon="6.75943">
        <ele>1222</ele>
        <time>2016-07-23T23:31:36Z</time>
      </trkpt>
      <trkpt lat="45.21915" lon="6.75987">
        <ele>1221</ele>
        <time>2016-07-23T23:33:36Z</time>
      </trkpt>
      <trkpt lat="45.21918" lon="6.76018">
        <ele>1224</ele>
        <time>2016-07-23T23:35:36Z</time>
      </trkpt>
      <trkpt lat="45.21924" lon="6.76049">
        <ele>1229</ele>
        <time>2016-07-23T23:37:36Z</time>
      </trkpt>
      <trkpt lat="45.21932" lon="6.76069">
        <ele>1229</ele>
        <time>2016-07-23T23:39:36Z</time>
      </trkpt>
      <trkpt lat="45.21948" lon="6.76099">
        <ele>1226</ele>
        <time>2016-07-23T23:41:36Z</time>
      </trkpt>
      <trkpt lat="45.21964" lon="6.76122">
        <ele>1221</ele>
        <time>2016-07-23T23:43:36Z</time>
      </trkpt>
      <trkpt lat="45.21973" lon="6.76131">
        <ele>1217</ele>
        <time>2016-07-23T23:45:36Z</time>
      </trkpt>
      <trkpt lat="45.21982" lon="6.76138">
        <ele>1212</ele>
        <time>2016-07-23T23:47:36Z</time>
      </trkpt>
      <trkpt lat="45.21991" lon="6.76144">
        <ele>1208</ele>
        <time>2016-07-23T23:49:36Z</time>
      </trkpt>
      <trkpt lat="45.22009" lon="6.76152">
        <ele>1202</ele>
        <time>2016-07-23T23:51:36Z</time>
      </trkpt>
      <trkpt lat="45.22037" lon="6.76164">
        <ele>1201</ele>
        <time>2016-07-23T23:53:36Z</time>
      </trkpt>
      <trkpt lat="45.22074" lon="6.76179">
        <ele>1204</ele>
        <time>2016-07-23T23:55:36Z</time>
      </trkpt>
      <trkpt lat="45.22106" lon="6.7619">
        <ele>1210</ele>
        <time>2016-07-23T23:57:36Z</time>
      </trkpt>
      <trkpt lat="45.22144" lon="6.76201">
        <ele>1216</ele>
        <time>2016-07-23T23:59:36Z</time>
      </trkpt>
      <trkpt lat="45.22186" lon="6.76211">
        <ele>1219</ele>
        <time>2016-07-24T00:01:36Z</time>
      </trkpt>
      <trkpt lat="45.2225" lon="6.76225">
        <ele>1219</ele>
        <time>2016-07-24T00:03:36Z</time>
      </trkpt>
      <trkpt lat="45.22288" lon="6.76234">
        <ele>1215</ele>
        <time>2016-07-24T00:05:36Z</time>
      </trkpt>
      <trkpt lat="45.22303" lon="6.76238">
        <ele>1213</ele>
        <time>2016-07-24T00:07:36Z</time>
      </trkpt>
      <trkpt lat="45.22315" lon="6.76242">
        <ele>1211</ele>
        <time>2016-07-24T00:09:36Z</time>
      </trkpt>
      <trkpt lat="45.22324" lon="6.76247">
        <ele>1209</ele>
        <time>2016-07-24T00:11:36Z</time>
      </trkpt>
      <trkpt lat="45.22332" lon="6.76253">
        <ele>1208</ele>
        <time>2016-07-24T00:13:36Z</time>
      </trkpt>
      <trkpt lat="45.2234" lon="6.76261">
        <ele>1209</ele>
        <time>2016-07-24T00:15:36Z</time>
      </trkpt>
      <trkpt lat="45.22346" lon="6.76271">
        <ele>1211</ele>
        <time>2016-07-24T00:17:36Z</time>
      </trkpt>
      <trkpt lat="45.22353" lon="6.76282">
        <ele>1213</ele>
        <time>2016-07-24T00:19:36Z</time>
      </trkpt>
      <trkpt lat="45.22359" lon="6.76296">
        <ele>1215</ele>
        <time>2016-07-24T00:21:36Z</time>
      </trkpt>
      <trkpt lat="45.22367" lon="6.76321">
        <ele>1217</ele>
        <time>2016-07-24T00:23:36Z</time>
      </trkpt>
      <trkpt lat="45.22372" lon="6.76345">
        <ele>1221</ele>
        <time>2016-07-24T00:25:36Z</time>
      </trkpt>
      <trkpt lat="45.22375" lon="6.76358">
        <ele>1224</ele>
        <time>2016-07-24T00:27:36Z</time>
      </trkpt>
      <trkpt lat="45.22376" lon="6.76371">
        <ele>1227</ele>
        <time>2016-07-24T00:29:36Z</time>
      </trkpt>
      <trkpt lat="45.22379" lon="6.76392">
        <ele>1230</ele>
        <time>2016-07-24T00:31:36Z</time>
      </trkpt>
      <trkpt lat="45.22383" lon="6.7642">
        <ele>1233</ele>
        <time>2016-07-24T00:33:36Z</time>
      </trkpt>
      <trkpt lat="45.22387" lon="6.76439">
        <ele>1232</ele>
        <time>2016-07-24T00:35:36Z</time>
      </trkpt>
      <trkpt lat="45.22393" lon="6.76462">
        <ele>1229</ele>
        <time>2016-07-24T00:37:36Z</time>
      </trkpt>
      <trkpt lat="45.22399" lon="6.76485">
        <ele>1225</ele>
        <time>2016-07-24T00:39:36Z</time>
      </trkpt>
      <trkpt lat="45.22408" lon="6.76509">
        <ele>1219</ele>
        <time>2016-07-24T00:41:36Z</time>
      </trkpt>
      <trkpt lat="45.22417" lon="6.76527">
        <ele>1213</ele>
        <time>2016-07-24T00:43:36Z</time>
      </trkpt>
      <trkpt lat="45.22429" lon="6.76551">
        <ele>1216</ele>
        <time>2016-07-24T00:45:36Z</time>
      </trkpt>
      <trkpt lat="45.22477" lon="6.76647">
        <ele>1219</ele>
        <time>2016-07-24T00:47:36Z</time>
      </trkpt>
      <trkpt lat="45.22484" lon="6.76662">
        <ele>1217</ele>
        <time>2016-07-24T00:49:36Z</time>
      </trkpt>
      <trkpt lat="45.22491" lon="6.76677">
        <ele>1215</ele>
        <time>2016-07-24T00:51:36Z</time>
      </trkpt>
      <trkpt lat="45.22498" lon="6.76697">
        <ele>1212</ele>
        <time>2016-07-24T00:53:36Z</time>
      </trkpt>
      <trkpt lat="45.22511" lon="6.76737">
        <ele>1210</ele>
        <time>2016-07-24T00:55:36Z</time>
      </trkpt>
      <trkpt lat="45.22633" lon="6.77282">
        <ele>1224</ele>
        <time>2016-07-24T00:57:36Z</time>
      </trkpt>
      <trkpt lat="45.22643" lon="6.77314">
        <ele>1224</ele>
        <time>2016-07-24T00:59:36Z</time>
      </trkpt>
      <trkpt lat="45.22645" lon="6.77321">
        <ele>1224</ele>
        <time>2016-07-24T01:01:36Z</time>
      </trkpt>
      <trkpt lat="45.22647" lon="6.77327">
        <ele>1224</ele>
        <time>2016-07-24T01:03:36Z</time>
      </trkpt>
      <trkpt lat="45.22651" lon="6.77336">
        <ele>1224</ele>
        <time>2016-07-24T01:05:36Z</time>
      </trkpt>
      <trkpt lat="45.22661" lon="6.77357">
        <ele>1224</ele>
        <time>2016-07-24T01:07:36Z</time>
      </trkpt>
      <trkpt lat="45.22671" lon="6.77377">
        <ele>1223</ele>
        <time>2016-07-24T01:09:36Z</time>
      </trkpt>
      <trkpt lat="45.22698" lon="6.77432">
        <ele>1223</ele>
        <time>2016-07-24T01:11:36Z</time>
      </trkpt>
      <trkpt lat="45.22708" lon="6.77451">
        <ele>1223</ele>
        <time>2016-07-24T01:13:36Z</time>
      </trkpt>
      <trkpt lat="45.22745" lon="6.77525">
        <ele>1222</ele>
        <time>2016-07-24T01:15:36Z</time>
      </trkpt>
      <trkpt lat="45.22753" lon="6.77543">
        <ele>1223</ele>
        <time>2016-07-24T01:17:36Z</time>
      </trkpt>
      <trkpt lat="45.2276" lon="6.77555">
        <ele>1224</ele>
        <time>2016-07-24T01:19:36Z</time>
      </trkpt>
      <trkpt lat="45.22855" lon="6.77747">
        <ele>1225</ele>
        <time>2016-07-24T01:21:36Z</time>
      </trkpt>
      <trkpt lat="45.229" lon="6.77835">
        <ele>1224</ele>
        <time>2016-07-24T01:23:36Z</time>
      </trkpt>
      <trkpt lat="45.23034" lon="6.78105">
        <ele>1219</ele>
        <time>2016-07-24T01:25:36Z</time>
      </trkpt>
      <trkpt lat="45.23042" lon="6.78119">
        <ele>1220</ele>
        <time>2016-07-24T01:27:36Z</time>
      </trkpt>
      <trkpt lat="45.23049" lon="6.78129">
        <ele>1220</ele>
        <time>2016-07-24T01:29:36Z</time>
      </trkpt>
      <trkpt lat="45.23055" lon="6.78136">
        <ele>1220</ele>
        <time>2016-07-24T01:31:36Z</time>
      </trkpt>
      <trkpt lat="45.2306" lon="6.78143">
        <ele>1220</ele>
        <time>2016-07-24T01:33:36Z</time>
      </trkpt>
      <trkpt lat="45.23064" lon="6.7815">
        <ele>1220</ele>
        <time>2016-07-24T01:35:36Z</time>
      </trkpt>
      <trkpt lat="45.2307" lon="6.7816">
        <ele>1219</ele>
        <time>2016-07-24T01:37:36Z</time>
      </trkpt>
      <trkpt lat="45.23073" lon="6.78168">
        <ele>1219</ele>
        <time>2016-07-24T01:39:36Z</time>
      </trkpt>
      <trkpt lat="45.23076" lon="6.78176">
        <ele>1219</ele>
        <time>2016-07-24T01:41:36Z</time>
      </trkpt>
      <trkpt lat="45.23079" lon="6.78186">
        <ele>1220</ele>
        <time>2016-07-24T01:43:36Z</time>
      </trkpt>
      <trkpt lat="45.23081" lon="6.78195">
        <ele>1220</ele>
        <time>2016-07-24T01:45:36Z</time>
      </trkpt>
      <trkpt lat="45.23084" lon="6.78203">
        <ele>1220</ele>
        <time>2016-07-24T01:47:36Z</time>
      </trkpt>
      <trkpt lat="45.2309" lon="6.78217">
        <ele>1220</ele>
        <time>2016-07-24T01:49:36Z</time>
      </trkpt>
      <trkpt lat="45.2311" lon="6.78258">
        <ele>1221</ele>
        <time>2016-07-24T01:51:36Z</time>
      </trkpt>
      <trkpt lat="45.23156" lon="6.78352">
        <ele>1222</ele>
        <time>2016-07-24T01:53:36Z</time>
      </trkpt>
      <trkpt lat="45.23213" lon="6.78468">
        <ele>1224</ele>
        <time>2016-07-24T01:55:36Z</time>
      </trkpt>
      <trkpt lat="45.23246" lon="6.78535">
        <ele>1225</ele>
        <time>2016-07-24T01:57:36Z</time>
      </trkpt>
      <trkpt lat="45.23269" lon="6.78579">
        <ele>1224</ele>
        <time>2016-07-24T01:59:36Z</time>
      </trkpt>
      <trkpt lat="45.23289" lon="6.78608">
        <ele>1224</ele>
        <time>2016-07-24T02:01:36Z</time>
      </trkpt>
      <trkpt lat="45.23307" lon="6.7863">
        <ele>1224</ele>
        <time>2016-07-24T02:03:36Z</time>
      </trkpt>
      <trkpt lat="45.23323" lon="6.78648">
        <ele>1224</ele>
        <time>2016-07-24T02:05:36Z</time>
      </trkpt>
      <trkpt lat="45.23338" lon="6.78664">
        <ele>1224</ele>
        <time>2016-07-24T02:07:36Z</time>
      </trkpt>
      <trkpt lat="45.23354" lon="6.78679">
        <ele>1224</ele>
        <time>2016-07-24T02:09:36Z</time>
      </trkpt>
      <trkpt lat="45.23369" lon="6.78692">
        <ele>1224</ele>
        <time>2016-07-24T02:11:36Z</time>
      </trkpt>
      <trkpt lat="45.23386" lon="6.78706">
        <ele>1224</ele>
        <time>2016-07-24T02:13:36Z</time>
      </trkpt>
      <trkpt lat="45.23401" lon="6.78717">
        <ele>1225</ele>
        <time>2016-07-24T02:15:36Z</time>
      </trkpt>
      <trkpt lat="45.23416" lon="6.78728">
        <ele>1225</ele>
        <time>2016-07-24T02:17:36Z</time>
      </trkpt>
      <trkpt lat="45.23468" lon="6.78764">
        <ele>1227</ele>
        <time>2016-07-24T02:19:36Z</time>
      </trkpt>
      <trkpt lat="45.23545" lon="6.78817">
        <ele>1227</ele>
        <time>2016-07-24T02:21:36Z</time>
      </trkpt>
      <trkpt lat="45.23555" lon="6.78824">
        <ele>1226</ele>
        <time>2016-07-24T02:23:36Z</time>
      </trkpt>
      <trkpt lat="45.236" lon="6.78855">
        <ele>1228</ele>
        <time>2016-07-24T02:25:36Z</time>
      </trkpt>
      <trkpt lat="45.23639" lon="6.78886">
        <ele>1231</ele>
        <time>2016-07-24T02:27:36Z</time>
      </trkpt>
      <trkpt lat="45.23653" lon="6.78899">
        <ele>1231</ele>
        <time>2016-07-24T02:29:36Z</time>
      </trkpt>
      <trkpt lat="45.23681" lon="6.78926">
        <ele>1232</ele>
        <time>2016-07-24T02:31:36Z</time>
      </trkpt>
      <trkpt lat="45.23705" lon="6.7895">
        <ele>1234</ele>
        <time>2016-07-24T02:33:36Z</time>
      </trkpt>
      <trkpt lat="45.23723" lon="6.78969">
        <ele>1234</ele>
        <time>2016-07-24T02:35:36Z</time>
      </trkpt>
      <trkpt lat="45.23929" lon="6.7918">
        <ele>1236</ele>
        <time>2016-07-24T02:37:36Z</time>
      </trkpt>
      <trkpt lat="45.23999" lon="6.79251">
        <ele>1235</ele>
        <time>2016-07-24T02:39:36Z</time>
      </trkpt>
      <trkpt lat="45.24017" lon="6.79265">
        <ele>1236</ele>
        <time>2016-07-24T02:41:36Z</time>
      </trkpt>
      <trkpt lat="45.24031" lon="6.79274">
        <ele>1237</ele>
        <time>2016-07-24T02:43:36Z</time>
      </trkpt>
      <trkpt lat="45.24047" lon="6.79282">
        <ele>1238</ele>
        <time>2016-07-24T02:45:36Z</time>
      </trkpt>
      <trkpt lat="45.24065" lon="6.79288">
        <ele>1240</ele>
        <time>2016-07-24T02:47:36Z</time>
      </trkpt>
      <trkpt lat="45.24079" lon="6.7929">
        <ele>1241</ele>
        <time>2016-07-24T02:49:36Z</time>
      </trkpt>
      <trkpt lat="45.24095" lon="6.79291">
        <ele>1241</ele>
        <time>2016-07-24T02:51:36Z</time>
      </trkpt>
      <trkpt lat="45.24111" lon="6.7929">
        <ele>1241</ele>
        <time>2016-07-24T02:53:36Z</time>
      </trkpt>
      <trkpt lat="45.24127" lon="6.79287">
        <ele>1241</ele>
        <time>2016-07-24T02:55:36Z</time>
      </trkpt>
      <trkpt lat="45.24139" lon="6.79283">
        <ele>1241</ele>
        <time>2016-07-24T02:57:36Z</time>
      </trkpt>
      <trkpt lat="45.24149" lon="6.79279">
        <ele>1241</ele>
        <time>2016-07-24T02:59:36Z</time>
      </trkpt>
      <trkpt lat="45.24231" lon="6.79243">
        <ele>1237</ele>
        <time>2016-07-24T03:01:36Z</time>
      </trkpt>
      <trkpt lat="45.24249" lon="6.79236">
        <ele>1235</ele>
        <time>2016-07-24T03:03:36Z</time>
      </trkpt>
      <trkpt lat="45.24265" lon="6.79232">
        <ele>1235</ele>
        <time>2016-07-24T03:05:36Z</time>
      </trkpt>
      <trkpt lat="45.24281" lon="6.79229">
        <ele>1236</ele>
        <time>2016-07-24T03:07:36Z</time>
      </trkpt>
      <trkpt lat="45.24302" lon="6.7923">
        <ele>1236</ele>
        <time>2016-07-24T03:09:36Z</time>
      </trkpt>
      <trkpt lat="45.24321" lon="6.79234">
        <ele>1236</ele>
        <time>2016-07-24T03:11:36Z</time>
      </trkpt>
      <trkpt lat="45.24339" lon="6.79241">
        <ele>1236</ele>
        <time>2016-07-24T03:13:36Z</time>
      </trkpt>
      <trkpt lat="45.24355" lon="6.79251">
        <ele>1238</ele>
        <time>2016-07-24T03:15:36Z</time>
      </trkpt>
      <trkpt lat="45.24369" lon="6.79261">
        <ele>1240</ele>
        <time>2016-07-24T03:17:36Z</time>
      </trkpt>
      <trkpt lat="45.24383" lon="6.79275">
        <ele>1241</ele>
        <time>2016-07-24T03:19:36Z</time>
      </trkpt>
      <trkpt lat="45.24396" lon="6.7929">
        <ele>1240</ele>
        <time>2016-07-24T03:21:36Z</time>
      </trkpt>
      <trkpt lat="45.2441" lon="6.79311">
        <ele>1238</ele>
        <time>2016-07-24T03:23:36Z</time>
      </trkpt>
      <trkpt lat="45.2442" lon="6.79329">
        <ele>1236</ele>
        <time>2016-07-24T03:25:36Z</time>
      </trkpt>
      <trkpt lat="45.24432" lon="6.79356">
        <ele>1238</ele>
        <time>2016-07-24T03:27:36Z</time>
      </trkpt>
      <trkpt lat="45.24467" lon="6.7944">
        <ele>1241</ele>
        <time>2016-07-24T03:29:36Z</time>
      </trkpt>
      <trkpt lat="45.2453" lon="6.79588">
        <ele>1243</ele>
        <time>2016-07-24T03:31:36Z</time>
      </trkpt>
      <trkpt lat="45.2455" lon="6.79624">
        <ele>1243</ele>
        <time>2016-07-24T03:33:36Z</time>
      </trkpt>
      <trkpt lat="45.24569" lon="6.79649">
        <ele>1243</ele>
        <time>2016-07-24T03:35:36Z</time>
      </trkpt>
      <trkpt lat="45.24588" lon="6.79665">
        <ele>1242</ele>
        <time>2016-07-24T03:37:36Z</time>
      </trkpt>
      <trkpt lat="45.24606" lon="6.79677">
        <ele>1242</ele>
        <time>2016-07-24T03:39:36Z</time>
      </trkpt>
      <trkpt lat="45.2462" lon="6.79685">
        <ele>1243</ele>
        <time>2016-07-24T03:41:36Z</time>
      </trkpt>
      <trkpt lat="45.24636" lon="6.79691">
        <ele>1243</ele>
        <time>2016-07-24T03:43:36Z</time>
      </trkpt>
      <trkpt lat="45.24719" lon="6.79719">
        <ele>1246</ele>
        <time>2016-07-24T03:45:36Z</time>
      </trkpt>
      <trkpt lat="45.24862" lon="6.79765">
        <ele>1254</ele>
        <time>2016-07-24T03:47:36Z</time>
      </trkpt>
      <trkpt lat="45.24908" lon="6.79781">
        <ele>1255</ele>
        <time>2016-07-24T03:49:36Z</time>
      </trkpt>
      <trkpt lat="45.24945" lon="6.79793">
        <ele>1255</ele>
        <time>2016-07-24T03:51:36Z</time>
      </trkpt>
      <trkpt lat="45.24953" lon="6.79795">
        <ele>1255</ele>
        <time>2016-07-24T03:53:36Z</time>
      </trkpt>
      <trkpt lat="45.24961" lon="6.79797">
        <ele>1255</ele>
        <time>2016-07-24T03:55:36Z</time>
      </trkpt>
      <trkpt lat="45.24976" lon="6.798">
        <ele>1255</ele>
        <time>2016-07-24T03:57:36Z</time>
      </trkpt>
      <trkpt lat="45.24985" lon="6.79801">
        <ele>1255</ele>
        <time>2016-07-24T03:59:36Z</time>
      </trkpt>
      <trkpt lat="45.24994" lon="6.79802">
        <ele>1256</ele>
        <time>2016-07-24T04:01:36Z</time>
      </trkpt>
      <trkpt lat="45.25009" lon="6.79801">
        <ele>1256</ele>
        <time>2016-07-24T04:03:36Z</time>
      </trkpt>
      <trkpt lat="45.25021" lon="6.798">
        <ele>1256</ele>
        <time>2016-07-24T04:05:36Z</time>
      </trkpt>
      <trkpt lat="45.25034" lon="6.79798">
        <ele>1256</ele>
        <time>2016-07-24T04:07:36Z</time>
      </trkpt>
      <trkpt lat="45.25046" lon="6.79795">
        <ele>1257</ele>
        <time>2016-07-24T04:09:36Z</time>
      </trkpt>
      <trkpt lat="45.25058" lon="6.79791">
        <ele>1257</ele>
        <time>2016-07-24T04:11:36Z</time>
      </trkpt>
      <trkpt lat="45.25066" lon="6.79787">
        <ele>1258</ele>
        <time>2016-07-24T04:13:36Z</time>
      </trkpt>
      <trkpt lat="45.25081" lon="6.79779">
        <ele>1260</ele>
        <time>2016-07-24T04:15:36Z</time>
      </trkpt>
      <trkpt lat="45.25103" lon="6.79764">
        <ele>1260</ele>
        <time>2016-07-24T04:17:36Z</time>
      </trkpt>
      <trkpt lat="45.25122" lon="6.7975">
        <ele>1259</ele>
        <time>2016-07-24T04:19:36Z</time>
      </trkpt>
      <trkpt lat="45.25151" lon="6.79728">
        <ele>1260</ele>
        <time>2016-07-24T04:21:36Z</time>
      </trkpt>
      <trkpt lat="45.25177" lon="6.79708">
        <ele>1263</ele>
        <time>2016-07-24T04:23:36Z</time>
      </trkpt>
      <trkpt lat="45.25195" lon="6.79696">
        <ele>1263</ele>
        <time>2016-07-24T04:25:36Z</time>
      </trkpt>
      <trkpt lat="45.25208" lon="6.79688">
        <ele>1261</ele>
        <time>2016-07-24T04:27:36Z</time>
      </trkpt>
      <trkpt lat="45.25222" lon="6.7968">
        <ele>1259</ele>
        <time>2016-07-24T04:29:36Z</time>
      </trkpt>
      <trkpt lat="45.25235" lon="6.79675">
        <ele>1256</ele>
        <time>2016-07-24T04:31:36Z</time>
      </trkpt>
      <trkpt lat="45.25247" lon="6.79672">
        <ele>1253</ele>
        <time>2016-07-24T04:33:36Z</time>
      </trkpt>
      <trkpt lat="45.2526" lon="6.79668">
        <ele>1252</ele>
        <time>2016-07-24T04:35:36Z</time>
      </trkpt>
      <trkpt lat="45.25281" lon="6.79664">
        <ele>1251</ele>
        <time>2016-07-24T04:37:36Z</time>
      </trkpt>
      <trkpt lat="45.25302" lon="6.79663">
        <ele>1251</ele>
        <time>2016-07-24T04:39:36Z</time>
      </trkpt>
      <trkpt lat="45.25317" lon="6.79664">
        <ele>1250</ele>
        <time>2016-07-24T04:41:36Z</time>
      </trkpt>
      <trkpt lat="45.25329" lon="6.79664">
        <ele>1250</ele>
        <time>2016-07-24T04:43:36Z</time>
      </trkpt>
      <trkpt lat="45.25338" lon="6.79665">
        <ele>1250</ele>
        <time>2016-07-24T04:45:36Z</time>
      </trkpt>
      <trkpt lat="45.25346" lon="6.79667">
        <ele>1251</ele>
        <time>2016-07-24T04:47:36Z</time>
      </trkpt>
      <trkpt lat="45.25362" lon="6.79671">
        <ele>1253</ele>
        <time>2016-07-24T04:49:36Z</time>
      </trkpt>
      <trkpt lat="45.25376" lon="6.79676">
        <ele>1255</ele>
        <time>2016-07-24T04:51:36Z</time>
      </trkpt>
      <trkpt lat="45.25383" lon="6.79679">
        <ele>1255</ele>
        <time>2016-07-24T04:53:36Z</time>
      </trkpt>
      <trkpt lat="45.2539" lon="6.79682">
        <ele>1256</ele>
        <time>2016-07-24T04:55:36Z</time>
      </trkpt>
      <trkpt lat="45.25403" lon="6.79688">
        <ele>1257</ele>
        <time>2016-07-24T04:57:36Z</time>
      </trkpt>
      <trkpt lat="45.25412" lon="6.79694">
        <ele>1257</ele>
        <time>2016-07-24T04:59:36Z</time>
      </trkpt>
      <trkpt lat="45.25421" lon="6.79699">
        <ele>1257</ele>
        <time>2016-07-24T05:01:36Z</time>
      </trkpt>
      <trkpt lat="45.25433" lon="6.79708">
        <ele>1257</ele>
        <time>2016-07-24T05:03:36Z</time>
      </trkpt>
      <trkpt lat="45.25442" lon="6.79714">
        <ele>1257</ele>
        <time>2016-07-24T05:05:36Z</time>
      </trkpt>
      <trkpt lat="45.25449" lon="6.7972">
        <ele>1257</ele>
        <time>2016-07-24T05:07:36Z</time>
      </trkpt>
      <trkpt lat="45.2549" lon="6.79752">
        <ele>1254</ele>
        <time>2016-07-24T05:09:36Z</time>
      </trkpt>
      <trkpt lat="45.25528" lon="6.79781">
        <ele>1254</ele>
        <time>2016-07-24T05:11:36Z</time>
      </trkpt>
      <trkpt lat="45.25609" lon="6.79844">
        <ele>1253</ele>
        <time>2016-07-24T05:13:36Z</time>
      </trkpt>
      <trkpt lat="45.2567" lon="6.79891">
        <ele>1254</ele>
        <time>2016-07-24T05:15:36Z</time>
      </trkpt>
      <trkpt lat="45.25757" lon="6.79956">
        <ele>1257</ele>
        <time>2016-07-24T05:17:36Z</time>
      </trkpt>
      <trkpt lat="45.25769" lon="6.79966">
        <ele>1258</ele>
        <time>2016-07-24T05:19:36Z</time>
      </trkpt>
      <trkpt lat="45.25784" lon="6.79976">
        <ele>1258</ele>
        <time>2016-07-24T05:21:36Z</time>
      </trkpt>
      <trkpt lat="45.25794" lon="6.79983">
        <ele>1258</ele>
        <time>2016-07-24T05:23:36Z</time>
      </trkpt>
      <trkpt lat="45.25805" lon="6.7999">
        <ele>1259</ele>
        <time>2016-07-24T05:25:36Z</time>
      </trkpt>
      <trkpt lat="45.2582" lon="6.79998">
        <ele>1259</ele>
        <time>2016-07-24T05:27:36Z</time>
      </trkpt>
      <trkpt lat="45.25838" lon="6.80009">
        <ele>1259</ele>
        <time>2016-07-24T05:29:36Z</time>
      </trkpt>
      <trkpt lat="45.25852" lon="6.80016">
        <ele>1259</ele>
        <time>2016-07-24T05:31:36Z</time>
      </trkpt>
      <trkpt lat="45.25899" lon="6.8004">
        <ele>1259</ele>
        <time>2016-07-24T05:33:36Z</time>
      </trkpt>
      <trkpt lat="45.25919" lon="6.8005">
        <ele>1259</ele>
        <time>2016-07-24T05:35:36Z</time>
      </trkpt>
      <trkpt lat="45.25939" lon="6.80057">
        <ele>1260</ele>
        <time>2016-07-24T05:37:36Z</time>
      </trkpt>
      <trkpt lat="45.25989" lon="6.80075">
        <ele>1260</ele>
        <time>2016-07-24T05:39:36Z</time>
      </trkpt>
      <trkpt lat="45.26013" lon="6.80084">
        <ele>1260</ele>
        <time>2016-07-24T05:41:36Z</time>
      </trkpt>
      <trkpt lat="45.26023" lon="6.80087">
        <ele>1259</ele>
        <time>2016-07-24T05:43:36Z</time>
      </trkpt>
      <trkpt lat="45.26032" lon="6.8009">
        <ele>1259</ele>
        <time>2016-07-24T05:45:36Z</time>
      </trkpt>
      <trkpt lat="45.26044" lon="6.80094">
        <ele>1259</ele>
        <time>2016-07-24T05:47:36Z</time>
      </trkpt>
      <trkpt lat="45.26054" lon="6.80098">
        <ele>1259</ele>
        <time>2016-07-24T05:49:36Z</time>
      </trkpt>
      <trkpt lat="45.26063" lon="6.80102">
        <ele>1259</ele>
        <time>2016-07-24T05:51:36Z</time>
      </trkpt>
      <trkpt lat="45.26072" lon="6.80107">
        <ele>1258</ele>
        <time>2016-07-24T05:53:36Z</time>
      </trkpt>
      <trkpt lat="45.26078" lon="6.80111">
        <ele>1258</ele>
        <time>2016-07-24T05:55:36Z</time>
      </trkpt>
      <trkpt lat="45.26087" lon="6.80116">
        <ele>1259</ele>
        <time>2016-07-24T05:57:36Z</time>
      </trkpt>
      <trkpt lat="45.26094" lon="6.80122">
        <ele>1260</ele>
        <time>2016-07-24T05:59:36Z</time>
      </trkpt>
      <trkpt lat="45.26108" lon="6.80134">
        <ele>1261</ele>
        <time>2016-07-24T06:01:36Z</time>
      </trkpt>
      <trkpt lat="45.26117" lon="6.80142">
        <ele>1261</ele>
        <time>2016-07-24T06:03:36Z</time>
      </trkpt>
      <trkpt lat="45.26124" lon="6.8015">
        <ele>1261</ele>
        <time>2016-07-24T06:05:36Z</time>
      </trkpt>
      <trkpt lat="45.26131" lon="6.80158">
        <ele>1261</ele>
        <time>2016-07-24T06:07:36Z</time>
      </trkpt>
      <trkpt lat="45.26137" lon="6.80166">
        <ele>1261</ele>
        <time>2016-07-24T06:09:36Z</time>
      </trkpt>
      <trkpt lat="45.26148" lon="6.80179">
        <ele>1261</ele>
        <time>2016-07-24T06:11:36Z</time>
      </trkpt>
      <trkpt lat="45.26153" lon="6.80187">
        <ele>1261</ele>
        <time>2016-07-24T06:13:36Z</time>
      </trkpt>
      <trkpt lat="45.26157" lon="6.80193">
        <ele>1261</ele>
        <time>2016-07-24T06:15:36Z</time>
      </trkpt>
      <trkpt lat="45.26163" lon="6.80203">
        <ele>1261</ele>
        <time>2016-07-24T06:17:36Z</time>
      </trkpt>
      <trkpt lat="45.26169" lon="6.80214">
        <ele>1262</ele>
        <time>2016-07-24T06:19:36Z</time>
      </trkpt>
      <trkpt lat="45.26174" lon="6.80225">
        <ele>1263</ele>
        <time>2016-07-24T06:21:36Z</time>
      </trkpt>
      <trkpt lat="45.26179" lon="6.80235">
        <ele>1263</ele>
        <time>2016-07-24T06:23:36Z</time>
      </trkpt>
      <trkpt lat="45.26182" lon="6.80242">
        <ele>1264</ele>
        <time>2016-07-24T06:25:36Z</time>
      </trkpt>
      <trkpt lat="45.26185" lon="6.80251">
        <ele>1264</ele>
        <time>2016-07-24T06:27:36Z</time>
      </trkpt>
      <trkpt lat="45.2619" lon="6.80263">
        <ele>1265</ele>
        <time>2016-07-24T06:29:36Z</time>
      </trkpt>
      <trkpt lat="45.26195" lon="6.80283">
        <ele>1265</ele>
        <time>2016-07-24T06:31:36Z</time>
      </trkpt>
      <trkpt lat="45.26201" lon="6.80302">
        <ele>1266</ele>
        <time>2016-07-24T06:33:36Z</time>
      </trkpt>
      <trkpt lat="45.26205" lon="6.80322">
        <ele>1266</ele>
        <time>2016-07-24T06:35:36Z</time>
      </trkpt>
      <trkpt lat="45.26222" lon="6.80399">
        <ele>1265</ele>
        <time>2016-07-24T06:37:36Z</time>
      </trkpt>
      <trkpt lat="45.26233" lon="6.80452">
        <ele>1265</ele>
        <time>2016-07-24T06:39:36Z</time>
      </trkpt>
      <trkpt lat="45.26238" lon="6.80474">
        <ele>1266</ele>
        <time>2016-07-24T06:41:36Z</time>
      </trkpt>
      <trkpt lat="45.2624" lon="6.80486">
        <ele>1266</ele>
        <time>2016-07-24T06:43:36Z</time>
      </trkpt>
      <trkpt lat="45.26242" lon="6.80497">
        <ele>1267</ele>
        <time>2016-07-24T06:45:36Z</time>
      </trkpt>
      <trkpt lat="45.26243" lon="6.80505">
        <ele>1267</ele>
        <time>2016-07-24T06:47:36Z</time>
      </trkpt>
      <trkpt lat="45.26244" lon="6.80515">
        <ele>1267</ele>
        <time>2016-07-24T06:49:36Z</time>
      </trkpt>
      <trkpt lat="45.26245" lon="6.80529">
        <ele>1267</ele>
        <time>2016-07-24T06:51:36Z</time>
      </trkpt>
      <trkpt lat="45.26245" lon="6.80545">
        <ele>1266</ele>
        <time>2016-07-24T06:53:36Z</time>
      </trkpt>
      <trkpt lat="45.26245" lon="6.80559">
        <ele>1266</ele>
        <time>2016-07-24T06:55:36Z</time>
      </trkpt>
      <trkpt lat="45.26244" lon="6.80573">
        <ele>1266</ele>
        <time>2016-07-24T06:57:36Z</time>
      </trkpt>
      <trkpt lat="45.2624" lon="6.8062">
        <ele>1270</ele>
        <time>2016-07-24T06:59:36Z</time>
      </trkpt>
      <trkpt lat="45.26237" lon="6.80647">
        <ele>1274</ele>
        <time>2016-07-24T07:01:36Z</time>
      </trkpt>
      <trkpt lat="45.26235" lon="6.80669">
        <ele>1276</ele>
        <time>2016-07-24T07:03:36Z</time>
      </trkpt>
      <trkpt lat="45.26234" lon="6.80679">
        <ele>1276</ele>
        <time>2016-07-24T07:05:36Z</time>
      </trkpt>
      <trkpt lat="45.26235" lon="6.8069">
        <ele>1276</ele>
        <time>2016-07-24T07:07:36Z</time>
      </trkpt>
      <trkpt lat="45.26236" lon="6.807">
        <ele>1276</ele>
        <time>2016-07-24T07:09:36Z</time>
      </trkpt>
      <trkpt lat="45.26238" lon="6.80713">
        <ele>1277</ele>
        <time>2016-07-24T07:11:36Z</time>
      </trkpt>
      <trkpt lat="45.26243" lon="6.80731">
        <ele>1277</ele>
        <time>2016-07-24T07:13:36Z</time>
      </trkpt>
      <trkpt lat="45.26251" lon="6.80762">
        <ele>1277</ele>
        <time>2016-07-24T07:15:36Z</time>
      </trkpt>
      <trkpt lat="45.26253" lon="6.80772">
        <ele>1277</ele>
        <time>2016-07-24T07:17:36Z</time>
      </trkpt>
      <trkpt lat="45.26254" lon="6.8078">
        <ele>1277</ele>
        <time>2016-07-24T07:19:36Z</time>
      </trkpt>
      <trkpt lat="45.26255" lon="6.80788">
        <ele>1277</ele>
        <time>2016-07-24T07:21:36Z</time>
      </trkpt>
      <trkpt lat="45.26255" lon="6.80795">
        <ele>1276</ele>
        <time>2016-07-24T07:23:36Z</time>
      </trkpt>
      <trkpt lat="45.26255" lon="6.8082">
        <ele>1275</ele>
        <time>2016-07-24T07:25:36Z</time>
      </trkpt>
      <trkpt lat="45.26255" lon="6.80838">
        <ele>1274</ele>
        <time>2016-07-24T07:27:36Z</time>
      </trkpt>
      <trkpt lat="45.26254" lon="6.80852">
        <ele>1273</ele>
        <time>2016-07-24T07:29:36Z</time>
      </trkpt>
      <trkpt lat="45.26254" lon="6.80858">
        <ele>1273</ele>
        <time>2016-07-24T07:31:36Z</time>
      </trkpt>
      <trkpt lat="45.26255" lon="6.80865">
        <ele>1273</ele>
        <time>2016-07-24T07:33:36Z</time>
      </trkpt>
      <trkpt lat="45.26255" lon="6.80872">
        <ele>1273</ele>
        <time>2016-07-24T07:35:36Z</time>
      </trkpt>
      <trkpt lat="45.26256" lon="6.80878">
        <ele>1273</ele>
        <time>2016-07-24T07:37:36Z</time>
      </trkpt>
      <trkpt lat="45.26256" lon="6.80884">
        <ele>1272</ele>
        <time>2016-07-24T07:39:36Z</time>
      </trkpt>
      <trkpt lat="45.26258" lon="6.8089">
        <ele>1273</ele>
        <time>2016-07-24T07:41:36Z</time>
      </trkpt>
      <trkpt lat="45.26262" lon="6.80906">
        <ele>1273</ele>
        <time>2016-07-24T07:43:36Z</time>
      </trkpt>
      <trkpt lat="45.26266" lon="6.80919">
        <ele>1273</ele>
        <time>2016-07-24T07:45:36Z</time>
      </trkpt>
      <trkpt lat="45.26273" lon="6.8094">
        <ele>1274</ele>
        <time>2016-07-24T07:47:36Z</time>
      </trkpt>
      <trkpt lat="45.2628" lon="6.80962">
        <ele>1275</ele>
        <time>2016-07-24T07:49:36Z</time>
      </trkpt>
      <trkpt lat="45.26288" lon="6.80981">
        <ele>1275</ele>
        <time>2016-07-24T07:51:36Z</time>
      </trkpt>
      <trkpt lat="45.26307" lon="6.81034">
        <ele>1274</ele>
        <time>2016-07-24T07:53:36Z</time>
      </trkpt>
      <trkpt lat="45.26315" lon="6.81057">
        <ele>1273</ele>
        <time>2016-07-24T07:55:36Z</time>
      </trkpt>
      <trkpt lat="45.2632" lon="6.81066">
        <ele>1273</ele>
        <time>2016-07-24T07:57:36Z</time>
      </trkpt>
      <trkpt lat="45.26324" lon="6.81074">
        <ele>1272</ele>
        <time>2016-07-24T07:59:36Z</time>
      </trkpt>
      <trkpt lat="45.26332" lon="6.81086">
        <ele>1272</ele>
        <time>2016-07-24T08:01:36Z</time>
      </trkpt>
      <trkpt lat="45.2634" lon="6.81098">
        <ele>1273</ele>
        <time>2016-07-24T08:03:36Z</time>
      </trkpt>
      <trkpt lat="45.26347" lon="6.81106">
        <ele>1273</ele>
        <time>2016-07-24T08:05:36Z</time>
      </trkpt>
      <trkpt lat="45.26354" lon="6.81113">
        <ele>1273</ele>
        <time>2016-07-24T08:07:36Z</time>
      </trkpt>
      <trkpt lat="45.2637" lon="6.81126">
        <ele>1274</ele>
        <time>2016-07-24T08:09:36Z</time>
      </trkpt>
      <trkpt lat="45.26396" lon="6.81147">
        <ele>1274</ele>
        <time>2016-07-24T08:11:36Z</time>
      </trkpt>
      <trkpt lat="45.2643" lon="6.81172">
        <ele>1273</ele>
        <time>2016-07-24T08:13:36Z</time>
      </trkpt>
      <trkpt lat="45.26526" lon="6.81245">
        <ele>1272</ele>
        <time>2016-07-24T08:15:36Z</time>
      </trkpt>
      <trkpt lat="45.26534" lon="6.81254">
        <ele>1272</ele>
        <time>2016-07-24T08:17:36Z</time>
      </trkpt>
      <trkpt lat="45.26537" lon="6.81257">
        <ele>1272</ele>
        <time>2016-07-24T08:19:36Z</time>
      </trkpt>
      <trkpt lat="45.26571" lon="6.81284">
        <ele>1274</ele>
        <time>2016-07-24T08:21:36Z</time>
      </trkpt>
      <trkpt lat="45.26598" lon="6.81304">
        <ele>1275</ele>
        <time>2016-07-24T08:23:36Z</time>
      </trkpt>
      <trkpt lat="45.26629" lon="6.81327">
        <ele>1275</ele>
        <time>2016-07-24T08:25:36Z</time>
      </trkpt>
      <trkpt lat="45.2665" lon="6.81344">
        <ele>1275</ele>
        <time>2016-07-24T08:27:36Z</time>
      </trkpt>
      <trkpt lat="45.2666" lon="6.8135">
        <ele>1275</ele>
        <time>2016-07-24T08:29:36Z</time>
      </trkpt>
      <trkpt lat="45.26682" lon="6.81366">
        <ele>1275</ele>
        <time>2016-07-24T08:31:36Z</time>
      </trkpt>
      <trkpt lat="45.2671" lon="6.81387">
        <ele>1276</ele>
        <time>2016-07-24T08:33:36Z</time>
      </trkpt>
      <trkpt lat="45.26713" lon="6.81388">
        <ele>1276</ele>
        <time>2016-07-24T08:35:36Z</time>
      </trkpt>
      <trkpt lat="45.26718" lon="6.81391">
        <ele>1277</ele>
        <time>2016-07-24T08:37:36Z</time>
      </trkpt>
      <trkpt lat="45.26724" lon="6.81394">
        <ele>1277</ele>
        <time>2016-07-24T08:39:36Z</time>
      </trkpt>
      <trkpt lat="45.26782" lon="6.81438">
        <ele>1279</ele>
        <time>2016-07-24T08:41:36Z</time>
      </trkpt>
      <trkpt lat="45.26791" lon="6.81445">
        <ele>1279</ele>
        <time>2016-07-24T08:43:36Z</time>
      </trkpt>
      <trkpt lat="45.26797" lon="6.81449">
        <ele>1279</ele>
        <time>2016-07-24T08:45:36Z</time>
      </trkpt>
      <trkpt lat="45.26805" lon="6.81454">
        <ele>1280</ele>
        <time>2016-07-24T08:47:36Z</time>
      </trkpt>
      <trkpt lat="45.26809" lon="6.81457">
        <ele>1280</ele>
        <time>2016-07-24T08:49:36Z</time>
      </trkpt>
      <trkpt lat="45.26814" lon="6.81459">
        <ele>1280</ele>
        <time>2016-07-24T08:51:36Z</time>
      </trkpt>
      <trkpt lat="45.26822" lon="6.81463">
        <ele>1280</ele>
        <time>2016-07-24T08:53:36Z</time>
      </trkpt>
      <trkpt lat="45.26831" lon="6.81467">
        <ele>1280</ele>
        <time>2016-07-24T08:55:36Z</time>
      </trkpt>
      <trkpt lat="45.26836" lon="6.81468">
        <ele>1280</ele>
        <time>2016-07-24T08:57:36Z</time>
      </trkpt>
      <trkpt lat="45.2684" lon="6.81469">
        <ele>1280</ele>
        <time>2016-07-24T08:59:36Z</time>
      </trkpt>
      <trkpt lat="45.26844" lon="6.8147">
        <ele>1280</ele>
        <time>2016-07-24T09:01:36Z</time>
      </trkpt>
      <trkpt lat="45.26848" lon="6.81471">
        <ele>1280</ele>
        <time>2016-07-24T09:03:36Z</time>
      </trkpt>
      <trkpt lat="45.26852" lon="6.81472">
        <ele>1280</ele>
        <time>2016-07-24T09:05:36Z</time>
      </trkpt>
      <trkpt lat="45.26857" lon="6.81472">
        <ele>1280</ele>
        <time>2016-07-24T09:07:36Z</time>
      </trkpt>
      <trkpt lat="45.26862" lon="6.81472">
        <ele>1280</ele>
        <time>2016-07-24T09:09:36Z</time>
      </trkpt>
      <trkpt lat="45.26866" lon="6.81472">
        <ele>1280</ele>
        <time>2016-07-24T09:11:36Z</time>
      </trkpt>
      <trkpt lat="45.26873" lon="6.81471">
        <ele>1279</ele>
        <time>2016-07-24T09:13:36Z</time>
      </trkpt>
      <trkpt lat="45.26881" lon="6.81469">
        <ele>1279</ele>
        <time>2016-07-24T09:15:36Z</time>
      </trkpt>
      <trkpt lat="45.26889" lon="6.81467">
        <ele>1279</ele>
        <time>2016-07-24T09:17:36Z</time>
      </trkpt>
      <trkpt lat="45.26896" lon="6.81464">
        <ele>1279</ele>
        <time>2016-07-24T09:19:36Z</time>
      </trkpt>
      <trkpt lat="45.26907" lon="6.81458">
        <ele>1279</ele>
        <time>2016-07-24T09:21:36Z</time>
      </trkpt>
      <trkpt lat="45.26918" lon="6.81452">
        <ele>1279</ele>
        <time>2016-07-24T09:23:36Z</time>
      </trkpt>
      <trkpt lat="45.26948" lon="6.8143">
        <ele>1280</ele>
        <time>2016-07-24T09:25:36Z</time>
      </trkpt>
      <trkpt lat="45.26974" lon="6.81412">
        <ele>1281</ele>
        <time>2016-07-24T09:27:36Z</time>
      </trkpt>
      <trkpt lat="45.26993" lon="6.81399">
        <ele>1281</ele>
        <time>2016-07-24T09:29:36Z</time>
      </trkpt>
      <trkpt lat="45.27003" lon="6.81392">
        <ele>1281</ele>
        <time>2016-07-24T09:31:36Z</time>
      </trkpt>
      <trkpt lat="45.27012" lon="6.81387">
        <ele>1281</ele>
        <time>2016-07-24T09:33:36Z</time>
      </trkpt>
      <trkpt lat="45.2702" lon="6.81383">
        <ele>1281</ele>
        <time>2016-07-24T09:35:36Z</time>
      </trkpt>
      <trkpt lat="45.27028" lon="6.81379">
        <ele>1282</ele>
        <time>2016-07-24T09:37:36Z</time>
      </trkpt>
      <trkpt lat="45.27037" lon="6.81375">
        <ele>1282</ele>
        <time>2016-07-24T09:39:36Z</time>
      </trkpt>
      <trkpt lat="45.27045" lon="6.81372">
        <ele>1282</ele>
        <time>2016-07-24T09:41:36Z</time>
      </trkpt>
      <trkpt lat="45.2705" lon="6.81371">
        <ele>1282</ele>
        <time>2016-07-24T09:43:36Z</time>
      </trkpt>
      <trkpt lat="45.27056" lon="6.8137">
        <ele>1281</ele>
        <time>2016-07-24T09:45:36Z</time>
      </trkpt>
      <trkpt lat="45.27065" lon="6.81369">
        <ele>1281</ele>
        <time>2016-07-24T09:47:36Z</time>
      </trkpt>
      <trkpt lat="45.27075" lon="6.81368">
        <ele>1281</ele>
        <time>2016-07-24T09:49:36Z</time>
      </trkpt>
      <trkpt lat="45.27077" lon="6.81368">
        <ele>1281</ele>
        <time>2016-07-24T09:51:36Z</time>
      </trkpt>
      <trkpt lat="45.27083" lon="6.81369">
        <ele>1281</ele>
        <time>2016-07-24T09:53:36Z</time>
      </trkpt>
      <trkpt lat="45.27087" lon="6.81369">
        <ele>1281</ele>
        <time>2016-07-24T09:55:36Z</time>
      </trkpt>
      <trkpt lat="45.27093" lon="6.8137">
        <ele>1281</ele>
        <time>2016-07-24T09:57:36Z</time>
      </trkpt>
      <trkpt lat="45.27101" lon="6.81372">
        <ele>1281</ele>
        <time>2016-07-24T09:59:36Z</time>
      </trkpt>
      <trkpt lat="45.27108" lon="6.81374">
        <ele>1280</ele>
        <time>2016-07-24T10:01:36Z</time>
      </trkpt>
      <trkpt lat="45.27115" lon="6.81377">
        <ele>1280</ele>
        <time>2016-07-24T10:03:36Z</time>
      </trkpt>
      <trkpt lat="45.27123" lon="6.81382">
        <ele>1280</ele>
        <time>2016-07-24T10:05:36Z</time>
      </trkpt>
      <trkpt lat="45.27134" lon="6.81388">
        <ele>1280</ele>
        <time>2016-07-24T10:07:36Z</time>
      </trkpt>
      <trkpt lat="45.27147" lon="6.81396">
        <ele>1279</ele>
        <time>2016-07-24T10:09:36Z</time>
      </trkpt>
      <trkpt lat="45.27186" lon="6.8142">
        <ele>1281</ele>
        <time>2016-07-24T10:11:36Z</time>
      </trkpt>
      <trkpt lat="45.27196" lon="6.81427">
        <ele>1282</ele>
        <time>2016-07-24T10:13:36Z</time>
      </trkpt>
      <trkpt lat="45.27204" lon="6.81431">
        <ele>1282</ele>
        <time>2016-07-24T10:15:36Z</time>
      </trkpt>
      <trkpt lat="45.27209" lon="6.81434">
        <ele>1283</ele>
        <time>2016-07-24T10:17:36Z</time>
      </trkpt>
      <trkpt lat="45.27214" lon="6.81436">
        <ele>1283</ele>
        <time>2016-07-24T10:19:36Z</time>
      </trkpt>
      <trkpt lat="45.27221" lon="6.81438">
        <ele>1284</ele>
        <time>2016-07-24T10:21:36Z</time>
      </trkpt>
      <trkpt lat="45.27228" lon="6.8144">
        <ele>1284</ele>
        <time>2016-07-24T10:23:36Z</time>
      </trkpt>
      <trkpt lat="45.27234" lon="6.81441">
        <ele>1285</ele>
        <time>2016-07-24T10:25:36Z</time>
      </trkpt>
      <trkpt lat="45.27248" lon="6.81441">
        <ele>1286</ele>
        <time>2016-07-24T10:27:36Z</time>
      </trkpt>
      <trkpt lat="45.27255" lon="6.81439">
        <ele>1286</ele>
        <time>2016-07-24T10:29:36Z</time>
      </trkpt>
      <trkpt lat="45.27262" lon="6.81436">
        <ele>1285</ele>
        <time>2016-07-24T10:31:36Z</time>
      </trkpt>
      <trkpt lat="45.27271" lon="6.81432">
        <ele>1285</ele>
        <time>2016-07-24T10:33:36Z</time>
      </trkpt>
      <trkpt lat="45.27275" lon="6.81428">
        <ele>1285</ele>
        <time>2016-07-24T10:35:36Z</time>
      </trkpt>
      <trkpt lat="45.27281" lon="6.81423">
        <ele>1285</ele>
        <time>2016-07-24T10:37:36Z</time>
      </trkpt>
      <trkpt lat="45.27286" lon="6.81418">
        <ele>1285</ele>
        <time>2016-07-24T10:39:36Z</time>
      </trkpt>
      <trkpt lat="45.27289" lon="6.81415">
        <ele>1285</ele>
        <time>2016-07-24T10:41:36Z</time>
      </trkpt>
      <trkpt lat="45.27292" lon="6.81411">
        <ele>1285</ele>
        <time>2016-07-24T10:43:36Z</time>
      </trkpt>
      <trkpt lat="45.27316" lon="6.81375">
        <ele>1285</ele>
        <time>2016-07-24T10:45:36Z</time>
      </trkpt>
      <trkpt lat="45.27331" lon="6.8135">
        <ele>1285</ele>
        <time>2016-07-24T10:47:36Z</time>
      </trkpt>
      <trkpt lat="45.27336" lon="6.81343">
        <ele>1285</ele>
        <time>2016-07-24T10:49:36Z</time>
      </trkpt>
      <trkpt lat="45.27341" lon="6.81336">
        <ele>1286</ele>
        <time>2016-07-24T10:51:36Z</time>
      </trkpt>
      <trkpt lat="45.27343" lon="6.81333">
        <ele>1286</ele>
        <time>2016-07-24T10:53:36Z</time>
      </trkpt>
      <trkpt lat="45.27346" lon="6.8133">
        <ele>1286</ele>
        <time>2016-07-24T10:55:36Z</time>
      </trkpt>
      <trkpt lat="45.2735" lon="6.81326">
        <ele>1287</ele>
        <time>2016-07-24T10:57:36Z</time>
      </trkpt>
      <trkpt lat="45.27354" lon="6.81321">
        <ele>1288</ele>
        <time>2016-07-24T10:59:36Z</time>
      </trkpt>
      <trkpt lat="45.27361" lon="6.81315">
        <ele>1288</ele>
        <time>2016-07-24T11:01:36Z</time>
      </trkpt>
      <trkpt lat="45.27371" lon="6.81307">
        <ele>1289</ele>
        <time>2016-07-24T11:03:36Z</time>
      </trkpt>
      <trkpt lat="45.2738" lon="6.813">
        <ele>1289</ele>
        <time>2016-07-24T11:05:36Z</time>
      </trkpt>
      <trkpt lat="45.27385" lon="6.81298">
        <ele>1288</ele>
        <time>2016-07-24T11:07:36Z</time>
      </trkpt>
      <trkpt lat="45.2739" lon="6.81295">
        <ele>1288</ele>
        <time>2016-07-24T11:09:36Z</time>
      </trkpt>
      <trkpt lat="45.27396" lon="6.81293">
        <ele>1288</ele>
        <time>2016-07-24T11:11:36Z</time>
      </trkpt>
      <trkpt lat="45.27403" lon="6.81291">
        <ele>1287</ele>
        <time>2016-07-24T11:13:36Z</time>
      </trkpt>
      <trkpt lat="45.27406" lon="6.8129">
        <ele>1287</ele>
        <time>2016-07-24T11:15:36Z</time>
      </trkpt>
      <trkpt lat="45.2741" lon="6.81289">
        <ele>1286</ele>
        <time>2016-07-24T11:17:36Z</time>
      </trkpt>
      <trkpt lat="45.27415" lon="6.81288">
        <ele>1286</ele>
        <time>2016-07-24T11:19:36Z</time>
      </trkpt>
      <trkpt lat="45.27418" lon="6.81288">
        <ele>1286</ele>
        <time>2016-07-24T11:21:36Z</time>
      </trkpt>
      <trkpt lat="45.27422" lon="6.81288">
        <ele>1286</ele>
        <time>2016-07-24T11:23:36Z</time>
      </trkpt>
      <trkpt lat="45.2744" lon="6.81288">
        <ele>1286</ele>
        <time>2016-07-24T11:25:36Z</time>
      </trkpt>
      <trkpt lat="45.27445" lon="6.81289">
        <ele>1287</ele>
        <time>2016-07-24T11:27:36Z</time>
      </trkpt>
      <trkpt lat="45.2745" lon="6.8129">
        <ele>1287</ele>
        <time>2016-07-24T11:29:36Z</time>
      </trkpt>
      <trkpt lat="45.27457" lon="6.81293">
        <ele>1287</ele>
        <time>2016-07-24T11:31:36Z</time>
      </trkpt>
      <trkpt lat="45.27464" lon="6.81295">
        <ele>1287</ele>
        <time>2016-07-24T11:33:36Z</time>
      </trkpt>
      <trkpt lat="45.27471" lon="6.81298">
        <ele>1287</ele>
        <time>2016-07-24T11:35:36Z</time>
      </trkpt>
      <trkpt lat="45.27476" lon="6.813">
        <ele>1287</ele>
        <time>2016-07-24T11:37:36Z</time>
      </trkpt>
      <trkpt lat="45.2748" lon="6.81302">
        <ele>1288</ele>
        <time>2016-07-24T11:39:36Z</time>
      </trkpt>
      <trkpt lat="45.2749" lon="6.81307">
        <ele>1288</ele>
        <time>2016-07-24T11:41:36Z</time>
      </trkpt>
      <trkpt lat="45.27506" lon="6.81316">
        <ele>1289</ele>
        <time>2016-07-24T11:43:36Z</time>
      </trkpt>
      <trkpt lat="45.27523" lon="6.81325">
        <ele>1289</ele>
        <time>2016-07-24T11:45:36Z</time>
      </trkpt>
      <trkpt lat="45.2754" lon="6.81335">
        <ele>1290</ele>
        <time>2016-07-24T11:47:36Z</time>
      </trkpt>
      <trkpt lat="45.27558" lon="6.81346">
        <ele>1290</ele>
        <time>2016-07-24T11:49:36Z</time>
      </trkpt>
      <trkpt lat="45.27655" lon="6.81407">
        <ele>1292</ele>
        <time>2016-07-24T11:51:36Z</time>
      </trkpt>
      <trkpt lat="45.27669" lon="6.81415">
        <ele>1292</ele>
        <time>2016-07-24T11:53:36Z</time>
      </trkpt>
      <trkpt lat="45.2768" lon="6.81422">
        <ele>1293</ele>
        <time>2016-07-24T11:55:36Z</time>
      </trkpt>
      <trkpt lat="45.27689" lon="6.81427">
        <ele>1293</ele>
        <time>2016-07-24T11:57:36Z</time>
      </trkpt>
      <trkpt lat="45.27696" lon="6.81432">
        <ele>1294</ele>
        <time>2016-07-24T11:59:36Z</time>
      </trkpt>
      <trkpt lat="45.27698" lon="6.81434">
        <ele>1294</ele>
        <time>2016-07-24T12:01:36Z</time>
      </trkpt>
      <trkpt lat="45.277" lon="6.81435">
        <ele>1294</ele>
        <time>2016-07-24T12:03:36Z</time>
      </trkpt>
      <trkpt lat="45.27702" lon="6.81437">
        <ele>1294</ele>
        <time>2016-07-24T12:05:36Z</time>
      </trkpt>
      <trkpt lat="45.27703" lon="6.81439">
        <ele>1294</ele>
        <time>2016-07-24T12:07:36Z</time>
      </trkpt>
      <trkpt lat="45.27705" lon="6.81442">
        <ele>1294</ele>
        <time>2016-07-24T12:09:36Z</time>
      </trkpt>
      <trkpt lat="45.27706" lon="6.81445">
        <ele>1294</ele>
        <time>2016-07-24T12:11:36Z</time>
      </trkpt>
      <trkpt lat="45.27707" lon="6.8145">
        <ele>1294</ele>
        <time>2016-07-24T12:13:36Z</time>
      </trkpt>
      <trkpt lat="45.27707" lon="6.81454">
        <ele>1293</ele>
        <time>2016-07-24T12:15:36Z</time>
      </trkpt>
      <trkpt lat="45.27707" lon="6.81459">
        <ele>1293</ele>
        <time>2016-07-24T12:17:36Z</time>
      </trkpt>
      <trkpt lat="45.27707" lon="6.81466">
        <ele>1293</ele>
        <time>2016-07-24T12:19:36Z</time>
      </trkpt>
      <trkpt lat="45.27706" lon="6.81475">
        <ele>1292</ele>
        <time>2016-07-24T12:21:36Z</time>
      </trkpt>
      <trkpt lat="45.27704" lon="6.81485">
        <ele>1292</ele>
        <time>2016-07-24T12:23:36Z</time>
      </trkpt>
      <trkpt lat="45.277" lon="6.81499">
        <ele>1291</ele>
        <time>2016-07-24T12:25:36Z</time>
      </trkpt>
      <trkpt lat="45.27697" lon="6.81518">
        <ele>1291</ele>
        <time>2016-07-24T12:27:36Z</time>
      </trkpt>
      <trkpt lat="45.27693" lon="6.8154">
        <ele>1291</ele>
        <time>2016-07-24T12:29:36Z</time>
      </trkpt>
      <trkpt lat="45.27689" lon="6.81573">
        <ele>1292</ele>
        <time>2016-07-24T12:31:36Z</time>
      </trkpt>
      <trkpt lat="45.27687" lon="6.81584">
        <ele>1292</ele>
        <time>2016-07-24T12:33:36Z</time>
      </trkpt>
      <trkpt lat="45.27684" lon="6.81607">
        <ele>1293</ele>
        <time>2016-07-24T12:35:36Z</time>
      </trkpt>
      <trkpt lat="45.27682" lon="6.8162">
        <ele>1294</ele>
        <time>2016-07-24T12:37:36Z</time>
      </trkpt>
      <trkpt lat="45.27681" lon="6.81626">
        <ele>1294</ele>
        <time>2016-07-24T12:39:36Z</time>
      </trkpt>
      <trkpt lat="45.2768" lon="6.81646">
        <ele>1296</ele>
        <time>2016-07-24T12:41:36Z</time>
      </trkpt>
      <trkpt lat="45.27678" lon="6.81667">
        <ele>1297</ele>
        <time>2016-07-24T12:43:36Z</time>
      </trkpt>
      <trkpt lat="45.27678" lon="6.81683">
        <ele>1298</ele>
        <time>2016-07-24T12:45:36Z</time>
      </trkpt>
      <trkpt lat="45.27678" lon="6.81691">
        <ele>1298</ele>
        <time>2016-07-24T12:47:36Z</time>
      </trkpt>
      <trkpt lat="45.27678" lon="6.81697">
        <ele>1298</ele>
        <time>2016-07-24T12:49:36Z</time>
      </trkpt>
      <trkpt lat="45.27678" lon="6.81701">
        <ele>1298</ele>
        <time>2016-07-24T12:51:36Z</time>
      </trkpt>
      <trkpt lat="45.27679" lon="6.81705">
        <ele>1298</ele>
        <time>2016-07-24T12:53:36Z</time>
      </trkpt>
      <trkpt lat="45.2768" lon="6.81708">
        <ele>1298</ele>
        <time>2016-07-24T12:55:36Z</time>
      </trkpt>
      <trkpt lat="45.27682" lon="6.81712">
        <ele>1298</ele>
        <time>2016-07-24T12:57:36Z</time>
      </trkpt>
      <trkpt lat="45.27683" lon="6.81716">
        <ele>1299</ele>
        <time>2016-07-24T12:59:36Z</time>
      </trkpt>
      <trkpt lat="45.27686" lon="6.81721">
        <ele>1299</ele>
        <time>2016-07-24T13:01:36Z</time>
      </trkpt>
      <trkpt lat="45.27688" lon="6.81724">
        <ele>1299</ele>
        <time>2016-07-24T13:03:36Z</time>
      </trkpt>
      <trkpt lat="45.27689" lon="6.81725">
        <ele>1299</ele>
        <time>2016-07-24T13:05:36Z</time>
      </trkpt>
      <trkpt lat="45.27694" lon="6.81729">
        <ele>1300</ele>
        <time>2016-07-24T13:07:36Z</time>
      </trkpt>
      <trkpt lat="45.27695" lon="6.8173">
        <ele>1300</ele>
        <time>2016-07-24T13:09:36Z</time>
      </trkpt>
      <trkpt lat="45.27699" lon="6.81731">
        <ele>1300</ele>
        <time>2016-07-24T13:11:36Z</time>
      </trkpt>
      <trkpt lat="45.27701" lon="6.81732">
        <ele>1300</ele>
        <time>2016-07-24T13:13:36Z</time>
      </trkpt>
      <trkpt lat="45.27703" lon="6.81733">
        <ele>1301</ele>
        <time>2016-07-24T13:15:36Z</time>
      </trkpt>
      <trkpt lat="45.27713" lon="6.81732">
        <ele>1301</ele>
        <time>2016-07-24T13:17:36Z</time>
      </trkpt>
      <trkpt lat="45.27724" lon="6.81732">
        <ele>1302</ele>
        <time>2016-07-24T13:19:36Z</time>
      </trkpt>
      <trkpt lat="45.27724" lon="6.81732">
        <ele>1302</ele>
        <time>2016-07-24T13:21:36Z</time>
      </trkpt>
      <trkpt lat="45.27725" lon="6.81749">
        <ele>1304</ele>
        <time>2016-07-24T13:23:36Z</time>
      </trkpt>
      <trkpt lat="45.27726" lon="6.81764">
        <ele>1304</ele>
        <time>2016-07-24T13:25:36Z</time>
      </trkpt>
      <trkpt lat="45.27725" lon="6.81777">
        <ele>1305</ele>
        <time>2016-07-24T13:27:36Z</time>
      </trkpt>
      <trkpt lat="45.27725" lon="6.81777">
        <ele>1305</ele>
        <time>2016-07-24T13:29:36Z</time>
      </trkpt>
      <trkpt lat="45.2773" lon="6.81791">
        <ele>1307</ele>
        <time>2016-07-24T13:31:36Z</time>
      </trkpt>
      <trkpt lat="45.27734" lon="6.8181">
        <ele>1308</ele>
        <time>2016-07-24T13:33:36Z</time>
      </trkpt>
      <trkpt lat="45.27734" lon="6.81827">
        <ele>1310</ele>
        <time>2016-07-24T13:35:36Z</time>
      </trkpt>
      <trkpt lat="45.27732" lon="6.81851">
        <ele>1310</ele>
        <time>2016-07-24T13:37:36Z</time>
      </trkpt>
      <trkpt lat="45.27729" lon="6.81873">
        <ele>1309</ele>
        <time>2016-07-24T13:39:36Z</time>
      </trkpt>
      <trkpt lat="45.27726" lon="6.81902">
        <ele>1309</ele>
        <time>2016-07-24T13:41:36Z</time>
      </trkpt>
      <trkpt lat="45.27719" lon="6.81947">
        <ele>1306</ele>
        <time>2016-07-24T13:43:36Z</time>
      </trkpt>
      <trkpt lat="45.27716" lon="6.81963">
        <ele>1305</ele>
        <time>2016-07-24T13:45:36Z</time>
      </trkpt>
      <trkpt lat="45.27715" lon="6.81974">
        <ele>1305</ele>
        <time>2016-07-24T13:47:36Z</time>
      </trkpt>
      <trkpt lat="45.27715" lon="6.81977">
        <ele>1304</ele>
        <time>2016-07-24T13:49:36Z</time>
      </trkpt>
      <trkpt lat="45.27717" lon="6.8198">
        <ele>1305</ele>
        <time>2016-07-24T13:51:36Z</time>
      </trkpt>
      <trkpt lat="45.27719" lon="6.81981">
        <ele>1305</ele>
        <time>2016-07-24T13:53:36Z</time>
      </trkpt>
      <trkpt lat="45.27721" lon="6.81981">
        <ele>1305</ele>
        <time>2016-07-24T13:55:36Z</time>
      </trkpt>
      <trkpt lat="45.27723" lon="6.81981">
        <ele>1306</ele>
        <time>2016-07-24T13:57:36Z</time>
      </trkpt>
      <trkpt lat="45.27724" lon="6.8198">
        <ele>1306</ele>
        <time>2016-07-24T13:59:36Z</time>
      </trkpt>
      <trkpt lat="45.27727" lon="6.81978">
        <ele>1306</ele>
        <time>2016-07-24T14:01:36Z</time>
      </trkpt>
      <trkpt lat="45.27733" lon="6.81969">
        <ele>1308</ele>
        <time>2016-07-24T14:03:36Z</time>
      </trkpt>
      <trkpt lat="45.27742" lon="6.8196">
        <ele>1310</ele>
        <time>2016-07-24T14:05:36Z</time>
      </trkpt>
      <trkpt lat="45.27749" lon="6.81957">
        <ele>1311</ele>
        <time>2016-07-24T14:07:36Z</time>
      </trkpt>
      <trkpt lat="45.27758" lon="6.81954">
        <ele>1314</ele>
        <time>2016-07-24T14:09:36Z</time>
      </trkpt>
      <trkpt lat="45.27761" lon="6.81951">
        <ele>1315</ele>
        <time>2016-07-24T14:11:36Z</time>
      </trkpt>
      <trkpt lat="45.27764" lon="6.81944">
        <ele>1316</ele>
        <time>2016-07-24T14:13:36Z</time>
      </trkpt>
      <trkpt lat="45.27767" lon="6.81935">
        <ele>1317</ele>
        <time>2016-07-24T14:15:36Z</time>
      </trkpt>
      <trkpt lat="45.2777" lon="6.81928">
        <ele>1318</ele>
        <time>2016-07-24T14:17:36Z</time>
      </trkpt>
      <trkpt lat="45.2777" lon="6.81919">
        <ele>1318</ele>
        <time>2016-07-24T14:19:36Z</time>
      </trkpt>
      <trkpt lat="45.27769" lon="6.81912">
        <ele>1318</ele>
        <time>2016-07-24T14:21:36Z</time>
      </trkpt>
      <trkpt lat="45.27769" lon="6.81912">
        <ele>1318</ele>
        <time>2016-07-24T14:23:36Z</time>
      </trkpt>
      <trkpt lat="45.27773" lon="6.81912">
        <ele>1319</ele>
        <time>2016-07-24T14:25:36Z</time>
      </trkpt>
      <trkpt lat="45.27779" lon="6.81915">
        <ele>1321</ele>
        <time>2016-07-24T14:27:36Z</time>
      </trkpt>
      <trkpt lat="45.27785" lon="6.81923">
        <ele>1322</ele>
        <time>2016-07-24T14:29:36Z</time>
      </trkpt>
      <trkpt lat="45.27796" lon="6.81938">
        <ele>1324</ele>
        <time>2016-07-24T14:31:36Z</time>
      </trkpt>
      <trkpt lat="45.27801" lon="6.81943">
        <ele>1325</ele>
        <time>2016-07-24T14:33:36Z</time>
      </trkpt>
      <trkpt lat="45.27804" lon="6.81944">
        <ele>1326</ele>
        <time>2016-07-24T14:35:36Z</time>
      </trkpt>
      <trkpt lat="45.27808" lon="6.81943">
        <ele>1327</ele>
        <time>2016-07-24T14:37:36Z</time>
      </trkpt>
      <trkpt lat="45.27809" lon="6.8194">
        <ele>1327</ele>
        <time>2016-07-24T14:39:36Z</time>
      </trkpt>
      <trkpt lat="45.2781" lon="6.81935">
        <ele>1328</ele>
        <time>2016-07-24T14:41:36Z</time>
      </trkpt>
      <trkpt lat="45.27809" lon="6.81931">
        <ele>1327</ele>
        <time>2016-07-24T14:43:36Z</time>
      </trkpt>
      <trkpt lat="45.27803" lon="6.81909">
        <ele>1327</ele>
        <time>2016-07-24T14:45:36Z</time>
      </trkpt>
      <trkpt lat="45.27798" lon="6.81893">
        <ele>1326</ele>
        <time>2016-07-24T14:47:36Z</time>
      </trkpt>
      <trkpt lat="45.27793" lon="6.8187">
        <ele>1326</ele>
        <time>2016-07-24T14:49:36Z</time>
      </trkpt>
      <trkpt lat="45.27791" lon="6.81858">
        <ele>1326</ele>
        <time>2016-07-24T14:51:36Z</time>
      </trkpt>
      <trkpt lat="45.27791" lon="6.81858">
        <ele>1326</ele>
        <time>2016-07-24T14:53:36Z</time>
      </trkpt>
      <trkpt lat="45.27795" lon="6.81857">
        <ele>1327</ele>
        <time>2016-07-24T14:55:36Z</time>
      </trkpt>
      <trkpt lat="45.27801" lon="6.81858">
        <ele>1329</ele>
        <time>2016-07-24T14:57:36Z</time>
      </trkpt>
      <trkpt lat="45.27805" lon="6.81861">
        <ele>1330</ele>
        <time>2016-07-24T14:59:36Z</time>
      </trkpt>
      <trkpt lat="45.27809" lon="6.81868">
        <ele>1331</ele>
        <time>2016-07-24T15:01:36Z</time>
      </trkpt>
      <trkpt lat="45.27814" lon="6.81877">
        <ele>1331</ele>
        <time>2016-07-24T15:03:36Z</time>
      </trkpt>
      <trkpt lat="45.2782" lon="6.81886">
        <ele>1332</ele>
        <time>2016-07-24T15:05:36Z</time>
      </trkpt>
      <trkpt lat="45.2783" lon="6.81899">
        <ele>1334</ele>
        <time>2016-07-24T15:07:36Z</time>
      </trkpt>
      <trkpt lat="45.27836" lon="6.81908">
        <ele>1335</ele>
        <time>2016-07-24T15:09:36Z</time>
      </trkpt>
      <trkpt lat="45.27841" lon="6.81919">
        <ele>1338</ele>
        <time>2016-07-24T15:11:36Z</time>
      </trkpt>
      <trkpt lat="45.27848" lon="6.81933">
        <ele>1342</ele>
        <time>2016-07-24T15:13:36Z</time>
      </trkpt>
      <trkpt lat="45.27854" lon="6.81946">
        <ele>1346</ele>
        <time>2016-07-24T15:15:36Z</time>
      </trkpt>
      <trkpt lat="45.2786" lon="6.81957">
        <ele>1349</ele>
        <time>2016-07-24T15:17:36Z</time>
      </trkpt>
      <trkpt lat="45.27864" lon="6.81964">
        <ele>1352</ele>
        <time>2016-07-24T15:19:36Z</time>
      </trkpt>
      <trkpt lat="45.27864" lon="6.81973">
        <ele>1352</ele>
        <time>2016-07-24T15:21:36Z</time>
      </trkpt>
      <trkpt lat="45.27865" lon="6.81981">
        <ele>1352</ele>
        <time>2016-07-24T15:23:36Z</time>
      </trkpt>
      <trkpt lat="45.27869" lon="6.81991">
        <ele>1354</ele>
        <time>2016-07-24T15:25:36Z</time>
      </trkpt>
      <trkpt lat="45.27872" lon="6.81999">
        <ele>1356</ele>
        <time>2016-07-24T15:27:36Z</time>
      </trkpt>
      <trkpt lat="45.27876" lon="6.82006">
        <ele>1358</ele>
        <time>2016-07-24T15:29:36Z</time>
      </trkpt>
      <trkpt lat="45.27883" lon="6.82013">
        <ele>1363</ele>
        <time>2016-07-24T15:31:36Z</time>
      </trkpt>
      <trkpt lat="45.27891" lon="6.82021">
        <ele>1367</ele>
        <time>2016-07-24T15:33:36Z</time>
      </trkpt>
      <trkpt lat="45.27895" lon="6.82028">
        <ele>1369</ele>
        <time>2016-07-24T15:35:36Z</time>
      </trkpt>
      <trkpt lat="45.279" lon="6.82039">
        <ele>1371</ele>
        <time>2016-07-24T15:37:36Z</time>
      </trkpt>
      <trkpt lat="45.27908" lon="6.8205">
        <ele>1374</ele>
        <time>2016-07-24T15:39:36Z</time>
      </trkpt>
      <trkpt lat="45.27914" lon="6.82061">
        <ele>1376</ele>
        <time>2016-07-24T15:41:36Z</time>
      </trkpt>
      <trkpt lat="45.2792" lon="6.82071">
        <ele>1378</ele>
        <time>2016-07-24T15:43:36Z</time>
      </trkpt>
      <trkpt lat="45.27925" lon="6.82084">
        <ele>1379</ele>
        <time>2016-07-24T15:45:36Z</time>
      </trkpt>
      <trkpt lat="45.2793" lon="6.82094">
        <ele>1383</ele>
        <time>2016-07-24T15:47:36Z</time>
      </trkpt>
      <trkpt lat="45.27935" lon="6.82104">
        <ele>1386</ele>
        <time>2016-07-24T15:49:36Z</time>
      </trkpt>
      <trkpt lat="45.27942" lon="6.82114">
        <ele>1389</ele>
        <time>2016-07-24T15:51:36Z</time>
      </trkpt>
      <trkpt lat="45.27955" lon="6.82123">
        <ele>1392</ele>
        <time>2016-07-24T15:53:36Z</time>
      </trkpt>
      <trkpt lat="45.27977" lon="6.8214">
        <ele>1396</ele>
        <time>2016-07-24T15:55:36Z</time>
      </trkpt>
      <trkpt lat="45.27996" lon="6.82154">
        <ele>1396</ele>
        <time>2016-07-24T15:57:36Z</time>
      </trkpt>
      <trkpt lat="45.2801" lon="6.82169">
        <ele>1398</ele>
        <time>2016-07-24T15:59:36Z</time>
      </trkpt>
      <trkpt lat="45.28022" lon="6.82183">
        <ele>1403</ele>
        <time>2016-07-24T16:01:36Z</time>
      </trkpt>
      <trkpt lat="45.28038" lon="6.82198">
        <ele>1406</ele>
        <time>2016-07-24T16:03:36Z</time>
      </trkpt>
      <trkpt lat="45.28038" lon="6.82198">
        <ele>1406</ele>
        <time>2016-07-24T16:05:36Z</time>
      </trkpt>
      <trkpt lat="45.28048" lon="6.82219">
        <ele>1407</ele>
        <time>2016-07-24T16:07:36Z</time>
      </trkpt>
      <trkpt lat="45.28061" lon="6.82252">
        <ele>1405</ele>
        <time>2016-07-24T16:09:36Z</time>
      </trkpt>
      <trkpt lat="45.2808" lon="6.82306">
        <ele>1406</ele>
        <time>2016-07-24T16:11:36Z</time>
      </trkpt>
      <trkpt lat="45.28097" lon="6.8235">
        <ele>1412</ele>
        <time>2016-07-24T16:13:36Z</time>
      </trkpt>
      <trkpt lat="45.28121" lon="6.82418">
        <ele>1412</ele>
        <time>2016-07-24T16:15:36Z</time>
      </trkpt>
      <trkpt lat="45.28138" lon="6.82463">
        <ele>1409</ele>
        <time>2016-07-24T16:17:36Z</time>
      </trkpt>
      <trkpt lat="45.28158" lon="6.82518">
        <ele>1404</ele>
        <time>2016-07-24T16:19:36Z</time>
      </trkpt>
      <trkpt lat="45.28198" lon="6.82628">
        <ele>1399</ele>
        <time>2016-07-24T16:21:36Z</time>
      </trkpt>
      <trkpt lat="45.28215" lon="6.82677">
        <ele>1391</ele>
        <time>2016-07-24T16:23:36Z</time>
      </trkpt>
      <trkpt lat="45.28222" lon="6.82693">
        <ele>1392</ele>
        <time>2016-07-24T16:25:36Z</time>
      </trkpt>
      <trkpt lat="45.28225" lon="6.827">
        <ele>1392</ele>
        <time>2016-07-24T16:27:36Z</time>
      </trkpt>
      <trkpt lat="45.28228" lon="6.82707">
        <ele>1392</ele>
        <time>2016-07-24T16:29:36Z</time>
      </trkpt>
      <trkpt lat="45.28231" lon="6.82713">
        <ele>1392</ele>
        <time>2016-07-24T16:31:36Z</time>
      </trkpt>
      <trkpt lat="45.28235" lon="6.82719">
        <ele>1393</ele>
        <time>2016-07-24T16:33:36Z</time>
      </trkpt>
      <trkpt lat="45.28245" lon="6.82735">
        <ele>1395</ele>
        <time>2016-07-24T16:35:36Z</time>
      </trkpt>
      <trkpt lat="45.28258" lon="6.82752">
        <ele>1398</ele>
        <time>2016-07-24T16:37:36Z</time>
      </trkpt>
      <trkpt lat="45.28267" lon="6.82765">
        <ele>1400</ele>
        <time>2016-07-24T16:39:36Z</time>
      </trkpt>
      <trkpt lat="45.28273" lon="6.82773">
        <ele>1401</ele>
        <time>2016-07-24T16:41:36Z</time>
      </trkpt>
      <trkpt lat="45.28277" lon="6.82781">
        <ele>1401</ele>
        <time>2016-07-24T16:43:36Z</time>
      </trkpt>
      <trkpt lat="45.28286" lon="6.82796">
        <ele>1401</ele>
        <time>2016-07-24T16:45:36Z</time>
      </trkpt>
      <trkpt lat="45.28292" lon="6.82809">
        <ele>1400</ele>
        <time>2016-07-24T16:47:36Z</time>
      </trkpt>
      <trkpt lat="45.28296" lon="6.82819">
        <ele>1398</ele>
        <time>2016-07-24T16:49:36Z</time>
      </trkpt>
      <trkpt lat="45.28301" lon="6.82835">
        <ele>1395</ele>
        <time>2016-07-24T16:51:36Z</time>
      </trkpt>
      <trkpt lat="45.28304" lon="6.82845">
        <ele>1395</ele>
        <time>2016-07-24T16:53:36Z</time>
      </trkpt>
      <trkpt lat="45.28307" lon="6.82856">
        <ele>1394</ele>
        <time>2016-07-24T16:55:36Z</time>
      </trkpt>
      <trkpt lat="45.28314" lon="6.8289">
        <ele>1392</ele>
        <time>2016-07-24T16:57:36Z</time>
      </trkpt>
      <trkpt lat="45.28322" lon="6.82925">
        <ele>1390</ele>
        <time>2016-07-24T16:59:36Z</time>
      </trkpt>
      <trkpt lat="45.28329" lon="6.8295">
        <ele>1389</ele>
        <time>2016-07-24T17:01:36Z</time>
      </trkpt>
      <trkpt lat="45.28333" lon="6.82966">
        <ele>1388</ele>
        <time>2016-07-24T17:03:36Z</time>
      </trkpt>
      <trkpt lat="45.28337" lon="6.82978">
        <ele>1388</ele>
        <time>2016-07-24T17:05:36Z</time>
      </trkpt>
      <trkpt lat="45.2835" lon="6.83014">
        <ele>1388</ele>
        <time>2016-07-24T17:07:36Z</time>
      </trkpt>
      <trkpt lat="45.28361" lon="6.83046">
        <ele>1387</ele>
        <time>2016-07-24T17:09:36Z</time>
      </trkpt>
      <trkpt lat="45.28377" lon="6.8309">
        <ele>1385</ele>
        <time>2016-07-24T17:11:36Z</time>
      </trkpt>
      <trkpt lat="45.28379" lon="6.83099">
        <ele>1385</ele>
        <time>2016-07-24T17:13:36Z</time>
      </trkpt>
      <trkpt lat="45.28381" lon="6.83106">
        <ele>1384</ele>
        <time>2016-07-24T17:15:36Z</time>
      </trkpt>
      <trkpt lat="45.28383" lon="6.83115">
        <ele>1384</ele>
        <time>2016-07-24T17:17:36Z</time>
      </trkpt>
      <trkpt lat="45.28392" lon="6.83155">
        <ele>1381</ele>
        <time>2016-07-24T17:19:36Z</time>
      </trkpt>
      <trkpt lat="45.28398" lon="6.83188">
        <ele>1379</ele>
        <time>2016-07-24T17:21:36Z</time>
      </trkpt>
      <trkpt lat="45.28405" lon="6.83222">
        <ele>1376</ele>
        <time>2016-07-24T17:23:36Z</time>
      </trkpt>
      <trkpt lat="45.28411" lon="6.83252">
        <ele>1372</ele>
        <time>2016-07-24T17:25:36Z</time>
      </trkpt>
      <trkpt lat="45.28418" lon="6.8328">
        <ele>1370</ele>
        <time>2016-07-24T17:27:36Z</time>
      </trkpt>
      <trkpt lat="45.28423" lon="6.83301">
        <ele>1370</ele>
        <time>2016-07-24T17:29:36Z</time>
      </trkpt>
      <trkpt lat="45.2844" lon="6.83358">
        <ele>1379</ele>
        <time>2016-07-24T17:31:36Z</time>
      </trkpt>
      <trkpt lat="45.2846" lon="6.83431">
        <ele>1390</ele>
        <time>2016-07-24T17:33:36Z</time>
      </trkpt>
      <trkpt lat="45.28487" lon="6.83527">
        <ele>1384</ele>
        <time>2016-07-24T17:35:36Z</time>
      </trkpt>
      <trkpt lat="45.285" lon="6.83573">
        <ele>1375</ele>
        <time>2016-07-24T17:37:36Z</time>
      </trkpt>
      <trkpt lat="45.28505" lon="6.83589">
        <ele>1378</ele>
        <time>2016-07-24T17:39:36Z</time>
      </trkpt>
      <trkpt lat="45.28508" lon="6.83601">
        <ele>1380</ele>
        <time>2016-07-24T17:41:36Z</time>
      </trkpt>
      <trkpt lat="45.2851" lon="6.83609">
        <ele>1382</ele>
        <time>2016-07-24T17:43:36Z</time>
      </trkpt>
      <trkpt lat="45.28512" lon="6.83621">
        <ele>1383</ele>
        <time>2016-07-24T17:45:36Z</time>
      </trkpt>
      <trkpt lat="45.28513" lon="6.83631">
        <ele>1384</ele>
        <time>2016-07-24T17:47:36Z</time>
      </trkpt>
      <trkpt lat="45.28517" lon="6.83685">
        <ele>1384</ele>
        <time>2016-07-24T17:49:36Z</time>
      </trkpt>
      <trkpt lat="45.28524" lon="6.83764">
        <ele>1380</ele>
        <time>2016-07-24T17:51:36Z</time>
      </trkpt>
      <trkpt lat="45.28525" lon="6.83775">
        <ele>1378</ele>
        <time>2016-07-24T17:53:36Z</time>
      </trkpt>
      <trkpt lat="45.28526" lon="6.83786">
        <ele>1377</ele>
        <time>2016-07-24T17:55:36Z</time>
      </trkpt>
      <trkpt lat="45.28529" lon="6.83799">
        <ele>1376</ele>
        <time>2016-07-24T17:57:36Z</time>
      </trkpt>
      <trkpt lat="45.28531" lon="6.8381">
        <ele>1375</ele>
        <time>2016-07-24T17:59:36Z</time>
      </trkpt>
      <trkpt lat="45.28538" lon="6.8384">
        <ele>1375</ele>
        <time>2016-07-24T18:01:36Z</time>
      </trkpt>
      <trkpt lat="45.28541" lon="6.83857">
        <ele>1375</ele>
        <time>2016-07-24T18:03:36Z</time>
      </trkpt>
      <trkpt lat="45.28544" lon="6.83874">
        <ele>1375</ele>
        <time>2016-07-24T18:05:36Z</time>
      </trkpt>
      <trkpt lat="45.28546" lon="6.8391">
        <ele>1372</ele>
        <time>2016-07-24T18:07:36Z</time>
      </trkpt>
      <trkpt lat="45.28551" lon="6.83977">
        <ele>1369</ele>
        <time>2016-07-24T18:09:36Z</time>
      </trkpt>
      <trkpt lat="45.28554" lon="6.84049">
        <ele>1363</ele>
        <time>2016-07-24T18:11:36Z</time>
      </trkpt>
      <trkpt lat="45.28557" lon="6.84087">
        <ele>1361</ele>
        <time>2016-07-24T18:13:36Z</time>
      </trkpt>
      <trkpt lat="45.28559" lon="6.84119">
        <ele>1362</ele>
        <time>2016-07-24T18:15:36Z</time>
      </trkpt>
      <trkpt lat="45.28562" lon="6.84151">
        <ele>1363</ele>
        <time>2016-07-24T18:17:36Z</time>
      </trkpt>
      <trkpt lat="45.28566" lon="6.84184">
        <ele>1363</ele>
        <time>2016-07-24T18:19:36Z</time>
      </trkpt>
      <trkpt lat="45.28571" lon="6.84223">
        <ele>1361</ele>
        <time>2016-07-24T18:21:36Z</time>
      </trkpt>
      <trkpt lat="45.28577" lon="6.84265">
        <ele>1359</ele>
        <time>2016-07-24T18:23:36Z</time>
      </trkpt>
      <trkpt lat="45.28582" lon="6.84307">
        <ele>1358</ele>
        <time>2016-07-24T18:25:36Z</time>
      </trkpt>
      <trkpt lat="45.28604" lon="6.84474">
        <ele>1365</ele>
        <time>2016-07-24T18:27:36Z</time>
      </trkpt>
      <trkpt lat="45.28607" lon="6.84493">
        <ele>1367</ele>
        <time>2016-07-24T18:29:36Z</time>
      </trkpt>
      <trkpt lat="45.28609" lon="6.84511">
        <ele>1368</ele>
        <time>2016-07-24T18:31:36Z</time>
      </trkpt>
      <trkpt lat="45.2861" lon="6.84528">
        <ele>1368</ele>
        <time>2016-07-24T18:33:36Z</time>
      </trkpt>
      <trkpt lat="45.28611" lon="6.84539">
        <ele>1369</ele>
        <time>2016-07-24T18:35:36Z</time>
      </trkpt>
      <trkpt lat="45.28611" lon="6.8455">
        <ele>1369</ele>
        <time>2016-07-24T18:37:36Z</time>
      </trkpt>
      <trkpt lat="45.28612" lon="6.84559">
        <ele>1369</ele>
        <time>2016-07-24T18:39:36Z</time>
      </trkpt>
      <trkpt lat="45.28612" lon="6.84572">
        <ele>1369</ele>
        <time>2016-07-24T18:41:36Z</time>
      </trkpt>
      <trkpt lat="45.28612" lon="6.84588">
        <ele>1369</ele>
        <time>2016-07-24T18:43:36Z</time>
      </trkpt>
      <trkpt lat="45.28611" lon="6.84598">
        <ele>1369</ele>
        <time>2016-07-24T18:45:36Z</time>
      </trkpt>
      <trkpt lat="45.28611" lon="6.84606">
        <ele>1369</ele>
        <time>2016-07-24T18:47:36Z</time>
      </trkpt>
      <trkpt lat="45.28609" lon="6.84629">
        <ele>1368</ele>
        <time>2016-07-24T18:49:36Z</time>
      </trkpt>
      <trkpt lat="45.28607" lon="6.84648">
        <ele>1368</ele>
        <time>2016-07-24T18:51:36Z</time>
      </trkpt>
      <trkpt lat="45.28598" lon="6.84736">
        <ele>1365</ele>
        <time>2016-07-24T18:53:36Z</time>
      </trkpt>
      <trkpt lat="45.28592" lon="6.84789">
        <ele>1364</ele>
        <time>2016-07-24T18:55:36Z</time>
      </trkpt>
      <trkpt lat="45.2859" lon="6.84808">
        <ele>1364</ele>
        <time>2016-07-24T18:57:36Z</time>
      </trkpt>
      <trkpt lat="45.28588" lon="6.84826">
        <ele>1363</ele>
        <time>2016-07-24T18:59:36Z</time>
      </trkpt>
      <trkpt lat="45.28587" lon="6.84841">
        <ele>1363</ele>
        <time>2016-07-24T19:01:36Z</time>
      </trkpt>
      <trkpt lat="45.28587" lon="6.84857">
        <ele>1363</ele>
        <time>2016-07-24T19:03:36Z</time>
      </trkpt>
      <trkpt lat="45.28587" lon="6.84869">
        <ele>1363</ele>
        <time>2016-07-24T19:05:36Z</time>
      </trkpt>
      <trkpt lat="45.28587" lon="6.84881">
        <ele>1363</ele>
        <time>2016-07-24T19:07:36Z</time>
      </trkpt>
      <trkpt lat="45.28588" lon="6.84901">
        <ele>1363</ele>
        <time>2016-07-24T19:09:36Z</time>
      </trkpt>
      <trkpt lat="45.28595" lon="6.84979">
        <ele>1368</ele>
        <time>2016-07-24T19:11:36Z</time>
      </trkpt>
      <trkpt lat="45.28598" lon="6.85014">
        <ele>1369</ele>
        <time>2016-07-24T19:13:36Z</time>
      </trkpt>
      <trkpt lat="45.286" lon="6.85051">
        <ele>1368</ele>
        <time>2016-07-24T19:15:36Z</time>
      </trkpt>
      <trkpt lat="45.28605" lon="6.85156">
        <ele>1370</ele>
        <time>2016-07-24T19:17:36Z</time>
      </trkpt>
      <trkpt lat="45.28608" lon="6.85221">
        <ele>1378</ele>
        <time>2016-07-24T19:19:36Z</time>
      </trkpt>
      <trkpt lat="45.28612" lon="6.85312">
        <ele>1384</ele>
        <time>2016-07-24T19:21:36Z</time>
      </trkpt>
      <trkpt lat="45.28612" lon="6.8534">
        <ele>1385</ele>
        <time>2016-07-24T19:23:36Z</time>
      </trkpt>
      <trkpt lat="45.28612" lon="6.85365">
        <ele>1386</ele>
        <time>2016-07-24T19:25:36Z</time>
      </trkpt>
      <trkpt lat="45.28612" lon="6.85385">
        <ele>1387</ele>
        <time>2016-07-24T19:27:36Z</time>
      </trkpt>
      <trkpt lat="45.28611" lon="6.85403">
        <ele>1387</ele>
        <time>2016-07-24T19:29:36Z</time>
      </trkpt>
      <trkpt lat="45.2861" lon="6.85422">
        <ele>1387</ele>
        <time>2016-07-24T19:31:36Z</time>
      </trkpt>
      <trkpt lat="45.28608" lon="6.85436">
        <ele>1386</ele>
        <time>2016-07-24T19:33:36Z</time>
      </trkpt>
      <trkpt lat="45.286" lon="6.8549">
        <ele>1383</ele>
        <time>2016-07-24T19:35:36Z</time>
      </trkpt>
      <trkpt lat="45.28585" lon="6.85565">
        <ele>1375</ele>
        <time>2016-07-24T19:37:36Z</time>
      </trkpt>
      <trkpt lat="45.2858" lon="6.85589">
        <ele>1374</ele>
        <time>2016-07-24T19:39:36Z</time>
      </trkpt>
      <trkpt lat="45.28579" lon="6.85599">
        <ele>1374</ele>
        <time>2016-07-24T19:41:36Z</time>
      </trkpt>
      <trkpt lat="45.28578" lon="6.85615">
        <ele>1375</ele>
        <time>2016-07-24T19:43:36Z</time>
      </trkpt>
      <trkpt lat="45.28577" lon="6.85632">
        <ele>1375</ele>
        <time>2016-07-24T19:45:36Z</time>
      </trkpt>
      <trkpt lat="45.28577" lon="6.85645">
        <ele>1375</ele>
        <time>2016-07-24T19:47:36Z</time>
      </trkpt>
      <trkpt lat="45.28577" lon="6.85704">
        <ele>1376</ele>
        <time>2016-07-24T19:49:36Z</time>
      </trkpt>
      <trkpt lat="45.28578" lon="6.85756">
        <ele>1376</ele>
        <time>2016-07-24T19:51:36Z</time>
      </trkpt>
      <trkpt lat="45.28578" lon="6.85825">
        <ele>1381</ele>
        <time>2016-07-24T19:53:36Z</time>
      </trkpt>
      <trkpt lat="45.28579" lon="6.85886">
        <ele>1378</ele>
        <time>2016-07-24T19:55:36Z</time>
      </trkpt>
      <trkpt lat="45.28579" lon="6.8592">
        <ele>1376</ele>
        <time>2016-07-24T19:57:36Z</time>
      </trkpt>
      <trkpt lat="45.28579" lon="6.85943">
        <ele>1377</ele>
        <time>2016-07-24T19:59:36Z</time>
      </trkpt>
      <trkpt lat="45.28578" lon="6.85958">
        <ele>1377</ele>
        <time>2016-07-24T20:01:36Z</time>
      </trkpt>
      <trkpt lat="45.28578" lon="6.85971">
        <ele>1378</ele>
        <time>2016-07-24T20:03:36Z</time>
      </trkpt>
      <trkpt lat="45.28576" lon="6.85998">
        <ele>1378</ele>
        <time>2016-07-24T20:05:36Z</time>
      </trkpt>
      <trkpt lat="45.28575" lon="6.86012">
        <ele>1379</ele>
        <time>2016-07-24T20:07:36Z</time>
      </trkpt>
      <trkpt lat="45.28573" lon="6.86024">
        <ele>1379</ele>
        <time>2016-07-24T20:09:36Z</time>
      </trkpt>
      <trkpt lat="45.28571" lon="6.86038">
        <ele>1379</ele>
        <time>2016-07-24T20:11:36Z</time>
      </trkpt>
      <trkpt lat="45.28569" lon="6.8605">
        <ele>1380</ele>
        <time>2016-07-24T20:13:36Z</time>
      </trkpt>
      <trkpt lat="45.28566" lon="6.8607">
        <ele>1380</ele>
        <time>2016-07-24T20:15:36Z</time>
      </trkpt>
      <trkpt lat="45.28561" lon="6.86091">
        <ele>1380</ele>
        <time>2016-07-24T20:17:36Z</time>
      </trkpt>
      <trkpt lat="45.28555" lon="6.86117">
        <ele>1381</ele>
        <time>2016-07-24T20:19:36Z</time>
      </trkpt>
      <trkpt lat="45.28546" lon="6.86145">
        <ele>1381</ele>
        <time>2016-07-24T20:21:36Z</time>
      </trkpt>
      <trkpt lat="45.28541" lon="6.86163">
        <ele>1382</ele>
        <time>2016-07-24T20:23:36Z</time>
      </trkpt>
      <trkpt lat="45.28521" lon="6.86218">
        <ele>1383</ele>
        <time>2016-07-24T20:25:36Z</time>
      </trkpt>
      <trkpt lat="45.28513" lon="6.8624">
        <ele>1382</ele>
        <time>2016-07-24T20:27:36Z</time>
      </trkpt>
      <trkpt lat="45.28512" lon="6.86244">
        <ele>1382</ele>
        <time>2016-07-24T20:29:36Z</time>
      </trkpt>
      <trkpt lat="45.28509" lon="6.86253">
        <ele>1381</ele>
        <time>2016-07-24T20:31:36Z</time>
      </trkpt>
      <trkpt lat="45.28508" lon="6.86257">
        <ele>1381</ele>
        <time>2016-07-24T20:33:36Z</time>
      </trkpt>
      <trkpt lat="45.28506" lon="6.86265">
        <ele>1381</ele>
        <time>2016-07-24T20:35:36Z</time>
      </trkpt>
      <trkpt lat="45.28504" lon="6.86273">
        <ele>1380</ele>
        <time>2016-07-24T20:37:36Z</time>
      </trkpt>
      <trkpt lat="45.28501" lon="6.86286">
        <ele>1380</ele>
        <time>2016-07-24T20:39:36Z</time>
      </trkpt>
      <trkpt lat="45.28499" lon="6.86296">
        <ele>1380</ele>
        <time>2016-07-24T20:41:36Z</time>
      </trkpt>
      <trkpt lat="45.28497" lon="6.86305">
        <ele>1381</ele>
        <time>2016-07-24T20:43:36Z</time>
      </trkpt>
      <trkpt lat="45.28491" lon="6.8635">
        <ele>1383</ele>
        <time>2016-07-24T20:45:36Z</time>
      </trkpt>
      <trkpt lat="45.28484" lon="6.86407">
        <ele>1380</ele>
        <time>2016-07-24T20:47:36Z</time>
      </trkpt>
      <trkpt lat="45.28479" lon="6.8645">
        <ele>1380</ele>
        <time>2016-07-24T20:49:36Z</time>
      </trkpt>
      <trkpt lat="45.28474" lon="6.86489">
        <ele>1379</ele>
        <time>2016-07-24T20:51:36Z</time>
      </trkpt>
      <trkpt lat="45.28468" lon="6.86533">
        <ele>1379</ele>
        <time>2016-07-24T20:53:36Z</time>
      </trkpt>
      <trkpt lat="45.28463" lon="6.86572">
        <ele>1379</ele>
        <time>2016-07-24T20:55:36Z</time>
      </trkpt>
      <trkpt lat="45.28457" lon="6.86614">
        <ele>1378</ele>
        <time>2016-07-24T20:57:36Z</time>
      </trkpt>
      <trkpt lat="45.28449" lon="6.86677">
        <ele>1377</ele>
        <time>2016-07-24T20:59:36Z</time>
      </trkpt>
      <trkpt lat="45.28447" lon="6.86697">
        <ele>1378</ele>
        <time>2016-07-24T21:01:36Z</time>
      </trkpt>
      <trkpt lat="45.28444" lon="6.86721">
        <ele>1378</ele>
        <time>2016-07-24T21:03:36Z</time>
      </trkpt>
      <trkpt lat="45.28441" lon="6.86742">
        <ele>1379</ele>
        <time>2016-07-24T21:05:36Z</time>
      </trkpt>
      <trkpt lat="45.28432" lon="6.86805">
        <ele>1378</ele>
        <time>2016-07-24T21:07:36Z</time>
      </trkpt>
      <trkpt lat="45.2843" lon="6.86824">
        <ele>1378</ele>
        <time>2016-07-24T21:09:36Z</time>
      </trkpt>
      <trkpt lat="45.28425" lon="6.86864">
        <ele>1379</ele>
        <time>2016-07-24T21:11:36Z</time>
      </trkpt>
      <trkpt lat="45.28422" lon="6.86904">
        <ele>1380</ele>
        <time>2016-07-24T21:13:36Z</time>
      </trkpt>
      <trkpt lat="45.28421" lon="6.86936">
        <ele>1382</ele>
        <time>2016-07-24T21:15:36Z</time>
      </trkpt>
      <trkpt lat="45.28422" lon="6.86977">
        <ele>1384</ele>
        <time>2016-07-24T21:17:36Z</time>
      </trkpt>
      <trkpt lat="45.28425" lon="6.87007">
        <ele>1386</ele>
        <time>2016-07-24T21:19:36Z</time>
      </trkpt>
      <trkpt lat="45.28427" lon="6.87026">
        <ele>1386</ele>
        <time>2016-07-24T21:21:36Z</time>
      </trkpt>
      <trkpt lat="45.28428" lon="6.87039">
        <ele>1386</ele>
        <time>2016-07-24T21:23:36Z</time>
      </trkpt>
      <trkpt lat="45.2843" lon="6.8705">
        <ele>1386</ele>
        <time>2016-07-24T21:25:36Z</time>
      </trkpt>
      <trkpt lat="45.28433" lon="6.87069">
        <ele>1387</ele>
        <time>2016-07-24T21:27:36Z</time>
      </trkpt>
      <trkpt lat="45.28437" lon="6.87082">
        <ele>1388</ele>
        <time>2016-07-24T21:29:36Z</time>
      </trkpt>
      <trkpt lat="45.28442" lon="6.87104">
        <ele>1389</ele>
        <time>2016-07-24T21:31:36Z</time>
      </trkpt>
      <trkpt lat="45.28447" lon="6.87126">
        <ele>1390</ele>
        <time>2016-07-24T21:33:36Z</time>
      </trkpt>
      <trkpt lat="45.28451" lon="6.87138">
        <ele>1391</ele>
        <time>2016-07-24T21:35:36Z</time>
      </trkpt>
      <trkpt lat="45.28453" lon="6.87146">
        <ele>1391</ele>
        <time>2016-07-24T21:37:36Z</time>
      </trkpt>
      <trkpt lat="45.28454" lon="6.87155">
        <ele>1391</ele>
        <time>2016-07-24T21:39:36Z</time>
      </trkpt>
      <trkpt lat="45.28455" lon="6.87161">
        <ele>1392</ele>
        <time>2016-07-24T21:41:36Z</time>
      </trkpt>
      <trkpt lat="45.28456" lon="6.87172">
        <ele>1392</ele>
        <time>2016-07-24T21:43:36Z</time>
      </trkpt>
      <trkpt lat="45.28455" lon="6.87181">
        <ele>1391</ele>
        <time>2016-07-24T21:45:36Z</time>
      </trkpt>
      <trkpt lat="45.28455" lon="6.87188">
        <ele>1391</ele>
        <time>2016-07-24T21:47:36Z</time>
      </trkpt>
      <trkpt lat="45.28455" lon="6.87195">
        <ele>1391</ele>
        <time>2016-07-24T21:49:36Z</time>
      </trkpt>
      <trkpt lat="45.28456" lon="6.87202">
        <ele>1392</ele>
        <time>2016-07-24T21:51:36Z</time>
      </trkpt>
      <trkpt lat="45.28457" lon="6.87212">
        <ele>1392</ele>
        <time>2016-07-24T21:53:36Z</time>
      </trkpt>
      <trkpt lat="45.28458" lon="6.8722">
        <ele>1392</ele>
        <time>2016-07-24T21:55:36Z</time>
      </trkpt>
      <trkpt lat="45.28458" lon="6.87222">
        <ele>1392</ele>
        <time>2016-07-24T21:57:36Z</time>
      </trkpt>
      <trkpt lat="45.28457" lon="6.87223">
        <ele>1392</ele>
        <time>2016-07-24T21:59:36Z</time>
      </trkpt>
      <trkpt lat="45.28457" lon="6.87224">
        <ele>1392</ele>
        <time>2016-07-24T22:01:36Z</time>
      </trkpt>
      <trkpt lat="45.28456" lon="6.87225">
        <ele>1391</ele>
        <time>2016-07-24T22:03:36Z</time>
      </trkpt>
      <trkpt lat="45.28456" lon="6.87226">
        <ele>1391</ele>
        <time>2016-07-24T22:05:36Z</time>
      </trkpt>
      <trkpt lat="45.28456" lon="6.87228">
        <ele>1391</ele>
        <time>2016-07-24T22:07:36Z</time>
      </trkpt>
      <trkpt lat="45.28456" lon="6.87229">
        <ele>1391</ele>
        <time>2016-07-24T22:09:36Z</time>
      </trkpt>
      <trkpt lat="45.28456" lon="6.8723">
        <ele>1391</ele>
        <time>2016-07-24T22:11:36Z</time>
      </trkpt>
      <trkpt lat="45.28456" lon="6.87232">
        <ele>1391</ele>
        <time>2016-07-24T22:13:36Z</time>
      </trkpt>
      <trkpt lat="45.28456" lon="6.87233">
        <ele>1391</ele>
        <time>2016-07-24T22:15:36Z</time>
      </trkpt>
      <trkpt lat="45.28456" lon="6.87234">
        <ele>1391</ele>
        <time>2016-07-24T22:17:36Z</time>
      </trkpt>
      <trkpt lat="45.28456" lon="6.87236">
        <ele>1391</ele>
        <time>2016-07-24T22:19:36Z</time>
      </trkpt>
      <trkpt lat="45.28457" lon="6.87237">
        <ele>1391</ele>
        <time>2016-07-24T22:21:36Z</time>
      </trkpt>
      <trkpt lat="45.28457" lon="6.87238">
        <ele>1391</ele>
        <time>2016-07-24T22:23:36Z</time>
      </trkpt>
      <trkpt lat="45.28457" lon="6.87239">
        <ele>1391</ele>
        <time>2016-07-24T22:25:36Z</time>
      </trkpt>
      <trkpt lat="45.28458" lon="6.87241">
        <ele>1392</ele>
        <time>2016-07-24T22:27:36Z</time>
      </trkpt>
      <trkpt lat="45.28458" lon="6.87242">
        <ele>1392</ele>
        <time>2016-07-24T22:29:36Z</time>
      </trkpt>
      <trkpt lat="45.28459" lon="6.87243">
        <ele>1392</ele>
        <time>2016-07-24T22:31:36Z</time>
      </trkpt>
      <trkpt lat="45.28459" lon="6.87244">
        <ele>1392</ele>
        <time>2016-07-24T22:33:36Z</time>
      </trkpt>
      <trkpt lat="45.2846" lon="6.87245">
        <ele>1392</ele>
        <time>2016-07-24T22:35:36Z</time>
      </trkpt>
      <trkpt lat="45.2846" lon="6.87246">
        <ele>1392</ele>
        <time>2016-07-24T22:37:36Z</time>
      </trkpt>
      <trkpt lat="45.28461" lon="6.87247">
        <ele>1392</ele>
        <time>2016-07-24T22:39:36Z</time>
      </trkpt>
      <trkpt lat="45.28462" lon="6.87248">
        <ele>1392</ele>
        <time>2016-07-24T22:41:36Z</time>
      </trkpt>
      <trkpt lat="45.28463" lon="6.87248">
        <ele>1392</ele>
        <time>2016-07-24T22:43:36Z</time>
      </trkpt>
      <trkpt lat="45.28463" lon="6.87249">
        <ele>1392</ele>
        <time>2016-07-24T22:45:36Z</time>
      </trkpt>
      <trkpt lat="45.28465" lon="6.8725">
        <ele>1393</ele>
        <time>2016-07-24T22:47:36Z</time>
      </trkpt>
      <trkpt lat="45.28465" lon="6.8725">
        <ele>1393</ele>
        <time>2016-07-24T22:49:36Z</time>
      </trkpt>
      <trkpt lat="45.28463" lon="6.8726">
        <ele>1392</ele>
        <time>2016-07-24T22:51:36Z</time>
      </trkpt>
      <trkpt lat="45.28461" lon="6.87273">
        <ele>1392</ele>
        <time>2016-07-24T22:53:36Z</time>
      </trkpt>
      <trkpt lat="45.28462" lon="6.87334">
        <ele>1391</ele>
        <time>2016-07-24T22:55:36Z</time>
      </trkpt>
      <trkpt lat="45.28462" lon="6.87334">
        <ele>1391</ele>
        <time>2016-07-24T22:57:36Z</time>
      </trkpt>
      <trkpt lat="45.28475" lon="6.87343">
        <ele>1391</ele>
        <time>2016-07-24T22:59:36Z</time>
      </trkpt>
      <trkpt lat="45.28488" lon="6.8736">
        <ele>1392</ele>
        <time>2016-07-24T23:01:36Z</time>
      </trkpt>
      <trkpt lat="45.28493" lon="6.87373">
        <ele>1392</ele>
        <time>2016-07-24T23:03:36Z</time>
      </trkpt>
      <trkpt lat="45.28495" lon="6.87379">
        <ele>1392</ele>
        <time>2016-07-24T23:05:36Z</time>
      </trkpt>
      <trkpt lat="45.285" lon="6.87383">
        <ele>1392</ele>
        <time>2016-07-24T23:07:36Z</time>
      </trkpt>
      <trkpt lat="45.28503" lon="6.87388">
        <ele>1393</ele>
        <time>2016-07-24T23:09:36Z</time>
      </trkpt>
      <trkpt lat="45.28506" lon="6.87394">
        <ele>1394</ele>
        <time>2016-07-24T23:11:36Z</time>
      </trkpt>
      <trkpt lat="45.28506" lon="6.87394">
        <ele>1394</ele>
        <time>2016-07-24T23:13:36Z</time>
      </trkpt>
      <trkpt lat="45.28503" lon="6.87404">
        <ele>1393</ele>
        <time>2016-07-24T23:15:36Z</time>
      </trkpt>
      <trkpt lat="45.28501" lon="6.87417">
        <ele>1393</ele>
        <time>2016-07-24T23:17:36Z</time>
      </trkpt>
      <trkpt lat="45.28498" lon="6.87452">
        <ele>1393</ele>
        <time>2016-07-24T23:19:36Z</time>
      </trkpt>
      <trkpt lat="45.28496" lon="6.87466">
        <ele>1393</ele>
        <time>2016-07-24T23:21:36Z</time>
      </trkpt>
      <trkpt lat="45.28491" lon="6.87509">
        <ele>1393</ele>
        <time>2016-07-24T23:23:36Z</time>
      </trkpt>
      <trkpt lat="45.28487" lon="6.87538">
        <ele>1395</ele>
        <time>2016-07-24T23:25:36Z</time>
      </trkpt>
      <trkpt lat="45.28485" lon="6.87558">
        <ele>1396</ele>
        <time>2016-07-24T23:27:36Z</time>
      </trkpt>
      <trkpt lat="45.28483" lon="6.87578">
        <ele>1398</ele>
        <time>2016-07-24T23:29:36Z</time>
      </trkpt>
      <trkpt lat="45.28482" lon="6.87593">
        <ele>1398</ele>
        <time>2016-07-24T23:31:36Z</time>
      </trkpt>
      <trkpt lat="45.28481" lon="6.87624">
        <ele>1397</ele>
        <time>2016-07-24T23:33:36Z</time>
      </trkpt>
      <trkpt lat="45.28482" lon="6.87653">
        <ele>1395</ele>
        <time>2016-07-24T23:35:36Z</time>
      </trkpt>
      <trkpt lat="45.28483" lon="6.87661">
        <ele>1395</ele>
        <time>2016-07-24T23:37:36Z</time>
      </trkpt>
      <trkpt lat="45.28484" lon="6.87683">
        <ele>1394</ele>
        <time>2016-07-24T23:39:36Z</time>
      </trkpt>
      <trkpt lat="45.28485" lon="6.87706">
        <ele>1394</ele>
        <time>2016-07-24T23:41:36Z</time>
      </trkpt>
      <trkpt lat="45.28485" lon="6.87706">
        <ele>1394</ele>
        <time>2016-07-24T23:43:36Z</time>
      </trkpt>
      <trkpt lat="45.28479" lon="6.87709">
        <ele>1394</ele>
        <time>2016-07-24T23:45:36Z</time>
      </trkpt>
      <trkpt lat="45.28471" lon="6.87713">
        <ele>1395</ele>
        <time>2016-07-24T23:47:36Z</time>
      </trkpt>
      <trkpt lat="45.28463" lon="6.87716">
        <ele>1396</ele>
        <time>2016-07-24T23:49:36Z</time>
      </trkpt>
      <trkpt lat="45.28457" lon="6.87719">
        <ele>1397</ele>
        <time>2016-07-24T23:51:36Z</time>
      </trkpt>
      <trkpt lat="45.28444" lon="6.87725">
        <ele>1398</ele>
        <time>2016-07-24T23:53:36Z</time>
      </trkpt>
      <trkpt lat="45.28436" lon="6.87728">
        <ele>1399</ele>
        <time>2016-07-24T23:55:36Z</time>
      </trkpt>
      <trkpt lat="45.28431" lon="6.87732">
        <ele>1400</ele>
        <time>2016-07-24T23:57:36Z</time>
      </trkpt>
      <trkpt lat="45.28426" lon="6.87736">
        <ele>1401</ele>
        <time>2016-07-24T23:59:36Z</time>
      </trkpt>
      <trkpt lat="45.2842" lon="6.87743">
        <ele>1401</ele>
        <time>2016-07-25T00:01:36Z</time>
      </trkpt>
      <trkpt lat="45.28417" lon="6.87756">
        <ele>1402</ele>
        <time>2016-07-25T00:03:36Z</time>
      </trkpt>
      <trkpt lat="45.28412" lon="6.87805">
        <ele>1404</ele>
        <time>2016-07-25T00:05:36Z</time>
      </trkpt>
      <trkpt lat="45.28405" lon="6.87855">
        <ele>1407</ele>
        <time>2016-07-25T00:07:36Z</time>
      </trkpt>
      <trkpt lat="45.28403" lon="6.87869">
        <ele>1408</ele>
        <time>2016-07-25T00:09:36Z</time>
      </trkpt>
      <trkpt lat="45.28403" lon="6.87877">
        <ele>1408</ele>
        <time>2016-07-25T00:11:36Z</time>
      </trkpt>
      <trkpt lat="45.28405" lon="6.87904">
        <ele>1407</ele>
        <time>2016-07-25T00:13:36Z</time>
      </trkpt>
      <trkpt lat="45.28419" lon="6.87994">
        <ele>1409</ele>
        <time>2016-07-25T00:15:36Z</time>
      </trkpt>
      <trkpt lat="45.28419" lon="6.87994">
        <ele>1409</ele>
        <time>2016-07-25T00:17:36Z</time>
      </trkpt>
      <trkpt lat="45.28416" lon="6.87997">
        <ele>1410</ele>
        <time>2016-07-25T00:19:36Z</time>
      </trkpt>
      <trkpt lat="45.28413" lon="6.88006">
        <ele>1412</ele>
        <time>2016-07-25T00:21:36Z</time>
      </trkpt>
      <trkpt lat="45.28413" lon="6.88019">
        <ele>1413</ele>
        <time>2016-07-25T00:23:36Z</time>
      </trkpt>
      <trkpt lat="45.28412" lon="6.88054">
        <ele>1415</ele>
        <time>2016-07-25T00:25:36Z</time>
      </trkpt>
      <trkpt lat="45.2841" lon="6.88069">
        <ele>1417</ele>
        <time>2016-07-25T00:27:36Z</time>
      </trkpt>
      <trkpt lat="45.28405" lon="6.88082">
        <ele>1420</ele>
        <time>2016-07-25T00:29:36Z</time>
      </trkpt>
      <trkpt lat="45.284" lon="6.88092">
        <ele>1423</ele>
        <time>2016-07-25T00:31:36Z</time>
      </trkpt>
      <trkpt lat="45.28392" lon="6.88099">
        <ele>1426</ele>
        <time>2016-07-25T00:33:36Z</time>
      </trkpt>
      <trkpt lat="45.28377" lon="6.88106">
        <ele>1433</ele>
        <time>2016-07-25T00:35:36Z</time>
      </trkpt>
      <trkpt lat="45.28364" lon="6.88108">
        <ele>1438</ele>
        <time>2016-07-25T00:37:36Z</time>
      </trkpt>
      <trkpt lat="45.28357" lon="6.88112">
        <ele>1441</ele>
        <time>2016-07-25T00:39:36Z</time>
      </trkpt>
      <trkpt lat="45.28357" lon="6.88112">
        <ele>1441</ele>
        <time>2016-07-25T00:41:36Z</time>
      </trkpt>
      <trkpt lat="45.28353" lon="6.88118">
        <ele>1443</ele>
        <time>2016-07-25T00:43:36Z</time>
      </trkpt>
      <trkpt lat="45.28351" lon="6.88125">
        <ele>1443</ele>
        <time>2016-07-25T00:45:36Z</time>
      </trkpt>
      <trkpt lat="45.28352" lon="6.88133">
        <ele>1443</ele>
        <time>2016-07-25T00:47:36Z</time>
      </trkpt>
      <trkpt lat="45.28355" lon="6.88144">
        <ele>1442</ele>
        <time>2016-07-25T00:49:36Z</time>
      </trkpt>
      <trkpt lat="45.28359" lon="6.88147">
        <ele>1440</ele>
        <time>2016-07-25T00:51:36Z</time>
      </trkpt>
      <trkpt lat="45.28368" lon="6.88151">
        <ele>1437</ele>
        <time>2016-07-25T00:53:36Z</time>
      </trkpt>
      <trkpt lat="45.28382" lon="6.88158">
        <ele>1432</ele>
        <time>2016-07-25T00:55:36Z</time>
      </trkpt>
      <trkpt lat="45.28392" lon="6.88168">
        <ele>1428</ele>
        <time>2016-07-25T00:57:36Z</time>
      </trkpt>
      <trkpt lat="45.28397" lon="6.88178">
        <ele>1427</ele>
        <time>2016-07-25T00:59:36Z</time>
      </trkpt>
      <trkpt lat="45.28399" lon="6.88184">
        <ele>1427</ele>
        <time>2016-07-25T01:01:36Z</time>
      </trkpt>
      <trkpt lat="45.284" lon="6.88192">
        <ele>1427</ele>
        <time>2016-07-25T01:03:36Z</time>
      </trkpt>
      <trkpt lat="45.284" lon="6.88203">
        <ele>1428</ele>
        <time>2016-07-25T01:05:36Z</time>
      </trkpt>
      <trkpt lat="45.284" lon="6.88217">
        <ele>1429</ele>
        <time>2016-07-25T01:07:36Z</time>
      </trkpt>
      <trkpt lat="45.28397" lon="6.88233">
        <ele>1431</ele>
        <time>2016-07-25T01:09:36Z</time>
      </trkpt>
      <trkpt lat="45.28393" lon="6.88246">
        <ele>1433</ele>
        <time>2016-07-25T01:11:36Z</time>
      </trkpt>
      <trkpt lat="45.28388" lon="6.88258">
        <ele>1435</ele>
        <time>2016-07-25T01:13:36Z</time>
      </trkpt>
      <trkpt lat="45.28379" lon="6.8828">
        <ele>1438</ele>
        <time>2016-07-25T01:15:36Z</time>
      </trkpt>
      <trkpt lat="45.2837" lon="6.88295">
        <ele>1440</ele>
        <time>2016-07-25T01:17:36Z</time>
      </trkpt>
      <trkpt lat="45.28359" lon="6.88321">
        <ele>1442</ele>
        <time>2016-07-25T01:19:36Z</time>
      </trkpt>
      <trkpt lat="45.28352" lon="6.88346">
        <ele>1443</ele>
        <time>2016-07-25T01:21:36Z</time>
      </trkpt>
      <trkpt lat="45.28345" lon="6.88375">
        <ele>1445</ele>
        <time>2016-07-25T01:23:36Z</time>
      </trkpt>
      <trkpt lat="45.28338" lon="6.88394">
        <ele>1448</ele>
        <time>2016-07-25T01:25:36Z</time>
      </trkpt>
      <trkpt lat="45.28328" lon="6.88422">
        <ele>1452</ele>
        <time>2016-07-25T01:27:36Z</time>
      </trkpt>
      <trkpt lat="45.28318" lon="6.88451">
        <ele>1455</ele>
        <time>2016-07-25T01:29:36Z</time>
      </trkpt>
      <trkpt lat="45.283" lon="6.88502">
        <ele>1462</ele>
        <time>2016-07-25T01:31:36Z</time>
      </trkpt>
      <trkpt lat="45.2829" lon="6.88532">
        <ele>1467</ele>
        <time>2016-07-25T01:33:36Z</time>
      </trkpt>
      <trkpt lat="45.28286" lon="6.8855">
        <ele>1469</ele>
        <time>2016-07-25T01:35:36Z</time>
      </trkpt>
      <trkpt lat="45.28282" lon="6.88569">
        <ele>1472</ele>
        <time>2016-07-25T01:37:36Z</time>
      </trkpt>
      <trkpt lat="45.28274" lon="6.88585">
        <ele>1476</ele>
        <time>2016-07-25T01:39:36Z</time>
      </trkpt>
      <trkpt lat="45.28266" lon="6.88595">
        <ele>1479</ele>
        <time>2016-07-25T01:41:36Z</time>
      </trkpt>
      <trkpt lat="45.28258" lon="6.88602">
        <ele>1482</ele>
        <time>2016-07-25T01:43:36Z</time>
      </trkpt>
      <trkpt lat="45.28249" lon="6.88612">
        <ele>1486</ele>
        <time>2016-07-25T01:45:36Z</time>
      </trkpt>
      <trkpt lat="45.28229" lon="6.8864">
        <ele>1495</ele>
        <time>2016-07-25T01:47:36Z</time>
      </trkpt>
      <trkpt lat="45.28217" lon="6.88659">
        <ele>1501</ele>
        <time>2016-07-25T01:49:36Z</time>
      </trkpt>
      <trkpt lat="45.28212" lon="6.88669">
        <ele>1503</ele>
        <time>2016-07-25T01:51:36Z</time>
      </trkpt>
      <trkpt lat="45.28206" lon="6.88678">
        <ele>1507</ele>
        <time>2016-07-25T01:53:36Z</time>
      </trkpt>
      <trkpt lat="45.28201" lon="6.88688">
        <ele>1509</ele>
        <time>2016-07-25T01:55:36Z</time>
      </trkpt>
      <trkpt lat="45.28194" lon="6.88706">
        <ele>1514</ele>
        <time>2016-07-25T01:57:36Z</time>
      </trkpt>
      <trkpt lat="45.28194" lon="6.8872">
        <ele>1515</ele>
        <time>2016-07-25T01:59:36Z</time>
      </trkpt>
      <trkpt lat="45.28195" lon="6.88734">
        <ele>1516</ele>
        <time>2016-07-25T02:01:36Z</time>
      </trkpt>
      <trkpt lat="45.28199" lon="6.88746">
        <ele>1516</ele>
        <time>2016-07-25T02:03:36Z</time>
      </trkpt>
      <trkpt lat="45.2821" lon="6.88762">
        <ele>1515</ele>
        <time>2016-07-25T02:05:36Z</time>
      </trkpt>
      <trkpt lat="45.2822" lon="6.88778">
        <ele>1514</ele>
        <time>2016-07-25T02:07:36Z</time>
      </trkpt>
      <trkpt lat="45.28224" lon="6.88792">
        <ele>1514</ele>
        <time>2016-07-25T02:09:36Z</time>
      </trkpt>
      <trkpt lat="45.28225" lon="6.88813">
        <ele>1517</ele>
        <time>2016-07-25T02:11:36Z</time>
      </trkpt>
      <trkpt lat="45.28225" lon="6.8883">
        <ele>1519</ele>
        <time>2016-07-25T02:13:36Z</time>
      </trkpt>
      <trkpt lat="45.28222" lon="6.88842">
        <ele>1521</ele>
        <time>2016-07-25T02:15:36Z</time>
      </trkpt>
      <trkpt lat="45.28222" lon="6.88842">
        <ele>1521</ele>
        <time>2016-07-25T02:17:36Z</time>
      </trkpt>
      <trkpt lat="45.28216" lon="6.88845">
        <ele>1523</ele>
        <time>2016-07-25T02:19:36Z</time>
      </trkpt>
      <trkpt lat="45.2821" lon="6.8884">
        <ele>1525</ele>
        <time>2016-07-25T02:21:36Z</time>
      </trkpt>
      <trkpt lat="45.28203" lon="6.88824">
        <ele>1525</ele>
        <time>2016-07-25T02:23:36Z</time>
      </trkpt>
      <trkpt lat="45.28197" lon="6.88815">
        <ele>1526</ele>
        <time>2016-07-25T02:25:36Z</time>
      </trkpt>
      <trkpt lat="45.2819" lon="6.88805">
        <ele>1527</ele>
        <time>2016-07-25T02:27:36Z</time>
      </trkpt>
      <trkpt lat="45.28181" lon="6.88801">
        <ele>1530</ele>
        <time>2016-07-25T02:29:36Z</time>
      </trkpt>
      <trkpt lat="45.28173" lon="6.888">
        <ele>1532</ele>
        <time>2016-07-25T02:31:36Z</time>
      </trkpt>
      <trkpt lat="45.28165" lon="6.88801">
        <ele>1535</ele>
        <time>2016-07-25T02:33:36Z</time>
      </trkpt>
      <trkpt lat="45.28158" lon="6.88807">
        <ele>1537</ele>
        <time>2016-07-25T02:35:36Z</time>
      </trkpt>
      <trkpt lat="45.28155" lon="6.88816">
        <ele>1539</ele>
        <time>2016-07-25T02:37:36Z</time>
      </trkpt>
      <trkpt lat="45.2815" lon="6.88842">
        <ele>1543</ele>
        <time>2016-07-25T02:39:36Z</time>
      </trkpt>
      <trkpt lat="45.28145" lon="6.88851">
        <ele>1545</ele>
        <time>2016-07-25T02:41:36Z</time>
      </trkpt>
      <trkpt lat="45.28139" lon="6.88857">
        <ele>1547</ele>
        <time>2016-07-25T02:43:36Z</time>
      </trkpt>
      <trkpt lat="45.28136" lon="6.88858">
        <ele>1548</ele>
        <time>2016-07-25T02:45:36Z</time>
      </trkpt>
      <trkpt lat="45.28129" lon="6.88861">
        <ele>1550</ele>
        <time>2016-07-25T02:47:36Z</time>
      </trkpt>
      <trkpt lat="45.28124" lon="6.88864">
        <ele>1551</ele>
        <time>2016-07-25T02:49:36Z</time>
      </trkpt>
      <trkpt lat="45.28119" lon="6.88868">
        <ele>1553</ele>
        <time>2016-07-25T02:51:36Z</time>
      </trkpt>
      <trkpt lat="45.28114" lon="6.88879">
        <ele>1555</ele>
        <time>2016-07-25T02:53:36Z</time>
      </trkpt>
      <trkpt lat="45.2811" lon="6.88894">
        <ele>1558</ele>
        <time>2016-07-25T02:55:36Z</time>
      </trkpt>
      <trkpt lat="45.28095" lon="6.88914">
        <ele>1565</ele>
        <time>2016-07-25T02:57:36Z</time>
      </trkpt>
      <trkpt lat="45.28088" lon="6.88926">
        <ele>1568</ele>
        <time>2016-07-25T02:59:36Z</time>
      </trkpt>
      <trkpt lat="45.28081" lon="6.88937">
        <ele>1571</ele>
        <time>2016-07-25T03:01:36Z</time>
      </trkpt>
      <trkpt lat="45.28073" lon="6.88969">
        <ele>1574</ele>
        <time>2016-07-25T03:03:36Z</time>
      </trkpt>
      <trkpt lat="45.28066" lon="6.89003">
        <ele>1578</ele>
        <time>2016-07-25T03:05:36Z</time>
      </trkpt>
      <trkpt lat="45.28063" lon="6.89019">
        <ele>1580</ele>
        <time>2016-07-25T03:07:36Z</time>
      </trkpt>
      <trkpt lat="45.28058" lon="6.89047">
        <ele>1582</ele>
        <time>2016-07-25T03:09:36Z</time>
      </trkpt>
      <trkpt lat="45.28057" lon="6.89056">
        <ele>1583</ele>
        <time>2016-07-25T03:11:36Z</time>
      </trkpt>
      <trkpt lat="45.28056" lon="6.8906">
        <ele>1583</ele>
        <time>2016-07-25T03:13:36Z</time>
      </trkpt>
      <trkpt lat="45.28051" lon="6.8907">
        <ele>1585</ele>
        <time>2016-07-25T03:15:36Z</time>
      </trkpt>
      <trkpt lat="45.28048" lon="6.89076">
        <ele>1587</ele>
        <time>2016-07-25T03:17:36Z</time>
      </trkpt>
      <trkpt lat="45.28045" lon="6.89079">
        <ele>1588</ele>
        <time>2016-07-25T03:19:36Z</time>
      </trkpt>
      <trkpt lat="45.2804" lon="6.89083">
        <ele>1590</ele>
        <time>2016-07-25T03:21:36Z</time>
      </trkpt>
      <trkpt lat="45.2804" lon="6.89083">
        <ele>1590</ele>
        <time>2016-07-25T03:23:36Z</time>
      </trkpt>
      <trkpt lat="45.2804" lon="6.89097">
        <ele>1589</ele>
        <time>2016-07-25T03:25:36Z</time>
      </trkpt>
      <trkpt lat="45.2804" lon="6.89097">
        <ele>1589</ele>
        <time>2016-07-25T03:27:36Z</time>
      </trkpt>
      <trkpt lat="45.28032" lon="6.89107">
        <ele>1592</ele>
        <time>2016-07-25T03:29:36Z</time>
      </trkpt>
      <trkpt lat="45.28025" lon="6.89118">
        <ele>1594</ele>
        <time>2016-07-25T03:31:36Z</time>
      </trkpt>
      <trkpt lat="45.28019" lon="6.89132">
        <ele>1596</ele>
        <time>2016-07-25T03:33:36Z</time>
      </trkpt>
      <trkpt lat="45.2801" lon="6.89149">
        <ele>1599</ele>
        <time>2016-07-25T03:35:36Z</time>
      </trkpt>
      <trkpt lat="45.28001" lon="6.89169">
        <ele>1602</ele>
        <time>2016-07-25T03:37:36Z</time>
      </trkpt>
      <trkpt lat="45.27995" lon="6.89188">
        <ele>1604</ele>
        <time>2016-07-25T03:39:36Z</time>
      </trkpt>
      <trkpt lat="45.27992" lon="6.89205">
        <ele>1606</ele>
        <time>2016-07-25T03:41:36Z</time>
      </trkpt>
      <trkpt lat="45.2799" lon="6.89227">
        <ele>1607</ele>
        <time>2016-07-25T03:43:36Z</time>
      </trkpt>
      <trkpt lat="45.27987" lon="6.89244">
        <ele>1608</ele>
        <time>2016-07-25T03:45:36Z</time>
      </trkpt>
      <trkpt lat="45.27979" lon="6.89258">
        <ele>1611</ele>
        <time>2016-07-25T03:47:36Z</time>
      </trkpt>
      <trkpt lat="45.2797" lon="6.89275">
        <ele>1614</ele>
        <time>2016-07-25T03:49:36Z</time>
      </trkpt>
      <trkpt lat="45.27963" lon="6.89289">
        <ele>1616</ele>
        <time>2016-07-25T03:51:36Z</time>
      </trkpt>
      <trkpt lat="45.27956" lon="6.89305">
        <ele>1618</ele>
        <time>2016-07-25T03:53:36Z</time>
      </trkpt>
      <trkpt lat="45.27952" lon="6.89318">
        <ele>1620</ele>
        <time>2016-07-25T03:55:36Z</time>
      </trkpt>
      <trkpt lat="45.27941" lon="6.89333">
        <ele>1623</ele>
        <time>2016-07-25T03:57:36Z</time>
      </trkpt>
      <trkpt lat="45.27931" lon="6.89346">
        <ele>1625</ele>
        <time>2016-07-25T03:59:36Z</time>
      </trkpt>
      <trkpt lat="45.27923" lon="6.89358">
        <ele>1626</ele>
        <time>2016-07-25T04:01:36Z</time>
      </trkpt>
      <trkpt lat="45.27919" lon="6.89366">
        <ele>1626</ele>
        <time>2016-07-25T04:03:36Z</time>
      </trkpt>
      <trkpt lat="45.27915" lon="6.89373">
        <ele>1627</ele>
        <time>2016-07-25T04:05:36Z</time>
      </trkpt>
      <trkpt lat="45.27908" lon="6.89389">
        <ele>1629</ele>
        <time>2016-07-25T04:07:36Z</time>
      </trkpt>
      <trkpt lat="45.27904" lon="6.89396">
        <ele>1630</ele>
        <time>2016-07-25T04:09:36Z</time>
      </trkpt>
      <trkpt lat="45.27894" lon="6.8942">
        <ele>1634</ele>
        <time>2016-07-25T04:11:36Z</time>
      </trkpt>
      <trkpt lat="45.27888" lon="6.89434">
        <ele>1638</ele>
        <time>2016-07-25T04:13:36Z</time>
      </trkpt>
      <trkpt lat="45.27881" lon="6.89444">
        <ele>1642</ele>
        <time>2016-07-25T04:15:36Z</time>
      </trkpt>
      <trkpt lat="45.2787" lon="6.89456">
        <ele>1648</ele>
        <time>2016-07-25T04:17:36Z</time>
      </trkpt>
      <trkpt lat="45.27852" lon="6.89473">
        <ele>1656</ele>
        <time>2016-07-25T04:19:36Z</time>
      </trkpt>
      <trkpt lat="45.27841" lon="6.89486">
        <ele>1661</ele>
        <time>2016-07-25T04:21:36Z</time>
      </trkpt>
      <trkpt lat="45.27834" lon="6.89496">
        <ele>1663</ele>
        <time>2016-07-25T04:23:36Z</time>
      </trkpt>
      <trkpt lat="45.27828" lon="6.89516">
        <ele>1668</ele>
        <time>2016-07-25T04:25:36Z</time>
      </trkpt>
      <trkpt lat="45.27826" lon="6.89524">
        <ele>1670</ele>
        <time>2016-07-25T04:27:36Z</time>
      </trkpt>
      <trkpt lat="45.27821" lon="6.89528">
        <ele>1672</ele>
        <time>2016-07-25T04:29:36Z</time>
      </trkpt>
      <trkpt lat="45.27814" lon="6.89532">
        <ele>1675</ele>
        <time>2016-07-25T04:31:36Z</time>
      </trkpt>
      <trkpt lat="45.27786" lon="6.89537">
        <ele>1686</ele>
        <time>2016-07-25T04:33:36Z</time>
      </trkpt>
      <trkpt lat="45.27778" lon="6.89539">
        <ele>1690</ele>
        <time>2016-07-25T04:35:36Z</time>
      </trkpt>
      <trkpt lat="45.27773" lon="6.89543">
        <ele>1692</ele>
        <time>2016-07-25T04:37:36Z</time>
      </trkpt>
      <trkpt lat="45.2777" lon="6.89553">
        <ele>1694</ele>
        <time>2016-07-25T04:39:36Z</time>
      </trkpt>
      <trkpt lat="45.27769" lon="6.89567">
        <ele>1696</ele>
        <time>2016-07-25T04:41:36Z</time>
      </trkpt>
      <trkpt lat="45.27769" lon="6.89581">
        <ele>1697</ele>
        <time>2016-07-25T04:43:36Z</time>
      </trkpt>
      <trkpt lat="45.2777" lon="6.89595">
        <ele>1698</ele>
        <time>2016-07-25T04:45:36Z</time>
      </trkpt>
      <trkpt lat="45.2777" lon="6.89601">
        <ele>1699</ele>
        <time>2016-07-25T04:47:36Z</time>
      </trkpt>
      <trkpt lat="45.27769" lon="6.89608">
        <ele>1700</ele>
        <time>2016-07-25T04:49:36Z</time>
      </trkpt>
      <trkpt lat="45.27768" lon="6.89614">
        <ele>1701</ele>
        <time>2016-07-25T04:51:36Z</time>
      </trkpt>
      <trkpt lat="45.27765" lon="6.89619">
        <ele>1702</ele>
        <time>2016-07-25T04:53:36Z</time>
      </trkpt>
      <trkpt lat="45.27761" lon="6.89623">
        <ele>1704</ele>
        <time>2016-07-25T04:55:36Z</time>
      </trkpt>
      <trkpt lat="45.27752" lon="6.89627">
        <ele>1708</ele>
        <time>2016-07-25T04:57:36Z</time>
      </trkpt>
      <trkpt lat="45.27736" lon="6.89632">
        <ele>1714</ele>
        <time>2016-07-25T04:59:36Z</time>
      </trkpt>
      <trkpt lat="45.27715" lon="6.89638">
        <ele>1722</ele>
        <time>2016-07-25T05:01:36Z</time>
      </trkpt>
      <trkpt lat="45.27695" lon="6.89643">
        <ele>1730</ele>
        <time>2016-07-25T05:03:36Z</time>
      </trkpt>
      <trkpt lat="45.27684" lon="6.89646">
        <ele>1734</ele>
        <time>2016-07-25T05:05:36Z</time>
      </trkpt>
      <trkpt lat="45.27676" lon="6.89644">
        <ele>1737</ele>
        <time>2016-07-25T05:07:36Z</time>
      </trkpt>
      <trkpt lat="45.27665" lon="6.89643">
        <ele>1741</ele>
        <time>2016-07-25T05:09:36Z</time>
      </trkpt>
      <trkpt lat="45.27648" lon="6.89644">
        <ele>1746</ele>
        <time>2016-07-25T05:11:36Z</time>
      </trkpt>
      <trkpt lat="45.27612" lon="6.89651">
        <ele>1757</ele>
        <time>2016-07-25T05:13:36Z</time>
      </trkpt>
      <trkpt lat="45.27589" lon="6.89654">
        <ele>1764</ele>
        <time>2016-07-25T05:15:36Z</time>
      </trkpt>
      <trkpt lat="45.2757" lon="6.89657">
        <ele>1770</ele>
        <time>2016-07-25T05:17:36Z</time>
      </trkpt>
      <trkpt lat="45.27544" lon="6.89664">
        <ele>1778</ele>
        <time>2016-07-25T05:19:36Z</time>
      </trkpt>
      <trkpt lat="45.27544" lon="6.89664">
        <ele>1778</ele>
        <time>2016-07-25T05:21:36Z</time>
      </trkpt>
      <trkpt lat="45.2754" lon="6.89656">
        <ele>1779</ele>
        <time>2016-07-25T05:23:36Z</time>
      </trkpt>
      <trkpt lat="45.27534" lon="6.89636">
        <ele>1781</ele>
        <time>2016-07-25T05:25:36Z</time>
      </trkpt>
      <trkpt lat="45.27534" lon="6.89636">
        <ele>1781</ele>
        <time>2016-07-25T05:27:36Z</time>
      </trkpt>
      <trkpt lat="45.27527" lon="6.89635">
        <ele>1784</ele>
        <time>2016-07-25T05:29:36Z</time>
      </trkpt>
      <trkpt lat="45.27518" lon="6.8963">
        <ele>1787</ele>
        <time>2016-07-25T05:31:36Z</time>
      </trkpt>
      <trkpt lat="45.27511" lon="6.89622">
        <ele>1789</ele>
        <time>2016-07-25T05:33:36Z</time>
      </trkpt>
      <trkpt lat="45.27503" lon="6.89608">
        <ele>1792</ele>
        <time>2016-07-25T05:35:36Z</time>
      </trkpt>
      <trkpt lat="45.27493" lon="6.89592">
        <ele>1797</ele>
        <time>2016-07-25T05:37:36Z</time>
      </trkpt>
      <trkpt lat="45.2748" lon="6.89576">
        <ele>1802</ele>
        <time>2016-07-25T05:39:36Z</time>
      </trkpt>
      <trkpt lat="45.27462" lon="6.89566">
        <ele>1809</ele>
        <time>2016-07-25T05:41:36Z</time>
      </trkpt>
      <trkpt lat="45.27444" lon="6.89561">
        <ele>1817</ele>
        <time>2016-07-25T05:43:36Z</time>
      </trkpt>
      <trkpt lat="45.27436" lon="6.89561">
        <ele>1820</ele>
        <time>2016-07-25T05:45:36Z</time>
      </trkpt>
      <trkpt lat="45.2743" lon="6.89565">
        <ele>1822</ele>
        <time>2016-07-25T05:47:36Z</time>
      </trkpt>
      <trkpt lat="45.27424" lon="6.89573">
        <ele>1824</ele>
        <time>2016-07-25T05:49:36Z</time>
      </trkpt>
      <trkpt lat="45.27416" lon="6.89588">
        <ele>1827</ele>
        <time>2016-07-25T05:51:36Z</time>
      </trkpt>
      <trkpt lat="45.27413" lon="6.89598">
        <ele>1829</ele>
        <time>2016-07-25T05:53:36Z</time>
      </trkpt>
      <trkpt lat="45.27408" lon="6.89618">
        <ele>1831</ele>
        <time>2016-07-25T05:55:36Z</time>
      </trkpt>
      <trkpt lat="45.27404" lon="6.89629">
        <ele>1833</ele>
        <time>2016-07-25T05:57:36Z</time>
      </trkpt>
      <trkpt lat="45.27399" lon="6.89637">
        <ele>1835</ele>
        <time>2016-07-25T05:59:36Z</time>
      </trkpt>
      <trkpt lat="45.27394" lon="6.89641">
        <ele>1837</ele>
        <time>2016-07-25T06:01:36Z</time>
      </trkpt>
      <trkpt lat="45.27383" lon="6.89647">
        <ele>1841</ele>
        <time>2016-07-25T06:03:36Z</time>
      </trkpt>
      <trkpt lat="45.27365" lon="6.89651">
        <ele>1847</ele>
        <time>2016-07-25T06:05:36Z</time>
      </trkpt>
      <trkpt lat="45.27351" lon="6.89652">
        <ele>1851</ele>
        <time>2016-07-25T06:07:36Z</time>
      </trkpt>
      <trkpt lat="45.27343" lon="6.89656">
        <ele>1854</ele>
        <time>2016-07-25T06:09:36Z</time>
      </trkpt>
      <trkpt lat="45.2733" lon="6.89666">
        <ele>1859</ele>
        <time>2016-07-25T06:11:36Z</time>
      </trkpt>
      <trkpt lat="45.27315" lon="6.89675">
        <ele>1865</ele>
        <time>2016-07-25T06:13:36Z</time>
      </trkpt>
      <trkpt lat="45.27278" lon="6.89676">
        <ele>1879</ele>
        <time>2016-07-25T06:15:36Z</time>
      </trkpt>
      <trkpt lat="45.27266" lon="6.89679">
        <ele>1884</ele>
        <time>2016-07-25T06:17:36Z</time>
      </trkpt>
      <trkpt lat="45.27251" lon="6.89672">
        <ele>1889</ele>
        <time>2016-07-25T06:19:36Z</time>
      </trkpt>
      <trkpt lat="45.27247" lon="6.89674">
        <ele>1891</ele>
        <time>2016-07-25T06:21:36Z</time>
      </trkpt>
      <trkpt lat="45.2724" lon="6.89685">
        <ele>1894</ele>
        <time>2016-07-25T06:23:36Z</time>
      </trkpt>
      <trkpt lat="45.27232" lon="6.89704">
        <ele>1898</ele>
        <time>2016-07-25T06:25:36Z</time>
      </trkpt>
      <trkpt lat="45.27228" lon="6.89719">
        <ele>1901</ele>
        <time>2016-07-25T06:27:36Z</time>
      </trkpt>
      <trkpt lat="45.27226" lon="6.89725">
        <ele>1903</ele>
        <time>2016-07-25T06:29:36Z</time>
      </trkpt>
      <trkpt lat="45.27224" lon="6.8973">
        <ele>1904</ele>
        <time>2016-07-25T06:31:36Z</time>
      </trkpt>
      <trkpt lat="45.27218" lon="6.89735">
        <ele>1907</ele>
        <time>2016-07-25T06:33:36Z</time>
      </trkpt>
      <trkpt lat="45.27211" lon="6.89738">
        <ele>1910</ele>
        <time>2016-07-25T06:35:36Z</time>
      </trkpt>
      <trkpt lat="45.27204" lon="6.89732">
        <ele>1912</ele>
        <time>2016-07-25T06:37:36Z</time>
      </trkpt>
      <trkpt lat="45.27202" lon="6.89721">
        <ele>1911</ele>
        <time>2016-07-25T06:39:36Z</time>
      </trkpt>
      <trkpt lat="45.27194" lon="6.8971">
        <ele>1913</ele>
        <time>2016-07-25T06:41:36Z</time>
      </trkpt>
      <trkpt lat="45.27187" lon="6.89701">
        <ele>1915</ele>
        <time>2016-07-25T06:43:36Z</time>
      </trkpt>
      <trkpt lat="45.27181" lon="6.89687">
        <ele>1915</ele>
        <time>2016-07-25T06:45:36Z</time>
      </trkpt>
      <trkpt lat="45.27177" lon="6.89681">
        <ele>1916</ele>
        <time>2016-07-25T06:47:36Z</time>
      </trkpt>
      <trkpt lat="45.2717" lon="6.89679">
        <ele>1918</ele>
        <time>2016-07-25T06:49:36Z</time>
      </trkpt>
      <trkpt lat="45.27166" lon="6.89688">
        <ele>1921</ele>
        <time>2016-07-25T06:51:36Z</time>
      </trkpt>
      <trkpt lat="45.27166" lon="6.89705">
        <ele>1923</ele>
        <time>2016-07-25T06:53:36Z</time>
      </trkpt>
      <trkpt lat="45.27168" lon="6.89715">
        <ele>1924</ele>
        <time>2016-07-25T06:55:36Z</time>
      </trkpt>
      <trkpt lat="45.27173" lon="6.89743">
        <ele>1926</ele>
        <time>2016-07-25T06:57:36Z</time>
      </trkpt>
      <trkpt lat="45.27172" lon="6.89752">
        <ele>1927</ele>
        <time>2016-07-25T06:59:36Z</time>
      </trkpt>
      <trkpt lat="45.27164" lon="6.89746">
        <ele>1930</ele>
        <time>2016-07-25T07:01:36Z</time>
      </trkpt>
      <trkpt lat="45.27157" lon="6.89736">
        <ele>1931</ele>
        <time>2016-07-25T07:03:36Z</time>
      </trkpt>
      <trkpt lat="45.27136" lon="6.89721">
        <ele>1937</ele>
        <time>2016-07-25T07:05:36Z</time>
      </trkpt>
      <trkpt lat="45.27128" lon="6.89717">
        <ele>1940</ele>
        <time>2016-07-25T07:07:36Z</time>
      </trkpt>
      <trkpt lat="45.27121" lon="6.8971">
        <ele>1942</ele>
        <time>2016-07-25T07:09:36Z</time>
      </trkpt>
      <trkpt lat="45.27113" lon="6.89701">
        <ele>1944</ele>
        <time>2016-07-25T07:11:36Z</time>
      </trkpt>
      <trkpt lat="45.27106" lon="6.89689">
        <ele>1945</ele>
        <time>2016-07-25T07:13:36Z</time>
      </trkpt>
      <trkpt lat="45.27098" lon="6.89677">
        <ele>1947</ele>
        <time>2016-07-25T07:15:36Z</time>
      </trkpt>
      <trkpt lat="45.2709" lon="6.89673">
        <ele>1949</ele>
        <time>2016-07-25T07:17:36Z</time>
      </trkpt>
      <trkpt lat="45.27072" lon="6.89671">
        <ele>1955</ele>
        <time>2016-07-25T07:19:36Z</time>
      </trkpt>
      <trkpt lat="45.27055" lon="6.89668">
        <ele>1960</ele>
        <time>2016-07-25T07:21:36Z</time>
      </trkpt>
      <trkpt lat="45.27023" lon="6.89656">
        <ele>1970</ele>
        <time>2016-07-25T07:23:36Z</time>
      </trkpt>
      <trkpt lat="45.2701" lon="6.89647">
        <ele>1974</ele>
        <time>2016-07-25T07:25:36Z</time>
      </trkpt>
      <trkpt lat="45.27004" lon="6.8964">
        <ele>1975</ele>
        <time>2016-07-25T07:27:36Z</time>
      </trkpt>
      <trkpt lat="45.27" lon="6.89633">
        <ele>1976</ele>
        <time>2016-07-25T07:29:36Z</time>
      </trkpt>
      <trkpt lat="45.26997" lon="6.89625">
        <ele>1976</ele>
        <time>2016-07-25T07:31:36Z</time>
      </trkpt>
      <trkpt lat="45.26994" lon="6.89621">
        <ele>1976</ele>
        <time>2016-07-25T07:33:36Z</time>
      </trkpt>
      <trkpt lat="45.26991" lon="6.89617">
        <ele>1976</ele>
        <time>2016-07-25T07:35:36Z</time>
      </trkpt>
      <trkpt lat="45.26985" lon="6.89614">
        <ele>1977</ele>
        <time>2016-07-25T07:37:36Z</time>
      </trkpt>
      <trkpt lat="45.26976" lon="6.89614">
        <ele>1978</ele>
        <time>2016-07-25T07:39:36Z</time>
      </trkpt>
      <trkpt lat="45.26968" lon="6.89615">
        <ele>1979</ele>
        <time>2016-07-25T07:41:36Z</time>
      </trkpt>
      <trkpt lat="45.26948" lon="6.89625">
        <ele>1982</ele>
        <time>2016-07-25T07:43:36Z</time>
      </trkpt>
      <trkpt lat="45.26938" lon="6.89632">
        <ele>1984</ele>
        <time>2016-07-25T07:45:36Z</time>
      </trkpt>
      <trkpt lat="45.26925" lon="6.89637">
        <ele>1986</ele>
        <time>2016-07-25T07:47:36Z</time>
      </trkpt>
      <trkpt lat="45.26914" lon="6.8964">
        <ele>1987</ele>
        <time>2016-07-25T07:49:36Z</time>
      </trkpt>
      <trkpt lat="45.26902" lon="6.89645">
        <ele>1989</ele>
        <time>2016-07-25T07:51:36Z</time>
      </trkpt>
      <trkpt lat="45.26888" lon="6.89651">
        <ele>1991</ele>
        <time>2016-07-25T07:53:36Z</time>
      </trkpt>
      <trkpt lat="45.26867" lon="6.89663">
        <ele>1993</ele>
        <time>2016-07-25T07:55:36Z</time>
      </trkpt>
      <trkpt lat="45.26845" lon="6.89678">
        <ele>1998</ele>
        <time>2016-07-25T07:57:36Z</time>
      </trkpt>
      <trkpt lat="45.26828" lon="6.89692">
        <ele>2003</ele>
        <time>2016-07-25T07:59:36Z</time>
      </trkpt>
      <trkpt lat="45.26818" lon="6.89704">
        <ele>2007</ele>
        <time>2016-07-25T08:01:36Z</time>
      </trkpt>
      <trkpt lat="45.26809" lon="6.89708">
        <ele>2008</ele>
        <time>2016-07-25T08:03:36Z</time>
      </trkpt>
      <trkpt lat="45.26809" lon="6.89708">
        <ele>2008</ele>
        <time>2016-07-25T08:05:36Z</time>
      </trkpt>
      <trkpt lat="45.26816" lon="6.89719">
        <ele>2010</ele>
        <time>2016-07-25T08:07:36Z</time>
      </trkpt>
      <trkpt lat="45.26816" lon="6.89719">
        <ele>2010</ele>
        <time>2016-07-25T08:09:36Z</time>
      </trkpt>
      <trkpt lat="45.26802" lon="6.89722">
        <ele>2012</ele>
        <time>2016-07-25T08:11:36Z</time>
      </trkpt>
      <trkpt lat="45.26795" lon="6.89724">
        <ele>2012</ele>
        <time>2016-07-25T08:13:36Z</time>
      </trkpt>
      <trkpt lat="45.26787" lon="6.89727">
        <ele>2013</ele>
        <time>2016-07-25T08:15:36Z</time>
      </trkpt>
      <trkpt lat="45.2678" lon="6.89731">
        <ele>2014</ele>
        <time>2016-07-25T08:17:36Z</time>
      </trkpt>
      <trkpt lat="45.26773" lon="6.89736">
        <ele>2015</ele>
        <time>2016-07-25T08:19:36Z</time>
      </trkpt>
      <trkpt lat="45.26766" lon="6.89742">
        <ele>2017</ele>
        <time>2016-07-25T08:21:36Z</time>
      </trkpt>
      <trkpt lat="45.2676" lon="6.89749">
        <ele>2018</ele>
        <time>2016-07-25T08:23:36Z</time>
      </trkpt>
      <trkpt lat="45.26753" lon="6.89756">
        <ele>2019</ele>
        <time>2016-07-25T08:25:36Z</time>
      </trkpt>
      <trkpt lat="45.26748" lon="6.89762">
        <ele>2019</ele>
        <time>2016-07-25T08:27:36Z</time>
      </trkpt>
      <trkpt lat="45.26742" lon="6.8977">
        <ele>2020</ele>
        <time>2016-07-25T08:29:36Z</time>
      </trkpt>
      <trkpt lat="45.26736" lon="6.89778">
        <ele>2021</ele>
        <time>2016-07-25T08:31:36Z</time>
      </trkpt>
      <trkpt lat="45.26725" lon="6.89793">
        <ele>2022</ele>
        <time>2016-07-25T08:33:36Z</time>
      </trkpt>
      <trkpt lat="45.26712" lon="6.89808">
        <ele>2022</ele>
        <time>2016-07-25T08:35:36Z</time>
      </trkpt>
      <trkpt lat="45.26706" lon="6.89817">
        <ele>2023</ele>
        <time>2016-07-25T08:37:36Z</time>
      </trkpt>
      <trkpt lat="45.26701" lon="6.89823">
        <ele>2023</ele>
        <time>2016-07-25T08:39:36Z</time>
      </trkpt>
      <trkpt lat="45.26694" lon="6.8983">
        <ele>2023</ele>
        <time>2016-07-25T08:41:36Z</time>
      </trkpt>
      <trkpt lat="45.26688" lon="6.89836">
        <ele>2023</ele>
        <time>2016-07-25T08:43:36Z</time>
      </trkpt>
      <trkpt lat="45.2668" lon="6.89842">
        <ele>2023</ele>
        <time>2016-07-25T08:45:36Z</time>
      </trkpt>
      <trkpt lat="45.26673" lon="6.89847">
        <ele>2024</ele>
        <time>2016-07-25T08:47:36Z</time>
      </trkpt>
      <trkpt lat="45.26666" lon="6.89851">
        <ele>2024</ele>
        <time>2016-07-25T08:49:36Z</time>
      </trkpt>
      <trkpt lat="45.26658" lon="6.89855">
        <ele>2025</ele>
        <time>2016-07-25T08:51:36Z</time>
      </trkpt>
      <trkpt lat="45.2665" lon="6.89858">
        <ele>2026</ele>
        <time>2016-07-25T08:53:36Z</time>
      </trkpt>
      <trkpt lat="45.26642" lon="6.89859">
        <ele>2026</ele>
        <time>2016-07-25T08:55:36Z</time>
      </trkpt>
      <trkpt lat="45.26634" lon="6.8986">
        <ele>2027</ele>
        <time>2016-07-25T08:57:36Z</time>
      </trkpt>
      <trkpt lat="45.26624" lon="6.8986">
        <ele>2027</ele>
        <time>2016-07-25T08:59:36Z</time>
      </trkpt>
      <trkpt lat="45.26609" lon="6.8986">
        <ele>2027</ele>
        <time>2016-07-25T09:01:36Z</time>
      </trkpt>
      <trkpt lat="45.26599" lon="6.89859">
        <ele>2027</ele>
        <time>2016-07-25T09:03:36Z</time>
      </trkpt>
      <trkpt lat="45.26589" lon="6.89859">
        <ele>2028</ele>
        <time>2016-07-25T09:05:36Z</time>
      </trkpt>
      <trkpt lat="45.26577" lon="6.89861">
        <ele>2029</ele>
        <time>2016-07-25T09:07:36Z</time>
      </trkpt>
      <trkpt lat="45.26569" lon="6.89864">
        <ele>2030</ele>
        <time>2016-07-25T09:09:36Z</time>
      </trkpt>
      <trkpt lat="45.26564" lon="6.89867">
        <ele>2030</ele>
        <time>2016-07-25T09:11:36Z</time>
      </trkpt>
      <trkpt lat="45.26559" lon="6.89872">
        <ele>2031</ele>
        <time>2016-07-25T09:13:36Z</time>
      </trkpt>
      <trkpt lat="45.26554" lon="6.89877">
        <ele>2032</ele>
        <time>2016-07-25T09:15:36Z</time>
      </trkpt>
      <trkpt lat="45.2655" lon="6.89882">
        <ele>2033</ele>
        <time>2016-07-25T09:17:36Z</time>
      </trkpt>
      <trkpt lat="45.26547" lon="6.89886">
        <ele>2033</ele>
        <time>2016-07-25T09:19:36Z</time>
      </trkpt>
      <trkpt lat="45.26544" lon="6.89891">
        <ele>2034</ele>
        <time>2016-07-25T09:21:36Z</time>
      </trkpt>
      <trkpt lat="45.26538" lon="6.89899">
        <ele>2035</ele>
        <time>2016-07-25T09:23:36Z</time>
      </trkpt>
      <trkpt lat="45.26533" lon="6.89909">
        <ele>2036</ele>
        <time>2016-07-25T09:25:36Z</time>
      </trkpt>
      <trkpt lat="45.26528" lon="6.89917">
        <ele>2036</ele>
        <time>2016-07-25T09:27:36Z</time>
      </trkpt>
      <trkpt lat="45.26517" lon="6.89935">
        <ele>2038</ele>
        <time>2016-07-25T09:29:36Z</time>
      </trkpt>
      <trkpt lat="45.26506" lon="6.89953">
        <ele>2040</ele>
        <time>2016-07-25T09:31:36Z</time>
      </trkpt>
      <trkpt lat="45.2649" lon="6.89979">
        <ele>2043</ele>
        <time>2016-07-25T09:33:36Z</time>
      </trkpt>
      <trkpt lat="45.26484" lon="6.89988">
        <ele>2044</ele>
        <time>2016-07-25T09:35:36Z</time>
      </trkpt>
      <trkpt lat="45.26478" lon="6.89996">
        <ele>2045</ele>
        <time>2016-07-25T09:37:36Z</time>
      </trkpt>
      <trkpt lat="45.2647" lon="6.90005">
        <ele>2046</ele>
        <time>2016-07-25T09:39:36Z</time>
      </trkpt>
      <trkpt lat="45.26461" lon="6.90013">
        <ele>2047</ele>
        <time>2016-07-25T09:41:36Z</time>
      </trkpt>
      <trkpt lat="45.26449" lon="6.90023">
        <ele>2048</ele>
        <time>2016-07-25T09:43:36Z</time>
      </trkpt>
      <trkpt lat="45.26434" lon="6.90034">
        <ele>2048</ele>
        <time>2016-07-25T09:45:36Z</time>
      </trkpt>
      <trkpt lat="45.2641" lon="6.90051">
        <ele>2049</ele>
        <time>2016-07-25T09:47:36Z</time>
      </trkpt>
      <trkpt lat="45.2638" lon="6.90072">
        <ele>2052</ele>
        <time>2016-07-25T09:49:36Z</time>
      </trkpt>
      <trkpt lat="45.26352" lon="6.90093">
        <ele>2055</ele>
        <time>2016-07-25T09:51:36Z</time>
      </trkpt>
      <trkpt lat="45.26327" lon="6.9011">
        <ele>2058</ele>
        <time>2016-07-25T09:53:36Z</time>
      </trkpt>
      <trkpt lat="45.26306" lon="6.90126">
        <ele>2060</ele>
        <time>2016-07-25T09:55:36Z</time>
      </trkpt>
      <trkpt lat="45.26291" lon="6.90137">
        <ele>2062</ele>
        <time>2016-07-25T09:57:36Z</time>
      </trkpt>
      <trkpt lat="45.26274" lon="6.90147">
        <ele>2063</ele>
        <time>2016-07-25T09:59:36Z</time>
      </trkpt>
      <trkpt lat="45.26261" lon="6.90154">
        <ele>2063</ele>
        <time>2016-07-25T10:01:36Z</time>
      </trkpt>
      <trkpt lat="45.26259" lon="6.90154">
        <ele>2063</ele>
        <time>2016-07-25T10:03:36Z</time>
      </trkpt>
      <trkpt lat="45.26254" lon="6.90155">
        <ele>2063</ele>
        <time>2016-07-25T10:05:36Z</time>
      </trkpt>
      <trkpt lat="45.26247" lon="6.90156">
        <ele>2064</ele>
        <time>2016-07-25T10:07:36Z</time>
      </trkpt>
      <trkpt lat="45.2624" lon="6.90156">
        <ele>2064</ele>
        <time>2016-07-25T10:09:36Z</time>
      </trkpt>
      <trkpt lat="45.26237" lon="6.90156">
        <ele>2064</ele>
        <time>2016-07-25T10:11:36Z</time>
      </trkpt>
      <trkpt lat="45.26233" lon="6.90155">
        <ele>2065</ele>
        <time>2016-07-25T10:13:36Z</time>
      </trkpt>
      <trkpt lat="45.2623" lon="6.90153">
        <ele>2065</ele>
        <time>2016-07-25T10:15:36Z</time>
      </trkpt>
      <trkpt lat="45.26227" lon="6.90152">
        <ele>2065</ele>
        <time>2016-07-25T10:17:36Z</time>
      </trkpt>
      <trkpt lat="45.26223" lon="6.90149">
        <ele>2065</ele>
        <time>2016-07-25T10:19:36Z</time>
      </trkpt>
      <trkpt lat="45.2622" lon="6.90147">
        <ele>2065</ele>
        <time>2016-07-25T10:21:36Z</time>
      </trkpt>
      <trkpt lat="45.26215" lon="6.90141">
        <ele>2065</ele>
        <time>2016-07-25T10:23:36Z</time>
      </trkpt>
      <trkpt lat="45.26212" lon="6.90138">
        <ele>2066</ele>
        <time>2016-07-25T10:25:36Z</time>
      </trkpt>
      <trkpt lat="45.26205" lon="6.90128">
        <ele>2066</ele>
        <time>2016-07-25T10:27:36Z</time>
      </trkpt>
      <trkpt lat="45.262" lon="6.90119">
        <ele>2066</ele>
        <time>2016-07-25T10:29:36Z</time>
      </trkpt>
      <trkpt lat="45.26196" lon="6.9011">
        <ele>2066</ele>
        <time>2016-07-25T10:31:36Z</time>
      </trkpt>
      <trkpt lat="45.26192" lon="6.90103">
        <ele>2066</ele>
        <time>2016-07-25T10:33:36Z</time>
      </trkpt>
      <trkpt lat="45.2619" lon="6.90098">
        <ele>2067</ele>
        <time>2016-07-25T10:35:36Z</time>
      </trkpt>
      <trkpt lat="45.26188" lon="6.90093">
        <ele>2067</ele>
        <time>2016-07-25T10:37:36Z</time>
      </trkpt>
      <trkpt lat="45.26187" lon="6.90088">
        <ele>2067</ele>
        <time>2016-07-25T10:39:36Z</time>
      </trkpt>
      <trkpt lat="45.26186" lon="6.90082">
        <ele>2067</ele>
        <time>2016-07-25T10:41:36Z</time>
      </trkpt>
      <trkpt lat="45.26186" lon="6.90072">
        <ele>2067</ele>
        <time>2016-07-25T10:43:36Z</time>
      </trkpt>
      <trkpt lat="45.26186" lon="6.90062">
        <ele>2067</ele>
        <time>2016-07-25T10:45:36Z</time>
      </trkpt>
      <trkpt lat="45.26187" lon="6.90052">
        <ele>2067</ele>
        <time>2016-07-25T10:47:36Z</time>
      </trkpt>
      <trkpt lat="45.26189" lon="6.90042">
        <ele>2066</ele>
        <time>2016-07-25T10:49:36Z</time>
      </trkpt>
      <trkpt lat="45.26189" lon="6.90032">
        <ele>2066</ele>
        <time>2016-07-25T10:51:36Z</time>
      </trkpt>
      <trkpt lat="45.2619" lon="6.90022">
        <ele>2066</ele>
        <time>2016-07-25T10:53:36Z</time>
      </trkpt>
      <trkpt lat="45.26189" lon="6.90013">
        <ele>2066</ele>
        <time>2016-07-25T10:55:36Z</time>
      </trkpt>
      <trkpt lat="45.26189" lon="6.90008">
        <ele>2066</ele>
        <time>2016-07-25T10:57:36Z</time>
      </trkpt>
      <trkpt lat="45.26188" lon="6.90002">
        <ele>2066</ele>
        <time>2016-07-25T10:59:36Z</time>
      </trkpt>
      <trkpt lat="45.26187" lon="6.89997">
        <ele>2066</ele>
        <time>2016-07-25T11:01:36Z</time>
      </trkpt>
      <trkpt lat="45.26186" lon="6.89993">
        <ele>2067</ele>
        <time>2016-07-25T11:03:36Z</time>
      </trkpt>
      <trkpt lat="45.26184" lon="6.89989">
        <ele>2067</ele>
        <time>2016-07-25T11:05:36Z</time>
      </trkpt>
      <trkpt lat="45.26182" lon="6.89985">
        <ele>2067</ele>
        <time>2016-07-25T11:07:36Z</time>
      </trkpt>
      <trkpt lat="45.2618" lon="6.89982">
        <ele>2067</ele>
        <time>2016-07-25T11:09:36Z</time>
      </trkpt>
      <trkpt lat="45.26178" lon="6.89978">
        <ele>2068</ele>
        <time>2016-07-25T11:11:36Z</time>
      </trkpt>
      <trkpt lat="45.26175" lon="6.89976">
        <ele>2068</ele>
        <time>2016-07-25T11:13:36Z</time>
      </trkpt>
      <trkpt lat="45.26172" lon="6.89974">
        <ele>2069</ele>
        <time>2016-07-25T11:15:36Z</time>
      </trkpt>
      <trkpt lat="45.26166" lon="6.89972">
        <ele>2070</ele>
        <time>2016-07-25T11:17:36Z</time>
      </trkpt>
      <trkpt lat="45.26156" lon="6.89972">
        <ele>2071</ele>
        <time>2016-07-25T11:19:36Z</time>
      </trkpt>
      <trkpt lat="45.26146" lon="6.89974">
        <ele>2073</ele>
        <time>2016-07-25T11:21:36Z</time>
      </trkpt>
      <trkpt lat="45.26139" lon="6.89976">
        <ele>2074</ele>
        <time>2016-07-25T11:23:36Z</time>
      </trkpt>
      <trkpt lat="45.26124" lon="6.89979">
        <ele>2076</ele>
        <time>2016-07-25T11:25:36Z</time>
      </trkpt>
      <trkpt lat="45.2611" lon="6.89984">
        <ele>2077</ele>
        <time>2016-07-25T11:27:36Z</time>
      </trkpt>
      <trkpt lat="45.26089" lon="6.8999">
        <ele>2079</ele>
        <time>2016-07-25T11:29:36Z</time>
      </trkpt>
      <trkpt lat="45.26076" lon="6.89994">
        <ele>2080</ele>
        <time>2016-07-25T11:31:36Z</time>
      </trkpt>
      <trkpt lat="45.26066" lon="6.89996">
        <ele>2082</ele>
        <time>2016-07-25T11:33:36Z</time>
      </trkpt>
      <trkpt lat="45.26059" lon="6.9">
        <ele>2082</ele>
        <time>2016-07-25T11:35:36Z</time>
      </trkpt>
      <trkpt lat="45.26052" lon="6.90003">
        <ele>2083</ele>
        <time>2016-07-25T11:37:36Z</time>
      </trkpt>
      <trkpt lat="45.26044" lon="6.90008">
        <ele>2084</ele>
        <time>2016-07-25T11:39:36Z</time>
      </trkpt>
      <trkpt lat="45.26037" lon="6.90013">
        <ele>2085</ele>
        <time>2016-07-25T11:41:36Z</time>
      </trkpt>
      <trkpt lat="45.26028" lon="6.90021">
        <ele>2086</ele>
        <time>2016-07-25T11:43:36Z</time>
      </trkpt>
      <trkpt lat="45.26019" lon="6.90031">
        <ele>2087</ele>
        <time>2016-07-25T11:45:36Z</time>
      </trkpt>
      <trkpt lat="45.26001" lon="6.90057">
        <ele>2087</ele>
        <time>2016-07-25T11:47:36Z</time>
      </trkpt>
      <trkpt lat="45.2599" lon="6.90075">
        <ele>2086</ele>
        <time>2016-07-25T11:49:36Z</time>
      </trkpt>
      <trkpt lat="45.25972" lon="6.90104">
        <ele>2087</ele>
        <time>2016-07-25T11:51:36Z</time>
      </trkpt>
      <trkpt lat="45.25953" lon="6.90135">
        <ele>2087</ele>
        <time>2016-07-25T11:53:36Z</time>
      </trkpt>
      <trkpt lat="45.2593" lon="6.90175">
        <ele>2085</ele>
        <time>2016-07-25T11:55:36Z</time>
      </trkpt>
      <trkpt lat="45.25911" lon="6.90209">
        <ele>2082</ele>
        <time>2016-07-25T11:57:36Z</time>
      </trkpt>
      <trkpt lat="45.25903" lon="6.90229">
        <ele>2081</ele>
        <time>2016-07-25T11:59:36Z</time>
      </trkpt>
      <trkpt lat="45.25897" lon="6.90244">
        <ele>2080</ele>
        <time>2016-07-25T12:01:36Z</time>
      </trkpt>
      <trkpt lat="45.25894" lon="6.90255">
        <ele>2079</ele>
        <time>2016-07-25T12:03:36Z</time>
      </trkpt>
      <trkpt lat="45.2589" lon="6.9027">
        <ele>2079</ele>
        <time>2016-07-25T12:05:36Z</time>
      </trkpt>
      <trkpt lat="45.25887" lon="6.90281">
        <ele>2079</ele>
        <time>2016-07-25T12:07:36Z</time>
      </trkpt>
      <trkpt lat="45.25885" lon="6.90291">
        <ele>2079</ele>
        <time>2016-07-25T12:09:36Z</time>
      </trkpt>
      <trkpt lat="45.25882" lon="6.90304">
        <ele>2078</ele>
        <time>2016-07-25T12:11:36Z</time>
      </trkpt>
      <trkpt lat="45.25879" lon="6.90317">
        <ele>2078</ele>
        <time>2016-07-25T12:13:36Z</time>
      </trkpt>
      <trkpt lat="45.25875" lon="6.90331">
        <ele>2077</ele>
        <time>2016-07-25T12:15:36Z</time>
      </trkpt>
      <trkpt lat="45.25871" lon="6.90343">
        <ele>2076</ele>
        <time>2016-07-25T12:17:36Z</time>
      </trkpt>
      <trkpt lat="45.25867" lon="6.90357">
        <ele>2076</ele>
        <time>2016-07-25T12:19:36Z</time>
      </trkpt>
      <trkpt lat="45.25862" lon="6.90368">
        <ele>2075</ele>
        <time>2016-07-25T12:21:36Z</time>
      </trkpt>
      <trkpt lat="45.25857" lon="6.90382">
        <ele>2074</ele>
        <time>2016-07-25T12:23:36Z</time>
      </trkpt>
      <trkpt lat="45.25851" lon="6.90396">
        <ele>2073</ele>
        <time>2016-07-25T12:25:36Z</time>
      </trkpt>
      <trkpt lat="45.2584" lon="6.90418">
        <ele>2072</ele>
        <time>2016-07-25T12:27:36Z</time>
      </trkpt>
      <trkpt lat="45.25828" lon="6.90442">
        <ele>2071</ele>
        <time>2016-07-25T12:29:36Z</time>
      </trkpt>
      <trkpt lat="45.25817" lon="6.90467">
        <ele>2071</ele>
        <time>2016-07-25T12:31:36Z</time>
      </trkpt>
      <trkpt lat="45.2581" lon="6.90478">
        <ele>2071</ele>
        <time>2016-07-25T12:33:36Z</time>
      </trkpt>
      <trkpt lat="45.25807" lon="6.90484">
        <ele>2070</ele>
        <time>2016-07-25T12:35:36Z</time>
      </trkpt>
      <trkpt lat="45.25803" lon="6.90489">
        <ele>2070</ele>
        <time>2016-07-25T12:37:36Z</time>
      </trkpt>
      <trkpt lat="45.25796" lon="6.90498">
        <ele>2070</ele>
        <time>2016-07-25T12:39:36Z</time>
      </trkpt>
      <trkpt lat="45.25788" lon="6.90506">
        <ele>2069</ele>
        <time>2016-07-25T12:41:36Z</time>
      </trkpt>
      <trkpt lat="45.25779" lon="6.90513">
        <ele>2069</ele>
        <time>2016-07-25T12:43:36Z</time>
      </trkpt>
      <trkpt lat="45.2577" lon="6.90517">
        <ele>2068</ele>
        <time>2016-07-25T12:45:36Z</time>
      </trkpt>
      <trkpt lat="45.25762" lon="6.9052">
        <ele>2067</ele>
        <time>2016-07-25T12:47:36Z</time>
      </trkpt>
      <trkpt lat="45.25742" lon="6.90527">
        <ele>2066</ele>
        <time>2016-07-25T12:49:36Z</time>
      </trkpt>
      <trkpt lat="45.25724" lon="6.90534">
        <ele>2066</ele>
        <time>2016-07-25T12:51:36Z</time>
      </trkpt>
      <trkpt lat="45.25685" lon="6.90548">
        <ele>2064</ele>
        <time>2016-07-25T12:53:36Z</time>
      </trkpt>
      <trkpt lat="45.25644" lon="6.90564">
        <ele>2061</ele>
        <time>2016-07-25T12:55:36Z</time>
      </trkpt>
      <trkpt lat="45.25624" lon="6.90571">
        <ele>2060</ele>
        <time>2016-07-25T12:57:36Z</time>
      </trkpt>
      <trkpt lat="45.25569" lon="6.9059">
        <ele>2056</ele>
        <time>2016-07-25T12:59:36Z</time>
      </trkpt>
      <trkpt lat="45.2552" lon="6.90607">
        <ele>2055</ele>
        <time>2016-07-25T13:01:36Z</time>
      </trkpt>
      <trkpt lat="45.25459" lon="6.90632">
        <ele>2055</ele>
        <time>2016-07-25T13:03:36Z</time>
      </trkpt>
      <trkpt lat="45.25447" lon="6.90638">
        <ele>2055</ele>
        <time>2016-07-25T13:05:36Z</time>
      </trkpt>
      <trkpt lat="45.25441" lon="6.90643">
        <ele>2055</ele>
        <time>2016-07-25T13:07:36Z</time>
      </trkpt>
      <trkpt lat="45.25433" lon="6.90648">
        <ele>2055</ele>
        <time>2016-07-25T13:09:36Z</time>
      </trkpt>
      <trkpt lat="45.25427" lon="6.90654">
        <ele>2056</ele>
        <time>2016-07-25T13:11:36Z</time>
      </trkpt>
      <trkpt lat="45.2542" lon="6.9066">
        <ele>2056</ele>
        <time>2016-07-25T13:13:36Z</time>
      </trkpt>
      <trkpt lat="45.25414" lon="6.90666">
        <ele>2055</ele>
        <time>2016-07-25T13:15:36Z</time>
      </trkpt>
      <trkpt lat="45.25408" lon="6.90672">
        <ele>2055</ele>
        <time>2016-07-25T13:17:36Z</time>
      </trkpt>
      <trkpt lat="45.25397" lon="6.90685">
        <ele>2054</ele>
        <time>2016-07-25T13:19:36Z</time>
      </trkpt>
      <trkpt lat="45.25386" lon="6.90698">
        <ele>2054</ele>
        <time>2016-07-25T13:21:36Z</time>
      </trkpt>
      <trkpt lat="45.2538" lon="6.90705">
        <ele>2053</ele>
        <time>2016-07-25T13:23:36Z</time>
      </trkpt>
      <trkpt lat="45.25356" lon="6.90735">
        <ele>2053</ele>
        <time>2016-07-25T13:25:36Z</time>
      </trkpt>
      <trkpt lat="45.25343" lon="6.90751">
        <ele>2053</ele>
        <time>2016-07-25T13:27:36Z</time>
      </trkpt>
      <trkpt lat="45.25335" lon="6.90762">
        <ele>2053</ele>
        <time>2016-07-25T13:29:36Z</time>
      </trkpt>
      <trkpt lat="45.25331" lon="6.90768">
        <ele>2053</ele>
        <time>2016-07-25T13:31:36Z</time>
      </trkpt>
      <trkpt lat="45.25325" lon="6.90778">
        <ele>2052</ele>
        <time>2016-07-25T13:33:36Z</time>
      </trkpt>
      <trkpt lat="45.25322" lon="6.90786">
        <ele>2052</ele>
        <time>2016-07-25T13:35:36Z</time>
      </trkpt>
      <trkpt lat="45.25318" lon="6.90795">
        <ele>2051</ele>
        <time>2016-07-25T13:37:36Z</time>
      </trkpt>
      <trkpt lat="45.25315" lon="6.90804">
        <ele>2051</ele>
        <time>2016-07-25T13:39:36Z</time>
      </trkpt>
      <trkpt lat="45.25314" lon="6.90812">
        <ele>2052</ele>
        <time>2016-07-25T13:41:36Z</time>
      </trkpt>
      <trkpt lat="45.25311" lon="6.90826">
        <ele>2053</ele>
        <time>2016-07-25T13:43:36Z</time>
      </trkpt>
      <trkpt lat="45.25309" lon="6.90839">
        <ele>2053</ele>
        <time>2016-07-25T13:45:36Z</time>
      </trkpt>
      <trkpt lat="45.25308" lon="6.9085">
        <ele>2054</ele>
        <time>2016-07-25T13:47:36Z</time>
      </trkpt>
      <trkpt lat="45.25308" lon="6.90858">
        <ele>2054</ele>
        <time>2016-07-25T13:49:36Z</time>
      </trkpt>
      <trkpt lat="45.25309" lon="6.90893">
        <ele>2056</ele>
        <time>2016-07-25T13:51:36Z</time>
      </trkpt>
      <trkpt lat="45.2531" lon="6.90924">
        <ele>2057</ele>
        <time>2016-07-25T13:53:36Z</time>
      </trkpt>
      <trkpt lat="45.2531" lon="6.90948">
        <ele>2057</ele>
        <time>2016-07-25T13:55:36Z</time>
      </trkpt>
      <trkpt lat="45.25311" lon="6.90979">
        <ele>2057</ele>
        <time>2016-07-25T13:57:36Z</time>
      </trkpt>
      <trkpt lat="45.25312" lon="6.9101">
        <ele>2057</ele>
        <time>2016-07-25T13:59:36Z</time>
      </trkpt>
      <trkpt lat="45.25313" lon="6.9104">
        <ele>2057</ele>
        <time>2016-07-25T14:01:36Z</time>
      </trkpt>
      <trkpt lat="45.25313" lon="6.91061">
        <ele>2057</ele>
        <time>2016-07-25T14:03:36Z</time>
      </trkpt>
      <trkpt lat="45.25314" lon="6.9108">
        <ele>2057</ele>
        <time>2016-07-25T14:05:36Z</time>
      </trkpt>
      <trkpt lat="45.25313" lon="6.91096">
        <ele>2057</ele>
        <time>2016-07-25T14:07:36Z</time>
      </trkpt>
      <trkpt lat="45.25312" lon="6.91112">
        <ele>2057</ele>
        <time>2016-07-25T14:09:36Z</time>
      </trkpt>
      <trkpt lat="45.2531" lon="6.91132">
        <ele>2058</ele>
        <time>2016-07-25T14:11:36Z</time>
      </trkpt>
      <trkpt lat="45.25305" lon="6.91153">
        <ele>2056</ele>
        <time>2016-07-25T14:13:36Z</time>
      </trkpt>
      <trkpt lat="45.25301" lon="6.9117">
        <ele>2055</ele>
        <time>2016-07-25T14:15:36Z</time>
      </trkpt>
      <trkpt lat="45.25297" lon="6.91186">
        <ele>2054</ele>
        <time>2016-07-25T14:17:36Z</time>
      </trkpt>
      <trkpt lat="45.25293" lon="6.91204">
        <ele>2053</ele>
        <time>2016-07-25T14:19:36Z</time>
      </trkpt>
      <trkpt lat="45.25288" lon="6.91225">
        <ele>2052</ele>
        <time>2016-07-25T14:21:36Z</time>
      </trkpt>
      <trkpt lat="45.25285" lon="6.91246">
        <ele>2052</ele>
        <time>2016-07-25T14:23:36Z</time>
      </trkpt>
      <trkpt lat="45.25283" lon="6.91261">
        <ele>2051</ele>
        <time>2016-07-25T14:25:36Z</time>
      </trkpt>
      <trkpt lat="45.25282" lon="6.91278">
        <ele>2050</ele>
        <time>2016-07-25T14:27:36Z</time>
      </trkpt>
      <trkpt lat="45.25281" lon="6.91298">
        <ele>2050</ele>
        <time>2016-07-25T14:29:36Z</time>
      </trkpt>
      <trkpt lat="45.25281" lon="6.91335">
        <ele>2049</ele>
        <time>2016-07-25T14:31:36Z</time>
      </trkpt>
      <trkpt lat="45.2528" lon="6.91355">
        <ele>2049</ele>
        <time>2016-07-25T14:33:36Z</time>
      </trkpt>
      <trkpt lat="45.25279" lon="6.91382">
        <ele>2050</ele>
        <time>2016-07-25T14:35:36Z</time>
      </trkpt>
      <trkpt lat="45.25278" lon="6.91403">
        <ele>2050</ele>
        <time>2016-07-25T14:37:36Z</time>
      </trkpt>
      <trkpt lat="45.25276" lon="6.91436">
        <ele>2051</ele>
        <time>2016-07-25T14:39:36Z</time>
      </trkpt>
      <trkpt lat="45.25273" lon="6.91464">
        <ele>2051</ele>
        <time>2016-07-25T14:41:36Z</time>
      </trkpt>
      <trkpt lat="45.25269" lon="6.91493">
        <ele>2051</ele>
        <time>2016-07-25T14:43:36Z</time>
      </trkpt>
      <trkpt lat="45.25265" lon="6.91519">
        <ele>2050</ele>
        <time>2016-07-25T14:45:36Z</time>
      </trkpt>
      <trkpt lat="45.25261" lon="6.9154">
        <ele>2050</ele>
        <time>2016-07-25T14:47:36Z</time>
      </trkpt>
      <trkpt lat="45.25257" lon="6.91559">
        <ele>2049</ele>
        <time>2016-07-25T14:49:36Z</time>
      </trkpt>
      <trkpt lat="45.25252" lon="6.91578">
        <ele>2047</ele>
        <time>2016-07-25T14:51:36Z</time>
      </trkpt>
      <trkpt lat="45.25246" lon="6.916">
        <ele>2045</ele>
        <time>2016-07-25T14:53:36Z</time>
      </trkpt>
      <trkpt lat="45.25244" lon="6.91609">
        <ele>2045</ele>
        <time>2016-07-25T14:55:36Z</time>
      </trkpt>
      <trkpt lat="45.2524" lon="6.91621">
        <ele>2044</ele>
        <time>2016-07-25T14:57:36Z</time>
      </trkpt>
      <trkpt lat="45.25231" lon="6.91663">
        <ele>2042</ele>
        <time>2016-07-25T14:59:36Z</time>
      </trkpt>
      <trkpt lat="45.25221" lon="6.917">
        <ele>2042</ele>
        <time>2016-07-25T15:01:36Z</time>
      </trkpt>
      <trkpt lat="45.25216" lon="6.91718">
        <ele>2042</ele>
        <time>2016-07-25T15:03:36Z</time>
      </trkpt>
      <trkpt lat="45.25213" lon="6.91731">
        <ele>2043</ele>
        <time>2016-07-25T15:05:36Z</time>
      </trkpt>
      <trkpt lat="45.25209" lon="6.91748">
        <ele>2044</ele>
        <time>2016-07-25T15:07:36Z</time>
      </trkpt>
      <trkpt lat="45.25205" lon="6.91768">
        <ele>2044</ele>
        <time>2016-07-25T15:09:36Z</time>
      </trkpt>
      <trkpt lat="45.25202" lon="6.91791">
        <ele>2044</ele>
        <time>2016-07-25T15:11:36Z</time>
      </trkpt>
      <trkpt lat="45.25198" lon="6.91819">
        <ele>2045</ele>
        <time>2016-07-25T15:13:36Z</time>
      </trkpt>
      <trkpt lat="45.25184" lon="6.91919">
        <ele>2046</ele>
        <time>2016-07-25T15:15:36Z</time>
      </trkpt>
      <trkpt lat="45.25175" lon="6.91993">
        <ele>2050</ele>
        <time>2016-07-25T15:17:36Z</time>
      </trkpt>
      <trkpt lat="45.25173" lon="6.92016">
        <ele>2052</ele>
        <time>2016-07-25T15:19:36Z</time>
      </trkpt>
      <trkpt lat="45.25169" lon="6.92045">
        <ele>2053</ele>
        <time>2016-07-25T15:21:36Z</time>
      </trkpt>
      <trkpt lat="45.25167" lon="6.92068">
        <ele>2054</ele>
        <time>2016-07-25T15:23:36Z</time>
      </trkpt>
      <trkpt lat="45.25163" lon="6.92096">
        <ele>2055</ele>
        <time>2016-07-25T15:25:36Z</time>
      </trkpt>
      <trkpt lat="45.25161" lon="6.92112">
        <ele>2056</ele>
        <time>2016-07-25T15:27:36Z</time>
      </trkpt>
      <trkpt lat="45.25158" lon="6.92126">
        <ele>2057</ele>
        <time>2016-07-25T15:29:36Z</time>
      </trkpt>
      <trkpt lat="45.25155" lon="6.9214">
        <ele>2057</ele>
        <time>2016-07-25T15:31:36Z</time>
      </trkpt>
      <trkpt lat="45.25152" lon="6.92154">
        <ele>2057</ele>
        <time>2016-07-25T15:33:36Z</time>
      </trkpt>
      <trkpt lat="45.25145" lon="6.92178">
        <ele>2057</ele>
        <time>2016-07-25T15:35:36Z</time>
      </trkpt>
      <trkpt lat="45.25139" lon="6.92195">
        <ele>2057</ele>
        <time>2016-07-25T15:37:36Z</time>
      </trkpt>
      <trkpt lat="45.2513" lon="6.92219">
        <ele>2056</ele>
        <time>2016-07-25T15:39:36Z</time>
      </trkpt>
      <trkpt lat="45.25124" lon="6.92234">
        <ele>2055</ele>
        <time>2016-07-25T15:41:36Z</time>
      </trkpt>
      <trkpt lat="45.25111" lon="6.92261">
        <ele>2054</ele>
        <time>2016-07-25T15:43:36Z</time>
      </trkpt>
      <trkpt lat="45.25094" lon="6.92298">
        <ele>2056</ele>
        <time>2016-07-25T15:45:36Z</time>
      </trkpt>
      <trkpt lat="45.25077" lon="6.92331">
        <ele>2056</ele>
        <time>2016-07-25T15:47:36Z</time>
      </trkpt>
      <trkpt lat="45.25063" lon="6.9236">
        <ele>2058</ele>
        <time>2016-07-25T15:49:36Z</time>
      </trkpt>
      <trkpt lat="45.25053" lon="6.92379">
        <ele>2059</ele>
        <time>2016-07-25T15:51:36Z</time>
      </trkpt>
      <trkpt lat="45.25047" lon="6.92392">
        <ele>2060</ele>
        <time>2016-07-25T15:53:36Z</time>
      </trkpt>
      <trkpt lat="45.25038" lon="6.92409">
        <ele>2061</ele>
        <time>2016-07-25T15:55:36Z</time>
      </trkpt>
      <trkpt lat="45.25026" lon="6.92432">
        <ele>2063</ele>
        <time>2016-07-25T15:57:36Z</time>
      </trkpt>
      <trkpt lat="45.25015" lon="6.92457">
        <ele>2065</ele>
        <time>2016-07-25T15:59:36Z</time>
      </trkpt>
      <trkpt lat="45.25009" lon="6.92469">
        <ele>2066</ele>
        <time>2016-07-25T16:01:36Z</time>
      </trkpt>
      <trkpt lat="45.25004" lon="6.92481">
        <ele>2067</ele>
        <time>2016-07-25T16:03:36Z</time>
      </trkpt>
      <trkpt lat="45.24999" lon="6.92494">
        <ele>2068</ele>
        <time>2016-07-25T16:05:36Z</time>
      </trkpt>
      <trkpt lat="45.24995" lon="6.92507">
        <ele>2069</ele>
        <time>2016-07-25T16:07:36Z</time>
      </trkpt>
      <trkpt lat="45.24988" lon="6.92532">
        <ele>2070</ele>
        <time>2016-07-25T16:09:36Z</time>
      </trkpt>
      <trkpt lat="45.24981" lon="6.9256">
        <ele>2072</ele>
        <time>2016-07-25T16:11:36Z</time>
      </trkpt>
      <trkpt lat="45.24972" lon="6.92602">
        <ele>2075</ele>
        <time>2016-07-25T16:13:36Z</time>
      </trkpt>
      <trkpt lat="45.24965" lon="6.9263">
        <ele>2076</ele>
        <time>2016-07-25T16:15:36Z</time>
      </trkpt>
      <trkpt lat="45.24959" lon="6.9266">
        <ele>2078</ele>
        <time>2016-07-25T16:17:36Z</time>
      </trkpt>
      <trkpt lat="45.24952" lon="6.92689">
        <ele>2080</ele>
        <time>2016-07-25T16:19:36Z</time>
      </trkpt>
      <trkpt lat="45.24944" lon="6.92716">
        <ele>2081</ele>
        <time>2016-07-25T16:21:36Z</time>
      </trkpt>
      <trkpt lat="45.24934" lon="6.92744">
        <ele>2082</ele>
        <time>2016-07-25T16:23:36Z</time>
      </trkpt>
      <trkpt lat="45.24924" lon="6.9277">
        <ele>2081</ele>
        <time>2016-07-25T16:25:36Z</time>
      </trkpt>
      <trkpt lat="45.24913" lon="6.92794">
        <ele>2079</ele>
        <time>2016-07-25T16:27:36Z</time>
      </trkpt>
      <trkpt lat="45.24904" lon="6.92811">
        <ele>2079</ele>
        <time>2016-07-25T16:29:36Z</time>
      </trkpt>
      <trkpt lat="45.24892" lon="6.92835">
        <ele>2078</ele>
        <time>2016-07-25T16:31:36Z</time>
      </trkpt>
      <trkpt lat="45.24882" lon="6.92854">
        <ele>2078</ele>
        <time>2016-07-25T16:33:36Z</time>
      </trkpt>
      <trkpt lat="45.24872" lon="6.92874">
        <ele>2079</ele>
        <time>2016-07-25T16:35:36Z</time>
      </trkpt>
      <trkpt lat="45.24865" lon="6.92888">
        <ele>2080</ele>
        <time>2016-07-25T16:37:36Z</time>
      </trkpt>
      <trkpt lat="45.24858" lon="6.92899">
        <ele>2080</ele>
        <time>2016-07-25T16:39:36Z</time>
      </trkpt>
      <trkpt lat="45.24852" lon="6.92911">
        <ele>2081</ele>
        <time>2016-07-25T16:41:36Z</time>
      </trkpt>
      <trkpt lat="45.24845" lon="6.92929">
        <ele>2082</ele>
        <time>2016-07-25T16:43:36Z</time>
      </trkpt>
      <trkpt lat="45.24839" lon="6.92944">
        <ele>2082</ele>
        <time>2016-07-25T16:45:36Z</time>
      </trkpt>
      <trkpt lat="45.24835" lon="6.92957">
        <ele>2082</ele>
        <time>2016-07-25T16:47:36Z</time>
      </trkpt>
      <trkpt lat="45.24831" lon="6.9297">
        <ele>2082</ele>
        <time>2016-07-25T16:49:36Z</time>
      </trkpt>
      <trkpt lat="45.24827" lon="6.92985">
        <ele>2081</ele>
        <time>2016-07-25T16:51:36Z</time>
      </trkpt>
      <trkpt lat="45.24823" lon="6.93001">
        <ele>2081</ele>
        <time>2016-07-25T16:53:36Z</time>
      </trkpt>
      <trkpt lat="45.24819" lon="6.93022">
        <ele>2080</ele>
        <time>2016-07-25T16:55:36Z</time>
      </trkpt>
      <trkpt lat="45.24814" lon="6.93046">
        <ele>2079</ele>
        <time>2016-07-25T16:57:36Z</time>
      </trkpt>
      <trkpt lat="45.24807" lon="6.93077">
        <ele>2077</ele>
        <time>2016-07-25T16:59:36Z</time>
      </trkpt>
      <trkpt lat="45.24791" lon="6.93158">
        <ele>2078</ele>
        <time>2016-07-25T17:01:36Z</time>
      </trkpt>
      <trkpt lat="45.24783" lon="6.93194">
        <ele>2079</ele>
        <time>2016-07-25T17:03:36Z</time>
      </trkpt>
      <trkpt lat="45.24777" lon="6.93223">
        <ele>2078</ele>
        <time>2016-07-25T17:05:36Z</time>
      </trkpt>
      <trkpt lat="45.2477" lon="6.93255">
        <ele>2077</ele>
        <time>2016-07-25T17:07:36Z</time>
      </trkpt>
      <trkpt lat="45.24766" lon="6.93273">
        <ele>2076</ele>
        <time>2016-07-25T17:09:36Z</time>
      </trkpt>
      <trkpt lat="45.24763" lon="6.93291">
        <ele>2077</ele>
        <time>2016-07-25T17:11:36Z</time>
      </trkpt>
      <trkpt lat="45.24759" lon="6.93307">
        <ele>2076</ele>
        <time>2016-07-25T17:13:36Z</time>
      </trkpt>
      <trkpt lat="45.24755" lon="6.93321">
        <ele>2075</ele>
        <time>2016-07-25T17:15:36Z</time>
      </trkpt>
      <trkpt lat="45.2475" lon="6.93337">
        <ele>2074</ele>
        <time>2016-07-25T17:17:36Z</time>
      </trkpt>
      <trkpt lat="45.24745" lon="6.93352">
        <ele>2074</ele>
        <time>2016-07-25T17:19:36Z</time>
      </trkpt>
      <trkpt lat="45.24739" lon="6.93365">
        <ele>2073</ele>
        <time>2016-07-25T17:21:36Z</time>
      </trkpt>
      <trkpt lat="45.24733" lon="6.93379">
        <ele>2072</ele>
        <time>2016-07-25T17:23:36Z</time>
      </trkpt>
      <trkpt lat="45.24726" lon="6.93392">
        <ele>2071</ele>
        <time>2016-07-25T17:25:36Z</time>
      </trkpt>
      <trkpt lat="45.24719" lon="6.93406">
        <ele>2070</ele>
        <time>2016-07-25T17:27:36Z</time>
      </trkpt>
      <trkpt lat="45.24713" lon="6.93416">
        <ele>2069</ele>
        <time>2016-07-25T17:29:36Z</time>
      </trkpt>
      <trkpt lat="45.24698" lon="6.9344">
        <ele>2068</ele>
        <time>2016-07-25T17:31:36Z</time>
      </trkpt>
      <trkpt lat="45.24685" lon="6.93463">
        <ele>2068</ele>
        <time>2016-07-25T17:33:36Z</time>
      </trkpt>
      <trkpt lat="45.24678" lon="6.9348">
        <ele>2068</ele>
        <time>2016-07-25T17:35:36Z</time>
      </trkpt>
      <trkpt lat="45.24673" lon="6.93489">
        <ele>2068</ele>
        <time>2016-07-25T17:37:36Z</time>
      </trkpt>
      <trkpt lat="45.24672" lon="6.93494">
        <ele>2068</ele>
        <time>2016-07-25T17:39:36Z</time>
      </trkpt>
      <trkpt lat="45.24669" lon="6.93502">
        <ele>2068</ele>
        <time>2016-07-25T17:41:36Z</time>
      </trkpt>
      <trkpt lat="45.24667" lon="6.9351">
        <ele>2068</ele>
        <time>2016-07-25T17:43:36Z</time>
      </trkpt>
      <trkpt lat="45.24664" lon="6.93523">
        <ele>2068</ele>
        <time>2016-07-25T17:45:36Z</time>
      </trkpt>
      <trkpt lat="45.24662" lon="6.93538">
        <ele>2068</ele>
        <time>2016-07-25T17:47:36Z</time>
      </trkpt>
      <trkpt lat="45.2466" lon="6.93553">
        <ele>2068</ele>
        <time>2016-07-25T17:49:36Z</time>
      </trkpt>
      <trkpt lat="45.24659" lon="6.93568">
        <ele>2069</ele>
        <time>2016-07-25T17:51:36Z</time>
      </trkpt>
      <trkpt lat="45.24659" lon="6.93584">
        <ele>2070</ele>
        <time>2016-07-25T17:53:36Z</time>
      </trkpt>
      <trkpt lat="45.24659" lon="6.93605">
        <ele>2072</ele>
        <time>2016-07-25T17:55:36Z</time>
      </trkpt>
      <trkpt lat="45.24658" lon="6.9363">
        <ele>2073</ele>
        <time>2016-07-25T17:57:36Z</time>
      </trkpt>
      <trkpt lat="45.24656" lon="6.93666">
        <ele>2075</ele>
        <time>2016-07-25T17:59:36Z</time>
      </trkpt>
      <trkpt lat="45.24655" lon="6.93696">
        <ele>2075</ele>
        <time>2016-07-25T18:01:36Z</time>
      </trkpt>
      <trkpt lat="45.24654" lon="6.93715">
        <ele>2075</ele>
        <time>2016-07-25T18:03:36Z</time>
      </trkpt>
      <trkpt lat="45.24652" lon="6.93728">
        <ele>2075</ele>
        <time>2016-07-25T18:05:36Z</time>
      </trkpt>
      <trkpt lat="45.2465" lon="6.93739">
        <ele>2074</ele>
        <time>2016-07-25T18:07:36Z</time>
      </trkpt>
      <trkpt lat="45.24647" lon="6.93751">
        <ele>2073</ele>
        <time>2016-07-25T18:09:36Z</time>
      </trkpt>
      <trkpt lat="45.24644" lon="6.93761">
        <ele>2074</ele>
        <time>2016-07-25T18:11:36Z</time>
      </trkpt>
      <trkpt lat="45.24639" lon="6.93772">
        <ele>2075</ele>
        <time>2016-07-25T18:13:36Z</time>
      </trkpt>
      <trkpt lat="45.24634" lon="6.93782">
        <ele>2075</ele>
        <time>2016-07-25T18:15:36Z</time>
      </trkpt>
      <trkpt lat="45.24629" lon="6.93791">
        <ele>2075</ele>
        <time>2016-07-25T18:17:36Z</time>
      </trkpt>
      <trkpt lat="45.24624" lon="6.93801">
        <ele>2076</ele>
        <time>2016-07-25T18:19:36Z</time>
      </trkpt>
      <trkpt lat="45.24619" lon="6.93807">
        <ele>2075</ele>
        <time>2016-07-25T18:21:36Z</time>
      </trkpt>
      <trkpt lat="45.24603" lon="6.9383">
        <ele>2076</ele>
        <time>2016-07-25T18:23:36Z</time>
      </trkpt>
      <trkpt lat="45.24591" lon="6.93848">
        <ele>2075</ele>
        <time>2016-07-25T18:25:36Z</time>
      </trkpt>
      <trkpt lat="45.2456" lon="6.9389">
        <ele>2073</ele>
        <time>2016-07-25T18:27:36Z</time>
      </trkpt>
      <trkpt lat="45.24546" lon="6.93912">
        <ele>2072</ele>
        <time>2016-07-25T18:29:36Z</time>
      </trkpt>
      <trkpt lat="45.2453" lon="6.93936">
        <ele>2072</ele>
        <time>2016-07-25T18:31:36Z</time>
      </trkpt>
      <trkpt lat="45.24514" lon="6.93962">
        <ele>2072</ele>
        <time>2016-07-25T18:33:36Z</time>
      </trkpt>
      <trkpt lat="45.24506" lon="6.93978">
        <ele>2073</ele>
        <time>2016-07-25T18:35:36Z</time>
      </trkpt>
      <trkpt lat="45.245" lon="6.93991">
        <ele>2073</ele>
        <time>2016-07-25T18:37:36Z</time>
      </trkpt>
      <trkpt lat="45.24493" lon="6.94006">
        <ele>2074</ele>
        <time>2016-07-25T18:39:36Z</time>
      </trkpt>
      <trkpt lat="45.24483" lon="6.94025">
        <ele>2073</ele>
        <time>2016-07-25T18:41:36Z</time>
      </trkpt>
      <trkpt lat="45.24472" lon="6.94049">
        <ele>2073</ele>
        <time>2016-07-25T18:43:36Z</time>
      </trkpt>
      <trkpt lat="45.24456" lon="6.94079">
        <ele>2072</ele>
        <time>2016-07-25T18:45:36Z</time>
      </trkpt>
      <trkpt lat="45.24439" lon="6.94113">
        <ele>2073</ele>
        <time>2016-07-25T18:47:36Z</time>
      </trkpt>
      <trkpt lat="45.24427" lon="6.94137">
        <ele>2073</ele>
        <time>2016-07-25T18:49:36Z</time>
      </trkpt>
      <trkpt lat="45.24415" lon="6.94162">
        <ele>2074</ele>
        <time>2016-07-25T18:51:36Z</time>
      </trkpt>
      <trkpt lat="45.24407" lon="6.94181">
        <ele>2075</ele>
        <time>2016-07-25T18:53:36Z</time>
      </trkpt>
      <trkpt lat="45.24401" lon="6.94198">
        <ele>2076</ele>
        <time>2016-07-25T18:55:36Z</time>
      </trkpt>
      <trkpt lat="45.24385" lon="6.94243">
        <ele>2076</ele>
        <time>2016-07-25T18:57:36Z</time>
      </trkpt>
      <trkpt lat="45.24372" lon="6.94281">
        <ele>2077</ele>
        <time>2016-07-25T18:59:36Z</time>
      </trkpt>
      <trkpt lat="45.24357" lon="6.9433">
        <ele>2081</ele>
        <time>2016-07-25T19:01:36Z</time>
      </trkpt>
      <trkpt lat="45.24341" lon="6.94385">
        <ele>2079</ele>
        <time>2016-07-25T19:03:36Z</time>
      </trkpt>
      <trkpt lat="45.24337" lon="6.94399">
        <ele>2079</ele>
        <time>2016-07-25T19:05:36Z</time>
      </trkpt>
      <trkpt lat="45.24333" lon="6.94412">
        <ele>2079</ele>
        <time>2016-07-25T19:07:36Z</time>
      </trkpt>
      <trkpt lat="45.24329" lon="6.94426">
        <ele>2079</ele>
        <time>2016-07-25T19:09:36Z</time>
      </trkpt>
      <trkpt lat="45.24324" lon="6.94441">
        <ele>2079</ele>
        <time>2016-07-25T19:11:36Z</time>
      </trkpt>
      <trkpt lat="45.24321" lon="6.94452">
        <ele>2079</ele>
        <time>2016-07-25T19:13:36Z</time>
      </trkpt>
      <trkpt lat="45.24317" lon="6.94465">
        <ele>2079</ele>
        <time>2016-07-25T19:15:36Z</time>
      </trkpt>
      <trkpt lat="45.24314" lon="6.94478">
        <ele>2079</ele>
        <time>2016-07-25T19:17:36Z</time>
      </trkpt>
      <trkpt lat="45.2431" lon="6.94491">
        <ele>2079</ele>
        <time>2016-07-25T19:19:36Z</time>
      </trkpt>
      <trkpt lat="45.24307" lon="6.94503">
        <ele>2080</ele>
        <time>2016-07-25T19:21:36Z</time>
      </trkpt>
      <trkpt lat="45.24304" lon="6.94516">
        <ele>2079</ele>
        <time>2016-07-25T19:23:36Z</time>
      </trkpt>
      <trkpt lat="45.24302" lon="6.94529">
        <ele>2079</ele>
        <time>2016-07-25T19:25:36Z</time>
      </trkpt>
      <trkpt lat="45.24301" lon="6.94542">
        <ele>2080</ele>
        <time>2016-07-25T19:27:36Z</time>
      </trkpt>
      <trkpt lat="45.243" lon="6.94555">
        <ele>2080</ele>
        <time>2016-07-25T19:29:36Z</time>
      </trkpt>
      <trkpt lat="45.24299" lon="6.94568">
        <ele>2081</ele>
        <time>2016-07-25T19:31:36Z</time>
      </trkpt>
      <trkpt lat="45.24298" lon="6.94581">
        <ele>2081</ele>
        <time>2016-07-25T19:33:36Z</time>
      </trkpt>
      <trkpt lat="45.24298" lon="6.94593">
        <ele>2081</ele>
        <time>2016-07-25T19:35:36Z</time>
      </trkpt>
      <trkpt lat="45.24299" lon="6.94607">
        <ele>2082</ele>
        <time>2016-07-25T19:37:36Z</time>
      </trkpt>
      <trkpt lat="45.243" lon="6.94623">
        <ele>2082</ele>
        <time>2016-07-25T19:39:36Z</time>
      </trkpt>
      <trkpt lat="45.24304" lon="6.94643">
        <ele>2084</ele>
        <time>2016-07-25T19:41:36Z</time>
      </trkpt>
      <trkpt lat="45.24307" lon="6.94658">
        <ele>2085</ele>
        <time>2016-07-25T19:43:36Z</time>
      </trkpt>
      <trkpt lat="45.2431" lon="6.94673">
        <ele>2086</ele>
        <time>2016-07-25T19:45:36Z</time>
      </trkpt>
      <trkpt lat="45.24313" lon="6.94684">
        <ele>2086</ele>
        <time>2016-07-25T19:47:36Z</time>
      </trkpt>
      <trkpt lat="45.24316" lon="6.94697">
        <ele>2086</ele>
        <time>2016-07-25T19:49:36Z</time>
      </trkpt>
      <trkpt lat="45.24319" lon="6.94708">
        <ele>2086</ele>
        <time>2016-07-25T19:51:36Z</time>
      </trkpt>
      <trkpt lat="45.24322" lon="6.94717">
        <ele>2086</ele>
        <time>2016-07-25T19:53:36Z</time>
      </trkpt>
      <trkpt lat="45.24325" lon="6.94726">
        <ele>2087</ele>
        <time>2016-07-25T19:55:36Z</time>
      </trkpt>
      <trkpt lat="45.24329" lon="6.94742">
        <ele>2087</ele>
        <time>2016-07-25T19:57:36Z</time>
      </trkpt>
      <trkpt lat="45.24331" lon="6.94752">
        <ele>2087</ele>
        <time>2016-07-25T19:59:36Z</time>
      </trkpt>
      <trkpt lat="45.24334" lon="6.94764">
        <ele>2089</ele>
        <time>2016-07-25T20:01:36Z</time>
      </trkpt>
      <trkpt lat="45.24336" lon="6.94777">
        <ele>2090</ele>
        <time>2016-07-25T20:03:36Z</time>
      </trkpt>
      <trkpt lat="45.24338" lon="6.94794">
        <ele>2092</ele>
        <time>2016-07-25T20:05:36Z</time>
      </trkpt>
      <trkpt lat="45.2434" lon="6.94811">
        <ele>2093</ele>
        <time>2016-07-25T20:07:36Z</time>
      </trkpt>
      <trkpt lat="45.24342" lon="6.94824">
        <ele>2095</ele>
        <time>2016-07-25T20:09:36Z</time>
      </trkpt>
      <trkpt lat="45.24342" lon="6.94838">
        <ele>2095</ele>
        <time>2016-07-25T20:11:36Z</time>
      </trkpt>
      <trkpt lat="45.24343" lon="6.94849">
        <ele>2096</ele>
        <time>2016-07-25T20:13:36Z</time>
      </trkpt>
      <trkpt lat="45.24343" lon="6.9486">
        <ele>2097</ele>
        <time>2016-07-25T20:15:36Z</time>
      </trkpt>
      <trkpt lat="45.24342" lon="6.94871">
        <ele>2097</ele>
        <time>2016-07-25T20:17:36Z</time>
      </trkpt>
      <trkpt lat="45.24339" lon="6.94882">
        <ele>2096</ele>
        <time>2016-07-25T20:19:36Z</time>
      </trkpt>
      <trkpt lat="45.24335" lon="6.94891">
        <ele>2095</ele>
        <time>2016-07-25T20:21:36Z</time>
      </trkpt>
      <trkpt lat="45.24331" lon="6.949">
        <ele>2095</ele>
        <time>2016-07-25T20:23:36Z</time>
      </trkpt>
      <trkpt lat="45.24325" lon="6.94907">
        <ele>2095</ele>
        <time>2016-07-25T20:25:36Z</time>
      </trkpt>
      <trkpt lat="45.24319" lon="6.94913">
        <ele>2095</ele>
        <time>2016-07-25T20:27:36Z</time>
      </trkpt>
      <trkpt lat="45.24313" lon="6.94917">
        <ele>2095</ele>
        <time>2016-07-25T20:29:36Z</time>
      </trkpt>
      <trkpt lat="45.24308" lon="6.94919">
        <ele>2095</ele>
        <time>2016-07-25T20:31:36Z</time>
      </trkpt>
      <trkpt lat="45.24305" lon="6.9492">
        <ele>2095</ele>
        <time>2016-07-25T20:33:36Z</time>
      </trkpt>
      <trkpt lat="45.243" lon="6.9492">
        <ele>2095</ele>
        <time>2016-07-25T20:35:36Z</time>
      </trkpt>
      <trkpt lat="45.24296" lon="6.94918">
        <ele>2094</ele>
        <time>2016-07-25T20:37:36Z</time>
      </trkpt>
      <trkpt lat="45.24291" lon="6.94916">
        <ele>2093</ele>
        <time>2016-07-25T20:39:36Z</time>
      </trkpt>
      <trkpt lat="45.24285" lon="6.94914">
        <ele>2093</ele>
        <time>2016-07-25T20:41:36Z</time>
      </trkpt>
      <trkpt lat="45.24279" lon="6.94911">
        <ele>2092</ele>
        <time>2016-07-25T20:43:36Z</time>
      </trkpt>
      <trkpt lat="45.24271" lon="6.94909">
        <ele>2091</ele>
        <time>2016-07-25T20:45:36Z</time>
      </trkpt>
      <trkpt lat="45.24265" lon="6.94908">
        <ele>2091</ele>
        <time>2016-07-25T20:47:36Z</time>
      </trkpt>
      <trkpt lat="45.24259" lon="6.9491">
        <ele>2091</ele>
        <time>2016-07-25T20:49:36Z</time>
      </trkpt>
      <trkpt lat="45.24252" lon="6.94912">
        <ele>2091</ele>
        <time>2016-07-25T20:51:36Z</time>
      </trkpt>
      <trkpt lat="45.24246" lon="6.94916">
        <ele>2091</ele>
        <time>2016-07-25T20:53:36Z</time>
      </trkpt>
      <trkpt lat="45.24241" lon="6.94922">
        <ele>2092</ele>
        <time>2016-07-25T20:55:36Z</time>
      </trkpt>
      <trkpt lat="45.2423" lon="6.94935">
        <ele>2093</ele>
        <time>2016-07-25T20:57:36Z</time>
      </trkpt>
      <trkpt lat="45.2422" lon="6.94948">
        <ele>2094</ele>
        <time>2016-07-25T20:59:36Z</time>
      </trkpt>
      <trkpt lat="45.24209" lon="6.94965">
        <ele>2096</ele>
        <time>2016-07-25T21:01:36Z</time>
      </trkpt>
      <trkpt lat="45.24199" lon="6.94979">
        <ele>2097</ele>
        <time>2016-07-25T21:03:36Z</time>
      </trkpt>
      <trkpt lat="45.24191" lon="6.94989">
        <ele>2097</ele>
        <time>2016-07-25T21:05:36Z</time>
      </trkpt>
      <trkpt lat="45.24183" lon="6.95001">
        <ele>2097</ele>
        <time>2016-07-25T21:07:36Z</time>
      </trkpt>
      <trkpt lat="45.24173" lon="6.95013">
        <ele>2098</ele>
        <time>2016-07-25T21:09:36Z</time>
      </trkpt>
      <trkpt lat="45.24166" lon="6.95022">
        <ele>2098</ele>
        <time>2016-07-25T21:11:36Z</time>
      </trkpt>
      <trkpt lat="45.24159" lon="6.9503">
        <ele>2098</ele>
        <time>2016-07-25T21:13:36Z</time>
      </trkpt>
      <trkpt lat="45.24152" lon="6.95038">
        <ele>2098</ele>
        <time>2016-07-25T21:15:36Z</time>
      </trkpt>
      <trkpt lat="45.2414" lon="6.9505">
        <ele>2098</ele>
        <time>2016-07-25T21:17:36Z</time>
      </trkpt>
      <trkpt lat="45.24124" lon="6.95064">
        <ele>2098</ele>
        <time>2016-07-25T21:19:36Z</time>
      </trkpt>
      <trkpt lat="45.2411" lon="6.95076">
        <ele>2097</ele>
        <time>2016-07-25T21:21:36Z</time>
      </trkpt>
      <trkpt lat="45.24032" lon="6.95149">
        <ele>2096</ele>
        <time>2016-07-25T21:23:36Z</time>
      </trkpt>
      <trkpt lat="45.24004" lon="6.95174">
        <ele>2096</ele>
        <time>2016-07-25T21:25:36Z</time>
      </trkpt>
      <trkpt lat="45.23985" lon="6.95192">
        <ele>2095</ele>
        <time>2016-07-25T21:27:36Z</time>
      </trkpt>
      <trkpt lat="45.23971" lon="6.95204">
        <ele>2094</ele>
        <time>2016-07-25T21:29:36Z</time>
      </trkpt>
      <trkpt lat="45.23962" lon="6.95213">
        <ele>2094</ele>
        <time>2016-07-25T21:31:36Z</time>
      </trkpt>
      <trkpt lat="45.23954" lon="6.9522">
        <ele>2093</ele>
        <time>2016-07-25T21:33:36Z</time>
      </trkpt>
      <trkpt lat="45.23946" lon="6.95228">
        <ele>2092</ele>
        <time>2016-07-25T21:35:36Z</time>
      </trkpt>
      <trkpt lat="45.23938" lon="6.95237">
        <ele>2092</ele>
        <time>2016-07-25T21:37:36Z</time>
      </trkpt>
      <trkpt lat="45.23932" lon="6.95245">
        <ele>2091</ele>
        <time>2016-07-25T21:39:36Z</time>
      </trkpt>
      <trkpt lat="45.23925" lon="6.95255">
        <ele>2091</ele>
        <time>2016-07-25T21:41:36Z</time>
      </trkpt>
      <trkpt lat="45.23919" lon="6.95264">
        <ele>2091</ele>
        <time>2016-07-25T21:43:36Z</time>
      </trkpt>
      <trkpt lat="45.23914" lon="6.95274">
        <ele>2092</ele>
        <time>2016-07-25T21:45:36Z</time>
      </trkpt>
      <trkpt lat="45.23909" lon="6.95285">
        <ele>2092</ele>
        <time>2016-07-25T21:47:36Z</time>
      </trkpt>
      <trkpt lat="45.23905" lon="6.95295">
        <ele>2093</ele>
        <time>2016-07-25T21:49:36Z</time>
      </trkpt>
      <trkpt lat="45.239" lon="6.95305">
        <ele>2094</ele>
        <time>2016-07-25T21:51:36Z</time>
      </trkpt>
      <trkpt lat="45.23897" lon="6.95309">
        <ele>2094</ele>
        <time>2016-07-25T21:53:36Z</time>
      </trkpt>
      <trkpt lat="45.23894" lon="6.95313">
        <ele>2094</ele>
        <time>2016-07-25T21:55:36Z</time>
      </trkpt>
      <trkpt lat="45.23891" lon="6.95316">
        <ele>2094</ele>
        <time>2016-07-25T21:57:36Z</time>
      </trkpt>
      <trkpt lat="45.23888" lon="6.95319">
        <ele>2095</ele>
        <time>2016-07-25T21:59:36Z</time>
      </trkpt>
      <trkpt lat="45.23885" lon="6.95321">
        <ele>2095</ele>
        <time>2016-07-25T22:01:36Z</time>
      </trkpt>
      <trkpt lat="45.23882" lon="6.95323">
        <ele>2095</ele>
        <time>2016-07-25T22:03:36Z</time>
      </trkpt>
      <trkpt lat="45.23878" lon="6.95324">
        <ele>2094</ele>
        <time>2016-07-25T22:05:36Z</time>
      </trkpt>
      <trkpt lat="45.23875" lon="6.95325">
        <ele>2094</ele>
        <time>2016-07-25T22:07:36Z</time>
      </trkpt>
      <trkpt lat="45.23868" lon="6.95326">
        <ele>2094</ele>
        <time>2016-07-25T22:09:36Z</time>
      </trkpt>
      <trkpt lat="45.23861" lon="6.95326">
        <ele>2093</ele>
        <time>2016-07-25T22:11:36Z</time>
      </trkpt>
      <trkpt lat="45.23853" lon="6.95325">
        <ele>2092</ele>
        <time>2016-07-25T22:13:36Z</time>
      </trkpt>
      <trkpt lat="45.23846" lon="6.95323">
        <ele>2091</ele>
        <time>2016-07-25T22:15:36Z</time>
      </trkpt>
      <trkpt lat="45.23836" lon="6.95321">
        <ele>2090</ele>
        <time>2016-07-25T22:17:36Z</time>
      </trkpt>
      <trkpt lat="45.23831" lon="6.95321">
        <ele>2089</ele>
        <time>2016-07-25T22:19:36Z</time>
      </trkpt>
      <trkpt lat="45.23825" lon="6.95322">
        <ele>2089</ele>
        <time>2016-07-25T22:21:36Z</time>
      </trkpt>
      <trkpt lat="45.23819" lon="6.95324">
        <ele>2088</ele>
        <time>2016-07-25T22:23:36Z</time>
      </trkpt>
      <trkpt lat="45.23814" lon="6.95326">
        <ele>2088</ele>
        <time>2016-07-25T22:25:36Z</time>
      </trkpt>
      <trkpt lat="45.2381" lon="6.95329">
        <ele>2088</ele>
        <time>2016-07-25T22:27:36Z</time>
      </trkpt>
      <trkpt lat="45.23806" lon="6.95333">
        <ele>2089</ele>
        <time>2016-07-25T22:29:36Z</time>
      </trkpt>
      <trkpt lat="45.23802" lon="6.95337">
        <ele>2089</ele>
        <time>2016-07-25T22:31:36Z</time>
      </trkpt>
      <trkpt lat="45.238" lon="6.95341">
        <ele>2090</ele>
        <time>2016-07-25T22:33:36Z</time>
      </trkpt>
      <trkpt lat="45.23793" lon="6.95352">
        <ele>2091</ele>
        <time>2016-07-25T22:35:36Z</time>
      </trkpt>
      <trkpt lat="45.23788" lon="6.9536">
        <ele>2092</ele>
        <time>2016-07-25T22:37:36Z</time>
      </trkpt>
      <trkpt lat="45.23786" lon="6.95363">
        <ele>2092</ele>
        <time>2016-07-25T22:39:36Z</time>
      </trkpt>
      <trkpt lat="45.23783" lon="6.95367">
        <ele>2093</ele>
        <time>2016-07-25T22:41:36Z</time>
      </trkpt>
      <trkpt lat="45.23778" lon="6.95371">
        <ele>2093</ele>
        <time>2016-07-25T22:43:36Z</time>
      </trkpt>
      <trkpt lat="45.2377" lon="6.95377">
        <ele>2093</ele>
        <time>2016-07-25T22:45:36Z</time>
      </trkpt>
      <trkpt lat="45.23757" lon="6.95385">
        <ele>2093</ele>
        <time>2016-07-25T22:47:36Z</time>
      </trkpt>
      <trkpt lat="45.23744" lon="6.95391">
        <ele>2093</ele>
        <time>2016-07-25T22:49:36Z</time>
      </trkpt>
      <trkpt lat="45.23735" lon="6.95397">
        <ele>2092</ele>
        <time>2016-07-25T22:51:36Z</time>
      </trkpt>
      <trkpt lat="45.23722" lon="6.95404">
        <ele>2092</ele>
        <time>2016-07-25T22:53:36Z</time>
      </trkpt>
      <trkpt lat="45.23707" lon="6.95412">
        <ele>2092</ele>
        <time>2016-07-25T22:55:36Z</time>
      </trkpt>
      <trkpt lat="45.23689" lon="6.95423">
        <ele>2093</ele>
        <time>2016-07-25T22:57:36Z</time>
      </trkpt>
      <trkpt lat="45.23674" lon="6.95436">
        <ele>2093</ele>
        <time>2016-07-25T22:59:36Z</time>
      </trkpt>
      <trkpt lat="45.2366" lon="6.9545">
        <ele>2093</ele>
        <time>2016-07-25T23:01:36Z</time>
      </trkpt>
      <trkpt lat="45.23635" lon="6.95475">
        <ele>2092</ele>
        <time>2016-07-25T23:03:36Z</time>
      </trkpt>
      <trkpt lat="45.2362" lon="6.95492">
        <ele>2093</ele>
        <time>2016-07-25T23:05:36Z</time>
      </trkpt>
      <trkpt lat="45.23604" lon="6.95506">
        <ele>2093</ele>
        <time>2016-07-25T23:07:36Z</time>
      </trkpt>
      <trkpt lat="45.23592" lon="6.95513">
        <ele>2093</ele>
        <time>2016-07-25T23:09:36Z</time>
      </trkpt>
      <trkpt lat="45.23577" lon="6.95518">
        <ele>2091</ele>
        <time>2016-07-25T23:11:36Z</time>
      </trkpt>
      <trkpt lat="45.23566" lon="6.95522">
        <ele>2090</ele>
        <time>2016-07-25T23:13:36Z</time>
      </trkpt>
      <trkpt lat="45.23556" lon="6.95526">
        <ele>2088</ele>
        <time>2016-07-25T23:15:36Z</time>
      </trkpt>
      <trkpt lat="45.23545" lon="6.95535">
        <ele>2089</ele>
        <time>2016-07-25T23:17:36Z</time>
      </trkpt>
      <trkpt lat="45.23538" lon="6.95541">
        <ele>2089</ele>
        <time>2016-07-25T23:19:36Z</time>
      </trkpt>
      <trkpt lat="45.23532" lon="6.95548">
        <ele>2090</ele>
        <time>2016-07-25T23:21:36Z</time>
      </trkpt>
      <trkpt lat="45.23526" lon="6.95556">
        <ele>2091</ele>
        <time>2016-07-25T23:23:36Z</time>
      </trkpt>
      <trkpt lat="45.23519" lon="6.95565">
        <ele>2092</ele>
        <time>2016-07-25T23:25:36Z</time>
      </trkpt>
      <trkpt lat="45.23512" lon="6.95573">
        <ele>2094</ele>
        <time>2016-07-25T23:27:36Z</time>
      </trkpt>
      <trkpt lat="45.23504" lon="6.95581">
        <ele>2095</ele>
        <time>2016-07-25T23:29:36Z</time>
      </trkpt>
      <trkpt lat="45.23494" lon="6.95589">
        <ele>2095</ele>
        <time>2016-07-25T23:31:36Z</time>
      </trkpt>
      <trkpt lat="45.23485" lon="6.95595">
        <ele>2094</ele>
        <time>2016-07-25T23:33:36Z</time>
      </trkpt>
      <trkpt lat="45.23475" lon="6.95601">
        <ele>2093</ele>
        <time>2016-07-25T23:35:36Z</time>
      </trkpt>
      <trkpt lat="45.2346" lon="6.95609">
        <ele>2091</ele>
        <time>2016-07-25T23:37:36Z</time>
      </trkpt>
      <trkpt lat="45.23443" lon="6.95619">
        <ele>2089</ele>
        <time>2016-07-25T23:39:36Z</time>
      </trkpt>
      <trkpt lat="45.23418" lon="6.95634">
        <ele>2086</ele>
        <time>2016-07-25T23:41:36Z</time>
      </trkpt>
      <trkpt lat="45.23397" lon="6.95646">
        <ele>2082</ele>
        <time>2016-07-25T23:43:36Z</time>
      </trkpt>
      <trkpt lat="45.23373" lon="6.95661">
        <ele>2078</ele>
        <time>2016-07-25T23:45:36Z</time>
      </trkpt>
      <trkpt lat="45.23353" lon="6.95673">
        <ele>2076</ele>
        <time>2016-07-25T23:47:36Z</time>
      </trkpt>
      <trkpt lat="45.23331" lon="6.95689">
        <ele>2074</ele>
        <time>2016-07-25T23:49:36Z</time>
      </trkpt>
      <trkpt lat="45.2331" lon="6.95702">
        <ele>2072</ele>
        <time>2016-07-25T23:51:36Z</time>
      </trkpt>
      <trkpt lat="45.23294" lon="6.95711">
        <ele>2070</ele>
        <time>2016-07-25T23:53:36Z</time>
      </trkpt>
      <trkpt lat="45.23272" lon="6.95721">
        <ele>2067</ele>
        <time>2016-07-25T23:55:36Z</time>
      </trkpt>
      <trkpt lat="45.23254" lon="6.95729">
        <ele>2064</ele>
        <time>2016-07-25T23:57:36Z</time>
      </trkpt>
      <trkpt lat="45.2324" lon="6.95736">
        <ele>2062</ele>
        <time>2016-07-25T23:59:36Z</time>
      </trkpt>
      <trkpt lat="45.23229" lon="6.95744">
        <ele>2061</ele>
        <time>2016-07-26T00:01:36Z</time>
      </trkpt>
      <trkpt lat="45.23219" lon="6.95751">
        <ele>2060</ele>
        <time>2016-07-26T00:03:36Z</time>
      </trkpt>
      <trkpt lat="45.23209" lon="6.9576">
        <ele>2059</ele>
        <time>2016-07-26T00:05:36Z</time>
      </trkpt>
      <trkpt lat="45.23194" lon="6.95777">
        <ele>2058</ele>
        <time>2016-07-26T00:07:36Z</time>
      </trkpt>
      <trkpt lat="45.23183" lon="6.9579">
        <ele>2058</ele>
        <time>2016-07-26T00:09:36Z</time>
      </trkpt>
      <trkpt lat="45.2317" lon="6.95808">
        <ele>2059</ele>
        <time>2016-07-26T00:11:36Z</time>
      </trkpt>
      <trkpt lat="45.23156" lon="6.95822">
        <ele>2059</ele>
        <time>2016-07-26T00:13:36Z</time>
      </trkpt>
      <trkpt lat="45.23147" lon="6.9583">
        <ele>2059</ele>
        <time>2016-07-26T00:15:36Z</time>
      </trkpt>
      <trkpt lat="45.23138" lon="6.95835">
        <ele>2058</ele>
        <time>2016-07-26T00:17:36Z</time>
      </trkpt>
      <trkpt lat="45.2312" lon="6.95846">
        <ele>2056</ele>
        <time>2016-07-26T00:19:36Z</time>
      </trkpt>
      <trkpt lat="45.23098" lon="6.95856">
        <ele>2053</ele>
        <time>2016-07-26T00:21:36Z</time>
      </trkpt>
      <trkpt lat="45.23077" lon="6.95867">
        <ele>2050</ele>
        <time>2016-07-26T00:23:36Z</time>
      </trkpt>
      <trkpt lat="45.23064" lon="6.95874">
        <ele>2047</ele>
        <time>2016-07-26T00:25:36Z</time>
      </trkpt>
      <trkpt lat="45.23052" lon="6.95882">
        <ele>2044</ele>
        <time>2016-07-26T00:27:36Z</time>
      </trkpt>
      <trkpt lat="45.23032" lon="6.95897">
        <ele>2042</ele>
        <time>2016-07-26T00:29:36Z</time>
      </trkpt>
      <trkpt lat="45.2302" lon="6.95907">
        <ele>2041</ele>
        <time>2016-07-26T00:31:36Z</time>
      </trkpt>
      <trkpt lat="45.2301" lon="6.95916">
        <ele>2041</ele>
        <time>2016-07-26T00:33:36Z</time>
      </trkpt>
      <trkpt lat="45.23003" lon="6.95925">
        <ele>2041</ele>
        <time>2016-07-26T00:35:36Z</time>
      </trkpt>
      <trkpt lat="45.22996" lon="6.95936">
        <ele>2041</ele>
        <time>2016-07-26T00:37:36Z</time>
      </trkpt>
      <trkpt lat="45.22988" lon="6.95949">
        <ele>2040</ele>
        <time>2016-07-26T00:39:36Z</time>
      </trkpt>
      <trkpt lat="45.22975" lon="6.95978">
        <ele>2040</ele>
        <time>2016-07-26T00:41:36Z</time>
      </trkpt>
      <trkpt lat="45.22962" lon="6.96004">
        <ele>2039</ele>
        <time>2016-07-26T00:43:36Z</time>
      </trkpt>
      <trkpt lat="45.22943" lon="6.96041">
        <ele>2040</ele>
        <time>2016-07-26T00:45:36Z</time>
      </trkpt>
      <trkpt lat="45.22917" lon="6.96093">
        <ele>2041</ele>
        <time>2016-07-26T00:47:36Z</time>
      </trkpt>
      <trkpt lat="45.22902" lon="6.96125">
        <ele>2041</ele>
        <time>2016-07-26T00:49:36Z</time>
      </trkpt>
      <trkpt lat="45.22889" lon="6.96152">
        <ele>2040</ele>
        <time>2016-07-26T00:51:36Z</time>
      </trkpt>
      <trkpt lat="45.22875" lon="6.9618">
        <ele>2038</ele>
        <time>2016-07-26T00:53:36Z</time>
      </trkpt>
      <trkpt lat="45.22848" lon="6.9623">
        <ele>2032</ele>
        <time>2016-07-26T00:55:36Z</time>
      </trkpt>
      <trkpt lat="45.22839" lon="6.96251">
        <ele>2030</ele>
        <time>2016-07-26T00:57:36Z</time>
      </trkpt>
      <trkpt lat="45.22831" lon="6.96273">
        <ele>2032</ele>
        <time>2016-07-26T00:59:36Z</time>
      </trkpt>
      <trkpt lat="45.22823" lon="6.96293">
        <ele>2036</ele>
        <time>2016-07-26T01:01:36Z</time>
      </trkpt>
      <trkpt lat="45.22816" lon="6.96309">
        <ele>2038</ele>
        <time>2016-07-26T01:03:36Z</time>
      </trkpt>
      <trkpt lat="45.22808" lon="6.96324">
        <ele>2040</ele>
        <time>2016-07-26T01:05:36Z</time>
      </trkpt>
      <trkpt lat="45.22799" lon="6.96339">
        <ele>2041</ele>
        <time>2016-07-26T01:07:36Z</time>
      </trkpt>
      <trkpt lat="45.22773" lon="6.9637">
        <ele>2037</ele>
        <time>2016-07-26T01:09:36Z</time>
      </trkpt>
      <trkpt lat="45.22773" lon="6.9637">
        <ele>2037</ele>
        <time>2016-07-26T01:11:36Z</time>
      </trkpt>
      <trkpt lat="45.22761" lon="6.96373">
        <ele>2032</ele>
        <time>2016-07-26T01:13:36Z</time>
      </trkpt>
      <trkpt lat="45.22739" lon="6.96377">
        <ele>2027</ele>
        <time>2016-07-26T01:15:36Z</time>
      </trkpt>
      <trkpt lat="45.22711" lon="6.96387">
        <ele>2024</ele>
        <time>2016-07-26T01:17:36Z</time>
      </trkpt>
      <trkpt lat="45.22681" lon="6.96401">
        <ele>2020</ele>
        <time>2016-07-26T01:19:36Z</time>
      </trkpt>
      <trkpt lat="45.22667" lon="6.9641">
        <ele>2019</ele>
        <time>2016-07-26T01:21:36Z</time>
      </trkpt>
      <trkpt lat="45.22654" lon="6.96421">
        <ele>2017</ele>
        <time>2016-07-26T01:23:36Z</time>
      </trkpt>
      <trkpt lat="45.22642" lon="6.96431">
        <ele>2016</ele>
        <time>2016-07-26T01:25:36Z</time>
      </trkpt>
      <trkpt lat="45.22633" lon="6.96442">
        <ele>2015</ele>
        <time>2016-07-26T01:27:36Z</time>
      </trkpt>
      <trkpt lat="45.22625" lon="6.96457">
        <ele>2015</ele>
        <time>2016-07-26T01:29:36Z</time>
      </trkpt>
      <trkpt lat="45.22619" lon="6.96462">
        <ele>2014</ele>
        <time>2016-07-26T01:31:36Z</time>
      </trkpt>
      <trkpt lat="45.22618" lon="6.96462">
        <ele>2014</ele>
        <time>2016-07-26T01:33:36Z</time>
      </trkpt>
      <trkpt lat="45.22617" lon="6.96462">
        <ele>2014</ele>
        <time>2016-07-26T01:35:36Z</time>
      </trkpt>
      <trkpt lat="45.22616" lon="6.96462">
        <ele>2013</ele>
        <time>2016-07-26T01:37:36Z</time>
      </trkpt>
      <trkpt lat="45.22615" lon="6.96461">
        <ele>2013</ele>
        <time>2016-07-26T01:39:36Z</time>
      </trkpt>
      <trkpt lat="45.22614" lon="6.9646">
        <ele>2012</ele>
        <time>2016-07-26T01:41:36Z</time>
      </trkpt>
      <trkpt lat="45.22613" lon="6.96452">
        <ele>2011</ele>
        <time>2016-07-26T01:43:36Z</time>
      </trkpt>
      <trkpt lat="45.22614" lon="6.96442">
        <ele>2009</ele>
        <time>2016-07-26T01:45:36Z</time>
      </trkpt>
      <trkpt lat="45.22628" lon="6.96403">
        <ele>2007</ele>
        <time>2016-07-26T01:47:36Z</time>
      </trkpt>
      <trkpt lat="45.22642" lon="6.96356">
        <ele>2006</ele>
        <time>2016-07-26T01:49:36Z</time>
      </trkpt>
      <trkpt lat="45.22643" lon="6.96347">
        <ele>2006</ele>
        <time>2016-07-26T01:51:36Z</time>
      </trkpt>
      <trkpt lat="45.22643" lon="6.96337">
        <ele>2004</ele>
        <time>2016-07-26T01:53:36Z</time>
      </trkpt>
      <trkpt lat="45.22639" lon="6.9633">
        <ele>2003</ele>
        <time>2016-07-26T01:55:36Z</time>
      </trkpt>
      <trkpt lat="45.22637" lon="6.96316">
        <ele>2000</ele>
        <time>2016-07-26T01:57:36Z</time>
      </trkpt>
      <trkpt lat="45.22632" lon="6.96303">
        <ele>1997</ele>
        <time>2016-07-26T01:59:36Z</time>
      </trkpt>
      <trkpt lat="45.2263" lon="6.96288">
        <ele>1995</ele>
        <time>2016-07-26T02:01:36Z</time>
      </trkpt>
      <trkpt lat="45.2263" lon="6.96274">
        <ele>1993</ele>
        <time>2016-07-26T02:03:36Z</time>
      </trkpt>
      <trkpt lat="45.22629" lon="6.96255">
        <ele>1990</ele>
        <time>2016-07-26T02:05:36Z</time>
      </trkpt>
      <trkpt lat="45.22629" lon="6.96237">
        <ele>1989</ele>
        <time>2016-07-26T02:07:36Z</time>
      </trkpt>
      <trkpt lat="45.22626" lon="6.9623">
        <ele>1988</ele>
        <time>2016-07-26T02:09:36Z</time>
      </trkpt>
      <trkpt lat="45.22622" lon="6.96218">
        <ele>1987</ele>
        <time>2016-07-26T02:11:36Z</time>
      </trkpt>
      <trkpt lat="45.22618" lon="6.9621">
        <ele>1986</ele>
        <time>2016-07-26T02:13:36Z</time>
      </trkpt>
      <trkpt lat="45.22613" lon="6.96205">
        <ele>1985</ele>
        <time>2016-07-26T02:15:36Z</time>
      </trkpt>
      <trkpt lat="45.22606" lon="6.96199">
        <ele>1984</ele>
        <time>2016-07-26T02:17:36Z</time>
      </trkpt>
      <trkpt lat="45.22606" lon="6.96199">
        <ele>1984</ele>
        <time>2016-07-26T02:19:36Z</time>
      </trkpt>
      <trkpt lat="45.22598" lon="6.96232">
        <ele>1984</ele>
        <time>2016-07-26T02:21:36Z</time>
      </trkpt>
      <trkpt lat="45.22588" lon="6.96267">
        <ele>1985</ele>
        <time>2016-07-26T02:23:36Z</time>
      </trkpt>
      <trkpt lat="45.22583" lon="6.96275">
        <ele>1985</ele>
        <time>2016-07-26T02:25:36Z</time>
      </trkpt>
      <trkpt lat="45.22578" lon="6.96282">
        <ele>1985</ele>
        <time>2016-07-26T02:27:36Z</time>
      </trkpt>
      <trkpt lat="45.22551" lon="6.9631">
        <ele>1985</ele>
        <time>2016-07-26T02:29:36Z</time>
      </trkpt>
      <trkpt lat="45.2254" lon="6.96315">
        <ele>1984</ele>
        <time>2016-07-26T02:31:36Z</time>
      </trkpt>
      <trkpt lat="45.22533" lon="6.96316">
        <ele>1983</ele>
        <time>2016-07-26T02:33:36Z</time>
      </trkpt>
      <trkpt lat="45.22519" lon="6.96313">
        <ele>1982</ele>
        <time>2016-07-26T02:35:36Z</time>
      </trkpt>
      <trkpt lat="45.22506" lon="6.96309">
        <ele>1981</ele>
        <time>2016-07-26T02:37:36Z</time>
      </trkpt>
      <trkpt lat="45.22488" lon="6.96302">
        <ele>1979</ele>
        <time>2016-07-26T02:39:36Z</time>
      </trkpt>
      <trkpt lat="45.22488" lon="6.96302">
        <ele>1979</ele>
        <time>2016-07-26T02:41:36Z</time>
      </trkpt>
      <trkpt lat="45.22483" lon="6.9632">
        <ele>1979</ele>
        <time>2016-07-26T02:43:36Z</time>
      </trkpt>
      <trkpt lat="45.22475" lon="6.96334">
        <ele>1979</ele>
        <time>2016-07-26T02:45:36Z</time>
      </trkpt>
      <trkpt lat="45.22466" lon="6.96348">
        <ele>1979</ele>
        <time>2016-07-26T02:47:36Z</time>
      </trkpt>
      <trkpt lat="45.22455" lon="6.96362">
        <ele>1978</ele>
        <time>2016-07-26T02:49:36Z</time>
      </trkpt>
      <trkpt lat="45.22439" lon="6.96379">
        <ele>1977</ele>
        <time>2016-07-26T02:51:36Z</time>
      </trkpt>
      <trkpt lat="45.22397" lon="6.96441">
        <ele>1975</ele>
        <time>2016-07-26T02:53:36Z</time>
      </trkpt>
      <trkpt lat="45.22381" lon="6.96462">
        <ele>1974</ele>
        <time>2016-07-26T02:55:36Z</time>
      </trkpt>
      <trkpt lat="45.22347" lon="6.96508">
        <ele>1974</ele>
        <time>2016-07-26T02:57:36Z</time>
      </trkpt>
      <trkpt lat="45.22338" lon="6.96522">
        <ele>1974</ele>
        <time>2016-07-26T02:59:36Z</time>
      </trkpt>
      <trkpt lat="45.2233" lon="6.96533">
        <ele>1974</ele>
        <time>2016-07-26T03:01:36Z</time>
      </trkpt>
      <trkpt lat="45.22313" lon="6.96554">
        <ele>1973</ele>
        <time>2016-07-26T03:03:36Z</time>
      </trkpt>
      <trkpt lat="45.22305" lon="6.96562">
        <ele>1973</ele>
        <time>2016-07-26T03:05:36Z</time>
      </trkpt>
      <trkpt lat="45.22303" lon="6.96564">
        <ele>1973</ele>
        <time>2016-07-26T03:07:36Z</time>
      </trkpt>
      <trkpt lat="45.22296" lon="6.96573">
        <ele>1974</ele>
        <time>2016-07-26T03:09:36Z</time>
      </trkpt>
      <trkpt lat="45.22259" lon="6.96608">
        <ele>1975</ele>
        <time>2016-07-26T03:11:36Z</time>
      </trkpt>
      <trkpt lat="45.2225" lon="6.96613">
        <ele>1975</ele>
        <time>2016-07-26T03:13:36Z</time>
      </trkpt>
      <trkpt lat="45.22231" lon="6.96621">
        <ele>1976</ele>
        <time>2016-07-26T03:15:36Z</time>
      </trkpt>
      <trkpt lat="45.22222" lon="6.96621">
        <ele>1977</ele>
        <time>2016-07-26T03:17:36Z</time>
      </trkpt>
      <trkpt lat="45.22206" lon="6.96619">
        <ele>1977</ele>
        <time>2016-07-26T03:19:36Z</time>
      </trkpt>
      <trkpt lat="45.22189" lon="6.96618">
        <ele>1977</ele>
        <time>2016-07-26T03:21:36Z</time>
      </trkpt>
      <trkpt lat="45.22168" lon="6.9662">
        <ele>1978</ele>
        <time>2016-07-26T03:23:36Z</time>
      </trkpt>
      <trkpt lat="45.22138" lon="6.96622">
        <ele>1976</ele>
        <time>2016-07-26T03:25:36Z</time>
      </trkpt>
      <trkpt lat="45.22118" lon="6.96624">
        <ele>1974</ele>
        <time>2016-07-26T03:27:36Z</time>
      </trkpt>
      <trkpt lat="45.22108" lon="6.96622">
        <ele>1972</ele>
        <time>2016-07-26T03:29:36Z</time>
      </trkpt>
      <trkpt lat="45.22099" lon="6.96623">
        <ele>1972</ele>
        <time>2016-07-26T03:31:36Z</time>
      </trkpt>
      <trkpt lat="45.2209" lon="6.96626">
        <ele>1972</ele>
        <time>2016-07-26T03:33:36Z</time>
      </trkpt>
      <trkpt lat="45.22081" lon="6.96628">
        <ele>1971</ele>
        <time>2016-07-26T03:35:36Z</time>
      </trkpt>
      <trkpt lat="45.22071" lon="6.96633">
        <ele>1971</ele>
        <time>2016-07-26T03:37:36Z</time>
      </trkpt>
      <trkpt lat="45.22062" lon="6.96636">
        <ele>1970</ele>
        <time>2016-07-26T03:39:36Z</time>
      </trkpt>
      <trkpt lat="45.22053" lon="6.96637">
        <ele>1969</ele>
        <time>2016-07-26T03:41:36Z</time>
      </trkpt>
      <trkpt lat="45.22044" lon="6.96636">
        <ele>1968</ele>
        <time>2016-07-26T03:43:36Z</time>
      </trkpt>
      <trkpt lat="45.22025" lon="6.96629">
        <ele>1963</ele>
        <time>2016-07-26T03:45:36Z</time>
      </trkpt>
      <trkpt lat="45.22015" lon="6.96629">
        <ele>1961</ele>
        <time>2016-07-26T03:47:36Z</time>
      </trkpt>
      <trkpt lat="45.22007" lon="6.96634">
        <ele>1961</ele>
        <time>2016-07-26T03:49:36Z</time>
      </trkpt>
      <trkpt lat="45.21988" lon="6.96653">
        <ele>1963</ele>
        <time>2016-07-26T03:51:36Z</time>
      </trkpt>
      <trkpt lat="45.21967" lon="6.96672">
        <ele>1965</ele>
        <time>2016-07-26T03:53:36Z</time>
      </trkpt>
      <trkpt lat="45.21959" lon="6.96682">
        <ele>1966</ele>
        <time>2016-07-26T03:55:36Z</time>
      </trkpt>
      <trkpt lat="45.21956" lon="6.96684">
        <ele>1966</ele>
        <time>2016-07-26T03:57:36Z</time>
      </trkpt>
      <trkpt lat="45.2195" lon="6.9669">
        <ele>1966</ele>
        <time>2016-07-26T03:59:36Z</time>
      </trkpt>
      <trkpt lat="45.2195" lon="6.9669">
        <ele>1966</ele>
        <time>2016-07-26T04:01:36Z</time>
      </trkpt>
      <trkpt lat="45.21946" lon="6.96687">
        <ele>1965</ele>
        <time>2016-07-26T04:03:36Z</time>
      </trkpt>
      <trkpt lat="45.21942" lon="6.96686">
        <ele>1964</ele>
        <time>2016-07-26T04:05:36Z</time>
      </trkpt>
      <trkpt lat="45.21935" lon="6.96687">
        <ele>1964</ele>
        <time>2016-07-26T04:07:36Z</time>
      </trkpt>
      <trkpt lat="45.21924" lon="6.96692">
        <ele>1963</ele>
        <time>2016-07-26T04:09:36Z</time>
      </trkpt>
      <trkpt lat="45.21913" lon="6.96697">
        <ele>1963</ele>
        <time>2016-07-26T04:11:36Z</time>
      </trkpt>
      <trkpt lat="45.21898" lon="6.967">
        <ele>1962</ele>
        <time>2016-07-26T04:13:36Z</time>
      </trkpt>
      <trkpt lat="45.21881" lon="6.96702">
        <ele>1961</ele>
        <time>2016-07-26T04:15:36Z</time>
      </trkpt>
      <trkpt lat="45.21871" lon="6.96703">
        <ele>1961</ele>
        <time>2016-07-26T04:17:36Z</time>
      </trkpt>
      <trkpt lat="45.21857" lon="6.967">
        <ele>1959</ele>
        <time>2016-07-26T04:19:36Z</time>
      </trkpt>
      <trkpt lat="45.21839" lon="6.96695">
        <ele>1957</ele>
        <time>2016-07-26T04:21:36Z</time>
      </trkpt>
      <trkpt lat="45.21827" lon="6.96689">
        <ele>1956</ele>
        <time>2016-07-26T04:23:36Z</time>
      </trkpt>
      <trkpt lat="45.21813" lon="6.96681">
        <ele>1956</ele>
        <time>2016-07-26T04:25:36Z</time>
      </trkpt>
      <trkpt lat="45.21795" lon="6.96673">
        <ele>1954</ele>
        <time>2016-07-26T04:27:36Z</time>
      </trkpt>
      <trkpt lat="45.21775" lon="6.96664">
        <ele>1952</ele>
        <time>2016-07-26T04:29:36Z</time>
      </trkpt>
      <trkpt lat="45.2176" lon="6.96658">
        <ele>1951</ele>
        <time>2016-07-26T04:31:36Z</time>
      </trkpt>
      <trkpt lat="45.21747" lon="6.96653">
        <ele>1950</ele>
        <time>2016-07-26T04:33:36Z</time>
      </trkpt>
      <trkpt lat="45.21734" lon="6.9665">
        <ele>1950</ele>
        <time>2016-07-26T04:35:36Z</time>
      </trkpt>
      <trkpt lat="45.21713" lon="6.96647">
        <ele>1949</ele>
        <time>2016-07-26T04:37:36Z</time>
      </trkpt>
      <trkpt lat="45.21698" lon="6.96646">
        <ele>1949</ele>
        <time>2016-07-26T04:39:36Z</time>
      </trkpt>
      <trkpt lat="45.21678" lon="6.96647">
        <ele>1949</ele>
        <time>2016-07-26T04:41:36Z</time>
      </trkpt>
      <trkpt lat="45.21657" lon="6.96651">
        <ele>1948</ele>
        <time>2016-07-26T04:43:36Z</time>
      </trkpt>
      <trkpt lat="45.21644" lon="6.96656">
        <ele>1948</ele>
        <time>2016-07-26T04:45:36Z</time>
      </trkpt>
      <trkpt lat="45.21629" lon="6.96661">
        <ele>1946</ele>
        <time>2016-07-26T04:47:36Z</time>
      </trkpt>
      <trkpt lat="45.21603" lon="6.96671">
        <ele>1944</ele>
        <time>2016-07-26T04:49:36Z</time>
      </trkpt>
      <trkpt lat="45.21569" lon="6.96684">
        <ele>1941</ele>
        <time>2016-07-26T04:51:36Z</time>
      </trkpt>
      <trkpt lat="45.21553" lon="6.96691">
        <ele>1940</ele>
        <time>2016-07-26T04:53:36Z</time>
      </trkpt>
      <trkpt lat="45.21536" lon="6.96696">
        <ele>1939</ele>
        <time>2016-07-26T04:55:36Z</time>
      </trkpt>
      <trkpt lat="45.21529" lon="6.96697">
        <ele>1938</ele>
        <time>2016-07-26T04:57:36Z</time>
      </trkpt>
      <trkpt lat="45.2152" lon="6.96699">
        <ele>1937</ele>
        <time>2016-07-26T04:59:36Z</time>
      </trkpt>
      <trkpt lat="45.21513" lon="6.967">
        <ele>1937</ele>
        <time>2016-07-26T05:01:36Z</time>
      </trkpt>
      <trkpt lat="45.21506" lon="6.96699">
        <ele>1936</ele>
        <time>2016-07-26T05:03:36Z</time>
      </trkpt>
      <trkpt lat="45.21493" lon="6.96696">
        <ele>1935</ele>
        <time>2016-07-26T05:05:36Z</time>
      </trkpt>
      <trkpt lat="45.2148" lon="6.9669">
        <ele>1935</ele>
        <time>2016-07-26T05:07:36Z</time>
      </trkpt>
      <trkpt lat="45.2147" lon="6.96682">
        <ele>1935</ele>
        <time>2016-07-26T05:09:36Z</time>
      </trkpt>
      <trkpt lat="45.21461" lon="6.96673">
        <ele>1935</ele>
        <time>2016-07-26T05:11:36Z</time>
      </trkpt>
      <trkpt lat="45.21453" lon="6.96663">
        <ele>1935</ele>
        <time>2016-07-26T05:13:36Z</time>
      </trkpt>
      <trkpt lat="45.21448" lon="6.96654">
        <ele>1935</ele>
        <time>2016-07-26T05:15:36Z</time>
      </trkpt>
      <trkpt lat="45.21443" lon="6.96646">
        <ele>1935</ele>
        <time>2016-07-26T05:17:36Z</time>
      </trkpt>
      <trkpt lat="45.21438" lon="6.96633">
        <ele>1935</ele>
        <time>2016-07-26T05:19:36Z</time>
      </trkpt>
      <trkpt lat="45.21433" lon="6.96618">
        <ele>1935</ele>
        <time>2016-07-26T05:21:36Z</time>
      </trkpt>
      <trkpt lat="45.2143" lon="6.96606">
        <ele>1935</ele>
        <time>2016-07-26T05:23:36Z</time>
      </trkpt>
      <trkpt lat="45.21428" lon="6.96587">
        <ele>1935</ele>
        <time>2016-07-26T05:25:36Z</time>
      </trkpt>
      <trkpt lat="45.21428" lon="6.96573">
        <ele>1935</ele>
        <time>2016-07-26T05:27:36Z</time>
      </trkpt>
      <trkpt lat="45.2143" lon="6.96557">
        <ele>1935</ele>
        <time>2016-07-26T05:29:36Z</time>
      </trkpt>
      <trkpt lat="45.21431" lon="6.96541">
        <ele>1936</ele>
        <time>2016-07-26T05:31:36Z</time>
      </trkpt>
      <trkpt lat="45.21435" lon="6.96528">
        <ele>1935</ele>
        <time>2016-07-26T05:33:36Z</time>
      </trkpt>
      <trkpt lat="45.21441" lon="6.9651">
        <ele>1934</ele>
        <time>2016-07-26T05:35:36Z</time>
      </trkpt>
      <trkpt lat="45.21455" lon="6.96481">
        <ele>1931</ele>
        <time>2016-07-26T05:37:36Z</time>
      </trkpt>
      <trkpt lat="45.21475" lon="6.96434">
        <ele>1927</ele>
        <time>2016-07-26T05:39:36Z</time>
      </trkpt>
      <trkpt lat="45.21526" lon="6.96327">
        <ele>1916</ele>
        <time>2016-07-26T05:41:36Z</time>
      </trkpt>
      <trkpt lat="45.2155" lon="6.96277">
        <ele>1909</ele>
        <time>2016-07-26T05:43:36Z</time>
      </trkpt>
      <trkpt lat="45.21561" lon="6.96254">
        <ele>1907</ele>
        <time>2016-07-26T05:45:36Z</time>
      </trkpt>
      <trkpt lat="45.21567" lon="6.96242">
        <ele>1905</ele>
        <time>2016-07-26T05:47:36Z</time>
      </trkpt>
      <trkpt lat="45.2158" lon="6.96211">
        <ele>1901</ele>
        <time>2016-07-26T05:49:36Z</time>
      </trkpt>
      <trkpt lat="45.21598" lon="6.96172">
        <ele>1899</ele>
        <time>2016-07-26T05:51:36Z</time>
      </trkpt>
      <trkpt lat="45.21621" lon="6.9613">
        <ele>1898</ele>
        <time>2016-07-26T05:53:36Z</time>
      </trkpt>
      <trkpt lat="45.21643" lon="6.96098">
        <ele>1897</ele>
        <time>2016-07-26T05:55:36Z</time>
      </trkpt>
      <trkpt lat="45.21662" lon="6.96072">
        <ele>1896</ele>
        <time>2016-07-26T05:57:36Z</time>
      </trkpt>
      <trkpt lat="45.2168" lon="6.96045">
        <ele>1892</ele>
        <time>2016-07-26T05:59:36Z</time>
      </trkpt>
      <trkpt lat="45.21706" lon="6.96013">
        <ele>1888</ele>
        <time>2016-07-26T06:01:36Z</time>
      </trkpt>
      <trkpt lat="45.21743" lon="6.95967">
        <ele>1885</ele>
        <time>2016-07-26T06:03:36Z</time>
      </trkpt>
      <trkpt lat="45.21769" lon="6.95932">
        <ele>1885</ele>
        <time>2016-07-26T06:05:36Z</time>
      </trkpt>
      <trkpt lat="45.21798" lon="6.95894">
        <ele>1882</ele>
        <time>2016-07-26T06:07:36Z</time>
      </trkpt>
      <trkpt lat="45.21812" lon="6.95875">
        <ele>1880</ele>
        <time>2016-07-26T06:09:36Z</time>
      </trkpt>
      <trkpt lat="45.21831" lon="6.95848">
        <ele>1877</ele>
        <time>2016-07-26T06:11:36Z</time>
      </trkpt>
      <trkpt lat="45.2184" lon="6.95833">
        <ele>1876</ele>
        <time>2016-07-26T06:13:36Z</time>
      </trkpt>
      <trkpt lat="45.2185" lon="6.95813">
        <ele>1875</ele>
        <time>2016-07-26T06:15:36Z</time>
      </trkpt>
      <trkpt lat="45.21859" lon="6.95791">
        <ele>1873</ele>
        <time>2016-07-26T06:17:36Z</time>
      </trkpt>
      <trkpt lat="45.21866" lon="6.95774">
        <ele>1872</ele>
        <time>2016-07-26T06:19:36Z</time>
      </trkpt>
      <trkpt lat="45.21873" lon="6.95758">
        <ele>1871</ele>
        <time>2016-07-26T06:21:36Z</time>
      </trkpt>
      <trkpt lat="45.21876" lon="6.95745">
        <ele>1870</ele>
        <time>2016-07-26T06:23:36Z</time>
      </trkpt>
      <trkpt lat="45.21878" lon="6.95739">
        <ele>1871</ele>
        <time>2016-07-26T06:25:36Z</time>
      </trkpt>
      <trkpt lat="45.21879" lon="6.95734">
        <ele>1871</ele>
        <time>2016-07-26T06:27:36Z</time>
      </trkpt>
      <trkpt lat="45.21879" lon="6.95728">
        <ele>1871</ele>
        <time>2016-07-26T06:29:36Z</time>
      </trkpt>
      <trkpt lat="45.21878" lon="6.95723">
        <ele>1871</ele>
        <time>2016-07-26T06:31:36Z</time>
      </trkpt>
      <trkpt lat="45.21877" lon="6.95716">
        <ele>1871</ele>
        <time>2016-07-26T06:33:36Z</time>
      </trkpt>
      <trkpt lat="45.21875" lon="6.95707">
        <ele>1871</ele>
        <time>2016-07-26T06:35:36Z</time>
      </trkpt>
      <trkpt lat="45.21871" lon="6.95698">
        <ele>1870</ele>
        <time>2016-07-26T06:37:36Z</time>
      </trkpt>
      <trkpt lat="45.21868" lon="6.95691">
        <ele>1870</ele>
        <time>2016-07-26T06:39:36Z</time>
      </trkpt>
      <trkpt lat="45.21864" lon="6.95684">
        <ele>1870</ele>
        <time>2016-07-26T06:41:36Z</time>
      </trkpt>
      <trkpt lat="45.21858" lon="6.95678">
        <ele>1869</ele>
        <time>2016-07-26T06:43:36Z</time>
      </trkpt>
      <trkpt lat="45.2185" lon="6.95672">
        <ele>1869</ele>
        <time>2016-07-26T06:45:36Z</time>
      </trkpt>
      <trkpt lat="45.21842" lon="6.95664">
        <ele>1868</ele>
        <time>2016-07-26T06:47:36Z</time>
      </trkpt>
      <trkpt lat="45.21833" lon="6.95656">
        <ele>1868</ele>
        <time>2016-07-26T06:49:36Z</time>
      </trkpt>
      <trkpt lat="45.21828" lon="6.95649">
        <ele>1866</ele>
        <time>2016-07-26T06:51:36Z</time>
      </trkpt>
      <trkpt lat="45.21824" lon="6.95643">
        <ele>1865</ele>
        <time>2016-07-26T06:53:36Z</time>
      </trkpt>
      <trkpt lat="45.21821" lon="6.95635">
        <ele>1865</ele>
        <time>2016-07-26T06:55:36Z</time>
      </trkpt>
      <trkpt lat="45.21819" lon="6.95629">
        <ele>1865</ele>
        <time>2016-07-26T06:57:36Z</time>
      </trkpt>
      <trkpt lat="45.21817" lon="6.9562">
        <ele>1865</ele>
        <time>2016-07-26T06:59:36Z</time>
      </trkpt>
      <trkpt lat="45.21814" lon="6.95607">
        <ele>1865</ele>
        <time>2016-07-26T07:01:36Z</time>
      </trkpt>
      <trkpt lat="45.21812" lon="6.95592">
        <ele>1867</ele>
        <time>2016-07-26T07:03:36Z</time>
      </trkpt>
      <trkpt lat="45.21809" lon="6.95575">
        <ele>1866</ele>
        <time>2016-07-26T07:05:36Z</time>
      </trkpt>
      <trkpt lat="45.21806" lon="6.9556">
        <ele>1865</ele>
        <time>2016-07-26T07:07:36Z</time>
      </trkpt>
      <trkpt lat="45.21803" lon="6.95541">
        <ele>1864</ele>
        <time>2016-07-26T07:09:36Z</time>
      </trkpt>
      <trkpt lat="45.21799" lon="6.95515">
        <ele>1862</ele>
        <time>2016-07-26T07:11:36Z</time>
      </trkpt>
      <trkpt lat="45.21797" lon="6.95502">
        <ele>1862</ele>
        <time>2016-07-26T07:13:36Z</time>
      </trkpt>
      <trkpt lat="45.21794" lon="6.95492">
        <ele>1861</ele>
        <time>2016-07-26T07:15:36Z</time>
      </trkpt>
      <trkpt lat="45.21791" lon="6.95484">
        <ele>1860</ele>
        <time>2016-07-26T07:17:36Z</time>
      </trkpt>
      <trkpt lat="45.21787" lon="6.95477">
        <ele>1859</ele>
        <time>2016-07-26T07:19:36Z</time>
      </trkpt>
      <trkpt lat="45.21783" lon="6.95471">
        <ele>1858</ele>
        <time>2016-07-26T07:21:36Z</time>
      </trkpt>
      <trkpt lat="45.21779" lon="6.95466">
        <ele>1857</ele>
        <time>2016-07-26T07:23:36Z</time>
      </trkpt>
      <trkpt lat="45.21772" lon="6.9546">
        <ele>1856</ele>
        <time>2016-07-26T07:25:36Z</time>
      </trkpt>
      <trkpt lat="45.21765" lon="6.95454">
        <ele>1855</ele>
        <time>2016-07-26T07:27:36Z</time>
      </trkpt>
      <trkpt lat="45.21758" lon="6.9545">
        <ele>1854</ele>
        <time>2016-07-26T07:29:36Z</time>
      </trkpt>
      <trkpt lat="45.2175" lon="6.95445">
        <ele>1853</ele>
        <time>2016-07-26T07:31:36Z</time>
      </trkpt>
      <trkpt lat="45.21744" lon="6.95443">
        <ele>1852</ele>
        <time>2016-07-26T07:33:36Z</time>
      </trkpt>
      <trkpt lat="45.21738" lon="6.95441">
        <ele>1851</ele>
        <time>2016-07-26T07:35:36Z</time>
      </trkpt>
      <trkpt lat="45.21733" lon="6.95442">
        <ele>1850</ele>
        <time>2016-07-26T07:37:36Z</time>
      </trkpt>
      <trkpt lat="45.21728" lon="6.95444">
        <ele>1850</ele>
        <time>2016-07-26T07:39:36Z</time>
      </trkpt>
      <trkpt lat="45.21724" lon="6.95447">
        <ele>1849</ele>
        <time>2016-07-26T07:41:36Z</time>
      </trkpt>
      <trkpt lat="45.21721" lon="6.95451">
        <ele>1848</ele>
        <time>2016-07-26T07:43:36Z</time>
      </trkpt>
      <trkpt lat="45.21719" lon="6.95455">
        <ele>1848</ele>
        <time>2016-07-26T07:45:36Z</time>
      </trkpt>
      <trkpt lat="45.21718" lon="6.95459">
        <ele>1848</ele>
        <time>2016-07-26T07:47:36Z</time>
      </trkpt>
      <trkpt lat="45.21717" lon="6.95463">
        <ele>1847</ele>
        <time>2016-07-26T07:49:36Z</time>
      </trkpt>
      <trkpt lat="45.21717" lon="6.95468">
        <ele>1847</ele>
        <time>2016-07-26T07:51:36Z</time>
      </trkpt>
      <trkpt lat="45.21717" lon="6.95476">
        <ele>1847</ele>
        <time>2016-07-26T07:53:36Z</time>
      </trkpt>
      <trkpt lat="45.21718" lon="6.95485">
        <ele>1847</ele>
        <time>2016-07-26T07:55:36Z</time>
      </trkpt>
      <trkpt lat="45.21719" lon="6.95494">
        <ele>1847</ele>
        <time>2016-07-26T07:57:36Z</time>
      </trkpt>
      <trkpt lat="45.2172" lon="6.95504">
        <ele>1846</ele>
        <time>2016-07-26T07:59:36Z</time>
      </trkpt>
      <trkpt lat="45.21722" lon="6.95514">
        <ele>1845</ele>
        <time>2016-07-26T08:01:36Z</time>
      </trkpt>
      <trkpt lat="45.21723" lon="6.95522">
        <ele>1844</ele>
        <time>2016-07-26T08:03:36Z</time>
      </trkpt>
      <trkpt lat="45.21723" lon="6.95527">
        <ele>1844</ele>
        <time>2016-07-26T08:05:36Z</time>
      </trkpt>
      <trkpt lat="45.21722" lon="6.95532">
        <ele>1843</ele>
        <time>2016-07-26T08:07:36Z</time>
      </trkpt>
      <trkpt lat="45.21722" lon="6.95535">
        <ele>1843</ele>
        <time>2016-07-26T08:09:36Z</time>
      </trkpt>
      <trkpt lat="45.21721" lon="6.95538">
        <ele>1842</ele>
        <time>2016-07-26T08:11:36Z</time>
      </trkpt>
      <trkpt lat="45.21719" lon="6.9554">
        <ele>1842</ele>
        <time>2016-07-26T08:13:36Z</time>
      </trkpt>
      <trkpt lat="45.21718" lon="6.95542">
        <ele>1842</ele>
        <time>2016-07-26T08:15:36Z</time>
      </trkpt>
      <trkpt lat="45.21715" lon="6.95544">
        <ele>1841</ele>
        <time>2016-07-26T08:17:36Z</time>
      </trkpt>
      <trkpt lat="45.21711" lon="6.95547">
        <ele>1840</ele>
        <time>2016-07-26T08:19:36Z</time>
      </trkpt>
      <trkpt lat="45.21708" lon="6.95547">
        <ele>1839</ele>
        <time>2016-07-26T08:21:36Z</time>
      </trkpt>
      <trkpt lat="45.21702" lon="6.95546">
        <ele>1839</ele>
        <time>2016-07-26T08:23:36Z</time>
      </trkpt>
      <trkpt lat="45.21687" lon="6.9554">
        <ele>1838</ele>
        <time>2016-07-26T08:25:36Z</time>
      </trkpt>
      <trkpt lat="45.21669" lon="6.95534">
        <ele>1837</ele>
        <time>2016-07-26T08:27:36Z</time>
      </trkpt>
      <trkpt lat="45.21665" lon="6.95532">
        <ele>1836</ele>
        <time>2016-07-26T08:29:36Z</time>
      </trkpt>
      <trkpt lat="45.2166" lon="6.9553">
        <ele>1834</ele>
        <time>2016-07-26T08:31:36Z</time>
      </trkpt>
      <trkpt lat="45.21657" lon="6.95527">
        <ele>1834</ele>
        <time>2016-07-26T08:33:36Z</time>
      </trkpt>
      <trkpt lat="45.21653" lon="6.95524">
        <ele>1833</ele>
        <time>2016-07-26T08:35:36Z</time>
      </trkpt>
      <trkpt lat="45.2165" lon="6.9552">
        <ele>1833</ele>
        <time>2016-07-26T08:37:36Z</time>
      </trkpt>
      <trkpt lat="45.21646" lon="6.95516">
        <ele>1832</ele>
        <time>2016-07-26T08:39:36Z</time>
      </trkpt>
      <trkpt lat="45.21642" lon="6.95507">
        <ele>1833</ele>
        <time>2016-07-26T08:41:36Z</time>
      </trkpt>
      <trkpt lat="45.2164" lon="6.95495">
        <ele>1834</ele>
        <time>2016-07-26T08:43:36Z</time>
      </trkpt>
      <trkpt lat="45.21638" lon="6.95489">
        <ele>1833</ele>
        <time>2016-07-26T08:45:36Z</time>
      </trkpt>
      <trkpt lat="45.21637" lon="6.95481">
        <ele>1833</ele>
        <time>2016-07-26T08:47:36Z</time>
      </trkpt>
      <trkpt lat="45.21636" lon="6.95475">
        <ele>1833</ele>
        <time>2016-07-26T08:49:36Z</time>
      </trkpt>
      <trkpt lat="45.21634" lon="6.95463">
        <ele>1832</ele>
        <time>2016-07-26T08:51:36Z</time>
      </trkpt>
      <trkpt lat="45.21633" lon="6.95456">
        <ele>1832</ele>
        <time>2016-07-26T08:53:36Z</time>
      </trkpt>
      <trkpt lat="45.21633" lon="6.95442">
        <ele>1832</ele>
        <time>2016-07-26T08:55:36Z</time>
      </trkpt>
      <trkpt lat="45.21632" lon="6.95433">
        <ele>1832</ele>
        <time>2016-07-26T08:57:36Z</time>
      </trkpt>
      <trkpt lat="45.21631" lon="6.95429">
        <ele>1832</ele>
        <time>2016-07-26T08:59:36Z</time>
      </trkpt>
      <trkpt lat="45.21629" lon="6.95424">
        <ele>1831</ele>
        <time>2016-07-26T09:01:36Z</time>
      </trkpt>
      <trkpt lat="45.21628" lon="6.95419">
        <ele>1831</ele>
        <time>2016-07-26T09:03:36Z</time>
      </trkpt>
      <trkpt lat="45.21627" lon="6.95414">
        <ele>1831</ele>
        <time>2016-07-26T09:05:36Z</time>
      </trkpt>
      <trkpt lat="45.21619" lon="6.95397">
        <ele>1833</ele>
        <time>2016-07-26T09:07:36Z</time>
      </trkpt>
      <trkpt lat="45.2161" lon="6.95385">
        <ele>1833</ele>
        <time>2016-07-26T09:09:36Z</time>
      </trkpt>
      <trkpt lat="45.21604" lon="6.95378">
        <ele>1834</ele>
        <time>2016-07-26T09:11:36Z</time>
      </trkpt>
      <trkpt lat="45.21597" lon="6.95373">
        <ele>1834</ele>
        <time>2016-07-26T09:13:36Z</time>
      </trkpt>
      <trkpt lat="45.21594" lon="6.95372">
        <ele>1833</ele>
        <time>2016-07-26T09:15:36Z</time>
      </trkpt>
      <trkpt lat="45.21592" lon="6.95373">
        <ele>1833</ele>
        <time>2016-07-26T09:17:36Z</time>
      </trkpt>
      <trkpt lat="45.21591" lon="6.95374">
        <ele>1832</ele>
        <time>2016-07-26T09:19:36Z</time>
      </trkpt>
      <trkpt lat="45.21591" lon="6.95375">
        <ele>1832</ele>
        <time>2016-07-26T09:21:36Z</time>
      </trkpt>
      <trkpt lat="45.2159" lon="6.95377">
        <ele>1832</ele>
        <time>2016-07-26T09:23:36Z</time>
      </trkpt>
      <trkpt lat="45.21589" lon="6.95381">
        <ele>1831</ele>
        <time>2016-07-26T09:25:36Z</time>
      </trkpt>
      <trkpt lat="45.2159" lon="6.95386">
        <ele>1830</ele>
        <time>2016-07-26T09:27:36Z</time>
      </trkpt>
      <trkpt lat="45.21592" lon="6.95393">
        <ele>1829</ele>
        <time>2016-07-26T09:29:36Z</time>
      </trkpt>
      <trkpt lat="45.21595" lon="6.95399">
        <ele>1828</ele>
        <time>2016-07-26T09:31:36Z</time>
      </trkpt>
      <trkpt lat="45.21598" lon="6.95406">
        <ele>1827</ele>
        <time>2016-07-26T09:33:36Z</time>
      </trkpt>
      <trkpt lat="45.21602" lon="6.95413">
        <ele>1827</ele>
        <time>2016-07-26T09:35:36Z</time>
      </trkpt>
      <trkpt lat="45.21604" lon="6.95419">
        <ele>1826</ele>
        <time>2016-07-26T09:37:36Z</time>
      </trkpt>
      <trkpt lat="45.21608" lon="6.95437">
        <ele>1826</ele>
        <time>2016-07-26T09:39:36Z</time>
      </trkpt>
      <trkpt lat="45.2161" lon="6.9545">
        <ele>1826</ele>
        <time>2016-07-26T09:41:36Z</time>
      </trkpt>
      <trkpt lat="45.2161" lon="6.9549">
        <ele>1823</ele>
        <time>2016-07-26T09:43:36Z</time>
      </trkpt>
      <trkpt lat="45.21609" lon="6.95505">
        <ele>1821</ele>
        <time>2016-07-26T09:45:36Z</time>
      </trkpt>
      <trkpt lat="45.21609" lon="6.95521">
        <ele>1815</ele>
        <time>2016-07-26T09:47:36Z</time>
      </trkpt>
      <trkpt lat="45.21609" lon="6.95532">
        <ele>1811</ele>
        <time>2016-07-26T09:49:36Z</time>
      </trkpt>
      <trkpt lat="45.21611" lon="6.9554">
        <ele>1809</ele>
        <time>2016-07-26T09:51:36Z</time>
      </trkpt>
      <trkpt lat="45.21615" lon="6.95554">
        <ele>1806</ele>
        <time>2016-07-26T09:53:36Z</time>
      </trkpt>
      <trkpt lat="45.21618" lon="6.95561">
        <ele>1806</ele>
        <time>2016-07-26T09:55:36Z</time>
      </trkpt>
      <trkpt lat="45.21623" lon="6.95568">
        <ele>1806</ele>
        <time>2016-07-26T09:57:36Z</time>
      </trkpt>
      <trkpt lat="45.21633" lon="6.95579">
        <ele>1808</ele>
        <time>2016-07-26T09:59:36Z</time>
      </trkpt>
      <trkpt lat="45.21641" lon="6.95589">
        <ele>1809</ele>
        <time>2016-07-26T10:01:36Z</time>
      </trkpt>
      <trkpt lat="45.21654" lon="6.95602">
        <ele>1813</ele>
        <time>2016-07-26T10:03:36Z</time>
      </trkpt>
      <trkpt lat="45.21661" lon="6.9561">
        <ele>1814</ele>
        <time>2016-07-26T10:05:36Z</time>
      </trkpt>
      <trkpt lat="45.21672" lon="6.95622">
        <ele>1815</ele>
        <time>2016-07-26T10:07:36Z</time>
      </trkpt>
      <trkpt lat="45.21676" lon="6.95627">
        <ele>1814</ele>
        <time>2016-07-26T10:09:36Z</time>
      </trkpt>
      <trkpt lat="45.2168" lon="6.95632">
        <ele>1814</ele>
        <time>2016-07-26T10:11:36Z</time>
      </trkpt>
      <trkpt lat="45.21683" lon="6.95636">
        <ele>1814</ele>
        <time>2016-07-26T10:13:36Z</time>
      </trkpt>
      <trkpt lat="45.21686" lon="6.9564">
        <ele>1814</ele>
        <time>2016-07-26T10:15:36Z</time>
      </trkpt>
      <trkpt lat="45.21688" lon="6.95644">
        <ele>1813</ele>
        <time>2016-07-26T10:17:36Z</time>
      </trkpt>
      <trkpt lat="45.21691" lon="6.95649">
        <ele>1812</ele>
        <time>2016-07-26T10:19:36Z</time>
      </trkpt>
      <trkpt lat="45.21693" lon="6.95655">
        <ele>1811</ele>
        <time>2016-07-26T10:21:36Z</time>
      </trkpt>
      <trkpt lat="45.21693" lon="6.95659">
        <ele>1810</ele>
        <time>2016-07-26T10:23:36Z</time>
      </trkpt>
      <trkpt lat="45.21695" lon="6.95668">
        <ele>1809</ele>
        <time>2016-07-26T10:25:36Z</time>
      </trkpt>
      <trkpt lat="45.21695" lon="6.95673">
        <ele>1810</ele>
        <time>2016-07-26T10:27:36Z</time>
      </trkpt>
      <trkpt lat="45.21695" lon="6.95683">
        <ele>1812</ele>
        <time>2016-07-26T10:29:36Z</time>
      </trkpt>
      <trkpt lat="45.21692" lon="6.95693">
        <ele>1813</ele>
        <time>2016-07-26T10:31:36Z</time>
      </trkpt>
      <trkpt lat="45.21689" lon="6.95701">
        <ele>1813</ele>
        <time>2016-07-26T10:33:36Z</time>
      </trkpt>
      <trkpt lat="45.21681" lon="6.95708">
        <ele>1812</ele>
        <time>2016-07-26T10:35:36Z</time>
      </trkpt>
      <trkpt lat="45.21671" lon="6.95715">
        <ele>1811</ele>
        <time>2016-07-26T10:37:36Z</time>
      </trkpt>
      <trkpt lat="45.21654" lon="6.95727">
        <ele>1806</ele>
        <time>2016-07-26T10:39:36Z</time>
      </trkpt>
      <trkpt lat="45.21646" lon="6.95734">
        <ele>1803</ele>
        <time>2016-07-26T10:41:36Z</time>
      </trkpt>
      <trkpt lat="45.21641" lon="6.95737">
        <ele>1801</ele>
        <time>2016-07-26T10:43:36Z</time>
      </trkpt>
      <trkpt lat="45.21639" lon="6.95739">
        <ele>1801</ele>
        <time>2016-07-26T10:45:36Z</time>
      </trkpt>
      <trkpt lat="45.21636" lon="6.95739">
        <ele>1799</ele>
        <time>2016-07-26T10:47:36Z</time>
      </trkpt>
      <trkpt lat="45.21634" lon="6.95738">
        <ele>1798</ele>
        <time>2016-07-26T10:49:36Z</time>
      </trkpt>
      <trkpt lat="45.21633" lon="6.95737">
        <ele>1797</ele>
        <time>2016-07-26T10:51:36Z</time>
      </trkpt>
      <trkpt lat="45.21631" lon="6.95734">
        <ele>1796</ele>
        <time>2016-07-26T10:53:36Z</time>
      </trkpt>
      <trkpt lat="45.21631" lon="6.95731">
        <ele>1795</ele>
        <time>2016-07-26T10:55:36Z</time>
      </trkpt>
      <trkpt lat="45.21631" lon="6.95728">
        <ele>1795</ele>
        <time>2016-07-26T10:57:36Z</time>
      </trkpt>
      <trkpt lat="45.21632" lon="6.95726">
        <ele>1795</ele>
        <time>2016-07-26T10:59:36Z</time>
      </trkpt>
      <trkpt lat="45.21634" lon="6.95723">
        <ele>1796</ele>
        <time>2016-07-26T11:01:36Z</time>
      </trkpt>
      <trkpt lat="45.21639" lon="6.95719">
        <ele>1797</ele>
        <time>2016-07-26T11:03:36Z</time>
      </trkpt>
      <trkpt lat="45.21646" lon="6.95714">
        <ele>1800</ele>
        <time>2016-07-26T11:05:36Z</time>
      </trkpt>
      <trkpt lat="45.21651" lon="6.95709">
        <ele>1801</ele>
        <time>2016-07-26T11:07:36Z</time>
      </trkpt>
      <trkpt lat="45.21654" lon="6.95703">
        <ele>1801</ele>
        <time>2016-07-26T11:09:36Z</time>
      </trkpt>
      <trkpt lat="45.21656" lon="6.95698">
        <ele>1801</ele>
        <time>2016-07-26T11:11:36Z</time>
      </trkpt>
      <trkpt lat="45.21657" lon="6.95695">
        <ele>1801</ele>
        <time>2016-07-26T11:13:36Z</time>
      </trkpt>
      <trkpt lat="45.21658" lon="6.95692">
        <ele>1801</ele>
        <time>2016-07-26T11:15:36Z</time>
      </trkpt>
      <trkpt lat="45.21659" lon="6.95689">
        <ele>1801</ele>
        <time>2016-07-26T11:17:36Z</time>
      </trkpt>
      <trkpt lat="45.21659" lon="6.95682">
        <ele>1800</ele>
        <time>2016-07-26T11:19:36Z</time>
      </trkpt>
      <trkpt lat="45.21659" lon="6.95678">
        <ele>1799</ele>
        <time>2016-07-26T11:21:36Z</time>
      </trkpt>
      <trkpt lat="45.21658" lon="6.95672">
        <ele>1797</ele>
        <time>2016-07-26T11:23:36Z</time>
      </trkpt>
      <trkpt lat="45.21656" lon="6.95667">
        <ele>1795</ele>
        <time>2016-07-26T11:25:36Z</time>
      </trkpt>
      <trkpt lat="45.21654" lon="6.95661">
        <ele>1796</ele>
        <time>2016-07-26T11:27:36Z</time>
      </trkpt>
      <trkpt lat="45.21651" lon="6.95656">
        <ele>1796</ele>
        <time>2016-07-26T11:29:36Z</time>
      </trkpt>
      <trkpt lat="45.21647" lon="6.95651">
        <ele>1796</ele>
        <time>2016-07-26T11:31:36Z</time>
      </trkpt>
      <trkpt lat="45.21641" lon="6.95645">
        <ele>1795</ele>
        <time>2016-07-26T11:33:36Z</time>
      </trkpt>
      <trkpt lat="45.21637" lon="6.95642">
        <ele>1794</ele>
        <time>2016-07-26T11:35:36Z</time>
      </trkpt>
      <trkpt lat="45.21632" lon="6.95638">
        <ele>1792</ele>
        <time>2016-07-26T11:37:36Z</time>
      </trkpt>
      <trkpt lat="45.21625" lon="6.95633">
        <ele>1790</ele>
        <time>2016-07-26T11:39:36Z</time>
      </trkpt>
      <trkpt lat="45.21618" lon="6.95628">
        <ele>1788</ele>
        <time>2016-07-26T11:41:36Z</time>
      </trkpt>
      <trkpt lat="45.21606" lon="6.95614">
        <ele>1785</ele>
        <time>2016-07-26T11:43:36Z</time>
      </trkpt>
      <trkpt lat="45.21601" lon="6.95607">
        <ele>1784</ele>
        <time>2016-07-26T11:45:36Z</time>
      </trkpt>
      <trkpt lat="45.21595" lon="6.95595">
        <ele>1783</ele>
        <time>2016-07-26T11:47:36Z</time>
      </trkpt>
      <trkpt lat="45.21589" lon="6.95587">
        <ele>1781</ele>
        <time>2016-07-26T11:49:36Z</time>
      </trkpt>
      <trkpt lat="45.21583" lon="6.95576">
        <ele>1782</ele>
        <time>2016-07-26T11:51:36Z</time>
      </trkpt>
      <trkpt lat="45.21569" lon="6.95556">
        <ele>1784</ele>
        <time>2016-07-26T11:53:36Z</time>
      </trkpt>
      <trkpt lat="45.21559" lon="6.95542">
        <ele>1784</ele>
        <time>2016-07-26T11:55:36Z</time>
      </trkpt>
      <trkpt lat="45.21541" lon="6.95519">
        <ele>1782</ele>
        <time>2016-07-26T11:57:36Z</time>
      </trkpt>
      <trkpt lat="45.21527" lon="6.95503">
        <ele>1778</ele>
        <time>2016-07-26T11:59:36Z</time>
      </trkpt>
      <trkpt lat="45.21511" lon="6.95484">
        <ele>1773</ele>
        <time>2016-07-26T12:01:36Z</time>
      </trkpt>
      <trkpt lat="45.21507" lon="6.95477">
        <ele>1772</ele>
        <time>2016-07-26T12:03:36Z</time>
      </trkpt>
      <trkpt lat="45.21506" lon="6.95474">
        <ele>1772</ele>
        <time>2016-07-26T12:05:36Z</time>
      </trkpt>
      <trkpt lat="45.21502" lon="6.95468">
        <ele>1771</ele>
        <time>2016-07-26T12:07:36Z</time>
      </trkpt>
      <trkpt lat="45.21499" lon="6.95462">
        <ele>1770</ele>
        <time>2016-07-26T12:09:36Z</time>
      </trkpt>
      <trkpt lat="45.21497" lon="6.9546">
        <ele>1770</ele>
        <time>2016-07-26T12:11:36Z</time>
      </trkpt>
      <trkpt lat="45.21494" lon="6.95457">
        <ele>1770</ele>
        <time>2016-07-26T12:13:36Z</time>
      </trkpt>
      <trkpt lat="45.21492" lon="6.95456">
        <ele>1769</ele>
        <time>2016-07-26T12:15:36Z</time>
      </trkpt>
      <trkpt lat="45.2149" lon="6.95455">
        <ele>1769</ele>
        <time>2016-07-26T12:17:36Z</time>
      </trkpt>
      <trkpt lat="45.21487" lon="6.95455">
        <ele>1767</ele>
        <time>2016-07-26T12:19:36Z</time>
      </trkpt>
      <trkpt lat="45.21486" lon="6.95456">
        <ele>1767</ele>
        <time>2016-07-26T12:21:36Z</time>
      </trkpt>
      <trkpt lat="45.21485" lon="6.95457">
        <ele>1766</ele>
        <time>2016-07-26T12:23:36Z</time>
      </trkpt>
      <trkpt lat="45.21483" lon="6.95458">
        <ele>1766</ele>
        <time>2016-07-26T12:25:36Z</time>
      </trkpt>
      <trkpt lat="45.21481" lon="6.95461">
        <ele>1764</ele>
        <time>2016-07-26T12:27:36Z</time>
      </trkpt>
      <trkpt lat="45.21481" lon="6.95464">
        <ele>1764</ele>
        <time>2016-07-26T12:29:36Z</time>
      </trkpt>
      <trkpt lat="45.21481" lon="6.95466">
        <ele>1764</ele>
        <time>2016-07-26T12:31:36Z</time>
      </trkpt>
      <trkpt lat="45.21481" lon="6.95469">
        <ele>1763</ele>
        <time>2016-07-26T12:33:36Z</time>
      </trkpt>
      <trkpt lat="45.21481" lon="6.95471">
        <ele>1763</ele>
        <time>2016-07-26T12:35:36Z</time>
      </trkpt>
      <trkpt lat="45.21481" lon="6.95472">
        <ele>1763</ele>
        <time>2016-07-26T12:37:36Z</time>
      </trkpt>
      <trkpt lat="45.21482" lon="6.95475">
        <ele>1762</ele>
        <time>2016-07-26T12:39:36Z</time>
      </trkpt>
      <trkpt lat="45.21484" lon="6.95479">
        <ele>1762</ele>
        <time>2016-07-26T12:41:36Z</time>
      </trkpt>
      <trkpt lat="45.21488" lon="6.95484">
        <ele>1763</ele>
        <time>2016-07-26T12:43:36Z</time>
      </trkpt>
      <trkpt lat="45.21495" lon="6.95493">
        <ele>1763</ele>
        <time>2016-07-26T12:45:36Z</time>
      </trkpt>
      <trkpt lat="45.21507" lon="6.95505">
        <ele>1766</ele>
        <time>2016-07-26T12:47:36Z</time>
      </trkpt>
      <trkpt lat="45.21519" lon="6.95519">
        <ele>1770</ele>
        <time>2016-07-26T12:49:36Z</time>
      </trkpt>
      <trkpt lat="45.21529" lon="6.95533">
        <ele>1772</ele>
        <time>2016-07-26T12:51:36Z</time>
      </trkpt>
      <trkpt lat="45.21538" lon="6.95549">
        <ele>1772</ele>
        <time>2016-07-26T12:53:36Z</time>
      </trkpt>
      <trkpt lat="45.21552" lon="6.95573">
        <ele>1771</ele>
        <time>2016-07-26T12:55:36Z</time>
      </trkpt>
      <trkpt lat="45.21565" lon="6.95598">
        <ele>1770</ele>
        <time>2016-07-26T12:57:36Z</time>
      </trkpt>
      <trkpt lat="45.21576" lon="6.95619">
        <ele>1770</ele>
        <time>2016-07-26T12:59:36Z</time>
      </trkpt>
      <trkpt lat="45.21581" lon="6.95632">
        <ele>1769</ele>
        <time>2016-07-26T13:01:36Z</time>
      </trkpt>
      <trkpt lat="45.21584" lon="6.95643">
        <ele>1769</ele>
        <time>2016-07-26T13:03:36Z</time>
      </trkpt>
      <trkpt lat="45.21587" lon="6.95655">
        <ele>1768</ele>
        <time>2016-07-26T13:05:36Z</time>
      </trkpt>
      <trkpt lat="45.21589" lon="6.95666">
        <ele>1767</ele>
        <time>2016-07-26T13:07:36Z</time>
      </trkpt>
      <trkpt lat="45.2159" lon="6.95674">
        <ele>1768</ele>
        <time>2016-07-26T13:09:36Z</time>
      </trkpt>
      <trkpt lat="45.21591" lon="6.95682">
        <ele>1769</ele>
        <time>2016-07-26T13:11:36Z</time>
      </trkpt>
      <trkpt lat="45.21592" lon="6.95698">
        <ele>1772</ele>
        <time>2016-07-26T13:13:36Z</time>
      </trkpt>
      <trkpt lat="45.21589" lon="6.95711">
        <ele>1772</ele>
        <time>2016-07-26T13:15:36Z</time>
      </trkpt>
      <trkpt lat="45.21586" lon="6.95723">
        <ele>1772</ele>
        <time>2016-07-26T13:17:36Z</time>
      </trkpt>
      <trkpt lat="45.21582" lon="6.95735">
        <ele>1772</ele>
        <time>2016-07-26T13:19:36Z</time>
      </trkpt>
      <trkpt lat="45.2156" lon="6.95782">
        <ele>1777</ele>
        <time>2016-07-26T13:21:36Z</time>
      </trkpt>
      <trkpt lat="45.21557" lon="6.95788">
        <ele>1778</ele>
        <time>2016-07-26T13:23:36Z</time>
      </trkpt>
      <trkpt lat="45.21555" lon="6.95792">
        <ele>1778</ele>
        <time>2016-07-26T13:25:36Z</time>
      </trkpt>
      <trkpt lat="45.21553" lon="6.95795">
        <ele>1778</ele>
        <time>2016-07-26T13:27:36Z</time>
      </trkpt>
      <trkpt lat="45.21551" lon="6.95797">
        <ele>1778</ele>
        <time>2016-07-26T13:29:36Z</time>
      </trkpt>
      <trkpt lat="45.21549" lon="6.95798">
        <ele>1777</ele>
        <time>2016-07-26T13:31:36Z</time>
      </trkpt>
      <trkpt lat="45.21547" lon="6.95799">
        <ele>1776</ele>
        <time>2016-07-26T13:33:36Z</time>
      </trkpt>
      <trkpt lat="45.21546" lon="6.958">
        <ele>1776</ele>
        <time>2016-07-26T13:35:36Z</time>
      </trkpt>
      <trkpt lat="45.21545" lon="6.958">
        <ele>1775</ele>
        <time>2016-07-26T13:37:36Z</time>
      </trkpt>
      <trkpt lat="45.21544" lon="6.95799">
        <ele>1775</ele>
        <time>2016-07-26T13:39:36Z</time>
      </trkpt>
      <trkpt lat="45.21542" lon="6.95797">
        <ele>1773</ele>
        <time>2016-07-26T13:41:36Z</time>
      </trkpt>
      <trkpt lat="45.21542" lon="6.95795">
        <ele>1773</ele>
        <time>2016-07-26T13:43:36Z</time>
      </trkpt>
      <trkpt lat="45.21541" lon="6.95793">
        <ele>1772</ele>
        <time>2016-07-26T13:45:36Z</time>
      </trkpt>
      <trkpt lat="45.21541" lon="6.95789">
        <ele>1771</ele>
        <time>2016-07-26T13:47:36Z</time>
      </trkpt>
      <trkpt lat="45.21541" lon="6.95784">
        <ele>1770</ele>
        <time>2016-07-26T13:49:36Z</time>
      </trkpt>
      <trkpt lat="45.21543" lon="6.95779">
        <ele>1769</ele>
        <time>2016-07-26T13:51:36Z</time>
      </trkpt>
      <trkpt lat="45.21544" lon="6.95773">
        <ele>1768</ele>
        <time>2016-07-26T13:53:36Z</time>
      </trkpt>
      <trkpt lat="45.21547" lon="6.95765">
        <ele>1767</ele>
        <time>2016-07-26T13:55:36Z</time>
      </trkpt>
      <trkpt lat="45.2155" lon="6.95753">
        <ele>1765</ele>
        <time>2016-07-26T13:57:36Z</time>
      </trkpt>
      <trkpt lat="45.21554" lon="6.95739">
        <ele>1764</ele>
        <time>2016-07-26T13:59:36Z</time>
      </trkpt>
      <trkpt lat="45.21558" lon="6.95724">
        <ele>1763</ele>
        <time>2016-07-26T14:01:36Z</time>
      </trkpt>
      <trkpt lat="45.2156" lon="6.95709">
        <ele>1762</ele>
        <time>2016-07-26T14:03:36Z</time>
      </trkpt>
      <trkpt lat="45.21562" lon="6.95698">
        <ele>1762</ele>
        <time>2016-07-26T14:05:36Z</time>
      </trkpt>
      <trkpt lat="45.21563" lon="6.95693">
        <ele>1761</ele>
        <time>2016-07-26T14:07:36Z</time>
      </trkpt>
      <trkpt lat="45.21563" lon="6.9569">
        <ele>1761</ele>
        <time>2016-07-26T14:09:36Z</time>
      </trkpt>
      <trkpt lat="45.21563" lon="6.95686">
        <ele>1760</ele>
        <time>2016-07-26T14:11:36Z</time>
      </trkpt>
      <trkpt lat="45.21562" lon="6.95682">
        <ele>1760</ele>
        <time>2016-07-26T14:13:36Z</time>
      </trkpt>
      <trkpt lat="45.21562" lon="6.95678">
        <ele>1759</ele>
        <time>2016-07-26T14:15:36Z</time>
      </trkpt>
      <trkpt lat="45.21561" lon="6.95675">
        <ele>1759</ele>
        <time>2016-07-26T14:17:36Z</time>
      </trkpt>
      <trkpt lat="45.21559" lon="6.95668">
        <ele>1757</ele>
        <time>2016-07-26T14:19:36Z</time>
      </trkpt>
      <trkpt lat="45.21533" lon="6.95636">
        <ele>1753</ele>
        <time>2016-07-26T14:21:36Z</time>
      </trkpt>
      <trkpt lat="45.21513" lon="6.95609">
        <ele>1750</ele>
        <time>2016-07-26T14:23:36Z</time>
      </trkpt>
      <trkpt lat="45.21497" lon="6.95589">
        <ele>1747</ele>
        <time>2016-07-26T14:25:36Z</time>
      </trkpt>
      <trkpt lat="45.21493" lon="6.95585">
        <ele>1747</ele>
        <time>2016-07-26T14:27:36Z</time>
      </trkpt>
      <trkpt lat="45.2149" lon="6.95582">
        <ele>1746</ele>
        <time>2016-07-26T14:29:36Z</time>
      </trkpt>
      <trkpt lat="45.21486" lon="6.95581">
        <ele>1746</ele>
        <time>2016-07-26T14:31:36Z</time>
      </trkpt>
      <trkpt lat="45.2148" lon="6.9558">
        <ele>1745</ele>
        <time>2016-07-26T14:33:36Z</time>
      </trkpt>
      <trkpt lat="45.21475" lon="6.9558">
        <ele>1744</ele>
        <time>2016-07-26T14:35:36Z</time>
      </trkpt>
      <trkpt lat="45.21469" lon="6.95581">
        <ele>1743</ele>
        <time>2016-07-26T14:37:36Z</time>
      </trkpt>
      <trkpt lat="45.21461" lon="6.95584">
        <ele>1741</ele>
        <time>2016-07-26T14:39:36Z</time>
      </trkpt>
      <trkpt lat="45.21441" lon="6.95597">
        <ele>1737</ele>
        <time>2016-07-26T14:41:36Z</time>
      </trkpt>
      <trkpt lat="45.21411" lon="6.95618">
        <ele>1732</ele>
        <time>2016-07-26T14:43:36Z</time>
      </trkpt>
      <trkpt lat="45.21374" lon="6.95643">
        <ele>1730</ele>
        <time>2016-07-26T14:45:36Z</time>
      </trkpt>
      <trkpt lat="45.21337" lon="6.95667">
        <ele>1728</ele>
        <time>2016-07-26T14:47:36Z</time>
      </trkpt>
      <trkpt lat="45.21323" lon="6.95675">
        <ele>1728</ele>
        <time>2016-07-26T14:49:36Z</time>
      </trkpt>
      <trkpt lat="45.21318" lon="6.95678">
        <ele>1728</ele>
        <time>2016-07-26T14:51:36Z</time>
      </trkpt>
      <trkpt lat="45.21314" lon="6.9568">
        <ele>1728</ele>
        <time>2016-07-26T14:53:36Z</time>
      </trkpt>
      <trkpt lat="45.21291" lon="6.95696">
        <ele>1727</ele>
        <time>2016-07-26T14:55:36Z</time>
      </trkpt>
      <trkpt lat="45.2118" lon="6.9577">
        <ele>1722</ele>
        <time>2016-07-26T14:57:36Z</time>
      </trkpt>
      <trkpt lat="45.21082" lon="6.95835">
        <ele>1719</ele>
        <time>2016-07-26T14:59:36Z</time>
      </trkpt>
      <trkpt lat="45.21036" lon="6.95866">
        <ele>1722</ele>
        <time>2016-07-26T15:01:36Z</time>
      </trkpt>
      <trkpt lat="45.20958" lon="6.95918">
        <ele>1723</ele>
        <time>2016-07-26T15:03:36Z</time>
      </trkpt>
      <trkpt lat="45.20943" lon="6.95928">
        <ele>1724</ele>
        <time>2016-07-26T15:05:36Z</time>
      </trkpt>
      <trkpt lat="45.20904" lon="6.95954">
        <ele>1726</ele>
        <time>2016-07-26T15:07:36Z</time>
      </trkpt>
      <trkpt lat="45.2083" lon="6.96002">
        <ele>1728</ele>
        <time>2016-07-26T15:09:36Z</time>
      </trkpt>
      <trkpt lat="45.20781" lon="6.96034">
        <ele>1730</ele>
        <time>2016-07-26T15:11:36Z</time>
      </trkpt>
      <trkpt lat="45.20747" lon="6.96056">
        <ele>1727</ele>
        <time>2016-07-26T15:13:36Z</time>
      </trkpt>
      <trkpt lat="45.20725" lon="6.9607">
        <ele>1729</ele>
        <time>2016-07-26T15:15:36Z</time>
      </trkpt>
      <trkpt lat="45.20711" lon="6.9608">
        <ele>1729</ele>
        <time>2016-07-26T15:17:36Z</time>
      </trkpt>
      <trkpt lat="45.20699" lon="6.96089">
        <ele>1730</ele>
        <time>2016-07-26T15:19:36Z</time>
      </trkpt>
      <trkpt lat="45.20682" lon="6.96105">
        <ele>1728</ele>
        <time>2016-07-26T15:21:36Z</time>
      </trkpt>
      <trkpt lat="45.20664" lon="6.96123">
        <ele>1724</ele>
        <time>2016-07-26T15:23:36Z</time>
      </trkpt>
      <trkpt lat="45.20649" lon="6.96142">
        <ele>1723</ele>
        <time>2016-07-26T15:25:36Z</time>
      </trkpt>
      <trkpt lat="45.20639" lon="6.96155">
        <ele>1722</ele>
        <time>2016-07-26T15:27:36Z</time>
      </trkpt>
      <trkpt lat="45.2063" lon="6.9617">
        <ele>1720</ele>
        <time>2016-07-26T15:29:36Z</time>
      </trkpt>
      <trkpt lat="45.20619" lon="6.96193">
        <ele>1718</ele>
        <time>2016-07-26T15:31:36Z</time>
      </trkpt>
      <trkpt lat="45.20604" lon="6.96221">
        <ele>1717</ele>
        <time>2016-07-26T15:33:36Z</time>
      </trkpt>
      <trkpt lat="45.20596" lon="6.96236">
        <ele>1716</ele>
        <time>2016-07-26T15:35:36Z</time>
      </trkpt>
      <trkpt lat="45.20592" lon="6.96242">
        <ele>1715</ele>
        <time>2016-07-26T15:37:36Z</time>
      </trkpt>
      <trkpt lat="45.20575" lon="6.96263">
        <ele>1715</ele>
        <time>2016-07-26T15:39:36Z</time>
      </trkpt>
      <trkpt lat="45.20562" lon="6.96276">
        <ele>1716</ele>
        <time>2016-07-26T15:41:36Z</time>
      </trkpt>
      <trkpt lat="45.20541" lon="6.96292">
        <ele>1718</ele>
        <time>2016-07-26T15:43:36Z</time>
      </trkpt>
      <trkpt lat="45.20534" lon="6.963">
        <ele>1718</ele>
        <time>2016-07-26T15:45:36Z</time>
      </trkpt>
    </trkseg>
  </trk>
</gpx>